<?xml version='1.0' encoding='UTF-8'?><gpx version="1.1" creator="JPX - https://github.com/jenetics/jpx" xmlns="http://www.topografix.com/GPX/1/1"><trk><trkseg><trkpt lat="43.5444316440667" lon="6.967939089667911"><ele>1.0</ele><time>2026-04-12T05:28:47Z</time></trkpt><trkpt lat="43.54443030000001" lon="6.967843333333334"><ele>0.9999999999999999</ele><time>2026-04-12T05:31:33.811Z</time></trkpt><trkpt lat="43.54440288333334" lon="6.967755566666667"><ele>1.0</ele><time>2026-04-12T05:31:38.888Z</time></trkpt><trkpt lat="43.544378666666674" lon="6.967673516666667"><ele>1.0</ele><time>2026-04-12T05:31:44.892Z</time></trkpt><trkpt lat="43.54435778333333" lon="6.967581066666666"><ele>0.9999999999999999</ele><time>2026-04-12T05:31:52.918Z</time></trkpt><trkpt lat="43.54431533801661" lon="6.9675053495977055"><ele>1.0</ele><time>2026-04-12T05:31:58.156Z</time></trkpt><trkpt lat="43.54427616221827" lon="6.967420706137073"><ele>1.0</ele><time>2026-04-12T05:32:04.5Z</time></trkpt><trkpt lat="43.54424154019581" lon="6.9673445860361465"><ele>1.2857142857142856</ele><time>2026-04-12T05:32:12Z</time></trkpt><trkpt lat="43.544203109791475" lon="6.967263688143235"><ele>1.5714285714285712</ele><time>2026-04-12T05:32:17.5Z</time></trkpt><trkpt lat="43.544170357216004" lon="6.967189491752914"><ele>1.857142857142857</ele><time>2026-04-12T05:32:23.35Z</time></trkpt><trkpt lat="43.54412788007872" lon="6.967114648493201"><ele>2.142857142857143</ele><time>2026-04-12T05:32:30Z</time></trkpt><trkpt lat="43.54410274534408" lon="6.967032865348602"><ele>2.4285714285714284</ele><time>2026-04-12T05:32:36Z</time></trkpt><trkpt lat="43.54407359878298" lon="6.966952300878439"><ele>2.714285714285714</ele><time>2026-04-12T05:32:42Z</time></trkpt><trkpt lat="43.54405370819093" lon="6.966869883147776"><ele>3.0</ele><time>2026-04-12T05:32:48Z</time></trkpt><trkpt lat="43.544032604396264" lon="6.966785805460309"><ele>3.1666666666666665</ele><time>2026-04-12T05:32:55Z</time></trkpt><trkpt lat="43.544004903893594" lon="6.9666917869029135"><ele>3.333333333333333</ele><time>2026-04-12T05:33:01Z</time></trkpt><trkpt lat="43.54399174541128" lon="6.966587436130706"><ele>3.5</ele><time>2026-04-12T05:33:04Z</time></trkpt><trkpt lat="43.543965460707675" lon="6.9664889221827"><ele>3.6666666666666665</ele><time>2026-04-12T05:33:06Z</time></trkpt><trkpt lat="43.54392404699334" lon="6.966389085129596"><ele>3.833333333333333</ele><time>2026-04-12T05:33:08Z</time></trkpt><trkpt lat="43.54387590585918" lon="6.966269933546194"><ele>4.0</ele><time>2026-04-12T05:33:10Z</time></trkpt><trkpt lat="43.54382826304558" lon="6.966138208765146"><ele>4.0</ele><time>2026-04-12T05:33:12Z</time></trkpt><trkpt lat="43.54378484820129" lon="6.965996690042417"><ele>4.0</ele><time>2026-04-12T05:33:14Z</time></trkpt><trkpt lat="43.54373637531611" lon="6.9658556028563465"><ele>4.0</ele><time>2026-04-12T05:33:16Z</time></trkpt><trkpt lat="43.54368381074854" lon="6.965713834402192"><ele>4.0</ele><time>2026-04-12T05:33:18Z</time></trkpt><trkpt lat="43.54362915742993" lon="6.965572667518451"><ele>3.8000000000000003</ele><time>2026-04-12T05:33:20Z</time></trkpt><trkpt lat="43.54356686364277" lon="6.965419775171536"><ele>3.6000000000000005</ele><time>2026-04-12T05:33:22Z</time></trkpt><trkpt lat="43.54353483143195" lon="6.965341356551751"><ele>3.4</ele><time>2026-04-12T05:33:23Z</time></trkpt><trkpt lat="43.54350417421134" lon="6.965262371108001"><ele>3.2</ele><time>2026-04-12T05:33:24Z</time></trkpt><trkpt lat="43.5434450929918" lon="6.965108546749042"><ele>3.0</ele><time>2026-04-12T05:33:26Z</time></trkpt><trkpt lat="43.543386898451764" lon="6.964958175313653"><ele>4.0</ele><time>2026-04-12T05:33:28Z</time></trkpt><trkpt lat="43.54333711565309" lon="6.964807090006126"><ele>5.0</ele><time>2026-04-12T05:33:30Z</time></trkpt><trkpt lat="43.543275703359235" lon="6.9646577896346376"><ele>6.0</ele><time>2026-04-12T05:33:32Z</time></trkpt><trkpt lat="43.54324363766235" lon="6.964581709040859"><ele>7.0</ele><time>2026-04-12T05:33:33Z</time></trkpt><trkpt lat="43.543210781429764" lon="6.964503752782444"><ele>8.0</ele><time>2026-04-12T05:33:34Z</time></trkpt><trkpt lat="43.54317642105732" lon="6.964425053259"><ele>9.0</ele><time>2026-04-12T05:33:35Z</time></trkpt><trkpt lat="43.543142893170184" lon="6.964348628587291"><ele>9.0</ele><time>2026-04-12T05:33:36Z</time></trkpt><trkpt lat="43.54310879055756" lon="6.96427089385566"><ele>9.0</ele><time>2026-04-12T05:33:37Z</time></trkpt><trkpt lat="43.54307376237438" lon="6.964191564030801"><ele>9.0</ele><time>2026-04-12T05:33:38Z</time></trkpt><trkpt lat="43.54304057315981" lon="6.964117304548934"><ele>9.0</ele><time>2026-04-12T05:33:39Z</time></trkpt><trkpt lat="43.54297432917444" lon="6.963969086402293"><ele>9.0</ele><time>2026-04-12T05:33:41Z</time></trkpt><trkpt lat="43.54293991327937" lon="6.9638920822771935"><ele>9.0</ele><time>2026-04-12T05:33:42Z</time></trkpt><trkpt lat="43.5428956775303" lon="6.963821765711338"><ele>9.000000000000002</ele><time>2026-04-12T05:33:43Z</time></trkpt><trkpt lat="43.54286571899108" lon="6.96374049165176"><ele>9.0</ele><time>2026-04-12T05:33:44Z</time></trkpt><trkpt lat="43.54283450939315" lon="6.963660633071825"><ele>9.0</ele><time>2026-04-12T05:33:45Z</time></trkpt><trkpt lat="43.54279586932521" lon="6.963580131103238"><ele>9.0</ele><time>2026-04-12T05:33:46Z</time></trkpt><trkpt lat="43.54275797223169" lon="6.9635051240918795"><ele>9.0</ele><time>2026-04-12T05:33:47Z</time></trkpt><trkpt lat="43.54272052367413" lon="6.963429733403311"><ele>9.000000000000002</ele><time>2026-04-12T05:33:48Z</time></trkpt><trkpt lat="43.542683092180305" lon="6.963350671295029"><ele>9.0</ele><time>2026-04-12T05:33:49Z</time></trkpt><trkpt lat="43.54264834716391" lon="6.963270213765275"><ele>9.000000000000002</ele><time>2026-04-12T05:33:50Z</time></trkpt><trkpt lat="43.542609950502964" lon="6.963193321780823"><ele>9.0</ele><time>2026-04-12T05:33:51Z</time></trkpt><trkpt lat="43.542576891300314" lon="6.963116482467214"><ele>9.0</ele><time>2026-04-12T05:33:52Z</time></trkpt><trkpt lat="43.542542025221906" lon="6.9630403980154725"><ele>9.0</ele><time>2026-04-12T05:33:53Z</time></trkpt><trkpt lat="43.54250945056743" lon="6.962956260579269"><ele>9.0</ele><time>2026-04-12T05:33:54Z</time></trkpt><trkpt lat="43.542472968571325" lon="6.962877225036468"><ele>9.000000000000002</ele><time>2026-04-12T05:33:55Z</time></trkpt><trkpt lat="43.54243598293515" lon="6.962796087768171"><ele>9.0</ele><time>2026-04-12T05:33:56Z</time></trkpt><trkpt lat="43.54239956465735" lon="6.962713612575174"><ele>9.000000000000002</ele><time>2026-04-12T05:33:57Z</time></trkpt><trkpt lat="43.54236175564783" lon="6.9626345549566695"><ele>9.0</ele><time>2026-04-12T05:33:58Z</time></trkpt><trkpt lat="43.5423217388464" lon="6.962555261681122"><ele>9.0</ele><time>2026-04-12T05:33:59Z</time></trkpt><trkpt lat="43.542282374435935" lon="6.962475176543856"><ele>9.0</ele><time>2026-04-12T05:34:00Z</time></trkpt><trkpt lat="43.54224584798011" lon="6.962395327669092"><ele>9.0</ele><time>2026-04-12T05:34:01Z</time></trkpt><trkpt lat="43.54220901563406" lon="6.962314503599895"><ele>9.000000000000002</ele><time>2026-04-12T05:34:02Z</time></trkpt><trkpt lat="43.54217125312611" lon="6.9622355474898345"><ele>9.0</ele><time>2026-04-12T05:34:03Z</time></trkpt><trkpt lat="43.54213659656251" lon="6.962160316932529"><ele>9.285714285714286</ele><time>2026-04-12T05:34:04Z</time></trkpt><trkpt lat="43.54209632811001" lon="6.962076680431282"><ele>9.571428571428571</ele><time>2026-04-12T05:34:05Z</time></trkpt><trkpt lat="43.54205889663712" lon="6.961997578359476"><ele>9.857142857142858</ele><time>2026-04-12T05:34:06Z</time></trkpt><trkpt lat="43.54202458512728" lon="6.961919990573034"><ele>10.142857142857142</ele><time>2026-04-12T05:34:07Z</time></trkpt><trkpt lat="43.54199170275356" lon="6.961840347649809"><ele>10.428571428571429</ele><time>2026-04-12T05:34:08Z</time></trkpt><trkpt lat="43.541961313991266" lon="6.961763627250107"><ele>10.714285714285715</ele><time>2026-04-12T05:34:09Z</time></trkpt><trkpt lat="43.54190769005642" lon="6.961636618242003"><ele>11.0</ele><time>2026-04-12T05:34:11Z</time></trkpt><trkpt lat="43.54185900757494" lon="6.9615235545689"><ele>10.0</ele><time>2026-04-12T05:34:13Z</time></trkpt><trkpt lat="43.54181534002043" lon="6.961413828655716"><ele>9.0</ele><time>2026-04-12T05:34:15Z</time></trkpt><trkpt lat="43.54178514365094" lon="6.961302211219623"><ele>8.0</ele><time>2026-04-12T05:34:17Z</time></trkpt><trkpt lat="43.54181131207108" lon="6.961164841482306"><ele>7.0</ele><time>2026-04-12T05:34:19Z</time></trkpt><trkpt lat="43.54190298107306" lon="6.961045432652307"><ele>6.0</ele><time>2026-04-12T05:34:21Z</time></trkpt><trkpt lat="43.541956426766625" lon="6.960979226125987"><ele>6.0</ele><time>2026-04-12T05:34:22Z</time></trkpt><trkpt lat="43.5420070742125" lon="6.960910855057578"><ele>6.0</ele><time>2026-04-12T05:34:23Z</time></trkpt><trkpt lat="43.54207060710796" lon="6.9608437733298665"><ele>6.0</ele><time>2026-04-12T05:34:24Z</time></trkpt><trkpt lat="43.54213716611021" lon="6.960768421720876"><ele>6.0</ele><time>2026-04-12T05:34:25Z</time></trkpt><trkpt lat="43.542209709322734" lon="6.9606909801220995"><ele>6.0</ele><time>2026-04-12T05:34:26Z</time></trkpt><trkpt lat="43.542278511597814" lon="6.960621883598403"><ele>6.0</ele><time>2026-04-12T05:34:27Z</time></trkpt><trkpt lat="43.54234097736709" lon="6.960560804335209"><ele>6.166666666666667</ele><time>2026-04-12T05:34:28Z</time></trkpt><trkpt lat="43.542402018374396" lon="6.960496757804298"><ele>6.333333333333334</ele><time>2026-04-12T05:34:29Z</time></trkpt><trkpt lat="43.54246729452363" lon="6.960440065167655"><ele>6.5</ele><time>2026-04-12T05:34:30Z</time></trkpt><trkpt lat="43.54252515349653" lon="6.960387023352141"><ele>6.666666666666667</ele><time>2026-04-12T05:34:31Z</time></trkpt><trkpt lat="43.54258116837472" lon="6.960344243374053"><ele>6.833333333333334</ele><time>2026-04-12T05:34:32Z</time></trkpt><trkpt lat="43.5426784296908" lon="6.960242643059058"><ele>7.0</ele><time>2026-04-12T05:34:34Z</time></trkpt><trkpt lat="43.5427730048559" lon="6.960147658831091"><ele>7.0</ele><time>2026-04-12T05:34:36Z</time></trkpt><trkpt lat="43.54285416072498" lon="6.960064539676586"><ele>6.999999999999999</ele><time>2026-04-12T05:34:38Z</time></trkpt><trkpt lat="43.54293396992281" lon="6.959984224411765"><ele>6.999999999999999</ele><time>2026-04-12T05:34:40Z</time></trkpt><trkpt lat="43.54303255161409" lon="6.9599490468083625"><ele>7.0</ele><time>2026-04-12T05:34:42Z</time></trkpt><trkpt lat="43.54312311392624" lon="6.959984790562216"><ele>7.0</ele><time>2026-04-12T05:34:44Z</time></trkpt><trkpt lat="43.5431564392387" lon="6.96006086006756"><ele>6.6</ele><time>2026-04-12T05:34:45Z</time></trkpt><trkpt lat="43.54324129489778" lon="6.960144694580748"><ele>6.199999999999999</ele><time>2026-04-12T05:34:47Z</time></trkpt><trkpt lat="43.54335073495039" lon="6.960121082418736"><ele>5.8</ele><time>2026-04-12T05:34:49Z</time></trkpt><trkpt lat="43.54345610764706" lon="6.960052732491633"><ele>5.4</ele><time>2026-04-12T05:34:51Z</time></trkpt><trkpt lat="43.54357007884768" lon="6.960050379729465"><ele>5.0</ele><time>2026-04-12T05:34:53Z</time></trkpt><trkpt lat="43.54366868248998" lon="6.960123987459774"><ele>5.0</ele><time>2026-04-12T05:34:55Z</time></trkpt><trkpt lat="43.543763092651844" lon="6.96022322735899"><ele>5.0</ele><time>2026-04-12T05:34:57Z</time></trkpt><trkpt lat="43.54385612225725" lon="6.96032209826319"><ele>5.0</ele><time>2026-04-12T05:34:59Z</time></trkpt><trkpt lat="43.54396537031944" lon="6.960404138617859"><ele>5.0</ele><time>2026-04-12T05:35:01Z</time></trkpt><trkpt lat="43.544075851928085" lon="6.960486494546728"><ele>5.0</ele><time>2026-04-12T05:35:03Z</time></trkpt><trkpt lat="43.54413054689364" lon="6.960544414142211"><ele>5.0</ele><time>2026-04-12T05:35:04Z</time></trkpt><trkpt lat="43.544184628228386" lon="6.960606188263044"><ele>5.0</ele><time>2026-04-12T05:35:05Z</time></trkpt><trkpt lat="43.54424160104179" lon="6.9606664291055145"><ele>5.0</ele><time>2026-04-12T05:35:06Z</time></trkpt><trkpt lat="43.54429685542235" lon="6.960724033203294"><ele>5.0</ele><time>2026-04-12T05:35:07Z</time></trkpt><trkpt lat="43.54435081543124" lon="6.960788140993648"><ele>5.0</ele><time>2026-04-12T05:35:08Z</time></trkpt><trkpt lat="43.544407765004124" lon="6.960848259552905"><ele>5.0</ele><time>2026-04-12T05:35:09Z</time></trkpt><trkpt lat="43.54446290326455" lon="6.960908184104295"><ele>4.714285714285714</ele><time>2026-04-12T05:35:10Z</time></trkpt><trkpt lat="43.544518659216614" lon="6.960968432024239"><ele>4.428571428571429</ele><time>2026-04-12T05:35:11Z</time></trkpt><trkpt lat="43.54457691637136" lon="6.961027242785277"><ele>4.142857142857142</ele><time>2026-04-12T05:35:12Z</time></trkpt><trkpt lat="43.544633261090425" lon="6.961087538563298"><ele>3.8571428571428568</ele><time>2026-04-12T05:35:13Z</time></trkpt><trkpt lat="43.54469101649944" lon="6.961148508340456"><ele>3.571428571428571</ele><time>2026-04-12T05:35:14Z</time></trkpt><trkpt lat="43.544749149738635" lon="6.9612079555285264"><ele>3.2857142857142856</ele><time>2026-04-12T05:35:15Z</time></trkpt><trkpt lat="43.54480734464039" lon="6.961267554065318"><ele>3.0</ele><time>2026-04-12T05:35:16Z</time></trkpt><trkpt lat="43.54486419077105" lon="6.961326921295713"><ele>2.9999999999999996</ele><time>2026-04-12T05:35:17Z</time></trkpt><trkpt lat="43.544920554529995" lon="6.961386670502654"><ele>3.0</ele><time>2026-04-12T05:35:18Z</time></trkpt><trkpt lat="43.54497847979848" lon="6.961448364050198"><ele>3.0</ele><time>2026-04-12T05:35:19Z</time></trkpt><trkpt lat="43.545035419528205" lon="6.961510519401762"><ele>3.0</ele><time>2026-04-12T05:35:20Z</time></trkpt><trkpt lat="43.5450911970049" lon="6.961572600420599"><ele>3.0</ele><time>2026-04-12T05:35:21Z</time></trkpt><trkpt lat="43.54514425998082" lon="6.961632979729403"><ele>2.9999999999999996</ele><time>2026-04-12T05:35:22Z</time></trkpt><trkpt lat="43.545200643634224" lon="6.961692179069728"><ele>3.0</ele><time>2026-04-12T05:35:23Z</time></trkpt><trkpt lat="43.54526345935889" lon="6.9617481311447085"><ele>3.0</ele><time>2026-04-12T05:35:24Z</time></trkpt><trkpt lat="43.545327753433575" lon="6.961801758679198"><ele>3.0</ele><time>2026-04-12T05:35:25Z</time></trkpt><trkpt lat="43.545392177336424" lon="6.961852763288633"><ele>3.0</ele><time>2026-04-12T05:35:26Z</time></trkpt><trkpt lat="43.545460865581816" lon="6.961904210511872"><ele>3.0</ele><time>2026-04-12T05:35:27Z</time></trkpt><trkpt lat="43.54552937197111" lon="6.961951434039714"><ele>3.0</ele><time>2026-04-12T05:35:28Z</time></trkpt><trkpt lat="43.54560089103902" lon="6.96199858074376"><ele>3.0</ele><time>2026-04-12T05:35:29Z</time></trkpt><trkpt lat="43.54567517633204" lon="6.962044912204333"><ele>3.0</ele><time>2026-04-12T05:35:30Z</time></trkpt><trkpt lat="43.54574785355339" lon="6.962084286863555"><ele>3.0</ele><time>2026-04-12T05:35:31Z</time></trkpt><trkpt lat="43.54581903141646" lon="6.962121834067677"><ele>3.0</ele><time>2026-04-12T05:35:32Z</time></trkpt><trkpt lat="43.545893665713784" lon="6.962155398106078"><ele>3.0</ele><time>2026-04-12T05:35:33Z</time></trkpt><trkpt lat="43.54596900753752" lon="6.962186944311963"><ele>3.0</ele><time>2026-04-12T05:35:34Z</time></trkpt><trkpt lat="43.54604228959247" lon="6.962217941412711"><ele>3.0</ele><time>2026-04-12T05:35:35Z</time></trkpt><trkpt lat="43.54611638665686" lon="6.96224888930598"><ele>3.0</ele><time>2026-04-12T05:35:36Z</time></trkpt><trkpt lat="43.54619202823928" lon="6.962278568188098"><ele>3.0</ele><time>2026-04-12T05:35:37Z</time></trkpt><trkpt lat="43.54626797651096" lon="6.962308676660509"><ele>3.0</ele><time>2026-04-12T05:35:38Z</time></trkpt><trkpt lat="43.54633483303044" lon="6.96236133130051"><ele>3.0</ele><time>2026-04-12T05:35:39Z</time></trkpt><trkpt lat="43.54640992328815" lon="6.962398094476769"><ele>3.0</ele><time>2026-04-12T05:35:40Z</time></trkpt><trkpt lat="43.54648847045555" lon="6.9624279806306175"><ele>3.0</ele><time>2026-04-12T05:35:41Z</time></trkpt><trkpt lat="43.54656916327773" lon="6.962431468319377"><ele>3.3333333333333335</ele><time>2026-04-12T05:35:42Z</time></trkpt><trkpt lat="43.54665521762457" lon="6.962424023635658"><ele>3.666666666666667</ele><time>2026-04-12T05:35:43Z</time></trkpt><trkpt lat="43.54673588497334" lon="6.962447759246476"><ele>4.0</ele><time>2026-04-12T05:35:44Z</time></trkpt><trkpt lat="43.54681801445867" lon="6.96244734025159"><ele>4.333333333333334</ele><time>2026-04-12T05:35:45Z</time></trkpt><trkpt lat="43.5468977568451" lon="6.962443683460974"><ele>4.666666666666667</ele><time>2026-04-12T05:35:46Z</time></trkpt><trkpt lat="43.546977086760194" lon="6.962439475278423"><ele>5.0</ele><time>2026-04-12T05:35:47Z</time></trkpt><trkpt lat="43.54705629576861" lon="6.962435273511105"><ele>5.0</ele><time>2026-04-12T05:35:48Z</time></trkpt><trkpt lat="43.547136407146546" lon="6.962430626102233"><ele>5.0</ele><time>2026-04-12T05:35:49Z</time></trkpt><trkpt lat="43.54721678728977" lon="6.962424999492606"><ele>5.0</ele><time>2026-04-12T05:35:50Z</time></trkpt><trkpt lat="43.547296417853296" lon="6.962419425353043"><ele>5.0</ele><time>2026-04-12T05:35:51Z</time></trkpt><trkpt lat="43.54737586216356" lon="6.96241309481347"><ele>5.0</ele><time>2026-04-12T05:35:52Z</time></trkpt><trkpt lat="43.54745525537871" lon="6.962406378719338"><ele>5.0</ele><time>2026-04-12T05:35:53Z</time></trkpt><trkpt lat="43.54753320800056" lon="6.962379292889775"><ele>5.0</ele><time>2026-04-12T05:35:54Z</time></trkpt><trkpt lat="43.547612499577156" lon="6.962376932118146"><ele>5.0</ele><time>2026-04-12T05:35:55Z</time></trkpt><trkpt lat="43.547692269842784" lon="6.962378784210432"><ele>5.0</ele><time>2026-04-12T05:35:56Z</time></trkpt><trkpt lat="43.54777153945473" lon="6.962376965957644"><ele>5.0</ele><time>2026-04-12T05:35:57Z</time></trkpt><trkpt lat="43.54785105219007" lon="6.962372388421681"><ele>5.0</ele><time>2026-04-12T05:35:58Z</time></trkpt><trkpt lat="43.54793051273851" lon="6.962366886507229"><ele>5.0</ele><time>2026-04-12T05:35:59Z</time></trkpt><trkpt lat="43.548010171459396" lon="6.962360974391044"><ele>4.833333333333334</ele><time>2026-04-12T05:36:00Z</time></trkpt><trkpt lat="43.54808779856554" lon="6.962356039862354"><ele>4.666666666666667</ele><time>2026-04-12T05:36:01Z</time></trkpt><trkpt lat="43.548168515242686" lon="6.9623543999361175"><ele>4.5</ele><time>2026-04-12T05:36:02Z</time></trkpt><trkpt lat="43.54824618971083" lon="6.962349252544726"><ele>4.333333333333333</ele><time>2026-04-12T05:36:03Z</time></trkpt><trkpt lat="43.548324173969974" lon="6.962341762355592"><ele>4.166666666666666</ele><time>2026-04-12T05:36:04Z</time></trkpt><trkpt lat="43.54840261938426" lon="6.962335088455231"><ele>4.0</ele><time>2026-04-12T05:36:05Z</time></trkpt><trkpt lat="43.548480179876584" lon="6.962334352270256"><ele>4.0</ele><time>2026-04-12T05:36:06Z</time></trkpt><trkpt lat="43.548556337559745" lon="6.962335325477374"><ele>3.9999999999999996</ele><time>2026-04-12T05:36:07Z</time></trkpt><trkpt lat="43.54863133798778" lon="6.962327231369813"><ele>4.0</ele><time>2026-04-12T05:36:08Z</time></trkpt><trkpt lat="43.548705331996494" lon="6.9623170735481485"><ele>4.0</ele><time>2026-04-12T05:36:09Z</time></trkpt><trkpt lat="43.548776732221526" lon="6.9623111573035485"><ele>3.9999999999999996</ele><time>2026-04-12T05:36:10Z</time></trkpt><trkpt lat="43.54884782310564" lon="6.962308428446676"><ele>4.0</ele><time>2026-04-12T05:36:11Z</time></trkpt><trkpt lat="43.54892124557069" lon="6.9623070970589085"><ele>4.0</ele><time>2026-04-12T05:36:12Z</time></trkpt><trkpt lat="43.54899594965251" lon="6.962304362724795"><ele>3.8571428571428568</ele><time>2026-04-12T05:36:13Z</time></trkpt><trkpt lat="43.54906889808273" lon="6.962296195669907"><ele>3.714285714285714</ele><time>2026-04-12T05:36:14Z</time></trkpt><trkpt lat="43.54914107961326" lon="6.962287543291086"><ele>3.571428571428571</ele><time>2026-04-12T05:36:15Z</time></trkpt><trkpt lat="43.54921237299152" lon="6.962277502352826"><ele>3.4285714285714284</ele><time>2026-04-12T05:36:16Z</time></trkpt><trkpt lat="43.5492831046373" lon="6.962268283159579"><ele>3.2857142857142856</ele><time>2026-04-12T05:36:17Z</time></trkpt><trkpt lat="43.549353769079175" lon="6.962259850283641"><ele>3.1428571428571423</ele><time>2026-04-12T05:36:18Z</time></trkpt><trkpt lat="43.54942499901035" lon="6.962252669868925"><ele>3.0</ele><time>2026-04-12T05:36:19Z</time></trkpt><trkpt lat="43.54949693651236" lon="6.962248228344334"><ele>3.0</ele><time>2026-04-12T05:36:20Z</time></trkpt><trkpt lat="43.54956749984373" lon="6.962249430154946"><ele>3.0</ele><time>2026-04-12T05:36:21Z</time></trkpt><trkpt lat="43.54963924716168" lon="6.962250713820785"><ele>3.0</ele><time>2026-04-12T05:36:22Z</time></trkpt><trkpt lat="43.54971055767707" lon="6.962257032962491"><ele>3.0</ele><time>2026-04-12T05:36:23Z</time></trkpt><trkpt lat="43.54978056190192" lon="6.96226780194625"><ele>3.0</ele><time>2026-04-12T05:36:24Z</time></trkpt><trkpt lat="43.549845819640566" lon="6.9622843351833845"><ele>3.0</ele><time>2026-04-12T05:36:25Z</time></trkpt><trkpt lat="43.549958716383195" lon="6.962346301552099"><ele>3.0</ele><time>2026-04-12T05:36:27Z</time></trkpt><trkpt lat="43.55003859462968" lon="6.962466120452221"><ele>3.0</ele><time>2026-04-12T05:36:29Z</time></trkpt><trkpt lat="43.5501266671503" lon="6.962560242429635"><ele>3.0</ele><time>2026-04-12T05:36:31Z</time></trkpt><trkpt lat="43.550244579172876" lon="6.962545757490958"><ele>3.0</ele><time>2026-04-12T05:36:33Z</time></trkpt><trkpt lat="43.55033326671668" lon="6.962434951375025"><ele>3.0</ele><time>2026-04-12T05:36:35Z</time></trkpt><trkpt lat="43.55034745785264" lon="6.962273512823593"><ele>3.0</ele><time>2026-04-12T05:36:37Z</time></trkpt><trkpt lat="43.55029511559135" lon="6.962124263924209"><ele>3.0</ele><time>2026-04-12T05:36:39Z</time></trkpt><trkpt lat="43.55022431832357" lon="6.961987175170385"><ele>3.0</ele><time>2026-04-12T05:36:41Z</time></trkpt><trkpt lat="43.55021124709545" lon="6.9619013052241145"><ele>3.0</ele><time>2026-04-12T05:36:42Z</time></trkpt><trkpt lat="43.550214539103145" lon="6.96180847505035"><ele>2.9999999999999996</ele><time>2026-04-12T05:36:43Z</time></trkpt><trkpt lat="43.55022524877999" lon="6.961715783517231"><ele>3.0</ele><time>2026-04-12T05:36:44Z</time></trkpt><trkpt lat="43.55023732598553" lon="6.961623416954872"><ele>3.0</ele><time>2026-04-12T05:36:45Z</time></trkpt><trkpt lat="43.55024913624128" lon="6.961527780070552"><ele>3.0</ele><time>2026-04-12T05:36:46Z</time></trkpt><trkpt lat="43.550260856823705" lon="6.961428411965915"><ele>3.0</ele><time>2026-04-12T05:36:47Z</time></trkpt><trkpt lat="43.5502715602231" lon="6.961327001218846"><ele>2.9999999999999996</ele><time>2026-04-12T05:36:48Z</time></trkpt><trkpt lat="43.55028229106913" lon="6.9612252748984265"><ele>3.0</ele><time>2026-04-12T05:36:49Z</time></trkpt><trkpt lat="43.55029250751308" lon="6.961122050503244"><ele>2.8333333333333335</ele><time>2026-04-12T05:36:50Z</time></trkpt><trkpt lat="43.55029927603503" lon="6.961017011235042"><ele>2.6666666666666665</ele><time>2026-04-12T05:36:51Z</time></trkpt><trkpt lat="43.550303171965496" lon="6.960910492685537"><ele>2.5</ele><time>2026-04-12T05:36:52Z</time></trkpt><trkpt lat="43.55030667641247" lon="6.960803349664863"><ele>2.333333333333333</ele><time>2026-04-12T05:36:53Z</time></trkpt><trkpt lat="43.55031259277471" lon="6.960696649044988"><ele>2.1666666666666665</ele><time>2026-04-12T05:36:54Z</time></trkpt><trkpt lat="43.5503163655574" lon="6.960590373210526"><ele>2.0</ele><time>2026-04-12T05:36:55Z</time></trkpt><trkpt lat="43.55031648712152" lon="6.960484073244336"><ele>2.333333333333333</ele><time>2026-04-12T05:36:56Z</time></trkpt><trkpt lat="43.550321010527355" lon="6.960375978886963"><ele>2.6666666666666665</ele><time>2026-04-12T05:36:57Z</time></trkpt><trkpt lat="43.55032588284318" lon="6.9602672733572195"><ele>3.0</ele><time>2026-04-12T05:36:58Z</time></trkpt><trkpt lat="43.5503304889935" lon="6.960158961088792"><ele>3.333333333333333</ele><time>2026-04-12T05:36:59Z</time></trkpt><trkpt lat="43.5503362127483" lon="6.960051709128549"><ele>3.6666666666666665</ele><time>2026-04-12T05:37:00Z</time></trkpt><trkpt lat="43.55034047681827" lon="6.959944187176974"><ele>4.0</ele><time>2026-04-12T05:37:01Z</time></trkpt><trkpt lat="43.55034417494991" lon="6.959836257703297"><ele>3.9999999999999996</ele><time>2026-04-12T05:37:02Z</time></trkpt><trkpt lat="43.550350892958484" lon="6.959729587460107"><ele>4.0</ele><time>2026-04-12T05:37:03Z</time></trkpt><trkpt lat="43.55035883710828" lon="6.959621927247541"><ele>4.0</ele><time>2026-04-12T05:37:04Z</time></trkpt><trkpt lat="43.55036015761035" lon="6.959516037118165"><ele>4.0</ele><time>2026-04-12T05:37:05Z</time></trkpt><trkpt lat="43.550363658009864" lon="6.959407411261107"><ele>3.9999999999999996</ele><time>2026-04-12T05:37:06Z</time></trkpt><trkpt lat="43.55036925889069" lon="6.959300478996312"><ele>4.0</ele><time>2026-04-12T05:37:07Z</time></trkpt><trkpt lat="43.55037442412663" lon="6.959193301190317"><ele>4.5</ele><time>2026-04-12T05:37:08Z</time></trkpt><trkpt lat="43.550379442458535" lon="6.959085110003095"><ele>5.0</ele><time>2026-04-12T05:37:09Z</time></trkpt><trkpt lat="43.55038574838362" lon="6.958976324006563"><ele>5.5</ele><time>2026-04-12T05:37:10Z</time></trkpt><trkpt lat="43.55039097781612" lon="6.958868644969147"><ele>6.0</ele><time>2026-04-12T05:37:11Z</time></trkpt><trkpt lat="43.550394776647" lon="6.958761118295299"><ele>6.500000000000001</ele><time>2026-04-12T05:37:12Z</time></trkpt><trkpt lat="43.55039877234173" lon="6.9586540816455305"><ele>7.0</ele><time>2026-04-12T05:37:13Z</time></trkpt><trkpt lat="43.55040550803607" lon="6.958547898557697"><ele>7.000000000000001</ele><time>2026-04-12T05:37:14Z</time></trkpt><trkpt lat="43.550411886679434" lon="6.958442948093532"><ele>7.0</ele><time>2026-04-12T05:37:15Z</time></trkpt><trkpt lat="43.55041586538687" lon="6.958337238618348"><ele>7.0</ele><time>2026-04-12T05:37:16Z</time></trkpt><trkpt lat="43.5504223268887" lon="6.958236054473268"><ele>7.0</ele><time>2026-04-12T05:37:17Z</time></trkpt><trkpt lat="43.550426390335886" lon="6.958133701305356"><ele>7.000000000000001</ele><time>2026-04-12T05:37:18Z</time></trkpt><trkpt lat="43.55043004296072" lon="6.958031710966705"><ele>7.0</ele><time>2026-04-12T05:37:19Z</time></trkpt><trkpt lat="43.55043713599837" lon="6.957929060324295"><ele>7.0</ele><time>2026-04-12T05:37:20Z</time></trkpt><trkpt lat="43.55044806942295" lon="6.9578270148255"><ele>7.0</ele><time>2026-04-12T05:37:21Z</time></trkpt><trkpt lat="43.55046847199228" lon="6.957727203640304"><ele>7.0</ele><time>2026-04-12T05:37:22Z</time></trkpt><trkpt lat="43.5504996031035" lon="6.9576329789156235"><ele>7.0</ele><time>2026-04-12T05:37:23Z</time></trkpt><trkpt lat="43.550544639976884" lon="6.957551484709202"><ele>7.0</ele><time>2026-04-12T05:37:24Z</time></trkpt><trkpt lat="43.550592702449045" lon="6.957472983858363"><ele>7.0</ele><time>2026-04-12T05:37:25Z</time></trkpt><trkpt lat="43.5506282017947" lon="6.957383175459341"><ele>7.0</ele><time>2026-04-12T05:37:26Z</time></trkpt><trkpt lat="43.55065349217606" lon="6.957278876332823"><ele>6.833333333333334</ele><time>2026-04-12T05:37:27Z</time></trkpt><trkpt lat="43.550681278346595" lon="6.957172781744079"><ele>6.666666666666667</ele><time>2026-04-12T05:37:28Z</time></trkpt><trkpt lat="43.55072042720235" lon="6.957070677208213"><ele>6.5</ele><time>2026-04-12T05:37:29Z</time></trkpt><trkpt lat="43.550765726886645" lon="6.956970713510309"><ele>6.333333333333334</ele><time>2026-04-12T05:37:30Z</time></trkpt><trkpt lat="43.550810578641176" lon="6.956867497979012"><ele>6.166666666666667</ele><time>2026-04-12T05:37:31Z</time></trkpt><trkpt lat="43.55085715806257" lon="6.956764589970346"><ele>6.0</ele><time>2026-04-12T05:37:32Z</time></trkpt><trkpt lat="43.5509030010993" lon="6.956663925486561"><ele>6.0</ele><time>2026-04-12T05:37:33Z</time></trkpt><trkpt lat="43.55094859454666" lon="6.956567349013628"><ele>6.0</ele><time>2026-04-12T05:37:34Z</time></trkpt><trkpt lat="43.550997829740965" lon="6.956477964161503"><ele>6.0</ele><time>2026-04-12T05:37:35Z</time></trkpt><trkpt lat="43.5510520443505" lon="6.956396833927321"><ele>6.0</ele><time>2026-04-12T05:37:36Z</time></trkpt><trkpt lat="43.55110655921033" lon="6.956319880907427"><ele>6.0</ele><time>2026-04-12T05:37:37Z</time></trkpt><trkpt lat="43.55116112551258" lon="6.9562463242483705"><ele>6.0</ele><time>2026-04-12T05:37:38Z</time></trkpt><trkpt lat="43.551216904336336" lon="6.956173991190431"><ele>6.0</ele><time>2026-04-12T05:37:39Z</time></trkpt><trkpt lat="43.551276417470255" lon="6.956103086115417"><ele>6.0</ele><time>2026-04-12T05:37:40Z</time></trkpt><trkpt lat="43.5513376116508" lon="6.956036022569439"><ele>6.0</ele><time>2026-04-12T05:37:41Z</time></trkpt><trkpt lat="43.551401489292324" lon="6.955972864105835"><ele>6.0</ele><time>2026-04-12T05:37:42Z</time></trkpt><trkpt lat="43.55146472038719" lon="6.955911428660492"><ele>6.0</ele><time>2026-04-12T05:37:43Z</time></trkpt><trkpt lat="43.55152882202303" lon="6.955851394163078"><ele>6.0</ele><time>2026-04-12T05:37:44Z</time></trkpt><trkpt lat="43.55159356513083" lon="6.955795092695317"><ele>5.833333333333333</ele><time>2026-04-12T05:37:45Z</time></trkpt><trkpt lat="43.55166023711991" lon="6.955743241809429"><ele>5.666666666666667</ele><time>2026-04-12T05:37:46Z</time></trkpt><trkpt lat="43.55172770024339" lon="6.955695272145565"><ele>5.5</ele><time>2026-04-12T05:37:47Z</time></trkpt><trkpt lat="43.5517945317978" lon="6.95564966400601"><ele>5.333333333333334</ele><time>2026-04-12T05:37:48Z</time></trkpt><trkpt lat="43.551861509155216" lon="6.95560700846923"><ele>5.166666666666667</ele><time>2026-04-12T05:37:49Z</time></trkpt><trkpt lat="43.551928431080675" lon="6.955564654362414"><ele>5.0</ele><time>2026-04-12T05:37:50Z</time></trkpt><trkpt lat="43.55199742150158" lon="6.955523562386553"><ele>5.166666666666667</ele><time>2026-04-12T05:37:51Z</time></trkpt><trkpt lat="43.55206965725348" lon="6.955488042617997"><ele>5.333333333333334</ele><time>2026-04-12T05:37:52Z</time></trkpt><trkpt lat="43.55214362781086" lon="6.955457441766689"><ele>5.5</ele><time>2026-04-12T05:37:53Z</time></trkpt><trkpt lat="43.55221586939035" lon="6.955423455697645"><ele>5.666666666666667</ele><time>2026-04-12T05:37:54Z</time></trkpt><trkpt lat="43.55228704167514" lon="6.9553870804970686"><ele>5.833333333333333</ele><time>2026-04-12T05:37:55Z</time></trkpt><trkpt lat="43.5523583584679" lon="6.955350360626359"><ele>6.0</ele><time>2026-04-12T05:37:56Z</time></trkpt><trkpt lat="43.552429571530254" lon="6.955315066159436"><ele>5.999999999999999</ele><time>2026-04-12T05:37:57Z</time></trkpt><trkpt lat="43.55249856170189" lon="6.95528271555444"><ele>6.0</ele><time>2026-04-12T05:37:58Z</time></trkpt><trkpt lat="43.552567762826996" lon="6.955257902820127"><ele>6.0</ele><time>2026-04-12T05:37:59Z</time></trkpt><trkpt lat="43.55263573203833" lon="6.9552356153844"><ele>6.0</ele><time>2026-04-12T05:38:00Z</time></trkpt><trkpt lat="43.55270439305095" lon="6.955213958464145"><ele>6.0</ele><time>2026-04-12T05:38:01Z</time></trkpt><trkpt lat="43.55277453477712" lon="6.955192231213569"><ele>5.999999999999999</ele><time>2026-04-12T05:38:02Z</time></trkpt><trkpt lat="43.552846526365805" lon="6.95516836617589"><ele>6.0</ele><time>2026-04-12T05:38:03Z</time></trkpt><trkpt lat="43.55291871171787" lon="6.955142619716704"><ele>5.999999999999999</ele><time>2026-04-12T05:38:04Z</time></trkpt><trkpt lat="43.5529906684035" lon="6.95511702397354"><ele>6.0</ele><time>2026-04-12T05:38:05Z</time></trkpt><trkpt lat="43.55306138297937" lon="6.95508815780203"><ele>6.0</ele><time>2026-04-12T05:38:06Z</time></trkpt><trkpt lat="43.55313277162701" lon="6.955059525303336"><ele>6.0</ele><time>2026-04-12T05:38:07Z</time></trkpt><trkpt lat="43.55320436990425" lon="6.9550284846817325"><ele>6.0</ele><time>2026-04-12T05:38:08Z</time></trkpt><trkpt lat="43.5532762227506" lon="6.954999276731364"><ele>5.999999999999999</ele><time>2026-04-12T05:38:09Z</time></trkpt><trkpt lat="43.553348137784454" lon="6.95497171928759"><ele>6.0</ele><time>2026-04-12T05:38:10Z</time></trkpt><trkpt lat="43.55341902572009" lon="6.954944640677734"><ele>6.0</ele><time>2026-04-12T05:38:11Z</time></trkpt><trkpt lat="43.55349013898354" lon="6.954917552365399"><ele>6.0</ele><time>2026-04-12T05:38:12Z</time></trkpt><trkpt lat="43.553562144872345" lon="6.954890890164807"><ele>6.0</ele><time>2026-04-12T05:38:13Z</time></trkpt><trkpt lat="43.55363509134907" lon="6.95486481996953"><ele>6.0</ele><time>2026-04-12T05:38:14Z</time></trkpt><trkpt lat="43.55370787261499" lon="6.954839518388559"><ele>6.0</ele><time>2026-04-12T05:38:15Z</time></trkpt><trkpt lat="43.55378157268508" lon="6.954813493622649"><ele>6.0</ele><time>2026-04-12T05:38:16Z</time></trkpt><trkpt lat="43.55385514925209" lon="6.954787224741998"><ele>5.999999999999999</ele><time>2026-04-12T05:38:17Z</time></trkpt><trkpt lat="43.55392857514345" lon="6.954764613801314"><ele>6.0</ele><time>2026-04-12T05:38:18Z</time></trkpt><trkpt lat="43.554001650527944" lon="6.954741421311311"><ele>6.0</ele><time>2026-04-12T05:38:19Z</time></trkpt><trkpt lat="43.55407439547093" lon="6.954715772734558"><ele>6.0</ele><time>2026-04-12T05:38:20Z</time></trkpt><trkpt lat="43.554145841289014" lon="6.9546873425813205"><ele>6.0</ele><time>2026-04-12T05:38:21Z</time></trkpt><trkpt lat="43.55421589254935" lon="6.9546600045686064"><ele>5.999999999999999</ele><time>2026-04-12T05:38:22Z</time></trkpt><trkpt lat="43.55428437807088" lon="6.954637885470977"><ele>6.0</ele><time>2026-04-12T05:38:23Z</time></trkpt><trkpt lat="43.554351620871486" lon="6.954620406877007"><ele>5.999999999999999</ele><time>2026-04-12T05:38:24Z</time></trkpt><trkpt lat="43.55441869769792" lon="6.954610939649238"><ele>6.0</ele><time>2026-04-12T05:38:25Z</time></trkpt><trkpt lat="43.554487001511575" lon="6.954598044255857"><ele>6.0</ele><time>2026-04-12T05:38:26Z</time></trkpt><trkpt lat="43.55455639556789" lon="6.954578258797445"><ele>6.0</ele><time>2026-04-12T05:38:27Z</time></trkpt><trkpt lat="43.55462675041049" lon="6.954554612339372"><ele>6.0</ele><time>2026-04-12T05:38:28Z</time></trkpt><trkpt lat="43.554696475988635" lon="6.9545294178528865"><ele>5.999999999999999</ele><time>2026-04-12T05:38:29Z</time></trkpt><trkpt lat="43.55476634063371" lon="6.954502763111686"><ele>6.0</ele><time>2026-04-12T05:38:30Z</time></trkpt><trkpt lat="43.55483478910102" lon="6.954475461148604"><ele>6.166666666666667</ele><time>2026-04-12T05:38:31Z</time></trkpt><trkpt lat="43.55490140008096" lon="6.954445724832724"><ele>6.333333333333334</ele><time>2026-04-12T05:38:32Z</time></trkpt><trkpt lat="43.55497055112898" lon="6.9544121156926835"><ele>6.5</ele><time>2026-04-12T05:38:33Z</time></trkpt><trkpt lat="43.55504360846189" lon="6.954378714027379"><ele>6.666666666666667</ele><time>2026-04-12T05:38:34Z</time></trkpt><trkpt lat="43.55511923664422" lon="6.9543532008658016"><ele>6.833333333333334</ele><time>2026-04-12T05:38:35Z</time></trkpt><trkpt lat="43.555196069337356" lon="6.9543284566591534"><ele>7.0</ele><time>2026-04-12T05:38:36Z</time></trkpt><trkpt lat="43.55527285509953" lon="6.954299097279684"><ele>7.000000000000001</ele><time>2026-04-12T05:38:37Z</time></trkpt><trkpt lat="43.555349585828004" lon="6.954268718475822"><ele>7.0</ele><time>2026-04-12T05:38:38Z</time></trkpt><trkpt lat="43.55542646850709" lon="6.954238737892651"><ele>7.0</ele><time>2026-04-12T05:38:39Z</time></trkpt><trkpt lat="43.55550345087786" lon="6.9542065671528315"><ele>7.0</ele><time>2026-04-12T05:38:40Z</time></trkpt><trkpt lat="43.55558014768603" lon="6.954171918059925"><ele>7.000000000000001</ele><time>2026-04-12T05:38:41Z</time></trkpt><trkpt lat="43.55565748025168" lon="6.954133534550483"><ele>7.0</ele><time>2026-04-12T05:38:42Z</time></trkpt><trkpt lat="43.555733331189884" lon="6.95408949087248"><ele>7.166666666666667</ele><time>2026-04-12T05:38:43Z</time></trkpt><trkpt lat="43.55580722911053" lon="6.954041780910523"><ele>7.333333333333334</ele><time>2026-04-12T05:38:44Z</time></trkpt><trkpt lat="43.555879318097894" lon="6.953987939690072"><ele>7.5</ele><time>2026-04-12T05:38:45Z</time></trkpt><trkpt lat="43.555950100938055" lon="6.953930997363231"><ele>7.666666666666666</ele><time>2026-04-12T05:38:46Z</time></trkpt><trkpt lat="43.55602005879995" lon="6.953873277479474"><ele>7.833333333333333</ele><time>2026-04-12T05:38:47Z</time></trkpt><trkpt lat="43.55609019667403" lon="6.953815297138493"><ele>8.0</ele><time>2026-04-12T05:38:48Z</time></trkpt><trkpt lat="43.55615848956871" lon="6.953757116020446"><ele>7.571428571428571</ele><time>2026-04-12T05:38:49Z</time></trkpt><trkpt lat="43.55622574697546" lon="6.953698207874436"><ele>7.142857142857142</ele><time>2026-04-12T05:38:50Z</time></trkpt><trkpt lat="43.55629044919092" lon="6.953636839392482"><ele>6.7142857142857135</ele><time>2026-04-12T05:38:51Z</time></trkpt><trkpt lat="43.55635654512788" lon="6.953583243228479"><ele>6.285714285714286</ele><time>2026-04-12T05:38:52Z</time></trkpt><trkpt lat="43.55642179282953" lon="6.953533439702278"><ele>5.857142857142858</ele><time>2026-04-12T05:38:53Z</time></trkpt><trkpt lat="43.55648220449135" lon="6.953486054721649"><ele>5.428571428571429</ele><time>2026-04-12T05:38:54Z</time></trkpt><trkpt lat="43.556544482185814" lon="6.953453132603767"><ele>5.0</ele><time>2026-04-12T05:38:55Z</time></trkpt><trkpt lat="43.556610773366245" lon="6.95344068382574"><ele>5.0</ele><time>2026-04-12T05:38:56Z</time></trkpt><trkpt lat="43.556675156802" lon="6.953449111869293"><ele>5.0</ele><time>2026-04-12T05:38:57Z</time></trkpt><trkpt lat="43.55679856132962" lon="6.953456034440204"><ele>5.0</ele><time>2026-04-12T05:38:59Z</time></trkpt><trkpt lat="43.556913921455354" lon="6.953396843475843"><ele>5.0</ele><time>2026-04-12T05:39:01Z</time></trkpt><trkpt lat="43.55700737768213" lon="6.953288752201977"><ele>5.0</ele><time>2026-04-12T05:39:03Z</time></trkpt><trkpt lat="43.55705509359601" lon="6.953140685306351"><ele>5.142857142857142</ele><time>2026-04-12T05:39:05Z</time></trkpt><trkpt lat="43.557137386708526" lon="6.953122436207346"><ele>5.285714285714286</ele><time>2026-04-12T05:39:06Z</time></trkpt><trkpt lat="43.55718817904096" lon="6.953070450457677"><ele>5.428571428571429</ele><time>2026-04-12T05:39:07Z</time></trkpt><trkpt lat="43.5572175300258" lon="6.952988728150849"><ele>5.571428571428571</ele><time>2026-04-12T05:39:08Z</time></trkpt><trkpt lat="43.55727754170786" lon="6.952938728135191"><ele>5.714285714285714</ele><time>2026-04-12T05:39:09Z</time></trkpt><trkpt lat="43.55731225339878" lon="6.952853978564332"><ele>5.857142857142857</ele><time>2026-04-12T05:39:10Z</time></trkpt><trkpt lat="43.55733499656146" lon="6.952762723882904"><ele>6.0</ele><time>2026-04-12T05:39:11Z</time></trkpt><trkpt lat="43.55734648587494" lon="6.952673590113603"><ele>5.999999999999999</ele><time>2026-04-12T05:39:12Z</time></trkpt><trkpt lat="43.55735419215104" lon="6.952583261929866"><ele>6.0</ele><time>2026-04-12T05:39:13Z</time></trkpt><trkpt lat="43.55736372065284" lon="6.952490528841108"><ele>6.0</ele><time>2026-04-12T05:39:14Z</time></trkpt><trkpt lat="43.55737985158641" lon="6.9523952323822265"><ele>6.0</ele><time>2026-04-12T05:39:15Z</time></trkpt><trkpt lat="43.557405328842755" lon="6.9523015394147425"><ele>6.0</ele><time>2026-04-12T05:39:16Z</time></trkpt><trkpt lat="43.557437307223104" lon="6.952210171389832"><ele>5.999999999999999</ele><time>2026-04-12T05:39:17Z</time></trkpt><trkpt lat="43.557479331501426" lon="6.952126304479639"><ele>6.0</ele><time>2026-04-12T05:39:18Z</time></trkpt><trkpt lat="43.55753777466049" lon="6.952054806255646"><ele>6.0</ele><time>2026-04-12T05:39:19Z</time></trkpt><trkpt lat="43.55760725644187" lon="6.951999204619161"><ele>6.0</ele><time>2026-04-12T05:39:20Z</time></trkpt><trkpt lat="43.55768336436685" lon="6.951960297712307"><ele>6.0</ele><time>2026-04-12T05:39:21Z</time></trkpt><trkpt lat="43.55776178506261" lon="6.95193411255616"><ele>6.0</ele><time>2026-04-12T05:39:22Z</time></trkpt><trkpt lat="43.557841089683926" lon="6.951907775866383"><ele>6.0</ele><time>2026-04-12T05:39:23Z</time></trkpt><trkpt lat="43.557915398962784" lon="6.951875842216056"><ele>6.0</ele><time>2026-04-12T05:39:24Z</time></trkpt><trkpt lat="43.55799839972319" lon="6.951842724200298"><ele>6.0</ele><time>2026-04-12T05:39:25Z</time></trkpt><trkpt lat="43.558082876575675" lon="6.951816846795703"><ele>6.0</ele><time>2026-04-12T05:39:26Z</time></trkpt><trkpt lat="43.55816384641183" lon="6.951786558495728"><ele>6.0</ele><time>2026-04-12T05:39:27Z</time></trkpt><trkpt lat="43.55823757486254" lon="6.951760059442636"><ele>6.0</ele><time>2026-04-12T05:39:28Z</time></trkpt><trkpt lat="43.558312231449975" lon="6.951735342205757"><ele>6.0</ele><time>2026-04-12T05:39:29Z</time></trkpt><trkpt lat="43.55837149913919" lon="6.951705789856201"><ele>6.0</ele><time>2026-04-12T05:39:30Z</time></trkpt><trkpt lat="43.55843470399952" lon="6.9516796969369565"><ele>5.857142857142857</ele><time>2026-04-12T05:39:31Z</time></trkpt><trkpt lat="43.55850187613632" lon="6.951659820149059"><ele>5.714285714285714</ele><time>2026-04-12T05:39:32Z</time></trkpt><trkpt lat="43.55856723625313" lon="6.951639988716308"><ele>5.571428571428571</ele><time>2026-04-12T05:39:33Z</time></trkpt><trkpt lat="43.55863300033498" lon="6.951617902107117"><ele>5.428571428571429</ele><time>2026-04-12T05:39:34Z</time></trkpt><trkpt lat="43.55869700970189" lon="6.951596217836862"><ele>5.285714285714286</ele><time>2026-04-12T05:39:35Z</time></trkpt><trkpt lat="43.558760560056584" lon="6.951575454874254"><ele>5.142857142857142</ele><time>2026-04-12T05:39:36Z</time></trkpt><trkpt lat="43.558823343646466" lon="6.951553846076159"><ele>5.0</ele><time>2026-04-12T05:39:37Z</time></trkpt><trkpt lat="43.55893938639085" lon="6.95151420604565"><ele>5.4</ele><time>2026-04-12T05:39:39Z</time></trkpt><trkpt lat="43.55905076683315" lon="6.951475491883355"><ele>5.8</ele><time>2026-04-12T05:39:41Z</time></trkpt><trkpt lat="43.55916666696218" lon="6.95143191991999"><ele>6.199999999999999</ele><time>2026-04-12T05:39:43Z</time></trkpt><trkpt lat="43.55922845134924" lon="6.951411152913349"><ele>6.6</ele><time>2026-04-12T05:39:44Z</time></trkpt><trkpt lat="43.55935237651976" lon="6.951362792284894"><ele>7.0</ele><time>2026-04-12T05:39:46Z</time></trkpt><trkpt lat="43.559417257314166" lon="6.951338710017486"><ele>7.0</ele><time>2026-04-12T05:39:47Z</time></trkpt><trkpt lat="43.55948587715456" lon="6.951315936883351"><ele>7.0</ele><time>2026-04-12T05:39:48Z</time></trkpt><trkpt lat="43.55955385572445" lon="6.951291233840501"><ele>7.0</ele><time>2026-04-12T05:39:49Z</time></trkpt><trkpt lat="43.559621379806465" lon="6.951261590341184"><ele>7.0</ele><time>2026-04-12T05:39:50Z</time></trkpt><trkpt lat="43.55968982502978" lon="6.9512342116644525"><ele>7.0</ele><time>2026-04-12T05:39:51Z</time></trkpt><trkpt lat="43.55975842866836" lon="6.951210995341454"><ele>7.0</ele><time>2026-04-12T05:39:52Z</time></trkpt><trkpt lat="43.559827872582105" lon="6.951187711179606"><ele>7.0</ele><time>2026-04-12T05:39:53Z</time></trkpt><trkpt lat="43.55989764065793" lon="6.951163402615408"><ele>7.0</ele><time>2026-04-12T05:39:54Z</time></trkpt><trkpt lat="43.55996884012325" lon="6.951138960114669"><ele>7.0</ele><time>2026-04-12T05:39:55Z</time></trkpt><trkpt lat="43.56003843705313" lon="6.951114359258951"><ele>7.0</ele><time>2026-04-12T05:39:56Z</time></trkpt><trkpt lat="43.560110084592125" lon="6.951097140640194"><ele>7.0</ele><time>2026-04-12T05:39:57Z</time></trkpt><trkpt lat="43.56018056509185" lon="6.951073086052926"><ele>7.0</ele><time>2026-04-12T05:39:58Z</time></trkpt><trkpt lat="43.56025123340371" lon="6.951048939433366"><ele>7.0</ele><time>2026-04-12T05:39:59Z</time></trkpt><trkpt lat="43.560321382632026" lon="6.95102663085673"><ele>7.0</ele><time>2026-04-12T05:40:00Z</time></trkpt><trkpt lat="43.56039131701483" lon="6.9510060122644886"><ele>6.857142857142857</ele><time>2026-04-12T05:40:01Z</time></trkpt><trkpt lat="43.56045928519526" lon="6.950986894059985"><ele>6.714285714285714</ele><time>2026-04-12T05:40:02Z</time></trkpt><trkpt lat="43.56052663727879" lon="6.950973636505542"><ele>6.571428571428571</ele><time>2026-04-12T05:40:03Z</time></trkpt><trkpt lat="43.56059315605" lon="6.950970368326337"><ele>6.428571428571429</ele><time>2026-04-12T05:40:04Z</time></trkpt><trkpt lat="43.56065781470112" lon="6.9509965378621015"><ele>6.285714285714286</ele><time>2026-04-12T05:40:05Z</time></trkpt><trkpt lat="43.560713389211045" lon="6.951047738712185"><ele>6.142857142857142</ele><time>2026-04-12T05:40:06Z</time></trkpt><trkpt lat="43.56076720371348" lon="6.951099573287888"><ele>6.0</ele><time>2026-04-12T05:40:07Z</time></trkpt><trkpt lat="43.56082828603458" lon="6.951130487191369"><ele>5.999999999999999</ele><time>2026-04-12T05:40:08Z</time></trkpt><trkpt lat="43.56089880614706" lon="6.951129257715971"><ele>6.0</ele><time>2026-04-12T05:40:09Z</time></trkpt><trkpt lat="43.560967493979994" lon="6.951100813790129"><ele>6.0</ele><time>2026-04-12T05:40:10Z</time></trkpt><trkpt lat="43.56103012501288" lon="6.951045499473835"><ele>6.0</ele><time>2026-04-12T05:40:11Z</time></trkpt><trkpt lat="43.56108681854971" lon="6.950978626019617"><ele>6.0</ele><time>2026-04-12T05:40:12Z</time></trkpt><trkpt lat="43.561137735774594" lon="6.950900254262535"><ele>5.999999999999999</ele><time>2026-04-12T05:40:13Z</time></trkpt><trkpt lat="43.561192818700995" lon="6.950829749345707"><ele>6.0</ele><time>2026-04-12T05:40:14Z</time></trkpt><trkpt lat="43.56125828702338" lon="6.950781053658056"><ele>5.7142857142857135</ele><time>2026-04-12T05:40:15Z</time></trkpt><trkpt lat="43.561324679918386" lon="6.950749300809623"><ele>5.428571428571429</ele><time>2026-04-12T05:40:16Z</time></trkpt><trkpt lat="43.561393580964776" lon="6.950722827674822"><ele>5.142857142857142</ele><time>2026-04-12T05:40:17Z</time></trkpt><trkpt lat="43.56146607081296" lon="6.950701241098602"><ele>4.857142857142857</ele><time>2026-04-12T05:40:18Z</time></trkpt><trkpt lat="43.56153772745183" lon="6.950676489625473"><ele>4.571428571428571</ele><time>2026-04-12T05:40:19Z</time></trkpt><trkpt lat="43.56161161064059" lon="6.950653533476544"><ele>4.285714285714286</ele><time>2026-04-12T05:40:20Z</time></trkpt><trkpt lat="43.56168741768903" lon="6.950631616174209"><ele>4.0</ele><time>2026-04-12T05:40:21Z</time></trkpt><trkpt lat="43.56176412745212" lon="6.950606151063156"><ele>3.9999999999999996</ele><time>2026-04-12T05:40:22Z</time></trkpt><trkpt lat="43.56184363513862" lon="6.950576210973295"><ele>4.0</ele><time>2026-04-12T05:40:23Z</time></trkpt><trkpt lat="43.56192247040226" lon="6.950543748172844"><ele>4.0</ele><time>2026-04-12T05:40:24Z</time></trkpt><trkpt lat="43.56200279038868" lon="6.95051243831878"><ele>4.0</ele><time>2026-04-12T05:40:25Z</time></trkpt><trkpt lat="43.562081866195136" lon="6.950480391946119"><ele>3.9999999999999996</ele><time>2026-04-12T05:40:26Z</time></trkpt><trkpt lat="43.56216161705936" lon="6.950452406302793"><ele>4.0</ele><time>2026-04-12T05:40:27Z</time></trkpt><trkpt lat="43.56224080696244" lon="6.950425774600432"><ele>4.166666666666666</ele><time>2026-04-12T05:40:28Z</time></trkpt><trkpt lat="43.562320690944155" lon="6.950398775423489"><ele>4.333333333333333</ele><time>2026-04-12T05:40:29Z</time></trkpt><trkpt lat="43.56239914080966" lon="6.950369782829498"><ele>4.5</ele><time>2026-04-12T05:40:30Z</time></trkpt><trkpt lat="43.562476039655536" lon="6.95033912476901"><ele>4.666666666666667</ele><time>2026-04-12T05:40:31Z</time></trkpt><trkpt lat="43.56255273010523" lon="6.950311160415179"><ele>4.833333333333334</ele><time>2026-04-12T05:40:32Z</time></trkpt><trkpt lat="43.56262936631357" lon="6.950283946527436"><ele>5.0</ele><time>2026-04-12T05:40:33Z</time></trkpt><trkpt lat="43.56270778479293" lon="6.950255315504957"><ele>5.0</ele><time>2026-04-12T05:40:34Z</time></trkpt><trkpt lat="43.562785171123345" lon="6.950222980575774"><ele>5.0</ele><time>2026-04-12T05:40:35Z</time></trkpt><trkpt lat="43.56286327975145" lon="6.950190916078333"><ele>5.0</ele><time>2026-04-12T05:40:36Z</time></trkpt><trkpt lat="43.562942470917164" lon="6.950159190053964"><ele>5.0</ele><time>2026-04-12T05:40:37Z</time></trkpt><trkpt lat="43.563024233387736" lon="6.950125984069502"><ele>5.0</ele><time>2026-04-12T05:40:38Z</time></trkpt><trkpt lat="43.56310615505941" lon="6.9500960984602695"><ele>5.0</ele><time>2026-04-12T05:40:39Z</time></trkpt><trkpt lat="43.56318855018914" lon="6.95006860233128"><ele>5.333333333333334</ele><time>2026-04-12T05:40:40Z</time></trkpt><trkpt lat="43.56327124054492" lon="6.950038083454304"><ele>5.666666666666667</ele><time>2026-04-12T05:40:41Z</time></trkpt><trkpt lat="43.563353450763316" lon="6.9500076458892925"><ele>6.0</ele><time>2026-04-12T05:40:42Z</time></trkpt><trkpt lat="43.56343648650509" lon="6.949975213229971"><ele>6.333333333333334</ele><time>2026-04-12T05:40:43Z</time></trkpt><trkpt lat="43.56351815785984" lon="6.949942823320565"><ele>6.666666666666667</ele><time>2026-04-12T05:40:44Z</time></trkpt><trkpt lat="43.56360155842677" lon="6.94991263116886"><ele>7.0</ele><time>2026-04-12T05:40:45Z</time></trkpt><trkpt lat="43.5636842194888" lon="6.949882006968472"><ele>6.666666666666667</ele><time>2026-04-12T05:40:46Z</time></trkpt><trkpt lat="43.563766679056684" lon="6.949852388829915"><ele>6.333333333333334</ele><time>2026-04-12T05:40:47Z</time></trkpt><trkpt lat="43.56385032871602" lon="6.94982090507299"><ele>6.0</ele><time>2026-04-12T05:40:48Z</time></trkpt><trkpt lat="43.56393329612868" lon="6.9497927437035605"><ele>5.666666666666667</ele><time>2026-04-12T05:40:49Z</time></trkpt><trkpt lat="43.5640165242439" lon="6.949763201980962"><ele>5.333333333333334</ele><time>2026-04-12T05:40:50Z</time></trkpt><trkpt lat="43.564098583852214" lon="6.9497330773490855"><ele>5.0</ele><time>2026-04-12T05:40:51Z</time></trkpt><trkpt lat="43.5641813472031" lon="6.949702928706135"><ele>5.0</ele><time>2026-04-12T05:40:52Z</time></trkpt><trkpt lat="43.56426507185137" lon="6.949673236387357"><ele>5.0</ele><time>2026-04-12T05:40:53Z</time></trkpt><trkpt lat="43.564348618036036" lon="6.949642413245656"><ele>5.0</ele><time>2026-04-12T05:40:54Z</time></trkpt><trkpt lat="43.564432928772106" lon="6.9496110773376385"><ele>5.0</ele><time>2026-04-12T05:40:55Z</time></trkpt><trkpt lat="43.56451694687062" lon="6.9495816976302445"><ele>5.0</ele><time>2026-04-12T05:40:56Z</time></trkpt><trkpt lat="43.5646001872554" lon="6.949553599194798"><ele>5.0</ele><time>2026-04-12T05:40:57Z</time></trkpt><trkpt lat="43.56468352881049" lon="6.949523664564355"><ele>5.166666666666667</ele><time>2026-04-12T05:40:58Z</time></trkpt><trkpt lat="43.564766047456885" lon="6.949494282330339"><ele>5.333333333333334</ele><time>2026-04-12T05:40:59Z</time></trkpt><trkpt lat="43.56484814888407" lon="6.949465008838496"><ele>5.5</ele><time>2026-04-12T05:41:00Z</time></trkpt><trkpt lat="43.56492767583343" lon="6.949436070774398"><ele>5.666666666666667</ele><time>2026-04-12T05:41:01Z</time></trkpt><trkpt lat="43.56500598239746" lon="6.949407624741822"><ele>5.833333333333333</ele><time>2026-04-12T05:41:02Z</time></trkpt><trkpt lat="43.56508483176434" lon="6.949377821041325"><ele>6.0</ele><time>2026-04-12T05:41:03Z</time></trkpt><trkpt lat="43.56516284135113" lon="6.949351519508004"><ele>6.0</ele><time>2026-04-12T05:41:04Z</time></trkpt><trkpt lat="43.565239806939864" lon="6.94932474801955"><ele>6.0</ele><time>2026-04-12T05:41:05Z</time></trkpt><trkpt lat="43.5653163544385" lon="6.949298881519174"><ele>6.0</ele><time>2026-04-12T05:41:06Z</time></trkpt><trkpt lat="43.56539153128465" lon="6.949271816245546"><ele>6.0</ele><time>2026-04-12T05:41:07Z</time></trkpt><trkpt lat="43.56546669164748" lon="6.949243314092704"><ele>6.0</ele><time>2026-04-12T05:41:08Z</time></trkpt><trkpt lat="43.56554318241109" lon="6.9492166881441175"><ele>6.0</ele><time>2026-04-12T05:41:09Z</time></trkpt><trkpt lat="43.56561921251444" lon="6.949189272165482"><ele>6.666666666666667</ele><time>2026-04-12T05:41:10Z</time></trkpt><trkpt lat="43.56569531122619" lon="6.949160714163726"><ele>7.333333333333334</ele><time>2026-04-12T05:41:11Z</time></trkpt><trkpt lat="43.56577060054571" lon="6.949129475396344"><ele>8.0</ele><time>2026-04-12T05:41:12Z</time></trkpt><trkpt lat="43.56584606603982" lon="6.94909861962724"><ele>8.666666666666668</ele><time>2026-04-12T05:41:13Z</time></trkpt><trkpt lat="43.56592201541183" lon="6.949070719029297"><ele>9.333333333333334</ele><time>2026-04-12T05:41:14Z</time></trkpt><trkpt lat="43.565995809238565" lon="6.9490403327165975"><ele>10.0</ele><time>2026-04-12T05:41:15Z</time></trkpt><trkpt lat="43.56606921681295" lon="6.94901137894649"><ele>10.0</ele><time>2026-04-12T05:41:16Z</time></trkpt><trkpt lat="43.56614104885481" lon="6.948983975495903"><ele>10.0</ele><time>2026-04-12T05:41:17Z</time></trkpt><trkpt lat="43.56621296831615" lon="6.948958261054663"><ele>10.0</ele><time>2026-04-12T05:41:18Z</time></trkpt><trkpt lat="43.56628281729847" lon="6.94893080622848"><ele>10.0</ele><time>2026-04-12T05:41:19Z</time></trkpt><trkpt lat="43.56635119761843" lon="6.94890596370267"><ele>10.0</ele><time>2026-04-12T05:41:20Z</time></trkpt><trkpt lat="43.56647452875773" lon="6.948874652239705"><ele>10.0</ele><time>2026-04-12T05:41:22Z</time></trkpt><trkpt lat="43.56653944349018" lon="6.948871449595052"><ele>10.142857142857142</ele><time>2026-04-12T05:41:23Z</time></trkpt><trkpt lat="43.566606005887515" lon="6.948889788446549"><ele>10.285714285714286</ele><time>2026-04-12T05:41:24Z</time></trkpt><trkpt lat="43.566672672226886" lon="6.948927114469615"><ele>10.428571428571429</ele><time>2026-04-12T05:41:25Z</time></trkpt><trkpt lat="43.56673811799303" lon="6.948963474773348"><ele>10.571428571428571</ele><time>2026-04-12T05:41:26Z</time></trkpt><trkpt lat="43.56680504472718" lon="6.948981224621625"><ele>10.714285714285714</ele><time>2026-04-12T05:41:27Z</time></trkpt><trkpt lat="43.566876843617486" lon="6.94897692329048"><ele>10.857142857142858</ele><time>2026-04-12T05:41:28Z</time></trkpt><trkpt lat="43.5669482040481" lon="6.948946378449116"><ele>11.0</ele><time>2026-04-12T05:41:29Z</time></trkpt><trkpt lat="43.56701493928668" lon="6.948891315545978"><ele>10.833333333333332</ele><time>2026-04-12T05:41:30Z</time></trkpt><trkpt lat="43.567071592275504" lon="6.948814258103311"><ele>10.666666666666666</ele><time>2026-04-12T05:41:31Z</time></trkpt><trkpt lat="43.567121850353054" lon="6.9487287115299"><ele>10.5</ele><time>2026-04-12T05:41:32Z</time></trkpt><trkpt lat="43.56717623342123" lon="6.9486507254359555"><ele>10.333333333333334</ele><time>2026-04-12T05:41:33Z</time></trkpt><trkpt lat="43.567242633311714" lon="6.948593918808446"><ele>10.166666666666668</ele><time>2026-04-12T05:41:34Z</time></trkpt><trkpt lat="43.567317757985776" lon="6.948553290780959"><ele>10.0</ele><time>2026-04-12T05:41:35Z</time></trkpt><trkpt lat="43.56739280022253" lon="6.94852010124939"><ele>10.0</ele><time>2026-04-12T05:41:36Z</time></trkpt><trkpt lat="43.567465159772176" lon="6.948482970095636"><ele>10.0</ele><time>2026-04-12T05:41:37Z</time></trkpt><trkpt lat="43.56753685061907" lon="6.948446436717511"><ele>10.0</ele><time>2026-04-12T05:41:38Z</time></trkpt><trkpt lat="43.567609337232" lon="6.94840871309461"><ele>10.0</ele><time>2026-04-12T05:41:39Z</time></trkpt><trkpt lat="43.567682066314156" lon="6.948372160784352"><ele>10.0</ele><time>2026-04-12T05:41:40Z</time></trkpt><trkpt lat="43.56775658403728" lon="6.948335494124018"><ele>10.0</ele><time>2026-04-12T05:41:41Z</time></trkpt><trkpt lat="43.56783131756052" lon="6.9482979876011255"><ele>9.5</ele><time>2026-04-12T05:41:42Z</time></trkpt><trkpt lat="43.56790756637743" lon="6.948258921850338"><ele>9.0</ele><time>2026-04-12T05:41:43Z</time></trkpt><trkpt lat="43.56798403402447" lon="6.948218236866211"><ele>8.5</ele><time>2026-04-12T05:41:44Z</time></trkpt><trkpt lat="43.56805750766956" lon="6.948175218260438"><ele>8.0</ele><time>2026-04-12T05:41:45Z</time></trkpt><trkpt lat="43.568131274620285" lon="6.948130603645531"><ele>7.500000000000001</ele><time>2026-04-12T05:41:46Z</time></trkpt><trkpt lat="43.56820318305899" lon="6.948080380340985"><ele>7.0</ele><time>2026-04-12T05:41:47Z</time></trkpt><trkpt lat="43.568275053287415" lon="6.948029221454707"><ele>7.000000000000001</ele><time>2026-04-12T05:41:48Z</time></trkpt><trkpt lat="43.5683474510064" lon="6.947979172337282"><ele>7.0</ele><time>2026-04-12T05:41:49Z</time></trkpt><trkpt lat="43.56841979058756" lon="6.947926604074208"><ele>7.0</ele><time>2026-04-12T05:41:50Z</time></trkpt><trkpt lat="43.568491155184184" lon="6.9478727824073125"><ele>7.0</ele><time>2026-04-12T05:41:51Z</time></trkpt><trkpt lat="43.568561779445844" lon="6.947815349720341"><ele>7.000000000000001</ele><time>2026-04-12T05:41:52Z</time></trkpt><trkpt lat="43.56863212826781" lon="6.947754719001089"><ele>7.0</ele><time>2026-04-12T05:41:53Z</time></trkpt><trkpt lat="43.56870147300091" lon="6.947694800850605"><ele>6.833333333333334</ele><time>2026-04-12T05:41:54Z</time></trkpt><trkpt lat="43.56877054651239" lon="6.947633905093849"><ele>6.666666666666667</ele><time>2026-04-12T05:41:55Z</time></trkpt><trkpt lat="43.568838594944836" lon="6.9475718514818015"><ele>6.5</ele><time>2026-04-12T05:41:56Z</time></trkpt><trkpt lat="43.568904758424175" lon="6.947507753244797"><ele>6.333333333333334</ele><time>2026-04-12T05:41:57Z</time></trkpt><trkpt lat="43.56896993783946" lon="6.947440956794923"><ele>6.166666666666667</ele><time>2026-04-12T05:41:58Z</time></trkpt><trkpt lat="43.56903331700291" lon="6.947373424956977"><ele>6.0</ele><time>2026-04-12T05:41:59Z</time></trkpt><trkpt lat="43.56909739578686" lon="6.9473075482352735"><ele>6.0</ele><time>2026-04-12T05:42:00Z</time></trkpt><trkpt lat="43.56916224846375" lon="6.94724196208933"><ele>6.0</ele><time>2026-04-12T05:42:01Z</time></trkpt><trkpt lat="43.569226881284344" lon="6.947176119912265"><ele>6.0</ele><time>2026-04-12T05:42:02Z</time></trkpt><trkpt lat="43.5692899236119" lon="6.947109522031856"><ele>6.0</ele><time>2026-04-12T05:42:03Z</time></trkpt><trkpt lat="43.569353727204955" lon="6.947044273526707"><ele>6.0</ele><time>2026-04-12T05:42:04Z</time></trkpt><trkpt lat="43.569417278162376" lon="6.94697875243971"><ele>6.0</ele><time>2026-04-12T05:42:05Z</time></trkpt><trkpt lat="43.56948156497729" lon="6.946912655665397"><ele>6.166666666666667</ele><time>2026-04-12T05:42:06Z</time></trkpt><trkpt lat="43.569545776675575" lon="6.946846593337717"><ele>6.333333333333334</ele><time>2026-04-12T05:42:07Z</time></trkpt><trkpt lat="43.56961119311792" lon="6.946781640466608"><ele>6.5</ele><time>2026-04-12T05:42:08Z</time></trkpt><trkpt lat="43.569677317501714" lon="6.9467164074037475"><ele>6.666666666666667</ele><time>2026-04-12T05:42:09Z</time></trkpt><trkpt lat="43.56974369317257" lon="6.946652911379621"><ele>6.833333333333334</ele><time>2026-04-12T05:42:10Z</time></trkpt><trkpt lat="43.56980678204503" lon="6.946585723217647"><ele>7.0</ele><time>2026-04-12T05:42:11Z</time></trkpt><trkpt lat="43.56987174929292" lon="6.94652065517464"><ele>7.166666666666667</ele><time>2026-04-12T05:42:12Z</time></trkpt><trkpt lat="43.56993936508322" lon="6.946458921311092"><ele>7.333333333333334</ele><time>2026-04-12T05:42:13Z</time></trkpt><trkpt lat="43.57000608199855" lon="6.946396316351853"><ele>7.5</ele><time>2026-04-12T05:42:14Z</time></trkpt><trkpt lat="43.57007291440941" lon="6.946333366999515"><ele>7.666666666666666</ele><time>2026-04-12T05:42:15Z</time></trkpt><trkpt lat="43.57013991294441" lon="6.946271958827589"><ele>7.833333333333333</ele><time>2026-04-12T05:42:16Z</time></trkpt><trkpt lat="43.570208144073796" lon="6.946212660305004"><ele>8.0</ele><time>2026-04-12T05:42:17Z</time></trkpt><trkpt lat="43.570277137332184" lon="6.946154044463186"><ele>7.999999999999999</ele><time>2026-04-12T05:42:18Z</time></trkpt><trkpt lat="43.570346321021624" lon="6.9460949661999765"><ele>8.0</ele><time>2026-04-12T05:42:19Z</time></trkpt><trkpt lat="43.570417253047616" lon="6.946036641746329"><ele>8.0</ele><time>2026-04-12T05:42:20Z</time></trkpt><trkpt lat="43.570487502807" lon="6.945977917631538"><ele>8.0</ele><time>2026-04-12T05:42:21Z</time></trkpt><trkpt lat="43.570558951802695" lon="6.945918766648483"><ele>7.999999999999999</ele><time>2026-04-12T05:42:22Z</time></trkpt><trkpt lat="43.570630616631874" lon="6.9458586470743535"><ele>8.0</ele><time>2026-04-12T05:42:23Z</time></trkpt><trkpt lat="43.57070244009606" lon="6.945800043665796"><ele>8.333333333333332</ele><time>2026-04-12T05:42:24Z</time></trkpt><trkpt lat="43.570773012272355" lon="6.94574321788397"><ele>8.666666666666666</ele><time>2026-04-12T05:42:25Z</time></trkpt><trkpt lat="43.57084177179177" lon="6.945688225426503"><ele>9.0</ele><time>2026-04-12T05:42:26Z</time></trkpt><trkpt lat="43.57091170999039" lon="6.945636869471577"><ele>9.333333333333334</ele><time>2026-04-12T05:42:27Z</time></trkpt><trkpt lat="43.57098034869659" lon="6.9455873460546895"><ele>9.666666666666668</ele><time>2026-04-12T05:42:28Z</time></trkpt><trkpt lat="43.57104615658154" lon="6.945534867780551"><ele>10.0</ele><time>2026-04-12T05:42:29Z</time></trkpt><trkpt lat="43.57110835715183" lon="6.94547829996717"><ele>10.0</ele><time>2026-04-12T05:42:30Z</time></trkpt><trkpt lat="43.57117180700009" lon="6.945425876360572"><ele>10.0</ele><time>2026-04-12T05:42:31Z</time></trkpt><trkpt lat="43.5712377228742" lon="6.945390539782609"><ele>10.0</ele><time>2026-04-12T05:42:32Z</time></trkpt><trkpt lat="43.57130869987553" lon="6.945378517335744"><ele>10.0</ele><time>2026-04-12T05:42:33Z</time></trkpt><trkpt lat="43.571381037918" lon="6.945383190684048"><ele>10.0</ele><time>2026-04-12T05:42:34Z</time></trkpt><trkpt lat="43.57144874338476" lon="6.945408695245168"><ele>10.0</ele><time>2026-04-12T05:42:35Z</time></trkpt><trkpt lat="43.571522804741896" lon="6.9453725511430395"><ele>10.0</ele><time>2026-04-12T05:42:36Z</time></trkpt><trkpt lat="43.571571420857005" lon="6.945274215352542"><ele>9.833333333333334</ele><time>2026-04-12T05:42:37Z</time></trkpt><trkpt lat="43.5716101889216" lon="6.945184157299518"><ele>9.666666666666668</ele><time>2026-04-12T05:42:38Z</time></trkpt><trkpt lat="43.57165563326675" lon="6.945103327810486"><ele>9.5</ele><time>2026-04-12T05:42:39Z</time></trkpt><trkpt lat="43.57171760281667" lon="6.945044446493116"><ele>9.333333333333334</ele><time>2026-04-12T05:42:40Z</time></trkpt><trkpt lat="43.5717891296737" lon="6.9450021345455974"><ele>9.166666666666666</ele><time>2026-04-12T05:42:41Z</time></trkpt><trkpt lat="43.57185987163446" lon="6.944961221205893"><ele>9.0</ele><time>2026-04-12T05:42:42Z</time></trkpt><trkpt lat="43.57192909522669" lon="6.944920334107409"><ele>9.0</ele><time>2026-04-12T05:42:43Z</time></trkpt><trkpt lat="43.57199978590092" lon="6.944883210488068"><ele>9.0</ele><time>2026-04-12T05:42:44Z</time></trkpt><trkpt lat="43.57207222963409" lon="6.944847719970993"><ele>9.0</ele><time>2026-04-12T05:42:45Z</time></trkpt><trkpt lat="43.572142614430476" lon="6.944805185358229"><ele>9.0</ele><time>2026-04-12T05:42:46Z</time></trkpt><trkpt lat="43.57221388237288" lon="6.944759160329718"><ele>9.0</ele><time>2026-04-12T05:42:47Z</time></trkpt><trkpt lat="43.57228407259503" lon="6.9447106345421785"><ele>9.0</ele><time>2026-04-12T05:42:48Z</time></trkpt><trkpt lat="43.57235492377195" lon="6.944660969427972"><ele>8.833333333333334</ele><time>2026-04-12T05:42:49Z</time></trkpt><trkpt lat="43.57242572727548" lon="6.944611060306501"><ele>8.666666666666666</ele><time>2026-04-12T05:42:50Z</time></trkpt><trkpt lat="43.572497043744235" lon="6.944561779663002"><ele>8.5</ele><time>2026-04-12T05:42:51Z</time></trkpt><trkpt lat="43.57256777996539" lon="6.9445119233128345"><ele>8.333333333333332</ele><time>2026-04-12T05:42:52Z</time></trkpt><trkpt lat="43.57263816896007" lon="6.944463169230421"><ele>8.166666666666666</ele><time>2026-04-12T05:42:53Z</time></trkpt><trkpt lat="43.572707051362194" lon="6.944411142152517"><ele>8.0</ele><time>2026-04-12T05:42:54Z</time></trkpt><trkpt lat="43.57277626869548" lon="6.944357093349658"><ele>7.999999999999999</ele><time>2026-04-12T05:42:55Z</time></trkpt><trkpt lat="43.57284792305367" lon="6.944305077936248"><ele>8.0</ele><time>2026-04-12T05:42:56Z</time></trkpt><trkpt lat="43.572919306479776" lon="6.944251130011777"><ele>8.0</ele><time>2026-04-12T05:42:57Z</time></trkpt><trkpt lat="43.57299024472227" lon="6.94419849897413"><ele>8.0</ele><time>2026-04-12T05:42:58Z</time></trkpt><trkpt lat="43.573060268960276" lon="6.944143412281889"><ele>7.999999999999999</ele><time>2026-04-12T05:42:59Z</time></trkpt><trkpt lat="43.573130504255495" lon="6.94408478198349"><ele>8.0</ele><time>2026-04-12T05:43:00Z</time></trkpt><trkpt lat="43.57320341435869" lon="6.9440219454506025"><ele>8.333333333333332</ele><time>2026-04-12T05:43:01Z</time></trkpt><trkpt lat="43.57327508850719" lon="6.943957990054797"><ele>8.666666666666666</ele><time>2026-04-12T05:43:02Z</time></trkpt><trkpt lat="43.57334800325075" lon="6.943895315815497"><ele>9.0</ele><time>2026-04-12T05:43:03Z</time></trkpt><trkpt lat="43.57342184371278" lon="6.943836826394112"><ele>9.333333333333334</ele><time>2026-04-12T05:43:04Z</time></trkpt><trkpt lat="43.57349712299696" lon="6.943779282926167"><ele>9.666666666666668</ele><time>2026-04-12T05:43:05Z</time></trkpt><trkpt lat="43.57357303397597" lon="6.943719686233203"><ele>10.0</ele><time>2026-04-12T05:43:06Z</time></trkpt><trkpt lat="43.57364968951703" lon="6.943659316655304"><ele>9.666666666666668</ele><time>2026-04-12T05:43:07Z</time></trkpt><trkpt lat="43.573726733505666" lon="6.9435976930273"><ele>9.333333333333334</ele><time>2026-04-12T05:43:08Z</time></trkpt><trkpt lat="43.57380353772736" lon="6.94353438869072"><ele>9.0</ele><time>2026-04-12T05:43:09Z</time></trkpt><trkpt lat="43.573878737576955" lon="6.943468900694314"><ele>8.666666666666666</ele><time>2026-04-12T05:43:10Z</time></trkpt><trkpt lat="43.573954337877765" lon="6.94340286178915"><ele>8.333333333333332</ele><time>2026-04-12T05:43:11Z</time></trkpt><trkpt lat="43.57403008141584" lon="6.943338483615562"><ele>8.0</ele><time>2026-04-12T05:43:12Z</time></trkpt><trkpt lat="43.574105070636634" lon="6.943275858187524"><ele>7.999999999999999</ele><time>2026-04-12T05:43:13Z</time></trkpt><trkpt lat="43.57418008815144" lon="6.943213317961739"><ele>8.0</ele><time>2026-04-12T05:43:14Z</time></trkpt><trkpt lat="43.57425420833906" lon="6.943149623786689"><ele>8.0</ele><time>2026-04-12T05:43:15Z</time></trkpt><trkpt lat="43.57432899006158" lon="6.9430882470177355"><ele>8.0</ele><time>2026-04-12T05:43:16Z</time></trkpt><trkpt lat="43.5744040166652" lon="6.943028740429858"><ele>7.999999999999999</ele><time>2026-04-12T05:43:17Z</time></trkpt><trkpt lat="43.57447822617375" lon="6.9429675406755855"><ele>8.0</ele><time>2026-04-12T05:43:18Z</time></trkpt><trkpt lat="43.57455167278244" lon="6.942906459344467"><ele>7.999999999999999</ele><time>2026-04-12T05:43:19Z</time></trkpt><trkpt lat="43.57462631374669" lon="6.942846391480736"><ele>8.0</ele><time>2026-04-12T05:43:20Z</time></trkpt><trkpt lat="43.574699944149096" lon="6.942784208572986"><ele>8.0</ele><time>2026-04-12T05:43:21Z</time></trkpt><trkpt lat="43.57477518442421" lon="6.9427202073408605"><ele>8.0</ele><time>2026-04-12T05:43:22Z</time></trkpt><trkpt lat="43.57484924938923" lon="6.942658652178003"><ele>7.999999999999999</ele><time>2026-04-12T05:43:23Z</time></trkpt><trkpt lat="43.57492323463025" lon="6.942598744186822"><ele>8.0</ele><time>2026-04-12T05:43:24Z</time></trkpt><trkpt lat="43.574995136712204" lon="6.942539932960913"><ele>8.166666666666666</ele><time>2026-04-12T05:43:25Z</time></trkpt><trkpt lat="43.57506792484653" lon="6.942482949263851"><ele>8.333333333333332</ele><time>2026-04-12T05:43:26Z</time></trkpt><trkpt lat="43.575138099050776" lon="6.942425128940162"><ele>8.5</ele><time>2026-04-12T05:43:27Z</time></trkpt><trkpt lat="43.57520616980887" lon="6.942366806026986"><ele>8.666666666666666</ele><time>2026-04-12T05:43:28Z</time></trkpt><trkpt lat="43.575273621983975" lon="6.942308240310614"><ele>8.833333333333334</ele><time>2026-04-12T05:43:29Z</time></trkpt><trkpt lat="43.575340370549654" lon="6.942252073556775"><ele>9.0</ele><time>2026-04-12T05:43:30Z</time></trkpt><trkpt lat="43.57540789786821" lon="6.942197016018034"><ele>9.0</ele><time>2026-04-12T05:43:31Z</time></trkpt><trkpt lat="43.575477554736956" lon="6.942140621247104"><ele>9.0</ele><time>2026-04-12T05:43:32Z</time></trkpt><trkpt lat="43.5755480820523" lon="6.942082736976646"><ele>9.0</ele><time>2026-04-12T05:43:33Z</time></trkpt><trkpt lat="43.57561963836387" lon="6.942024761112548"><ele>9.0</ele><time>2026-04-12T05:43:34Z</time></trkpt><trkpt lat="43.57569141013609" lon="6.94196694994237"><ele>9.0</ele><time>2026-04-12T05:43:35Z</time></trkpt><trkpt lat="43.5757636391489" lon="6.941906553976528"><ele>9.0</ele><time>2026-04-12T05:43:36Z</time></trkpt><trkpt lat="43.57583632560452" lon="6.9418448990109125"><ele>9.0</ele><time>2026-04-12T05:43:37Z</time></trkpt><trkpt lat="43.57590862601734" lon="6.941783498753594"><ele>9.0</ele><time>2026-04-12T05:43:38Z</time></trkpt><trkpt lat="43.57598209711278" lon="6.941721545995061"><ele>9.0</ele><time>2026-04-12T05:43:39Z</time></trkpt><trkpt lat="43.57605763778214" lon="6.941660005607533"><ele>9.0</ele><time>2026-04-12T05:43:40Z</time></trkpt><trkpt lat="43.57613023492593" lon="6.941599550894758"><ele>9.0</ele><time>2026-04-12T05:43:41Z</time></trkpt><trkpt lat="43.57620170632572" lon="6.941539839682693"><ele>9.0</ele><time>2026-04-12T05:43:42Z</time></trkpt><trkpt lat="43.57627260566372" lon="6.941480575643772"><ele>9.0</ele><time>2026-04-12T05:43:43Z</time></trkpt><trkpt lat="43.5763461835667" lon="6.941419086303642"><ele>9.0</ele><time>2026-04-12T05:43:44Z</time></trkpt><trkpt lat="43.576419017121246" lon="6.941354747724636"><ele>9.0</ele><time>2026-04-12T05:43:45Z</time></trkpt><trkpt lat="43.57648853450123" lon="6.9412857584619365"><ele>9.0</ele><time>2026-04-12T05:43:46Z</time></trkpt><trkpt lat="43.5765545293815" lon="6.941211992812801"><ele>9.0</ele><time>2026-04-12T05:43:47Z</time></trkpt><trkpt lat="43.57661798163534" lon="6.941139285452158"><ele>9.0</ele><time>2026-04-12T05:43:48Z</time></trkpt><trkpt lat="43.576678407339976" lon="6.941063490780563"><ele>9.0</ele><time>2026-04-12T05:43:49Z</time></trkpt><trkpt lat="43.57673619703432" lon="6.940984879149427"><ele>9.0</ele><time>2026-04-12T05:43:50Z</time></trkpt><trkpt lat="43.57678942117944" lon="6.940903679395633"><ele>9.0</ele><time>2026-04-12T05:43:51Z</time></trkpt><trkpt lat="43.57684173794973" lon="6.940824361944016"><ele>9.0</ele><time>2026-04-12T05:43:52Z</time></trkpt><trkpt lat="43.57689292614691" lon="6.940746537362143"><ele>9.0</ele><time>2026-04-12T05:43:53Z</time></trkpt><trkpt lat="43.57694365616387" lon="6.940672911574118"><ele>9.0</ele><time>2026-04-12T05:43:54Z</time></trkpt><trkpt lat="43.57700306869044" lon="6.940616168844638"><ele>9.000000000000002</ele><time>2026-04-12T05:43:55Z</time></trkpt><trkpt lat="43.57707286527669" lon="6.940587058250005"><ele>9.0</ele><time>2026-04-12T05:43:56Z</time></trkpt><trkpt lat="43.57714366903486" lon="6.940568029082331"><ele>9.0</ele><time>2026-04-12T05:43:57Z</time></trkpt><trkpt lat="43.57720873820564" lon="6.940529749278372"><ele>9.0</ele><time>2026-04-12T05:43:58Z</time></trkpt><trkpt lat="43.57725933026917" lon="6.94045803628668"><ele>9.0</ele><time>2026-04-12T05:43:59Z</time></trkpt><trkpt lat="43.5772903819976" lon="6.940361024001317"><ele>9.000000000000002</ele><time>2026-04-12T05:44:00Z</time></trkpt><trkpt lat="43.577298358975305" lon="6.94025308245833"><ele>9.0</ele><time>2026-04-12T05:44:01Z</time></trkpt><trkpt lat="43.57729345774282" lon="6.9401417345935785"><ele>9.0</ele><time>2026-04-12T05:44:02Z</time></trkpt><trkpt lat="43.57729480545805" lon="6.940027004601709"><ele>9.0</ele><time>2026-04-12T05:44:03Z</time></trkpt><trkpt lat="43.57731367599912" lon="6.939911713621285"><ele>9.0</ele><time>2026-04-12T05:44:04Z</time></trkpt><trkpt lat="43.57735024966899" lon="6.939802886833396"><ele>9.0</ele><time>2026-04-12T05:44:05Z</time></trkpt><trkpt lat="43.57739235605946" lon="6.939692710413579"><ele>9.0</ele><time>2026-04-12T05:44:06Z</time></trkpt><trkpt lat="43.57743145959207" lon="6.939582376997679"><ele>9.0</ele><time>2026-04-12T05:44:07Z</time></trkpt><trkpt lat="43.577466581204256" lon="6.939471286099201"><ele>9.0</ele><time>2026-04-12T05:44:08Z</time></trkpt><trkpt lat="43.577500676468915" lon="6.939361803786455"><ele>9.0</ele><time>2026-04-12T05:44:09.001Z</time></trkpt><trkpt lat="43.577531683315556" lon="6.9392530100249905"><ele>9.0</ele><time>2026-04-12T05:44:10.001Z</time></trkpt><trkpt lat="43.577558727727805" lon="6.939142891405248"><ele>9.0</ele><time>2026-04-12T05:44:11.001Z</time></trkpt><trkpt lat="43.57758232602361" lon="6.9390330544282754"><ele>9.0</ele><time>2026-04-12T05:44:12.001Z</time></trkpt><trkpt lat="43.57760628245958" lon="6.9389241792317256"><ele>9.0</ele><time>2026-04-12T05:44:13.001Z</time></trkpt><trkpt lat="43.577632804379185" lon="6.938813473743839"><ele>9.0</ele><time>2026-04-12T05:44:14.001Z</time></trkpt><trkpt lat="43.577660066873314" lon="6.938702737935533"><ele>9.0</ele><time>2026-04-12T05:44:15.001Z</time></trkpt><trkpt lat="43.577688076016756" lon="6.938591719168651"><ele>9.0</ele><time>2026-04-12T05:44:16.001Z</time></trkpt><trkpt lat="43.57771401205938" lon="6.938479997336858"><ele>9.0</ele><time>2026-04-12T05:44:17.001Z</time></trkpt><trkpt lat="43.577738957527615" lon="6.938368415544636"><ele>9.0</ele><time>2026-04-12T05:44:18.001Z</time></trkpt><trkpt lat="43.57776645253094" lon="6.938255517811214"><ele>9.0</ele><time>2026-04-12T05:44:19.001Z</time></trkpt><trkpt lat="43.57779598853213" lon="6.938141745646823"><ele>9.0</ele><time>2026-04-12T05:44:20.001Z</time></trkpt><trkpt lat="43.577825557122495" lon="6.938028650972257"><ele>9.0</ele><time>2026-04-12T05:44:21.001Z</time></trkpt><trkpt lat="43.577856190966685" lon="6.937914873053368"><ele>9.0</ele><time>2026-04-12T05:44:22.001Z</time></trkpt><trkpt lat="43.57788910707994" lon="6.937803051576667"><ele>9.0</ele><time>2026-04-12T05:44:23.001Z</time></trkpt><trkpt lat="43.57792357808636" lon="6.937692697418244"><ele>9.0</ele><time>2026-04-12T05:44:24.001Z</time></trkpt><trkpt lat="43.5779564296664" lon="6.937582001600715"><ele>9.0</ele><time>2026-04-12T05:44:25.001Z</time></trkpt><trkpt lat="43.57799043380713" lon="6.937473504741255"><ele>8.833333333333334</ele><time>2026-04-12T05:44:26.001Z</time></trkpt><trkpt lat="43.578028309936" lon="6.937365180586756"><ele>8.666666666666666</ele><time>2026-04-12T05:44:27.001Z</time></trkpt><trkpt lat="43.578068729413815" lon="6.9372593727881116"><ele>8.5</ele><time>2026-04-12T05:44:28.001Z</time></trkpt><trkpt lat="43.57811003396708" lon="6.9371540132813525"><ele>8.333333333333332</ele><time>2026-04-12T05:44:29.001Z</time></trkpt><trkpt lat="43.5781514182035" lon="6.937048268653862"><ele>8.166666666666666</ele><time>2026-04-12T05:44:30.001Z</time></trkpt><trkpt lat="43.57819307573062" lon="6.936945217841757"><ele>8.0</ele><time>2026-04-12T05:44:31.001Z</time></trkpt><trkpt lat="43.57823464553144" lon="6.936841167805969"><ele>7.999999999999999</ele><time>2026-04-12T05:44:32.001Z</time></trkpt><trkpt lat="43.57827748074418" lon="6.936740036911502"><ele>8.0</ele><time>2026-04-12T05:44:33.001Z</time></trkpt><trkpt lat="43.57832236019773" lon="6.936638827141646"><ele>8.0</ele><time>2026-04-12T05:44:34Z</time></trkpt><trkpt lat="43.578369334289214" lon="6.936538694269578"><ele>8.0</ele><time>2026-04-12T05:44:35Z</time></trkpt><trkpt lat="43.57841941336253" lon="6.93643609555596"><ele>7.999999999999999</ele><time>2026-04-12T05:44:36Z</time></trkpt><trkpt lat="43.57846952518851" lon="6.936335637867763"><ele>8.0</ele><time>2026-04-12T05:44:37Z</time></trkpt><trkpt lat="43.57852201256024" lon="6.936237267657726"><ele>7.999999999999999</ele><time>2026-04-12T05:44:38Z</time></trkpt><trkpt lat="43.57857467591557" lon="6.936139303558272"><ele>8.0</ele><time>2026-04-12T05:44:39Z</time></trkpt><trkpt lat="43.578627913768706" lon="6.936041216308257"><ele>8.0</ele><time>2026-04-12T05:44:40Z</time></trkpt><trkpt lat="43.578681877579314" lon="6.9359425291509655"><ele>8.0</ele><time>2026-04-12T05:44:41Z</time></trkpt><trkpt lat="43.5787375311134" lon="6.935845927675244"><ele>7.999999999999999</ele><time>2026-04-12T05:44:42Z</time></trkpt><trkpt lat="43.57879355831516" lon="6.935750175841066"><ele>8.0</ele><time>2026-04-12T05:44:43Z</time></trkpt><trkpt lat="43.57885244293791" lon="6.935658227347487"><ele>8.333333333333332</ele><time>2026-04-12T05:44:44Z</time></trkpt><trkpt lat="43.57891480922596" lon="6.935569108942794"><ele>8.666666666666666</ele><time>2026-04-12T05:44:45Z</time></trkpt><trkpt lat="43.57897838200914" lon="6.935480332002784"><ele>9.0</ele><time>2026-04-12T05:44:46Z</time></trkpt><trkpt lat="43.57903979417146" lon="6.935391764131076"><ele>9.333333333333334</ele><time>2026-04-12T05:44:47Z</time></trkpt><trkpt lat="43.57910066576128" lon="6.9353045642214015"><ele>9.666666666666668</ele><time>2026-04-12T05:44:48Z</time></trkpt><trkpt lat="43.57916118556886" lon="6.935220628704182"><ele>10.0</ele><time>2026-04-12T05:44:49Z</time></trkpt><trkpt lat="43.579223448047436" lon="6.9351413417090315"><ele>10.0</ele><time>2026-04-12T05:44:50Z</time></trkpt><trkpt lat="43.579284808090165" lon="6.935064850493229"><ele>10.0</ele><time>2026-04-12T05:44:51Z</time></trkpt><trkpt lat="43.57934855179822" lon="6.934988934911231"><ele>10.0</ele><time>2026-04-12T05:44:52Z</time></trkpt><trkpt lat="43.57941179294562" lon="6.934912420140728"><ele>10.0</ele><time>2026-04-12T05:44:53Z</time></trkpt><trkpt lat="43.57947648123812" lon="6.934835126751159"><ele>10.0</ele><time>2026-04-12T05:44:54Z</time></trkpt><trkpt lat="43.57954146211719" lon="6.934760894834098"><ele>10.0</ele><time>2026-04-12T05:44:55Z</time></trkpt><trkpt lat="43.579610566035925" lon="6.93468694153754"><ele>10.0</ele><time>2026-04-12T05:44:56Z</time></trkpt><trkpt lat="43.57967874601503" lon="6.934613988601052"><ele>10.0</ele><time>2026-04-12T05:44:57Z</time></trkpt><trkpt lat="43.579749119770156" lon="6.934543059528019"><ele>10.0</ele><time>2026-04-12T05:44:58Z</time></trkpt><trkpt lat="43.5798203378193" lon="6.934474906952867"><ele>10.0</ele><time>2026-04-12T05:44:59Z</time></trkpt><trkpt lat="43.57989095448608" lon="6.93440600968632"><ele>10.0</ele><time>2026-04-12T05:45:00Z</time></trkpt><trkpt lat="43.57996147217225" lon="6.934339685419905"><ele>10.0</ele><time>2026-04-12T05:45:01Z</time></trkpt><trkpt lat="43.58003299310441" lon="6.93427658216038"><ele>10.0</ele><time>2026-04-12T05:45:02Z</time></trkpt><trkpt lat="43.580104998896125" lon="6.934214737020046"><ele>10.0</ele><time>2026-04-12T05:45:03Z</time></trkpt><trkpt lat="43.58017874430919" lon="6.934155668883768"><ele>10.0</ele><time>2026-04-12T05:45:04Z</time></trkpt><trkpt lat="43.58025338021786" lon="6.934099141452134"><ele>10.0</ele><time>2026-04-12T05:45:05Z</time></trkpt><trkpt lat="43.58032754425579" lon="6.934043188539312"><ele>10.0</ele><time>2026-04-12T05:45:06Z</time></trkpt><trkpt lat="43.58040191879627" lon="6.933989261788637"><ele>10.0</ele><time>2026-04-12T05:45:07Z</time></trkpt><trkpt lat="43.580476172603625" lon="6.933937236427685"><ele>10.166666666666668</ele><time>2026-04-12T05:45:08Z</time></trkpt><trkpt lat="43.58055214141767" lon="6.93388574573707"><ele>10.333333333333334</ele><time>2026-04-12T05:45:09Z</time></trkpt><trkpt lat="43.580627377185145" lon="6.933836802599111"><ele>10.5</ele><time>2026-04-12T05:45:10Z</time></trkpt><trkpt lat="43.580704201630404" lon="6.933789440845653"><ele>10.666666666666666</ele><time>2026-04-12T05:45:11Z</time></trkpt><trkpt lat="43.58078145421417" lon="6.933743571156072"><ele>10.833333333333332</ele><time>2026-04-12T05:45:12Z</time></trkpt><trkpt lat="43.58085784463459" lon="6.933699221886075"><ele>11.0</ele><time>2026-04-12T05:45:13Z</time></trkpt><trkpt lat="43.580934618728236" lon="6.933653749111455"><ele>11.0</ele><time>2026-04-12T05:45:14Z</time></trkpt><trkpt lat="43.58101221415981" lon="6.933611056224525"><ele>11.0</ele><time>2026-04-12T05:45:15Z</time></trkpt><trkpt lat="43.581090747353166" lon="6.933571118203931"><ele>11.0</ele><time>2026-04-12T05:45:16Z</time></trkpt><trkpt lat="43.58116942762811" lon="6.933532851471733"><ele>11.0</ele><time>2026-04-12T05:45:17Z</time></trkpt><trkpt lat="43.58124941451712" lon="6.933494355750742"><ele>11.0</ele><time>2026-04-12T05:45:18Z</time></trkpt><trkpt lat="43.581329207856605" lon="6.933457902006295"><ele>11.0</ele><time>2026-04-12T05:45:19Z</time></trkpt><trkpt lat="43.5814103096186" lon="6.933422989248325"><ele>11.166666666666666</ele><time>2026-04-12T05:45:20Z</time></trkpt><trkpt lat="43.581490107205234" lon="6.933391224872353"><ele>11.333333333333332</ele><time>2026-04-12T05:45:21Z</time></trkpt><trkpt lat="43.58157235074285" lon="6.933365200277185"><ele>11.5</ele><time>2026-04-12T05:45:22Z</time></trkpt><trkpt lat="43.58165466326345" lon="6.9333397877820575"><ele>11.666666666666666</ele><time>2026-04-12T05:45:23Z</time></trkpt><trkpt lat="43.581737137911155" lon="6.933314880281001"><ele>11.833333333333334</ele><time>2026-04-12T05:45:24Z</time></trkpt><trkpt lat="43.5818196503386" lon="6.933288577831993"><ele>12.0</ele><time>2026-04-12T05:45:25Z</time></trkpt><trkpt lat="43.58190290070615" lon="6.933266141773144"><ele>12.0</ele><time>2026-04-12T05:45:26Z</time></trkpt><trkpt lat="43.581986804189796" lon="6.93324617636387"><ele>12.0</ele><time>2026-04-12T05:45:27Z</time></trkpt><trkpt lat="43.58206945134902" lon="6.933227343823891"><ele>12.0</ele><time>2026-04-12T05:45:28Z</time></trkpt><trkpt lat="43.58215169653687" lon="6.933209311062694"><ele>12.0</ele><time>2026-04-12T05:45:29Z</time></trkpt><trkpt lat="43.58223385418112" lon="6.933192520684506"><ele>12.0</ele><time>2026-04-12T05:45:30Z</time></trkpt><trkpt lat="43.5823160766312" lon="6.933178293603926"><ele>12.0</ele><time>2026-04-12T05:45:31Z</time></trkpt><trkpt lat="43.582399445342986" lon="6.933166901701727"><ele>12.0</ele><time>2026-04-12T05:45:32Z</time></trkpt><trkpt lat="43.58248286561085" lon="6.933157846129911"><ele>12.0</ele><time>2026-04-12T05:45:33Z</time></trkpt><trkpt lat="43.58256462831492" lon="6.933150836479284"><ele>12.0</ele><time>2026-04-12T05:45:34Z</time></trkpt><trkpt lat="43.58264798184101" lon="6.933144178405625"><ele>12.0</ele><time>2026-04-12T05:45:35Z</time></trkpt><trkpt lat="43.58273138833599" lon="6.933139121197081"><ele>12.0</ele><time>2026-04-12T05:45:36Z</time></trkpt><trkpt lat="43.58281443594469" lon="6.93313476346203"><ele>12.0</ele><time>2026-04-12T05:45:37Z</time></trkpt><trkpt lat="43.582898570509464" lon="6.933132601260221"><ele>11.666666666666666</ele><time>2026-04-12T05:45:38Z</time></trkpt><trkpt lat="43.58298200765271" lon="6.933133240575447"><ele>11.333333333333334</ele><time>2026-04-12T05:45:39Z</time></trkpt><trkpt lat="43.58306472241483" lon="6.933135340709041"><ele>11.0</ele><time>2026-04-12T05:45:40Z</time></trkpt><trkpt lat="43.583147026568724" lon="6.933139748322403"><ele>10.666666666666668</ele><time>2026-04-12T05:45:41Z</time></trkpt><trkpt lat="43.5832278120963" lon="6.93314354563671"><ele>10.333333333333334</ele><time>2026-04-12T05:45:42Z</time></trkpt><trkpt lat="43.583311211298074" lon="6.933148917938112"><ele>10.0</ele><time>2026-04-12T05:45:43Z</time></trkpt><trkpt lat="43.58339365114811" lon="6.933159335354495"><ele>10.0</ele><time>2026-04-12T05:45:44Z</time></trkpt><trkpt lat="43.583476677494126" lon="6.933169209396649"><ele>10.0</ele><time>2026-04-12T05:45:45Z</time></trkpt><trkpt lat="43.58356077925935" lon="6.933183134148499"><ele>10.0</ele><time>2026-04-12T05:45:46Z</time></trkpt><trkpt lat="43.583642792397676" lon="6.933200149687486"><ele>10.0</ele><time>2026-04-12T05:45:47Z</time></trkpt><trkpt lat="43.583724351662106" lon="6.933218172281245"><ele>10.0</ele><time>2026-04-12T05:45:48Z</time></trkpt><trkpt lat="43.583805803790185" lon="6.933237849684602"><ele>10.0</ele><time>2026-04-12T05:45:49Z</time></trkpt><trkpt lat="43.58388732503768" lon="6.933256765974145"><ele>10.0</ele><time>2026-04-12T05:45:50Z</time></trkpt><trkpt lat="43.58396839756053" lon="6.93327676557727"><ele>10.0</ele><time>2026-04-12T05:45:51Z</time></trkpt><trkpt lat="43.58405128726226" lon="6.933298583659007"><ele>10.0</ele><time>2026-04-12T05:45:52Z</time></trkpt><trkpt lat="43.58413343301168" lon="6.93332024875955"><ele>10.0</ele><time>2026-04-12T05:45:53Z</time></trkpt><trkpt lat="43.584214941034396" lon="6.93334411058925"><ele>10.0</ele><time>2026-04-12T05:45:54Z</time></trkpt><trkpt lat="43.58429368812876" lon="6.93337056667759"><ele>10.0</ele><time>2026-04-12T05:45:55Z</time></trkpt><trkpt lat="43.584372976990586" lon="6.933398458536084"><ele>10.0</ele><time>2026-04-12T05:45:56Z</time></trkpt><trkpt lat="43.58445227904267" lon="6.933428213319398"><ele>10.0</ele><time>2026-04-12T05:45:57Z</time></trkpt><trkpt lat="43.58453181572582" lon="6.933459713904312"><ele>10.0</ele><time>2026-04-12T05:45:58Z</time></trkpt><trkpt lat="43.58461090596681" lon="6.933493323327897"><ele>10.0</ele><time>2026-04-12T05:45:59Z</time></trkpt><trkpt lat="43.58468799490462" lon="6.933529102253598"><ele>10.0</ele><time>2026-04-12T05:46:00Z</time></trkpt><trkpt lat="43.58476390821513" lon="6.933566562689467"><ele>10.0</ele><time>2026-04-12T05:46:01Z</time></trkpt><trkpt lat="43.584838313582814" lon="6.933603861579762"><ele>10.166666666666668</ele><time>2026-04-12T05:46:02Z</time></trkpt><trkpt lat="43.58491241260133" lon="6.933640722339635"><ele>10.333333333333334</ele><time>2026-04-12T05:46:03Z</time></trkpt><trkpt lat="43.58498720012231" lon="6.933679403165598"><ele>10.5</ele><time>2026-04-12T05:46:04Z</time></trkpt><trkpt lat="43.58506245349594" lon="6.933721431831715"><ele>10.666666666666666</ele><time>2026-04-12T05:46:05Z</time></trkpt><trkpt lat="43.58513697031207" lon="6.933763578433207"><ele>10.833333333333332</ele><time>2026-04-12T05:46:06Z</time></trkpt><trkpt lat="43.585212610676265" lon="6.933806200600041"><ele>11.0</ele><time>2026-04-12T05:46:07Z</time></trkpt><trkpt lat="43.5852878829649" lon="6.933848811320286"><ele>11.0</ele><time>2026-04-12T05:46:08Z</time></trkpt><trkpt lat="43.58536395743017" lon="6.933893524093416"><ele>11.0</ele><time>2026-04-12T05:46:09Z</time></trkpt><trkpt lat="43.5854398659059" lon="6.933938022187879"><ele>11.0</ele><time>2026-04-12T05:46:10Z</time></trkpt><trkpt lat="43.585513843334006" lon="6.933981654379105"><ele>11.0</ele><time>2026-04-12T05:46:11Z</time></trkpt><trkpt lat="43.58558748658676" lon="6.934025368645378"><ele>11.0</ele><time>2026-04-12T05:46:12Z</time></trkpt><trkpt lat="43.58565949894834" lon="6.934068722898067"><ele>11.0</ele><time>2026-04-12T05:46:13Z</time></trkpt><trkpt lat="43.5857317536505" lon="6.934112033314775"><ele>11.0</ele><time>2026-04-12T05:46:14Z</time></trkpt><trkpt lat="43.58580368471562" lon="6.934155107298752"><ele>11.0</ele><time>2026-04-12T05:46:15Z</time></trkpt><trkpt lat="43.58587568463555" lon="6.934199201847374"><ele>11.0</ele><time>2026-04-12T05:46:16Z</time></trkpt><trkpt lat="43.58594903356197" lon="6.934242534479505"><ele>11.0</ele><time>2026-04-12T05:46:17Z</time></trkpt><trkpt lat="43.58602033538018" lon="6.934287471059274"><ele>11.0</ele><time>2026-04-12T05:46:18Z</time></trkpt><trkpt lat="43.58609068816956" lon="6.9343318386659325"><ele>11.0</ele><time>2026-04-12T05:46:19Z</time></trkpt><trkpt lat="43.58616058632825" lon="6.934375212795315"><ele>11.166666666666666</ele><time>2026-04-12T05:46:20Z</time></trkpt><trkpt lat="43.58623161085197" lon="6.934414841867746"><ele>11.333333333333332</ele><time>2026-04-12T05:46:21Z</time></trkpt><trkpt lat="43.586302263780524" lon="6.934453119726587"><ele>11.5</ele><time>2026-04-12T05:46:22Z</time></trkpt><trkpt lat="43.58637233579412" lon="6.934493967753449"><ele>11.666666666666666</ele><time>2026-04-12T05:46:23Z</time></trkpt><trkpt lat="43.58644352356571" lon="6.934532566811888"><ele>11.833333333333334</ele><time>2026-04-12T05:46:24Z</time></trkpt><trkpt lat="43.58651456988721" lon="6.934571678992076"><ele>12.0</ele><time>2026-04-12T05:46:25Z</time></trkpt><trkpt lat="43.58658366683627" lon="6.934612259662838"><ele>11.999999999999998</ele><time>2026-04-12T05:46:26Z</time></trkpt><trkpt lat="43.586651245895474" lon="6.934651460816988"><ele>12.0</ele><time>2026-04-12T05:46:27Z</time></trkpt><trkpt lat="43.586717770843286" lon="6.934691366912906"><ele>12.0</ele><time>2026-04-12T05:46:28Z</time></trkpt><trkpt lat="43.58678232734577" lon="6.934731401364785"><ele>12.0</ele><time>2026-04-12T05:46:29Z</time></trkpt><trkpt lat="43.58684401145938" lon="6.93476903568241"><ele>12.0</ele><time>2026-04-12T05:46:30Z</time></trkpt><trkpt lat="43.58690393673759" lon="6.934806902019115"><ele>11.999999999999998</ele><time>2026-04-12T05:46:31Z</time></trkpt><trkpt lat="43.586960946625524" lon="6.9348450616746575"><ele>12.0</ele><time>2026-04-12T05:46:32Z</time></trkpt><trkpt lat="43.587015282012345" lon="6.934891582750547"><ele>12.0</ele><time>2026-04-12T05:46:33Z</time></trkpt><trkpt lat="43.58707059419105" lon="6.934939838474464"><ele>12.0</ele><time>2026-04-12T05:46:34Z</time></trkpt><trkpt lat="43.58715532099124" lon="6.935067522761029"><ele>12.0</ele><time>2026-04-12T05:46:36Z</time></trkpt><trkpt lat="43.587189405920256" lon="6.935144780621114"><ele>12.0</ele><time>2026-04-12T05:46:37Z</time></trkpt><trkpt lat="43.58723140382569" lon="6.935219809297821"><ele>12.0</ele><time>2026-04-12T05:46:38Z</time></trkpt><trkpt lat="43.58729064561938" lon="6.935263669477866"><ele>12.0</ele><time>2026-04-12T05:46:39Z</time></trkpt><trkpt lat="43.58735750368496" lon="6.935277337864493"><ele>12.0</ele><time>2026-04-12T05:46:40Z</time></trkpt><trkpt lat="43.58742388232951" lon="6.935261525242525"><ele>12.0</ele><time>2026-04-12T05:46:41Z</time></trkpt><trkpt lat="43.587483468030776" lon="6.935209741099207"><ele>12.0</ele><time>2026-04-12T05:46:42Z</time></trkpt><trkpt lat="43.58754276261074" lon="6.935152603990692"><ele>12.0</ele><time>2026-04-12T05:46:43Z</time></trkpt><trkpt lat="43.587541328499974" lon="6.935021411751539"><ele>12.0</ele><time>2026-04-12T05:46:44Z</time></trkpt><trkpt lat="43.587548707552905" lon="6.9349182330267825"><ele>12.0</ele><time>2026-04-12T05:46:45Z</time></trkpt><trkpt lat="43.587525950412726" lon="6.934806862665356"><ele>12.0</ele><time>2026-04-12T05:46:46Z</time></trkpt><trkpt lat="43.58754430518119" lon="6.9346955789901035"><ele>12.0</ele><time>2026-04-12T05:46:47Z</time></trkpt><trkpt lat="43.58760043124519" lon="6.934598113160173"><ele>12.0</ele><time>2026-04-12T05:46:48Z</time></trkpt><trkpt lat="43.58760772774458" lon="6.934485346379208"><ele>12.0</ele><time>2026-04-12T05:46:49Z</time></trkpt><trkpt lat="43.587686003641" lon="6.934397428292842"><ele>12.0</ele><time>2026-04-12T05:46:50Z</time></trkpt><trkpt lat="43.587726802124514" lon="6.934296642998325"><ele>12.0</ele><time>2026-04-12T05:46:51Z</time></trkpt><trkpt lat="43.58777338079932" lon="6.934198113621786"><ele>12.166666666666666</ele><time>2026-04-12T05:46:52Z</time></trkpt><trkpt lat="43.58782352425237" lon="6.934100889827126"><ele>12.333333333333332</ele><time>2026-04-12T05:46:53Z</time></trkpt><trkpt lat="43.58787075234552" lon="6.934002504377562"><ele>12.5</ele><time>2026-04-12T05:46:54Z</time></trkpt><trkpt lat="43.58791746537994" lon="6.933902737986104"><ele>12.666666666666666</ele><time>2026-04-12T05:46:55Z</time></trkpt><trkpt lat="43.587963312182794" lon="6.933804223372335"><ele>12.833333333333332</ele><time>2026-04-12T05:46:56Z</time></trkpt><trkpt lat="43.588007976065256" lon="6.933704344163568"><ele>13.0</ele><time>2026-04-12T05:46:57Z</time></trkpt><trkpt lat="43.5880568289408" lon="6.9336053447065735"><ele>12.999999999999998</ele><time>2026-04-12T05:46:58Z</time></trkpt><trkpt lat="43.588113450134664" lon="6.933511697813096"><ele>13.0</ele><time>2026-04-12T05:46:59Z</time></trkpt><trkpt lat="43.588169585184914" lon="6.933419309540776"><ele>13.0</ele><time>2026-04-12T05:47:00Z</time></trkpt><trkpt lat="43.5882244434905" lon="6.933328361111078"><ele>13.0</ele><time>2026-04-12T05:47:01Z</time></trkpt><trkpt lat="43.58828027718814" lon="6.933241913495962"><ele>12.999999999999998</ele><time>2026-04-12T05:47:02Z</time></trkpt><trkpt lat="43.5883373533249" lon="6.933156964084625"><ele>13.0</ele><time>2026-04-12T05:47:03Z</time></trkpt><trkpt lat="43.588396230064575" lon="6.93307555671744"><ele>12.999999999999998</ele><time>2026-04-12T05:47:04Z</time></trkpt><trkpt lat="43.58845432875937" lon="6.932994575450499"><ele>13.0</ele><time>2026-04-12T05:47:05Z</time></trkpt><trkpt lat="43.58851183033941" lon="6.9329147032054985"><ele>13.0</ele><time>2026-04-12T05:47:06Z</time></trkpt><trkpt lat="43.588569353255295" lon="6.932834815759313"><ele>13.0</ele><time>2026-04-12T05:47:07Z</time></trkpt><trkpt lat="43.58862731807098" lon="6.9327559837371355"><ele>12.999999999999998</ele><time>2026-04-12T05:47:08Z</time></trkpt><trkpt lat="43.588686257514816" lon="6.932681268326717"><ele>13.0</ele><time>2026-04-12T05:47:09Z</time></trkpt><trkpt lat="43.58874467307418" lon="6.932605803281217"><ele>13.333333333333332</ele><time>2026-04-12T05:47:10Z</time></trkpt><trkpt lat="43.58880271476338" lon="6.932528655626712"><ele>13.666666666666666</ele><time>2026-04-12T05:47:11Z</time></trkpt><trkpt lat="43.588863105753404" lon="6.932451432587372"><ele>14.0</ele><time>2026-04-12T05:47:12Z</time></trkpt><trkpt lat="43.58892472576451" lon="6.932373973372136"><ele>14.333333333333332</ele><time>2026-04-12T05:47:13Z</time></trkpt><trkpt lat="43.58898650606465" lon="6.932295813693894"><ele>14.666666666666666</ele><time>2026-04-12T05:47:14Z</time></trkpt><trkpt lat="43.58905009948808" lon="6.932215943330567"><ele>15.0</ele><time>2026-04-12T05:47:15Z</time></trkpt><trkpt lat="43.58911624172446" lon="6.93213778804569"><ele>15.0</ele><time>2026-04-12T05:47:16Z</time></trkpt><trkpt lat="43.58918027776508" lon="6.932059797940328"><ele>15.0</ele><time>2026-04-12T05:47:17Z</time></trkpt><trkpt lat="43.58924331285831" lon="6.931979329677739"><ele>15.0</ele><time>2026-04-12T05:47:18Z</time></trkpt><trkpt lat="43.58930160989587" lon="6.931894042623178"><ele>15.0</ele><time>2026-04-12T05:47:19Z</time></trkpt><trkpt lat="43.58936029991644" lon="6.93181341018248"><ele>15.0</ele><time>2026-04-12T05:47:20Z</time></trkpt><trkpt lat="43.589421364294274" lon="6.931738451447943"><ele>15.0</ele><time>2026-04-12T05:47:21Z</time></trkpt><trkpt lat="43.58948239562586" lon="6.931664239700079"><ele>14.5</ele><time>2026-04-12T05:47:22Z</time></trkpt><trkpt lat="43.589542082032416" lon="6.931589645071239"><ele>14.0</ele><time>2026-04-12T05:47:23Z</time></trkpt><trkpt lat="43.58960035122724" lon="6.931513222367464"><ele>13.5</ele><time>2026-04-12T05:47:24Z</time></trkpt><trkpt lat="43.58965888911379" lon="6.931436070582586"><ele>13.0</ele><time>2026-04-12T05:47:25Z</time></trkpt><trkpt lat="43.58971884368455" lon="6.931359236718369"><ele>12.5</ele><time>2026-04-12T05:47:26Z</time></trkpt><trkpt lat="43.58977921021892" lon="6.931284439271973"><ele>12.0</ele><time>2026-04-12T05:47:27Z</time></trkpt><trkpt lat="43.589839575270986" lon="6.931208484674219"><ele>12.0</ele><time>2026-04-12T05:47:28Z</time></trkpt><trkpt lat="43.589898256683384" lon="6.9311295525747845"><ele>12.0</ele><time>2026-04-12T05:47:29Z</time></trkpt><trkpt lat="43.58995759944044" lon="6.931053887978249"><ele>12.0</ele><time>2026-04-12T05:47:30Z</time></trkpt><trkpt lat="43.59001692187275" lon="6.9309793222993985"><ele>12.0</ele><time>2026-04-12T05:47:31Z</time></trkpt><trkpt lat="43.59007722368327" lon="6.930903650820668"><ele>12.0</ele><time>2026-04-12T05:47:32Z</time></trkpt><trkpt lat="43.590138803918826" lon="6.930825905543369"><ele>12.0</ele><time>2026-04-12T05:47:33Z</time></trkpt><trkpt lat="43.59020261787443" lon="6.9307465744824714"><ele>12.166666666666666</ele><time>2026-04-12T05:47:34Z</time></trkpt><trkpt lat="43.590264771643746" lon="6.9306640524673995"><ele>12.333333333333332</ele><time>2026-04-12T05:47:35Z</time></trkpt><trkpt lat="43.59032404743605" lon="6.930580943998881"><ele>12.5</ele><time>2026-04-12T05:47:36Z</time></trkpt><trkpt lat="43.590382092947195" lon="6.930499275795177"><ele>12.666666666666666</ele><time>2026-04-12T05:47:37Z</time></trkpt><trkpt lat="43.59043664537564" lon="6.930417795031879"><ele>12.833333333333332</ele><time>2026-04-12T05:47:38Z</time></trkpt><trkpt lat="43.59048839721422" lon="6.9303363441361405"><ele>13.0</ele><time>2026-04-12T05:47:39Z</time></trkpt><trkpt lat="43.590536875314406" lon="6.9302543756933765"><ele>13.166666666666666</ele><time>2026-04-12T05:47:40Z</time></trkpt><trkpt lat="43.59058464240966" lon="6.93017088855258"><ele>13.333333333333332</ele><time>2026-04-12T05:47:41Z</time></trkpt><trkpt lat="43.59063312207312" lon="6.930086091455448"><ele>13.5</ele><time>2026-04-12T05:47:42Z</time></trkpt><trkpt lat="43.59068078654684" lon="6.93000190787523"><ele>13.666666666666668</ele><time>2026-04-12T05:47:43Z</time></trkpt><trkpt lat="43.5907257514435" lon="6.929918051936069"><ele>13.833333333333334</ele><time>2026-04-12T05:47:44Z</time></trkpt><trkpt lat="43.59076697672614" lon="6.929835116922268"><ele>14.0</ele><time>2026-04-12T05:47:45Z</time></trkpt><trkpt lat="43.59080499213877" lon="6.929753746779197"><ele>14.0</ele><time>2026-04-12T05:47:46Z</time></trkpt><trkpt lat="43.590841713090086" lon="6.929672603687083"><ele>14.0</ele><time>2026-04-12T05:47:47Z</time></trkpt><trkpt lat="43.59087866387503" lon="6.929593003998779"><ele>14.0</ele><time>2026-04-12T05:47:48Z</time></trkpt><trkpt lat="43.590918504688425" lon="6.929517017523113"><ele>14.0</ele><time>2026-04-12T05:47:49Z</time></trkpt><trkpt lat="43.59096097105894" lon="6.929452043663382"><ele>14.0</ele><time>2026-04-12T05:47:50Z</time></trkpt><trkpt lat="43.59100885162427" lon="6.929393579441386"><ele>14.0</ele><time>2026-04-12T05:47:51Z</time></trkpt><trkpt lat="43.59106075790209" lon="6.929343648203478"><ele>14.0</ele><time>2026-04-12T05:47:52Z</time></trkpt><trkpt lat="43.59115577381779" lon="6.929254258596142"><ele>14.2</ele><time>2026-04-12T05:47:54Z</time></trkpt><trkpt lat="43.591200461405656" lon="6.9291247467076085"><ele>14.399999999999999</ele><time>2026-04-12T05:47:56Z</time></trkpt><trkpt lat="43.59117762567287" lon="6.9290423142328565"><ele>14.6</ele><time>2026-04-12T05:47:57Z</time></trkpt><trkpt lat="43.591045580844074" lon="6.9289659310515015"><ele>14.8</ele><time>2026-04-12T05:47:59Z</time></trkpt><trkpt lat="43.59097031347595" lon="6.928997386701191"><ele>15.0</ele><time>2026-04-12T05:48:00Z</time></trkpt><trkpt lat="43.59089641272459" lon="6.92900341611217"><ele>15.0</ele><time>2026-04-12T05:48:01Z</time></trkpt><trkpt lat="43.590819499973705" lon="6.9289896305950585"><ele>15.0</ele><time>2026-04-12T05:48:02Z</time></trkpt><trkpt lat="43.59074439643615" lon="6.928957339236368"><ele>15.0</ele><time>2026-04-12T05:48:03Z</time></trkpt><trkpt lat="43.590667946694765" lon="6.928918116811692"><ele>15.0</ele><time>2026-04-12T05:48:04Z</time></trkpt><trkpt lat="43.590591748972656" lon="6.928881941576775"><ele>15.0</ele><time>2026-04-12T05:48:05Z</time></trkpt><trkpt lat="43.590516529671525" lon="6.928846195428082"><ele>15.0</ele><time>2026-04-12T05:48:06Z</time></trkpt><trkpt lat="43.590440124344866" lon="6.92881335492352"><ele>15.0</ele><time>2026-04-12T05:48:07Z</time></trkpt><trkpt lat="43.590361645995806" lon="6.9287860176286"><ele>15.0</ele><time>2026-04-12T05:48:08Z</time></trkpt><trkpt lat="43.59028059085431" lon="6.92876240826956"><ele>15.0</ele><time>2026-04-12T05:48:09Z</time></trkpt><trkpt lat="43.59020065562013" lon="6.928734670635215"><ele>15.0</ele><time>2026-04-12T05:48:10Z</time></trkpt><trkpt lat="43.59012225494336" lon="6.928704719587839"><ele>15.0</ele><time>2026-04-12T05:48:11Z</time></trkpt><trkpt lat="43.59004537955737" lon="6.9286706200779244"><ele>15.0</ele><time>2026-04-12T05:48:12Z</time></trkpt><trkpt lat="43.58997230784266" lon="6.928629727805372"><ele>14.857142857142858</ele><time>2026-04-12T05:48:13Z</time></trkpt><trkpt lat="43.58990508490297" lon="6.9285771475640905"><ele>14.714285714285714</ele><time>2026-04-12T05:48:14Z</time></trkpt><trkpt lat="43.58984486403559" lon="6.928516455464253"><ele>14.571428571428571</ele><time>2026-04-12T05:48:15Z</time></trkpt><trkpt lat="43.58979143905495" lon="6.928453509078829"><ele>14.428571428571429</ele><time>2026-04-12T05:48:16Z</time></trkpt><trkpt lat="43.589742650081064" lon="6.928391017286478"><ele>14.285714285714285</ele><time>2026-04-12T05:48:17Z</time></trkpt><trkpt lat="43.58969412414532" lon="6.928331829671189"><ele>14.142857142857142</ele><time>2026-04-12T05:48:18Z</time></trkpt><trkpt lat="43.589646270118855" lon="6.928273562481634"><ele>14.0</ele><time>2026-04-12T05:48:19Z</time></trkpt><trkpt lat="43.589552898828885" lon="6.928163851670247"><ele>13.833333333333334</ele><time>2026-04-12T05:48:21Z</time></trkpt><trkpt lat="43.58946299453116" lon="6.9280558315700915"><ele>13.666666666666668</ele><time>2026-04-12T05:48:23Z</time></trkpt><trkpt lat="43.58941739000982" lon="6.92799467611653"><ele>13.5</ele><time>2026-04-12T05:48:24Z</time></trkpt><trkpt lat="43.58936833019347" lon="6.927930219976519"><ele>13.333333333333332</ele><time>2026-04-12T05:48:25Z</time></trkpt><trkpt lat="43.589319013881884" lon="6.927864330583965"><ele>13.166666666666666</ele><time>2026-04-12T05:48:26Z</time></trkpt><trkpt lat="43.589269318712226" lon="6.927803419988533"><ele>13.0</ele><time>2026-04-12T05:48:27Z</time></trkpt><trkpt lat="43.589220735064586" lon="6.927743493745125"><ele>13.0</ele><time>2026-04-12T05:48:28Z</time></trkpt><trkpt lat="43.589173455580514" lon="6.927681398510691"><ele>13.0</ele><time>2026-04-12T05:48:29Z</time></trkpt><trkpt lat="43.58912412405604" lon="6.927620134057763"><ele>13.0</ele><time>2026-04-12T05:48:30Z</time></trkpt><trkpt lat="43.58907245019398" lon="6.927555783433258"><ele>13.0</ele><time>2026-04-12T05:48:31Z</time></trkpt><trkpt lat="43.589017138709586" lon="6.92748683501182"><ele>13.0</ele><time>2026-04-12T05:48:32Z</time></trkpt><trkpt lat="43.58896054226649" lon="6.927416264503934"><ele>13.0</ele><time>2026-04-12T05:48:33Z</time></trkpt><trkpt lat="43.58890196543409" lon="6.9273445096067405"><ele>13.0</ele><time>2026-04-12T05:48:34Z</time></trkpt><trkpt lat="43.58884042595091" lon="6.9272731775858745"><ele>12.999999999999998</ele><time>2026-04-12T05:48:35Z</time></trkpt><trkpt lat="43.588773990491966" lon="6.927202488244227"><ele>13.0</ele><time>2026-04-12T05:48:36Z</time></trkpt><trkpt lat="43.58870461915525" lon="6.927133324487158"><ele>13.0</ele><time>2026-04-12T05:48:37Z</time></trkpt><trkpt lat="43.58863209028167" lon="6.927061276593162"><ele>13.0</ele><time>2026-04-12T05:48:38Z</time></trkpt><trkpt lat="43.588555601189185" lon="6.926986796382251"><ele>12.999999999999998</ele><time>2026-04-12T05:48:39Z</time></trkpt><trkpt lat="43.588475926877635" lon="6.926913561676883"><ele>13.0</ele><time>2026-04-12T05:48:40Z</time></trkpt><trkpt lat="43.588398447889276" lon="6.926841423516939"><ele>12.8</ele><time>2026-04-12T05:48:41Z</time></trkpt><trkpt lat="43.58831936770852" lon="6.926768307313765"><ele>12.600000000000001</ele><time>2026-04-12T05:48:42Z</time></trkpt><trkpt lat="43.58824136516984" lon="6.926694079934757"><ele>12.399999999999999</ele><time>2026-04-12T05:48:43Z</time></trkpt><trkpt lat="43.58816430816315" lon="6.926620726975357"><ele>12.2</ele><time>2026-04-12T05:48:44Z</time></trkpt><trkpt lat="43.588088859756354" lon="6.926549629410983"><ele>12.0</ele><time>2026-04-12T05:48:45Z</time></trkpt><trkpt lat="43.58801797500461" lon="6.9264808474204935"><ele>12.0</ele><time>2026-04-12T05:48:46Z</time></trkpt><trkpt lat="43.5879472404277" lon="6.926410039892997"><ele>12.0</ele><time>2026-04-12T05:48:47Z</time></trkpt><trkpt lat="43.587875918668736" lon="6.926337282233384"><ele>12.0</ele><time>2026-04-12T05:48:48Z</time></trkpt><trkpt lat="43.587803295013195" lon="6.9262668563835135"><ele>12.0</ele><time>2026-04-12T05:48:49Z</time></trkpt><trkpt lat="43.587731223941006" lon="6.9262003399017695"><ele>12.0</ele><time>2026-04-12T05:48:50Z</time></trkpt><trkpt lat="43.587659297248464" lon="6.926130789065951"><ele>12.0</ele><time>2026-04-12T05:48:51Z</time></trkpt><trkpt lat="43.587591535849036" lon="6.926061143147729"><ele>12.166666666666666</ele><time>2026-04-12T05:48:52Z</time></trkpt><trkpt lat="43.58752635255656" lon="6.925999393563281"><ele>12.333333333333332</ele><time>2026-04-12T05:48:53Z</time></trkpt><trkpt lat="43.58745902379449" lon="6.925936974403097"><ele>12.5</ele><time>2026-04-12T05:48:54Z</time></trkpt><trkpt lat="43.587393693296896" lon="6.925879638979923"><ele>12.666666666666666</ele><time>2026-04-12T05:48:55Z</time></trkpt><trkpt lat="43.58732917637567" lon="6.925823953232819"><ele>12.833333333333332</ele><time>2026-04-12T05:48:56Z</time></trkpt><trkpt lat="43.58727097954537" lon="6.9257656868612525"><ele>13.0</ele><time>2026-04-12T05:48:57Z</time></trkpt><trkpt lat="43.58721171926382" lon="6.925711292727896"><ele>13.0</ele><time>2026-04-12T05:48:58Z</time></trkpt><trkpt lat="43.587151208423634" lon="6.92565979476339"><ele>13.0</ele><time>2026-04-12T05:48:59Z</time></trkpt><trkpt lat="43.587092722882915" lon="6.925607799966597"><ele>13.0</ele><time>2026-04-12T05:49:00Z</time></trkpt><trkpt lat="43.58699807681962" lon="6.925517923342821"><ele>13.0</ele><time>2026-04-12T05:49:02Z</time></trkpt><trkpt lat="43.58694989514119" lon="6.925387136994877"><ele>13.0</ele><time>2026-04-12T05:49:04Z</time></trkpt><trkpt lat="43.58701968532179" lon="6.925241689594159"><ele>13.0</ele><time>2026-04-12T05:49:06Z</time></trkpt><trkpt lat="43.587079744599556" lon="6.9251993099319105"><ele>13.0</ele><time>2026-04-12T05:49:07Z</time></trkpt><trkpt lat="43.58714420689351" lon="6.925168571285206"><ele>13.0</ele><time>2026-04-12T05:49:08Z</time></trkpt><trkpt lat="43.58721161831604" lon="6.925141328843513"><ele>13.0</ele><time>2026-04-12T05:49:09Z</time></trkpt><trkpt lat="43.58728271934459" lon="6.925152734020426"><ele>13.0</ele><time>2026-04-12T05:49:10Z</time></trkpt><trkpt lat="43.58735350982788" lon="6.925154488350227"><ele>13.0</ele><time>2026-04-12T05:49:11Z</time></trkpt><trkpt lat="43.58742557946188" lon="6.9251617822194165"><ele>13.0</ele><time>2026-04-12T05:49:12Z</time></trkpt><trkpt lat="43.587502705816675" lon="6.925163439134132"><ele>12.999999999999998</ele><time>2026-04-12T05:49:13Z</time></trkpt><trkpt lat="43.587581509656076" lon="6.925144196892161"><ele>13.0</ele><time>2026-04-12T05:49:14Z</time></trkpt><trkpt lat="43.58764590219109" lon="6.92507060964345"><ele>13.0</ele><time>2026-04-12T05:49:15Z</time></trkpt><trkpt lat="43.5876982402149" lon="6.924996589039112"><ele>13.0</ele><time>2026-04-12T05:49:16Z</time></trkpt><trkpt lat="43.58773842961319" lon="6.924911157697112"><ele>12.999999999999998</ele><time>2026-04-12T05:49:17Z</time></trkpt><trkpt lat="43.587779679218805" lon="6.924829109395393"><ele>13.0</ele><time>2026-04-12T05:49:18Z</time></trkpt><trkpt lat="43.58781669169634" lon="6.924741625701392"><ele>12.857142857142856</ele><time>2026-04-12T05:49:19Z</time></trkpt><trkpt lat="43.58784961319348" lon="6.924652127840993"><ele>12.714285714285715</ele><time>2026-04-12T05:49:20Z</time></trkpt><trkpt lat="43.587875766314966" lon="6.924558287493051"><ele>12.571428571428571</ele><time>2026-04-12T05:49:21Z</time></trkpt><trkpt lat="43.587889911409604" lon="6.9244596877662365"><ele>12.428571428571427</ele><time>2026-04-12T05:49:22Z</time></trkpt><trkpt lat="43.587893390149176" lon="6.924359162392782"><ele>12.285714285714285</ele><time>2026-04-12T05:49:23Z</time></trkpt><trkpt lat="43.58789244132143" lon="6.924258799640313"><ele>12.142857142857142</ele><time>2026-04-12T05:49:24Z</time></trkpt><trkpt lat="43.58789438435566" lon="6.92415781120294"><ele>12.0</ele><time>2026-04-12T05:49:25Z</time></trkpt><trkpt lat="43.58789655870309" lon="6.924055155394633"><ele>12.285714285714285</ele><time>2026-04-12T05:49:26Z</time></trkpt><trkpt lat="43.58789859467085" lon="6.923953926522236"><ele>12.571428571428571</ele><time>2026-04-12T05:49:27Z</time></trkpt><trkpt lat="43.58789670444989" lon="6.9238538078475065"><ele>12.857142857142858</ele><time>2026-04-12T05:49:28Z</time></trkpt><trkpt lat="43.58789681048538" lon="6.923754593624392"><ele>13.142857142857142</ele><time>2026-04-12T05:49:29Z</time></trkpt><trkpt lat="43.58789703191616" lon="6.9236551804067465"><ele>13.428571428571429</ele><time>2026-04-12T05:49:30Z</time></trkpt><trkpt lat="43.58790161348482" lon="6.923553876832858"><ele>13.714285714285714</ele><time>2026-04-12T05:49:31Z</time></trkpt><trkpt lat="43.587909822657394" lon="6.923451541756562"><ele>14.0</ele><time>2026-04-12T05:49:32Z</time></trkpt><trkpt lat="43.587915635054415" lon="6.923350716521433"><ele>14.0</ele><time>2026-04-12T05:49:33Z</time></trkpt><trkpt lat="43.58791409459471" lon="6.92325113821902"><ele>14.0</ele><time>2026-04-12T05:49:34Z</time></trkpt><trkpt lat="43.587904733894995" lon="6.923154439612547"><ele>14.0</ele><time>2026-04-12T05:49:35Z</time></trkpt><trkpt lat="43.587888155927864" lon="6.923057366009123"><ele>14.0</ele><time>2026-04-12T05:49:36Z</time></trkpt><trkpt lat="43.587886409135926" lon="6.922956048252317"><ele>14.0</ele><time>2026-04-12T05:49:37Z</time></trkpt><trkpt lat="43.58786724758478" lon="6.922859634866654"><ele>14.0</ele><time>2026-04-12T05:49:38Z</time></trkpt><trkpt lat="43.58784875523407" lon="6.922766090388649"><ele>14.0</ele><time>2026-04-12T05:49:39Z</time></trkpt><trkpt lat="43.58782761176494" lon="6.922674495860155"><ele>17.799999999999997</ele><time>2026-04-12T05:49:40Z</time></trkpt><trkpt lat="43.587803578908435" lon="6.922587853696724"><ele>21.599999999999998</ele><time>2026-04-12T05:49:41Z</time></trkpt><trkpt lat="43.58777749798283" lon="6.922507294281322"><ele>25.4</ele><time>2026-04-12T05:49:42Z</time></trkpt><trkpt lat="43.587725345460356" lon="6.9223528266557475"><ele>29.2</ele><time>2026-04-12T05:49:44Z</time></trkpt><trkpt lat="43.58767790842902" lon="6.922212332779248"><ele>33.0</ele><time>2026-04-12T05:49:46Z</time></trkpt><trkpt lat="43.58765915229145" lon="6.922071708838255"><ele>33.0</ele><time>2026-04-12T05:49:48Z</time></trkpt><trkpt lat="43.58768760274856" lon="6.9219413130983005"><ele>33.0</ele><time>2026-04-12T05:49:50Z</time></trkpt><trkpt lat="43.587711361524335" lon="6.92183874556517"><ele>33.0</ele><time>2026-04-12T05:49:52Z</time></trkpt><trkpt lat="43.58773787594369" lon="6.92173394966529"><ele>33.0</ele><time>2026-04-12T05:49:54Z</time></trkpt><trkpt lat="43.58772989327393" lon="6.9216211398324825"><ele>33.0</ele><time>2026-04-12T05:49:56Z</time></trkpt><trkpt lat="43.587706792703386" lon="6.921512938059003"><ele>33.0</ele><time>2026-04-12T05:49:58Z</time></trkpt><trkpt lat="43.58770049579509" lon="6.921406793032526"><ele>33.0</ele><time>2026-04-12T05:50:00Z</time></trkpt><trkpt lat="43.58769114646558" lon="6.921303491130142"><ele>33.0</ele><time>2026-04-12T05:50:02Z</time></trkpt><trkpt lat="43.58768478353967" lon="6.921206485285088"><ele>33.0</ele><time>2026-04-12T05:50:04Z</time></trkpt><trkpt lat="43.5876747808314" lon="6.921108636941831"><ele>33.0</ele><time>2026-04-12T05:50:06Z</time></trkpt><trkpt lat="43.5876765736037" lon="6.921013200021117"><ele>33.0</ele><time>2026-04-12T05:50:08Z</time></trkpt><trkpt lat="43.58767836436281" lon="6.920916750287562"><ele>33.0</ele><time>2026-04-12T05:50:10Z</time></trkpt><trkpt lat="43.58771072713433" lon="6.920823409420199"><ele>33.0</ele><time>2026-04-12T05:50:12Z</time></trkpt><trkpt lat="43.587776386401934" lon="6.920771808022007"><ele>31.71428571428571</ele><time>2026-04-12T05:50:14Z</time></trkpt><trkpt lat="43.587849937809146" lon="6.920766697123795"><ele>30.42857142857143</ele><time>2026-04-12T05:50:16Z</time></trkpt><trkpt lat="43.58791973808654" lon="6.920794131047195"><ele>29.142857142857142</ele><time>2026-04-12T05:50:18Z</time></trkpt><trkpt lat="43.587993288825196" lon="6.920818282988874"><ele>27.857142857142854</ele><time>2026-04-12T05:50:20Z</time></trkpt><trkpt lat="43.58806576795668" lon="6.920812662077594"><ele>26.57142857142857</ele><time>2026-04-12T05:50:22Z</time></trkpt><trkpt lat="43.58812608529397" lon="6.9207609337017395"><ele>25.285714285714285</ele><time>2026-04-12T05:50:24Z</time></trkpt><trkpt lat="43.58816467913564" lon="6.920681286133746"><ele>24.0</ele><time>2026-04-12T05:50:26Z</time></trkpt><trkpt lat="43.58818403984203" lon="6.920587077026276"><ele>23.999999999999996</ele><time>2026-04-12T05:50:28Z</time></trkpt><trkpt lat="43.588188711608986" lon="6.920487841081901"><ele>24.0</ele><time>2026-04-12T05:50:30Z</time></trkpt><trkpt lat="43.58819345921219" lon="6.920390701709155"><ele>24.0</ele><time>2026-04-12T05:50:32Z</time></trkpt><trkpt lat="43.58820778702069" lon="6.92029788529305"><ele>24.0</ele><time>2026-04-12T05:50:34Z</time></trkpt><trkpt lat="43.58823012244304" lon="6.920210551881447"><ele>24.0</ele><time>2026-04-12T05:50:36Z</time></trkpt><trkpt lat="43.58825516508332" lon="6.920125159847123"><ele>23.999999999999996</ele><time>2026-04-12T05:50:38Z</time></trkpt><trkpt lat="43.58828243052781" lon="6.920043359688783"><ele>24.0</ele><time>2026-04-12T05:50:40Z</time></trkpt><trkpt lat="43.588310743798765" lon="6.919961960070098"><ele>25.285714285714285</ele><time>2026-04-12T05:50:42Z</time></trkpt><trkpt lat="43.588336749444785" lon="6.919879419679458"><ele>26.57142857142857</ele><time>2026-04-12T05:50:44Z</time></trkpt><trkpt lat="43.58836129613306" lon="6.919796268802184"><ele>27.857142857142854</ele><time>2026-04-12T05:50:46Z</time></trkpt><trkpt lat="43.58835864789658" lon="6.919701743069185"><ele>29.142857142857142</ele><time>2026-04-12T05:50:48Z</time></trkpt><trkpt lat="43.58833719427749" lon="6.9196105099496945"><ele>30.42857142857143</ele><time>2026-04-12T05:50:50Z</time></trkpt><trkpt lat="43.58829662784106" lon="6.919523571575912"><ele>31.71428571428571</ele><time>2026-04-12T05:50:52Z</time></trkpt><trkpt lat="43.58824994577667" lon="6.919455190016991"><ele>33.0</ele><time>2026-04-12T05:50:54Z</time></trkpt><trkpt lat="43.588199005510916" lon="6.919383458074895"><ele>33.0</ele><time>2026-04-12T05:50:56Z</time></trkpt><trkpt lat="43.588154083651595" lon="6.919308964460709"><ele>33.0</ele><time>2026-04-12T05:50:58Z</time></trkpt><trkpt lat="43.58811583812406" lon="6.919231895046123"><ele>33.0</ele><time>2026-04-12T05:51:00Z</time></trkpt><trkpt lat="43.58808541857785" lon="6.919145583935027"><ele>33.0</ele><time>2026-04-12T05:51:02Z</time></trkpt><trkpt lat="43.58806415815548" lon="6.919058339157587"><ele>33.0</ele><time>2026-04-12T05:51:04Z</time></trkpt><trkpt lat="43.58802426294016" lon="6.918942124496298"><ele>33.0</ele><time>2026-04-12T05:51:07Z</time></trkpt><trkpt lat="43.587958243582" lon="6.918847357132517"><ele>32.857142857142854</ele><time>2026-04-12T05:51:10Z</time></trkpt><trkpt lat="43.58790898308659" lon="6.918785471502918"><ele>32.714285714285715</ele><time>2026-04-12T05:51:12Z</time></trkpt><trkpt lat="43.58786169402996" lon="6.918722086716856"><ele>32.57142857142857</ele><time>2026-04-12T05:51:14Z</time></trkpt><trkpt lat="43.58781242020115" lon="6.918662368161514"><ele>32.42857142857143</ele><time>2026-04-12T05:51:16Z</time></trkpt><trkpt lat="43.58776459087365" lon="6.918599874253996"><ele>32.285714285714285</ele><time>2026-04-12T05:51:18Z</time></trkpt><trkpt lat="43.5877192539273" lon="6.918534448585321"><ele>32.14285714285714</ele><time>2026-04-12T05:51:20Z</time></trkpt><trkpt lat="43.58766929921255" lon="6.918474014728875"><ele>32.0</ele><time>2026-04-12T05:51:22Z</time></trkpt><trkpt lat="43.587620455261664" lon="6.918404529422634"><ele>35.714285714285715</ele><time>2026-04-12T05:51:24Z</time></trkpt><trkpt lat="43.58757978923621" lon="6.918322344517247"><ele>39.42857142857143</ele><time>2026-04-12T05:51:26Z</time></trkpt><trkpt lat="43.58754665862701" lon="6.9182308078455765"><ele>43.142857142857146</ele><time>2026-04-12T05:51:28Z</time></trkpt><trkpt lat="43.58751337651663" lon="6.918141493598198"><ele>46.85714285714286</ele><time>2026-04-12T05:51:30Z</time></trkpt><trkpt lat="43.587487078874" lon="6.918058730206413"><ele>50.57142857142857</ele><time>2026-04-12T05:51:32Z</time></trkpt><trkpt lat="43.5874797775717" lon="6.917969810605571"><ele>54.28571428571429</ele><time>2026-04-12T05:51:34Z</time></trkpt><trkpt lat="43.587539534962765" lon="6.917887885702457"><ele>58.00000000000001</ele><time>2026-04-12T05:51:37Z</time></trkpt><trkpt lat="43.587633791882766" lon="6.917902417991095"><ele>57.99999999999999</ele><time>2026-04-12T05:51:40Z</time></trkpt><trkpt lat="43.587720158190365" lon="6.917951144435426"><ele>58.0</ele><time>2026-04-12T05:51:43Z</time></trkpt><trkpt lat="43.58780183643135" lon="6.9179989544371585"><ele>58.0</ele><time>2026-04-12T05:51:46Z</time></trkpt><trkpt lat="43.58786379653488" lon="6.918030552264013"><ele>58.0</ele><time>2026-04-12T05:51:49Z</time></trkpt><trkpt lat="43.587945293289614" lon="6.918075929709325"><ele>57.99999999999999</ele><time>2026-04-12T05:51:52Z</time></trkpt><trkpt lat="43.588029930289686" lon="6.9181337011710164"><ele>58.0</ele><time>2026-04-12T05:51:55Z</time></trkpt><trkpt lat="43.58812082353873" lon="6.91819841436352"><ele>55.33333333333333</ele><time>2026-04-12T05:51:57Z</time></trkpt><trkpt lat="43.58820159714296" lon="6.918242323370325"><ele>52.666666666666664</ele><time>2026-04-12T05:52:00Z</time></trkpt><trkpt lat="43.588262056213345" lon="6.91827023563367"><ele>50.0</ele><time>2026-04-12T05:52:02Z</time></trkpt><trkpt lat="43.588342824959085" lon="6.918249282452611"><ele>47.33333333333333</ele><time>2026-04-12T05:52:05Z</time></trkpt><trkpt lat="43.58842191136401" lon="6.918194186224819"><ele>44.666666666666664</ele><time>2026-04-12T05:52:08Z</time></trkpt><trkpt lat="43.588479205077235" lon="6.918107312231749"><ele>42.0</ele><time>2026-04-12T05:52:11Z</time></trkpt><trkpt lat="43.588523199804946" lon="6.918003940499303"><ele>42.0</ele><time>2026-04-12T05:52:14Z</time></trkpt><trkpt lat="43.58856308677344" lon="6.917905645414322"><ele>42.0</ele><time>2026-04-12T05:52:17Z</time></trkpt><trkpt lat="43.588588731156804" lon="6.91780444469507"><ele>42.0</ele><time>2026-04-12T05:52:20Z</time></trkpt><trkpt lat="43.588608690721784" lon="6.917698608102187"><ele>42.0</ele><time>2026-04-12T05:52:23Z</time></trkpt><trkpt lat="43.58864928234738" lon="6.917588878247634"><ele>42.0</ele><time>2026-04-12T05:52:27Z</time></trkpt><trkpt lat="43.58869455634855" lon="6.917511854541739"><ele>42.0</ele><time>2026-04-12T05:52:29Z</time></trkpt><trkpt lat="43.58876531810738" lon="6.917472230098987"><ele>43.0</ele><time>2026-04-12T05:52:32Z</time></trkpt><trkpt lat="43.5888402254038" lon="6.917455320839449"><ele>44.0</ele><time>2026-04-12T05:52:35Z</time></trkpt><trkpt lat="43.58891399928107" lon="6.917458380980708"><ele>45.0</ele><time>2026-04-12T05:52:38Z</time></trkpt><trkpt lat="43.588985879607236" lon="6.9174790055618365"><ele>46.0</ele><time>2026-04-12T05:52:41Z</time></trkpt><trkpt lat="43.58903958470044" lon="6.917539911390527"><ele>47.0</ele><time>2026-04-12T05:52:44Z</time></trkpt><trkpt lat="43.5890596653834" lon="6.917637439907533"><ele>48.0</ele><time>2026-04-12T05:52:47Z</time></trkpt><trkpt lat="43.58907317241447" lon="6.917736182153865"><ele>49.0</ele><time>2026-04-12T05:52:50Z</time></trkpt><trkpt lat="43.5890952386445" lon="6.917834520589915"><ele>49.0</ele><time>2026-04-12T05:52:53Z</time></trkpt><trkpt lat="43.58912833527467" lon="6.917921980223579"><ele>49.0</ele><time>2026-04-12T05:52:56Z</time></trkpt><trkpt lat="43.589169474104956" lon="6.918000620442535"><ele>49.0</ele><time>2026-04-12T05:52:59Z</time></trkpt><trkpt lat="43.5892221410604" lon="6.91808167859039"><ele>49.0</ele><time>2026-04-12T05:53:02Z</time></trkpt><trkpt lat="43.58928553811304" lon="6.918142683288525"><ele>49.0</ele><time>2026-04-12T05:53:05Z</time></trkpt><trkpt lat="43.5893546881004" lon="6.918167144097089"><ele>49.0</ele><time>2026-04-12T05:53:08Z</time></trkpt><trkpt lat="43.58942885737759" lon="6.918151084002355"><ele>49.0</ele><time>2026-04-12T05:53:11Z</time></trkpt><trkpt lat="43.58949612550052" lon="6.918098772748081"><ele>48.49999999999999</ele><time>2026-04-12T05:53:14Z</time></trkpt><trkpt lat="43.5895659023662" lon="6.918029831711924"><ele>48.0</ele><time>2026-04-12T05:53:17Z</time></trkpt><trkpt lat="43.58963297917685" lon="6.917976066610651"><ele>47.5</ele><time>2026-04-12T05:53:20Z</time></trkpt><trkpt lat="43.58969514681627" lon="6.917894708760364"><ele>47.0</ele><time>2026-04-12T05:53:23Z</time></trkpt><trkpt lat="43.58974215280645" lon="6.917808926393719"><ele>46.5</ele><time>2026-04-12T05:53:26Z</time></trkpt><trkpt lat="43.58975810028608" lon="6.917700508457615"><ele>46.0</ele><time>2026-04-12T05:53:29Z</time></trkpt><trkpt lat="43.58973137941795" lon="6.917597446202762"><ele>46.0</ele><time>2026-04-12T05:53:32Z</time></trkpt><trkpt lat="43.58966523058952" lon="6.917545819379192"><ele>46.0</ele><time>2026-04-12T05:53:35Z</time></trkpt><trkpt lat="43.589586202746794" lon="6.917559012387912"><ele>46.0</ele><time>2026-04-12T05:53:38Z</time></trkpt><trkpt lat="43.58951753888463" lon="6.91761046309923"><ele>46.0</ele><time>2026-04-12T05:53:41Z</time></trkpt><trkpt lat="43.58944621915597" lon="6.917638738141861"><ele>46.0</ele><time>2026-04-12T05:53:44Z</time></trkpt><trkpt lat="43.58937357505854" lon="6.9176131423374825"><ele>46.0</ele><time>2026-04-12T05:53:47Z</time></trkpt><trkpt lat="43.58932687096096" lon="6.917531557944328"><ele>49.142857142857146</ele><time>2026-04-12T05:53:50Z</time></trkpt><trkpt lat="43.58930478270133" lon="6.917431354814092"><ele>52.28571428571428</ele><time>2026-04-12T05:53:53Z</time></trkpt><trkpt lat="43.58928586648681" lon="6.917329816290126"><ele>55.42857142857142</ele><time>2026-04-12T05:53:56Z</time></trkpt><trkpt lat="43.58926516521263" lon="6.917229568174495"><ele>58.57142857142857</ele><time>2026-04-12T05:53:59Z</time></trkpt><trkpt lat="43.589240406337524" lon="6.917135636491477"><ele>61.71428571428571</ele><time>2026-04-12T05:54:02Z</time></trkpt><trkpt lat="43.58921478865748" lon="6.917052625011868"><ele>64.85714285714285</ele><time>2026-04-12T05:54:05Z</time></trkpt><trkpt lat="43.58917894278289" lon="6.916972951141803"><ele>68.0</ele><time>2026-04-12T05:54:08Z</time></trkpt><trkpt lat="43.589130278813094" lon="6.916905277441629"><ele>67.99999999999999</ele><time>2026-04-12T05:54:11Z</time></trkpt><trkpt lat="43.589068105315796" lon="6.916859229253939"><ele>68.0</ele><time>2026-04-12T05:54:14Z</time></trkpt><trkpt lat="43.58900040240569" lon="6.916834225431959"><ele>68.0</ele><time>2026-04-12T05:54:17Z</time></trkpt><trkpt lat="43.58893099871382" lon="6.916807466740907"><ele>68.0</ele><time>2026-04-12T05:54:21Z</time></trkpt><trkpt lat="43.588871138913184" lon="6.91675801569534"><ele>68.0</ele><time>2026-04-12T05:54:24Z</time></trkpt><trkpt lat="43.588825661762" lon="6.916681127281399"><ele>67.99999999999999</ele><time>2026-04-12T05:54:27Z</time></trkpt><trkpt lat="43.58878699254799" lon="6.916600900378083"><ele>68.0</ele><time>2026-04-12T05:54:30Z</time></trkpt><trkpt lat="43.588735579482695" lon="6.916514909207736"><ele>70.85714285714285</ele><time>2026-04-12T05:54:34Z</time></trkpt><trkpt lat="43.58867373363705" lon="6.916444619479474"><ele>73.71428571428571</ele><time>2026-04-12T05:54:38Z</time></trkpt><trkpt lat="43.58862395587318" lon="6.916388328159895"><ele>76.57142857142857</ele><time>2026-04-12T05:54:41Z</time></trkpt><trkpt lat="43.58856400696979" lon="6.916346228388575"><ele>79.42857142857142</ele><time>2026-04-12T05:54:44Z</time></trkpt><trkpt lat="43.58849985168507" lon="6.916338074525452"><ele>82.28571428571428</ele><time>2026-04-12T05:54:46Z</time></trkpt><trkpt lat="43.58844533853719" lon="6.916396899698948"><ele>85.14285714285714</ele><time>2026-04-12T05:54:49Z</time></trkpt><trkpt lat="43.588406401908294" lon="6.9164845310017995"><ele>88.0</ele><time>2026-04-12T05:54:53Z</time></trkpt><trkpt lat="43.58837450808594" lon="6.916577775285487"><ele>88.0</ele><time>2026-04-12T05:54:56Z</time></trkpt><trkpt lat="43.58833841925001" lon="6.916680223529599"><ele>88.0</ele><time>2026-04-12T05:54:59Z</time></trkpt><trkpt lat="43.58831500750426" lon="6.916774805110222"><ele>88.0</ele><time>2026-04-12T05:55:02Z</time></trkpt><trkpt lat="43.58827383503987" lon="6.916858666704276"><ele>88.0</ele><time>2026-04-12T05:55:05Z</time></trkpt><trkpt lat="43.588214885612665" lon="6.916915566831444"><ele>88.0</ele><time>2026-04-12T05:55:08Z</time></trkpt><trkpt lat="43.588145124147935" lon="6.916935213086444"><ele>88.0</ele><time>2026-04-12T05:55:11Z</time></trkpt><trkpt lat="43.58807289483815" lon="6.916935984214842"><ele>88.0</ele><time>2026-04-12T05:55:14Z</time></trkpt><trkpt lat="43.5879989405252" lon="6.91692208471728"><ele>87.28571428571429</ele><time>2026-04-12T05:55:17Z</time></trkpt><trkpt lat="43.58793303497909" lon="6.9169140177029504"><ele>86.57142857142857</ele><time>2026-04-12T05:55:20Z</time></trkpt><trkpt lat="43.587848179043604" lon="6.916897049930953"><ele>85.85714285714286</ele><time>2026-04-12T05:55:24Z</time></trkpt><trkpt lat="43.587786215831436" lon="6.916871080160262"><ele>85.14285714285714</ele><time>2026-04-12T05:55:26Z</time></trkpt><trkpt lat="43.58773764088477" lon="6.916804828070785"><ele>84.42857142857143</ele><time>2026-04-12T05:55:29Z</time></trkpt><trkpt lat="43.58772943164341" lon="6.916714471229636"><ele>83.71428571428571</ele><time>2026-04-12T05:55:32Z</time></trkpt><trkpt lat="43.587764341304585" lon="6.916636746690149"><ele>83.0</ele><time>2026-04-12T05:55:35Z</time></trkpt><trkpt lat="43.58783063199577" lon="6.916618481827684"><ele>83.71428571428571</ele><time>2026-04-12T05:55:38Z</time></trkpt><trkpt lat="43.58789387937786" lon="6.916646528418684"><ele>84.42857142857143</ele><time>2026-04-12T05:55:41Z</time></trkpt><trkpt lat="43.58795905874654" lon="6.916688055786497"><ele>85.14285714285714</ele><time>2026-04-12T05:55:44Z</time></trkpt><trkpt lat="43.58802107135394" lon="6.916708887545152"><ele>85.85714285714286</ele><time>2026-04-12T05:55:47Z</time></trkpt><trkpt lat="43.58808918857565" lon="6.916696143937391"><ele>86.57142857142857</ele><time>2026-04-12T05:55:50Z</time></trkpt><trkpt lat="43.58814556989338" lon="6.916639136406472"><ele>87.28571428571429</ele><time>2026-04-12T05:55:53Z</time></trkpt><trkpt lat="43.5881810419536" lon="6.916555830409404"><ele>88.0</ele><time>2026-04-12T05:55:56Z</time></trkpt><trkpt lat="43.588206124752304" lon="6.916453573072964"><ele>88.0</ele><time>2026-04-12T05:55:58Z</time></trkpt><trkpt lat="43.58822499376033" lon="6.916356008463135"><ele>88.0</ele><time>2026-04-12T05:56:01Z</time></trkpt><trkpt lat="43.588251419488195" lon="6.916257676187361"><ele>88.0</ele><time>2026-04-12T05:56:04Z</time></trkpt><trkpt lat="43.588293762989075" lon="6.916165827709376"><ele>88.0</ele><time>2026-04-12T05:56:07Z</time></trkpt><trkpt lat="43.588332331284036" lon="6.91607445296554"><ele>88.0</ele><time>2026-04-12T05:56:10Z</time></trkpt><trkpt lat="43.58837694071438" lon="6.915987628600541"><ele>88.0</ele><time>2026-04-12T05:56:13Z</time></trkpt><trkpt lat="43.58842864042601" lon="6.915911411095402"><ele>87.42857142857143</ele><time>2026-04-12T05:56:16Z</time></trkpt><trkpt lat="43.58849448303902" lon="6.91585588259661"><ele>86.85714285714286</ele><time>2026-04-12T05:56:19Z</time></trkpt><trkpt lat="43.58856867146892" lon="6.915828582362319"><ele>86.28571428571428</ele><time>2026-04-12T05:56:22Z</time></trkpt><trkpt lat="43.58863961161482" lon="6.9158583846162545"><ele>85.71428571428572</ele><time>2026-04-12T05:56:25Z</time></trkpt><trkpt lat="43.58870228688649" lon="6.915902957381466"><ele>85.14285714285714</ele><time>2026-04-12T05:56:28Z</time></trkpt><trkpt lat="43.58876240879814" lon="6.915953473686436"><ele>84.57142857142857</ele><time>2026-04-12T05:56:31Z</time></trkpt><trkpt lat="43.58882482802658" lon="6.915995869471434"><ele>84.0</ele><time>2026-04-12T05:56:34Z</time></trkpt><trkpt lat="43.5888907018496" lon="6.916034236902291"><ele>84.0</ele><time>2026-04-12T05:56:37Z</time></trkpt><trkpt lat="43.58896071496576" lon="6.916077178390706"><ele>84.0</ele><time>2026-04-12T05:56:40Z</time></trkpt><trkpt lat="43.58903413375977" lon="6.916105631843623"><ele>84.0</ele><time>2026-04-12T05:56:43Z</time></trkpt><trkpt lat="43.58910267181125" lon="6.916099238940578"><ele>84.0</ele><time>2026-04-12T05:56:46Z</time></trkpt><trkpt lat="43.58917151886249" lon="6.9160623281270075"><ele>84.0</ele><time>2026-04-12T05:56:49Z</time></trkpt><trkpt lat="43.58921027796724" lon="6.91597494875273"><ele>84.0</ele><time>2026-04-12T05:56:52Z</time></trkpt><trkpt lat="43.589207331248616" lon="6.915877168372414"><ele>84.0</ele><time>2026-04-12T05:56:55Z</time></trkpt><trkpt lat="43.5891731320718" lon="6.915787213350557"><ele>85.85714285714286</ele><time>2026-04-12T05:56:58Z</time></trkpt><trkpt lat="43.58912746919995" lon="6.915709452164368"><ele>87.71428571428572</ele><time>2026-04-12T05:57:01Z</time></trkpt><trkpt lat="43.58907329530019" lon="6.915643028826258"><ele>89.57142857142857</ele><time>2026-04-12T05:57:04Z</time></trkpt><trkpt lat="43.58901852113353" lon="6.9155756778043225"><ele>91.42857142857143</ele><time>2026-04-12T05:57:07Z</time></trkpt><trkpt lat="43.5889646946208" lon="6.915503762199114"><ele>93.28571428571429</ele><time>2026-04-12T05:57:10Z</time></trkpt><trkpt lat="43.588910815159615" lon="6.9154367809987125"><ele>95.14285714285714</ele><time>2026-04-12T05:57:13Z</time></trkpt><trkpt lat="43.58885458870258" lon="6.915372297580632"><ele>97.0</ele><time>2026-04-12T05:57:16Z</time></trkpt><trkpt lat="43.58879134345317" lon="6.915310788589787"><ele>97.0</ele><time>2026-04-12T05:57:19Z</time></trkpt><trkpt lat="43.58873249895757" lon="6.915249380745107"><ele>97.0</ele><time>2026-04-12T05:57:22Z</time></trkpt><trkpt lat="43.58867508298909" lon="6.915177588972236"><ele>97.0</ele><time>2026-04-12T05:57:25Z</time></trkpt><trkpt lat="43.588637776777055" lon="6.915086631224323"><ele>97.0</ele><time>2026-04-12T05:57:28Z</time></trkpt><trkpt lat="43.588617711263566" lon="6.914988917212942"><ele>97.0</ele><time>2026-04-12T05:57:31Z</time></trkpt><trkpt lat="43.588607547041626" lon="6.91489000488349"><ele>97.0</ele><time>2026-04-12T05:57:34Z</time></trkpt><trkpt lat="43.588581505716554" lon="6.914798385910605"><ele>97.0</ele><time>2026-04-12T05:57:37Z</time></trkpt><trkpt lat="43.58853847580669" lon="6.914721757030771"><ele>98.57142857142857</ele><time>2026-04-12T05:57:40Z</time></trkpt><trkpt lat="43.58847416650735" lon="6.914687689883107"><ele>100.14285714285715</ele><time>2026-04-12T05:57:43Z</time></trkpt><trkpt lat="43.58840775482526" lon="6.9147137333101805"><ele>101.71428571428572</ele><time>2026-04-12T05:57:46Z</time></trkpt><trkpt lat="43.588356137039376" lon="6.914783269528486"><ele>103.28571428571428</ele><time>2026-04-12T05:57:49Z</time></trkpt><trkpt lat="43.58832749348717" lon="6.914874240080994"><ele>104.85714285714286</ele><time>2026-04-12T05:57:52Z</time></trkpt><trkpt lat="43.58832459441891" lon="6.91497357781902"><ele>106.42857142857143</ele><time>2026-04-12T05:57:55Z</time></trkpt><trkpt lat="43.58832518609216" lon="6.915080993914831"><ele>108.0</ele><time>2026-04-12T05:57:58Z</time></trkpt><trkpt lat="43.58832091740379" lon="6.9151870076861695"><ele>108.0</ele><time>2026-04-12T05:58:01Z</time></trkpt><trkpt lat="43.588281952296605" lon="6.915298407475036"><ele>108.0</ele><time>2026-04-12T05:58:04Z</time></trkpt><trkpt lat="43.58822629230776" lon="6.915367112295566"><ele>108.0</ele><time>2026-04-12T05:58:07Z</time></trkpt><trkpt lat="43.58815840838295" lon="6.915410537980163"><ele>108.0</ele><time>2026-04-12T05:58:10Z</time></trkpt><trkpt lat="43.588086323860686" lon="6.915430678311627"><ele>108.0</ele><time>2026-04-12T05:58:13Z</time></trkpt><trkpt lat="43.58801324626786" lon="6.915434894556094"><ele>108.0</ele><time>2026-04-12T05:58:16Z</time></trkpt><trkpt lat="43.5879395746659" lon="6.915438262666528"><ele>108.0</ele><time>2026-04-12T05:58:19Z</time></trkpt><trkpt lat="43.58786655609812" lon="6.915443874103229"><ele>108.0</ele><time>2026-04-12T05:58:22Z</time></trkpt><trkpt lat="43.58779479090625" lon="6.915450509389603"><ele>108.0</ele><time>2026-04-12T05:58:25Z</time></trkpt><trkpt lat="43.587715666582454" lon="6.915436385717358"><ele>108.0</ele><time>2026-04-12T05:58:29Z</time></trkpt><trkpt lat="43.58763409061592" lon="6.915387791235218"><ele>108.0</ele><time>2026-04-12T05:58:32Z</time></trkpt><trkpt lat="43.58759589474542" lon="6.91530970662242"><ele>108.0</ele><time>2026-04-12T05:58:35Z</time></trkpt><trkpt lat="43.587589716721354" lon="6.915218896995575"><ele>108.0</ele><time>2026-04-12T05:58:38Z</time></trkpt><trkpt lat="43.587619624381325" lon="6.9151144504682795"><ele>109.14285714285714</ele><time>2026-04-12T05:58:42Z</time></trkpt><trkpt lat="43.58767892055739" lon="6.915044278961416"><ele>110.28571428571428</ele><time>2026-04-12T05:58:46Z</time></trkpt><trkpt lat="43.58775062856269" lon="6.915018340934888"><ele>111.42857142857144</ele><time>2026-04-12T05:58:50Z</time></trkpt><trkpt lat="43.587818979987844" lon="6.915007724373492"><ele>112.57142857142858</ele><time>2026-04-12T05:58:54Z</time></trkpt><trkpt lat="43.58788442583002" lon="6.914992087138416"><ele>113.71428571428572</ele><time>2026-04-12T05:58:57Z</time></trkpt><trkpt lat="43.5879599212305" lon="6.914946256385775"><ele>114.85714285714288</ele><time>2026-04-12T05:59:01Z</time></trkpt><trkpt lat="43.58801847365811" lon="6.914883470711742"><ele>116.00000000000001</ele><time>2026-04-12T05:59:03Z</time></trkpt><trkpt lat="43.58805521830276" lon="6.9148055544047295"><ele>116.57142857142858</ele><time>2026-04-12T05:59:06Z</time></trkpt><trkpt lat="43.58808555496452" lon="6.914711714351199"><ele>117.14285714285714</ele><time>2026-04-12T05:59:09Z</time></trkpt><trkpt lat="43.58811298260637" lon="6.91461759318449"><ele>117.71428571428572</ele><time>2026-04-12T05:59:12Z</time></trkpt><trkpt lat="43.58814016503033" lon="6.914520802734513"><ele>118.28571428571429</ele><time>2026-04-12T05:59:15Z</time></trkpt><trkpt lat="43.588163032210794" lon="6.914420907851684"><ele>118.85714285714286</ele><time>2026-04-12T05:59:18Z</time></trkpt><trkpt lat="43.58818088008008" lon="6.9143215518423355"><ele>119.42857142857143</ele><time>2026-04-12T05:59:21Z</time></trkpt><trkpt lat="43.58819320643424" lon="6.914219665953062"><ele>120.0</ele><time>2026-04-12T05:59:24Z</time></trkpt><trkpt lat="43.588200637777064" lon="6.9141205831739905"><ele>121.14285714285714</ele><time>2026-04-12T05:59:27Z</time></trkpt><trkpt lat="43.588197667766885" lon="6.91402214515793"><ele>122.28571428571428</ele><time>2026-04-12T05:59:30Z</time></trkpt><trkpt lat="43.58820356687064" lon="6.913920453806804"><ele>123.42857142857142</ele><time>2026-04-12T05:59:33Z</time></trkpt><trkpt lat="43.58820092977448" lon="6.913818973620435"><ele>124.57142857142857</ele><time>2026-04-12T05:59:36Z</time></trkpt><trkpt lat="43.588199998137" lon="6.913718317791887"><ele>125.7142857142857</ele><time>2026-04-12T05:59:39Z</time></trkpt><trkpt lat="43.58820227640777" lon="6.913615925458547"><ele>126.85714285714285</ele><time>2026-04-12T05:59:42Z</time></trkpt><trkpt lat="43.58821009263333" lon="6.9135153602444746"><ele>128.0</ele><time>2026-04-12T05:59:45Z</time></trkpt><trkpt lat="43.58822857973187" lon="6.913410743454385"><ele>128.83333333333331</ele><time>2026-04-12T05:59:48Z</time></trkpt><trkpt lat="43.58825476078732" lon="6.913310526041622"><ele>129.66666666666666</ele><time>2026-04-12T05:59:51Z</time></trkpt><trkpt lat="43.588275312530044" lon="6.913208664787308"><ele>130.5</ele><time>2026-04-12T05:59:54Z</time></trkpt><trkpt lat="43.58827929872396" lon="6.913105192088056"><ele>131.33333333333334</ele><time>2026-04-12T05:59:57Z</time></trkpt><trkpt lat="43.58826870046362" lon="6.912999787250138"><ele>132.16666666666669</ele><time>2026-04-12T06:00:00Z</time></trkpt><trkpt lat="43.588245722796344" lon="6.912892198581066"><ele>133.0</ele><time>2026-04-12T06:00:03Z</time></trkpt><trkpt lat="43.588224951358065" lon="6.912772471564141"><ele>133.0</ele><time>2026-04-12T06:00:06Z</time></trkpt><trkpt lat="43.58820457994862" lon="6.912653538723681"><ele>133.0</ele><time>2026-04-12T06:00:09Z</time></trkpt><trkpt lat="43.588183433346856" lon="6.912538276889828"><ele>133.0</ele><time>2026-04-12T06:00:12Z</time></trkpt><trkpt lat="43.58816248064057" lon="6.912422064446858"><ele>133.0</ele><time>2026-04-12T06:00:15Z</time></trkpt><trkpt lat="43.588139541010484" lon="6.912307526049805"><ele>133.0</ele><time>2026-04-12T06:00:18Z</time></trkpt><trkpt lat="43.588114862655615" lon="6.912191950734641"><ele>133.0</ele><time>2026-04-12T06:00:21Z</time></trkpt><trkpt lat="43.588092064742334" lon="6.91207661098502"><ele>132.83333333333334</ele><time>2026-04-12T06:00:24Z</time></trkpt><trkpt lat="43.58807825345489" lon="6.911959276079175"><ele>132.66666666666669</ele><time>2026-04-12T06:00:27Z</time></trkpt><trkpt lat="43.58806223106775" lon="6.911845601937888"><ele>132.5</ele><time>2026-04-12T06:00:30Z</time></trkpt><trkpt lat="43.58805321519276" lon="6.911731823868852"><ele>132.33333333333334</ele><time>2026-04-12T06:00:33Z</time></trkpt><trkpt lat="43.58804756115902" lon="6.911616560709824"><ele>132.16666666666666</ele><time>2026-04-12T06:00:36Z</time></trkpt><trkpt lat="43.588039765362744" lon="6.911516180720687"><ele>132.0</ele><time>2026-04-12T06:00:39Z</time></trkpt><trkpt lat="43.588037945152934" lon="6.911416606937955"><ele>132.33333333333334</ele><time>2026-04-12T06:00:42Z</time></trkpt><trkpt lat="43.5880367433941" lon="6.911315592471263"><ele>132.66666666666666</ele><time>2026-04-12T06:00:45Z</time></trkpt><trkpt lat="43.58803241403126" lon="6.911203493250284"><ele>133.0</ele><time>2026-04-12T06:00:48Z</time></trkpt><trkpt lat="43.588027729957695" lon="6.911104295886571"><ele>133.33333333333331</ele><time>2026-04-12T06:00:51Z</time></trkpt><trkpt lat="43.58802146372542" lon="6.9109991719004995"><ele>133.66666666666666</ele><time>2026-04-12T06:00:54Z</time></trkpt><trkpt lat="43.58801755112976" lon="6.910882544738152"><ele>134.0</ele><time>2026-04-12T06:00:56Z</time></trkpt><trkpt lat="43.58801080125056" lon="6.91077211255349"><ele>135.66666666666666</ele><time>2026-04-12T06:00:59Z</time></trkpt><trkpt lat="43.58800265793278" lon="6.910650816915437"><ele>137.33333333333331</ele><time>2026-04-12T06:01:02Z</time></trkpt><trkpt lat="43.58800083612739" lon="6.910556839342199"><ele>139.0</ele><time>2026-04-12T06:01:05Z</time></trkpt><trkpt lat="43.58799878470899" lon="6.9104515163418005"><ele>140.66666666666666</ele><time>2026-04-12T06:01:08Z</time></trkpt><trkpt lat="43.587996354218824" lon="6.91035245489828"><ele>142.33333333333334</ele><time>2026-04-12T06:01:10Z</time></trkpt><trkpt lat="43.5880007811976" lon="6.9102331624384705"><ele>144.0</ele><time>2026-04-12T06:01:13Z</time></trkpt><trkpt lat="43.58803260509736" lon="6.910134020035225"><ele>144.0</ele><time>2026-04-12T06:01:16Z</time></trkpt><trkpt lat="43.58808642214997" lon="6.910063095556323"><ele>144.0</ele><time>2026-04-12T06:01:19Z</time></trkpt><trkpt lat="43.588158270671826" lon="6.91002300615258"><ele>144.0</ele><time>2026-04-12T06:01:22Z</time></trkpt><trkpt lat="43.588236106958554" lon="6.910018402559947"><ele>144.0</ele><time>2026-04-12T06:01:25Z</time></trkpt><trkpt lat="43.58831215764361" lon="6.910040224048133"><ele>144.0</ele><time>2026-04-12T06:01:28Z</time></trkpt><trkpt lat="43.58838837065726" lon="6.910076194834995"><ele>144.0</ele><time>2026-04-12T06:01:31Z</time></trkpt><trkpt lat="43.58846230267323" lon="6.910111376030755"><ele>144.0</ele><time>2026-04-12T06:01:34Z</time></trkpt><trkpt lat="43.58854122660683" lon="6.910141044519214"><ele>144.0</ele><time>2026-04-12T06:01:37Z</time></trkpt><trkpt lat="43.58862237163524" lon="6.910148619660245"><ele>144.0</ele><time>2026-04-12T06:01:40Z</time></trkpt><trkpt lat="43.58870506102662" lon="6.910153468098378"><ele>144.0</ele><time>2026-04-12T06:01:43Z</time></trkpt><trkpt lat="43.58879054073382" lon="6.9101694234384485"><ele>144.0</ele><time>2026-04-12T06:01:46Z</time></trkpt><trkpt lat="43.588859547673344" lon="6.910208213676955"><ele>144.0</ele><time>2026-04-12T06:01:49Z</time></trkpt><trkpt lat="43.588935710954665" lon="6.910255917323083"><ele>144.0</ele><time>2026-04-12T06:01:52Z</time></trkpt><trkpt lat="43.58901281890284" lon="6.9103121212472685"><ele>144.0</ele><time>2026-04-12T06:01:55Z</time></trkpt><trkpt lat="43.58909743250165" lon="6.9103139725231895"><ele>144.0</ele><time>2026-04-12T06:01:58Z</time></trkpt><trkpt lat="43.58916864802871" lon="6.91024908068866"><ele>144.0</ele><time>2026-04-12T06:02:01Z</time></trkpt><trkpt lat="43.58920607572529" lon="6.910170750719413"><ele>144.0</ele><time>2026-04-12T06:02:04Z</time></trkpt><trkpt lat="43.58924290409953" lon="6.910045327968624"><ele>144.0</ele><time>2026-04-12T06:02:07Z</time></trkpt><trkpt lat="43.589274330685036" lon="6.909924741735682"><ele>147.33333333333334</ele><time>2026-04-12T06:02:10Z</time></trkpt><trkpt lat="43.58930175335459" lon="6.90980931651525"><ele>150.66666666666666</ele><time>2026-04-12T06:02:13Z</time></trkpt><trkpt lat="43.58932971843181" lon="6.909692332377047"><ele>154.0</ele><time>2026-04-12T06:02:16Z</time></trkpt><trkpt lat="43.58935768574078" lon="6.909576940169433"><ele>157.33333333333331</ele><time>2026-04-12T06:02:19Z</time></trkpt><trkpt lat="43.58937700340964" lon="6.9094582843978465"><ele>160.66666666666666</ele><time>2026-04-12T06:02:22Z</time></trkpt><trkpt lat="43.58940847908403" lon="6.909349970899367"><ele>164.0</ele><time>2026-04-12T06:02:25Z</time></trkpt><trkpt lat="43.58945800472319" lon="6.909256596185847"><ele>161.83333333333331</ele><time>2026-04-12T06:02:28Z</time></trkpt><trkpt lat="43.58950435213708" lon="6.909163891057802"><ele>159.66666666666666</ele><time>2026-04-12T06:02:31Z</time></trkpt><trkpt lat="43.589535141341905" lon="6.9090522603854465"><ele>157.5</ele><time>2026-04-12T06:02:34Z</time></trkpt><trkpt lat="43.589533438705935" lon="6.9089646112344125"><ele>155.33333333333334</ele><time>2026-04-12T06:02:37Z</time></trkpt><trkpt lat="43.5895223747147" lon="6.908850477908241"><ele>153.16666666666669</ele><time>2026-04-12T06:02:39Z</time></trkpt><trkpt lat="43.58950014029556" lon="6.908740689433891"><ele>151.0</ele><time>2026-04-12T06:02:42Z</time></trkpt><trkpt lat="43.58947158009107" lon="6.908632932178964"><ele>155.83333333333334</ele><time>2026-04-12T06:02:45Z</time></trkpt><trkpt lat="43.58943381511523" lon="6.908529137936912"><ele>160.66666666666669</ele><time>2026-04-12T06:02:48Z</time></trkpt><trkpt lat="43.589385277346274" lon="6.9084310870635495"><ele>165.5</ele><time>2026-04-12T06:02:51Z</time></trkpt><trkpt lat="43.58931976381423" lon="6.908358735738541"><ele>170.33333333333334</ele><time>2026-04-12T06:02:54Z</time></trkpt><trkpt lat="43.589242614377106" lon="6.90831283765827"><ele>175.16666666666666</ele><time>2026-04-12T06:02:57Z</time></trkpt><trkpt lat="43.58916634305611" lon="6.908254393005593"><ele>180.0</ele><time>2026-04-12T06:03:00Z</time></trkpt><trkpt lat="43.58911252235124" lon="6.908158979456725"><ele>180.16666666666666</ele><time>2026-04-12T06:03:03Z</time></trkpt><trkpt lat="43.58907515913387" lon="6.908059903264744"><ele>180.33333333333334</ele><time>2026-04-12T06:03:06Z</time></trkpt><trkpt lat="43.5890420440997" lon="6.907953457478104"><ele>180.5</ele><time>2026-04-12T06:03:09Z</time></trkpt><trkpt lat="43.589013287909886" lon="6.907850132218306"><ele>180.66666666666669</ele><time>2026-04-12T06:03:12Z</time></trkpt><trkpt lat="43.588970007036025" lon="6.907735157143264"><ele>180.83333333333334</ele><time>2026-04-12T06:03:16Z</time></trkpt><trkpt lat="43.58892535644837" lon="6.907606266154349"><ele>181.0</ele><time>2026-04-12T06:03:19Z</time></trkpt><trkpt lat="43.58888606391595" lon="6.907511572721388"><ele>180.16666666666669</ele><time>2026-04-12T06:03:22Z</time></trkpt><trkpt lat="43.58884529787757" lon="6.907409876261186"><ele>179.33333333333334</ele><time>2026-04-12T06:03:25Z</time></trkpt><trkpt lat="43.58881491977421" lon="6.907304580364648"><ele>178.5</ele><time>2026-04-12T06:03:28Z</time></trkpt><trkpt lat="43.588810639404166" lon="6.907214193323814"><ele>177.66666666666666</ele><time>2026-04-12T06:03:31Z</time></trkpt><trkpt lat="43.58880770137675" lon="6.907103146686644"><ele>176.83333333333331</ele><time>2026-04-12T06:03:34Z</time></trkpt><trkpt lat="43.58879223289186" lon="6.906982365592381"><ele>176.0</ele><time>2026-04-12T06:03:37Z</time></trkpt><trkpt lat="43.58877335421201" lon="6.906886903288516"><ele>176.0</ele><time>2026-04-12T06:03:40Z</time></trkpt><trkpt lat="43.58875082737738" lon="6.906787649315064"><ele>176.0</ele><time>2026-04-12T06:03:43Z</time></trkpt><trkpt lat="43.58872964820444" lon="6.906694890289487"><ele>176.0</ele><time>2026-04-12T06:03:45Z</time></trkpt><trkpt lat="43.58871228276698" lon="6.906594699244007"><ele>176.0</ele><time>2026-04-12T06:03:48Z</time></trkpt><trkpt lat="43.588694729853344" lon="6.906474956788771"><ele>176.0</ele><time>2026-04-12T06:03:50Z</time></trkpt><trkpt lat="43.58868295685263" lon="6.906362522632555"><ele>176.0</ele><time>2026-04-12T06:03:53Z</time></trkpt><trkpt lat="43.588675298024484" lon="6.906246937847949"><ele>177.33333333333331</ele><time>2026-04-12T06:03:56Z</time></trkpt><trkpt lat="43.58866947717931" lon="6.90613271422035"><ele>178.66666666666666</ele><time>2026-04-12T06:03:59Z</time></trkpt><trkpt lat="43.58868783011615" lon="6.906015834929318"><ele>180.0</ele><time>2026-04-12T06:04:02Z</time></trkpt><trkpt lat="43.58876847134288" lon="6.905955356180119"><ele>181.33333333333334</ele><time>2026-04-12T06:04:05Z</time></trkpt><trkpt lat="43.58885217669289" lon="6.905954497447364"><ele>182.66666666666669</ele><time>2026-04-12T06:04:08Z</time></trkpt><trkpt lat="43.58893193121637" lon="6.905993160251981"><ele>184.0</ele><time>2026-04-12T06:04:11Z</time></trkpt><trkpt lat="43.58900620723978" lon="6.906054562014004"><ele>184.0</ele><time>2026-04-12T06:04:14Z</time></trkpt><trkpt lat="43.58907504756029" lon="6.9061010294352245"><ele>184.0</ele><time>2026-04-12T06:04:17Z</time></trkpt><trkpt lat="43.58914734857281" lon="6.906119874539619"><ele>184.0</ele><time>2026-04-12T06:04:20Z</time></trkpt><trkpt lat="43.5892427505574" lon="6.906082929664424"><ele>184.0</ele><time>2026-04-12T06:04:23Z</time></trkpt><trkpt lat="43.589301670857424" lon="6.9059981968681425"><ele>184.0</ele><time>2026-04-12T06:04:26Z</time></trkpt><trkpt lat="43.589347918466764" lon="6.905904840822162"><ele>184.0</ele><time>2026-04-12T06:04:29Z</time></trkpt><trkpt lat="43.58938672623632" lon="6.905824583967197"><ele>186.66666666666669</ele><time>2026-04-12T06:04:32Z</time></trkpt><trkpt lat="43.58944359259896" lon="6.9057375718657905"><ele>189.33333333333334</ele><time>2026-04-12T06:04:35Z</time></trkpt><trkpt lat="43.58951283138601" lon="6.90567380182511"><ele>192.0</ele><time>2026-04-12T06:04:38Z</time></trkpt><trkpt lat="43.58957608658865" lon="6.905639630002435"><ele>194.66666666666669</ele><time>2026-04-12T06:04:41Z</time></trkpt><trkpt lat="43.589640906936204" lon="6.905630660206038"><ele>197.33333333333334</ele><time>2026-04-12T06:04:43Z</time></trkpt><trkpt lat="43.58971324598997" lon="6.905667940443587"><ele>200.0</ele><time>2026-04-12T06:04:46Z</time></trkpt><trkpt lat="43.589768781548166" lon="6.905730112442188"><ele>199.00000000000003</ele><time>2026-04-12T06:04:48Z</time></trkpt><trkpt lat="43.58980013329334" lon="6.90583703845486"><ele>198.0</ele><time>2026-04-12T06:04:51Z</time></trkpt><trkpt lat="43.589823205302764" lon="6.905947301555427"><ele>197.0</ele><time>2026-04-12T06:04:54Z</time></trkpt><trkpt lat="43.5898568282305" lon="6.906065100937234"><ele>196.0</ele><time>2026-04-12T06:04:58Z</time></trkpt><trkpt lat="43.589892836467705" lon="6.906175857439192"><ele>195.00000000000003</ele><time>2026-04-12T06:05:01Z</time></trkpt><trkpt lat="43.589917954247134" lon="6.906259377293887"><ele>194.0</ele><time>2026-04-12T06:05:03Z</time></trkpt><trkpt lat="43.589955417995114" lon="6.906363317291578"><ele>194.00000000000003</ele><time>2026-04-12T06:05:06Z</time></trkpt><trkpt lat="43.59000757381303" lon="6.906452661354657"><ele>194.0</ele><time>2026-04-12T06:05:09Z</time></trkpt><trkpt lat="43.59007625813439" lon="6.906519393061985"><ele>194.0</ele><time>2026-04-12T06:05:12Z</time></trkpt><trkpt lat="43.59015873559041" lon="6.906561558861984"><ele>194.0</ele><time>2026-04-12T06:05:15Z</time></trkpt><trkpt lat="43.59024328786529" lon="6.906598276085739"><ele>194.00000000000003</ele><time>2026-04-12T06:05:18Z</time></trkpt><trkpt lat="43.59032794720424" lon="6.906626759983939"><ele>194.0</ele><time>2026-04-12T06:05:21Z</time></trkpt><trkpt lat="43.59041731921822" lon="6.906632561870854"><ele>194.83333333333334</ele><time>2026-04-12T06:05:24Z</time></trkpt><trkpt lat="43.590497236414365" lon="6.906589751137468"><ele>195.66666666666669</ele><time>2026-04-12T06:05:27Z</time></trkpt><trkpt lat="43.59055347023441" lon="6.9065155444928665"><ele>196.5</ele><time>2026-04-12T06:05:30Z</time></trkpt><trkpt lat="43.59060927193674" lon="6.906426081318737"><ele>197.33333333333331</ele><time>2026-04-12T06:05:33Z</time></trkpt><trkpt lat="43.59066194212015" lon="6.906332588310186"><ele>198.16666666666666</ele><time>2026-04-12T06:05:36Z</time></trkpt><trkpt lat="43.590735099178715" lon="6.9062691129258"><ele>199.0</ele><time>2026-04-12T06:05:39Z</time></trkpt><trkpt lat="43.590798456433234" lon="6.906256221643796"><ele>198.99999999999997</ele><time>2026-04-12T06:05:41Z</time></trkpt><trkpt lat="43.5908811848691" lon="6.906282620114846"><ele>199.0</ele><time>2026-04-12T06:05:44Z</time></trkpt><trkpt lat="43.59095775633825" lon="6.906318389519309"><ele>199.0</ele><time>2026-04-12T06:05:47Z</time></trkpt><trkpt lat="43.591046457661186" lon="6.9063233276102824"><ele>199.0</ele><time>2026-04-12T06:05:50Z</time></trkpt><trkpt lat="43.591120389781764" lon="6.90628049888783"><ele>198.99999999999997</ele><time>2026-04-12T06:05:53Z</time></trkpt><trkpt lat="43.59118444469492" lon="6.90622443960048"><ele>199.0</ele><time>2026-04-12T06:05:56Z</time></trkpt><trkpt lat="43.591259969522035" lon="6.906174714184353"><ele>198.66666666666666</ele><time>2026-04-12T06:05:59Z</time></trkpt><trkpt lat="43.59132394917079" lon="6.906153232582089"><ele>198.33333333333331</ele><time>2026-04-12T06:06:01Z</time></trkpt><trkpt lat="43.59140786681686" lon="6.9061590663079535"><ele>198.0</ele><time>2026-04-12T06:06:04Z</time></trkpt><trkpt lat="43.59148940844821" lon="6.906166440695324"><ele>197.66666666666669</ele><time>2026-04-12T06:06:07Z</time></trkpt><trkpt lat="43.591564312215084" lon="6.90615626164931"><ele>197.33333333333334</ele><time>2026-04-12T06:06:10Z</time></trkpt><trkpt lat="43.59164438817915" lon="6.906131086040745"><ele>197.0</ele><time>2026-04-12T06:06:13Z</time></trkpt><trkpt lat="43.59172697570695" lon="6.906088520250066"><ele>197.00000000000003</ele><time>2026-04-12T06:06:16Z</time></trkpt><trkpt lat="43.591803404791065" lon="6.906039971836386"><ele>197.0</ele><time>2026-04-12T06:06:19Z</time></trkpt><trkpt lat="43.591884485706004" lon="6.905997928128563"><ele>197.0</ele><time>2026-04-12T06:06:22Z</time></trkpt><trkpt lat="43.591967501458974" lon="6.90595157674928"><ele>197.0</ele><time>2026-04-12T06:06:25Z</time></trkpt><trkpt lat="43.59204890190683" lon="6.905908895785529"><ele>197.00000000000003</ele><time>2026-04-12T06:06:28Z</time></trkpt><trkpt lat="43.59212931050781" lon="6.905856769139794"><ele>197.0</ele><time>2026-04-12T06:06:31Z</time></trkpt><trkpt lat="43.592211160662686" lon="6.9058202946258875"><ele>200.66666666666669</ele><time>2026-04-12T06:06:34Z</time></trkpt><trkpt lat="43.5922918749201" lon="6.905770258301634"><ele>204.33333333333334</ele><time>2026-04-12T06:06:37Z</time></trkpt><trkpt lat="43.59237375698102" lon="6.905729880863416"><ele>208.0</ele><time>2026-04-12T06:06:40Z</time></trkpt><trkpt lat="43.59245423013682" lon="6.905690328899802"><ele>211.66666666666669</ele><time>2026-04-12T06:06:43Z</time></trkpt><trkpt lat="43.59253533307" lon="6.905650919459594"><ele>215.33333333333334</ele><time>2026-04-12T06:06:46Z</time></trkpt><trkpt lat="43.59261164760195" lon="6.9056034829521735"><ele>219.0</ele><time>2026-04-12T06:06:49Z</time></trkpt><trkpt lat="43.59269549159378" lon="6.905572109780269"><ele>219.0</ele><time>2026-04-12T06:06:52Z</time></trkpt><trkpt lat="43.592773476443746" lon="6.905517196499458"><ele>219.0</ele><time>2026-04-12T06:06:55Z</time></trkpt><trkpt lat="43.59285057485628" lon="6.9054555293350015"><ele>219.0</ele><time>2026-04-12T06:06:58Z</time></trkpt><trkpt lat="43.592915113831644" lon="6.90537287457474"><ele>219.0</ele><time>2026-04-12T06:07:01Z</time></trkpt><trkpt lat="43.59295515851064" lon="6.9052610796440215"><ele>219.0</ele><time>2026-04-12T06:07:04Z</time></trkpt><trkpt lat="43.5929521125747" lon="6.905139491874193"><ele>219.0</ele><time>2026-04-12T06:07:07Z</time></trkpt><trkpt lat="43.59292009867969" lon="6.905031143339075"><ele>218.33333333333334</ele><time>2026-04-12T06:07:10Z</time></trkpt><trkpt lat="43.59286908042205" lon="6.904934590875733"><ele>217.66666666666669</ele><time>2026-04-12T06:07:13Z</time></trkpt><trkpt lat="43.592805868819894" lon="6.90485242402178"><ele>217.0</ele><time>2026-04-12T06:07:16Z</time></trkpt><trkpt lat="43.592746282668315" lon="6.904780890995329"><ele>216.33333333333334</ele><time>2026-04-12T06:07:19Z</time></trkpt><trkpt lat="43.592693312799135" lon="6.9047061840984885"><ele>215.66666666666669</ele><time>2026-04-12T06:07:22Z</time></trkpt><trkpt lat="43.592633027995674" lon="6.904625238395926"><ele>215.0</ele><time>2026-04-12T06:07:25Z</time></trkpt><trkpt lat="43.592572089316164" lon="6.904548530455429"><ele>216.66666666666669</ele><time>2026-04-12T06:07:28Z</time></trkpt><trkpt lat="43.59251121044624" lon="6.904467778463226"><ele>218.33333333333334</ele><time>2026-04-12T06:07:31Z</time></trkpt><trkpt lat="43.59245140381872" lon="6.904391865181926"><ele>220.0</ele><time>2026-04-12T06:07:34Z</time></trkpt><trkpt lat="43.59238933380275" lon="6.904311202713672"><ele>221.66666666666669</ele><time>2026-04-12T06:07:37Z</time></trkpt><trkpt lat="43.59233032069585" lon="6.90423319026375"><ele>223.33333333333334</ele><time>2026-04-12T06:07:40Z</time></trkpt><trkpt lat="43.59227168038069" lon="6.904152710993032"><ele>225.0</ele><time>2026-04-12T06:07:43Z</time></trkpt><trkpt lat="43.59222507505596" lon="6.904088806643991"><ele>225.0</ele><time>2026-04-12T06:07:45Z</time></trkpt><trkpt lat="43.59218120657349" lon="6.904022685687027"><ele>225.0</ele><time>2026-04-12T06:07:47Z</time></trkpt><trkpt lat="43.592123049100124" lon="6.903946380531381"><ele>225.0</ele><time>2026-04-12T06:07:50Z</time></trkpt><trkpt lat="43.59206080312848" lon="6.903873024908128"><ele>225.0</ele><time>2026-04-12T06:07:53Z</time></trkpt><trkpt lat="43.591993426403285" lon="6.903800686746281"><ele>225.0</ele><time>2026-04-12T06:07:56Z</time></trkpt><trkpt lat="43.5919190758545" lon="6.903751231660747"><ele>225.0</ele><time>2026-04-12T06:07:59Z</time></trkpt><trkpt lat="43.5918453222079" lon="6.903704243473888"><ele>226.5</ele><time>2026-04-12T06:08:02Z</time></trkpt><trkpt lat="43.59178483263486" lon="6.90367776260353"><ele>228.0</ele><time>2026-04-12T06:08:04Z</time></trkpt><trkpt lat="43.591708035392315" lon="6.903642252602759"><ele>229.5</ele><time>2026-04-12T06:08:07Z</time></trkpt><trkpt lat="43.591633674759" lon="6.903596957531678"><ele>231.0</ele><time>2026-04-12T06:08:10Z</time></trkpt><trkpt lat="43.59158589234021" lon="6.903504387764152"><ele>232.5</ele><time>2026-04-12T06:08:13Z</time></trkpt><trkpt lat="43.59154802706039" lon="6.9034066374991125"><ele>234.0</ele><time>2026-04-12T06:08:16Z</time></trkpt><trkpt lat="43.591496864144624" lon="6.903316787757901"><ele>234.0</ele><time>2026-04-12T06:08:19Z</time></trkpt><trkpt lat="43.59143778533124" lon="6.903236902504531"><ele>234.0</ele><time>2026-04-12T06:08:22Z</time></trkpt><trkpt lat="43.59136780174681" lon="6.903180175422059"><ele>234.0</ele><time>2026-04-12T06:08:25Z</time></trkpt><trkpt lat="43.591292171900776" lon="6.903139178544058"><ele>234.0</ele><time>2026-04-12T06:08:28Z</time></trkpt><trkpt lat="43.591208500689945" lon="6.903122981754224"><ele>234.0</ele><time>2026-04-12T06:08:31Z</time></trkpt><trkpt lat="43.59112513530474" lon="6.903114193973603"><ele>234.0</ele><time>2026-04-12T06:08:34Z</time></trkpt><trkpt lat="43.59104125499457" lon="6.9031092758209995"><ele>236.5</ele><time>2026-04-12T06:08:37Z</time></trkpt><trkpt lat="43.59095923515808" lon="6.903085955406893"><ele>239.0</ele><time>2026-04-12T06:08:40Z</time></trkpt><trkpt lat="43.590877650832624" lon="6.9030501289735735"><ele>241.5</ele><time>2026-04-12T06:08:43Z</time></trkpt><trkpt lat="43.5907953347462" lon="6.9030197728107785"><ele>244.0</ele><time>2026-04-12T06:08:46Z</time></trkpt><trkpt lat="43.59071538619055" lon="6.902998312821381"><ele>246.5</ele><time>2026-04-12T06:08:49Z</time></trkpt><trkpt lat="43.59064476108389" lon="6.903003011964397"><ele>249.0</ele><time>2026-04-12T06:08:52Z</time></trkpt><trkpt lat="43.5905721324856" lon="6.903011874169634"><ele>249.0</ele><time>2026-04-12T06:08:55Z</time></trkpt><trkpt lat="43.59049883262605" lon="6.9030175686926425"><ele>249.0</ele><time>2026-04-12T06:08:57Z</time></trkpt><trkpt lat="43.59041209916278" lon="6.902998121279853"><ele>249.0</ele><time>2026-04-12T06:09:00Z</time></trkpt><trkpt lat="43.59032779696706" lon="6.902973983407819"><ele>249.0</ele><time>2026-04-12T06:09:03Z</time></trkpt><trkpt lat="43.59026689101241" lon="6.902887889267206"><ele>249.0</ele><time>2026-04-12T06:09:06Z</time></trkpt><trkpt lat="43.59025523762881" lon="6.902768312990083"><ele>249.0</ele><time>2026-04-12T06:09:09Z</time></trkpt><trkpt lat="43.59024487413906" lon="6.902664221204269"><ele>249.66666666666666</ele><time>2026-04-12T06:09:12Z</time></trkpt><trkpt lat="43.59021529771527" lon="6.902553596987148"><ele>250.33333333333331</ele><time>2026-04-12T06:09:15Z</time></trkpt><trkpt lat="43.59016510267546" lon="6.902453834063058"><ele>251.0</ele><time>2026-04-12T06:09:18Z</time></trkpt><trkpt lat="43.5901105784087" lon="6.9023654991375345"><ele>251.66666666666666</ele><time>2026-04-12T06:09:21Z</time></trkpt><trkpt lat="43.590045080164714" lon="6.9022785319828115"><ele>252.33333333333331</ele><time>2026-04-12T06:09:24Z</time></trkpt><trkpt lat="43.5899811071007" lon="6.902204055935314"><ele>253.0</ele><time>2026-04-12T06:09:27Z</time></trkpt><trkpt lat="43.589916943609374" lon="6.902137338013754"><ele>252.99999999999997</ele><time>2026-04-12T06:09:30Z</time></trkpt><trkpt lat="43.58984960268102" lon="6.902080249338148"><ele>253.0</ele><time>2026-04-12T06:09:33Z</time></trkpt><trkpt lat="43.58977502193293" lon="6.9020281753662225"><ele>253.0</ele><time>2026-04-12T06:09:36Z</time></trkpt><trkpt lat="43.5897187532958" lon="6.9019874584123"><ele>253.0</ele><time>2026-04-12T06:09:38Z</time></trkpt><trkpt lat="43.5896428515427" lon="6.901932662576319"><ele>252.99999999999997</ele><time>2026-04-12T06:09:41Z</time></trkpt><trkpt lat="43.58957379815637" lon="6.901869134984733"><ele>253.0</ele><time>2026-04-12T06:09:44Z</time></trkpt><trkpt lat="43.589504875919665" lon="6.901807037442717"><ele>252.16666666666666</ele><time>2026-04-12T06:09:47Z</time></trkpt><trkpt lat="43.5894279914931" lon="6.9017616163497735"><ele>251.33333333333331</ele><time>2026-04-12T06:09:50Z</time></trkpt><trkpt lat="43.58932912830197" lon="6.90174401670166"><ele>250.5</ele><time>2026-04-12T06:09:54Z</time></trkpt><trkpt lat="43.58926190102408" lon="6.901759281337457"><ele>249.66666666666669</ele><time>2026-04-12T06:09:57Z</time></trkpt><trkpt lat="43.58919814440903" lon="6.901797873220773"><ele>248.83333333333334</ele><time>2026-04-12T06:09:59Z</time></trkpt><trkpt lat="43.58914075996347" lon="6.901869178750957"><ele>248.0</ele><time>2026-04-12T06:10:02Z</time></trkpt><trkpt lat="43.58910168365428" lon="6.9019383070973515"><ele>251.00000000000003</ele><time>2026-04-12T06:10:04Z</time></trkpt><trkpt lat="43.589062304401786" lon="6.90203886972467"><ele>254.0</ele><time>2026-04-12T06:10:07Z</time></trkpt><trkpt lat="43.589026796681935" lon="6.90214210410573"><ele>257.0</ele><time>2026-04-12T06:10:10Z</time></trkpt><trkpt lat="43.58898664458033" lon="6.902242161347851"><ele>260.0</ele><time>2026-04-12T06:10:13Z</time></trkpt><trkpt lat="43.58893378350953" lon="6.902322513913057"><ele>263.0</ele><time>2026-04-12T06:10:16Z</time></trkpt><trkpt lat="43.58885407497244" lon="6.902348193012379"><ele>266.0</ele><time>2026-04-12T06:10:19Z</time></trkpt><trkpt lat="43.588779772773215" lon="6.902304268141532"><ele>266.0</ele><time>2026-04-12T06:10:22Z</time></trkpt><trkpt lat="43.58871058999034" lon="6.902239101149406"><ele>266.0</ele><time>2026-04-12T06:10:25Z</time></trkpt><trkpt lat="43.588639505468855" lon="6.90217651341403"><ele>266.0</ele><time>2026-04-12T06:10:28Z</time></trkpt><trkpt lat="43.58856841394768" lon="6.902119610404385"><ele>266.0</ele><time>2026-04-12T06:10:31Z</time></trkpt><trkpt lat="43.5885005860703" lon="6.902054001276009"><ele>266.0</ele><time>2026-04-12T06:10:34Z</time></trkpt><trkpt lat="43.588429038376844" lon="6.90199692489106"><ele>266.0</ele><time>2026-04-12T06:10:37Z</time></trkpt><trkpt lat="43.58836171847978" lon="6.9019363220894165"><ele>265.5</ele><time>2026-04-12T06:10:40Z</time></trkpt><trkpt lat="43.58829168101831" lon="6.901879004261156"><ele>265.0</ele><time>2026-04-12T06:10:43Z</time></trkpt><trkpt lat="43.58822289636975" lon="6.901823409428875"><ele>264.5</ele><time>2026-04-12T06:10:46Z</time></trkpt><trkpt lat="43.58815302657754" lon="6.901763540546562"><ele>264.0</ele><time>2026-04-12T06:10:49Z</time></trkpt><trkpt lat="43.58809687758022" lon="6.901686772891676"><ele>263.5</ele><time>2026-04-12T06:10:52Z</time></trkpt><trkpt lat="43.58805678916298" lon="6.90159134443825"><ele>263.0</ele><time>2026-04-12T06:10:55Z</time></trkpt><trkpt lat="43.58803464031869" lon="6.901486053406666"><ele>263.0</ele><time>2026-04-12T06:10:58Z</time></trkpt><trkpt lat="43.58801777303501" lon="6.901383659161497"><ele>263.0</ele><time>2026-04-12T06:11:01Z</time></trkpt><trkpt lat="43.58802869286491" lon="6.901276116608155"><ele>263.0</ele><time>2026-04-12T06:11:04Z</time></trkpt><trkpt lat="43.58805463965404" lon="6.901173330727759"><ele>263.0</ele><time>2026-04-12T06:11:07Z</time></trkpt><trkpt lat="43.5880563486939" lon="6.901064076834276"><ele>263.0</ele><time>2026-04-12T06:11:10Z</time></trkpt><trkpt lat="43.588038909326386" lon="6.900961079947061"><ele>263.0</ele><time>2026-04-12T06:11:13Z</time></trkpt><trkpt lat="43.58800761963753" lon="6.900859365938099"><ele>262.1666666666667</ele><time>2026-04-12T06:11:16Z</time></trkpt><trkpt lat="43.58796859753627" lon="6.9007613314057075"><ele>261.33333333333337</ele><time>2026-04-12T06:11:19Z</time></trkpt><trkpt lat="43.58793575464551" lon="6.90065137190886"><ele>260.5</ele><time>2026-04-12T06:11:22Z</time></trkpt><trkpt lat="43.587897193503146" lon="6.90054966875319"><ele>259.6666666666667</ele><time>2026-04-12T06:11:25Z</time></trkpt><trkpt lat="43.58786444978429" lon="6.90044464083046"><ele>258.8333333333333</ele><time>2026-04-12T06:11:28Z</time></trkpt><trkpt lat="43.58782960326203" lon="6.900338013261388"><ele>258.0</ele><time>2026-04-12T06:11:31Z</time></trkpt><trkpt lat="43.587793278176605" lon="6.9002351960956"><ele>257.6666666666667</ele><time>2026-04-12T06:11:34Z</time></trkpt><trkpt lat="43.58776968477986" lon="6.900127453582862"><ele>257.3333333333333</ele><time>2026-04-12T06:11:37Z</time></trkpt><trkpt lat="43.587757058152214" lon="6.9000189966527845"><ele>257.0</ele><time>2026-04-12T06:11:40Z</time></trkpt><trkpt lat="43.587765403988435" lon="6.899908998331912"><ele>256.66666666666663</ele><time>2026-04-12T06:11:43Z</time></trkpt><trkpt lat="43.58779965168884" lon="6.899807562997283"><ele>256.3333333333333</ele><time>2026-04-12T06:11:46Z</time></trkpt><trkpt lat="43.58784630457742" lon="6.899717284815901"><ele>256.0</ele><time>2026-04-12T06:11:49Z</time></trkpt><trkpt lat="43.58789297707698" lon="6.8996262059308915"><ele>255.99999999999997</ele><time>2026-04-12T06:11:52Z</time></trkpt><trkpt lat="43.58792924079206" lon="6.89952606706105"><ele>256.0</ele><time>2026-04-12T06:11:55Z</time></trkpt><trkpt lat="43.58795369302167" lon="6.899416396385632"><ele>256.0</ele><time>2026-04-12T06:11:58Z</time></trkpt><trkpt lat="43.58796265129039" lon="6.899302037887389"><ele>256.0</ele><time>2026-04-12T06:12:01Z</time></trkpt><trkpt lat="43.587974169794386" lon="6.899188446249098"><ele>255.99999999999997</ele><time>2026-04-12T06:12:04Z</time></trkpt><trkpt lat="43.5879883161814" lon="6.899078538116924"><ele>256.0</ele><time>2026-04-12T06:12:07Z</time></trkpt><trkpt lat="43.588009177212584" lon="6.898969995369826"><ele>257.5</ele><time>2026-04-12T06:12:10Z</time></trkpt><trkpt lat="43.58803220620321" lon="6.898861145216923"><ele>259.0</ele><time>2026-04-12T06:12:13Z</time></trkpt><trkpt lat="43.588053175732504" lon="6.898749958788076"><ele>260.5</ele><time>2026-04-12T06:12:16Z</time></trkpt><trkpt lat="43.58806638316053" lon="6.8986380313442455"><ele>262.0</ele><time>2026-04-12T06:12:19Z</time></trkpt><trkpt lat="43.588075257848864" lon="6.898530125041441"><ele>263.5</ele><time>2026-04-12T06:12:22Z</time></trkpt><trkpt lat="43.58809171934211" lon="6.89842310888314"><ele>265.0</ele><time>2026-04-12T06:12:25Z</time></trkpt><trkpt lat="43.58812544682244" lon="6.898349126383598"><ele>267.66666666666663</ele><time>2026-04-12T06:12:28Z</time></trkpt><trkpt lat="43.58818646347283" lon="6.898262740798297"><ele>270.3333333333333</ele><time>2026-04-12T06:12:31Z</time></trkpt><trkpt lat="43.58823743818095" lon="6.898192476421542"><ele>273.0</ele><time>2026-04-12T06:12:33Z</time></trkpt><trkpt lat="43.58829243896734" lon="6.898106321011636"><ele>275.6666666666667</ele><time>2026-04-12T06:12:36Z</time></trkpt><trkpt lat="43.5883402731895" lon="6.897996709595173"><ele>278.33333333333337</ele><time>2026-04-12T06:12:40Z</time></trkpt><trkpt lat="43.58838532766241" lon="6.897891459508102"><ele>281.0</ele><time>2026-04-12T06:12:43Z</time></trkpt><trkpt lat="43.58841339901332" lon="6.897795720299183"><ele>281.0</ele><time>2026-04-12T06:12:46Z</time></trkpt><trkpt lat="43.58844092766062" lon="6.897698202695018"><ele>281.0</ele><time>2026-04-12T06:12:48Z</time></trkpt><trkpt lat="43.58847854825122" lon="6.897593876893724"><ele>281.0</ele><time>2026-04-12T06:12:51Z</time></trkpt><trkpt lat="43.58852335031702" lon="6.897492216363007"><ele>281.0</ele><time>2026-04-12T06:12:54Z</time></trkpt><trkpt lat="43.5885706562234" lon="6.897393766554017"><ele>281.0</ele><time>2026-04-12T06:12:57Z</time></trkpt><trkpt lat="43.58862209530641" lon="6.897297312021282"><ele>281.0</ele><time>2026-04-12T06:13:00Z</time></trkpt><trkpt lat="43.58866076393898" lon="6.897191117169694"><ele>280.6666666666667</ele><time>2026-04-12T06:13:03Z</time></trkpt><trkpt lat="43.5886795730494" lon="6.8970722662649235"><ele>280.33333333333337</ele><time>2026-04-12T06:13:06Z</time></trkpt><trkpt lat="43.58867662527288" lon="6.896956633919412"><ele>280.0</ele><time>2026-04-12T06:13:09Z</time></trkpt><trkpt lat="43.588647087380764" lon="6.896879199767898"><ele>279.6666666666667</ele><time>2026-04-12T06:13:11Z</time></trkpt><trkpt lat="43.58859806963123" lon="6.89679893510289"><ele>279.3333333333333</ele><time>2026-04-12T06:13:13Z</time></trkpt><trkpt lat="43.58853427009485" lon="6.896717986597835"><ele>279.0</ele><time>2026-04-12T06:13:15Z</time></trkpt><trkpt lat="43.5884603304258" lon="6.896638477825714"><ele>281.0</ele><time>2026-04-12T06:13:17Z</time></trkpt><trkpt lat="43.58837201997803" lon="6.896570233221935"><ele>283.0</ele><time>2026-04-12T06:13:19Z</time></trkpt><trkpt lat="43.58826397209331" lon="6.896538814543621"><ele>285.0</ele><time>2026-04-12T06:13:21Z</time></trkpt><trkpt lat="43.58814340332246" lon="6.8965684713749695"><ele>287.0</ele><time>2026-04-12T06:13:23Z</time></trkpt><trkpt lat="43.588071490189144" lon="6.896573737795586"><ele>289.0</ele><time>2026-04-12T06:13:24Z</time></trkpt><trkpt lat="43.58795751045638" lon="6.896631274477715"><ele>289.0</ele><time>2026-04-12T06:13:26Z</time></trkpt><trkpt lat="43.58788522722604" lon="6.896644032334351"><ele>289.0</ele><time>2026-04-12T06:13:27Z</time></trkpt><trkpt lat="43.587812542816216" lon="6.896654770550608"><ele>289.0</ele><time>2026-04-12T06:13:28Z</time></trkpt><trkpt lat="43.58773978836608" lon="6.896667135931789"><ele>289.0</ele><time>2026-04-12T06:13:29Z</time></trkpt><trkpt lat="43.58766521714782" lon="6.896651044298638"><ele>289.0</ele><time>2026-04-12T06:13:30Z</time></trkpt><trkpt lat="43.587591504569474" lon="6.8966444548427805"><ele>289.0</ele><time>2026-04-12T06:13:31Z</time></trkpt><trkpt lat="43.58752183001933" lon="6.8966204970927025"><ele>289.0</ele><time>2026-04-12T06:13:32Z</time></trkpt><trkpt lat="43.587465068460645" lon="6.8965345172410775"><ele>289.0</ele><time>2026-04-12T06:13:33Z</time></trkpt><trkpt lat="43.5874188616569" lon="6.896441775377853"><ele>289.0</ele><time>2026-04-12T06:13:34Z</time></trkpt><trkpt lat="43.58736469834693" lon="6.896365112566581"><ele>289.0</ele><time>2026-04-12T06:13:35Z</time></trkpt><trkpt lat="43.587293906802685" lon="6.8963130390737115"><ele>289.0</ele><time>2026-04-12T06:13:36Z</time></trkpt><trkpt lat="43.5872099165113" lon="6.896294523379311"><ele>289.0</ele><time>2026-04-12T06:13:37Z</time></trkpt><trkpt lat="43.58712235741971" lon="6.896320991175686"><ele>289.0</ele><time>2026-04-12T06:13:38Z</time></trkpt><trkpt lat="43.58704215833148" lon="6.896379244461069"><ele>290.0</ele><time>2026-04-12T06:13:39Z</time></trkpt><trkpt lat="43.58697004463855" lon="6.896448156471089"><ele>291.0</ele><time>2026-04-12T06:13:40Z</time></trkpt><trkpt lat="43.58690345340626" lon="6.896527162003684"><ele>292.0</ele><time>2026-04-12T06:13:41Z</time></trkpt><trkpt lat="43.586843290282005" lon="6.89661607720601"><ele>293.0</ele><time>2026-04-12T06:13:42Z</time></trkpt><trkpt lat="43.58678677019182" lon="6.896712558832985"><ele>294.0</ele><time>2026-04-12T06:13:43Z</time></trkpt><trkpt lat="43.58673341741587" lon="6.8968119986228515"><ele>295.0</ele><time>2026-04-12T06:13:44Z</time></trkpt><trkpt lat="43.586677763301225" lon="6.896910389695743"><ele>295.0</ele><time>2026-04-12T06:13:45Z</time></trkpt><trkpt lat="43.58660115986658" lon="6.896983456589688"><ele>295.0</ele><time>2026-04-12T06:13:46Z</time></trkpt><trkpt lat="43.586540919636874" lon="6.897079599352658"><ele>295.0</ele><time>2026-04-12T06:13:47Z</time></trkpt><trkpt lat="43.586463844245294" lon="6.897154281300531"><ele>295.0</ele><time>2026-04-12T06:13:48Z</time></trkpt><trkpt lat="43.586373282632266" lon="6.897203115957715"><ele>295.0</ele><time>2026-04-12T06:13:49Z</time></trkpt><trkpt lat="43.58629221247078" lon="6.8972648647384975"><ele>295.0</ele><time>2026-04-12T06:13:50Z</time></trkpt><trkpt lat="43.586222771488664" lon="6.897352504782639"><ele>295.0</ele><time>2026-04-12T06:13:51Z</time></trkpt><trkpt lat="43.58614788740932" lon="6.8974237468940975"><ele>295.0</ele><time>2026-04-12T06:13:52Z</time></trkpt><trkpt lat="43.5860815102862" lon="6.897507982064391"><ele>295.0</ele><time>2026-04-12T06:13:53Z</time></trkpt><trkpt lat="43.586029246043644" lon="6.897602618472605"><ele>295.0</ele><time>2026-04-12T06:13:54Z</time></trkpt><trkpt lat="43.58600178101924" lon="6.897723700179257"><ele>293.8333333333333</ele><time>2026-04-12T06:13:55Z</time></trkpt><trkpt lat="43.58599431578051" lon="6.8978447651360835"><ele>292.66666666666663</ele><time>2026-04-12T06:13:56Z</time></trkpt><trkpt lat="43.58597076019397" lon="6.897945638129807"><ele>291.5</ele><time>2026-04-12T06:13:57Z</time></trkpt><trkpt lat="43.58590283276011" lon="6.898012959323895"><ele>290.3333333333333</ele><time>2026-04-12T06:13:58Z</time></trkpt><trkpt lat="43.585806441066694" lon="6.898020567751362"><ele>289.1666666666667</ele><time>2026-04-12T06:13:59Z</time></trkpt><trkpt lat="43.58572578505389" lon="6.898086532080151"><ele>288.0</ele><time>2026-04-12T06:14:00Z</time></trkpt><trkpt lat="43.58565374004494" lon="6.898165653432805"><ele>288.0</ele><time>2026-04-12T06:14:01Z</time></trkpt><trkpt lat="43.58559667917128" lon="6.898271279435876"><ele>288.0</ele><time>2026-04-12T06:14:02Z</time></trkpt><trkpt lat="43.58554883181666" lon="6.898384932611063"><ele>288.0</ele><time>2026-04-12T06:14:03Z</time></trkpt><trkpt lat="43.58548661835759" lon="6.89847552275449"><ele>288.0</ele><time>2026-04-12T06:14:04Z</time></trkpt><trkpt lat="43.58538812845234" lon="6.898481119710157"><ele>288.0</ele><time>2026-04-12T06:14:05Z</time></trkpt><trkpt lat="43.58530028548651" lon="6.898483093614725"><ele>287.8333333333333</ele><time>2026-04-12T06:14:06Z</time></trkpt><trkpt lat="43.58521743498308" lon="6.898447064257137"><ele>287.6666666666667</ele><time>2026-04-12T06:14:07Z</time></trkpt><trkpt lat="43.585140278160885" lon="6.8983811632530525"><ele>287.5</ele><time>2026-04-12T06:14:08Z</time></trkpt><trkpt lat="43.58507767187505" lon="6.898285266486971"><ele>287.33333333333337</ele><time>2026-04-12T06:14:09Z</time></trkpt><trkpt lat="43.585049938775974" lon="6.898173818442008"><ele>287.1666666666667</ele><time>2026-04-12T06:14:10Z</time></trkpt><trkpt lat="43.585042863883864" lon="6.898060527811782"><ele>287.0</ele><time>2026-04-12T06:14:11Z</time></trkpt><trkpt lat="43.58511096921021" lon="6.897969925156307"><ele>286.42857142857144</ele><time>2026-04-12T06:14:12Z</time></trkpt><trkpt lat="43.585139698450426" lon="6.89787464316325"><ele>285.8571428571429</ele><time>2026-04-12T06:14:13Z</time></trkpt><trkpt lat="43.585173538467565" lon="6.897793635319263"><ele>285.2857142857143</ele><time>2026-04-12T06:14:14Z</time></trkpt><trkpt lat="43.585189480751" lon="6.8977070394427065"><ele>284.7142857142857</ele><time>2026-04-12T06:14:15Z</time></trkpt><trkpt lat="43.58521272216767" lon="6.897625498388327"><ele>284.14285714285717</ele><time>2026-04-12T06:14:16Z</time></trkpt><trkpt lat="43.58521448443448" lon="6.897536971684907"><ele>283.57142857142856</ele><time>2026-04-12T06:14:17Z</time></trkpt><trkpt lat="43.58518205092666" lon="6.897451135274863"><ele>283.0</ele><time>2026-04-12T06:14:18Z</time></trkpt><trkpt lat="43.585205695506254" lon="6.897302261652003"><ele>283.0</ele><time>2026-04-12T06:14:20Z</time></trkpt><trkpt lat="43.58526323625254" lon="6.897258982816614"><ele>283.0</ele><time>2026-04-12T06:14:21Z</time></trkpt><trkpt lat="43.58530236729191" lon="6.897118987269154"><ele>283.0</ele><time>2026-04-12T06:14:23Z</time></trkpt><trkpt lat="43.58533417738754" lon="6.8969733137694575"><ele>283.0</ele><time>2026-04-12T06:14:25Z</time></trkpt><trkpt lat="43.58530953954048" lon="6.896829276679473"><ele>283.0</ele><time>2026-04-12T06:14:27Z</time></trkpt><trkpt lat="43.58532293171452" lon="6.896691564542736"><ele>278.6</ele><time>2026-04-12T06:14:29Z</time></trkpt><trkpt lat="43.58538655666381" lon="6.896581147971675"><ele>274.20000000000005</ele><time>2026-04-12T06:14:31Z</time></trkpt><trkpt lat="43.585439862334134" lon="6.896473395448483"><ele>269.8</ele><time>2026-04-12T06:14:33Z</time></trkpt><trkpt lat="43.585478448041854" lon="6.896353517025785"><ele>265.40000000000003</ele><time>2026-04-12T06:14:35Z</time></trkpt><trkpt lat="43.585498461107065" lon="6.89621924172563"><ele>261.0</ele><time>2026-04-12T06:14:37Z</time></trkpt><trkpt lat="43.58546647544329" lon="6.896084414907803"><ele>261.0</ele><time>2026-04-12T06:14:39Z</time></trkpt><trkpt lat="43.58539989358779" lon="6.895985288298084"><ele>261.0</ele><time>2026-04-12T06:14:41Z</time></trkpt><trkpt lat="43.58534841710624" lon="6.895882533277173"><ele>261.0</ele><time>2026-04-12T06:14:43Z</time></trkpt><trkpt lat="43.5853158434407" lon="6.895767068022757"><ele>261.0</ele><time>2026-04-12T06:14:45Z</time></trkpt><trkpt lat="43.585333032570816" lon="6.89564065211276"><ele>261.0</ele><time>2026-04-12T06:14:47Z</time></trkpt><trkpt lat="43.58539295620223" lon="6.895553955366"><ele>261.6666666666667</ele><time>2026-04-12T06:14:49Z</time></trkpt><trkpt lat="43.58547182087031" lon="6.89549893036366"><ele>262.3333333333333</ele><time>2026-04-12T06:14:51Z</time></trkpt><trkpt lat="43.585550074798945" lon="6.895440804790253"><ele>263.0</ele><time>2026-04-12T06:14:53Z</time></trkpt><trkpt lat="43.585618208365275" lon="6.895363346328176"><ele>263.66666666666663</ele><time>2026-04-12T06:14:55Z</time></trkpt><trkpt lat="43.58566734739091" lon="6.895261745606065"><ele>264.3333333333333</ele><time>2026-04-12T06:14:57Z</time></trkpt><trkpt lat="43.585699571583405" lon="6.895147614244839"><ele>265.0</ele><time>2026-04-12T06:14:59Z</time></trkpt><trkpt lat="43.58571795775003" lon="6.89502752636994"><ele>267.3333333333333</ele><time>2026-04-12T06:15:01Z</time></trkpt><trkpt lat="43.58574399581285" lon="6.89491368680927"><ele>269.66666666666663</ele><time>2026-04-12T06:15:03Z</time></trkpt><trkpt lat="43.58576194710274" lon="6.894796240727902"><ele>272.0</ele><time>2026-04-12T06:15:05Z</time></trkpt><trkpt lat="43.585811783549964" lon="6.894700644426809"><ele>274.3333333333333</ele><time>2026-04-12T06:15:07Z</time></trkpt><trkpt lat="43.585875396763946" lon="6.894619743843465"><ele>276.6666666666667</ele><time>2026-04-12T06:15:09Z</time></trkpt><trkpt lat="43.58591478484607" lon="6.894511309900197"><ele>279.0</ele><time>2026-04-12T06:15:11Z</time></trkpt><trkpt lat="43.58592348506475" lon="6.894390344655793"><ele>279.0</ele><time>2026-04-12T06:15:13Z</time></trkpt><trkpt lat="43.58590770783593" lon="6.894275301779695"><ele>279.0</ele><time>2026-04-12T06:15:15Z</time></trkpt><trkpt lat="43.58588066817147" lon="6.8941659791105945"><ele>279.0</ele><time>2026-04-12T06:15:17Z</time></trkpt><trkpt lat="43.58583912489273" lon="6.894067222242486"><ele>279.0</ele><time>2026-04-12T06:15:19Z</time></trkpt><trkpt lat="43.585779539091426" lon="6.893980934271404"><ele>279.0</ele><time>2026-04-12T06:15:21Z</time></trkpt><trkpt lat="43.5857172860198" lon="6.893902577806172"><ele>279.0</ele><time>2026-04-12T06:15:23Z</time></trkpt><trkpt lat="43.58564925875629" lon="6.893836270795781"><ele>279.0</ele><time>2026-04-12T06:15:25Z</time></trkpt><trkpt lat="43.58557768651125" lon="6.893778467375278"><ele>279.0</ele><time>2026-04-12T06:15:27Z</time></trkpt><trkpt lat="43.585501028580225" lon="6.893728449874923"><ele>279.0</ele><time>2026-04-12T06:15:29Z</time></trkpt><trkpt lat="43.58542380167897" lon="6.893684070879659"><ele>279.0</ele><time>2026-04-12T06:15:31Z</time></trkpt><trkpt lat="43.585346551193346" lon="6.8936401749549505"><ele>279.0</ele><time>2026-04-12T06:15:33Z</time></trkpt><trkpt lat="43.58526907637513" lon="6.893603150023068"><ele>279.0</ele><time>2026-04-12T06:15:35Z</time></trkpt><trkpt lat="43.58518856499597" lon="6.893570154465897"><ele>282.6666666666667</ele><time>2026-04-12T06:15:37Z</time></trkpt><trkpt lat="43.585121990916264" lon="6.893504999989202"><ele>286.3333333333333</ele><time>2026-04-12T06:15:39Z</time></trkpt><trkpt lat="43.58508535335979" lon="6.893397161510684"><ele>290.0</ele><time>2026-04-12T06:15:41Z</time></trkpt><trkpt lat="43.58508156280436" lon="6.893281774065516"><ele>293.66666666666663</ele><time>2026-04-12T06:15:43Z</time></trkpt><trkpt lat="43.58510890641129" lon="6.893171041168955"><ele>297.3333333333333</ele><time>2026-04-12T06:15:45Z</time></trkpt><trkpt lat="43.58516995303292" lon="6.89309191638819"><ele>301.0</ele><time>2026-04-12T06:15:47Z</time></trkpt><trkpt lat="43.5852544179431" lon="6.8930774446647884"><ele>301.0</ele><time>2026-04-12T06:15:49Z</time></trkpt><trkpt lat="43.58533611883358" lon="6.893061496039446"><ele>301.0</ele><time>2026-04-12T06:15:51Z</time></trkpt><trkpt lat="43.585417993787544" lon="6.893025868970345"><ele>301.0</ele><time>2026-04-12T06:15:53Z</time></trkpt><trkpt lat="43.58549494208801" lon="6.892973943123244"><ele>301.0</ele><time>2026-04-12T06:15:55Z</time></trkpt><trkpt lat="43.585562399079635" lon="6.8929054169057435"><ele>301.0</ele><time>2026-04-12T06:15:57Z</time></trkpt><trkpt lat="43.585620435133904" lon="6.892826595136972"><ele>301.0</ele><time>2026-04-12T06:15:59Z</time></trkpt><trkpt lat="43.58568413566567" lon="6.89275428720175"><ele>298.5</ele><time>2026-04-12T06:16:01Z</time></trkpt><trkpt lat="43.58576623541794" lon="6.892730494541339"><ele>296.0</ele><time>2026-04-12T06:16:03Z</time></trkpt><trkpt lat="43.58584005626969" lon="6.8926940785154285"><ele>293.5</ele><time>2026-04-12T06:16:05Z</time></trkpt><trkpt lat="43.58589366569189" lon="6.892601045286406"><ele>291.0</ele><time>2026-04-12T06:16:07Z</time></trkpt><trkpt lat="43.585908984154436" lon="6.892486067749547"><ele>288.5</ele><time>2026-04-12T06:16:09Z</time></trkpt><trkpt lat="43.58589784007716" lon="6.892360270286687"><ele>286.0</ele><time>2026-04-12T06:16:11Z</time></trkpt><trkpt lat="43.58586879468504" lon="6.892257048000529"><ele>286.0</ele><time>2026-04-12T06:16:13Z</time></trkpt><trkpt lat="43.58583131376478" lon="6.892155891253265"><ele>286.0</ele><time>2026-04-12T06:16:15Z</time></trkpt><trkpt lat="43.585788276649204" lon="6.892061616152007"><ele>286.0</ele><time>2026-04-12T06:16:17Z</time></trkpt><trkpt lat="43.58574770617977" lon="6.891969217856677"><ele>286.0</ele><time>2026-04-12T06:16:19Z</time></trkpt><trkpt lat="43.585701921458316" lon="6.891876750895933"><ele>286.0</ele><time>2026-04-12T06:16:21Z</time></trkpt><trkpt lat="43.58568158474737" lon="6.89176766746793"><ele>286.0</ele><time>2026-04-12T06:16:23Z</time></trkpt><trkpt lat="43.585684422968605" lon="6.891660661193903"><ele>285.8333333333333</ele><time>2026-04-12T06:16:25Z</time></trkpt><trkpt lat="43.58568764623771" lon="6.891549110043407"><ele>285.66666666666663</ele><time>2026-04-12T06:16:27Z</time></trkpt><trkpt lat="43.58568914103248" lon="6.891437543766185"><ele>285.5</ele><time>2026-04-12T06:16:29Z</time></trkpt><trkpt lat="43.585663542692664" lon="6.891337183678654"><ele>285.3333333333333</ele><time>2026-04-12T06:16:31Z</time></trkpt><trkpt lat="43.58561529483024" lon="6.891237758235028"><ele>285.1666666666667</ele><time>2026-04-12T06:16:33Z</time></trkpt><trkpt lat="43.58555987581994" lon="6.891146277121629"><ele>285.0</ele><time>2026-04-12T06:16:35Z</time></trkpt><trkpt lat="43.585502573785966" lon="6.8910595416263325"><ele>285.0</ele><time>2026-04-12T06:16:37Z</time></trkpt><trkpt lat="43.585440949586776" lon="6.8909842294257855"><ele>285.0</ele><time>2026-04-12T06:16:39Z</time></trkpt><trkpt lat="43.585372205340654" lon="6.890921001249032"><ele>285.0</ele><time>2026-04-12T06:16:41Z</time></trkpt><trkpt lat="43.5853043841917" lon="6.890854171014744"><ele>285.0</ele><time>2026-04-12T06:16:43Z</time></trkpt><trkpt lat="43.5852467595073" lon="6.890769352134007"><ele>285.0</ele><time>2026-04-12T06:16:45Z</time></trkpt><trkpt lat="43.585201547772755" lon="6.890671941933762"><ele>285.0</ele><time>2026-04-12T06:16:47Z</time></trkpt><trkpt lat="43.58515991720757" lon="6.890585157586004"><ele>288.5</ele><time>2026-04-12T06:16:49Z</time></trkpt><trkpt lat="43.58510531668128" lon="6.890505382993818"><ele>292.0</ele><time>2026-04-12T06:16:51Z</time></trkpt><trkpt lat="43.585045708199786" lon="6.890432003415138"><ele>295.5</ele><time>2026-04-12T06:16:53Z</time></trkpt><trkpt lat="43.58499060111187" lon="6.890353410276442"><ele>299.0</ele><time>2026-04-12T06:16:55Z</time></trkpt><trkpt lat="43.5849601918926" lon="6.890250099695788"><ele>302.5</ele><time>2026-04-12T06:16:57Z</time></trkpt><trkpt lat="43.58495020550874" lon="6.890142697227695"><ele>306.0</ele><time>2026-04-12T06:16:59Z</time></trkpt><trkpt lat="43.58494923145089" lon="6.8900285427523364"><ele>306.0</ele><time>2026-04-12T06:17:01Z</time></trkpt><trkpt lat="43.58496545573856" lon="6.889914101292406"><ele>306.0</ele><time>2026-04-12T06:17:03Z</time></trkpt><trkpt lat="43.58499434078271" lon="6.889802856641999"><ele>306.0</ele><time>2026-04-12T06:17:05Z</time></trkpt><trkpt lat="43.58503134576536" lon="6.889700757820672"><ele>306.0</ele><time>2026-04-12T06:17:07Z</time></trkpt><trkpt lat="43.58505560062218" lon="6.8895881232754945"><ele>306.0</ele><time>2026-04-12T06:17:09Z</time></trkpt><trkpt lat="43.58506240844629" lon="6.88946569376409"><ele>306.0</ele><time>2026-04-12T06:17:11Z</time></trkpt><trkpt lat="43.585045129996246" lon="6.889341574345993"><ele>304.6</ele><time>2026-04-12T06:17:13Z</time></trkpt><trkpt lat="43.584989565902205" lon="6.88923120616835"><ele>303.20000000000005</ele><time>2026-04-12T06:17:15Z</time></trkpt><trkpt lat="43.58490526538679" lon="6.8891536213582345"><ele>301.79999999999995</ele><time>2026-04-12T06:17:17Z</time></trkpt><trkpt lat="43.584822722522155" lon="6.889074815559016"><ele>300.4</ele><time>2026-04-12T06:17:19Z</time></trkpt><trkpt lat="43.584765271364816" lon="6.888958730145817"><ele>299.0</ele><time>2026-04-12T06:17:21Z</time></trkpt><trkpt lat="43.584736143405316" lon="6.888822853315683"><ele>299.0</ele><time>2026-04-12T06:17:23Z</time></trkpt><trkpt lat="43.58473112620492" lon="6.888680080907981"><ele>299.0</ele><time>2026-04-12T06:17:25Z</time></trkpt><trkpt lat="43.58474192398221" lon="6.88853738077516"><ele>299.0</ele><time>2026-04-12T06:17:27Z</time></trkpt><trkpt lat="43.58476961321906" lon="6.888403554363507"><ele>299.0</ele><time>2026-04-12T06:17:29Z</time></trkpt><trkpt lat="43.584794595296614" lon="6.888270340297388"><ele>299.0</ele><time>2026-04-12T06:17:31Z</time></trkpt><trkpt lat="43.58481911636524" lon="6.888129495640376"><ele>297.8</ele><time>2026-04-12T06:17:33Z</time></trkpt><trkpt lat="43.58484925290688" lon="6.8879816309443225"><ele>296.59999999999997</ele><time>2026-04-12T06:17:35Z</time></trkpt><trkpt lat="43.58489291052176" lon="6.887839405520095"><ele>295.4</ele><time>2026-04-12T06:17:37Z</time></trkpt><trkpt lat="43.58494954938774" lon="6.887712279754585"><ele>294.2</ele><time>2026-04-12T06:17:39Z</time></trkpt><trkpt lat="43.58497856360466" lon="6.887569050672278"><ele>293.0</ele><time>2026-04-12T06:17:41Z</time></trkpt><trkpt lat="43.584987996716016" lon="6.887416562571575"><ele>293.0</ele><time>2026-04-12T06:17:43Z</time></trkpt><trkpt lat="43.584966760010715" lon="6.887263988001755"><ele>293.0</ele><time>2026-04-12T06:17:45Z</time></trkpt><trkpt lat="43.58491678364796" lon="6.887124749470222"><ele>293.0</ele><time>2026-04-12T06:17:47Z</time></trkpt><trkpt lat="43.58484180684741" lon="6.887011926742782"><ele>293.0</ele><time>2026-04-12T06:17:49Z</time></trkpt><trkpt lat="43.58475340603153" lon="6.886919733429919"><ele>293.0</ele><time>2026-04-12T06:17:51Z</time></trkpt><trkpt lat="43.58467888326625" lon="6.886807759867884"><ele>293.83333333333337</ele><time>2026-04-12T06:17:53Z</time></trkpt><trkpt lat="43.58463575796534" lon="6.8866773886087"><ele>294.6666666666667</ele><time>2026-04-12T06:17:55Z</time></trkpt><trkpt lat="43.58464521534535" lon="6.886552349016741"><ele>295.5</ele><time>2026-04-12T06:17:57Z</time></trkpt><trkpt lat="43.58467227920857" lon="6.886454731096844"><ele>296.3333333333333</ele><time>2026-04-12T06:17:59Z</time></trkpt><trkpt lat="43.58472764191874" lon="6.886390958752341"><ele>297.16666666666663</ele><time>2026-04-12T06:18:01Z</time></trkpt><trkpt lat="43.58479582427799" lon="6.8863584295257185"><ele>298.0</ele><time>2026-04-12T06:18:03Z</time></trkpt><trkpt lat="43.58486304859553" lon="6.886339268146771"><ele>298.0</ele><time>2026-04-12T06:18:05Z</time></trkpt><trkpt lat="43.58493156721916" lon="6.886317990435413"><ele>298.0</ele><time>2026-04-12T06:18:07Z</time></trkpt><trkpt lat="43.584997882703156" lon="6.886299278226447"><ele>298.0</ele><time>2026-04-12T06:18:09Z</time></trkpt><trkpt lat="43.5850666173557" lon="6.886278110673132"><ele>298.0</ele><time>2026-04-12T06:18:11Z</time></trkpt><trkpt lat="43.58513603115533" lon="6.8862580698670115"><ele>298.0</ele><time>2026-04-12T06:18:13Z</time></trkpt><trkpt lat="43.58520243317971" lon="6.886230755744855"><ele>298.0</ele><time>2026-04-12T06:18:15Z</time></trkpt><trkpt lat="43.58526908286907" lon="6.886211583151593"><ele>298.0</ele><time>2026-04-12T06:18:17Z</time></trkpt><trkpt lat="43.58533629807882" lon="6.886191257475114"><ele>295.1428571428571</ele><time>2026-04-12T06:18:19Z</time></trkpt><trkpt lat="43.58540225789197" lon="6.886168744556082"><ele>292.2857142857143</ele><time>2026-04-12T06:18:21Z</time></trkpt><trkpt lat="43.58546780700198" lon="6.886151537903937"><ele>289.42857142857144</ele><time>2026-04-12T06:18:23Z</time></trkpt><trkpt lat="43.585531031825326" lon="6.886128150052441"><ele>286.57142857142856</ele><time>2026-04-12T06:18:25Z</time></trkpt><trkpt lat="43.58559450059268" lon="6.886090149917593"><ele>283.7142857142857</ele><time>2026-04-12T06:18:27Z</time></trkpt><trkpt lat="43.58565711047751" lon="6.886047043318411"><ele>280.85714285714283</ele><time>2026-04-12T06:18:29Z</time></trkpt><trkpt lat="43.58571777558277" lon="6.8860034973601465"><ele>278.0</ele><time>2026-04-12T06:18:31Z</time></trkpt><trkpt lat="43.58577303530048" lon="6.885948539684639"><ele>282.7142857142857</ele><time>2026-04-12T06:18:33Z</time></trkpt><trkpt lat="43.5858337249586" lon="6.8859030003278106"><ele>287.42857142857144</ele><time>2026-04-12T06:18:35Z</time></trkpt><trkpt lat="43.58589760418062" lon="6.885870597178157"><ele>292.1428571428571</ele><time>2026-04-12T06:18:37Z</time></trkpt><trkpt lat="43.585962750853625" lon="6.885842705966745"><ele>296.8571428571429</ele><time>2026-04-12T06:18:39Z</time></trkpt><trkpt lat="43.586027360657575" lon="6.885807699407388"><ele>301.5714285714286</ele><time>2026-04-12T06:18:41Z</time></trkpt><trkpt lat="43.58608495386659" lon="6.885759699529288"><ele>306.2857142857143</ele><time>2026-04-12T06:18:43Z</time></trkpt><trkpt lat="43.586130840492544" lon="6.885689243505622"><ele>311.0</ele><time>2026-04-12T06:18:45Z</time></trkpt><trkpt lat="43.58616736129228" lon="6.885607629294437"><ele>307.4285714285714</ele><time>2026-04-12T06:18:47Z</time></trkpt><trkpt lat="43.58619668072447" lon="6.885524610278031"><ele>303.8571428571429</ele><time>2026-04-12T06:18:49Z</time></trkpt><trkpt lat="43.586221553042805" lon="6.885441471837876"><ele>300.2857142857143</ele><time>2026-04-12T06:18:51Z</time></trkpt><trkpt lat="43.58624591469873" lon="6.8853549044225115"><ele>296.71428571428567</ele><time>2026-04-12T06:18:53Z</time></trkpt><trkpt lat="43.58627974680763" lon="6.885274346717885"><ele>293.1428571428571</ele><time>2026-04-12T06:18:55Z</time></trkpt><trkpt lat="43.58632490626485" lon="6.885208394992318"><ele>289.57142857142856</ele><time>2026-04-12T06:18:57Z</time></trkpt><trkpt lat="43.58637588024992" lon="6.88514972460334"><ele>286.0</ele><time>2026-04-12T06:18:59Z</time></trkpt><trkpt lat="43.586432956634525" lon="6.8851006175545555"><ele>290.85714285714283</ele><time>2026-04-12T06:19:01Z</time></trkpt><trkpt lat="43.58648566487012" lon="6.885045531798856"><ele>295.7142857142857</ele><time>2026-04-12T06:19:03Z</time></trkpt><trkpt lat="43.58652975069554" lon="6.884978627264387"><ele>300.57142857142856</ele><time>2026-04-12T06:19:05Z</time></trkpt><trkpt lat="43.58657938435976" lon="6.884917521485211"><ele>305.42857142857144</ele><time>2026-04-12T06:19:07Z</time></trkpt><trkpt lat="43.58663560692617" lon="6.88486994372788"><ele>310.2857142857143</ele><time>2026-04-12T06:19:09Z</time></trkpt><trkpt lat="43.58672818661625" lon="6.884841892207188"><ele>315.1428571428571</ele><time>2026-04-12T06:19:12Z</time></trkpt><trkpt lat="43.58679909702092" lon="6.884839426617106"><ele>320.0</ele><time>2026-04-12T06:19:14Z</time></trkpt><trkpt lat="43.58686707878201" lon="6.884845917578269"><ele>320.0</ele><time>2026-04-12T06:19:16Z</time></trkpt><trkpt lat="43.586944569073054" lon="6.884841415440219"><ele>320.0</ele><time>2026-04-12T06:19:18Z</time></trkpt><trkpt lat="43.58700944142305" lon="6.884815840399966"><ele>320.0</ele><time>2026-04-12T06:19:20Z</time></trkpt><trkpt lat="43.58707087587689" lon="6.8847695120646595"><ele>320.0</ele><time>2026-04-12T06:19:22Z</time></trkpt><trkpt lat="43.5871293581253" lon="6.884717071025085"><ele>320.0</ele><time>2026-04-12T06:19:24Z</time></trkpt><trkpt lat="43.5871849203126" lon="6.884658759002044"><ele>320.0</ele><time>2026-04-12T06:19:26Z</time></trkpt><trkpt lat="43.58723948460377" lon="6.88460351401802"><ele>320.0</ele><time>2026-04-12T06:19:28Z</time></trkpt><trkpt lat="43.587297656377395" lon="6.884554145480575"><ele>321.1428571428571</ele><time>2026-04-12T06:19:30Z</time></trkpt><trkpt lat="43.5873597018679" lon="6.8845136777060345"><ele>322.2857142857143</ele><time>2026-04-12T06:19:32Z</time></trkpt><trkpt lat="43.58742118948274" lon="6.884473304185311"><ele>323.42857142857144</ele><time>2026-04-12T06:19:34Z</time></trkpt><trkpt lat="43.58747828091173" lon="6.884429970418081"><ele>324.57142857142856</ele><time>2026-04-12T06:19:36Z</time></trkpt><trkpt lat="43.58753056532488" lon="6.884371485916126"><ele>325.7142857142857</ele><time>2026-04-12T06:19:38Z</time></trkpt><trkpt lat="43.58757929505808" lon="6.88430330072482"><ele>326.85714285714283</ele><time>2026-04-12T06:19:40Z</time></trkpt><trkpt lat="43.587623852617575" lon="6.884232310052529"><ele>328.0</ele><time>2026-04-12T06:19:42Z</time></trkpt><trkpt lat="43.587665298759724" lon="6.884160520635465"><ele>327.99999999999994</ele><time>2026-04-12T06:19:44Z</time></trkpt><trkpt lat="43.58769883882802" lon="6.884076194588987"><ele>328.0</ele><time>2026-04-12T06:19:46Z</time></trkpt><trkpt lat="43.58773134701076" lon="6.883994933165698"><ele>328.0</ele><time>2026-04-12T06:19:48Z</time></trkpt><trkpt lat="43.587760156242354" lon="6.883912668415607"><ele>328.0</ele><time>2026-04-12T06:19:50Z</time></trkpt><trkpt lat="43.587789323455794" lon="6.88383171166302"><ele>328.0</ele><time>2026-04-12T06:19:52Z</time></trkpt><trkpt lat="43.58781384954285" lon="6.883750028450469"><ele>327.99999999999994</ele><time>2026-04-12T06:19:54Z</time></trkpt><trkpt lat="43.587842934273624" lon="6.883672405646369"><ele>328.0</ele><time>2026-04-12T06:19:56Z</time></trkpt><trkpt lat="43.58788325928359" lon="6.883602099312587"><ele>325.5</ele><time>2026-04-12T06:19:58Z</time></trkpt><trkpt lat="43.58794544762831" lon="6.883501655520325"><ele>323.0</ele><time>2026-04-12T06:20:01Z</time></trkpt><trkpt lat="43.587992355048854" lon="6.883439264989088"><ele>320.5</ele><time>2026-04-12T06:20:03Z</time></trkpt><trkpt lat="43.5880319493642" lon="6.883370757911453"><ele>318.0</ele><time>2026-04-12T06:20:05Z</time></trkpt><trkpt lat="43.588072904382585" lon="6.883256527874657"><ele>315.5</ele><time>2026-04-12T06:20:08Z</time></trkpt><trkpt lat="43.58808578076147" lon="6.8831328526513555"><ele>313.0</ele><time>2026-04-12T06:20:11Z</time></trkpt><trkpt lat="43.58807735423445" lon="6.8830114123137065"><ele>313.0</ele><time>2026-04-12T06:20:14Z</time></trkpt><trkpt lat="43.58805394651231" lon="6.882895429606443"><ele>313.0</ele><time>2026-04-12T06:20:17Z</time></trkpt><trkpt lat="43.5880176922583" lon="6.8827918690593775"><ele>313.0</ele><time>2026-04-12T06:20:20Z</time></trkpt><trkpt lat="43.58796149142426" lon="6.882705968362505"><ele>313.0</ele><time>2026-04-12T06:20:23Z</time></trkpt><trkpt lat="43.58790564284583" lon="6.882627330980212"><ele>313.0</ele><time>2026-04-12T06:20:26Z</time></trkpt><trkpt lat="43.58784907799324" lon="6.882557403325751"><ele>313.0</ele><time>2026-04-12T06:20:29Z</time></trkpt><trkpt lat="43.587790217585955" lon="6.882489136042542"><ele>318.1428571428571</ele><time>2026-04-12T06:20:32Z</time></trkpt><trkpt lat="43.587731601251015" lon="6.882419965015299"><ele>323.2857142857143</ele><time>2026-04-12T06:20:35Z</time></trkpt><trkpt lat="43.58767283587869" lon="6.882355750036271"><ele>328.42857142857144</ele><time>2026-04-12T06:20:38Z</time></trkpt><trkpt lat="43.58761590949972" lon="6.882285503672122"><ele>333.57142857142856</ele><time>2026-04-12T06:20:41Z</time></trkpt><trkpt lat="43.58756007694874" lon="6.882218927796677"><ele>338.7142857142857</ele><time>2026-04-12T06:20:44Z</time></trkpt><trkpt lat="43.58752048512962" lon="6.882139819428623"><ele>343.85714285714283</ele><time>2026-04-12T06:20:47Z</time></trkpt><trkpt lat="43.58748735908022" lon="6.882059111138543"><ele>349.0</ele><time>2026-04-12T06:20:50Z</time></trkpt><trkpt lat="43.587459843012574" lon="6.8819730585312655"><ele>348.99999999999994</ele><time>2026-04-12T06:20:53Z</time></trkpt><trkpt lat="43.58743302388276" lon="6.8818866470881"><ele>349.0</ele><time>2026-04-12T06:20:56Z</time></trkpt><trkpt lat="43.58740731338901" lon="6.881797826965461"><ele>349.0</ele><time>2026-04-12T06:20:59Z</time></trkpt><trkpt lat="43.587379897271184" lon="6.881712000192164"><ele>349.0</ele><time>2026-04-12T06:21:02Z</time></trkpt><trkpt lat="43.58735749219159" lon="6.881623971982168"><ele>349.0</ele><time>2026-04-12T06:21:05Z</time></trkpt><trkpt lat="43.58733488853435" lon="6.881535756737882"><ele>348.99999999999994</ele><time>2026-04-12T06:21:08Z</time></trkpt><trkpt lat="43.58732040274001" lon="6.881442416728883"><ele>349.0</ele><time>2026-04-12T06:21:11Z</time></trkpt><trkpt lat="43.58730801027545" lon="6.881349763351364"><ele>347.99999999999994</ele><time>2026-04-12T06:21:14Z</time></trkpt><trkpt lat="43.587305397700845" lon="6.881256763347163"><ele>347.0</ele><time>2026-04-12T06:21:17Z</time></trkpt><trkpt lat="43.58733607047205" lon="6.881173289952744"><ele>346.0</ele><time>2026-04-12T06:21:20Z</time></trkpt><trkpt lat="43.587371806360714" lon="6.88109450138029"><ele>345.0</ele><time>2026-04-12T06:21:23Z</time></trkpt><trkpt lat="43.58742956487737" lon="6.881043625226589"><ele>344.0</ele><time>2026-04-12T06:21:26Z</time></trkpt><trkpt lat="43.58748650492714" lon="6.880991321270282"><ele>342.99999999999994</ele><time>2026-04-12T06:21:29Z</time></trkpt><trkpt lat="43.58754885968183" lon="6.880950958648471"><ele>342.0</ele><time>2026-04-12T06:21:32Z</time></trkpt><trkpt lat="43.58760952596882" lon="6.880911574449957"><ele>340.99999999999994</ele><time>2026-04-12T06:21:35Z</time></trkpt><trkpt lat="43.587689469507694" lon="6.880847541166172"><ele>340.0</ele><time>2026-04-12T06:21:39Z</time></trkpt><trkpt lat="43.58774812294557" lon="6.880810301816894"><ele>339.0</ele><time>2026-04-12T06:21:42Z</time></trkpt><trkpt lat="43.58780864469108" lon="6.880767290970668"><ele>338.0</ele><time>2026-04-12T06:21:45Z</time></trkpt><trkpt lat="43.58786848130552" lon="6.88072665265008"><ele>337.0</ele><time>2026-04-12T06:21:48Z</time></trkpt><trkpt lat="43.58792757736626" lon="6.880682166056689"><ele>335.99999999999994</ele><time>2026-04-12T06:21:51Z</time></trkpt><trkpt lat="43.58798360196751" lon="6.880635078610313"><ele>335.0</ele><time>2026-04-12T06:21:54Z</time></trkpt><trkpt lat="43.588040307288914" lon="6.880590362722514"><ele>334.99999999999994</ele><time>2026-04-12T06:21:57Z</time></trkpt><trkpt lat="43.58810022527441" lon="6.880549845550664"><ele>335.0</ele><time>2026-04-12T06:22:00Z</time></trkpt><trkpt lat="43.58816010572485" lon="6.88051019250376"><ele>335.0</ele><time>2026-04-12T06:22:03Z</time></trkpt><trkpt lat="43.58822122299795" lon="6.880468566655553"><ele>335.0</ele><time>2026-04-12T06:22:06Z</time></trkpt><trkpt lat="43.58828100401764" lon="6.880428279961759"><ele>335.0</ele><time>2026-04-12T06:22:09Z</time></trkpt><trkpt lat="43.58834395268604" lon="6.880401006849035"><ele>334.99999999999994</ele><time>2026-04-12T06:22:12Z</time></trkpt><trkpt lat="43.5884083504672" lon="6.880372779741639"><ele>335.0</ele><time>2026-04-12T06:22:15Z</time></trkpt><trkpt lat="43.5884705500225" lon="6.880346637818597"><ele>334.99999999999994</ele><time>2026-04-12T06:22:18Z</time></trkpt><trkpt lat="43.588531549301756" lon="6.8803157473067476"><ele>335.0</ele><time>2026-04-12T06:22:21Z</time></trkpt><trkpt lat="43.58858822021517" lon="6.880269136791017"><ele>335.0</ele><time>2026-04-12T06:22:24Z</time></trkpt><trkpt lat="43.58863692352789" lon="6.8802042969077295"><ele>335.0</ele><time>2026-04-12T06:22:27Z</time></trkpt><trkpt lat="43.58867846776701" lon="6.880128435793659"><ele>335.0</ele><time>2026-04-12T06:22:30Z</time></trkpt><trkpt lat="43.5887201984514" lon="6.8800560035604486"><ele>334.99999999999994</ele><time>2026-04-12T06:22:33Z</time></trkpt><trkpt lat="43.588768297061044" lon="6.8799948882974595"><ele>335.0</ele><time>2026-04-12T06:22:36Z</time></trkpt><trkpt lat="43.588821549476144" lon="6.879936549658728"><ele>336.2857142857143</ele><time>2026-04-12T06:22:39Z</time></trkpt><trkpt lat="43.58887562372382" lon="6.8798842213543026"><ele>337.57142857142856</ele><time>2026-04-12T06:22:42Z</time></trkpt><trkpt lat="43.588932446381946" lon="6.8798335812101445"><ele>338.8571428571429</ele><time>2026-04-12T06:22:45Z</time></trkpt><trkpt lat="43.58898550300001" lon="6.8797756341543"><ele>340.1428571428571</ele><time>2026-04-12T06:22:48Z</time></trkpt><trkpt lat="43.589029385279034" lon="6.879702534861633"><ele>341.42857142857144</ele><time>2026-04-12T06:22:51Z</time></trkpt><trkpt lat="43.589058408399744" lon="6.8796160334589676"><ele>342.7142857142857</ele><time>2026-04-12T06:22:54Z</time></trkpt><trkpt lat="43.58907913517682" lon="6.879491592015185"><ele>344.0</ele><time>2026-04-12T06:22:58Z</time></trkpt><trkpt lat="43.58907209385768" lon="6.87939629362353"><ele>344.00000000000006</ele><time>2026-04-12T06:23:01Z</time></trkpt><trkpt lat="43.58905400977709" lon="6.8793006005324395"><ele>344.0</ele><time>2026-04-12T06:23:04Z</time></trkpt><trkpt lat="43.58903006470665" lon="6.879210971275373"><ele>344.0</ele><time>2026-04-12T06:23:07Z</time></trkpt><trkpt lat="43.588998616071464" lon="6.879127662425787"><ele>344.0</ele><time>2026-04-12T06:23:10Z</time></trkpt><trkpt lat="43.58896481188508" lon="6.879047670809937"><ele>344.0</ele><time>2026-04-12T06:23:13Z</time></trkpt><trkpt lat="43.58892452831466" lon="6.878973878471295"><ele>344.00000000000006</ele><time>2026-04-12T06:23:16Z</time></trkpt><trkpt lat="43.58888426726952" lon="6.878905067017192"><ele>344.0</ele><time>2026-04-12T06:23:19Z</time></trkpt><trkpt lat="43.58884288693623" lon="6.878828676260495"><ele>345.7142857142857</ele><time>2026-04-12T06:23:22Z</time></trkpt><trkpt lat="43.588804786435496" lon="6.87875577396235"><ele>347.42857142857144</ele><time>2026-04-12T06:23:25Z</time></trkpt><trkpt lat="43.58876448538369" lon="6.878686720131004"><ele>349.1428571428571</ele><time>2026-04-12T06:23:28Z</time></trkpt><trkpt lat="43.58873522686383" lon="6.878607692952901"><ele>350.8571428571429</ele><time>2026-04-12T06:23:31Z</time></trkpt><trkpt lat="43.58873390658493" lon="6.878514593921869"><ele>352.57142857142856</ele><time>2026-04-12T06:23:34Z</time></trkpt><trkpt lat="43.588756550335575" lon="6.878425519534649"><ele>354.2857142857143</ele><time>2026-04-12T06:23:37Z</time></trkpt><trkpt lat="43.58879072065135" lon="6.878343503760783"><ele>356.0</ele><time>2026-04-12T06:23:40Z</time></trkpt><trkpt lat="43.58884897429705" lon="6.878251957848952"><ele>356.71428571428567</ele><time>2026-04-12T06:23:44Z</time></trkpt><trkpt lat="43.588903506626984" lon="6.878184544834861"><ele>357.42857142857144</ele><time>2026-04-12T06:23:47Z</time></trkpt><trkpt lat="43.58895823096307" lon="6.8781192633209205"><ele>358.1428571428571</ele><time>2026-04-12T06:23:50Z</time></trkpt><trkpt lat="43.58901516776914" lon="6.878056423256186"><ele>358.85714285714283</ele><time>2026-04-12T06:23:53Z</time></trkpt><trkpt lat="43.5890694720852" lon="6.877992979801665"><ele>359.57142857142856</ele><time>2026-04-12T06:23:56Z</time></trkpt><trkpt lat="43.58912729917359" lon="6.877934316286683"><ele>360.2857142857143</ele><time>2026-04-12T06:23:59Z</time></trkpt><trkpt lat="43.58918474754541" lon="6.877876839831731"><ele>361.0</ele><time>2026-04-12T06:24:02Z</time></trkpt><trkpt lat="43.58923868555711" lon="6.877815536830599"><ele>361.0</ele><time>2026-04-12T06:24:05Z</time></trkpt><trkpt lat="43.58929706721786" lon="6.877751273885079"><ele>361.0</ele><time>2026-04-12T06:24:08Z</time></trkpt><trkpt lat="43.58934482123315" lon="6.877674149730475"><ele>361.0</ele><time>2026-04-12T06:24:11Z</time></trkpt><trkpt lat="43.589388788641855" lon="6.877595573701967"><ele>361.0</ele><time>2026-04-12T06:24:14Z</time></trkpt><trkpt lat="43.58942662414654" lon="6.877506688376186"><ele>361.0</ele><time>2026-04-12T06:24:17Z</time></trkpt><trkpt lat="43.589453830817746" lon="6.877414691074077"><ele>361.0</ele><time>2026-04-12T06:24:20Z</time></trkpt><trkpt lat="43.58947093149933" lon="6.877321111936777"><ele>361.0</ele><time>2026-04-12T06:24:23Z</time></trkpt><trkpt lat="43.58948125375239" lon="6.877222528312661"><ele>359.66666666666663</ele><time>2026-04-12T06:24:26Z</time></trkpt><trkpt lat="43.58949460589539" lon="6.877121979012419"><ele>358.3333333333333</ele><time>2026-04-12T06:24:29Z</time></trkpt><trkpt lat="43.589514878492636" lon="6.877020436107779"><ele>357.0</ele><time>2026-04-12T06:24:32Z</time></trkpt><trkpt lat="43.589541921744384" lon="6.8769227319465065"><ele>355.6666666666667</ele><time>2026-04-12T06:24:35Z</time></trkpt><trkpt lat="43.5895765045895" lon="6.876829157886203"><ele>354.33333333333337</ele><time>2026-04-12T06:24:38Z</time></trkpt><trkpt lat="43.58962784815108" lon="6.876744217289391"><ele>353.0</ele><time>2026-04-12T06:24:41Z</time></trkpt><trkpt lat="43.5896883791045" lon="6.876655700207045"><ele>356.1666666666667</ele><time>2026-04-12T06:24:44Z</time></trkpt><trkpt lat="43.58975886370926" lon="6.876577359625104"><ele>359.33333333333337</ele><time>2026-04-12T06:24:47Z</time></trkpt><trkpt lat="43.58982851580064" lon="6.876505085117976"><ele>362.5</ele><time>2026-04-12T06:24:50Z</time></trkpt><trkpt lat="43.58989320192923" lon="6.876427733919848"><ele>365.6666666666667</ele><time>2026-04-12T06:24:53Z</time></trkpt><trkpt lat="43.5899619395669" lon="6.876346338993352"><ele>368.8333333333333</ele><time>2026-04-12T06:24:56Z</time></trkpt><trkpt lat="43.59000933036422" lon="6.876286939661247"><ele>372.0</ele><time>2026-04-12T06:24:58Z</time></trkpt><trkpt lat="43.5900591198838" lon="6.876229414124844"><ele>372.00000000000006</ele><time>2026-04-12T06:25:00Z</time></trkpt><trkpt lat="43.59010841390705" lon="6.876172038206054"><ele>372.0</ele><time>2026-04-12T06:25:02Z</time></trkpt><trkpt lat="43.59014885871714" lon="6.876094266309281"><ele>372.0</ele><time>2026-04-12T06:26:05Z</time></trkpt><trkpt lat="43.59020260548215" lon="6.87602860638199"><ele>372.0</ele><time>2026-04-12T06:26:08Z</time></trkpt><trkpt lat="43.5902453949155" lon="6.875957205184827"><ele>372.0</ele><time>2026-04-12T06:26:10Z</time></trkpt><trkpt lat="43.59030222324509" lon="6.875890502312809"><ele>372.00000000000006</ele><time>2026-04-12T06:26:12Z</time></trkpt><trkpt lat="43.59035837318606" lon="6.8758196277679735"><ele>372.0</ele><time>2026-04-12T06:26:14Z</time></trkpt><trkpt lat="43.59041487158234" lon="6.875743931486412"><ele>371.0</ele><time>2026-04-12T06:26:16Z</time></trkpt><trkpt lat="43.59047610971839" lon="6.87567602620758"><ele>370.0</ele><time>2026-04-12T06:26:18Z</time></trkpt><trkpt lat="43.59053696057125" lon="6.875612197989103"><ele>369.0</ele><time>2026-04-12T06:26:20Z</time></trkpt><trkpt lat="43.59060141979519" lon="6.875532447337644"><ele>368.0</ele><time>2026-04-12T06:26:22Z</time></trkpt><trkpt lat="43.590665346560584" lon="6.87546095157397"><ele>367.0</ele><time>2026-04-12T06:26:24Z</time></trkpt><trkpt lat="43.59073861903423" lon="6.875400421749993"><ele>366.0</ele><time>2026-04-12T06:26:26Z</time></trkpt><trkpt lat="43.5908146039609" lon="6.875334950870507"><ele>366.0</ele><time>2026-04-12T06:26:28Z</time></trkpt><trkpt lat="43.590893713349296" lon="6.875251678576313"><ele>366.0</ele><time>2026-04-12T06:26:30Z</time></trkpt><trkpt lat="43.590983716153694" lon="6.875137641323546"><ele>366.0</ele><time>2026-04-12T06:26:32Z</time></trkpt><trkpt lat="43.59103414496326" lon="6.875074300759949"><ele>366.0</ele><time>2026-04-12T06:26:33Z</time></trkpt><trkpt lat="43.591081101891895" lon="6.8749983468395826"><ele>366.0</ele><time>2026-04-12T06:26:34Z</time></trkpt><trkpt lat="43.591128029971564" lon="6.874914476330867"><ele>366.0</ele><time>2026-04-12T06:26:35Z</time></trkpt><trkpt lat="43.59116776091995" lon="6.874817751095632"><ele>364.1666666666667</ele><time>2026-04-12T06:26:36Z</time></trkpt><trkpt lat="43.591201534936296" lon="6.874710706819912"><ele>362.3333333333333</ele><time>2026-04-12T06:26:37Z</time></trkpt><trkpt lat="43.59122086222687" lon="6.874593922738274"><ele>360.5</ele><time>2026-04-12T06:26:38Z</time></trkpt><trkpt lat="43.59122400806571" lon="6.874471374665485"><ele>358.66666666666663</ele><time>2026-04-12T06:26:39Z</time></trkpt><trkpt lat="43.591226063505935" lon="6.874348600914501"><ele>356.8333333333333</ele><time>2026-04-12T06:26:40Z</time></trkpt><trkpt lat="43.591234835378344" lon="6.874224779652508"><ele>355.0</ele><time>2026-04-12T06:26:41Z</time></trkpt><trkpt lat="43.591243888200204" lon="6.874111711981906"><ele>355.0</ele><time>2026-04-12T06:26:42Z</time></trkpt><trkpt lat="43.591255213328566" lon="6.874008763581081"><ele>355.0</ele><time>2026-04-12T06:26:43Z</time></trkpt><trkpt lat="43.59126815767506" lon="6.873920496647525"><ele>355.0</ele><time>2026-04-12T06:26:44Z</time></trkpt><trkpt lat="43.59130561197109" lon="6.873761654354063"><ele>355.0</ele><time>2026-04-12T06:26:46Z</time></trkpt><trkpt lat="43.591342148547675" lon="6.873686746676"><ele>355.0</ele><time>2026-04-12T06:26:47Z</time></trkpt><trkpt lat="43.59136840452045" lon="6.873604176775579"><ele>355.0</ele><time>2026-04-12T06:26:48Z</time></trkpt><trkpt lat="43.591375355543946" lon="6.873506149391719"><ele>355.85714285714283</ele><time>2026-04-12T06:26:49Z</time></trkpt><trkpt lat="43.591405788356575" lon="6.873423340179775"><ele>356.7142857142857</ele><time>2026-04-12T06:26:50Z</time></trkpt><trkpt lat="43.591436277806196" lon="6.87333837657516"><ele>357.57142857142856</ele><time>2026-04-12T06:26:51Z</time></trkpt><trkpt lat="43.59146737896334" lon="6.87325358896313"><ele>358.42857142857144</ele><time>2026-04-12T06:26:52Z</time></trkpt><trkpt lat="43.59149700759714" lon="6.873164782371524"><ele>359.2857142857143</ele><time>2026-04-12T06:26:53Z</time></trkpt><trkpt lat="43.59152571951475" lon="6.873074948889713"><ele>360.14285714285717</ele><time>2026-04-12T06:26:54Z</time></trkpt><trkpt lat="43.59156219988191" lon="6.872987421173198"><ele>361.0</ele><time>2026-04-12T06:26:55Z</time></trkpt><trkpt lat="43.591606397381625" lon="6.872907726683969"><ele>361.0</ele><time>2026-04-12T06:26:56Z</time></trkpt><trkpt lat="43.59165867289053" lon="6.8728333548607745"><ele>361.0</ele><time>2026-04-12T06:26:57Z</time></trkpt><trkpt lat="43.5917149411494" lon="6.872761603322369"><ele>361.0</ele><time>2026-04-12T06:26:58Z</time></trkpt><trkpt lat="43.5917761781395" lon="6.872692889151936"><ele>361.0</ele><time>2026-04-12T06:26:59Z</time></trkpt><trkpt lat="43.591844724595" lon="6.8726351832632595"><ele>361.0</ele><time>2026-04-12T06:27:00Z</time></trkpt><trkpt lat="43.59191841596476" lon="6.872590472386986"><ele>361.0</ele><time>2026-04-12T06:27:01Z</time></trkpt><trkpt lat="43.59199743077283" lon="6.87255240581829"><ele>360.5</ele><time>2026-04-12T06:27:02Z</time></trkpt><trkpt lat="43.59208172272562" lon="6.872532788544023"><ele>360.0</ele><time>2026-04-12T06:27:03Z</time></trkpt><trkpt lat="43.59217113387923" lon="6.872531956689967"><ele>359.5</ele><time>2026-04-12T06:27:04Z</time></trkpt><trkpt lat="43.592259278831996" lon="6.872525314836061"><ele>359.0</ele><time>2026-04-12T06:27:05Z</time></trkpt><trkpt lat="43.59234612274982" lon="6.872494253571767"><ele>358.5</ele><time>2026-04-12T06:27:06Z</time></trkpt><trkpt lat="43.592433503142445" lon="6.872452593882839"><ele>358.0</ele><time>2026-04-12T06:27:07Z</time></trkpt><trkpt lat="43.592520951048016" lon="6.872403610044769"><ele>358.0</ele><time>2026-04-12T06:27:08Z</time></trkpt><trkpt lat="43.59260617429612" lon="6.8723489239546325"><ele>358.0</ele><time>2026-04-12T06:27:09Z</time></trkpt><trkpt lat="43.59268823494986" lon="6.872279947636571"><ele>358.0</ele><time>2026-04-12T06:27:10Z</time></trkpt><trkpt lat="43.59276710412103" lon="6.872200597852031"><ele>358.0</ele><time>2026-04-12T06:27:11Z</time></trkpt><trkpt lat="43.59283845097709" lon="6.872107579136364"><ele>358.0</ele><time>2026-04-12T06:27:12Z</time></trkpt><trkpt lat="43.59290189773615" lon="6.871999662234728"><ele>354.4</ele><time>2026-04-12T06:27:13Z</time></trkpt><trkpt lat="43.592936426910974" lon="6.871863029308233"><ele>350.79999999999995</ele><time>2026-04-12T06:27:14Z</time></trkpt><trkpt lat="43.59297011998059" lon="6.87172571906859"><ele>347.2</ele><time>2026-04-12T06:27:15Z</time></trkpt><trkpt lat="43.59295939694432" lon="6.87158254435146"><ele>343.6</ele><time>2026-04-12T06:27:16Z</time></trkpt><trkpt lat="43.592962710892635" lon="6.8714402777315"><ele>340.0</ele><time>2026-04-12T06:27:17Z</time></trkpt><trkpt lat="43.59296832877829" lon="6.871297435661703"><ele>340.0</ele><time>2026-04-12T06:27:18Z</time></trkpt><trkpt lat="43.592974325821814" lon="6.871153807750456"><ele>340.0</ele><time>2026-04-12T06:27:19Z</time></trkpt><trkpt lat="43.59297878740218" lon="6.871011339445386"><ele>340.0</ele><time>2026-04-12T06:27:20Z</time></trkpt><trkpt lat="43.59298784049011" lon="6.8708685504534825"><ele>340.0</ele><time>2026-04-12T06:27:21Z</time></trkpt><trkpt lat="43.59301027868651" lon="6.87073817894088"><ele>340.0</ele><time>2026-04-12T06:27:22Z</time></trkpt><trkpt lat="43.593055252880035" lon="6.870612319576035"><ele>341.6</ele><time>2026-04-12T06:27:23Z</time></trkpt><trkpt lat="43.593125445720794" lon="6.870508912693718"><ele>343.2</ele><time>2026-04-12T06:27:24Z</time></trkpt><trkpt lat="43.59321471570236" lon="6.870435070251576"><ele>344.79999999999995</ele><time>2026-04-12T06:27:25Z</time></trkpt><trkpt lat="43.59331199280804" lon="6.870384967401867"><ele>346.4</ele><time>2026-04-12T06:27:26Z</time></trkpt><trkpt lat="43.59340854648277" lon="6.870334750968361"><ele>348.0</ele><time>2026-04-12T06:27:27Z</time></trkpt><trkpt lat="43.59350456453625" lon="6.870282326901161"><ele>348.0</ele><time>2026-04-12T06:27:28Z</time></trkpt><trkpt lat="43.59358795395091" lon="6.870231436588035"><ele>348.0</ele><time>2026-04-12T06:27:29Z</time></trkpt><trkpt lat="43.593663979822765" lon="6.870182339620815"><ele>348.0</ele><time>2026-04-12T06:27:30Z</time></trkpt><trkpt lat="43.59372960718767" lon="6.870120374719792"><ele>348.0</ele><time>2026-04-12T06:27:31Z</time></trkpt><trkpt lat="43.59377865788235" lon="6.870029190533755"><ele>348.0</ele><time>2026-04-12T06:27:32Z</time></trkpt><trkpt lat="43.593819164723" lon="6.869925689936456"><ele>348.0</ele><time>2026-04-12T06:27:33Z</time></trkpt><trkpt lat="43.59379878802004" lon="6.869795018136209"><ele>350.59999999999997</ele><time>2026-04-12T06:27:34Z</time></trkpt><trkpt lat="43.59379152354154" lon="6.869672870606499"><ele>353.2</ele><time>2026-04-12T06:27:35Z</time></trkpt><trkpt lat="43.59376879371251" lon="6.869554709410293"><ele>355.8</ele><time>2026-04-12T06:27:36Z</time></trkpt><trkpt lat="43.59372346972285" lon="6.869444770465766"><ele>358.4</ele><time>2026-04-12T06:27:37Z</time></trkpt><trkpt lat="43.59367922472473" lon="6.869334509338143"><ele>361.0</ele><time>2026-04-12T06:27:38Z</time></trkpt><trkpt lat="43.59362888614501" lon="6.869223422267983"><ele>361.0</ele><time>2026-04-12T06:27:39Z</time></trkpt><trkpt lat="43.593561880315065" lon="6.8691372098988"><ele>361.0</ele><time>2026-04-12T06:27:40Z</time></trkpt><trkpt lat="43.59349973341478" lon="6.869066420182553"><ele>361.0</ele><time>2026-04-12T06:27:41Z</time></trkpt><trkpt lat="43.593441683361206" lon="6.868986855381986"><ele>361.0</ele><time>2026-04-12T06:27:42Z</time></trkpt><trkpt lat="43.59342097126838" lon="6.868875400315695"><ele>361.0</ele><time>2026-04-12T06:27:43Z</time></trkpt><trkpt lat="43.59343507423913" lon="6.868753208408897"><ele>361.0</ele><time>2026-04-12T06:27:44Z</time></trkpt><trkpt lat="43.59347297486535" lon="6.868642459662269"><ele>361.0</ele><time>2026-04-12T06:27:45Z</time></trkpt><trkpt lat="43.59349847889898" lon="6.868528673216545"><ele>361.0</ele><time>2026-04-12T06:27:46Z</time></trkpt><trkpt lat="43.59351815012421" lon="6.8684050041366325"><ele>361.0</ele><time>2026-04-12T06:27:47Z</time></trkpt><trkpt lat="43.593500812506484" lon="6.868281157500104"><ele>361.0</ele><time>2026-04-12T06:27:48Z</time></trkpt><trkpt lat="43.59349910388264" lon="6.868153046715876"><ele>361.0</ele><time>2026-04-12T06:27:49Z</time></trkpt><trkpt lat="43.593501793284" lon="6.868023847690758"><ele>360.0</ele><time>2026-04-12T06:27:50Z</time></trkpt><trkpt lat="43.59351183159092" lon="6.8678958671046"><ele>359.0</ele><time>2026-04-12T06:27:51Z</time></trkpt><trkpt lat="43.593532274533004" lon="6.867766396709301"><ele>358.0</ele><time>2026-04-12T06:27:52Z</time></trkpt><trkpt lat="43.59356652341002" lon="6.867640350719971"><ele>357.0</ele><time>2026-04-12T06:27:53Z</time></trkpt><trkpt lat="43.593622952332474" lon="6.867522589327643"><ele>356.0</ele><time>2026-04-12T06:27:54Z</time></trkpt><trkpt lat="43.5937003859964" lon="6.867426623379391"><ele>349.6</ele><time>2026-04-12T06:27:55Z</time></trkpt><trkpt lat="43.593779212695964" lon="6.867359493614507"><ele>343.20000000000005</ele><time>2026-04-12T06:27:56Z</time></trkpt><trkpt lat="43.593856063196576" lon="6.867287655677246"><ele>336.79999999999995</ele><time>2026-04-12T06:27:57Z</time></trkpt><trkpt lat="43.59391211911783" lon="6.867193726241579"><ele>330.4</ele><time>2026-04-12T06:27:58Z</time></trkpt><trkpt lat="43.593947729617476" lon="6.867080069959093"><ele>324.0</ele><time>2026-04-12T06:27:59Z</time></trkpt><trkpt lat="43.59395032300135" lon="6.866956273419149"><ele>324.0</ele><time>2026-04-12T06:28:00Z</time></trkpt><trkpt lat="43.593918971487454" lon="6.866844438078597"><ele>324.0</ele><time>2026-04-12T06:28:01Z</time></trkpt><trkpt lat="43.59387585884327" lon="6.866733084884873"><ele>324.0</ele><time>2026-04-12T06:28:02Z</time></trkpt><trkpt lat="43.59378746521582" lon="6.866668994569077"><ele>324.0</ele><time>2026-04-12T06:28:03Z</time></trkpt><trkpt lat="43.59370564657668" lon="6.866617536942196"><ele>324.0</ele><time>2026-04-12T06:28:04Z</time></trkpt><trkpt lat="43.59361586337431" lon="6.866588937530619"><ele>327.0</ele><time>2026-04-12T06:28:05Z</time></trkpt><trkpt lat="43.59353245221491" lon="6.8665356172725724"><ele>330.0</ele><time>2026-04-12T06:28:06Z</time></trkpt><trkpt lat="43.59344702733473" lon="6.866475935505956"><ele>333.0</ele><time>2026-04-12T06:28:07Z</time></trkpt><trkpt lat="43.59336467848592" lon="6.866403369992669"><ele>336.0</ele><time>2026-04-12T06:28:08Z</time></trkpt><trkpt lat="43.593283600757374" lon="6.866324657540656"><ele>339.0</ele><time>2026-04-12T06:28:09Z</time></trkpt><trkpt lat="43.5932022562288" lon="6.866244404823047"><ele>339.0</ele><time>2026-04-12T06:28:10Z</time></trkpt><trkpt lat="43.593122153474305" lon="6.866155234905769"><ele>339.0</ele><time>2026-04-12T06:28:11Z</time></trkpt><trkpt lat="43.59301813997913" lon="6.866122060284569"><ele>339.0</ele><time>2026-04-12T06:28:12Z</time></trkpt><trkpt lat="43.59291897694138" lon="6.866150819241994"><ele>339.0</ele><time>2026-04-12T06:28:13Z</time></trkpt><trkpt lat="43.59283159078926" lon="6.86611585532062"><ele>339.0</ele><time>2026-04-12T06:28:14Z</time></trkpt><trkpt lat="43.59275536089754" lon="6.866044200380658"><ele>337.6</ele><time>2026-04-12T06:28:15Z</time></trkpt><trkpt lat="43.592714550036156" lon="6.865919501252583"><ele>336.2</ele><time>2026-04-12T06:28:16Z</time></trkpt><trkpt lat="43.59267745038117" lon="6.865792562386572"><ele>334.8</ele><time>2026-04-12T06:28:17Z</time></trkpt><trkpt lat="43.592624740055896" lon="6.865675788929869"><ele>333.40000000000003</ele><time>2026-04-12T06:28:18Z</time></trkpt><trkpt lat="43.592555351222835" lon="6.865569521391459"><ele>332.0</ele><time>2026-04-12T06:28:19Z</time></trkpt><trkpt lat="43.592482421167325" lon="6.865467155677886"><ele>332.0</ele><time>2026-04-12T06:28:20Z</time></trkpt><trkpt lat="43.5924101230461" lon="6.865366875540004"><ele>332.0</ele><time>2026-04-12T06:28:21Z</time></trkpt><trkpt lat="43.59236929854453" lon="6.865240812928116"><ele>332.0</ele><time>2026-04-12T06:28:22Z</time></trkpt><trkpt lat="43.59234285662251" lon="6.865102635275447"><ele>332.0</ele><time>2026-04-12T06:28:23Z</time></trkpt><trkpt lat="43.592322731895216" lon="6.86496055072835"><ele>332.0</ele><time>2026-04-12T06:28:24Z</time></trkpt><trkpt lat="43.592305017163596" lon="6.864816190766288"><ele>329.40000000000003</ele><time>2026-04-12T06:28:25Z</time></trkpt><trkpt lat="43.5922869279364" lon="6.864671229972222"><ele>326.8</ele><time>2026-04-12T06:28:26Z</time></trkpt><trkpt lat="43.592267691722384" lon="6.864521964760822"><ele>324.2</ele><time>2026-04-12T06:28:27Z</time></trkpt><trkpt lat="43.59224787953119" lon="6.864367965854854"><ele>321.6</ele><time>2026-04-12T06:28:28Z</time></trkpt><trkpt lat="43.59222703778967" lon="6.864212336609511"><ele>319.0</ele><time>2026-04-12T06:28:29Z</time></trkpt><trkpt lat="43.59220477627563" lon="6.86405512204599"><ele>317.0</ele><time>2026-04-12T06:28:30Z</time></trkpt><trkpt lat="43.59218322128502" lon="6.863911731932879"><ele>315.0</ele><time>2026-04-12T06:28:31Z</time></trkpt><trkpt lat="43.59216185892534" lon="6.863775042782417"><ele>313.0</ele><time>2026-04-12T06:28:32Z</time></trkpt><trkpt lat="43.592148695395785" lon="6.863633279942577"><ele>311.0</ele><time>2026-04-12T06:28:33Z</time></trkpt><trkpt lat="43.59214600634786" lon="6.863492419470165"><ele>309.0</ele><time>2026-04-12T06:28:34Z</time></trkpt><trkpt lat="43.5921748654566" lon="6.863352288995594"><ele>308.2</ele><time>2026-04-12T06:28:35Z</time></trkpt><trkpt lat="43.5921771568509" lon="6.863209180240323"><ele>307.4</ele><time>2026-04-12T06:28:36Z</time></trkpt><trkpt lat="43.59219442543378" lon="6.863073486865899"><ele>306.6</ele><time>2026-04-12T06:28:37Z</time></trkpt><trkpt lat="43.5922237388649" lon="6.862943349859823"><ele>305.8</ele><time>2026-04-12T06:28:38Z</time></trkpt><trkpt lat="43.592272464394675" lon="6.862821835890276"><ele>305.0</ele><time>2026-04-12T06:28:39Z</time></trkpt><trkpt lat="43.59234072987022" lon="6.862714804551787"><ele>305.0</ele><time>2026-04-12T06:28:40Z</time></trkpt><trkpt lat="43.59241543193408" lon="6.862617991390657"><ele>305.0</ele><time>2026-04-12T06:28:41Z</time></trkpt><trkpt lat="43.592485892342346" lon="6.862516866496024"><ele>305.0</ele><time>2026-04-12T06:28:42Z</time></trkpt><trkpt lat="43.59256312092612" lon="6.86242101140956"><ele>305.0</ele><time>2026-04-12T06:28:43Z</time></trkpt><trkpt lat="43.59261322440122" lon="6.862297095329743"><ele>305.0</ele><time>2026-04-12T06:28:44Z</time></trkpt><trkpt lat="43.59264924578377" lon="6.862165358444563"><ele>304.4</ele><time>2026-04-12T06:28:45Z</time></trkpt><trkpt lat="43.59271485255101" lon="6.862057852054875"><ele>303.8</ele><time>2026-04-12T06:28:46Z</time></trkpt><trkpt lat="43.592785475742964" lon="6.86195883481338"><ele>303.2</ele><time>2026-04-12T06:28:47Z</time></trkpt><trkpt lat="43.59286915492475" lon="6.861877998666987"><ele>302.6</ele><time>2026-04-12T06:28:48Z</time></trkpt><trkpt lat="43.5929635959558" lon="6.861830477953466"><ele>302.0</ele><time>2026-04-12T06:28:49Z</time></trkpt><trkpt lat="43.59305703718346" lon="6.861780359366307"><ele>302.0</ele><time>2026-04-12T06:28:50Z</time></trkpt><trkpt lat="43.59314847147746" lon="6.8617203035483625"><ele>302.0</ele><time>2026-04-12T06:28:51Z</time></trkpt><trkpt lat="43.5932303205393" lon="6.861638367407233"><ele>302.0</ele><time>2026-04-12T06:28:52Z</time></trkpt><trkpt lat="43.593317971732" lon="6.861568302065281"><ele>302.0</ele><time>2026-04-12T06:28:53Z</time></trkpt><trkpt lat="43.59338260755068" lon="6.861460806305411"><ele>302.0</ele><time>2026-04-12T06:28:54Z</time></trkpt><trkpt lat="43.59345660152544" lon="6.8613687989700365"><ele>302.0</ele><time>2026-04-12T06:28:55Z</time></trkpt><trkpt lat="43.59352607641997" lon="6.8612672657122085"><ele>302.0</ele><time>2026-04-12T06:28:56Z</time></trkpt><trkpt lat="43.59358716660177" lon="6.8611575469745505"><ele>302.0</ele><time>2026-04-12T06:28:57Z</time></trkpt><trkpt lat="43.593641202218194" lon="6.861038691617545"><ele>302.0</ele><time>2026-04-12T06:28:58Z</time></trkpt><trkpt lat="43.593691518271655" lon="6.860917816873229"><ele>302.0</ele><time>2026-04-12T06:28:59Z</time></trkpt><trkpt lat="43.59375354086125" lon="6.860806286852547"><ele>299.4</ele><time>2026-04-12T06:29:00Z</time></trkpt><trkpt lat="43.593829049904265" lon="6.8607132267728375"><ele>296.79999999999995</ele><time>2026-04-12T06:29:01Z</time></trkpt><trkpt lat="43.593911491622165" lon="6.860631215280992"><ele>294.2</ele><time>2026-04-12T06:29:02Z</time></trkpt><trkpt lat="43.594004271322504" lon="6.860569656660062"><ele>291.59999999999997</ele><time>2026-04-12T06:29:03Z</time></trkpt><trkpt lat="43.59409649209464" lon="6.860507652548438"><ele>289.0</ele><time>2026-04-12T06:29:04Z</time></trkpt><trkpt lat="43.594178916889256" lon="6.860426556528176"><ele>289.0</ele><time>2026-04-12T06:29:05Z</time></trkpt><trkpt lat="43.594236192381594" lon="6.86030068968724"><ele>289.0</ele><time>2026-04-12T06:29:06Z</time></trkpt><trkpt lat="43.59428692469646" lon="6.860178800177593"><ele>289.0</ele><time>2026-04-12T06:29:07Z</time></trkpt><trkpt lat="43.59436588281384" lon="6.860080758835348"><ele>289.0</ele><time>2026-04-12T06:29:08Z</time></trkpt><trkpt lat="43.59444713455439" lon="6.859998871978955"><ele>289.0</ele><time>2026-04-12T06:29:09Z</time></trkpt><trkpt lat="43.594527251949664" lon="6.859917332460772"><ele>288.2</ele><time>2026-04-12T06:29:10Z</time></trkpt><trkpt lat="43.594612831169265" lon="6.8598436302509995"><ele>287.4</ele><time>2026-04-12T06:29:11Z</time></trkpt><trkpt lat="43.59470091222787" lon="6.859775881925666"><ele>286.6</ele><time>2026-04-12T06:29:12Z</time></trkpt><trkpt lat="43.59479291122698" lon="6.859710218258315"><ele>285.8</ele><time>2026-04-12T06:29:13Z</time></trkpt><trkpt lat="43.594887876926514" lon="6.859644961593491"><ele>285.0</ele><time>2026-04-12T06:29:14Z</time></trkpt><trkpt lat="43.59498405051734" lon="6.859582913756928"><ele>285.0</ele><time>2026-04-12T06:29:15Z</time></trkpt><trkpt lat="43.595078063730206" lon="6.859520371112732"><ele>285.0</ele><time>2026-04-12T06:29:16Z</time></trkpt><trkpt lat="43.595175558857335" lon="6.85945531269504"><ele>285.0</ele><time>2026-04-12T06:29:17Z</time></trkpt><trkpt lat="43.595270926120286" lon="6.859387343014704"><ele>285.0</ele><time>2026-04-12T06:29:18Z</time></trkpt><trkpt lat="43.59536340095105" lon="6.859315937225588"><ele>285.0</ele><time>2026-04-12T06:29:19Z</time></trkpt><trkpt lat="43.595442600350125" lon="6.859238991474097"><ele>286.6666666666667</ele><time>2026-04-12T06:29:20Z</time></trkpt><trkpt lat="43.59551322444308" lon="6.859167220181089"><ele>288.3333333333333</ele><time>2026-04-12T06:29:21Z</time></trkpt><trkpt lat="43.595581890816305" lon="6.859089868990176"><ele>290.0</ele><time>2026-04-12T06:29:22Z</time></trkpt><trkpt lat="43.595640702852066" lon="6.85900250070472"><ele>291.66666666666663</ele><time>2026-04-12T06:29:23Z</time></trkpt><trkpt lat="43.59568295239304" lon="6.858895211787852"><ele>293.3333333333333</ele><time>2026-04-12T06:29:24Z</time></trkpt><trkpt lat="43.5957137906096" lon="6.858785920718093"><ele>295.0</ele><time>2026-04-12T06:29:25Z</time></trkpt><trkpt lat="43.59575516562408" lon="6.858684115189775"><ele>295.0</ele><time>2026-04-12T06:29:26Z</time></trkpt><trkpt lat="43.59577294435724" lon="6.8585762020570495"><ele>295.0</ele><time>2026-04-12T06:29:27Z</time></trkpt><trkpt lat="43.595828985408474" lon="6.858485029849376"><ele>295.0</ele><time>2026-04-12T06:29:28Z</time></trkpt><trkpt lat="43.595906721905905" lon="6.8584263383931825"><ele>295.0</ele><time>2026-04-12T06:29:29Z</time></trkpt><trkpt lat="43.59598918542539" lon="6.858386096759064"><ele>295.0</ele><time>2026-04-12T06:29:30Z</time></trkpt><trkpt lat="43.59606901373049" lon="6.858340991151625"><ele>295.0</ele><time>2026-04-12T06:29:31Z</time></trkpt><trkpt lat="43.596150350675835" lon="6.858289843454209"><ele>295.8</ele><time>2026-04-12T06:29:32Z</time></trkpt><trkpt lat="43.59623702110551" lon="6.858241799532051"><ele>296.6</ele><time>2026-04-12T06:29:33Z</time></trkpt><trkpt lat="43.59631250935729" lon="6.858161439698725"><ele>297.4</ele><time>2026-04-12T06:29:34Z</time></trkpt><trkpt lat="43.59640207061729" lon="6.858115500415457"><ele>298.2</ele><time>2026-04-12T06:29:35Z</time></trkpt><trkpt lat="43.596495820745794" lon="6.858076674869955"><ele>299.0</ele><time>2026-04-12T06:29:36Z</time></trkpt><trkpt lat="43.596577298817245" lon="6.8579934885585345"><ele>299.0</ele><time>2026-04-12T06:29:37Z</time></trkpt><trkpt lat="43.596648097486224" lon="6.8578930156986395"><ele>299.0</ele><time>2026-04-12T06:29:38Z</time></trkpt><trkpt lat="43.59671453334597" lon="6.857788367256386"><ele>299.0</ele><time>2026-04-12T06:29:39Z</time></trkpt><trkpt lat="43.59679811955482" lon="6.857705642571152"><ele>299.0</ele><time>2026-04-12T06:29:40Z</time></trkpt><trkpt lat="43.59689952483156" lon="6.857648631691391"><ele>299.0</ele><time>2026-04-12T06:29:41Z</time></trkpt><trkpt lat="43.59700520655464" lon="6.8576125953822755"><ele>296.8</ele><time>2026-04-12T06:29:42Z</time></trkpt><trkpt lat="43.597106643366246" lon="6.857559991901199"><ele>294.59999999999997</ele><time>2026-04-12T06:29:43Z</time></trkpt><trkpt lat="43.59720139063057" lon="6.857483752948242"><ele>292.4</ele><time>2026-04-12T06:29:44Z</time></trkpt><trkpt lat="43.59728351653659" lon="6.857388107339777"><ele>290.2</ele><time>2026-04-12T06:29:45Z</time></trkpt><trkpt lat="43.59736402065097" lon="6.857300409047269"><ele>288.0</ele><time>2026-04-12T06:29:46Z</time></trkpt><trkpt lat="43.5974646746926" lon="6.857241846273052"><ele>288.0</ele><time>2026-04-12T06:29:47Z</time></trkpt><trkpt lat="43.59757338581876" lon="6.857210123947519"><ele>288.0</ele><time>2026-04-12T06:29:48Z</time></trkpt><trkpt lat="43.597685391377496" lon="6.857207185484136"><ele>288.0</ele><time>2026-04-12T06:29:49Z</time></trkpt><trkpt lat="43.59779918130032" lon="6.857230627947691"><ele>288.0</ele><time>2026-04-12T06:29:50Z</time></trkpt><trkpt lat="43.59791205541011" lon="6.857250778829106"><ele>287.2</ele><time>2026-04-12T06:29:51Z</time></trkpt><trkpt lat="43.59802670185844" lon="6.85723807084506"><ele>286.4</ele><time>2026-04-12T06:29:52Z</time></trkpt><trkpt lat="43.59813867145351" lon="6.8571940465308145"><ele>285.59999999999997</ele><time>2026-04-12T06:29:53Z</time></trkpt><trkpt lat="43.59823714979962" lon="6.85714205278605"><ele>284.8</ele><time>2026-04-12T06:29:54Z</time></trkpt><trkpt lat="43.598320618642724" lon="6.85706923969819"><ele>284.0</ele><time>2026-04-12T06:29:55Z</time></trkpt><trkpt lat="43.59839627332128" lon="6.856960729073662"><ele>284.0</ele><time>2026-04-12T06:29:56Z</time></trkpt><trkpt lat="43.59846172346937" lon="6.856844797185954"><ele>284.0</ele><time>2026-04-12T06:29:57Z</time></trkpt><trkpt lat="43.59853624948299" lon="6.85678389840575"><ele>284.0</ele><time>2026-04-12T06:29:58Z</time></trkpt><trkpt lat="43.59860239325395" lon="6.856751666127325"><ele>284.0</ele><time>2026-04-12T06:29:59Z</time></trkpt><trkpt lat="43.598686272333296" lon="6.85665917869002"><ele>284.0</ele><time>2026-04-12T06:30:01Z</time></trkpt><trkpt lat="43.5987304141673" lon="6.8565027430382735"><ele>281.2</ele><time>2026-04-12T06:30:03Z</time></trkpt><trkpt lat="43.59866699856642" lon="6.8564170624785055"><ele>278.4</ele><time>2026-04-12T06:30:04Z</time></trkpt><trkpt lat="43.598600462085855" lon="6.8563814084148555"><ele>275.6</ele><time>2026-04-12T06:30:05Z</time></trkpt><trkpt lat="43.598493796917175" lon="6.856519547273118"><ele>272.8</ele><time>2026-04-12T06:30:06Z</time></trkpt><trkpt lat="43.59843555276651" lon="6.856577322685321"><ele>270.0</ele><time>2026-04-12T06:30:07Z</time></trkpt><trkpt lat="43.598379587852435" lon="6.856641099518758"><ele>270.0</ele><time>2026-04-12T06:30:08Z</time></trkpt><trkpt lat="43.598321893807686" lon="6.856707437107524"><ele>270.0</ele><time>2026-04-12T06:30:09Z</time></trkpt><trkpt lat="43.59826093686023" lon="6.856771402626487"><ele>270.0</ele><time>2026-04-12T06:30:10Z</time></trkpt><trkpt lat="43.598192587446114" lon="6.856827925349642"><ele>270.0</ele><time>2026-04-12T06:30:11Z</time></trkpt><trkpt lat="43.598117276257796" lon="6.856865020849212"><ele>270.0</ele><time>2026-04-12T06:30:12Z</time></trkpt><trkpt lat="43.598029611038434" lon="6.856847236683752"><ele>270.0</ele><time>2026-04-12T06:30:13Z</time></trkpt><trkpt lat="43.59794495701757" lon="6.856826816057515"><ele>268.6</ele><time>2026-04-12T06:30:14Z</time></trkpt><trkpt lat="43.597854598607526" lon="6.856825554419563"><ele>267.2</ele><time>2026-04-12T06:30:15Z</time></trkpt><trkpt lat="43.597766678710634" lon="6.856801298535914"><ele>265.8</ele><time>2026-04-12T06:30:16Z</time></trkpt><trkpt lat="43.59767617267763" lon="6.856781169959067"><ele>264.4</ele><time>2026-04-12T06:30:17Z</time></trkpt><trkpt lat="43.597581286270916" lon="6.856757344501823"><ele>263.0</ele><time>2026-04-12T06:30:18Z</time></trkpt><trkpt lat="43.59748137634794" lon="6.856731182422866"><ele>263.0</ele><time>2026-04-12T06:30:19Z</time></trkpt><trkpt lat="43.597379529058024" lon="6.856703229696389"><ele>263.0</ele><time>2026-04-12T06:30:20Z</time></trkpt><trkpt lat="43.59727615642021" lon="6.856677406891396"><ele>263.0</ele><time>2026-04-12T06:30:21Z</time></trkpt><trkpt lat="43.59717673112365" lon="6.856651513836468"><ele>263.0</ele><time>2026-04-12T06:30:22Z</time></trkpt><trkpt lat="43.597079361432954" lon="6.856635392829685"><ele>263.0</ele><time>2026-04-12T06:30:23Z</time></trkpt><trkpt lat="43.59697450912164" lon="6.8566664853165165"><ele>260.4</ele><time>2026-04-12T06:30:24Z</time></trkpt><trkpt lat="43.59687449787502" lon="6.856719740796721"><ele>257.8</ele><time>2026-04-12T06:30:25Z</time></trkpt><trkpt lat="43.59677637056129" lon="6.856787554916412"><ele>255.2</ele><time>2026-04-12T06:30:26Z</time></trkpt><trkpt lat="43.59667551501182" lon="6.856856778294412"><ele>252.6</ele><time>2026-04-12T06:30:27Z</time></trkpt><trkpt lat="43.59657190947611" lon="6.856924251388811"><ele>250.0</ele><time>2026-04-12T06:30:28Z</time></trkpt><trkpt lat="43.59646654950554" lon="6.8569893560605575"><ele>252.0</ele><time>2026-04-12T06:30:29Z</time></trkpt><trkpt lat="43.59635889299958" lon="6.857058392181452"><ele>254.0</ele><time>2026-04-12T06:30:30Z</time></trkpt><trkpt lat="43.59624681477724" lon="6.857125391447991"><ele>256.0</ele><time>2026-04-12T06:30:31Z</time></trkpt><trkpt lat="43.59613456147456" lon="6.857190079470911"><ele>258.0</ele><time>2026-04-12T06:30:32Z</time></trkpt><trkpt lat="43.596020736923805" lon="6.857234017001813"><ele>258.0</ele><time>2026-04-12T06:30:33Z</time></trkpt><trkpt lat="43.595931910893476" lon="6.857317286871352"><ele>258.0</ele><time>2026-04-12T06:30:34Z</time></trkpt><trkpt lat="43.59584192088576" lon="6.857370848955003"><ele>258.0</ele><time>2026-04-12T06:30:35Z</time></trkpt><trkpt lat="43.59574814944554" lon="6.8573808569879615"><ele>258.0</ele><time>2026-04-12T06:30:36Z</time></trkpt><trkpt lat="43.595656335619765" lon="6.857319777503199"><ele>258.0</ele><time>2026-04-12T06:30:37Z</time></trkpt><trkpt lat="43.59556171666324" lon="6.857298414093244"><ele>258.0</ele><time>2026-04-12T06:30:38Z</time></trkpt><trkpt lat="43.595466372514935" lon="6.857354909144937"><ele>258.0</ele><time>2026-04-12T06:30:39Z</time></trkpt><trkpt lat="43.59537598944306" lon="6.857416583366335"><ele>258.0</ele><time>2026-04-12T06:30:40Z</time></trkpt><trkpt lat="43.59528436594858" lon="6.857485732483296"><ele>258.0</ele><time>2026-04-12T06:30:41Z</time></trkpt><trkpt lat="43.59518898852585" lon="6.857555873505585"><ele>258.0</ele><time>2026-04-12T06:30:42Z</time></trkpt><trkpt lat="43.59509509234285" lon="6.857629663601247"><ele>260.0</ele><time>2026-04-12T06:30:43Z</time></trkpt><trkpt lat="43.59501032541249" lon="6.8577057313487275"><ele>262.0</ele><time>2026-04-12T06:30:44Z</time></trkpt><trkpt lat="43.594932520985054" lon="6.857789211854012"><ele>264.0</ele><time>2026-04-12T06:30:45Z</time></trkpt><trkpt lat="43.59486387430928" lon="6.857865139648498"><ele>266.0</ele><time>2026-04-12T06:30:46Z</time></trkpt><trkpt lat="43.59477185872828" lon="6.8578842690838755"><ele>268.0</ele><time>2026-04-12T06:30:47Z</time></trkpt><trkpt lat="43.59467682817187" lon="6.857869128502391"><ele>268.0</ele><time>2026-04-12T06:30:48Z</time></trkpt><trkpt lat="43.59457377811363" lon="6.8578662396961825"><ele>268.0</ele><time>2026-04-12T06:30:49Z</time></trkpt><trkpt lat="43.594487906345734" lon="6.85787628047799"><ele>268.0</ele><time>2026-04-12T06:30:50Z</time></trkpt><trkpt lat="43.59441495230198" lon="6.857898686021236"><ele>268.0</ele><time>2026-04-12T06:30:51Z</time></trkpt><trkpt lat="43.59434815609049" lon="6.857865620494885"><ele>268.0</ele><time>2026-04-12T06:30:52Z</time></trkpt><trkpt lat="43.5942901011397" lon="6.857784282263246"><ele>268.0</ele><time>2026-04-12T06:30:53Z</time></trkpt><trkpt lat="43.59428164593663" lon="6.857665306468341"><ele>263.4</ele><time>2026-04-12T06:30:54Z</time></trkpt><trkpt lat="43.59425681953645" lon="6.857553677904846"><ele>258.8</ele><time>2026-04-12T06:30:55Z</time></trkpt><trkpt lat="43.59420280547604" lon="6.8574536049924015"><ele>254.2</ele><time>2026-04-12T06:30:56Z</time></trkpt><trkpt lat="43.59414913746604" lon="6.8573488820828405"><ele>249.6</ele><time>2026-04-12T06:30:57Z</time></trkpt><trkpt lat="43.59408643407203" lon="6.857249210109534"><ele>245.0</ele><time>2026-04-12T06:30:58Z</time></trkpt><trkpt lat="43.594040273773324" lon="6.8571307615849895"><ele>245.0</ele><time>2026-04-12T06:30:59Z</time></trkpt><trkpt lat="43.59404751535961" lon="6.856975149880463"><ele>245.0</ele><time>2026-04-12T06:31:00Z</time></trkpt><trkpt lat="43.5939850419474" lon="6.8568602731434325"><ele>245.0</ele><time>2026-04-12T06:31:01Z</time></trkpt><trkpt lat="43.59393570950335" lon="6.856743039170993"><ele>245.0</ele><time>2026-04-12T06:31:02Z</time></trkpt><trkpt lat="43.59388252513261" lon="6.856638157692385"><ele>245.0</ele><time>2026-04-12T06:31:03Z</time></trkpt><trkpt lat="43.59380621077164" lon="6.856549015263156"><ele>244.2</ele><time>2026-04-12T06:31:04Z</time></trkpt><trkpt lat="43.593708086266425" lon="6.85648647751274"><ele>243.4</ele><time>2026-04-12T06:31:05Z</time></trkpt><trkpt lat="43.59360084187302" lon="6.856450548593743"><ele>242.60000000000002</ele><time>2026-04-12T06:31:06Z</time></trkpt><trkpt lat="43.59349889054466" lon="6.856438254571091"><ele>241.8</ele><time>2026-04-12T06:31:07Z</time></trkpt><trkpt lat="43.59340577950668" lon="6.856406186190888"><ele>241.0</ele><time>2026-04-12T06:31:08Z</time></trkpt><trkpt lat="43.59332724027497" lon="6.85638529701913"><ele>240.99999999999997</ele><time>2026-04-12T06:31:09Z</time></trkpt><trkpt lat="43.5932694731998" lon="6.856345486170398"><ele>241.0</ele><time>2026-04-12T06:31:10Z</time></trkpt><trkpt lat="43.59321521751037" lon="6.85622896740507"><ele>241.0</ele><time>2026-04-12T06:31:12Z</time></trkpt><trkpt lat="43.59332468319456" lon="6.85625501371867"><ele>241.0</ele><time>2026-04-12T06:31:16Z</time></trkpt><trkpt lat="43.59338111209426" lon="6.85629713397167"><ele>240.99999999999997</ele><time>2026-04-12T06:31:17Z</time></trkpt><trkpt lat="43.59345195622296" lon="6.856311901083361"><ele>241.0</ele><time>2026-04-12T06:31:18Z</time></trkpt><trkpt lat="43.593522245370664" lon="6.856324053477732"><ele>240.99999999999997</ele><time>2026-04-12T06:31:19Z</time></trkpt><trkpt lat="43.59359323661099" lon="6.856320962774734"><ele>241.0</ele><time>2026-04-12T06:31:20Z</time></trkpt><trkpt lat="43.593666831095945" lon="6.856312050493614"><ele>241.0</ele><time>2026-04-12T06:31:21Z</time></trkpt><trkpt lat="43.59374116602705" lon="6.856307021126"><ele>241.0</ele><time>2026-04-12T06:31:22Z</time></trkpt><trkpt lat="43.593818040495194" lon="6.856316425670228"><ele>240.99999999999997</ele><time>2026-04-12T06:31:23Z</time></trkpt><trkpt lat="43.593893970389054" lon="6.856344465777527"><ele>241.0</ele><time>2026-04-12T06:31:24Z</time></trkpt><trkpt lat="43.593961719765964" lon="6.8564073367689105"><ele>241.66666666666666</ele><time>2026-04-12T06:31:25Z</time></trkpt><trkpt lat="43.594025483627014" lon="6.8564746989226215"><ele>242.33333333333331</ele><time>2026-04-12T06:31:26Z</time></trkpt><trkpt lat="43.59407477240102" lon="6.856555978651765"><ele>243.0</ele><time>2026-04-12T06:31:27Z</time></trkpt><trkpt lat="43.59412381133849" lon="6.856643084477538"><ele>243.66666666666669</ele><time>2026-04-12T06:31:28Z</time></trkpt><trkpt lat="43.59417302982925" lon="6.856725435610235"><ele>244.33333333333334</ele><time>2026-04-12T06:31:29Z</time></trkpt><trkpt lat="43.594220731635566" lon="6.85680911913606"><ele>245.0</ele><time>2026-04-12T06:31:30Z</time></trkpt><trkpt lat="43.59425540208021" lon="6.856907991789154"><ele>245.00000000000003</ele><time>2026-04-12T06:31:31Z</time></trkpt><trkpt lat="43.59428318340605" lon="6.857012885975911"><ele>245.0</ele><time>2026-04-12T06:31:32Z</time></trkpt><trkpt lat="43.59430828388715" lon="6.857118076890031"><ele>245.0</ele><time>2026-04-12T06:31:33Z</time></trkpt><trkpt lat="43.59434388092954" lon="6.857213808137285"><ele>245.0</ele><time>2026-04-12T06:31:34Z</time></trkpt><trkpt lat="43.59439747989641" lon="6.8572920014202134"><ele>245.00000000000003</ele><time>2026-04-12T06:31:35Z</time></trkpt><trkpt lat="43.59447107637045" lon="6.85734258016391"><ele>245.0</ele><time>2026-04-12T06:31:36Z</time></trkpt><trkpt lat="43.59455694847394" lon="6.857359982674525"><ele>243.8</ele><time>2026-04-12T06:31:37Z</time></trkpt><trkpt lat="43.5946471812417" lon="6.85732377883555"><ele>242.6</ele><time>2026-04-12T06:31:38Z</time></trkpt><trkpt lat="43.594726003451626" lon="6.857244240235036"><ele>241.39999999999998</ele><time>2026-04-12T06:31:39Z</time></trkpt><trkpt lat="43.59479094531955" lon="6.8571487303744965"><ele>240.2</ele><time>2026-04-12T06:31:40Z</time></trkpt><trkpt lat="43.59485607095144" lon="6.857056416705597"><ele>239.0</ele><time>2026-04-12T06:31:41Z</time></trkpt><trkpt lat="43.594942023370905" lon="6.8569903672402335"><ele>239.0</ele><time>2026-04-12T06:31:42Z</time></trkpt><trkpt lat="43.595009363749135" lon="6.856887233379207"><ele>238.99999999999997</ele><time>2026-04-12T06:31:43Z</time></trkpt><trkpt lat="43.59508572953325" lon="6.856795124080621"><ele>238.99999999999997</ele><time>2026-04-12T06:31:44Z</time></trkpt><trkpt lat="43.595162158413615" lon="6.856698327511245"><ele>239.0</ele><time>2026-04-12T06:31:45Z</time></trkpt><trkpt lat="43.59524457820797" lon="6.856600623527586"><ele>239.0</ele><time>2026-04-12T06:31:46Z</time></trkpt><trkpt lat="43.59533562015137" lon="6.856515961175429"><ele>235.75</ele><time>2026-04-12T06:31:47Z</time></trkpt><trkpt lat="43.595439429845854" lon="6.856454501641565"><ele>232.5</ele><time>2026-04-12T06:31:48Z</time></trkpt><trkpt lat="43.59555322350367" lon="6.856421546956481"><ele>229.25</ele><time>2026-04-12T06:31:49Z</time></trkpt><trkpt lat="43.59566863114783" lon="6.856390546945692"><ele>226.0</ele><time>2026-04-12T06:31:50Z</time></trkpt><trkpt lat="43.5957748805711" lon="6.8563205242039205"><ele>226.0</ele><time>2026-04-12T06:31:51Z</time></trkpt><trkpt lat="43.595878428793036" lon="6.856245387260945"><ele>226.0</ele><time>2026-04-12T06:31:52Z</time></trkpt><trkpt lat="43.59598465005647" lon="6.8561751967427496"><ele>226.0</ele><time>2026-04-12T06:31:53Z</time></trkpt><trkpt lat="43.596089492450155" lon="6.8560991180899205"><ele>226.0</ele><time>2026-04-12T06:31:54Z</time></trkpt><trkpt lat="43.59618148292001" lon="6.855995433735884"><ele>224.4</ele><time>2026-04-12T06:31:55Z</time></trkpt><trkpt lat="43.596259727832376" lon="6.8558663626061325"><ele>222.8</ele><time>2026-04-12T06:31:56Z</time></trkpt><trkpt lat="43.596333306007836" lon="6.855731936790556"><ele>221.20000000000002</ele><time>2026-04-12T06:31:57Z</time></trkpt><trkpt lat="43.5964027949505" lon="6.8556192362013935"><ele>219.60000000000002</ele><time>2026-04-12T06:31:58Z</time></trkpt><trkpt lat="43.59647057573012" lon="6.855532807212981"><ele>218.0</ele><time>2026-04-12T06:31:59Z</time></trkpt><trkpt lat="43.59654311544416" lon="6.855437257234484"><ele>218.00000000000003</ele><time>2026-04-12T06:32:00Z</time></trkpt><trkpt lat="43.59662532996098" lon="6.855356742470652"><ele>218.0</ele><time>2026-04-12T06:32:01Z</time></trkpt><trkpt lat="43.59671733452867" lon="6.855303953969554"><ele>218.0</ele><time>2026-04-12T06:32:02Z</time></trkpt><trkpt lat="43.59680578235417" lon="6.855289195915862"><ele>218.0</ele><time>2026-04-12T06:32:03Z</time></trkpt><trkpt lat="43.59688500099099" lon="6.855302327976218"><ele>218.00000000000003</ele><time>2026-04-12T06:32:04Z</time></trkpt><trkpt lat="43.596955957361345" lon="6.855288167506047"><ele>218.0</ele><time>2026-04-12T06:32:05Z</time></trkpt><trkpt lat="43.597033569534766" lon="6.855242974663563"><ele>219.2</ele><time>2026-04-12T06:32:06Z</time></trkpt><trkpt lat="43.5970911031466" lon="6.855132861177423"><ele>220.4</ele><time>2026-04-12T06:32:07Z</time></trkpt><trkpt lat="43.597103572852866" lon="6.854996814875568"><ele>221.59999999999997</ele><time>2026-04-12T06:32:08Z</time></trkpt><trkpt lat="43.59709088167752" lon="6.8548731919848835"><ele>222.79999999999998</ele><time>2026-04-12T06:32:09Z</time></trkpt><trkpt lat="43.59709571335226" lon="6.854751217243681"><ele>224.0</ele><time>2026-04-12T06:32:10Z</time></trkpt><trkpt lat="43.59711830199177" lon="6.854626441957152"><ele>224.0</ele><time>2026-04-12T06:32:11Z</time></trkpt><trkpt lat="43.597126014430636" lon="6.854497005260457"><ele>223.99999999999997</ele><time>2026-04-12T06:32:12Z</time></trkpt><trkpt lat="43.597133349073395" lon="6.854364827494032"><ele>223.99999999999997</ele><time>2026-04-12T06:32:13Z</time></trkpt><trkpt lat="43.59713941498572" lon="6.8542294422399035"><ele>224.0</ele><time>2026-04-12T06:32:14Z</time></trkpt><trkpt lat="43.59714460010436" lon="6.8540918771743575"><ele>224.0</ele><time>2026-04-12T06:32:15Z</time></trkpt><trkpt lat="43.597141771407465" lon="6.853945922924709"><ele>222.6</ele><time>2026-04-12T06:32:16Z</time></trkpt><trkpt lat="43.59713437660301" lon="6.853800624914856"><ele>221.2</ele><time>2026-04-12T06:32:17Z</time></trkpt><trkpt lat="43.59712706106095" lon="6.85365688448726"><ele>219.79999999999998</ele><time>2026-04-12T06:32:18Z</time></trkpt><trkpt lat="43.59711088659655" lon="6.853521420563232"><ele>218.39999999999998</ele><time>2026-04-12T06:32:19Z</time></trkpt><trkpt lat="43.59712388446385" lon="6.8533988553141665"><ele>217.0</ele><time>2026-04-12T06:32:20Z</time></trkpt><trkpt lat="43.597174373395134" lon="6.853298705582607"><ele>213.0</ele><time>2026-04-12T06:32:21Z</time></trkpt><trkpt lat="43.597239823459105" lon="6.853205711741099"><ele>209.0</ele><time>2026-04-12T06:32:22Z</time></trkpt><trkpt lat="43.5973185224206" lon="6.853131266800213"><ele>205.0</ele><time>2026-04-12T06:32:23Z</time></trkpt><trkpt lat="43.59740590547355" lon="6.853071219824683"><ele>201.0</ele><time>2026-04-12T06:32:24Z</time></trkpt><trkpt lat="43.59749194285461" lon="6.853012737484745"><ele>197.0</ele><time>2026-04-12T06:32:25Z</time></trkpt><trkpt lat="43.59758401374433" lon="6.852956810051281"><ele>197.0</ele><time>2026-04-12T06:32:26Z</time></trkpt><trkpt lat="43.59767550008339" lon="6.85290574165129"><ele>197.0</ele><time>2026-04-12T06:32:27Z</time></trkpt><trkpt lat="43.5977647233941" lon="6.852839058392486"><ele>197.0</ele><time>2026-04-12T06:32:28Z</time></trkpt><trkpt lat="43.59783735653748" lon="6.852725724276778"><ele>197.0</ele><time>2026-04-12T06:32:29Z</time></trkpt><trkpt lat="43.597876816761215" lon="6.852577842774778"><ele>197.0</ele><time>2026-04-12T06:32:30Z</time></trkpt><trkpt lat="43.597899020263945" lon="6.852439167037879"><ele>197.6</ele><time>2026-04-12T06:32:31Z</time></trkpt><trkpt lat="43.59796143075081" lon="6.85231952363003"><ele>198.2</ele><time>2026-04-12T06:32:32Z</time></trkpt><trkpt lat="43.59804623746282" lon="6.852226780911726"><ele>198.8</ele><time>2026-04-12T06:32:33Z</time></trkpt><trkpt lat="43.59813611764384" lon="6.852160891440035"><ele>199.4</ele><time>2026-04-12T06:32:34Z</time></trkpt><trkpt lat="43.598211811086216" lon="6.852103499169614"><ele>200.0</ele><time>2026-04-12T06:32:35Z</time></trkpt><trkpt lat="43.59827220318418" lon="6.852027519252456"><ele>200.00000000000003</ele><time>2026-04-12T06:32:36Z</time></trkpt><trkpt lat="43.59833342533165" lon="6.851960628021633"><ele>200.0</ele><time>2026-04-12T06:32:37Z</time></trkpt><trkpt lat="43.59834888004711" lon="6.851845632990611"><ele>200.0</ele><time>2026-04-12T06:32:38Z</time></trkpt><trkpt lat="43.59829607650003" lon="6.85172495341463"><ele>200.0</ele><time>2026-04-12T06:32:39Z</time></trkpt><trkpt lat="43.598231600563" lon="6.851631611234664"><ele>200.00000000000003</ele><time>2026-04-12T06:32:40Z</time></trkpt><trkpt lat="43.59816267184399" lon="6.851552386756882"><ele>200.0</ele><time>2026-04-12T06:32:41Z</time></trkpt><trkpt lat="43.59811561418702" lon="6.85145031385563"><ele>197.8</ele><time>2026-04-12T06:32:42Z</time></trkpt><trkpt lat="43.59806734099247" lon="6.851349206260108"><ele>195.6</ele><time>2026-04-12T06:32:43Z</time></trkpt><trkpt lat="43.598024390854995" lon="6.851233574933992"><ele>193.39999999999998</ele><time>2026-04-12T06:32:44Z</time></trkpt><trkpt lat="43.597962933978266" lon="6.851127523180903"><ele>191.2</ele><time>2026-04-12T06:32:45Z</time></trkpt><trkpt lat="43.59788656013142" lon="6.851037187296839"><ele>189.0</ele><time>2026-04-12T06:32:46Z</time></trkpt><trkpt lat="43.597790574401905" lon="6.8509810219369225"><ele>183.79999999999998</ele><time>2026-04-12T06:32:47Z</time></trkpt><trkpt lat="43.59772301521404" lon="6.850874303308514"><ele>178.6</ele><time>2026-04-12T06:32:48Z</time></trkpt><trkpt lat="43.5976520393829" lon="6.850775251102927"><ele>173.4</ele><time>2026-04-12T06:32:49Z</time></trkpt><trkpt lat="43.59758064315755" lon="6.8506717335518745"><ele>168.2</ele><time>2026-04-12T06:32:50Z</time></trkpt><trkpt lat="43.59751681421857" lon="6.850570704507781"><ele>163.0</ele><time>2026-04-12T06:32:51Z</time></trkpt><trkpt lat="43.597458492571654" lon="6.850468513343277"><ele>163.0</ele><time>2026-04-12T06:32:52Z</time></trkpt><trkpt lat="43.59739818412699" lon="6.850363768045959"><ele>163.0</ele><time>2026-04-12T06:32:53Z</time></trkpt><trkpt lat="43.597366322041154" lon="6.850224578274121"><ele>163.0</ele><time>2026-04-12T06:32:54Z</time></trkpt><trkpt lat="43.5973530504958" lon="6.850077903509855"><ele>163.0</ele><time>2026-04-12T06:32:55Z</time></trkpt><trkpt lat="43.5973640708337" lon="6.849926853251868"><ele>163.0</ele><time>2026-04-12T06:32:56Z</time></trkpt><trkpt lat="43.5973915249876" lon="6.849775794910508"><ele>164.25</ele><time>2026-04-12T06:32:57Z</time></trkpt><trkpt lat="43.597447625362925" lon="6.849640904173915"><ele>165.5</ele><time>2026-04-12T06:32:58Z</time></trkpt><trkpt lat="43.59748426966253" lon="6.849490487649278"><ele>166.75</ele><time>2026-04-12T06:32:59Z</time></trkpt><trkpt lat="43.59755167814546" lon="6.849358308846018"><ele>168.0</ele><time>2026-04-12T06:33:00Z</time></trkpt><trkpt lat="43.59762862670574" lon="6.849230907777552"><ele>169.0</ele><time>2026-04-12T06:33:01Z</time></trkpt><trkpt lat="43.59771690782693" lon="6.849111989261463"><ele>170.0</ele><time>2026-04-12T06:33:02Z</time></trkpt><trkpt lat="43.597805509355844" lon="6.849015447951942"><ele>171.0</ele><time>2026-04-12T06:33:03Z</time></trkpt><trkpt lat="43.597906210543975" lon="6.84894119446011"><ele>172.0</ele><time>2026-04-12T06:33:04Z</time></trkpt><trkpt lat="43.598010277327184" lon="6.8488889264534025"><ele>172.0</ele><time>2026-04-12T06:33:05Z</time></trkpt><trkpt lat="43.598115221249486" lon="6.848853102191227"><ele>172.0</ele><time>2026-04-12T06:33:06Z</time></trkpt><trkpt lat="43.59821095838196" lon="6.848826967307351"><ele>172.0</ele><time>2026-04-12T06:33:07Z</time></trkpt><trkpt lat="43.598293339155624" lon="6.848775803590456"><ele>172.0</ele><time>2026-04-12T06:33:08Z</time></trkpt><trkpt lat="43.598359359102496" lon="6.84869567720421"><ele>172.0</ele><time>2026-04-12T06:33:09Z</time></trkpt><trkpt lat="43.59840351348046" lon="6.8485843809473845"><ele>172.0</ele><time>2026-04-12T06:33:10Z</time></trkpt><trkpt lat="43.59842489908732" lon="6.8484615104690585"><ele>172.0</ele><time>2026-04-12T06:33:11Z</time></trkpt><trkpt lat="43.59843010682571" lon="6.848332461650346"><ele>172.0</ele><time>2026-04-12T06:33:12Z</time></trkpt><trkpt lat="43.59843635272014" lon="6.848200811241492"><ele>172.0</ele><time>2026-04-12T06:33:13Z</time></trkpt><trkpt lat="43.59846242175525" lon="6.8480670354063715"><ele>172.0</ele><time>2026-04-12T06:33:14Z</time></trkpt><trkpt lat="43.59845669378641" lon="6.847925690113317"><ele>168.0</ele><time>2026-04-12T06:33:15Z</time></trkpt><trkpt lat="43.59847082825747" lon="6.847782912904434"><ele>164.0</ele><time>2026-04-12T06:33:16Z</time></trkpt><trkpt lat="43.59848156169366" lon="6.847636244065344"><ele>160.0</ele><time>2026-04-12T06:33:17Z</time></trkpt><trkpt lat="43.598490099430904" lon="6.847484145881504"><ele>156.0</ele><time>2026-04-12T06:33:18Z</time></trkpt><trkpt lat="43.598499469490505" lon="6.847331108800226"><ele>152.0</ele><time>2026-04-12T06:33:19Z</time></trkpt><trkpt lat="43.59852222656801" lon="6.84717998206224"><ele>150.2</ele><time>2026-04-12T06:33:20Z</time></trkpt><trkpt lat="43.59850890836047" lon="6.847043965159799"><ele>148.39999999999998</ele><time>2026-04-12T06:33:21Z</time></trkpt><trkpt lat="43.59852555061803" lon="6.846919863761178"><ele>146.60000000000002</ele><time>2026-04-12T06:33:22Z</time></trkpt><trkpt lat="43.59852777776792" lon="6.846799975873544"><ele>144.8</ele><time>2026-04-12T06:33:23Z</time></trkpt><trkpt lat="43.59852842751649" lon="6.846682352909988"><ele>143.0</ele><time>2026-04-12T06:33:24Z</time></trkpt><trkpt lat="43.598571915799745" lon="6.846575209032957"><ele>142.20000000000002</ele><time>2026-04-12T06:33:25Z</time></trkpt><trkpt lat="43.598645496178484" lon="6.846491560987278"><ele>141.4</ele><time>2026-04-12T06:33:26Z</time></trkpt><trkpt lat="43.5987444063947" lon="6.846450640597243"><ele>140.60000000000002</ele><time>2026-04-12T06:33:27Z</time></trkpt><trkpt lat="43.5988469797188" lon="6.846444412797141"><ele>139.8</ele><time>2026-04-12T06:33:28Z</time></trkpt><trkpt lat="43.598946190113516" lon="6.846460327513657"><ele>139.0</ele><time>2026-04-12T06:33:29Z</time></trkpt><trkpt lat="43.59903372327857" lon="6.846495229821618"><ele>139.0</ele><time>2026-04-12T06:33:30Z</time></trkpt><trkpt lat="43.59910689112523" lon="6.846555276790806"><ele>139.0</ele><time>2026-04-12T06:33:31Z</time></trkpt><trkpt lat="43.59916027246108" lon="6.846658330279224"><ele>139.0</ele><time>2026-04-12T06:33:32Z</time></trkpt><trkpt lat="43.59915341154973" lon="6.846800675742782"><ele>139.0</ele><time>2026-04-12T06:33:33Z</time></trkpt><trkpt lat="43.599174290485" lon="6.846928191619711"><ele>139.0</ele><time>2026-04-12T06:33:34Z</time></trkpt><trkpt lat="43.599200089011255" lon="6.847041757941263"><ele>141.83333333333334</ele><time>2026-04-12T06:33:35Z</time></trkpt><trkpt lat="43.59925896820343" lon="6.847133308020738"><ele>144.66666666666669</ele><time>2026-04-12T06:33:36Z</time></trkpt><trkpt lat="43.599336664193174" lon="6.847181808299893"><ele>147.5</ele><time>2026-04-12T06:33:37Z</time></trkpt><trkpt lat="43.59942401037784" lon="6.847173115643839"><ele>150.33333333333334</ele><time>2026-04-12T06:33:38Z</time></trkpt><trkpt lat="43.59950498350569" lon="6.847115237672955"><ele>153.16666666666666</ele><time>2026-04-12T06:33:39Z</time></trkpt><trkpt lat="43.599578992605245" lon="6.847054477122477"><ele>156.0</ele><time>2026-04-12T06:33:40Z</time></trkpt><trkpt lat="43.59965364955844" lon="6.846993315283767"><ele>158.0</ele><time>2026-04-12T06:33:41Z</time></trkpt><trkpt lat="43.599733037013586" lon="6.846933858330253"><ele>160.0</ele><time>2026-04-12T06:33:42Z</time></trkpt><trkpt lat="43.59980987983228" lon="6.846866440835109"><ele>162.0</ele><time>2026-04-12T06:33:43Z</time></trkpt><trkpt lat="43.59988997460106" lon="6.846797654939677"><ele>164.0</ele><time>2026-04-12T06:33:44Z</time></trkpt><trkpt lat="43.599971909726264" lon="6.846730224922671"><ele>166.0</ele><time>2026-04-12T06:33:45Z</time></trkpt><trkpt lat="43.60005729602779" lon="6.846662308001365"><ele>160.60000000000002</ele><time>2026-04-12T06:33:46Z</time></trkpt><trkpt lat="43.60014605723964" lon="6.84659514163984"><ele>155.20000000000002</ele><time>2026-04-12T06:33:47Z</time></trkpt><trkpt lat="43.600238858935846" lon="6.846537431718636"><ele>149.8</ele><time>2026-04-12T06:33:48Z</time></trkpt><trkpt lat="43.60034258072279" lon="6.846499147892306"><ele>144.4</ele><time>2026-04-12T06:33:49Z</time></trkpt><trkpt lat="43.600451062331345" lon="6.846484509542712"><ele>139.0</ele><time>2026-04-12T06:33:50Z</time></trkpt><trkpt lat="43.6005617028712" lon="6.846476390732928"><ele>139.0</ele><time>2026-04-12T06:33:51Z</time></trkpt><trkpt lat="43.60067100181026" lon="6.846465151857689"><ele>139.0</ele><time>2026-04-12T06:33:52Z</time></trkpt><trkpt lat="43.60078105267171" lon="6.846444564253326"><ele>139.0</ele><time>2026-04-12T06:33:53Z</time></trkpt><trkpt lat="43.60088929020696" lon="6.846412494793151"><ele>139.0</ele><time>2026-04-12T06:33:54Z</time></trkpt><trkpt lat="43.60099846529307" lon="6.846372732347546"><ele>139.0</ele><time>2026-04-12T06:33:55Z</time></trkpt><trkpt lat="43.60110526068469" lon="6.8463203476763015"><ele>139.0</ele><time>2026-04-12T06:33:56Z</time></trkpt><trkpt lat="43.60120670046237" lon="6.846249106513682"><ele>139.0</ele><time>2026-04-12T06:33:57Z</time></trkpt><trkpt lat="43.60131006597768" lon="6.846181283229368"><ele>139.0</ele><time>2026-04-12T06:33:58Z</time></trkpt><trkpt lat="43.60141193082944" lon="6.84610556333427"><ele>139.0</ele><time>2026-04-12T06:33:59Z</time></trkpt><trkpt lat="43.60151135601732" lon="6.846024541130381"><ele>135.6</ele><time>2026-04-12T06:34:00Z</time></trkpt><trkpt lat="43.60160139937131" lon="6.845943963779625"><ele>132.2</ele><time>2026-04-12T06:34:01Z</time></trkpt><trkpt lat="43.60168403448237" lon="6.845856802099469"><ele>128.79999999999998</ele><time>2026-04-12T06:34:02Z</time></trkpt><trkpt lat="43.60174964855352" lon="6.845746546636057"><ele>125.39999999999999</ele><time>2026-04-12T06:34:03Z</time></trkpt><trkpt lat="43.60179945633686" lon="6.8456121077758"><ele>122.0</ele><time>2026-04-12T06:34:04Z</time></trkpt><trkpt lat="43.60183749053152" lon="6.845472081186459"><ele>122.0</ele><time>2026-04-12T06:34:05Z</time></trkpt><trkpt lat="43.60187386455476" lon="6.845330522497182"><ele>121.99999999999999</ele><time>2026-04-12T06:34:06Z</time></trkpt><trkpt lat="43.60191359319053" lon="6.845190569650666"><ele>121.99999999999999</ele><time>2026-04-12T06:34:07Z</time></trkpt><trkpt lat="43.601939453280266" lon="6.845054568929528"><ele>122.0</ele><time>2026-04-12T06:34:08Z</time></trkpt><trkpt lat="43.60194219239188" lon="6.844907081385676"><ele>122.0</ele><time>2026-04-12T06:34:09Z</time></trkpt><trkpt lat="43.60193845234944" lon="6.844757604485312"><ele>117.5</ele><time>2026-04-12T06:34:10Z</time></trkpt><trkpt lat="43.60194945301639" lon="6.844603594472354"><ele>113.0</ele><time>2026-04-12T06:34:11Z</time></trkpt><trkpt lat="43.60193412303607" lon="6.844448045367787"><ele>108.5</ele><time>2026-04-12T06:34:12Z</time></trkpt><trkpt lat="43.60190099262251" lon="6.84429630875976"><ele>104.0</ele><time>2026-04-12T06:34:13Z</time></trkpt><trkpt lat="43.601890945648464" lon="6.84413792917194"><ele>103.75</ele><time>2026-04-12T06:34:14Z</time></trkpt><trkpt lat="43.60189994273875" lon="6.843974675420682"><ele>103.5</ele><time>2026-04-12T06:34:15Z</time></trkpt><trkpt lat="43.60189065713003" lon="6.843811774036417"><ele>103.25</ele><time>2026-04-12T06:34:16Z</time></trkpt><trkpt lat="43.60187673395739" lon="6.8436547739764695"><ele>103.0</ele><time>2026-04-12T06:34:17Z</time></trkpt><trkpt lat="43.601859797223256" lon="6.84349209628531"><ele>102.80000000000001</ele><time>2026-04-12T06:34:18Z</time></trkpt><trkpt lat="43.60183919265293" lon="6.843342657669532"><ele>102.6</ele><time>2026-04-12T06:34:19Z</time></trkpt><trkpt lat="43.60181627031751" lon="6.8432036444016555"><ele>102.4</ele><time>2026-04-12T06:34:20Z</time></trkpt><trkpt lat="43.60179022061685" lon="6.843077073639957"><ele>102.19999999999999</ele><time>2026-04-12T06:34:21Z</time></trkpt><trkpt lat="43.60176825713902" lon="6.842963210922374"><ele>102.0</ele><time>2026-04-12T06:34:22Z</time></trkpt><trkpt lat="43.60173630290454" lon="6.842863604275605"><ele>102.0</ele><time>2026-04-12T06:34:23Z</time></trkpt><trkpt lat="43.60174426709051" lon="6.842764943668915"><ele>102.0</ele><time>2026-04-12T06:34:24Z</time></trkpt><trkpt lat="43.60177627063823" lon="6.8426741792807215"><ele>102.0</ele><time>2026-04-12T06:34:25Z</time></trkpt><trkpt lat="43.60184981653496" lon="6.8426137553557975"><ele>102.0</ele><time>2026-04-12T06:34:26Z</time></trkpt><trkpt lat="43.60192997934884" lon="6.842583183587037"><ele>102.0</ele><time>2026-04-12T06:34:27Z</time></trkpt><trkpt lat="43.60201028220005" lon="6.842553449756511"><ele>102.0</ele><time>2026-04-12T06:34:28Z</time></trkpt><trkpt lat="43.602094444276105" lon="6.842532005188248"><ele>102.39999999999999</ele><time>2026-04-12T06:34:29Z</time></trkpt><trkpt lat="43.60218038087957" lon="6.842509422957233"><ele>102.8</ele><time>2026-04-12T06:34:30Z</time></trkpt><trkpt lat="43.602266855978094" lon="6.84247960059034"><ele>103.2</ele><time>2026-04-12T06:34:31Z</time></trkpt><trkpt lat="43.602355548346246" lon="6.842446647257957"><ele>103.6</ele><time>2026-04-12T06:34:32Z</time></trkpt><trkpt lat="43.602445836681696" lon="6.842410271007412"><ele>104.0</ele><time>2026-04-12T06:34:33Z</time></trkpt><trkpt lat="43.602539767825725" lon="6.842384158941423"><ele>104.0</ele><time>2026-04-12T06:34:34Z</time></trkpt><trkpt lat="43.602639246629636" lon="6.842370362511678"><ele>104.0</ele><time>2026-04-12T06:34:35Z</time></trkpt><trkpt lat="43.602740762273655" lon="6.842362796656022"><ele>104.0</ele><time>2026-04-12T06:34:36Z</time></trkpt><trkpt lat="43.60284459535946" lon="6.842360513736131"><ele>104.0</ele><time>2026-04-12T06:34:37Z</time></trkpt><trkpt lat="43.60295086546171" lon="6.842357329764419"><ele>104.0</ele><time>2026-04-12T06:34:38Z</time></trkpt><trkpt lat="43.60305946717896" lon="6.842347060651003"><ele>103.4</ele><time>2026-04-12T06:34:39Z</time></trkpt><trkpt lat="43.60316840270772" lon="6.842335248459041"><ele>102.80000000000001</ele><time>2026-04-12T06:34:40Z</time></trkpt><trkpt lat="43.60327354093809" lon="6.842330750056998"><ele>102.19999999999999</ele><time>2026-04-12T06:34:41Z</time></trkpt><trkpt lat="43.60337419717815" lon="6.842333636100985"><ele>101.6</ele><time>2026-04-12T06:34:42Z</time></trkpt><trkpt lat="43.603474937541954" lon="6.842335881967068"><ele>101.0</ele><time>2026-04-12T06:34:43Z</time></trkpt><trkpt lat="43.603577571679196" lon="6.842341945600105"><ele>98.6</ele><time>2026-04-12T06:34:44Z</time></trkpt><trkpt lat="43.60368274275302" lon="6.842348637614413"><ele>96.19999999999999</ele><time>2026-04-12T06:34:45Z</time></trkpt><trkpt lat="43.60378214047336" lon="6.842357218630736"><ele>93.80000000000001</ele><time>2026-04-12T06:34:46Z</time></trkpt><trkpt lat="43.60388230410838" lon="6.842372874786086"><ele>91.4</ele><time>2026-04-12T06:34:47Z</time></trkpt><trkpt lat="43.60397801964403" lon="6.842391602775575"><ele>89.0</ele><time>2026-04-12T06:34:48Z</time></trkpt><trkpt lat="43.60406988698151" lon="6.8424099655143715"><ele>89.0</ele><time>2026-04-12T06:34:49Z</time></trkpt><trkpt lat="43.604165362113555" lon="6.842427336648024"><ele>89.0</ele><time>2026-04-12T06:34:50Z</time></trkpt><trkpt lat="43.604263202325214" lon="6.842449694418525"><ele>89.0</ele><time>2026-04-12T06:34:51Z</time></trkpt><trkpt lat="43.60435084198771" lon="6.842475335249213"><ele>89.0</ele><time>2026-04-12T06:34:52Z</time></trkpt><trkpt lat="43.60443309872597" lon="6.842519008545273"><ele>89.0</ele><time>2026-04-12T06:34:53Z</time></trkpt><trkpt lat="43.60450281739985" lon="6.842592258450121"><ele>87.33333333333334</ele><time>2026-04-12T06:34:54Z</time></trkpt><trkpt lat="43.60455387859132" lon="6.842685163650645"><ele>85.66666666666667</ele><time>2026-04-12T06:34:55Z</time></trkpt><trkpt lat="43.60457532014113" lon="6.842799402857317"><ele>84.0</ele><time>2026-04-12T06:34:56Z</time></trkpt><trkpt lat="43.604570026974706" lon="6.842926730574963"><ele>82.33333333333333</ele><time>2026-04-12T06:34:57Z</time></trkpt><trkpt lat="43.6045625655546" lon="6.8430521603890275"><ele>80.66666666666666</ele><time>2026-04-12T06:34:58Z</time></trkpt><trkpt lat="43.60456748886542" lon="6.843182956237894"><ele>79.0</ele><time>2026-04-12T06:34:59Z</time></trkpt><trkpt lat="43.60459515261945" lon="6.843317649015135"><ele>79.0</ele><time>2026-04-12T06:35:00Z</time></trkpt><trkpt lat="43.604644996654905" lon="6.84344205907289"><ele>79.0</ele><time>2026-04-12T06:35:01Z</time></trkpt><trkpt lat="43.60471423194751" lon="6.843555644920491"><ele>79.0</ele><time>2026-04-12T06:35:02Z</time></trkpt><trkpt lat="43.60478972974193" lon="6.843663720370462"><ele>79.0</ele><time>2026-04-12T06:35:03Z</time></trkpt><trkpt lat="43.60486173417003" lon="6.843772986396446"><ele>79.0</ele><time>2026-04-12T06:35:04Z</time></trkpt><trkpt lat="43.6049260538387" lon="6.843879411242175"><ele>80.2</ele><time>2026-04-12T06:35:05Z</time></trkpt><trkpt lat="43.60498251394044" lon="6.843988292449876"><ele>81.4</ele><time>2026-04-12T06:35:06Z</time></trkpt><trkpt lat="43.60502245306636" lon="6.8441102272369285"><ele>82.6</ele><time>2026-04-12T06:35:07Z</time></trkpt><trkpt lat="43.60504941763298" lon="6.8442357365553965"><ele>83.8</ele><time>2026-04-12T06:35:08Z</time></trkpt><trkpt lat="43.60507802002081" lon="6.844350933286437"><ele>85.0</ele><time>2026-04-12T06:35:09Z</time></trkpt><trkpt lat="43.6051141799761" lon="6.844438687555536"><ele>84.71428571428572</ele><time>2026-04-12T06:35:10Z</time></trkpt><trkpt lat="43.60515340507776" lon="6.844510578638928"><ele>84.42857142857142</ele><time>2026-04-12T06:35:11Z</time></trkpt><trkpt lat="43.60521020431511" lon="6.84456173184649"><ele>84.14285714285714</ele><time>2026-04-12T06:35:12Z</time></trkpt><trkpt lat="43.60528285055006" lon="6.844574799085758"><ele>83.85714285714286</ele><time>2026-04-12T06:35:13Z</time></trkpt><trkpt lat="43.60535498264742" lon="6.844543454828539"><ele>83.57142857142858</ele><time>2026-04-12T06:35:14Z</time></trkpt><trkpt lat="43.60541753737062" lon="6.844497004440395"><ele>83.28571428571428</ele><time>2026-04-12T06:35:15Z</time></trkpt><trkpt lat="43.605476993886775" lon="6.844454125475307"><ele>83.0</ele><time>2026-04-12T06:35:16Z</time></trkpt><trkpt lat="43.60553796740742" lon="6.844416470290315"><ele>83.0</ele><time>2026-04-12T06:35:17Z</time></trkpt><trkpt lat="43.60559914234891" lon="6.844376986489921"><ele>83.0</ele><time>2026-04-12T06:35:18Z</time></trkpt><trkpt lat="43.60566014890038" lon="6.844340176745227"><ele>83.0</ele><time>2026-04-12T06:35:19Z</time></trkpt><trkpt lat="43.60572227093451" lon="6.844308912683335"><ele>83.0</ele><time>2026-04-12T06:35:20Z</time></trkpt><trkpt lat="43.60578914764792" lon="6.8442977791958395"><ele>83.0</ele><time>2026-04-12T06:35:21Z</time></trkpt><trkpt lat="43.60585593215975" lon="6.844314301294114"><ele>83.0</ele><time>2026-04-12T06:35:22Z</time></trkpt><trkpt lat="43.60591782126334" lon="6.8443585430314275"><ele>83.0</ele><time>2026-04-12T06:35:23Z</time></trkpt><trkpt lat="43.60597471611076" lon="6.844418289196661"><ele>83.0</ele><time>2026-04-12T06:35:24Z</time></trkpt><trkpt lat="43.60603159227041" lon="6.84447841505933"><ele>83.0</ele><time>2026-04-12T06:35:25Z</time></trkpt><trkpt lat="43.60609487233272" lon="6.844534927214073"><ele>83.0</ele><time>2026-04-12T06:35:26Z</time></trkpt><trkpt lat="43.606162970053326" lon="6.844593830626545"><ele>83.0</ele><time>2026-04-12T06:35:27Z</time></trkpt><trkpt lat="43.606234890023856" lon="6.844649679176546"><ele>83.0</ele><time>2026-04-12T06:35:28Z</time></trkpt><trkpt lat="43.60630983217647" lon="6.8447088474549584"><ele>83.0</ele><time>2026-04-12T06:35:29Z</time></trkpt><trkpt lat="43.6063825615794" lon="6.844772778290581"><ele>82.83333333333334</ele><time>2026-04-12T06:35:30Z</time></trkpt><trkpt lat="43.60645353681299" lon="6.844836474207384"><ele>82.66666666666667</ele><time>2026-04-12T06:35:31Z</time></trkpt><trkpt lat="43.60652200853483" lon="6.8449015550988594"><ele>82.5</ele><time>2026-04-12T06:35:32Z</time></trkpt><trkpt lat="43.60658802886325" lon="6.844971270016618"><ele>82.33333333333333</ele><time>2026-04-12T06:35:33Z</time></trkpt><trkpt lat="43.60665277905002" lon="6.845040356606616"><ele>82.16666666666666</ele><time>2026-04-12T06:35:34Z</time></trkpt><trkpt lat="43.606714837296785" lon="6.845110179338884"><ele>82.0</ele><time>2026-04-12T06:35:35Z</time></trkpt><trkpt lat="43.60677230602421" lon="6.845188010894086"><ele>81.16666666666666</ele><time>2026-04-12T06:35:36Z</time></trkpt><trkpt lat="43.60682114272357" lon="6.845269453383351"><ele>80.33333333333333</ele><time>2026-04-12T06:35:37Z</time></trkpt><trkpt lat="43.606874273109014" lon="6.845346890052772"><ele>79.5</ele><time>2026-04-12T06:35:38Z</time></trkpt><trkpt lat="43.60693892488383" lon="6.84540695605076"><ele>78.66666666666667</ele><time>2026-04-12T06:35:39Z</time></trkpt><trkpt lat="43.60700771066721" lon="6.845456838664251"><ele>77.83333333333334</ele><time>2026-04-12T06:35:40Z</time></trkpt><trkpt lat="43.60707698960469" lon="6.845501082352531"><ele>77.0</ele><time>2026-04-12T06:35:41Z</time></trkpt><trkpt lat="43.60715081048136" lon="6.845540375398269"><ele>76.33333333333334</ele><time>2026-04-12T06:35:42Z</time></trkpt><trkpt lat="43.60722595177498" lon="6.845573088333594"><ele>75.66666666666667</ele><time>2026-04-12T06:35:43Z</time></trkpt><trkpt lat="43.60730394574681" lon="6.845593302707976"><ele>75.0</ele><time>2026-04-12T06:35:44Z</time></trkpt><trkpt lat="43.607382728287156" lon="6.845598580446868"><ele>74.33333333333333</ele><time>2026-04-12T06:35:45Z</time></trkpt><trkpt lat="43.60746170468835" lon="6.845591423182666"><ele>73.66666666666666</ele><time>2026-04-12T06:35:46Z</time></trkpt><trkpt lat="43.607538796508514" lon="6.845577465750045"><ele>73.0</ele><time>2026-04-12T06:35:47Z</time></trkpt><trkpt lat="43.60761670603835" lon="6.845565882888137"><ele>73.0</ele><time>2026-04-12T06:35:48Z</time></trkpt><trkpt lat="43.60769202114741" lon="6.845554092570605"><ele>73.0</ele><time>2026-04-12T06:35:49Z</time></trkpt><trkpt lat="43.60776468941474" lon="6.845538979193066"><ele>73.0</ele><time>2026-04-12T06:35:50Z</time></trkpt><trkpt lat="43.60783650802179" lon="6.8455232621803574"><ele>73.0</ele><time>2026-04-12T06:35:51Z</time></trkpt><trkpt lat="43.60790593693929" lon="6.845505328935463"><ele>73.0</ele><time>2026-04-12T06:35:52Z</time></trkpt><trkpt lat="43.60797496919745" lon="6.845486473093884"><ele>73.0</ele><time>2026-04-12T06:35:53Z</time></trkpt><trkpt lat="43.60804634862734" lon="6.845462939013041"><ele>73.0</ele><time>2026-04-12T06:35:54Z</time></trkpt><trkpt lat="43.608117937622005" lon="6.845443658559603"><ele>73.16666666666666</ele><time>2026-04-12T06:35:55Z</time></trkpt><trkpt lat="43.608188750977284" lon="6.845421281310171"><ele>73.33333333333333</ele><time>2026-04-12T06:35:56Z</time></trkpt><trkpt lat="43.608261637659965" lon="6.845395500341479"><ele>73.5</ele><time>2026-04-12T06:35:57Z</time></trkpt><trkpt lat="43.60833651557004" lon="6.845370696503993"><ele>73.66666666666667</ele><time>2026-04-12T06:35:58Z</time></trkpt><trkpt lat="43.60841448911126" lon="6.845346348265299"><ele>73.83333333333334</ele><time>2026-04-12T06:35:59Z</time></trkpt><trkpt lat="43.608491785056856" lon="6.845318154774308"><ele>74.0</ele><time>2026-04-12T06:36:00Z</time></trkpt><trkpt lat="43.60856991593582" lon="6.845286727378874"><ele>74.0</ele><time>2026-04-12T06:36:01Z</time></trkpt><trkpt lat="43.60864960284584" lon="6.845249700945379"><ele>74.0</ele><time>2026-04-12T06:36:02Z</time></trkpt><trkpt lat="43.608729112396276" lon="6.845208942162382"><ele>74.0</ele><time>2026-04-12T06:36:03Z</time></trkpt><trkpt lat="43.60881677661108" lon="6.845188667199779"><ele>74.0</ele><time>2026-04-12T06:36:04Z</time></trkpt><trkpt lat="43.60889844201896" lon="6.845146116615176"><ele>74.0</ele><time>2026-04-12T06:36:05Z</time></trkpt><trkpt lat="43.60897828368948" lon="6.845107831883925"><ele>74.0</ele><time>2026-04-12T06:36:06Z</time></trkpt><trkpt lat="43.609062035473386" lon="6.845071544957537"><ele>74.0</ele><time>2026-04-12T06:36:07Z</time></trkpt><trkpt lat="43.60914287019346" lon="6.845022283622194"><ele>74.0</ele><time>2026-04-12T06:36:08Z</time></trkpt><trkpt lat="43.6092343248924" lon="6.845032184777981"><ele>74.0</ele><time>2026-04-12T06:36:09Z</time></trkpt><trkpt lat="43.60932230787762" lon="6.845009771489587"><ele>74.0</ele><time>2026-04-12T06:36:10Z</time></trkpt><trkpt lat="43.609406930663916" lon="6.844954987623237"><ele>74.0</ele><time>2026-04-12T06:36:11Z</time></trkpt><trkpt lat="43.60949501945364" lon="6.844936711262021"><ele>74.0</ele><time>2026-04-12T06:36:12Z</time></trkpt><trkpt lat="43.60957323367281" lon="6.844882233803813"><ele>74.0</ele><time>2026-04-12T06:36:13Z</time></trkpt><trkpt lat="43.609653708311484" lon="6.844854575503983"><ele>74.0</ele><time>2026-04-12T06:36:14Z</time></trkpt><trkpt lat="43.60973460582889" lon="6.844830085790941"><ele>74.0</ele><time>2026-04-12T06:36:15Z</time></trkpt><trkpt lat="43.60981563411505" lon="6.844806741328004"><ele>74.0</ele><time>2026-04-12T06:36:16Z</time></trkpt><trkpt lat="43.609894591849795" lon="6.8447952165947585"><ele>74.0</ele><time>2026-04-12T06:36:17Z</time></trkpt><trkpt lat="43.60997545218114" lon="6.844797033613674"><ele>74.0</ele><time>2026-04-12T06:36:18Z</time></trkpt><trkpt lat="43.610051271337916" lon="6.844804992595687"><ele>74.0</ele><time>2026-04-12T06:36:19Z</time></trkpt><trkpt lat="43.610126387859076" lon="6.844817641517331"><ele>74.0</ele><time>2026-04-12T06:36:20Z</time></trkpt><trkpt lat="43.61019966557794" lon="6.844836325342575"><ele>74.0</ele><time>2026-04-12T06:36:21Z</time></trkpt><trkpt lat="43.61027034284402" lon="6.844858029259551"><ele>74.0</ele><time>2026-04-12T06:36:22Z</time></trkpt><trkpt lat="43.61033917744082" lon="6.844888166298971"><ele>74.0</ele><time>2026-04-12T06:36:23Z</time></trkpt><trkpt lat="43.61040553940137" lon="6.8449193331493605"><ele>74.0</ele><time>2026-04-12T06:36:24Z</time></trkpt><trkpt lat="43.610472311547205" lon="6.844948970900492"><ele>73.83333333333334</ele><time>2026-04-12T06:36:25Z</time></trkpt><trkpt lat="43.61053622549315" lon="6.844983578660548"><ele>73.66666666666667</ele><time>2026-04-12T06:36:26Z</time></trkpt><trkpt lat="43.61060020760287" lon="6.845014663031675"><ele>73.5</ele><time>2026-04-12T06:36:27Z</time></trkpt><trkpt lat="43.61066384385091" lon="6.845033508299575"><ele>73.33333333333333</ele><time>2026-04-12T06:36:28Z</time></trkpt><trkpt lat="43.610727117142666" lon="6.845034831150715"><ele>73.16666666666666</ele><time>2026-04-12T06:36:29Z</time></trkpt><trkpt lat="43.61083389380266" lon="6.844968572249328"><ele>73.0</ele><time>2026-04-12T06:36:31Z</time></trkpt><trkpt lat="43.610913135503196" lon="6.844877968747614"><ele>73.0</ele><time>2026-04-12T06:36:33Z</time></trkpt><trkpt lat="43.61098458304764" lon="6.844794061544094"><ele>73.0</ele><time>2026-04-12T06:36:35Z</time></trkpt><trkpt lat="43.611061891299286" lon="6.84472299952147"><ele>73.0</ele><time>2026-04-12T06:36:37Z</time></trkpt><trkpt lat="43.61113240320616" lon="6.844657886299991"><ele>73.0</ele><time>2026-04-12T06:36:39Z</time></trkpt><trkpt lat="43.61120332256205" lon="6.844607119400026"><ele>73.0</ele><time>2026-04-12T06:36:41Z</time></trkpt><trkpt lat="43.61126919900727" lon="6.844567265915328"><ele>73.0</ele><time>2026-04-12T06:36:43Z</time></trkpt><trkpt lat="43.611335208170324" lon="6.844534238884725"><ele>73.0</ele><time>2026-04-12T06:36:45Z</time></trkpt><trkpt lat="43.611395728875074" lon="6.844489048356543"><ele>73.0</ele><time>2026-04-12T06:36:47Z</time></trkpt><trkpt lat="43.61145965597462" lon="6.84445883884589"><ele>73.0</ele><time>2026-04-12T06:36:49Z</time></trkpt><trkpt lat="43.61151892126839" lon="6.8444234071802805"><ele>73.0</ele><time>2026-04-12T06:36:51Z</time></trkpt><trkpt lat="43.61158443668304" lon="6.844413837726177"><ele>73.0</ele><time>2026-04-12T06:36:53Z</time></trkpt><trkpt lat="43.6116742014451" lon="6.8443680793663075"><ele>73.0</ele><time>2026-04-12T06:36:56Z</time></trkpt><trkpt lat="43.6117333462008" lon="6.844337929805739"><ele>73.0</ele><time>2026-04-12T06:36:58Z</time></trkpt><trkpt lat="43.611813016169585" lon="6.844269038756127"><ele>74.2</ele><time>2026-04-12T06:37:01Z</time></trkpt><trkpt lat="43.6118998064898" lon="6.844224336422835"><ele>75.4</ele><time>2026-04-12T06:37:04Z</time></trkpt><trkpt lat="43.61198796535725" lon="6.844185013376216"><ele>76.60000000000001</ele><time>2026-04-12T06:37:07Z</time></trkpt><trkpt lat="43.61207087508292" lon="6.8441317422957955"><ele>77.8</ele><time>2026-04-12T06:37:10Z</time></trkpt><trkpt lat="43.612155053893844" lon="6.8440948553498515"><ele>79.0</ele><time>2026-04-12T06:37:14Z</time></trkpt><trkpt lat="43.612235224494476" lon="6.84404397670481"><ele>79.0</ele><time>2026-04-12T06:37:17Z</time></trkpt><trkpt lat="43.61232462791347" lon="6.843980328601858"><ele>79.0</ele><time>2026-04-12T06:37:20Z</time></trkpt><trkpt lat="43.61238135123216" lon="6.8439204303886525"><ele>79.0</ele><time>2026-04-12T06:37:23Z</time></trkpt><trkpt lat="43.612419252078276" lon="6.843839645724315"><ele>79.0</ele><time>2026-04-12T06:37:26Z</time></trkpt><trkpt lat="43.612439666232234" lon="6.843730440529697"><ele>79.0</ele><time>2026-04-12T06:37:29Z</time></trkpt><trkpt lat="43.6124403167159" lon="6.843635238862255"><ele>79.0</ele><time>2026-04-12T06:37:31Z</time></trkpt><trkpt lat="43.61242169044443" lon="6.843529780890578"><ele>80.0</ele><time>2026-04-12T06:37:34Z</time></trkpt><trkpt lat="43.61238243628324" lon="6.843430399245749"><ele>81.0</ele><time>2026-04-12T06:37:37Z</time></trkpt><trkpt lat="43.612319658036014" lon="6.843355336319935"><ele>82.0</ele><time>2026-04-12T06:37:40Z</time></trkpt><trkpt lat="43.61225373639418" lon="6.843315312766843"><ele>83.0</ele><time>2026-04-12T06:37:43Z</time></trkpt><trkpt lat="43.612188500662214" lon="6.8432937285613065"><ele>84.0</ele><time>2026-04-12T06:37:46Z</time></trkpt><trkpt lat="43.6121196954955" lon="6.8432714076236"><ele>85.0</ele><time>2026-04-12T06:37:48Z</time></trkpt><trkpt lat="43.6120456900525" lon="6.843245923716393"><ele>87.83333333333333</ele><time>2026-04-12T06:37:52Z</time></trkpt><trkpt lat="43.61195747866683" lon="6.843233365540843"><ele>90.66666666666666</ele><time>2026-04-12T06:37:55Z</time></trkpt><trkpt lat="43.61186166646833" lon="6.843199272153177"><ele>93.5</ele><time>2026-04-12T06:37:58Z</time></trkpt><trkpt lat="43.61178424890314" lon="6.843144884592766"><ele>96.33333333333333</ele><time>2026-04-12T06:38:01Z</time></trkpt><trkpt lat="43.611718477160146" lon="6.843074213493261"><ele>99.16666666666667</ele><time>2026-04-12T06:38:04Z</time></trkpt><trkpt lat="43.61165906491041" lon="6.8429925882382125"><ele>102.0</ele><time>2026-04-12T06:38:07Z</time></trkpt><trkpt lat="43.61161233072952" lon="6.842900958089297"><ele>102.0</ele><time>2026-04-12T06:38:10Z</time></trkpt><trkpt lat="43.61156838439049" lon="6.842803645623826"><ele>102.0</ele><time>2026-04-12T06:38:13Z</time></trkpt><trkpt lat="43.611527569843275" lon="6.842692349376317"><ele>102.0</ele><time>2026-04-12T06:38:16Z</time></trkpt><trkpt lat="43.611501604248886" lon="6.842570717298551"><ele>102.0</ele><time>2026-04-12T06:38:20Z</time></trkpt><trkpt lat="43.611484147639004" lon="6.842474866886828"><ele>102.0</ele><time>2026-04-12T06:38:22Z</time></trkpt><trkpt lat="43.611471359519776" lon="6.842363830669051"><ele>102.0</ele><time>2026-04-12T06:38:25Z</time></trkpt><trkpt lat="43.611468814825045" lon="6.842260128757679"><ele>101.66666666666667</ele><time>2026-04-12T06:38:27Z</time></trkpt><trkpt lat="43.611472223322146" lon="6.842137977083653"><ele>101.33333333333334</ele><time>2026-04-12T06:38:30Z</time></trkpt><trkpt lat="43.61148145646862" lon="6.842016306893168"><ele>101.0</ele><time>2026-04-12T06:38:33Z</time></trkpt><trkpt lat="43.61149589158039" lon="6.8418998136176"><ele>100.66666666666667</ele><time>2026-04-12T06:38:36Z</time></trkpt><trkpt lat="43.61150584727835" lon="6.841775416199816"><ele>100.33333333333334</ele><time>2026-04-12T06:38:39Z</time></trkpt><trkpt lat="43.611511880749916" lon="6.841656263731185"><ele>100.0</ele><time>2026-04-12T06:38:42Z</time></trkpt><trkpt lat="43.61151452489265" lon="6.841526829763694"><ele>100.00000000000001</ele><time>2026-04-12T06:38:45Z</time></trkpt><trkpt lat="43.61152066408128" lon="6.841400783172467"><ele>100.0</ele><time>2026-04-12T06:38:48Z</time></trkpt><trkpt lat="43.61152708334833" lon="6.841280154134587"><ele>100.0</ele><time>2026-04-12T06:38:51Z</time></trkpt><trkpt lat="43.61152966374706" lon="6.841163316328596"><ele>100.0</ele><time>2026-04-12T06:38:54Z</time></trkpt><trkpt lat="43.61154638053538" lon="6.8410482268868655"><ele>100.00000000000001</ele><time>2026-04-12T06:38:57Z</time></trkpt><trkpt lat="43.6116034535651" lon="6.8409604948181055"><ele>100.0</ele><time>2026-04-12T06:39:00Z</time></trkpt><trkpt lat="43.61168206168908" lon="6.840916738955271"><ele>101.66666666666667</ele><time>2026-04-12T06:39:03Z</time></trkpt><trkpt lat="43.611756556247705" lon="6.840853278985537"><ele>103.33333333333334</ele><time>2026-04-12T06:39:07Z</time></trkpt><trkpt lat="43.61180827119154" lon="6.840764730612341"><ele>105.0</ele><time>2026-04-12T06:39:10Z</time></trkpt><trkpt lat="43.61183895189304" lon="6.840647810914483"><ele>106.66666666666666</ele><time>2026-04-12T06:39:13Z</time></trkpt><trkpt lat="43.61185053278689" lon="6.840534211076165"><ele>108.33333333333333</ele><time>2026-04-12T06:39:16Z</time></trkpt><trkpt lat="43.6118605532303" lon="6.840435523993789"><ele>110.0</ele><time>2026-04-12T06:39:19Z</time></trkpt><trkpt lat="43.61188804972228" lon="6.840345897374458"><ele>109.99999999999999</ele><time>2026-04-12T06:39:21Z</time></trkpt><trkpt lat="43.611949072700156" lon="6.840277911854043"><ele>110.0</ele><time>2026-04-12T06:39:23Z</time></trkpt><trkpt lat="43.61203691710968" lon="6.840287775950528"><ele>110.0</ele><time>2026-04-12T06:39:26Z</time></trkpt><trkpt lat="43.612120263518136" lon="6.8403145787027295"><ele>110.0</ele><time>2026-04-12T06:39:29Z</time></trkpt><trkpt lat="43.61220427040118" lon="6.840316352857328"><ele>109.99999999999999</ele><time>2026-04-12T06:39:32Z</time></trkpt><trkpt lat="43.61227772893631" lon="6.840257711251886"><ele>110.0</ele><time>2026-04-12T06:39:35Z</time></trkpt><trkpt lat="43.61230464852449" lon="6.840167743675683"><ele>108.49999999999999</ele><time>2026-04-12T06:39:38Z</time></trkpt><trkpt lat="43.61232416503471" lon="6.840053326218249"><ele>107.0</ele><time>2026-04-12T06:39:41Z</time></trkpt><trkpt lat="43.61233220830497" lon="6.8399627147364255"><ele>105.5</ele><time>2026-04-12T06:39:44Z</time></trkpt><trkpt lat="43.61233784603646" lon="6.839856310918254"><ele>104.0</ele><time>2026-04-12T06:39:47Z</time></trkpt><trkpt lat="43.61234984282834" lon="6.839742659700795"><ele>102.49999999999999</ele><time>2026-04-12T06:39:50Z</time></trkpt><trkpt lat="43.61236646305915" lon="6.839638959965807"><ele>101.0</ele><time>2026-04-12T06:39:53Z</time></trkpt><trkpt lat="43.612399443420614" lon="6.839522790631951"><ele>101.0</ele><time>2026-04-12T06:39:56Z</time></trkpt><trkpt lat="43.61243644280223" lon="6.839434658450225"><ele>101.0</ele><time>2026-04-12T06:39:59Z</time></trkpt><trkpt lat="43.61246393863594" lon="6.839338215201472"><ele>101.0</ele><time>2026-04-12T06:40:02Z</time></trkpt><trkpt lat="43.61248143662258" lon="6.839245494241951"><ele>101.0</ele><time>2026-04-12T06:40:04Z</time></trkpt><trkpt lat="43.61248113300017" lon="6.839139336303266"><ele>101.0</ele><time>2026-04-12T06:40:07Z</time></trkpt><trkpt lat="43.612468329244756" lon="6.839031158447611"><ele>101.0</ele><time>2026-04-12T06:40:10Z</time></trkpt><trkpt lat="43.612447810948254" lon="6.838944772976342"><ele>101.0</ele><time>2026-04-12T06:40:12Z</time></trkpt><trkpt lat="43.61242119288103" lon="6.838861908369242"><ele>103.49999999999999</ele><time>2026-04-12T06:40:15Z</time></trkpt><trkpt lat="43.61239962498772" lon="6.838765032098185"><ele>106.0</ele><time>2026-04-12T06:40:18Z</time></trkpt><trkpt lat="43.612395182453426" lon="6.838663884623824"><ele>108.5</ele><time>2026-04-12T06:40:21Z</time></trkpt><trkpt lat="43.61242750633902" lon="6.8385580534642525"><ele>111.0</ele><time>2026-04-12T06:40:24Z</time></trkpt><trkpt lat="43.6124916488343" lon="6.838494630256769"><ele>113.49999999999999</ele><time>2026-04-12T06:40:27Z</time></trkpt><trkpt lat="43.61257145019232" lon="6.8384691081223705"><ele>116.0</ele><time>2026-04-12T06:40:30Z</time></trkpt><trkpt lat="43.61264972538795" lon="6.838476866550945"><ele>115.99999999999999</ele><time>2026-04-12T06:40:32Z</time></trkpt><trkpt lat="43.61272832901375" lon="6.838486280926813"><ele>116.0</ele><time>2026-04-12T06:40:35Z</time></trkpt><trkpt lat="43.61281563547318" lon="6.838466314339481"><ele>116.0</ele><time>2026-04-12T06:40:39Z</time></trkpt><trkpt lat="43.612906706492204" lon="6.838409286109043"><ele>116.0</ele><time>2026-04-12T06:40:42Z</time></trkpt><trkpt lat="43.61297509908227" lon="6.838328863213802"><ele>115.99999999999999</ele><time>2026-04-12T06:40:45Z</time></trkpt><trkpt lat="43.61301987581515" lon="6.838262009878238"><ele>116.0</ele><time>2026-04-12T06:40:48Z</time></trkpt><trkpt lat="43.61307678047348" lon="6.838175322204447"><ele>114.16666666666666</ele><time>2026-04-12T06:40:51Z</time></trkpt><trkpt lat="43.613130896185226" lon="6.838094726084385"><ele>112.33333333333333</ele><time>2026-04-12T06:40:54Z</time></trkpt><trkpt lat="43.61320071701104" lon="6.837991708705236"><ele>110.5</ele><time>2026-04-12T06:40:57Z</time></trkpt><trkpt lat="43.61324664324381" lon="6.8379190952180275"><ele>108.66666666666666</ele><time>2026-04-12T06:41:00Z</time></trkpt><trkpt lat="43.613288075231665" lon="6.83783894777909"><ele>106.83333333333333</ele><time>2026-04-12T06:41:03Z</time></trkpt><trkpt lat="43.61332297647538" lon="6.837764257114754"><ele>105.0</ele><time>2026-04-12T06:41:05Z</time></trkpt><trkpt lat="43.61335485281706" lon="6.837674379132703"><ele>108.85714285714286</ele><time>2026-04-12T06:41:08Z</time></trkpt><trkpt lat="43.61338550225333" lon="6.837585536642572"><ele>112.71428571428572</ele><time>2026-04-12T06:41:11Z</time></trkpt><trkpt lat="43.61341668519251" lon="6.837484554871579"><ele>116.57142857142857</ele><time>2026-04-12T06:41:14Z</time></trkpt><trkpt lat="43.61345064835158" lon="6.8373941386590245"><ele>120.42857142857143</ele><time>2026-04-12T06:41:17Z</time></trkpt><trkpt lat="43.61348734307024" lon="6.837300854635615"><ele>124.28571428571429</ele><time>2026-04-12T06:41:20Z</time></trkpt><trkpt lat="43.61351452165926" lon="6.837219112937634"><ele>128.14285714285714</ele><time>2026-04-12T06:41:22Z</time></trkpt><trkpt lat="43.61356161438504" lon="6.837126364689959"><ele>132.0</ele><time>2026-04-12T06:41:25Z</time></trkpt><trkpt lat="43.61360345991233" lon="6.8370504981656115"><ele>129.5</ele><time>2026-04-12T06:41:27Z</time></trkpt><trkpt lat="43.61366048418145" lon="6.836962946384876"><ele>127.0</ele><time>2026-04-12T06:41:30Z</time></trkpt><trkpt lat="43.613711973668366" lon="6.836875368312561"><ele>124.5</ele><time>2026-04-12T06:41:33Z</time></trkpt><trkpt lat="43.613761735061914" lon="6.83678759939213"><ele>122.0</ele><time>2026-04-12T06:41:36Z</time></trkpt><trkpt lat="43.613818404103455" lon="6.836683263684137"><ele>119.5</ele><time>2026-04-12T06:41:40Z</time></trkpt><trkpt lat="43.613864932393454" lon="6.836592987656169"><ele>117.0</ele><time>2026-04-12T06:41:43Z</time></trkpt><trkpt lat="43.613910020958826" lon="6.836515720711366"><ele>117.0</ele><time>2026-04-12T06:41:45Z</time></trkpt><trkpt lat="43.61395263858556" lon="6.8364197435952745"><ele>117.0</ele><time>2026-04-12T06:41:48Z</time></trkpt><trkpt lat="43.61399395075094" lon="6.836331503851189"><ele>117.0</ele><time>2026-04-12T06:41:51Z</time></trkpt><trkpt lat="43.61402356919024" lon="6.836231872868329"><ele>117.0</ele><time>2026-04-12T06:41:54Z</time></trkpt><trkpt lat="43.614043011749466" lon="6.8361248831713315"><ele>117.0</ele><time>2026-04-12T06:41:57Z</time></trkpt><trkpt lat="43.614036326020575" lon="6.836010468824414"><ele>117.0</ele><time>2026-04-12T06:42:00Z</time></trkpt><trkpt lat="43.61401314663969" lon="6.835903364582676"><ele>118.16666666666667</ele><time>2026-04-12T06:42:03Z</time></trkpt><trkpt lat="43.61398142777215" lon="6.835785073666096"><ele>119.33333333333334</ele><time>2026-04-12T06:42:07Z</time></trkpt><trkpt lat="43.61394804013867" lon="6.835667011141243"><ele>120.5</ele><time>2026-04-12T06:42:10Z</time></trkpt><trkpt lat="43.61392219222157" lon="6.835573520312809"><ele>121.66666666666667</ele><time>2026-04-12T06:42:13Z</time></trkpt><trkpt lat="43.613892492617886" lon="6.835487676284505"><ele>122.83333333333334</ele><time>2026-04-12T06:42:15Z</time></trkpt><trkpt lat="43.613866700858004" lon="6.835400548104375"><ele>124.0</ele><time>2026-04-12T06:42:18Z</time></trkpt><trkpt lat="43.613834379773984" lon="6.8353081661979935"><ele>124.00000000000001</ele><time>2026-04-12T06:42:21Z</time></trkpt><trkpt lat="43.613805314879095" lon="6.835218471162823"><ele>124.0</ele><time>2026-04-12T06:42:23Z</time></trkpt><trkpt lat="43.613777347531894" lon="6.835114595529777"><ele>124.0</ele><time>2026-04-12T06:42:26Z</time></trkpt><trkpt lat="43.61374450828576" lon="6.834988523152562"><ele>124.0</ele><time>2026-04-12T06:42:29Z</time></trkpt><trkpt lat="43.61371133100126" lon="6.8348741007524705"><ele>124.00000000000001</ele><time>2026-04-12T06:42:31Z</time></trkpt><trkpt lat="43.61367353169496" lon="6.8347479254391335"><ele>124.0</ele><time>2026-04-12T06:42:34Z</time></trkpt><trkpt lat="43.61365058373968" lon="6.834662787095475"><ele>127.71428571428572</ele><time>2026-04-12T06:42:36Z</time></trkpt><trkpt lat="43.61362413002561" lon="6.8345740243866215"><ele>131.42857142857144</ele><time>2026-04-12T06:42:38Z</time></trkpt><trkpt lat="43.61360076443133" lon="6.834490552460247"><ele>135.14285714285714</ele><time>2026-04-12T06:42:40Z</time></trkpt><trkpt lat="43.61357882564711" lon="6.834402663590845"><ele>138.85714285714286</ele><time>2026-04-12T06:42:42Z</time></trkpt><trkpt lat="43.613557544125946" lon="6.834314260324906"><ele>142.57142857142856</ele><time>2026-04-12T06:42:44Z</time></trkpt><trkpt lat="43.613538753682015" lon="6.834227190146776"><ele>146.28571428571428</ele><time>2026-04-12T06:42:46Z</time></trkpt><trkpt lat="43.61352068912711" lon="6.834141201235019"><ele>150.0</ele><time>2026-04-12T06:42:48Z</time></trkpt><trkpt lat="43.61349917372171" lon="6.834055883010339"><ele>149.99999999999997</ele><time>2026-04-12T06:42:50Z</time></trkpt><trkpt lat="43.61347381117043" lon="6.833973554372328"><ele>150.0</ele><time>2026-04-12T06:42:52Z</time></trkpt><trkpt lat="43.61344052119497" lon="6.833895378236018"><ele>150.0</ele><time>2026-04-12T06:42:54Z</time></trkpt><trkpt lat="43.613400008537305" lon="6.833825243289666"><ele>150.0</ele><time>2026-04-12T06:42:56Z</time></trkpt><trkpt lat="43.61335284559062" lon="6.83376178612445"><ele>150.0</ele><time>2026-04-12T06:42:58Z</time></trkpt><trkpt lat="43.61330005352027" lon="6.833708974300575"><ele>149.99999999999997</ele><time>2026-04-12T06:43:00Z</time></trkpt><trkpt lat="43.613246854676525" lon="6.83365963263424"><ele>150.0</ele><time>2026-04-12T06:43:02Z</time></trkpt><trkpt lat="43.613189111433975" lon="6.833621166635599"><ele>149.99999999999997</ele><time>2026-04-12T06:43:04Z</time></trkpt><trkpt lat="43.61313304311297" lon="6.833574030455043"><ele>150.0</ele><time>2026-04-12T06:43:06Z</time></trkpt><trkpt lat="43.61307839035651" lon="6.833519012861848"><ele>150.0</ele><time>2026-04-12T06:43:08Z</time></trkpt><trkpt lat="43.61303034633239" lon="6.833454912849832"><ele>150.0</ele><time>2026-04-12T06:43:10Z</time></trkpt><trkpt lat="43.61299011092469" lon="6.833383717723798"><ele>150.0</ele><time>2026-04-12T06:43:12Z</time></trkpt><trkpt lat="43.612953782887395" lon="6.833307673285772"><ele>149.99999999999997</ele><time>2026-04-12T06:43:14Z</time></trkpt><trkpt lat="43.61291034263749" lon="6.833236055467168"><ele>150.0</ele><time>2026-04-12T06:43:16Z</time></trkpt><trkpt lat="43.61286816625486" lon="6.833165393801457"><ele>147.85714285714283</ele><time>2026-04-12T06:43:18Z</time></trkpt><trkpt lat="43.61282735588506" lon="6.833096716000477"><ele>145.71428571428572</ele><time>2026-04-12T06:43:20Z</time></trkpt><trkpt lat="43.61278483331927" lon="6.833030278196463"><ele>143.57142857142856</ele><time>2026-04-12T06:43:22Z</time></trkpt><trkpt lat="43.61273671198801" lon="6.83296812243131"><ele>141.42857142857142</ele><time>2026-04-12T06:43:24Z</time></trkpt><trkpt lat="43.61268897894686" lon="6.83291072623079"><ele>139.28571428571428</ele><time>2026-04-12T06:43:26Z</time></trkpt><trkpt lat="43.6126398475971" lon="6.832855562501542"><ele>137.14285714285714</ele><time>2026-04-12T06:43:28Z</time></trkpt><trkpt lat="43.612587494421994" lon="6.832801020959644"><ele>135.0</ele><time>2026-04-12T06:43:30Z</time></trkpt><trkpt lat="43.61253284929753" lon="6.832752260776408"><ele>136.71428571428572</ele><time>2026-04-12T06:43:32Z</time></trkpt><trkpt lat="43.61247961605229" lon="6.832704367324725"><ele>138.42857142857142</ele><time>2026-04-12T06:43:34Z</time></trkpt><trkpt lat="43.612430976898075" lon="6.8326444484413384"><ele>140.14285714285714</ele><time>2026-04-12T06:43:36Z</time></trkpt><trkpt lat="43.61237850058427" lon="6.832586080052098"><ele>141.85714285714286</ele><time>2026-04-12T06:43:38Z</time></trkpt><trkpt lat="43.61232654468524" lon="6.83253495815261"><ele>143.57142857142856</ele><time>2026-04-12T06:43:40Z</time></trkpt><trkpt lat="43.6122757424205" lon="6.832479280485128"><ele>145.28571428571428</ele><time>2026-04-12T06:43:42Z</time></trkpt><trkpt lat="43.61222569133775" lon="6.832423124365819"><ele>147.0</ele><time>2026-04-12T06:43:44Z</time></trkpt><trkpt lat="43.61217158857576" lon="6.832371344400361"><ele>147.0</ele><time>2026-04-12T06:43:46Z</time></trkpt><trkpt lat="43.612122177584574" lon="6.832315177898269"><ele>147.0</ele><time>2026-04-12T06:43:48Z</time></trkpt><trkpt lat="43.61207349112583" lon="6.832259130195483"><ele>147.0</ele><time>2026-04-12T06:43:50Z</time></trkpt><trkpt lat="43.61202270179661" lon="6.832203569997062"><ele>147.0</ele><time>2026-04-12T06:43:52Z</time></trkpt><trkpt lat="43.61195647423209" lon="6.832111488456744"><ele>147.0</ele><time>2026-04-12T06:43:55Z</time></trkpt><trkpt lat="43.611908285885924" lon="6.832054015582043"><ele>147.0</ele><time>2026-04-12T06:43:57Z</time></trkpt><trkpt lat="43.61184200505107" lon="6.831963175806187"><ele>147.0</ele><time>2026-04-12T06:44:00Z</time></trkpt><trkpt lat="43.611774075713555" lon="6.831872892807122"><ele>149.0</ele><time>2026-04-12T06:44:03Z</time></trkpt><trkpt lat="43.61172560050415" lon="6.831816876962872"><ele>151.0</ele><time>2026-04-12T06:44:05Z</time></trkpt><trkpt lat="43.61164077224847" lon="6.831719366473549"><ele>153.0</ele><time>2026-04-12T06:44:09Z</time></trkpt><trkpt lat="43.611586640250835" lon="6.831653862976736"><ele>155.0</ele><time>2026-04-12T06:44:12Z</time></trkpt><trkpt lat="43.61152790029" lon="6.831589630652277"><ele>157.0</ele><time>2026-04-12T06:44:14Z</time></trkpt><trkpt lat="43.61146794740008" lon="6.831513757916533"><ele>159.0</ele><time>2026-04-12T06:44:17Z</time></trkpt><trkpt lat="43.6114084843743" lon="6.83142785008712"><ele>159.0</ele><time>2026-04-12T06:44:20Z</time></trkpt><trkpt lat="43.61135496648493" lon="6.831354512245354"><ele>159.0</ele><time>2026-04-12T06:44:22Z</time></trkpt><trkpt lat="43.61131108506802" lon="6.8312837517682805"><ele>159.0</ele><time>2026-04-12T06:44:24Z</time></trkpt><trkpt lat="43.61124775112094" lon="6.83118941108766"><ele>159.0</ele><time>2026-04-12T06:44:27Z</time></trkpt><trkpt lat="43.611203984723545" lon="6.831120023365401"><ele>159.0</ele><time>2026-04-12T06:44:29Z</time></trkpt><trkpt lat="43.61116148990853" lon="6.831048138266056"><ele>159.0</ele><time>2026-04-12T06:44:31Z</time></trkpt><trkpt lat="43.611117074146904" lon="6.8309851213452575"><ele>159.0</ele><time>2026-04-12T06:44:33Z</time></trkpt><trkpt lat="43.61107181842644" lon="6.830922272970612"><ele>160.5</ele><time>2026-04-12T06:44:35Z</time></trkpt><trkpt lat="43.61102341399157" lon="6.830862677880081"><ele>162.0</ele><time>2026-04-12T06:44:37Z</time></trkpt><trkpt lat="43.61095397319013" lon="6.8307760369302075"><ele>163.5</ele><time>2026-04-12T06:44:40Z</time></trkpt><trkpt lat="43.61088435285589" lon="6.830690264104277"><ele>165.0</ele><time>2026-04-12T06:44:43Z</time></trkpt><trkpt lat="43.61081229323046" lon="6.830609986859002"><ele>166.5</ele><time>2026-04-12T06:44:46Z</time></trkpt><trkpt lat="43.61073908223291" lon="6.830536249049279"><ele>168.0</ele><time>2026-04-12T06:44:49Z</time></trkpt><trkpt lat="43.610649733060164" lon="6.830453539820058"><ele>168.0</ele><time>2026-04-12T06:44:53Z</time></trkpt><trkpt lat="43.61057429463792" lon="6.830411596171208"><ele>168.0</ele><time>2026-04-12T06:44:56Z</time></trkpt><trkpt lat="43.61050218978525" lon="6.830349557986406"><ele>168.0</ele><time>2026-04-12T06:45:00Z</time></trkpt><trkpt lat="43.61045288564827" lon="6.830291751750299"><ele>168.0</ele><time>2026-04-12T06:45:02Z</time></trkpt><trkpt lat="43.61038911961334" lon="6.8302325134122075"><ele>168.0</ele><time>2026-04-12T06:45:05Z</time></trkpt><trkpt lat="43.61033589454184" lon="6.830166163940776"><ele>168.0</ele><time>2026-04-12T06:45:08Z</time></trkpt><trkpt lat="43.61028727196252" lon="6.8300969696355835"><ele>168.0</ele><time>2026-04-12T06:45:10Z</time></trkpt><trkpt lat="43.61024360761429" lon="6.830027257136483"><ele>169.83333333333334</ele><time>2026-04-12T06:45:13Z</time></trkpt><trkpt lat="43.61019067457541" lon="6.829951494797551"><ele>171.66666666666666</ele><time>2026-04-12T06:45:16Z</time></trkpt><trkpt lat="43.61013228612595" lon="6.829870623788506"><ele>173.5</ele><time>2026-04-12T06:45:19Z</time></trkpt><trkpt lat="43.61007660153566" lon="6.829792220435838"><ele>175.33333333333331</ele><time>2026-04-12T06:45:22Z</time></trkpt><trkpt lat="43.61002628687924" lon="6.829719742902073"><ele>177.16666666666666</ele><time>2026-04-12T06:45:25Z</time></trkpt><trkpt lat="43.609968055433185" lon="6.829627324144922"><ele>179.0</ele><time>2026-04-12T06:45:27Z</time></trkpt><trkpt lat="43.60992108626552" lon="6.829534349802538"><ele>179.0</ele><time>2026-04-12T06:45:30Z</time></trkpt><trkpt lat="43.60988079267133" lon="6.8294269790903686"><ele>179.0</ele><time>2026-04-12T06:45:33Z</time></trkpt><trkpt lat="43.609859782515585" lon="6.829308569153365"><ele>179.0</ele><time>2026-04-12T06:45:36Z</time></trkpt><trkpt lat="43.60985131957892" lon="6.829187615690489"><ele>179.0</ele><time>2026-04-12T06:45:39Z</time></trkpt><trkpt lat="43.60984435537488" lon="6.829096709183566"><ele>179.0</ele><time>2026-04-12T06:45:42Z</time></trkpt><trkpt lat="43.60982945292109" lon="6.829001463314717"><ele>179.0</ele><time>2026-04-12T06:45:45Z</time></trkpt><trkpt lat="43.609798160088914" lon="6.828905490483825"><ele>179.33333333333331</ele><time>2026-04-12T06:45:48Z</time></trkpt><trkpt lat="43.60975151477014" lon="6.828803554559276"><ele>179.66666666666666</ele><time>2026-04-12T06:45:50Z</time></trkpt><trkpt lat="43.60968747406138" lon="6.8287295365818235"><ele>180.0</ele><time>2026-04-12T06:45:53Z</time></trkpt><trkpt lat="43.60961533514561" lon="6.82865357862279"><ele>180.33333333333334</ele><time>2026-04-12T06:45:56Z</time></trkpt><trkpt lat="43.609554792575835" lon="6.828591150528914"><ele>180.66666666666669</ele><time>2026-04-12T06:45:59Z</time></trkpt><trkpt lat="43.60947700452584" lon="6.828512674958752"><ele>181.0</ele><time>2026-04-12T06:46:02Z</time></trkpt><trkpt lat="43.60941668060041" lon="6.82845309463037"><ele>181.0</ele><time>2026-04-12T06:46:04Z</time></trkpt><trkpt lat="43.60936250626804" lon="6.828404887263718"><ele>181.0</ele><time>2026-04-12T06:46:06Z</time></trkpt><trkpt lat="43.60931226577551" lon="6.828339337650781"><ele>181.0</ele><time>2026-04-12T06:46:08Z</time></trkpt><trkpt lat="43.609267148296446" lon="6.828268582857148"><ele>181.0</ele><time>2026-04-12T06:46:10Z</time></trkpt><trkpt lat="43.60923201578081" lon="6.8281852579408735"><ele>181.0</ele><time>2026-04-12T06:46:12Z</time></trkpt><trkpt lat="43.6092135966932" lon="6.828090354404206"><ele>181.0</ele><time>2026-04-12T06:46:14Z</time></trkpt><trkpt lat="43.60921009238504" lon="6.82799797092927"><ele>181.0</ele><time>2026-04-12T06:46:16Z</time></trkpt><trkpt lat="43.609216472648995" lon="6.82790923879493"><ele>181.0</ele><time>2026-04-12T06:46:18Z</time></trkpt><trkpt lat="43.609216443238346" lon="6.827818429337886"><ele>181.0</ele><time>2026-04-12T06:46:20Z</time></trkpt><trkpt lat="43.60922704951505" lon="6.8277256790403875"><ele>181.0</ele><time>2026-04-12T06:46:22Z</time></trkpt><trkpt lat="43.60922990174774" lon="6.827633948050851"><ele>181.0</ele><time>2026-04-12T06:46:24Z</time></trkpt><trkpt lat="43.609228591401504" lon="6.8275431781689235"><ele>181.0</ele><time>2026-04-12T06:46:26Z</time></trkpt><trkpt lat="43.6092136766352" lon="6.827455318073242"><ele>181.0</ele><time>2026-04-12T06:46:28Z</time></trkpt><trkpt lat="43.60918369168193" lon="6.827334725648215"><ele>181.0</ele><time>2026-04-12T06:46:31Z</time></trkpt><trkpt lat="43.60913789810187" lon="6.8272224409698286"><ele>181.5</ele><time>2026-04-12T06:46:34Z</time></trkpt><trkpt lat="43.60909350052422" lon="6.827152212075453"><ele>182.0</ele><time>2026-04-12T06:46:36Z</time></trkpt><trkpt lat="43.60903561470617" lon="6.827082819593749"><ele>182.5</ele><time>2026-04-12T06:46:38Z</time></trkpt><trkpt lat="43.6089800919939" lon="6.82700345296312"><ele>183.0</ele><time>2026-04-12T06:46:40Z</time></trkpt><trkpt lat="43.60893263123156" lon="6.826920971704335"><ele>183.5</ele><time>2026-04-12T06:46:42Z</time></trkpt><trkpt lat="43.60888080154372" lon="6.826832862482003"><ele>184.0</ele><time>2026-04-12T06:46:44Z</time></trkpt><trkpt lat="43.608821255804685" lon="6.826746060915373"><ele>184.0</ele><time>2026-04-12T06:46:46Z</time></trkpt><trkpt lat="43.60875593315024" lon="6.826648451089937"><ele>184.0</ele><time>2026-04-12T06:46:48Z</time></trkpt><trkpt lat="43.60868611500308" lon="6.8265495740676725"><ele>184.0</ele><time>2026-04-12T06:46:50Z</time></trkpt><trkpt lat="43.60861154329384" lon="6.82645340155925"><ele>184.0</ele><time>2026-04-12T06:46:52Z</time></trkpt><trkpt lat="43.608534497036956" lon="6.826356717127619"><ele>184.0</ele><time>2026-04-12T06:46:54Z</time></trkpt><trkpt lat="43.60846940042028" lon="6.826242005047392"><ele>184.2</ele><time>2026-04-12T06:46:56Z</time></trkpt><trkpt lat="43.608385924874334" lon="6.826159592982298"><ele>184.39999999999998</ele><time>2026-04-12T06:46:58Z</time></trkpt><trkpt lat="43.608288153423196" lon="6.8260790863770096"><ele>184.6</ele><time>2026-04-12T06:47:00Z</time></trkpt><trkpt lat="43.60820596965974" lon="6.825970552902761"><ele>184.8</ele><time>2026-04-12T06:47:02Z</time></trkpt><trkpt lat="43.608126636006354" lon="6.82585064443832"><ele>185.0</ele><time>2026-04-12T06:47:04Z</time></trkpt><trkpt lat="43.60804500084059" lon="6.825729978638279"><ele>185.0</ele><time>2026-04-12T06:47:06Z</time></trkpt><trkpt lat="43.60795578606846" lon="6.825613245959833"><ele>185.0</ele><time>2026-04-12T06:47:08Z</time></trkpt><trkpt lat="43.607861419696455" lon="6.82549540819677"><ele>185.0</ele><time>2026-04-12T06:47:10Z</time></trkpt><trkpt lat="43.607814649322286" lon="6.825434387224274"><ele>185.0</ele><time>2026-04-12T06:47:11Z</time></trkpt><trkpt lat="43.607765973720035" lon="6.82537367997096"><ele>185.0</ele><time>2026-04-12T06:47:12Z</time></trkpt><trkpt lat="43.607719384195505" lon="6.825314688795277"><ele>185.0</ele><time>2026-04-12T06:47:13Z</time></trkpt><trkpt lat="43.607669360006234" lon="6.825257322390143"><ele>184.28571428571428</ele><time>2026-04-12T06:47:14Z</time></trkpt><trkpt lat="43.607618149060784" lon="6.825201769109546"><ele>183.57142857142856</ele><time>2026-04-12T06:47:15Z</time></trkpt><trkpt lat="43.607567322450684" lon="6.8251440545278435"><ele>182.85714285714283</ele><time>2026-04-12T06:47:16Z</time></trkpt><trkpt lat="43.607514361974985" lon="6.82508548698973"><ele>182.14285714285714</ele><time>2026-04-12T06:47:17Z</time></trkpt><trkpt lat="43.607460079452125" lon="6.825030226590065"><ele>181.42857142857144</ele><time>2026-04-12T06:47:18Z</time></trkpt><trkpt lat="43.60740648611291" lon="6.824971642887607"><ele>180.7142857142857</ele><time>2026-04-12T06:47:19Z</time></trkpt><trkpt lat="43.60735268544066" lon="6.824915888048678"><ele>180.0</ele><time>2026-04-12T06:47:20Z</time></trkpt><trkpt lat="43.60729972247413" lon="6.82486080889739"><ele>180.0</ele><time>2026-04-12T06:47:21Z</time></trkpt><trkpt lat="43.60724934178061" lon="6.824804581708567"><ele>180.0</ele><time>2026-04-12T06:47:22Z</time></trkpt><trkpt lat="43.607201602424546" lon="6.824743651192904"><ele>180.0</ele><time>2026-04-12T06:47:23Z</time></trkpt><trkpt lat="43.607155853552676" lon="6.824679798644388"><ele>180.0</ele><time>2026-04-12T06:47:24Z</time></trkpt><trkpt lat="43.60711116245475" lon="6.82461419594239"><ele>180.0</ele><time>2026-04-12T06:47:25Z</time></trkpt><trkpt lat="43.60706631818883" lon="6.8245445053971565"><ele>180.0</ele><time>2026-04-12T06:47:26Z</time></trkpt><trkpt lat="43.607028832143115" lon="6.824466302107546"><ele>180.0</ele><time>2026-04-12T06:47:27Z</time></trkpt><trkpt lat="43.60699554781817" lon="6.824386073697881"><ele>178.42857142857142</ele><time>2026-04-12T06:47:28Z</time></trkpt><trkpt lat="43.606962398751506" lon="6.824305692106755"><ele>176.85714285714286</ele><time>2026-04-12T06:47:29Z</time></trkpt><trkpt lat="43.60693418623466" lon="6.8242233594804125"><ele>175.28571428571428</ele><time>2026-04-12T06:47:30Z</time></trkpt><trkpt lat="43.60690839802705" lon="6.824136666471774"><ele>173.71428571428572</ele><time>2026-04-12T06:47:31Z</time></trkpt><trkpt lat="43.6068806931133" lon="6.824051065736637"><ele>172.14285714285714</ele><time>2026-04-12T06:47:32Z</time></trkpt><trkpt lat="43.60685262166913" lon="6.8239652626084375"><ele>170.57142857142858</ele><time>2026-04-12T06:47:33Z</time></trkpt><trkpt lat="43.606824899998024" lon="6.823878611693555"><ele>169.0</ele><time>2026-04-12T06:47:34Z</time></trkpt><trkpt lat="43.60679685428031" lon="6.8237932993938495"><ele>169.0</ele><time>2026-04-12T06:47:35Z</time></trkpt><trkpt lat="43.606767777304185" lon="6.823707867098179"><ele>169.0</ele><time>2026-04-12T06:47:36Z</time></trkpt><trkpt lat="43.60673897683465" lon="6.823622060368014"><ele>169.0</ele><time>2026-04-12T06:47:37Z</time></trkpt><trkpt lat="43.60671026143963" lon="6.82353613857291"><ele>169.0</ele><time>2026-04-12T06:47:38Z</time></trkpt><trkpt lat="43.606682328657236" lon="6.823449117870667"><ele>169.0</ele><time>2026-04-12T06:47:39Z</time></trkpt><trkpt lat="43.606649988030725" lon="6.823366589454952"><ele>169.0</ele><time>2026-04-12T06:47:40Z</time></trkpt><trkpt lat="43.606615644037845" lon="6.82328427821813"><ele>169.0</ele><time>2026-04-12T06:47:41Z</time></trkpt><trkpt lat="43.60657789598203" lon="6.823207317261489"><ele>170.57142857142858</ele><time>2026-04-12T06:47:42Z</time></trkpt><trkpt lat="43.606550696070144" lon="6.823116817817931"><ele>172.14285714285714</ele><time>2026-04-12T06:47:43Z</time></trkpt><trkpt lat="43.60651015313459" lon="6.823038850373414"><ele>173.71428571428572</ele><time>2026-04-12T06:47:44Z</time></trkpt><trkpt lat="43.60646704286355" lon="6.822960364998558"><ele>175.28571428571428</ele><time>2026-04-12T06:47:45Z</time></trkpt><trkpt lat="43.60642326195668" lon="6.822883527881489"><ele>176.85714285714286</ele><time>2026-04-12T06:47:46Z</time></trkpt><trkpt lat="43.60637979231036" lon="6.8228080419364066"><ele>178.42857142857142</ele><time>2026-04-12T06:47:47Z</time></trkpt><trkpt lat="43.60633703209516" lon="6.822733787957947"><ele>180.0</ele><time>2026-04-12T06:47:48Z</time></trkpt><trkpt lat="43.606294571696985" lon="6.822660054690166"><ele>182.0</ele><time>2026-04-12T06:47:49Z</time></trkpt><trkpt lat="43.60625189373672" lon="6.822585943591639"><ele>184.0</ele><time>2026-04-12T06:47:50Z</time></trkpt><trkpt lat="43.60620950562449" lon="6.8225123356848885"><ele>186.0</ele><time>2026-04-12T06:47:51Z</time></trkpt><trkpt lat="43.606167818082334" lon="6.822439485636877"><ele>188.0</ele><time>2026-04-12T06:47:52Z</time></trkpt><trkpt lat="43.6061261829645" lon="6.822366589445102"><ele>190.0</ele><time>2026-04-12T06:47:53Z</time></trkpt><trkpt lat="43.606086424443916" lon="6.822296978801601"><ele>192.0</ele><time>2026-04-12T06:47:54Z</time></trkpt><trkpt lat="43.606045100130935" lon="6.8222246267966575"><ele>194.0</ele><time>2026-04-12T06:47:55Z</time></trkpt><trkpt lat="43.6060054123331" lon="6.822155139991765"><ele>191.57142857142856</ele><time>2026-04-12T06:47:56Z</time></trkpt><trkpt lat="43.60596511523572" lon="6.822084586346696"><ele>189.14285714285717</ele><time>2026-04-12T06:47:57Z</time></trkpt><trkpt lat="43.6059248440651" lon="6.822014078184637"><ele>186.71428571428572</ele><time>2026-04-12T06:47:58Z</time></trkpt><trkpt lat="43.605884548281736" lon="6.821943526827151"><ele>184.28571428571428</ele><time>2026-04-12T06:47:59Z</time></trkpt><trkpt lat="43.60584395943057" lon="6.821872462477973"><ele>181.85714285714283</ele><time>2026-04-12T06:48:00Z</time></trkpt><trkpt lat="43.6058035245058" lon="6.821801667642324"><ele>179.42857142857144</ele><time>2026-04-12T06:48:01Z</time></trkpt><trkpt lat="43.60576338191293" lon="6.8217313844769745"><ele>177.0</ele><time>2026-04-12T06:48:02Z</time></trkpt><trkpt lat="43.6057219161971" lon="6.8216587848494665"><ele>177.0</ele><time>2026-04-12T06:48:03Z</time></trkpt><trkpt lat="43.60568695038813" lon="6.821584758021727"><ele>177.0</ele><time>2026-04-12T06:48:04Z</time></trkpt><trkpt lat="43.605644671258936" lon="6.821512484409042"><ele>177.0</ele><time>2026-04-12T06:48:05Z</time></trkpt><trkpt lat="43.60562492595754" lon="6.821428534834641"><ele>177.0</ele><time>2026-04-12T06:48:06Z</time></trkpt><trkpt lat="43.60560669217168" lon="6.821343369559392"><ele>177.0</ele><time>2026-04-12T06:48:07Z</time></trkpt><trkpt lat="43.60556425043846" lon="6.8211816478031135"><ele>177.0</ele><time>2026-04-12T06:48:09Z</time></trkpt><trkpt lat="43.60553172546944" lon="6.821030778237818"><ele>178.57142857142858</ele><time>2026-04-12T06:48:11Z</time></trkpt><trkpt lat="43.605506644426036" lon="6.820935919260752"><ele>180.14285714285714</ele><time>2026-04-12T06:48:13Z</time></trkpt><trkpt lat="43.605487882710015" lon="6.820837066841587"><ele>181.71428571428572</ele><time>2026-04-12T06:48:16Z</time></trkpt><trkpt lat="43.605457159498975" lon="6.820750736462047"><ele>183.28571428571428</ele><time>2026-04-12T06:49:25Z</time></trkpt><trkpt lat="43.60545097049645" lon="6.8206363058558415"><ele>184.85714285714283</ele><time>2026-04-12T06:49:28Z</time></trkpt><trkpt lat="43.6054573388036" lon="6.820542813018522"><ele>186.42857142857142</ele><time>2026-04-12T06:49:30Z</time></trkpt><trkpt lat="43.605461242150284" lon="6.820441321868987"><ele>188.0</ele><time>2026-04-12T06:49:32Z</time></trkpt><trkpt lat="43.60547641087819" lon="6.820342793344741"><ele>188.0</ele><time>2026-04-12T06:49:34Z</time></trkpt><trkpt lat="43.60549131685811" lon="6.820221556360431"><ele>188.0</ele><time>2026-04-12T06:49:36Z</time></trkpt><trkpt lat="43.60550577204847" lon="6.820084168198067"><ele>188.0</ele><time>2026-04-12T06:49:38Z</time></trkpt><trkpt lat="43.60552308007064" lon="6.819934567093017"><ele>188.0</ele><time>2026-04-12T06:49:40Z</time></trkpt><trkpt lat="43.6055558198405" lon="6.819772335990749"><ele>188.0</ele><time>2026-04-12T06:49:42Z</time></trkpt><trkpt lat="43.60555911983606" lon="6.819685506502814"><ele>187.85714285714286</ele><time>2026-04-12T06:49:43Z</time></trkpt><trkpt lat="43.60556070468696" lon="6.819598176964656"><ele>187.71428571428572</ele><time>2026-04-12T06:49:44Z</time></trkpt><trkpt lat="43.60556140121915" lon="6.819508063107416"><ele>187.57142857142856</ele><time>2026-04-12T06:49:45Z</time></trkpt><trkpt lat="43.60556209828807" lon="6.819417879894186"><ele>187.42857142857144</ele><time>2026-04-12T06:49:46Z</time></trkpt><trkpt lat="43.60556280321896" lon="6.819326679452489"><ele>187.2857142857143</ele><time>2026-04-12T06:49:47Z</time></trkpt><trkpt lat="43.605563512982556" lon="6.819234853856211"><ele>187.14285714285714</ele><time>2026-04-12T06:49:48Z</time></trkpt><trkpt lat="43.60556421204563" lon="6.819144412608519"><ele>187.0</ele><time>2026-04-12T06:49:49Z</time></trkpt><trkpt lat="43.605564909847956" lon="6.819054134487639"><ele>187.0</ele><time>2026-04-12T06:49:50Z</time></trkpt><trkpt lat="43.60556581041656" lon="6.818965357026329"><ele>187.0</ele><time>2026-04-12T06:49:51Z</time></trkpt><trkpt lat="43.605567119293255" lon="6.818874651823093"><ele>187.0</ele><time>2026-04-12T06:49:52Z</time></trkpt><trkpt lat="43.605568457329184" lon="6.818786552718979"><ele>187.0</ele><time>2026-04-12T06:49:53Z</time></trkpt><trkpt lat="43.60555553032834" lon="6.818695393131638"><ele>187.0</ele><time>2026-04-12T06:49:54Z</time></trkpt><trkpt lat="43.60556185551386" lon="6.81860857402922"><ele>187.0</ele><time>2026-04-12T06:49:55Z</time></trkpt><trkpt lat="43.60557118848117" lon="6.81851803660005"><ele>187.0</ele><time>2026-04-12T06:49:56Z</time></trkpt><trkpt lat="43.60558400009662" lon="6.818430889963592"><ele>186.125</ele><time>2026-04-12T06:49:57Z</time></trkpt><trkpt lat="43.60559597817727" lon="6.818342516126485"><ele>185.25</ele><time>2026-04-12T06:49:58Z</time></trkpt><trkpt lat="43.605609216365174" lon="6.818256798262322"><ele>184.375</ele><time>2026-04-12T06:49:59Z</time></trkpt><trkpt lat="43.60562593814937" lon="6.8181710914073115"><ele>183.5</ele><time>2026-04-12T06:50:00Z</time></trkpt><trkpt lat="43.6056450818021" lon="6.818088077492653"><ele>182.625</ele><time>2026-04-12T06:50:01Z</time></trkpt><trkpt lat="43.605667090336844" lon="6.818004474237475"><ele>181.75</ele><time>2026-04-12T06:50:02Z</time></trkpt><trkpt lat="43.60569593062299" lon="6.817925729661742"><ele>180.875</ele><time>2026-04-12T06:50:03Z</time></trkpt><trkpt lat="43.605731555576" lon="6.817853254511779"><ele>180.0</ele><time>2026-04-12T06:50:04Z</time></trkpt><trkpt lat="43.60577208036151" lon="6.8177840722040255"><ele>180.0</ele><time>2026-04-12T06:50:05Z</time></trkpt><trkpt lat="43.605815138007074" lon="6.8177192086084615"><ele>180.0</ele><time>2026-04-12T06:50:06Z</time></trkpt><trkpt lat="43.60586592332229" lon="6.8176661621675425"><ele>180.0</ele><time>2026-04-12T06:50:07Z</time></trkpt><trkpt lat="43.60598262287264" lon="6.817605904802649"><ele>180.0</ele><time>2026-04-12T06:50:09Z</time></trkpt><trkpt lat="43.606102199319395" lon="6.8175606235778226"><ele>180.0</ele><time>2026-04-12T06:50:11Z</time></trkpt><trkpt lat="43.60622214058842" lon="6.817520493317837"><ele>179.0</ele><time>2026-04-12T06:50:13Z</time></trkpt><trkpt lat="43.60634353300053" lon="6.817486693670622"><ele>178.0</ele><time>2026-04-12T06:50:15Z</time></trkpt><trkpt lat="43.60646584684283" lon="6.8174520019846625"><ele>177.0</ele><time>2026-04-12T06:50:17Z</time></trkpt><trkpt lat="43.60658987889854" lon="6.817436508381439"><ele>176.0</ele><time>2026-04-12T06:50:19Z</time></trkpt><trkpt lat="43.60671325300536" lon="6.81746782764332"><ele>176.0</ele><time>2026-04-12T06:50:21Z</time></trkpt><trkpt lat="43.606833034405874" lon="6.817518029605595"><ele>176.0</ele><time>2026-04-12T06:50:23Z</time></trkpt><trkpt lat="43.606951564449275" lon="6.8175718882911935"><ele>176.0</ele><time>2026-04-12T06:50:25Z</time></trkpt><trkpt lat="43.60706968210654" lon="6.817632316268773"><ele>176.0</ele><time>2026-04-12T06:50:27Z</time></trkpt><trkpt lat="43.60712901278844" lon="6.817666440848959"><ele>176.0</ele><time>2026-04-12T06:50:28Z</time></trkpt><trkpt lat="43.607189484526" lon="6.8176996106787895"><ele>177.8</ele><time>2026-04-12T06:50:29Z</time></trkpt><trkpt lat="43.60724902046398" lon="6.817731287287264"><ele>179.60000000000002</ele><time>2026-04-12T06:50:30Z</time></trkpt><trkpt lat="43.60736466549127" lon="6.817794757010655"><ele>181.4</ele><time>2026-04-12T06:50:32Z</time></trkpt><trkpt lat="43.60742319912228" lon="6.817827946270377"><ele>183.2</ele><time>2026-04-12T06:50:33Z</time></trkpt><trkpt lat="43.60753479129429" lon="6.8179028555710675"><ele>185.0</ele><time>2026-04-12T06:50:35Z</time></trkpt><trkpt lat="43.60764502493367" lon="6.817989463007021"><ele>184.99999999999997</ele><time>2026-04-12T06:50:37Z</time></trkpt><trkpt lat="43.60769846236986" lon="6.818039331224709"><ele>185.0</ele><time>2026-04-12T06:50:38Z</time></trkpt><trkpt lat="43.60775364609113" lon="6.81808647679197"><ele>185.0</ele><time>2026-04-12T06:50:39Z</time></trkpt><trkpt lat="43.60780826197813" lon="6.818134537470987"><ele>185.0</ele><time>2026-04-12T06:50:40Z</time></trkpt><trkpt lat="43.60786580946663" lon="6.818178979863535"><ele>185.0</ele><time>2026-04-12T06:50:41Z</time></trkpt><trkpt lat="43.607921406278926" lon="6.818228532954599"><ele>184.99999999999997</ele><time>2026-04-12T06:50:42Z</time></trkpt><trkpt lat="43.607979258809024" lon="6.818273955054938"><ele>185.0</ele><time>2026-04-12T06:50:43Z</time></trkpt><trkpt lat="43.60803663846841" lon="6.818315046056784"><ele>185.28571428571428</ele><time>2026-04-12T06:50:44Z</time></trkpt><trkpt lat="43.60809503139675" lon="6.818356226643873"><ele>185.57142857142856</ele><time>2026-04-12T06:50:45Z</time></trkpt><trkpt lat="43.608151247124276" lon="6.818401792354146"><ele>185.85714285714283</ele><time>2026-04-12T06:50:46Z</time></trkpt><trkpt lat="43.6082080252124" lon="6.8184470223445315"><ele>186.14285714285714</ele><time>2026-04-12T06:50:47Z</time></trkpt><trkpt lat="43.60826493984152" lon="6.818491328226624"><ele>186.42857142857144</ele><time>2026-04-12T06:50:48Z</time></trkpt><trkpt lat="43.608321962132216" lon="6.818534107029672"><ele>186.7142857142857</ele><time>2026-04-12T06:50:49Z</time></trkpt><trkpt lat="43.60838067266365" lon="6.8185731095505036"><ele>187.0</ele><time>2026-04-12T06:50:50Z</time></trkpt><trkpt lat="43.6084379527744" lon="6.818612413465"><ele>187.0</ele><time>2026-04-12T06:50:51Z</time></trkpt><trkpt lat="43.60849541982335" lon="6.818650848463506"><ele>187.0</ele><time>2026-04-12T06:50:52Z</time></trkpt><trkpt lat="43.6085536454973" lon="6.81868985810537"><ele>187.0</ele><time>2026-04-12T06:50:53Z</time></trkpt><trkpt lat="43.60861019557908" lon="6.818729873229089"><ele>187.0</ele><time>2026-04-12T06:50:54Z</time></trkpt><trkpt lat="43.608666537144686" lon="6.818772263070465"><ele>187.0</ele><time>2026-04-12T06:50:55Z</time></trkpt><trkpt lat="43.60872403048595" lon="6.818816379179434"><ele>187.0</ele><time>2026-04-12T06:50:56Z</time></trkpt><trkpt lat="43.60878049978289" lon="6.818857848263908"><ele>187.0</ele><time>2026-04-12T06:50:57Z</time></trkpt><trkpt lat="43.60883806534512" lon="6.818897122098866"><ele>186.0</ele><time>2026-04-12T06:50:58Z</time></trkpt><trkpt lat="43.60889501288792" lon="6.818939541722772"><ele>185.0</ele><time>2026-04-12T06:50:59Z</time></trkpt><trkpt lat="43.60895196175106" lon="6.818982901352494"><ele>184.0</ele><time>2026-04-12T06:51:00Z</time></trkpt><trkpt lat="43.60900705708565" lon="6.819027698763"><ele>183.0</ele><time>2026-04-12T06:51:01Z</time></trkpt><trkpt lat="43.60906365321702" lon="6.819067601514271"><ele>182.0</ele><time>2026-04-12T06:51:02Z</time></trkpt><trkpt lat="43.60917261648682" lon="6.819146880858129"><ele>181.0</ele><time>2026-04-12T06:51:04Z</time></trkpt><trkpt lat="43.609281943035256" lon="6.819223494954889"><ele>181.0</ele><time>2026-04-12T06:51:06Z</time></trkpt><trkpt lat="43.60939826983725" lon="6.819288616718859"><ele>181.0</ele><time>2026-04-12T06:51:08Z</time></trkpt><trkpt lat="43.60945938632918" lon="6.819311389632033"><ele>181.0</ele><time>2026-04-12T06:51:09Z</time></trkpt><trkpt lat="43.60952332716691" lon="6.819326663296175"><ele>181.0</ele><time>2026-04-12T06:51:10Z</time></trkpt><trkpt lat="43.609588236347705" lon="6.819333977441179"><ele>181.0</ele><time>2026-04-12T06:51:11Z</time></trkpt><trkpt lat="43.609653126816454" lon="6.819338924345167"><ele>181.0</ele><time>2026-04-12T06:51:12Z</time></trkpt><trkpt lat="43.60977560685948" lon="6.819344853036228"><ele>181.75</ele><time>2026-04-12T06:51:14Z</time></trkpt><trkpt lat="43.60989187855816" lon="6.819363807626095"><ele>182.5</ele><time>2026-04-12T06:51:16Z</time></trkpt><trkpt lat="43.61000508461111" lon="6.819418900136629"><ele>183.25</ele><time>2026-04-12T06:51:18Z</time></trkpt><trkpt lat="43.61010231421088" lon="6.819506965076281"><ele>184.0</ele><time>2026-04-12T06:51:20Z</time></trkpt><trkpt lat="43.61019105744831" lon="6.819607331145879"><ele>184.0</ele><time>2026-04-12T06:51:22Z</time></trkpt><trkpt lat="43.610277324895904" lon="6.8197142760918315"><ele>184.0</ele><time>2026-04-12T06:51:24Z</time></trkpt><trkpt lat="43.61036685773849" lon="6.819817011793507"><ele>184.0</ele><time>2026-04-12T06:51:26Z</time></trkpt><trkpt lat="43.61045407489092" lon="6.819926891076063"><ele>184.0</ele><time>2026-04-12T06:51:28Z</time></trkpt><trkpt lat="43.61054699793793" lon="6.820030442818306"><ele>184.75</ele><time>2026-04-12T06:51:30Z</time></trkpt><trkpt lat="43.61064071632294" lon="6.820135045799824"><ele>185.5</ele><time>2026-04-12T06:51:32Z</time></trkpt><trkpt lat="43.610739644730344" lon="6.820226258054847"><ele>186.25</ele><time>2026-04-12T06:51:34Z</time></trkpt><trkpt lat="43.610843072548285" lon="6.820294672385978"><ele>187.0</ele><time>2026-04-12T06:51:36Z</time></trkpt><trkpt lat="43.61095425090454" lon="6.820342489795118"><ele>187.0</ele><time>2026-04-12T06:51:38Z</time></trkpt><trkpt lat="43.611061088979106" lon="6.820396248384607"><ele>187.0</ele><time>2026-04-12T06:51:40Z</time></trkpt><trkpt lat="43.611168562358294" lon="6.820438584002479"><ele>187.0</ele><time>2026-04-12T06:51:42Z</time></trkpt><trkpt lat="43.611274424772056" lon="6.820486488070689"><ele>187.0</ele><time>2026-04-12T06:51:44Z</time></trkpt><trkpt lat="43.611378358910784" lon="6.820520454008834"><ele>187.0</ele><time>2026-04-12T06:51:46Z</time></trkpt><trkpt lat="43.611484006226576" lon="6.820533847231894"><ele>186.0</ele><time>2026-04-12T06:51:48Z</time></trkpt><trkpt lat="43.61158906445741" lon="6.820535801975223"><ele>185.0</ele><time>2026-04-12T06:51:50Z</time></trkpt><trkpt lat="43.61169027734881" lon="6.820513286856077"><ele>184.0</ele><time>2026-04-12T06:51:52Z</time></trkpt><trkpt lat="43.61178695380597" lon="6.820463249262692"><ele>183.0</ele><time>2026-04-12T06:51:54Z</time></trkpt><trkpt lat="43.61187262561764" lon="6.820391624871681"><ele>182.0</ele><time>2026-04-12T06:51:56Z</time></trkpt><trkpt lat="43.611953352018645" lon="6.820305668002471"><ele>181.8</ele><time>2026-04-12T06:51:58Z</time></trkpt><trkpt lat="43.61202800026431" lon="6.820219092979255"><ele>181.6</ele><time>2026-04-12T06:52:00Z</time></trkpt><trkpt lat="43.6121024521896" lon="6.820137403229902"><ele>181.4</ele><time>2026-04-12T06:52:02Z</time></trkpt><trkpt lat="43.612166339346714" lon="6.820053104007134"><ele>181.20000000000002</ele><time>2026-04-12T06:52:04Z</time></trkpt><trkpt lat="43.61223078836109" lon="6.819971751442603"><ele>181.0</ele><time>2026-04-12T06:52:06Z</time></trkpt><trkpt lat="43.612297814216404" lon="6.8198810238222345"><ele>181.4</ele><time>2026-04-12T06:52:08Z</time></trkpt><trkpt lat="43.61236888079066" lon="6.819781092884118"><ele>181.8</ele><time>2026-04-12T06:52:10Z</time></trkpt><trkpt lat="43.61241829215691" lon="6.8196337824205"><ele>182.20000000000002</ele><time>2026-04-12T06:52:12Z</time></trkpt><trkpt lat="43.612419252019414" lon="6.819540116343779"><ele>182.60000000000002</ele><time>2026-04-12T06:52:13Z</time></trkpt><trkpt lat="43.612407716021885" lon="6.819451498283733"><ele>183.0</ele><time>2026-04-12T06:52:14Z</time></trkpt><trkpt lat="43.612363115152995" lon="6.819296362585995"><ele>183.0</ele><time>2026-04-12T06:52:16Z</time></trkpt><trkpt lat="43.6123825740601" lon="6.819152021458567"><ele>183.0</ele><time>2026-04-12T06:52:18Z</time></trkpt><trkpt lat="43.612430165005215" lon="6.8190257613625676"><ele>183.0</ele><time>2026-04-12T06:52:20Z</time></trkpt><trkpt lat="43.612463606951785" lon="6.818885660784326"><ele>183.0</ele><time>2026-04-12T06:52:22Z</time></trkpt><trkpt lat="43.61243173683244" lon="6.818733967795819"><ele>183.0</ele><time>2026-04-12T06:52:24Z</time></trkpt><trkpt lat="43.61237580458464" lon="6.8186026930787955"><ele>183.4</ele><time>2026-04-12T06:52:26Z</time></trkpt><trkpt lat="43.612322929236996" lon="6.818484431006303"><ele>183.8</ele><time>2026-04-12T06:52:28Z</time></trkpt><trkpt lat="43.61227900616525" lon="6.818366653683548"><ele>184.2</ele><time>2026-04-12T06:52:30Z</time></trkpt><trkpt lat="43.61224567698729" lon="6.8182525348920775"><ele>184.6</ele><time>2026-04-12T06:52:32Z</time></trkpt><trkpt lat="43.61221651309194" lon="6.818140896541406"><ele>185.0</ele><time>2026-04-12T06:52:34Z</time></trkpt><trkpt lat="43.61219032491504" lon="6.818034311852619"><ele>185.0</ele><time>2026-04-12T06:52:36Z</time></trkpt><trkpt lat="43.612166823695674" lon="6.817928410701759"><ele>185.0</ele><time>2026-04-12T06:52:38Z</time></trkpt><trkpt lat="43.6121463867212" lon="6.817823850238856"><ele>185.0</ele><time>2026-04-12T06:52:40Z</time></trkpt><trkpt lat="43.61212641635457" lon="6.817721630201727"><ele>185.0</ele><time>2026-04-12T06:52:42Z</time></trkpt><trkpt lat="43.612105149332656" lon="6.817621751804566"><ele>185.0</ele><time>2026-04-12T06:52:44Z</time></trkpt><trkpt lat="43.61208940343271" lon="6.817522324331908"><ele>185.0</ele><time>2026-04-12T06:52:46Z</time></trkpt><trkpt lat="43.612077482794696" lon="6.817425364761496"><ele>184.85714285714283</ele><time>2026-04-12T06:52:48Z</time></trkpt><trkpt lat="43.61206306566159" lon="6.817331896599311"><ele>184.71428571428572</ele><time>2026-04-12T06:52:50Z</time></trkpt><trkpt lat="43.61204755567371" lon="6.817238238462155"><ele>184.57142857142856</ele><time>2026-04-12T06:52:52Z</time></trkpt><trkpt lat="43.612031066436856" lon="6.81714263972014"><ele>184.42857142857142</ele><time>2026-04-12T06:52:54Z</time></trkpt><trkpt lat="43.612015377919846" lon="6.817047704784435"><ele>184.28571428571428</ele><time>2026-04-12T06:52:56Z</time></trkpt><trkpt lat="43.6119999084953" lon="6.816952589246352"><ele>184.14285714285714</ele><time>2026-04-12T06:52:58Z</time></trkpt><trkpt lat="43.61198381304388" lon="6.81685460840142"><ele>184.0</ele><time>2026-04-12T06:53:00Z</time></trkpt><trkpt lat="43.611964151475654" lon="6.816743513257925"><ele>185.33333333333334</ele><time>2026-04-12T06:53:03Z</time></trkpt><trkpt lat="43.61193905749661" lon="6.816628428646605"><ele>186.66666666666669</ele><time>2026-04-12T06:53:05Z</time></trkpt><trkpt lat="43.611927203942464" lon="6.8165141238974"><ele>188.0</ele><time>2026-04-12T06:53:07Z</time></trkpt><trkpt lat="43.61190737331592" lon="6.816420884385914"><ele>189.33333333333334</ele><time>2026-04-12T06:53:09Z</time></trkpt><trkpt lat="43.611884711318616" lon="6.816326760326396"><ele>190.66666666666666</ele><time>2026-04-12T06:53:11Z</time></trkpt><trkpt lat="43.6118616981727" lon="6.816233645985378"><ele>192.0</ele><time>2026-04-12T06:53:13Z</time></trkpt><trkpt lat="43.61183559559086" lon="6.816138966462765"><ele>191.99999999999997</ele><time>2026-04-12T06:53:15Z</time></trkpt><trkpt lat="43.61180438029181" lon="6.816046224372217"><ele>192.0</ele><time>2026-04-12T06:53:17Z</time></trkpt><trkpt lat="43.611770471338545" lon="6.815958714693284"><ele>192.0</ele><time>2026-04-12T06:53:19Z</time></trkpt><trkpt lat="43.61173257994677" lon="6.815870108069765"><ele>192.0</ele><time>2026-04-12T06:53:21Z</time></trkpt><trkpt lat="43.61169233438924" lon="6.815782282820095"><ele>192.0</ele><time>2026-04-12T06:53:23Z</time></trkpt><trkpt lat="43.61164292137516" lon="6.815705904497492"><ele>191.99999999999997</ele><time>2026-04-12T06:53:25Z</time></trkpt><trkpt lat="43.61159865926892" lon="6.815617396234423"><ele>192.0</ele><time>2026-04-12T06:53:27Z</time></trkpt><trkpt lat="43.61154432922839" lon="6.815536991150849"><ele>192.5</ele><time>2026-04-12T06:53:29Z</time></trkpt><trkpt lat="43.611488695916115" lon="6.815455279966837"><ele>193.0</ele><time>2026-04-12T06:53:31Z</time></trkpt><trkpt lat="43.611429532025355" lon="6.81538103061532"><ele>193.5</ele><time>2026-04-12T06:53:33Z</time></trkpt><trkpt lat="43.61137369295595" lon="6.815305655002884"><ele>194.0</ele><time>2026-04-12T06:53:35Z</time></trkpt><trkpt lat="43.61131316373725" lon="6.815231984556853"><ele>194.5</ele><time>2026-04-12T06:53:37Z</time></trkpt><trkpt lat="43.61124708963328" lon="6.815166635753949"><ele>195.0</ele><time>2026-04-12T06:53:39Z</time></trkpt><trkpt lat="43.61118439950051" lon="6.815098195512102"><ele>195.0</ele><time>2026-04-12T06:53:41Z</time></trkpt><trkpt lat="43.61112062881298" lon="6.815031550849178"><ele>195.0</ele><time>2026-04-12T06:53:43Z</time></trkpt><trkpt lat="43.61105984507713" lon="6.814963815874747"><ele>195.0</ele><time>2026-04-12T06:53:45Z</time></trkpt><trkpt lat="43.61100021284572" lon="6.814900603621231"><ele>195.0</ele><time>2026-04-12T06:53:47Z</time></trkpt><trkpt lat="43.610938418800046" lon="6.81484062877734"><ele>195.0</ele><time>2026-04-12T06:53:49Z</time></trkpt><trkpt lat="43.61087484604543" lon="6.814779512566113"><ele>195.0</ele><time>2026-04-12T06:53:51Z</time></trkpt><trkpt lat="43.610814373851134" lon="6.814717100961098"><ele>195.0</ele><time>2026-04-12T06:53:53Z</time></trkpt><trkpt lat="43.6107510025881" lon="6.814650950544248"><ele>195.0</ele><time>2026-04-12T06:53:55Z</time></trkpt><trkpt lat="43.61068969163164" lon="6.814597864765344"><ele>195.0</ele><time>2026-04-12T06:53:57Z</time></trkpt><trkpt lat="43.610629121980836" lon="6.814548467701674"><ele>195.0</ele><time>2026-04-12T06:53:59Z</time></trkpt><trkpt lat="43.61057138554881" lon="6.814495093825631"><ele>195.0</ele><time>2026-04-12T06:54:01Z</time></trkpt><trkpt lat="43.61051561974807" lon="6.814445257929085"><ele>195.0</ele><time>2026-04-12T06:54:03Z</time></trkpt><trkpt lat="43.61044358196029" lon="6.814380213773154"><ele>195.0</ele><time>2026-04-12T06:54:06Z</time></trkpt><trkpt lat="43.61037296181397" lon="6.814316990974494"><ele>196.5</ele><time>2026-04-12T06:54:09Z</time></trkpt><trkpt lat="43.610312862041496" lon="6.814277051926235"><ele>198.0</ele><time>2026-04-12T06:54:11Z</time></trkpt><trkpt lat="43.61025172429954" lon="6.8142208793013515"><ele>199.5</ele><time>2026-04-12T06:54:13Z</time></trkpt><trkpt lat="43.61017281193889" lon="6.814145933217901"><ele>201.0</ele><time>2026-04-12T06:54:16Z</time></trkpt><trkpt lat="43.610121766151714" lon="6.814093975508856"><ele>202.5</ele><time>2026-04-12T06:54:18Z</time></trkpt><trkpt lat="43.6100464255426" lon="6.814025599174161"><ele>204.0</ele><time>2026-04-12T06:54:21Z</time></trkpt><trkpt lat="43.60997202219699" lon="6.8139565509370845"><ele>204.0</ele><time>2026-04-12T06:54:24Z</time></trkpt><trkpt lat="43.609897817396224" lon="6.813882949840326"><ele>204.0</ele><time>2026-04-12T06:54:27Z</time></trkpt><trkpt lat="43.60983438418142" lon="6.813805354506899"><ele>204.0</ele><time>2026-04-12T06:54:30Z</time></trkpt><trkpt lat="43.60976831911173" lon="6.813734117440297"><ele>204.0</ele><time>2026-04-12T06:54:33Z</time></trkpt><trkpt lat="43.609701898079926" lon="6.813669119829085"><ele>204.0</ele><time>2026-04-12T06:54:36Z</time></trkpt><trkpt lat="43.60964063468206" lon="6.8135984891762815"><ele>204.0</ele><time>2026-04-12T06:54:39Z</time></trkpt><trkpt lat="43.60958045872517" lon="6.813520791296346"><ele>204.16666666666666</ele><time>2026-04-12T06:54:42Z</time></trkpt><trkpt lat="43.60951726934299" lon="6.813436152178441"><ele>204.33333333333331</ele><time>2026-04-12T06:54:46Z</time></trkpt><trkpt lat="43.60945842906099" lon="6.813350898131328"><ele>204.5</ele><time>2026-04-12T06:54:49Z</time></trkpt><trkpt lat="43.60940556464403" lon="6.813268827392921"><ele>204.66666666666666</ele><time>2026-04-12T06:54:51Z</time></trkpt><trkpt lat="43.60935543802685" lon="6.81318370722656"><ele>204.83333333333331</ele><time>2026-04-12T06:54:54Z</time></trkpt><trkpt lat="43.60930685674606" lon="6.813089898722915"><ele>205.0</ele><time>2026-04-12T06:54:58Z</time></trkpt><trkpt lat="43.609258294822" lon="6.812991141202927"><ele>204.99999999999997</ele><time>2026-04-12T06:55:01Z</time></trkpt><trkpt lat="43.609213976591725" lon="6.812883386038466"><ele>205.0</ele><time>2026-04-12T06:55:04Z</time></trkpt><trkpt lat="43.60918966103049" lon="6.812794496612653"><ele>205.0</ele><time>2026-04-12T06:55:07Z</time></trkpt><trkpt lat="43.609173643495375" lon="6.812704606541075"><ele>205.0</ele><time>2026-04-12T06:55:09Z</time></trkpt><trkpt lat="43.609159451367276" lon="6.812608943238787"><ele>204.99999999999997</ele><time>2026-04-12T06:55:12Z</time></trkpt><trkpt lat="43.60915557417244" lon="6.812504981950154"><ele>205.0</ele><time>2026-04-12T06:55:15Z</time></trkpt><trkpt lat="43.60916215835989" lon="6.812394875503409"><ele>206.49999999999997</ele><time>2026-04-12T06:55:18Z</time></trkpt><trkpt lat="43.60917430238801" lon="6.812252784896955"><ele>208.0</ele><time>2026-04-12T06:55:21Z</time></trkpt><trkpt lat="43.6091893788736" lon="6.812134943900455"><ele>209.5</ele><time>2026-04-12T06:55:24Z</time></trkpt><trkpt lat="43.60920400529696" lon="6.8120169175729295"><ele>211.0</ele><time>2026-04-12T06:55:27Z</time></trkpt><trkpt lat="43.609212576236544" lon="6.811900468043361"><ele>212.49999999999997</ele><time>2026-04-12T06:55:30Z</time></trkpt><trkpt lat="43.609220027373" lon="6.811798074506348"><ele>214.0</ele><time>2026-04-12T06:55:33Z</time></trkpt><trkpt lat="43.60921954451363" lon="6.811670014226015"><ele>214.33333333333331</ele><time>2026-04-12T06:55:36Z</time></trkpt><trkpt lat="43.6092105576353" lon="6.811555433701132"><ele>214.66666666666666</ele><time>2026-04-12T06:55:39Z</time></trkpt><trkpt lat="43.60919684124494" lon="6.811456629898669"><ele>215.0</ele><time>2026-04-12T06:55:41Z</time></trkpt><trkpt lat="43.609186281302065" lon="6.811366693176454"><ele>215.33333333333331</ele><time>2026-04-12T06:55:43Z</time></trkpt><trkpt lat="43.6091648819099" lon="6.811250266808021"><ele>215.66666666666666</ele><time>2026-04-12T06:55:46Z</time></trkpt><trkpt lat="43.609138494499895" lon="6.811134105430619"><ele>216.0</ele><time>2026-04-12T06:55:49Z</time></trkpt><trkpt lat="43.60910932032943" lon="6.811020246177976"><ele>217.5</ele><time>2026-04-12T06:55:52Z</time></trkpt><trkpt lat="43.609076092306815" lon="6.810910607890621"><ele>219.0</ele><time>2026-04-12T06:55:55Z</time></trkpt><trkpt lat="43.609040447910544" lon="6.81080382875791"><ele>220.5</ele><time>2026-04-12T06:55:58Z</time></trkpt><trkpt lat="43.60899113921893" lon="6.81070875333397"><ele>222.0</ele><time>2026-04-12T06:56:01Z</time></trkpt><trkpt lat="43.60893981630182" lon="6.810617334213017"><ele>223.5</ele><time>2026-04-12T06:56:04Z</time></trkpt><trkpt lat="43.60888447714882" lon="6.810537585370008"><ele>225.0</ele><time>2026-04-12T06:56:07Z</time></trkpt><trkpt lat="43.60883286232662" lon="6.810477780334474"><ele>225.00000000000003</ele><time>2026-04-12T06:56:10Z</time></trkpt><trkpt lat="43.60877823023141" lon="6.810418835530007"><ele>225.0</ele><time>2026-04-12T06:56:13Z</time></trkpt><trkpt lat="43.60872313138059" lon="6.810368032122902"><ele>225.00000000000003</ele><time>2026-04-12T06:56:15Z</time></trkpt><trkpt lat="43.60866071131928" lon="6.810320703850075"><ele>225.00000000000003</ele><time>2026-04-12T06:56:18Z</time></trkpt><trkpt lat="43.60860240904851" lon="6.810282218391955"><ele>225.0</ele><time>2026-04-12T06:56:20Z</time></trkpt><trkpt lat="43.60852531300474" lon="6.810231727261464"><ele>225.00000000000003</ele><time>2026-04-12T06:56:24Z</time></trkpt><trkpt lat="43.60846225497535" lon="6.81019848969249"><ele>225.00000000000003</ele><time>2026-04-12T06:56:26Z</time></trkpt><trkpt lat="43.608382874708234" lon="6.810156939404702"><ele>225.83333333333334</ele><time>2026-04-12T06:56:28Z</time></trkpt><trkpt lat="43.60829748767169" lon="6.810118922884497"><ele>226.66666666666669</ele><time>2026-04-12T06:56:31Z</time></trkpt><trkpt lat="43.608210583612994" lon="6.810082614296822"><ele>227.5</ele><time>2026-04-12T06:56:34Z</time></trkpt><trkpt lat="43.60812319827946" lon="6.810047505950932"><ele>228.33333333333334</ele><time>2026-04-12T06:56:37Z</time></trkpt><trkpt lat="43.608040910192635" lon="6.810009687024803"><ele>229.16666666666669</ele><time>2026-04-12T06:56:40Z</time></trkpt><trkpt lat="43.607956057762365" lon="6.809971051393992"><ele>230.0</ele><time>2026-04-12T06:56:43Z</time></trkpt><trkpt lat="43.60787127463891" lon="6.809933704082135"><ele>229.00000000000003</ele><time>2026-04-12T06:56:46Z</time></trkpt><trkpt lat="43.60778810473784" lon="6.809896787928763"><ele>228.0</ele><time>2026-04-12T06:56:49Z</time></trkpt><trkpt lat="43.60770177148238" lon="6.809858772074597"><ele>227.0</ele><time>2026-04-12T06:56:52Z</time></trkpt><trkpt lat="43.60761600609437" lon="6.809822234649052"><ele>226.0</ele><time>2026-04-12T06:56:55Z</time></trkpt><trkpt lat="43.6075341767729" lon="6.809778683558008"><ele>225.00000000000003</ele><time>2026-04-12T06:56:58Z</time></trkpt><trkpt lat="43.607451660655634" lon="6.809734644371751"><ele>224.0</ele><time>2026-04-12T06:57:01Z</time></trkpt><trkpt lat="43.60736968624174" lon="6.809687018729919"><ele>224.0</ele><time>2026-04-12T06:57:04Z</time></trkpt><trkpt lat="43.60728949862177" lon="6.809634631472621"><ele>223.99999999999997</ele><time>2026-04-12T06:57:07Z</time></trkpt><trkpt lat="43.60720742428457" lon="6.809582274692401"><ele>223.99999999999997</ele><time>2026-04-12T06:57:10Z</time></trkpt><trkpt lat="43.607127457627186" lon="6.809521963498942"><ele>224.0</ele><time>2026-04-12T06:57:13Z</time></trkpt><trkpt lat="43.60704837505818" lon="6.809459573819049"><ele>224.0</ele><time>2026-04-12T06:57:16Z</time></trkpt><trkpt lat="43.60696924721381" lon="6.809388820699498"><ele>223.57142857142858</ele><time>2026-04-12T06:57:19Z</time></trkpt><trkpt lat="43.606914902586325" lon="6.809343617347291"><ele>223.14285714285714</ele><time>2026-04-12T06:57:21Z</time></trkpt><trkpt lat="43.606860659638755" lon="6.809293570795481"><ele>222.71428571428572</ele><time>2026-04-12T06:57:23Z</time></trkpt><trkpt lat="43.606803822733724" lon="6.809240928916496"><ele>222.28571428571428</ele><time>2026-04-12T06:57:25Z</time></trkpt><trkpt lat="43.60674274697236" lon="6.809189368490231"><ele>221.85714285714286</ele><time>2026-04-12T06:57:27Z</time></trkpt><trkpt lat="43.60668762004676" lon="6.80913516828249"><ele>221.42857142857144</ele><time>2026-04-12T06:57:29Z</time></trkpt><trkpt lat="43.60663329175978" lon="6.809074243354545"><ele>221.0</ele><time>2026-04-12T06:57:31Z</time></trkpt><trkpt lat="43.60657621608362" lon="6.809018051354834"><ele>223.0</ele><time>2026-04-12T06:57:33Z</time></trkpt><trkpt lat="43.60652157742588" lon="6.808955399511937"><ele>225.0</ele><time>2026-04-12T06:57:35Z</time></trkpt><trkpt lat="43.60646653473651" lon="6.808890591890743"><ele>227.0</ele><time>2026-04-12T06:57:37Z</time></trkpt><trkpt lat="43.606415586385005" lon="6.808827223994332"><ele>229.0</ele><time>2026-04-12T06:57:39Z</time></trkpt><trkpt lat="43.6063703837112" lon="6.808758702039878"><ele>230.99999999999997</ele><time>2026-04-12T06:57:41Z</time></trkpt><trkpt lat="43.60632156946097" lon="6.8086902012934685"><ele>233.0</ele><time>2026-04-12T06:57:43Z</time></trkpt><trkpt lat="43.6062757283766" lon="6.808619876037708"><ele>235.0</ele><time>2026-04-12T06:57:45Z</time></trkpt><trkpt lat="43.60622943812411" lon="6.808551179302864"><ele>235.0</ele><time>2026-04-12T06:57:47Z</time></trkpt><trkpt lat="43.60618187905805" lon="6.808477371313468"><ele>234.99999999999997</ele><time>2026-04-12T06:57:49Z</time></trkpt><trkpt lat="43.60613466330623" lon="6.808405544728526"><ele>235.0</ele><time>2026-04-12T06:57:51Z</time></trkpt><trkpt lat="43.60609451734103" lon="6.80832878899248"><ele>235.0</ele><time>2026-04-12T06:57:53Z</time></trkpt><trkpt lat="43.606052884520864" lon="6.808250718215163"><ele>234.99999999999997</ele><time>2026-04-12T06:57:55Z</time></trkpt><trkpt lat="43.60601091734699" lon="6.808175583240704"><ele>235.0</ele><time>2026-04-12T06:57:57Z</time></trkpt><trkpt lat="43.60596388632549" lon="6.808106322601836"><ele>235.0</ele><time>2026-04-12T06:57:59Z</time></trkpt><trkpt lat="43.60591694769177" lon="6.808036078690893"><ele>235.0</ele><time>2026-04-12T06:58:01Z</time></trkpt><trkpt lat="43.60586599724457" lon="6.807974018129892"><ele>234.99999999999997</ele><time>2026-04-12T06:58:03Z</time></trkpt><trkpt lat="43.60581255352136" lon="6.807917997743695"><ele>235.0</ele><time>2026-04-12T06:58:05Z</time></trkpt><trkpt lat="43.60575850063831" lon="6.8078622245378915"><ele>235.0</ele><time>2026-04-12T06:58:07Z</time></trkpt><trkpt lat="43.605705017585706" lon="6.80780339304519"><ele>234.99999999999997</ele><time>2026-04-12T06:58:09Z</time></trkpt><trkpt lat="43.605649549093435" lon="6.807750365103646"><ele>235.0</ele><time>2026-04-12T06:58:11Z</time></trkpt><trkpt lat="43.60559283749832" lon="6.807697219848025"><ele>235.0</ele><time>2026-04-12T06:58:13Z</time></trkpt><trkpt lat="43.60553182754347" lon="6.807642756113282"><ele>235.66666666666666</ele><time>2026-04-12T06:58:16Z</time></trkpt><trkpt lat="43.60544655006029" lon="6.807571083119572"><ele>236.33333333333331</ele><time>2026-04-12T06:58:18Z</time></trkpt><trkpt lat="43.60538939046896" lon="6.807531622081683"><ele>237.0</ele><time>2026-04-12T06:58:20Z</time></trkpt><trkpt lat="43.605326487519065" lon="6.807488615965129"><ele>237.66666666666669</ele><time>2026-04-12T06:58:22Z</time></trkpt><trkpt lat="43.605260026417305" lon="6.807451945002262"><ele>238.33333333333334</ele><time>2026-04-12T06:58:24Z</time></trkpt><trkpt lat="43.60519317019568" lon="6.807418999695943"><ele>239.0</ele><time>2026-04-12T06:58:27Z</time></trkpt><trkpt lat="43.60512027671199" lon="6.807383398047815"><ele>239.0</ele><time>2026-04-12T06:58:28Z</time></trkpt><trkpt lat="43.604999750850155" lon="6.8073297306633265"><ele>238.99999999999997</ele><time>2026-04-12T06:58:31Z</time></trkpt><trkpt lat="43.60491415926866" lon="6.807294801703379"><ele>238.99999999999997</ele><time>2026-04-12T06:58:33Z</time></trkpt><trkpt lat="43.604825804668664" lon="6.8072581865575845"><ele>239.0</ele><time>2026-04-12T06:58:35Z</time></trkpt><trkpt lat="43.60473385399485" lon="6.8072223253665465"><ele>239.0</ele><time>2026-04-12T06:58:37Z</time></trkpt><trkpt lat="43.60464249347872" lon="6.807185990859799"><ele>239.0</ele><time>2026-04-12T06:58:39Z</time></trkpt><trkpt lat="43.60454973927199" lon="6.807151941451875"><ele>238.99999999999997</ele><time>2026-04-12T06:58:41Z</time></trkpt><trkpt lat="43.60445583620366" lon="6.807115394025587"><ele>238.99999999999997</ele><time>2026-04-12T06:58:43Z</time></trkpt><trkpt lat="43.60436010556926" lon="6.807080860804923"><ele>239.0</ele><time>2026-04-12T06:58:45Z</time></trkpt><trkpt lat="43.60426352643685" lon="6.807043996053116"><ele>239.0</ele><time>2026-04-12T06:58:47Z</time></trkpt><trkpt lat="43.604169217723594" lon="6.807010757050878"><ele>238.0</ele><time>2026-04-12T06:58:49Z</time></trkpt><trkpt lat="43.604077232332884" lon="6.806979779056852"><ele>236.99999999999997</ele><time>2026-04-12T06:58:51Z</time></trkpt><trkpt lat="43.603987030924294" lon="6.806946831839146"><ele>235.99999999999997</ele><time>2026-04-12T06:58:53Z</time></trkpt><trkpt lat="43.603897015465456" lon="6.806915499877113"><ele>235.0</ele><time>2026-04-12T06:58:55Z</time></trkpt><trkpt lat="43.603809209865304" lon="6.806876938035619"><ele>234.0</ele><time>2026-04-12T06:58:57Z</time></trkpt><trkpt lat="43.60372140923305" lon="6.806845397958218"><ele>236.0</ele><time>2026-04-12T06:58:59Z</time></trkpt><trkpt lat="43.60363338620801" lon="6.806816733757666"><ele>237.99999999999997</ele><time>2026-04-12T06:59:01Z</time></trkpt><trkpt lat="43.60354524680534" lon="6.806781767411869"><ele>239.99999999999997</ele><time>2026-04-12T06:59:03Z</time></trkpt><trkpt lat="43.60346102935625" lon="6.806739202430589"><ele>242.0</ele><time>2026-04-12T06:59:05Z</time></trkpt><trkpt lat="43.60337870904959" lon="6.806688135964264"><ele>244.0</ele><time>2026-04-12T06:59:07Z</time></trkpt><trkpt lat="43.60329777206324" lon="6.806630623964759"><ele>243.99999999999997</ele><time>2026-04-12T06:59:09Z</time></trkpt><trkpt lat="43.60322034378552" lon="6.806569286052521"><ele>244.0</ele><time>2026-04-12T06:59:11Z</time></trkpt><trkpt lat="43.603147617827446" lon="6.8064974259014095"><ele>244.0</ele><time>2026-04-12T06:59:13Z</time></trkpt><trkpt lat="43.60307527072113" lon="6.806418607226191"><ele>244.0</ele><time>2026-04-12T06:59:15Z</time></trkpt><trkpt lat="43.603007649919284" lon="6.80633928940021"><ele>243.99999999999997</ele><time>2026-04-12T06:59:17Z</time></trkpt><trkpt lat="43.602938410216446" lon="6.806262455904946"><ele>244.0</ele><time>2026-04-12T06:59:19Z</time></trkpt><trkpt lat="43.602869563544736" lon="6.8061891068928055"><ele>244.66666666666666</ele><time>2026-04-12T06:59:21Z</time></trkpt><trkpt lat="43.60280325890602" lon="6.806112447393526"><ele>245.33333333333331</ele><time>2026-04-12T06:59:23Z</time></trkpt><trkpt lat="43.60273710925277" lon="6.806035531521904"><ele>246.0</ele><time>2026-04-12T06:59:25Z</time></trkpt><trkpt lat="43.60266198837684" lon="6.805969755925356"><ele>246.66666666666669</ele><time>2026-04-12T06:59:27Z</time></trkpt><trkpt lat="43.60259019271959" lon="6.805897955738409"><ele>247.33333333333334</ele><time>2026-04-12T06:59:29Z</time></trkpt><trkpt lat="43.602514296764184" lon="6.8058373719955485"><ele>248.0</ele><time>2026-04-12T06:59:31Z</time></trkpt><trkpt lat="43.60243783432612" lon="6.8057843901152"><ele>248.00000000000003</ele><time>2026-04-12T06:59:33Z</time></trkpt><trkpt lat="43.602357481620516" lon="6.805733356811784"><ele>248.0</ele><time>2026-04-12T06:59:35Z</time></trkpt><trkpt lat="43.602274381427215" lon="6.80569045820859"><ele>248.0</ele><time>2026-04-12T06:59:37Z</time></trkpt><trkpt lat="43.60219164350847" lon="6.805643640450779"><ele>248.0</ele><time>2026-04-12T06:59:39Z</time></trkpt><trkpt lat="43.60210643153337" lon="6.8056012706712234"><ele>248.00000000000003</ele><time>2026-04-12T06:59:41Z</time></trkpt><trkpt lat="43.60202277232213" lon="6.805551155118713"><ele>248.0</ele><time>2026-04-12T06:59:43Z</time></trkpt><trkpt lat="43.60194040006501" lon="6.805500015683974"><ele>246.8</ele><time>2026-04-12T06:59:45Z</time></trkpt><trkpt lat="43.60185701347327" lon="6.8054458784813185"><ele>245.60000000000002</ele><time>2026-04-12T06:59:47Z</time></trkpt><trkpt lat="43.601776263707706" lon="6.805385892640526"><ele>244.39999999999998</ele><time>2026-04-12T06:59:49Z</time></trkpt><trkpt lat="43.60169661366106" lon="6.8053194391071825"><ele>243.2</ele><time>2026-04-12T06:59:51Z</time></trkpt><trkpt lat="43.60162056478733" lon="6.805249001645256"><ele>242.0</ele><time>2026-04-12T06:59:53Z</time></trkpt><trkpt lat="43.60154633672246" lon="6.805176942048819"><ele>244.6</ele><time>2026-04-12T06:59:55Z</time></trkpt><trkpt lat="43.60147454163102" lon="6.805101287672467"><ele>247.2</ele><time>2026-04-12T06:59:57Z</time></trkpt><trkpt lat="43.60140386023344" lon="6.805024101552628"><ele>249.8</ele><time>2026-04-12T06:59:59Z</time></trkpt><trkpt lat="43.6013280721081" lon="6.804952410299098"><ele>252.4</ele><time>2026-04-12T07:00:01Z</time></trkpt><trkpt lat="43.60125631386358" lon="6.804877002549544"><ele>255.0</ele><time>2026-04-12T07:00:03Z</time></trkpt><trkpt lat="43.60118208027562" lon="6.804801122088394"><ele>253.2</ele><time>2026-04-12T07:00:05Z</time></trkpt><trkpt lat="43.60110989722498" lon="6.804724950771747"><ele>251.4</ele><time>2026-04-12T07:00:07Z</time></trkpt><trkpt lat="43.60103535816101" lon="6.804646624807714"><ele>249.60000000000002</ele><time>2026-04-12T07:00:09Z</time></trkpt><trkpt lat="43.60096436974103" lon="6.804563854315861"><ele>247.8</ele><time>2026-04-12T07:00:11Z</time></trkpt><trkpt lat="43.600891762893696" lon="6.804480919562027"><ele>246.0</ele><time>2026-04-12T07:00:13Z</time></trkpt><trkpt lat="43.60082185938372" lon="6.8043943412747065"><ele>248.20000000000002</ele><time>2026-04-12T07:00:15Z</time></trkpt><trkpt lat="43.60075407874358" lon="6.804308963535313"><ele>250.40000000000003</ele><time>2026-04-12T07:00:17Z</time></trkpt><trkpt lat="43.60069025076808" lon="6.804217040863406"><ele>252.6</ele><time>2026-04-12T07:00:19Z</time></trkpt><trkpt lat="43.60062768803534" lon="6.804124959909278"><ele>254.8</ele><time>2026-04-12T07:00:21Z</time></trkpt><trkpt lat="43.600567006791714" lon="6.804033473147731"><ele>257.0</ele><time>2026-04-12T07:00:23Z</time></trkpt><trkpt lat="43.60050856775432" lon="6.803940875766679"><ele>257.0</ele><time>2026-04-12T07:00:25Z</time></trkpt><trkpt lat="43.600449147497585" lon="6.803846033604401"><ele>257.0</ele><time>2026-04-12T07:00:27Z</time></trkpt><trkpt lat="43.600391076318346" lon="6.803752828533753"><ele>257.0</ele><time>2026-04-12T07:00:29Z</time></trkpt><trkpt lat="43.60033817673157" lon="6.803655535182737"><ele>257.0</ele><time>2026-04-12T07:00:31Z</time></trkpt><trkpt lat="43.60028424048575" lon="6.803558671226386"><ele>257.0</ele><time>2026-04-12T07:00:33Z</time></trkpt><trkpt lat="43.60023096029015" lon="6.803460144234279"><ele>257.0</ele><time>2026-04-12T07:00:35Z</time></trkpt><trkpt lat="43.600176917897365" lon="6.803360723540046"><ele>256.2</ele><time>2026-04-12T07:00:37Z</time></trkpt><trkpt lat="43.60012062879585" lon="6.803261506959348"><ele>255.39999999999998</ele><time>2026-04-12T07:00:39Z</time></trkpt><trkpt lat="43.60006558774216" lon="6.803162217974693"><ele>254.60000000000002</ele><time>2026-04-12T07:00:41Z</time></trkpt><trkpt lat="43.60000581836371" lon="6.803065594036386"><ele>253.8</ele><time>2026-04-12T07:00:43Z</time></trkpt><trkpt lat="43.59994410100862" lon="6.802970363153297"><ele>253.0</ele><time>2026-04-12T07:00:45Z</time></trkpt><trkpt lat="43.59987753852058" lon="6.802878995031433"><ele>253.0</ele><time>2026-04-12T07:00:47Z</time></trkpt><trkpt lat="43.59980816404919" lon="6.802788111910698"><ele>253.0</ele><time>2026-04-12T07:00:49Z</time></trkpt><trkpt lat="43.599736990937416" lon="6.802698301044406"><ele>253.0</ele><time>2026-04-12T07:00:51Z</time></trkpt><trkpt lat="43.599662727873735" lon="6.802615288795546"><ele>253.0</ele><time>2026-04-12T07:00:53Z</time></trkpt><trkpt lat="43.599587525059995" lon="6.8025388765174055"><ele>253.0</ele><time>2026-04-12T07:00:55Z</time></trkpt><trkpt lat="43.59950947214338" lon="6.802466505250565"><ele>253.2</ele><time>2026-04-12T07:00:57Z</time></trkpt><trkpt lat="43.59943072697341" lon="6.802393611919213"><ele>253.4</ele><time>2026-04-12T07:00:59Z</time></trkpt><trkpt lat="43.59935040427205" lon="6.802320898773866"><ele>253.59999999999997</ele><time>2026-04-12T07:01:01Z</time></trkpt><trkpt lat="43.599265459234516" lon="6.8022461536995955"><ele>253.79999999999998</ele><time>2026-04-12T07:01:03Z</time></trkpt><trkpt lat="43.59917455792834" lon="6.802166843122979"><ele>254.0</ele><time>2026-04-12T07:01:05Z</time></trkpt><trkpt lat="43.59907934398341" lon="6.802080469339687"><ele>254.00000000000003</ele><time>2026-04-12T07:01:07Z</time></trkpt><trkpt lat="43.59897963628396" lon="6.8019849956031315"><ele>254.0</ele><time>2026-04-12T07:01:09Z</time></trkpt><trkpt lat="43.59892927785427" lon="6.80192957699919"><ele>254.0</ele><time>2026-04-12T07:01:10Z</time></trkpt><trkpt lat="43.59887861537448" lon="6.8018692608526585"><ele>254.0</ele><time>2026-04-12T07:01:11Z</time></trkpt><trkpt lat="43.59882669486602" lon="6.801807088872398"><ele>254.00000000000003</ele><time>2026-04-12T07:01:12Z</time></trkpt><trkpt lat="43.59877428895641" lon="6.801737159094567"><ele>254.0</ele><time>2026-04-12T07:01:13Z</time></trkpt><trkpt lat="43.59872011719841" lon="6.80166304622239"><ele>254.00000000000003</ele><time>2026-04-12T07:01:14Z</time></trkpt><trkpt lat="43.59866695176918" lon="6.801586118303704"><ele>254.0</ele><time>2026-04-12T07:01:15Z</time></trkpt><trkpt lat="43.598615324997176" lon="6.801502817325159"><ele>254.0</ele><time>2026-04-12T07:01:16Z</time></trkpt><trkpt lat="43.59856561592033" lon="6.801418462839658"><ele>254.0</ele><time>2026-04-12T07:01:17Z</time></trkpt><trkpt lat="43.59851459447534" lon="6.801332771872625"><ele>254.00000000000003</ele><time>2026-04-12T07:01:18Z</time></trkpt><trkpt lat="43.598464372827095" lon="6.801246264871744"><ele>254.0</ele><time>2026-04-12T07:01:19Z</time></trkpt><trkpt lat="43.598412167876" lon="6.801162641634978"><ele>254.00000000000003</ele><time>2026-04-12T07:01:20Z</time></trkpt><trkpt lat="43.59835818004692" lon="6.80108233662771"><ele>254.0</ele><time>2026-04-12T07:01:21Z</time></trkpt><trkpt lat="43.598305923741826" lon="6.80100156342344"><ele>254.0</ele><time>2026-04-12T07:01:22Z</time></trkpt><trkpt lat="43.59825634919432" lon="6.800918808421173"><ele>254.0</ele><time>2026-04-12T07:01:23Z</time></trkpt><trkpt lat="43.59820848339162" lon="6.800838112783657"><ele>254.00000000000003</ele><time>2026-04-12T07:01:24Z</time></trkpt><trkpt lat="43.59816433261671" lon="6.8007589289204144"><ele>254.0</ele><time>2026-04-12T07:01:25Z</time></trkpt><trkpt lat="43.59812116615032" lon="6.800682414075972"><ele>254.39999999999998</ele><time>2026-04-12T07:01:26Z</time></trkpt><trkpt lat="43.598078180936994" lon="6.800612045831672"><ele>254.79999999999998</ele><time>2026-04-12T07:01:27Z</time></trkpt><trkpt lat="43.598038350993406" lon="6.8005427340902305"><ele>255.20000000000002</ele><time>2026-04-12T07:01:28Z</time></trkpt><trkpt lat="43.59796097297732" lon="6.80041194084281"><ele>255.60000000000002</ele><time>2026-04-12T07:01:30Z</time></trkpt><trkpt lat="43.59788577942802" lon="6.800290558765654"><ele>256.0</ele><time>2026-04-12T07:01:32Z</time></trkpt><trkpt lat="43.59781623604958" lon="6.800170504313621"><ele>255.8</ele><time>2026-04-12T07:01:34Z</time></trkpt><trkpt lat="43.59775018838874" lon="6.800052186783992"><ele>255.60000000000002</ele><time>2026-04-12T07:01:36Z</time></trkpt><trkpt lat="43.59768821897127" lon="6.799931543227434"><ele>255.4</ele><time>2026-04-12T07:01:38Z</time></trkpt><trkpt lat="43.597636644801604" lon="6.799813359079532"><ele>255.2</ele><time>2026-04-12T07:01:40Z</time></trkpt><trkpt lat="43.59759357692844" lon="6.7996840130362095"><ele>255.0</ele><time>2026-04-12T07:01:42Z</time></trkpt><trkpt lat="43.59755511430686" lon="6.799555201917627"><ele>255.0</ele><time>2026-04-12T07:01:44Z</time></trkpt><trkpt lat="43.59751481222938" lon="6.799429735398792"><ele>255.0</ele><time>2026-04-12T07:01:46Z</time></trkpt><trkpt lat="43.59747415842395" lon="6.799306412351574"><ele>255.0</ele><time>2026-04-12T07:01:48Z</time></trkpt><trkpt lat="43.59743014502099" lon="6.799180742157738"><ele>255.0</ele><time>2026-04-12T07:01:50Z</time></trkpt><trkpt lat="43.5973878898442" lon="6.799055071085756"><ele>255.0</ele><time>2026-04-12T07:01:52Z</time></trkpt><trkpt lat="43.5973457353175" lon="6.7989212736464255"><ele>256.75</ele><time>2026-04-12T07:01:54Z</time></trkpt><trkpt lat="43.597299670707045" lon="6.79878285549936"><ele>258.5</ele><time>2026-04-12T07:01:56Z</time></trkpt><trkpt lat="43.597250534092666" lon="6.79864285024195"><ele>260.25</ele><time>2026-04-12T07:01:58Z</time></trkpt><trkpt lat="43.59719969539911" lon="6.798498609535148"><ele>262.0</ele><time>2026-04-12T07:02:00Z</time></trkpt><trkpt lat="43.59714529811374" lon="6.7983494779594125"><ele>262.66666666666663</ele><time>2026-04-12T07:02:02Z</time></trkpt><trkpt lat="43.59709551283542" lon="6.798196586830105"><ele>263.3333333333333</ele><time>2026-04-12T07:02:04Z</time></trkpt><trkpt lat="43.59704080004551" lon="6.798041233426454"><ele>264.0</ele><time>2026-04-12T07:02:06Z</time></trkpt><trkpt lat="43.59701249228151" lon="6.797961883136244"><ele>264.6666666666667</ele><time>2026-04-12T07:02:07Z</time></trkpt><trkpt lat="43.59698289134599" lon="6.797880722093584"><ele>265.33333333333337</ele><time>2026-04-12T07:02:08Z</time></trkpt><trkpt lat="43.59695525164643" lon="6.797799681844704"><ele>266.0</ele><time>2026-04-12T07:02:09Z</time></trkpt><trkpt lat="43.5969260115287" lon="6.797716994282522"><ele>264.57142857142856</ele><time>2026-04-12T07:02:10Z</time></trkpt><trkpt lat="43.59689433902248" lon="6.79763412354941"><ele>263.1428571428571</ele><time>2026-04-12T07:02:11Z</time></trkpt><trkpt lat="43.59686329331467" lon="6.797550430371616"><ele>261.7142857142857</ele><time>2026-04-12T07:02:12Z</time></trkpt><trkpt lat="43.5968322426442" lon="6.797466463746678"><ele>260.2857142857143</ele><time>2026-04-12T07:02:13Z</time></trkpt><trkpt lat="43.5968027017606" lon="6.797379007381892"><ele>258.85714285714283</ele><time>2026-04-12T07:02:14Z</time></trkpt><trkpt lat="43.596771242271146" lon="6.797292963629683"><ele>257.42857142857144</ele><time>2026-04-12T07:02:15Z</time></trkpt><trkpt lat="43.596738824713576" lon="6.79720316871999"><ele>256.0</ele><time>2026-04-12T07:02:16Z</time></trkpt><trkpt lat="43.59670904848549" lon="6.797113695215191"><ele>255.99999999999997</ele><time>2026-04-12T07:02:17Z</time></trkpt><trkpt lat="43.59667571673487" lon="6.797022039522849"><ele>256.0</ele><time>2026-04-12T07:02:18Z</time></trkpt><trkpt lat="43.5966392456835" lon="6.7969338619378705"><ele>256.0</ele><time>2026-04-12T07:02:19Z</time></trkpt><trkpt lat="43.596608100204186" lon="6.796838961750439"><ele>256.0</ele><time>2026-04-12T07:02:20Z</time></trkpt><trkpt lat="43.5965765470116" lon="6.796739899675068"><ele>255.99999999999997</ele><time>2026-04-12T07:02:21Z</time></trkpt><trkpt lat="43.596550342676466" lon="6.79663889366891"><ele>256.0</ele><time>2026-04-12T07:02:22Z</time></trkpt><trkpt lat="43.59653143829469" lon="6.796533904255846"><ele>256.5</ele><time>2026-04-12T07:02:23Z</time></trkpt><trkpt lat="43.596519794107394" lon="6.796424931976773"><ele>257.0</ele><time>2026-04-12T07:02:24Z</time></trkpt><trkpt lat="43.596511765902186" lon="6.796313922703094"><ele>257.5</ele><time>2026-04-12T07:02:25Z</time></trkpt><trkpt lat="43.59651221468187" lon="6.796201590968575"><ele>258.0</ele><time>2026-04-12T07:02:26Z</time></trkpt><trkpt lat="43.596514123150655" lon="6.796088694304402"><ele>258.5</ele><time>2026-04-12T07:02:27Z</time></trkpt><trkpt lat="43.59652239891341" lon="6.795968507008528"><ele>259.0</ele><time>2026-04-12T07:02:28Z</time></trkpt><trkpt lat="43.59653634889986" lon="6.7958501124900295"><ele>259.0</ele><time>2026-04-12T07:02:29Z</time></trkpt><trkpt lat="43.59655413970831" lon="6.795730113744207"><ele>259.0</ele><time>2026-04-12T07:02:30Z</time></trkpt><trkpt lat="43.59657614697324" lon="6.795608663588117"><ele>259.0</ele><time>2026-04-12T07:02:31Z</time></trkpt><trkpt lat="43.59660198085806" lon="6.7954843362383075"><ele>259.0</ele><time>2026-04-12T07:02:32Z</time></trkpt><trkpt lat="43.59663352951212" lon="6.795354567195353"><ele>259.0</ele><time>2026-04-12T07:02:33Z</time></trkpt><trkpt lat="43.5966653094749" lon="6.795225777916598"><ele>257.8</ele><time>2026-04-12T07:02:34Z</time></trkpt><trkpt lat="43.59670550359156" lon="6.795097613127612"><ele>256.59999999999997</ele><time>2026-04-12T07:02:35Z</time></trkpt><trkpt lat="43.59675272790205" lon="6.794972578915961"><ele>255.4</ele><time>2026-04-12T07:02:36Z</time></trkpt><trkpt lat="43.596805819425306" lon="6.7948507002421"><ele>254.2</ele><time>2026-04-12T07:02:37Z</time></trkpt><trkpt lat="43.596862864039416" lon="6.794728878411674"><ele>253.0</ele><time>2026-04-12T07:02:38Z</time></trkpt><trkpt lat="43.59691610952415" lon="6.794602207229663"><ele>253.0</ele><time>2026-04-12T07:02:39Z</time></trkpt><trkpt lat="43.596972083487984" lon="6.794479520971981"><ele>253.0</ele><time>2026-04-12T07:02:40Z</time></trkpt><trkpt lat="43.597036001168036" lon="6.7943644614031955"><ele>253.0</ele><time>2026-04-12T07:02:41Z</time></trkpt><trkpt lat="43.597060777432844" lon="6.794208872014188"><ele>253.0</ele><time>2026-04-12T07:02:42Z</time></trkpt><trkpt lat="43.597106080503266" lon="6.794067818078046"><ele>253.0</ele><time>2026-04-12T07:02:43Z</time></trkpt><trkpt lat="43.597132912941305" lon="6.793915371828657"><ele>252.5</ele><time>2026-04-12T07:02:44Z</time></trkpt><trkpt lat="43.59714165471114" lon="6.793756937968893"><ele>252.0</ele><time>2026-04-12T07:02:45Z</time></trkpt><trkpt lat="43.597180364061245" lon="6.793607943881154"><ele>251.5</ele><time>2026-04-12T07:02:46Z</time></trkpt><trkpt lat="43.59719230795457" lon="6.793449550319974"><ele>251.0</ele><time>2026-04-12T07:02:47Z</time></trkpt><trkpt lat="43.59718981393151" lon="6.793294209280567"><ele>251.0</ele><time>2026-04-12T07:02:48Z</time></trkpt><trkpt lat="43.59718601272525" lon="6.793138688847937"><ele>251.0</ele><time>2026-04-12T07:02:49Z</time></trkpt><trkpt lat="43.597183405734924" lon="6.792981033272074"><ele>251.0</ele><time>2026-04-12T07:02:50Z</time></trkpt><trkpt lat="43.5971698009601" lon="6.792817506014944"><ele>251.0</ele><time>2026-04-12T07:02:51Z</time></trkpt><trkpt lat="43.5971668077538" lon="6.792651691123598"><ele>250.25</ele><time>2026-04-12T07:02:52Z</time></trkpt><trkpt lat="43.597161746354416" lon="6.792482483434424"><ele>249.5</ele><time>2026-04-12T07:02:53Z</time></trkpt><trkpt lat="43.597162232880116" lon="6.792311458875187"><ele>248.75</ele><time>2026-04-12T07:02:54Z</time></trkpt><trkpt lat="43.59715864721101" lon="6.79213755815338"><ele>248.0</ele><time>2026-04-12T07:02:55Z</time></trkpt><trkpt lat="43.59715418372342" lon="6.791958985151238"><ele>247.0</ele><time>2026-04-12T07:02:56Z</time></trkpt><trkpt lat="43.59715411843819" lon="6.791785159400175"><ele>246.0</ele><time>2026-04-12T07:02:57Z</time></trkpt><trkpt lat="43.59715879418223" lon="6.791612612076667"><ele>245.0</ele><time>2026-04-12T07:02:58Z</time></trkpt><trkpt lat="43.597173575594454" lon="6.791441607775474"><ele>244.0</ele><time>2026-04-12T07:02:59Z</time></trkpt><trkpt lat="43.59720435261064" lon="6.791269579982772"><ele>244.0</ele><time>2026-04-12T07:03:00Z</time></trkpt><trkpt lat="43.59724416575161" lon="6.7911032718877635"><ele>244.0</ele><time>2026-04-12T07:03:01Z</time></trkpt><trkpt lat="43.59729675059351" lon="6.79093812243672"><ele>244.0</ele><time>2026-04-12T07:03:02Z</time></trkpt><trkpt lat="43.59734848515463" lon="6.790772535768675"><ele>244.0</ele><time>2026-04-12T07:03:03Z</time></trkpt><trkpt lat="43.59739778326447" lon="6.790611836760887"><ele>242.0</ele><time>2026-04-12T07:03:04Z</time></trkpt><trkpt lat="43.597441800092454" lon="6.7904501118104115"><ele>240.0</ele><time>2026-04-12T07:03:05Z</time></trkpt><trkpt lat="43.5974881462757" lon="6.790289170385748"><ele>238.0</ele><time>2026-04-12T07:03:06Z</time></trkpt><trkpt lat="43.59753483163388" lon="6.790128692353739"><ele>236.0</ele><time>2026-04-12T07:03:07Z</time></trkpt><trkpt lat="43.59758660847227" lon="6.789968152482776"><ele>234.5</ele><time>2026-04-12T07:03:08Z</time></trkpt><trkpt lat="43.597643150807144" lon="6.789807766583976"><ele>233.0</ele><time>2026-04-12T07:03:09Z</time></trkpt><trkpt lat="43.59770592046905" lon="6.78964886792489"><ele>231.5</ele><time>2026-04-12T07:03:10Z</time></trkpt><trkpt lat="43.59777248133832" lon="6.789492720351898"><ele>230.0</ele><time>2026-04-12T07:03:11Z</time></trkpt><trkpt lat="43.5978450593215" lon="6.789340428103116"><ele>230.0</ele><time>2026-04-12T07:03:12Z</time></trkpt><trkpt lat="43.59792157724518" lon="6.7891906256559915"><ele>230.0</ele><time>2026-04-12T07:03:13Z</time></trkpt><trkpt lat="43.59800003780632" lon="6.789042614389086"><ele>230.0</ele><time>2026-04-12T07:03:14Z</time></trkpt><trkpt lat="43.59807949485315" lon="6.788896606956947"><ele>230.0</ele><time>2026-04-12T07:03:15Z</time></trkpt><trkpt lat="43.59815980157809" lon="6.78874925276669"><ele>230.0</ele><time>2026-04-12T07:03:16Z</time></trkpt><trkpt lat="43.59823735852428" lon="6.78859994783824"><ele>230.0</ele><time>2026-04-12T07:03:17Z</time></trkpt><trkpt lat="43.598311708187126" lon="6.788446341395911"><ele>230.0</ele><time>2026-04-12T07:03:18Z</time></trkpt><trkpt lat="43.59837961126059" lon="6.788294618686715"><ele>230.0</ele><time>2026-04-12T07:03:19Z</time></trkpt><trkpt lat="43.59843870660874" lon="6.788144691472284"><ele>229.2</ele><time>2026-04-12T07:03:20Z</time></trkpt><trkpt lat="43.598494174341454" lon="6.787997744425314"><ele>228.4</ele><time>2026-04-12T07:03:21Z</time></trkpt><trkpt lat="43.5985419249941" lon="6.787855877939561"><ele>227.60000000000002</ele><time>2026-04-12T07:03:22Z</time></trkpt><trkpt lat="43.5985866518033" lon="6.787723666702909"><ele>226.8</ele><time>2026-04-12T07:03:23Z</time></trkpt><trkpt lat="43.598634268835006" lon="6.787599603207809"><ele>226.0</ele><time>2026-04-12T07:03:24Z</time></trkpt><trkpt lat="43.59867655845499" lon="6.787477950555308"><ele>224.33333333333331</ele><time>2026-04-12T07:03:25Z</time></trkpt><trkpt lat="43.598715327274135" lon="6.78736215055432"><ele>222.66666666666666</ele><time>2026-04-12T07:03:26Z</time></trkpt><trkpt lat="43.5987556351405" lon="6.787251490725995"><ele>221.0</ele><time>2026-04-12T07:03:27Z</time></trkpt><trkpt lat="43.59879572056869" lon="6.78714124673383"><ele>219.33333333333331</ele><time>2026-04-12T07:03:28Z</time></trkpt><trkpt lat="43.598832416409" lon="6.787031833318743"><ele>217.66666666666666</ele><time>2026-04-12T07:03:29Z</time></trkpt><trkpt lat="43.59886925800185" lon="6.786928415514982"><ele>216.0</ele><time>2026-04-12T07:03:30Z</time></trkpt><trkpt lat="43.5989080997939" lon="6.786819767582035"><ele>214.66666666666666</ele><time>2026-04-12T07:03:31Z</time></trkpt><trkpt lat="43.598949509839116" lon="6.786705413257942"><ele>213.33333333333331</ele><time>2026-04-12T07:03:32Z</time></trkpt><trkpt lat="43.59898868298515" lon="6.786599951066881"><ele>212.0</ele><time>2026-04-12T07:03:33Z</time></trkpt><trkpt lat="43.59903017546329" lon="6.786502370462949"><ele>210.66666666666666</ele><time>2026-04-12T07:03:34Z</time></trkpt><trkpt lat="43.59908980216379" lon="6.786424427919896"><ele>209.33333333333331</ele><time>2026-04-12T07:03:35Z</time></trkpt><trkpt lat="43.59911485180207" lon="6.786342324941792"><ele>208.0</ele><time>2026-04-12T07:03:36Z</time></trkpt><trkpt lat="43.599241505584146" lon="6.786343811736977"><ele>208.0</ele><time>2026-04-12T07:03:37Z</time></trkpt><trkpt lat="43.599318128162494" lon="6.786307985205837"><ele>208.0</ele><time>2026-04-12T07:03:38Z</time></trkpt><trkpt lat="43.59938382669586" lon="6.78624783193398"><ele>208.0</ele><time>2026-04-12T07:03:39Z</time></trkpt><trkpt lat="43.59948433808893" lon="6.786312875306354"><ele>208.0</ele><time>2026-04-12T07:03:40Z</time></trkpt><trkpt lat="43.59956645567354" lon="6.786316709417236"><ele>208.0</ele><time>2026-04-12T07:03:41Z</time></trkpt><trkpt lat="43.5996402087387" lon="6.786415173131497"><ele>207.66666666666666</ele><time>2026-04-12T07:03:42Z</time></trkpt><trkpt lat="43.59971906858067" lon="6.786468445007085"><ele>207.33333333333331</ele><time>2026-04-12T07:03:43Z</time></trkpt><trkpt lat="43.5997993212787" lon="6.786519723165548"><ele>207.0</ele><time>2026-04-12T07:03:44Z</time></trkpt><trkpt lat="43.59988086193675" lon="6.786566270939957"><ele>206.66666666666669</ele><time>2026-04-12T07:03:45Z</time></trkpt><trkpt lat="43.59996360884719" lon="6.786602669053029"><ele>206.33333333333334</ele><time>2026-04-12T07:03:46Z</time></trkpt><trkpt lat="43.60004825168821" lon="6.786617275100472"><ele>206.0</ele><time>2026-04-12T07:03:47Z</time></trkpt><trkpt lat="43.600130659333495" lon="6.786607629362094"><ele>206.00000000000003</ele><time>2026-04-12T07:03:48Z</time></trkpt><trkpt lat="43.60021081351985" lon="6.786586751406489"><ele>206.0</ele><time>2026-04-12T07:03:49Z</time></trkpt><trkpt lat="43.60028743611433" lon="6.786569140439821"><ele>206.0</ele><time>2026-04-12T07:03:50Z</time></trkpt><trkpt lat="43.60036033804556" lon="6.7865373426515925"><ele>206.0</ele><time>2026-04-12T07:03:51Z</time></trkpt><trkpt lat="43.600430522802824" lon="6.786498907141813"><ele>206.00000000000003</ele><time>2026-04-12T07:03:52Z</time></trkpt><trkpt lat="43.60049786535364" lon="6.786453795748969"><ele>206.0</ele><time>2026-04-12T07:03:53Z</time></trkpt><trkpt lat="43.600562656794196" lon="6.78640282498549"><ele>205.85714285714283</ele><time>2026-04-12T07:03:54Z</time></trkpt><trkpt lat="43.600622530381465" lon="6.786344399802936"><ele>205.71428571428572</ele><time>2026-04-12T07:03:55Z</time></trkpt><trkpt lat="43.600680299621466" lon="6.786282202541199"><ele>205.57142857142856</ele><time>2026-04-12T07:03:56Z</time></trkpt><trkpt lat="43.60073813127386" lon="6.786221401941514"><ele>205.42857142857142</ele><time>2026-04-12T07:03:57Z</time></trkpt><trkpt lat="43.60079663031359" lon="6.7861638085855045"><ele>205.28571428571428</ele><time>2026-04-12T07:03:58Z</time></trkpt><trkpt lat="43.60085612446988" lon="6.786105816806791"><ele>205.14285714285714</ele><time>2026-04-12T07:03:59Z</time></trkpt><trkpt lat="43.600913118916644" lon="6.78604710435277"><ele>205.0</ele><time>2026-04-12T07:04:00Z</time></trkpt><trkpt lat="43.60096884293715" lon="6.785989838965909"><ele>205.0</ele><time>2026-04-12T07:04:01Z</time></trkpt><trkpt lat="43.60102505954975" lon="6.785925908821756"><ele>205.0</ele><time>2026-04-12T07:04:02Z</time></trkpt><trkpt lat="43.601079233598554" lon="6.785870685858366"><ele>205.0</ele><time>2026-04-12T07:04:03Z</time></trkpt><trkpt lat="43.601137543445745" lon="6.78581578287178"><ele>205.0</ele><time>2026-04-12T07:04:04Z</time></trkpt><trkpt lat="43.60119475517941" lon="6.7857626756636105"><ele>205.0</ele><time>2026-04-12T07:04:05Z</time></trkpt><trkpt lat="43.60125313793545" lon="6.785716657650695"><ele>205.0</ele><time>2026-04-12T07:04:06Z</time></trkpt><trkpt lat="43.601308875867204" lon="6.785673923833773"><ele>205.0</ele><time>2026-04-12T07:04:07Z</time></trkpt><trkpt lat="43.60136902511227" lon="6.78564082604328"><ele>205.42857142857144</ele><time>2026-04-12T07:04:08Z</time></trkpt><trkpt lat="43.60142687022424" lon="6.785600290115963"><ele>205.85714285714283</ele><time>2026-04-12T07:04:09Z</time></trkpt><trkpt lat="43.601487965312394" lon="6.785558068076791"><ele>206.28571428571428</ele><time>2026-04-12T07:04:10Z</time></trkpt><trkpt lat="43.60155334834131" lon="6.785516951117409"><ele>206.71428571428572</ele><time>2026-04-12T07:04:11Z</time></trkpt><trkpt lat="43.601615119945535" lon="6.785467723550635"><ele>207.14285714285717</ele><time>2026-04-12T07:04:12Z</time></trkpt><trkpt lat="43.601685549384804" lon="6.785414825299716"><ele>207.57142857142856</ele><time>2026-04-12T07:04:13Z</time></trkpt><trkpt lat="43.60175690847041" lon="6.785358422784481"><ele>208.0</ele><time>2026-04-12T07:04:14Z</time></trkpt><trkpt lat="43.6018308259806" lon="6.785298440959569"><ele>208.0</ele><time>2026-04-12T07:04:15Z</time></trkpt><trkpt lat="43.60190464972244" lon="6.7852355878898285"><ele>208.0</ele><time>2026-04-12T07:04:16Z</time></trkpt><trkpt lat="43.60197854641909" lon="6.785170350446665"><ele>208.0</ele><time>2026-04-12T07:04:17Z</time></trkpt><trkpt lat="43.602052510696275" lon="6.785101677823088"><ele>208.0</ele><time>2026-04-12T07:04:18Z</time></trkpt><trkpt lat="43.60213239689677" lon="6.785031442099381"><ele>208.0</ele><time>2026-04-12T07:04:19Z</time></trkpt><trkpt lat="43.60221245627117" lon="6.7849616563726185"><ele>206.4</ele><time>2026-04-12T07:04:20Z</time></trkpt><trkpt lat="43.6022954806852" lon="6.784889991373648"><ele>204.8</ele><time>2026-04-12T07:04:21Z</time></trkpt><trkpt lat="43.6023781969047" lon="6.78481332722186"><ele>203.2</ele><time>2026-04-12T07:04:22Z</time></trkpt><trkpt lat="43.602463360499186" lon="6.784734834166662"><ele>201.6</ele><time>2026-04-12T07:04:23Z</time></trkpt><trkpt lat="43.60254913641317" lon="6.784657439492979"><ele>200.0</ele><time>2026-04-12T07:04:24Z</time></trkpt><trkpt lat="43.602635519671935" lon="6.784582556660203"><ele>200.0</ele><time>2026-04-12T07:04:25Z</time></trkpt><trkpt lat="43.60272030000034" lon="6.784506212283098"><ele>200.0</ele><time>2026-04-12T07:04:26Z</time></trkpt><trkpt lat="43.60280340766345" lon="6.78443295496263"><ele>200.0</ele><time>2026-04-12T07:04:27Z</time></trkpt><trkpt lat="43.602887261008675" lon="6.7843596249165445"><ele>200.0</ele><time>2026-04-12T07:04:28Z</time></trkpt><trkpt lat="43.602965951439025" lon="6.78428720176944"><ele>200.0</ele><time>2026-04-12T07:04:29Z</time></trkpt><trkpt lat="43.60304408034511" lon="6.784214793457483"><ele>199.6</ele><time>2026-04-12T07:04:30Z</time></trkpt><trkpt lat="43.603120824522584" lon="6.784145183478077"><ele>199.2</ele><time>2026-04-12T07:04:31Z</time></trkpt><trkpt lat="43.60319824280252" lon="6.784076015612618"><ele>198.8</ele><time>2026-04-12T07:04:32Z</time></trkpt><trkpt lat="43.603273497200334" lon="6.784011005973391"><ele>198.4</ele><time>2026-04-12T07:04:33Z</time></trkpt><trkpt lat="43.60335027063938" lon="6.783947834079852"><ele>198.0</ele><time>2026-04-12T07:04:34Z</time></trkpt><trkpt lat="43.603426661372175" lon="6.783887632413328"><ele>198.0</ele><time>2026-04-12T07:04:35Z</time></trkpt><trkpt lat="43.603502358410275" lon="6.783822850461298"><ele>198.0</ele><time>2026-04-12T07:04:36Z</time></trkpt><trkpt lat="43.60357707541755" lon="6.783753695621408"><ele>198.0</ele><time>2026-04-12T07:04:37Z</time></trkpt><trkpt lat="43.60365176050047" lon="6.783684936638664"><ele>198.0</ele><time>2026-04-12T07:04:38Z</time></trkpt><trkpt lat="43.60372677005584" lon="6.783619916860811"><ele>198.0</ele><time>2026-04-12T07:04:39Z</time></trkpt><trkpt lat="43.603802271263305" lon="6.78355270700779"><ele>198.0</ele><time>2026-04-12T07:04:40Z</time></trkpt><trkpt lat="43.60387593288628" lon="6.783486401408572"><ele>198.16666666666666</ele><time>2026-04-12T07:04:41Z</time></trkpt><trkpt lat="43.603950567742395" lon="6.783420068591271"><ele>198.33333333333331</ele><time>2026-04-12T07:04:42Z</time></trkpt><trkpt lat="43.60402284813707" lon="6.783355478565054"><ele>198.5</ele><time>2026-04-12T07:04:43Z</time></trkpt><trkpt lat="43.60409645152027" lon="6.783288857235216"><ele>198.66666666666666</ele><time>2026-04-12T07:04:44Z</time></trkpt><trkpt lat="43.60417243881926" lon="6.7832285502288325"><ele>198.83333333333331</ele><time>2026-04-12T07:04:45Z</time></trkpt><trkpt lat="43.60424691914541" lon="6.783169927511117"><ele>199.0</ele><time>2026-04-12T07:04:46Z</time></trkpt><trkpt lat="43.604318562606935" lon="6.783107749999275"><ele>198.99999999999997</ele><time>2026-04-12T07:04:47Z</time></trkpt><trkpt lat="43.60438750363949" lon="6.7830384189060355"><ele>199.0</ele><time>2026-04-12T07:04:48Z</time></trkpt><trkpt lat="43.60445277090733" lon="6.7829710282052895"><ele>199.0</ele><time>2026-04-12T07:04:49Z</time></trkpt><trkpt lat="43.60451767455295" lon="6.7829015195043665"><ele>199.0</ele><time>2026-04-12T07:04:50Z</time></trkpt><trkpt lat="43.604580431208646" lon="6.782832021922933"><ele>198.99999999999997</ele><time>2026-04-12T07:04:51Z</time></trkpt><trkpt lat="43.604642684415545" lon="6.782760762264499"><ele>199.0</ele><time>2026-04-12T07:04:52Z</time></trkpt><trkpt lat="43.60470224352222" lon="6.782688481307984"><ele>198.85714285714283</ele><time>2026-04-12T07:04:53Z</time></trkpt><trkpt lat="43.60475978543634" lon="6.782614500169551"><ele>198.71428571428572</ele><time>2026-04-12T07:04:54Z</time></trkpt><trkpt lat="43.60481838305844" lon="6.78254394272698"><ele>198.57142857142856</ele><time>2026-04-12T07:04:55Z</time></trkpt><trkpt lat="43.60487817391743" lon="6.782480088482891"><ele>198.42857142857142</ele><time>2026-04-12T07:04:56Z</time></trkpt><trkpt lat="43.60493437022209" lon="6.782413059304868"><ele>198.28571428571428</ele><time>2026-04-12T07:04:57Z</time></trkpt><trkpt lat="43.60498806670509" lon="6.782344837571114"><ele>198.14285714285714</ele><time>2026-04-12T07:04:58Z</time></trkpt><trkpt lat="43.605038494533524" lon="6.7822773599057955"><ele>198.0</ele><time>2026-04-12T07:04:59Z</time></trkpt><trkpt lat="43.60508797074086" lon="6.782211340092029"><ele>198.0</ele><time>2026-04-12T07:05:00Z</time></trkpt><trkpt lat="43.60513427308971" lon="6.782142405200558"><ele>198.0</ele><time>2026-04-12T07:05:01Z</time></trkpt><trkpt lat="43.60518191358673" lon="6.7820667761480635"><ele>198.0</ele><time>2026-04-12T07:05:02Z</time></trkpt><trkpt lat="43.605225458434674" lon="6.781985929319066"><ele>198.0</ele><time>2026-04-12T07:05:03Z</time></trkpt><trkpt lat="43.60526808457317" lon="6.781898387039707"><ele>198.0</ele><time>2026-04-12T07:05:04Z</time></trkpt><trkpt lat="43.60530871663209" lon="6.781806082640459"><ele>198.0</ele><time>2026-04-12T07:05:05Z</time></trkpt><trkpt lat="43.60534918501992" lon="6.781711137977356"><ele>198.0</ele><time>2026-04-12T07:05:06Z</time></trkpt><trkpt lat="43.60539031056723" lon="6.781616210632043"><ele>198.33333333333334</ele><time>2026-04-12T07:05:07Z</time></trkpt><trkpt lat="43.605431450623435" lon="6.781516494910618"><ele>198.66666666666669</ele><time>2026-04-12T07:05:08Z</time></trkpt><trkpt lat="43.60547508866103" lon="6.781422230999945"><ele>199.0</ele><time>2026-04-12T07:05:09Z</time></trkpt><trkpt lat="43.605517345417546" lon="6.7813242036157675"><ele>199.33333333333334</ele><time>2026-04-12T07:05:10Z</time></trkpt><trkpt lat="43.605560630899575" lon="6.781228163890282"><ele>199.66666666666669</ele><time>2026-04-12T07:05:11Z</time></trkpt><trkpt lat="43.60560484967726" lon="6.781133980494899"><ele>200.0</ele><time>2026-04-12T07:05:12Z</time></trkpt><trkpt lat="43.605651905987706" lon="6.78104408192414"><ele>199.50000000000003</ele><time>2026-04-12T07:05:13Z</time></trkpt><trkpt lat="43.60570177643455" lon="6.780958699677396"><ele>199.0</ele><time>2026-04-12T07:05:14Z</time></trkpt><trkpt lat="43.60575062550134" lon="6.780873389150017"><ele>198.5</ele><time>2026-04-12T07:05:15Z</time></trkpt><trkpt lat="43.605800155774" lon="6.780790804182091"><ele>198.0</ele><time>2026-04-12T07:05:16Z</time></trkpt><trkpt lat="43.60584922268425" lon="6.780710499800809"><ele>197.50000000000003</ele><time>2026-04-12T07:05:17Z</time></trkpt><trkpt lat="43.60590055120497" lon="6.780633220616809"><ele>197.0</ele><time>2026-04-12T07:05:18Z</time></trkpt><trkpt lat="43.605948744932824" lon="6.780553756824986"><ele>197.0</ele><time>2026-04-12T07:05:19Z</time></trkpt><trkpt lat="43.60599832567361" lon="6.780475922957745"><ele>197.0</ele><time>2026-04-12T07:05:20Z</time></trkpt><trkpt lat="43.60604697290311" lon="6.780398369115356"><ele>197.0</ele><time>2026-04-12T07:05:21Z</time></trkpt><trkpt lat="43.60609320661571" lon="6.780319142488556"><ele>197.0</ele><time>2026-04-12T07:05:22Z</time></trkpt><trkpt lat="43.60613670647145" lon="6.780238494993609"><ele>197.0</ele><time>2026-04-12T07:05:23Z</time></trkpt><trkpt lat="43.606175188210834" lon="6.780155327289359"><ele>197.0</ele><time>2026-04-12T07:05:24Z</time></trkpt><trkpt lat="43.606206662700714" lon="6.780066736562798"><ele>197.0</ele><time>2026-04-12T07:05:25Z</time></trkpt><trkpt lat="43.60623095108894" lon="6.77997484794349"><ele>197.42857142857144</ele><time>2026-04-12T07:05:26Z</time></trkpt><trkpt lat="43.60625138777782" lon="6.7798804092525895"><ele>197.85714285714286</ele><time>2026-04-12T07:05:27Z</time></trkpt><trkpt lat="43.606268402048066" lon="6.779781190364492"><ele>198.28571428571428</ele><time>2026-04-12T07:05:28Z</time></trkpt><trkpt lat="43.60628603620716" lon="6.779683908118269"><ele>198.71428571428572</ele><time>2026-04-12T07:05:29Z</time></trkpt><trkpt lat="43.606302163779" lon="6.77958504411738"><ele>199.14285714285714</ele><time>2026-04-12T07:05:30Z</time></trkpt><trkpt lat="43.60631760460576" lon="6.779484472574891"><ele>199.57142857142858</ele><time>2026-04-12T07:05:31Z</time></trkpt><trkpt lat="43.606334116109146" lon="6.779385163561568"><ele>200.0</ele><time>2026-04-12T07:05:32Z</time></trkpt><trkpt lat="43.6063511825737" lon="6.77928683157661"><ele>200.00000000000003</ele><time>2026-04-12T07:05:33Z</time></trkpt><trkpt lat="43.6063665620135" lon="6.779187061815866"><ele>200.0</ele><time>2026-04-12T07:05:34Z</time></trkpt><trkpt lat="43.60639515094219" lon="6.7790911803172005"><ele>200.0</ele><time>2026-04-12T07:05:35Z</time></trkpt><trkpt lat="43.60641319836" lon="6.778988890222333"><ele>200.0</ele><time>2026-04-12T07:05:36Z</time></trkpt><trkpt lat="43.60643222664156" lon="6.778884806339526"><ele>200.00000000000003</ele><time>2026-04-12T07:05:37Z</time></trkpt><trkpt lat="43.60645118596478" lon="6.778781099654335"><ele>200.0</ele><time>2026-04-12T07:05:38Z</time></trkpt><trkpt lat="43.60647026935052" lon="6.778676714550699"><ele>200.00000000000003</ele><time>2026-04-12T07:05:39Z</time></trkpt><trkpt lat="43.60647518066128" lon="6.778570976160632"><ele>200.0</ele><time>2026-04-12T07:05:40Z</time></trkpt><trkpt lat="43.606503834817836" lon="6.7784742429379"><ele>200.0</ele><time>2026-04-12T07:05:41Z</time></trkpt><trkpt lat="43.60652754062139" lon="6.778373261767526"><ele>200.0</ele><time>2026-04-12T07:05:42Z</time></trkpt><trkpt lat="43.6065592409488" lon="6.77827889842424"><ele>200.00000000000003</ele><time>2026-04-12T07:05:43Z</time></trkpt><trkpt lat="43.60659604876966" lon="6.778187869793829"><ele>200.0</ele><time>2026-04-12T07:05:44Z</time></trkpt><trkpt lat="43.60663711603134" lon="6.778103371846655"><ele>199.71428571428572</ele><time>2026-04-12T07:05:45Z</time></trkpt><trkpt lat="43.606678488506354" lon="6.778023612371742"><ele>199.42857142857144</ele><time>2026-04-12T07:05:46Z</time></trkpt><trkpt lat="43.60671986784896" lon="6.777948389165779"><ele>199.14285714285717</ele><time>2026-04-12T07:05:47Z</time></trkpt><trkpt lat="43.60676190318894" lon="6.7778705413703"><ele>198.85714285714286</ele><time>2026-04-12T07:05:48Z</time></trkpt><trkpt lat="43.60680290298782" lon="6.777794542101333"><ele>198.57142857142856</ele><time>2026-04-12T07:05:49Z</time></trkpt><trkpt lat="43.606845450684666" lon="6.7777171230265445"><ele>198.2857142857143</ele><time>2026-04-12T07:05:50Z</time></trkpt><trkpt lat="43.60688118868021" lon="6.777636421308433"><ele>198.0</ele><time>2026-04-12T07:05:51Z</time></trkpt><trkpt lat="43.606909475882226" lon="6.777546894797896"><ele>197.85714285714286</ele><time>2026-04-12T07:05:52Z</time></trkpt><trkpt lat="43.60693079280942" lon="6.77745626590627"><ele>197.7142857142857</ele><time>2026-04-12T07:05:53Z</time></trkpt><trkpt lat="43.606957364134175" lon="6.777369080340133"><ele>197.57142857142856</ele><time>2026-04-12T07:05:54Z</time></trkpt><trkpt lat="43.60698754913088" lon="6.777286687504599"><ele>197.42857142857144</ele><time>2026-04-12T07:05:55Z</time></trkpt><trkpt lat="43.60702050213821" lon="6.777205357949462"><ele>197.28571428571428</ele><time>2026-04-12T07:05:56Z</time></trkpt><trkpt lat="43.60705856849442" lon="6.777131165389695"><ele>197.14285714285714</ele><time>2026-04-12T07:05:57Z</time></trkpt><trkpt lat="43.60710524486156" lon="6.777069019251003"><ele>197.0</ele><time>2026-04-12T07:05:58Z</time></trkpt><trkpt lat="43.60716188411887" lon="6.777026282911305"><ele>197.8</ele><time>2026-04-12T07:05:59Z</time></trkpt><trkpt lat="43.607222093019224" lon="6.776996470898942"><ele>198.6</ele><time>2026-04-12T07:06:00Z</time></trkpt><trkpt lat="43.60732502129615" lon="6.776911526300209"><ele>199.4</ele><time>2026-04-12T07:06:02Z</time></trkpt><trkpt lat="43.60740228347621" lon="6.776795710358328"><ele>200.20000000000002</ele><time>2026-04-12T07:06:04Z</time></trkpt><trkpt lat="43.60747021777934" lon="6.776676975391895"><ele>201.0</ele><time>2026-04-12T07:06:06Z</time></trkpt><trkpt lat="43.607533812080945" lon="6.776559240503534"><ele>201.0</ele><time>2026-04-12T07:06:08Z</time></trkpt><trkpt lat="43.60758795602714" lon="6.776450678077699"><ele>201.0</ele><time>2026-04-12T07:06:10Z</time></trkpt><trkpt lat="43.607655668514134" lon="6.7763673597610055"><ele>201.0</ele><time>2026-04-12T07:06:12Z</time></trkpt><trkpt lat="43.60770871166645" lon="6.776276281857343"><ele>201.0</ele><time>2026-04-12T07:06:14Z</time></trkpt><trkpt lat="43.607746485570054" lon="6.776177061942525"><ele>201.0</ele><time>2026-04-12T07:06:16Z</time></trkpt><trkpt lat="43.607794117846204" lon="6.776092396572349"><ele>201.0</ele><time>2026-04-12T07:06:18Z</time></trkpt><trkpt lat="43.60786048271787" lon="6.776012558724392"><ele>202.33333333333334</ele><time>2026-04-12T07:06:20Z</time></trkpt><trkpt lat="43.60791471881945" lon="6.775918316008606"><ele>203.66666666666669</ele><time>2026-04-12T07:06:22Z</time></trkpt><trkpt lat="43.607968604532765" lon="6.775824682304902"><ele>205.0</ele><time>2026-04-12T07:06:24Z</time></trkpt><trkpt lat="43.608023246314495" lon="6.7757319939214415"><ele>206.33333333333334</ele><time>2026-04-12T07:06:26Z</time></trkpt><trkpt lat="43.60807560094062" lon="6.775642317859825"><ele>207.66666666666669</ele><time>2026-04-12T07:06:28Z</time></trkpt><trkpt lat="43.60811379389166" lon="6.775542298207266"><ele>209.0</ele><time>2026-04-12T07:06:30Z</time></trkpt><trkpt lat="43.60817151767716" lon="6.775436728512884"><ele>209.0</ele><time>2026-04-12T07:06:33Z</time></trkpt><trkpt lat="43.60822351943136" lon="6.775349162562441"><ele>209.0</ele><time>2026-04-12T07:06:35Z</time></trkpt><trkpt lat="43.60826671131392" lon="6.775275471611216"><ele>209.0</ele><time>2026-04-12T07:06:37Z</time></trkpt><trkpt lat="43.60830748868745" lon="6.775205365770514"><ele>209.0</ele><time>2026-04-12T07:06:38Z</time></trkpt><trkpt lat="43.60834824001188" lon="6.775135450499142"><ele>209.0</ele><time>2026-04-12T07:06:40Z</time></trkpt><trkpt lat="43.60839019175771" lon="6.775057577305667"><ele>209.0</ele><time>2026-04-12T07:06:42Z</time></trkpt><trkpt lat="43.60844046977211" lon="6.774992867883558"><ele>209.0</ele><time>2026-04-12T07:06:44Z</time></trkpt><trkpt lat="43.6084846795055" lon="6.774926960187466"><ele>209.00000000000003</ele><time>2026-04-12T07:06:46Z</time></trkpt><trkpt lat="43.60853698084759" lon="6.774827911973405"><ele>209.0</ele><time>2026-04-12T07:06:49Z</time></trkpt><trkpt lat="43.60859041020324" lon="6.774740079202865"><ele>209.0</ele><time>2026-04-12T07:06:53Z</time></trkpt><trkpt lat="43.60863803132245" lon="6.774654609756809"><ele>209.0</ele><time>2026-04-12T07:06:56Z</time></trkpt><trkpt lat="43.60868633607333" lon="6.774571959219027"><ele>209.00000000000003</ele><time>2026-04-12T07:06:59Z</time></trkpt><trkpt lat="43.608736778661665" lon="6.774477341499193"><ele>209.0</ele><time>2026-04-12T07:07:02Z</time></trkpt><trkpt lat="43.60878246719318" lon="6.774396850510271"><ele>210.42857142857142</ele><time>2026-04-12T07:07:06Z</time></trkpt><trkpt lat="43.608834407982556" lon="6.774303331312092"><ele>211.85714285714283</ele><time>2026-04-12T07:07:10Z</time></trkpt><trkpt lat="43.60888646075785" lon="6.7742177826356205"><ele>213.28571428571428</ele><time>2026-04-12T07:07:13Z</time></trkpt><trkpt lat="43.608932740233904" lon="6.774139959162375"><ele>214.71428571428572</ele><time>2026-04-12T07:07:17Z</time></trkpt><trkpt lat="43.60896895667078" lon="6.7740652782400455"><ele>216.14285714285714</ele><time>2026-04-12T07:07:19Z</time></trkpt><trkpt lat="43.609009332900115" lon="6.773996868684002"><ele>217.57142857142858</ele><time>2026-04-12T07:07:22Z</time></trkpt><trkpt lat="43.6090705276887" lon="6.7739253412668825"><ele>219.0</ele><time>2026-04-12T07:07:26Z</time></trkpt><trkpt lat="43.609142702820016" lon="6.773900181559765"><ele>219.0</ele><time>2026-04-12T07:07:30Z</time></trkpt><trkpt lat="43.60921828766728" lon="6.773962659474049"><ele>219.0</ele><time>2026-04-12T07:07:34Z</time></trkpt><trkpt lat="43.60927529589043" lon="6.774040499817352"><ele>219.0</ele><time>2026-04-12T07:07:38Z</time></trkpt><trkpt lat="43.6093303584399" lon="6.774125023610704"><ele>219.0</ele><time>2026-04-12T07:07:42Z</time></trkpt><trkpt lat="43.60937145954201" lon="6.774192681190211"><ele>219.0</ele><time>2026-04-12T07:07:45Z</time></trkpt><trkpt lat="43.609415351714915" lon="6.774258897693323"><ele>219.0</ele><time>2026-04-12T07:07:48Z</time></trkpt><trkpt lat="43.60945718874831" lon="6.774329874117816"><ele>219.0</ele><time>2026-04-12T07:07:50Z</time></trkpt><trkpt lat="43.609498630627606" lon="6.774396634225001"><ele>221.14285714285717</ele><time>2026-04-12T07:07:53Z</time></trkpt><trkpt lat="43.60954290727462" lon="6.774465598413044"><ele>223.28571428571428</ele><time>2026-04-12T07:07:56Z</time></trkpt><trkpt lat="43.609586357612095" lon="6.774534781122526"><ele>225.42857142857144</ele><time>2026-04-12T07:07:59Z</time></trkpt><trkpt lat="43.60962914671879" lon="6.774607629370218"><ele>227.57142857142858</ele><time>2026-04-12T07:08:02Z</time></trkpt><trkpt lat="43.60967305147829" lon="6.7746744028414625"><ele>229.71428571428572</ele><time>2026-04-12T07:08:05Z</time></trkpt><trkpt lat="43.609709211609456" lon="6.77474989581699"><ele>231.85714285714286</ele><time>2026-04-12T07:08:08Z</time></trkpt><trkpt lat="43.60974381140787" lon="6.774830289354605"><ele>234.0</ele><time>2026-04-12T07:08:11Z</time></trkpt><trkpt lat="43.60977579445489" lon="6.774910290491432"><ele>234.0</ele><time>2026-04-12T07:08:14Z</time></trkpt><trkpt lat="43.60980617042765" lon="6.7750011621715185"><ele>234.00000000000003</ele><time>2026-04-12T07:08:18Z</time></trkpt><trkpt lat="43.609844300501535" lon="6.775105061629151"><ele>234.0</ele><time>2026-04-12T07:08:22Z</time></trkpt><trkpt lat="43.60987268426069" lon="6.775208183272766"><ele>234.0</ele><time>2026-04-12T07:08:25Z</time></trkpt><trkpt lat="43.60990019392525" lon="6.775291263587522"><ele>234.00000000000003</ele><time>2026-04-12T07:08:28Z</time></trkpt><trkpt lat="43.60992550600099" lon="6.775379405740271"><ele>234.0</ele><time>2026-04-12T07:08:32Z</time></trkpt><trkpt lat="43.60995043789662" lon="6.7754773392400525"><ele>234.0</ele><time>2026-04-12T07:08:35Z</time></trkpt><trkpt lat="43.60998086228716" lon="6.775571032178554"><ele>234.0</ele><time>2026-04-12T07:08:38Z</time></trkpt><trkpt lat="43.61000748122461" lon="6.775657065579618"><ele>234.00000000000003</ele><time>2026-04-12T07:08:41Z</time></trkpt><trkpt lat="43.61003588553339" lon="6.7757419941126225"><ele>234.0</ele><time>2026-04-12T07:08:44Z</time></trkpt><trkpt lat="43.61006634729846" lon="6.775825053292072"><ele>234.0</ele><time>2026-04-12T07:08:47Z</time></trkpt><trkpt lat="43.61009018479749" lon="6.775921336014986"><ele>234.00000000000003</ele><time>2026-04-12T07:08:51Z</time></trkpt><trkpt lat="43.610114938198144" lon="6.776029239042146"><ele>234.0</ele><time>2026-04-12T07:08:54Z</time></trkpt><trkpt lat="43.61012820362833" lon="6.776144214475829"><ele>234.0</ele><time>2026-04-12T07:08:58Z</time></trkpt><trkpt lat="43.61013905915493" lon="6.776236369568873"><ele>233.42857142857144</ele><time>2026-04-12T07:09:01Z</time></trkpt><trkpt lat="43.61015209581931" lon="6.776323581438853"><ele>232.8571428571429</ele><time>2026-04-12T07:09:04Z</time></trkpt><trkpt lat="43.61016558543899" lon="6.776413775748654"><ele>232.28571428571428</ele><time>2026-04-12T07:09:07Z</time></trkpt><trkpt lat="43.61018036073777" lon="6.776512550852138"><ele>231.71428571428572</ele><time>2026-04-12T07:09:11Z</time></trkpt><trkpt lat="43.61020433812815" lon="6.7766145062295"><ele>231.14285714285714</ele><time>2026-04-12T07:09:14Z</time></trkpt><trkpt lat="43.610232385796536" lon="6.776693913759402"><ele>230.57142857142856</ele><time>2026-04-12T07:09:17Z</time></trkpt><trkpt lat="43.61026879528261" lon="6.7767698212491085"><ele>229.99999999999997</ele><time>2026-04-12T07:09:20Z</time></trkpt><trkpt lat="43.61031085366961" lon="6.776838436361387"><ele>230.71428571428567</ele><time>2026-04-12T07:09:23Z</time></trkpt><trkpt lat="43.61037718867689" lon="6.776908120197564"><ele>231.42857142857142</ele><time>2026-04-12T07:09:27Z</time></trkpt><trkpt lat="43.6104372193304" lon="6.776942473180902"><ele>232.1428571428571</ele><time>2026-04-12T07:09:30Z</time></trkpt><trkpt lat="43.61049833135237" lon="6.776965008750984"><ele>232.85714285714283</ele><time>2026-04-12T07:09:33Z</time></trkpt><trkpt lat="43.610581902701554" lon="6.776967265948844"><ele>233.57142857142856</ele><time>2026-04-12T07:09:37Z</time></trkpt><trkpt lat="43.610662054141194" lon="6.776943805046614"><ele>234.28571428571428</ele><time>2026-04-12T07:09:41Z</time></trkpt><trkpt lat="43.61071458919221" lon="6.7768930383379455"><ele>235.0</ele><time>2026-04-12T07:09:44Z</time></trkpt><trkpt lat="43.610757829157826" lon="6.776829344571839"><ele>237.0</ele><time>2026-04-12T07:09:47Z</time></trkpt><trkpt lat="43.61076286769725" lon="6.776741713417087"><ele>238.99999999999997</ele><time>2026-04-12T07:09:50Z</time></trkpt><trkpt lat="43.61073832590401" lon="6.776660079226666"><ele>241.0</ele><time>2026-04-12T07:09:53Z</time></trkpt><trkpt lat="43.61069417654478" lon="6.77658433792902"><ele>243.0</ele><time>2026-04-12T07:09:57Z</time></trkpt><trkpt lat="43.61064771330983" lon="6.776514750051363"><ele>244.99999999999997</ele><time>2026-04-12T07:10:00Z</time></trkpt><trkpt lat="43.61061086562277" lon="6.776441471162349"><ele>247.0</ele><time>2026-04-12T07:10:03Z</time></trkpt><trkpt lat="43.61059504229837" lon="6.776355094913407"><ele>249.0</ele><time>2026-04-12T07:10:06Z</time></trkpt><trkpt lat="43.61058514803463" lon="6.776263937239544"><ele>249.0</ele><time>2026-04-12T07:10:09Z</time></trkpt><trkpt lat="43.610592710020306" lon="6.7761771890463445"><ele>248.99999999999997</ele><time>2026-04-12T07:10:12Z</time></trkpt><trkpt lat="43.61059037946243" lon="6.776062246126373"><ele>249.0</ele><time>2026-04-12T07:10:16Z</time></trkpt><trkpt lat="43.610586042280055" lon="6.775950183682383"><ele>249.0</ele><time>2026-04-12T07:10:20Z</time></trkpt><trkpt lat="43.610590587659246" lon="6.775863117174263"><ele>248.99999999999997</ele><time>2026-04-12T07:10:23Z</time></trkpt><trkpt lat="43.61060209137016" lon="6.77577281071343"><ele>249.0</ele><time>2026-04-12T07:10:26Z</time></trkpt><trkpt lat="43.61062952765443" lon="6.775677958135184"><ele>249.0</ele><time>2026-04-12T07:10:30Z</time></trkpt><trkpt lat="43.6106697555051" lon="6.775578505425569"><ele>249.66666666666666</ele><time>2026-04-12T07:10:34Z</time></trkpt><trkpt lat="43.61070433227673" lon="6.775505795720674"><ele>250.33333333333331</ele><time>2026-04-12T07:10:37Z</time></trkpt><trkpt lat="43.61075234639817" lon="6.775414175678674"><ele>251.0</ele><time>2026-04-12T07:10:41Z</time></trkpt><trkpt lat="43.610809890570444" lon="6.77532968716799"><ele>251.66666666666666</ele><time>2026-04-12T07:10:45Z</time></trkpt><trkpt lat="43.61086976041408" lon="6.775246867057322"><ele>252.33333333333331</ele><time>2026-04-12T07:10:49Z</time></trkpt><trkpt lat="43.61092541470481" lon="6.775174165129595"><ele>253.0</ele><time>2026-04-12T07:10:52Z</time></trkpt><trkpt lat="43.610980435598364" lon="6.775108433263552"><ele>252.99999999999997</ele><time>2026-04-12T07:10:56Z</time></trkpt><trkpt lat="43.611046189323595" lon="6.775036306611432"><ele>253.0</ele><time>2026-04-12T07:10:59Z</time></trkpt><trkpt lat="43.6111000864393" lon="6.774991026420553"><ele>253.0</ele><time>2026-04-12T07:11:02Z</time></trkpt><trkpt lat="43.61116101752938" lon="6.77493847278664"><ele>253.0</ele><time>2026-04-12T07:11:06Z</time></trkpt><trkpt lat="43.6112330189511" lon="6.774885284983903"><ele>252.99999999999997</ele><time>2026-04-12T07:11:10Z</time></trkpt><trkpt lat="43.61130964337901" lon="6.774843219285832"><ele>253.0</ele><time>2026-04-12T07:11:13Z</time></trkpt><trkpt lat="43.611388405494736" lon="6.774801745998337"><ele>255.14285714285717</ele><time>2026-04-12T07:11:17Z</time></trkpt><trkpt lat="43.61145262700834" lon="6.7747708189034235"><ele>257.2857142857143</ele><time>2026-04-12T07:11:21Z</time></trkpt><trkpt lat="43.61152944028019" lon="6.774732020373973"><ele>259.42857142857144</ele><time>2026-04-12T07:11:25Z</time></trkpt><trkpt lat="43.61160672855556" lon="6.774690212044682"><ele>261.57142857142856</ele><time>2026-04-12T07:11:29Z</time></trkpt><trkpt lat="43.611675606661876" lon="6.774637945175913"><ele>263.7142857142857</ele><time>2026-04-12T07:11:32Z</time></trkpt><trkpt lat="43.611731547335836" lon="6.7745876700839895"><ele>265.8571428571429</ele><time>2026-04-12T07:11:35Z</time></trkpt><trkpt lat="43.611786851988384" lon="6.77453929025295"><ele>268.0</ele><time>2026-04-12T07:11:38Z</time></trkpt><trkpt lat="43.611840725651106" lon="6.774488071768903"><ele>268.0</ele><time>2026-04-12T07:11:41Z</time></trkpt><trkpt lat="43.611893536689365" lon="6.774434157432883"><ele>268.0</ele><time>2026-04-12T07:11:44Z</time></trkpt><trkpt lat="43.61195605612218" lon="6.774363604521594"><ele>268.0</ele><time>2026-04-12T07:11:48Z</time></trkpt><trkpt lat="43.61200993197114" lon="6.77431172907888"><ele>268.0</ele><time>2026-04-12T07:11:51Z</time></trkpt><trkpt lat="43.61207598772102" lon="6.774241980232265"><ele>268.0</ele><time>2026-04-12T07:11:55Z</time></trkpt><trkpt lat="43.612128250720716" lon="6.774189786516052"><ele>268.0</ele><time>2026-04-12T07:11:58Z</time></trkpt><trkpt lat="43.612182113428965" lon="6.774134258116334"><ele>268.0</ele><time>2026-04-12T07:12:01Z</time></trkpt><trkpt lat="43.61224539813421" lon="6.774070531584903"><ele>269.0</ele><time>2026-04-12T07:12:05Z</time></trkpt><trkpt lat="43.61230088382659" lon="6.774016375690133"><ele>270.0</ele><time>2026-04-12T07:12:08Z</time></trkpt><trkpt lat="43.612353857736515" lon="6.773966525343866"><ele>271.0</ele><time>2026-04-12T07:12:11Z</time></trkpt><trkpt lat="43.61241043353559" lon="6.773919433349059"><ele>272.0</ele><time>2026-04-12T07:12:14Z</time></trkpt><trkpt lat="43.61246783705345" lon="6.773876477616605"><ele>273.0</ele><time>2026-04-12T07:12:17Z</time></trkpt><trkpt lat="43.61252751223735" lon="6.773839017532594"><ele>274.0</ele><time>2026-04-12T07:12:20Z</time></trkpt><trkpt lat="43.61258932189244" lon="6.773796910412006"><ele>275.0</ele><time>2026-04-12T07:12:24Z</time></trkpt><trkpt lat="43.612661277862884" lon="6.773740922853892"><ele>275.0</ele><time>2026-04-12T07:12:28Z</time></trkpt><trkpt lat="43.61274541724622" lon="6.7737017700544415"><ele>275.0</ele><time>2026-04-12T07:12:32Z</time></trkpt><trkpt lat="43.61281036918647" lon="6.773657772327473"><ele>275.0</ele><time>2026-04-12T07:12:36Z</time></trkpt><trkpt lat="43.61287360280045" lon="6.773621697955313"><ele>275.0</ele><time>2026-04-12T07:12:39Z</time></trkpt><trkpt lat="43.61293450544011" lon="6.773582615434881"><ele>275.0</ele><time>2026-04-12T07:12:42Z</time></trkpt><trkpt lat="43.612993438438885" lon="6.773551640144989"><ele>275.0</ele><time>2026-04-12T07:12:45Z</time></trkpt><trkpt lat="43.613072533993275" lon="6.7735087079188885"><ele>275.0</ele><time>2026-04-12T07:12:48Z</time></trkpt><trkpt lat="43.61313189434068" lon="6.773472397090114"><ele>276.42857142857144</ele><time>2026-04-12T07:12:51Z</time></trkpt><trkpt lat="43.61319340053352" lon="6.7734411209124366"><ele>277.85714285714283</ele><time>2026-04-12T07:12:54Z</time></trkpt><trkpt lat="43.61325386160439" lon="6.773405628942648"><ele>279.2857142857143</ele><time>2026-04-12T07:12:57Z</time></trkpt><trkpt lat="43.6133340521491" lon="6.7733604325730665"><ele>280.7142857142857</ele><time>2026-04-12T07:13:01Z</time></trkpt><trkpt lat="43.61339611303886" lon="6.773327469689341"><ele>282.14285714285717</ele><time>2026-04-12T07:13:04Z</time></trkpt><trkpt lat="43.61345678464666" lon="6.773297157799483"><ele>283.57142857142856</ele><time>2026-04-12T07:13:07Z</time></trkpt><trkpt lat="43.613516195366536" lon="6.773265419480382"><ele>285.0</ele><time>2026-04-12T07:13:10Z</time></trkpt><trkpt lat="43.61358092321642" lon="6.773240033746844"><ele>285.0</ele><time>2026-04-12T07:13:13Z</time></trkpt><trkpt lat="43.61364700309291" lon="6.773228058343364"><ele>285.0</ele><time>2026-04-12T07:13:16Z</time></trkpt><trkpt lat="43.613730731289955" lon="6.7732023685081595"><ele>285.0</ele><time>2026-04-12T07:13:20Z</time></trkpt><trkpt lat="43.613793736664384" lon="6.773184169347038"><ele>285.0</ele><time>2026-04-12T07:13:23Z</time></trkpt><trkpt lat="43.6138590434072" lon="6.773165967553406"><ele>285.0</ele><time>2026-04-12T07:13:27Z</time></trkpt><trkpt lat="43.61395425951476" lon="6.773134280979612"><ele>285.0</ele><time>2026-04-12T07:13:31Z</time></trkpt><trkpt lat="43.61401936218444" lon="6.773106469853327"><ele>285.0</ele><time>2026-04-12T07:13:35Z</time></trkpt><trkpt lat="43.61409436214935" lon="6.773068036121232"><ele>286.42857142857144</ele><time>2026-04-12T07:13:38Z</time></trkpt><trkpt lat="43.61415427259996" lon="6.773037044258063"><ele>287.8571428571429</ele><time>2026-04-12T07:13:41Z</time></trkpt><trkpt lat="43.61421217393231" lon="6.7730024826594635"><ele>289.28571428571433</ele><time>2026-04-12T07:13:44Z</time></trkpt><trkpt lat="43.614287970074145" lon="6.772954692049059"><ele>290.7142857142857</ele><time>2026-04-12T07:13:48Z</time></trkpt><trkpt lat="43.61434917120274" lon="6.772920092445582"><ele>292.14285714285717</ele><time>2026-04-12T07:13:52Z</time></trkpt><trkpt lat="43.61443042566142" lon="6.772866128552055"><ele>293.5714285714286</ele><time>2026-04-12T07:13:56Z</time></trkpt><trkpt lat="43.61449173901436" lon="6.772831775767464"><ele>295.0</ele><time>2026-04-12T07:13:59Z</time></trkpt><trkpt lat="43.61456810383648" lon="6.77278721334695"><ele>296.16666666666663</ele><time>2026-04-12T07:14:03Z</time></trkpt><trkpt lat="43.61463948975074" lon="6.772731997213227"><ele>297.3333333333333</ele><time>2026-04-12T07:14:07Z</time></trkpt><trkpt lat="43.614706067819945" lon="6.772671187684921"><ele>298.5</ele><time>2026-04-12T07:14:11Z</time></trkpt><trkpt lat="43.614772838444594" lon="6.77259938031693"><ele>299.6666666666667</ele><time>2026-04-12T07:14:15Z</time></trkpt><trkpt lat="43.61482395237644" lon="6.7725410508824835"><ele>300.83333333333337</ele><time>2026-04-12T07:14:18Z</time></trkpt><trkpt lat="43.61486743730917" lon="6.772462726969387"><ele>302.0</ele><time>2026-04-12T07:14:21Z</time></trkpt><trkpt lat="43.6149026891256" lon="6.772383464193933"><ele>302.00000000000006</ele><time>2026-04-12T07:14:24Z</time></trkpt><trkpt lat="43.61494354515931" lon="6.77229947142142"><ele>302.0</ele><time>2026-04-12T07:14:27Z</time></trkpt><trkpt lat="43.614983818896455" lon="6.772221624028615"><ele>302.0</ele><time>2026-04-12T07:14:30Z</time></trkpt><trkpt lat="43.615027650040666" lon="6.772150192892205"><ele>302.0</ele><time>2026-04-12T07:14:33Z</time></trkpt><trkpt lat="43.615074602917616" lon="6.772083143722825"><ele>302.0</ele><time>2026-04-12T07:14:36Z</time></trkpt><trkpt lat="43.6151355470155" lon="6.772007475979664"><ele>302.00000000000006</ele><time>2026-04-12T07:14:40Z</time></trkpt><trkpt lat="43.615191753372685" lon="6.7719408211758845"><ele>302.0</ele><time>2026-04-12T07:14:44Z</time></trkpt><trkpt lat="43.61524306801612" lon="6.77188593660122"><ele>300.6666666666667</ele><time>2026-04-12T07:14:47Z</time></trkpt><trkpt lat="43.61529400696383" lon="6.771825254809957"><ele>299.33333333333337</ele><time>2026-04-12T07:14:50Z</time></trkpt><trkpt lat="43.61535511536941" lon="6.771755930157972"><ele>298.0</ele><time>2026-04-12T07:14:53Z</time></trkpt><trkpt lat="43.61541185618817" lon="6.771690659365631"><ele>296.6666666666667</ele><time>2026-04-12T07:14:57Z</time></trkpt><trkpt lat="43.61545559876552" lon="6.771616990075049"><ele>295.3333333333333</ele><time>2026-04-12T07:15:00Z</time></trkpt><trkpt lat="43.615514480868654" lon="6.771520413924471"><ele>294.0</ele><time>2026-04-12T07:15:03Z</time></trkpt><trkpt lat="43.61556763422809" lon="6.771433437062595"><ele>296.5</ele><time>2026-04-12T07:15:06Z</time></trkpt><trkpt lat="43.615609230554995" lon="6.771342372527082"><ele>299.0</ele><time>2026-04-12T07:15:09Z</time></trkpt><trkpt lat="43.61565530827039" lon="6.771253615042045"><ele>301.5</ele><time>2026-04-12T07:15:12Z</time></trkpt><trkpt lat="43.61569762064164" lon="6.771165663211521"><ele>304.0</ele><time>2026-04-12T07:15:15Z</time></trkpt><trkpt lat="43.6157416494414" lon="6.771071944952218"><ele>306.5</ele><time>2026-04-12T07:15:18Z</time></trkpt><trkpt lat="43.61577338436857" lon="6.7709762934164095"><ele>309.0</ele><time>2026-04-12T07:15:21Z</time></trkpt><trkpt lat="43.6158158820646" lon="6.770892097258291"><ele>309.0</ele><time>2026-04-12T07:15:24Z</time></trkpt><trkpt lat="43.615844727937656" lon="6.770808000127965"><ele>309.0</ele><time>2026-04-12T07:15:27Z</time></trkpt><trkpt lat="43.615870292028816" lon="6.770713027856134"><ele>309.0</ele><time>2026-04-12T07:15:30Z</time></trkpt><trkpt lat="43.61589360861875" lon="6.770603600469752"><ele>309.0</ele><time>2026-04-12T07:15:33Z</time></trkpt><trkpt lat="43.61591761414157" lon="6.770496152618186"><ele>309.0</ele><time>2026-04-12T07:15:36Z</time></trkpt><trkpt lat="43.61594359597289" lon="6.770390691035979"><ele>309.0</ele><time>2026-04-12T07:15:39Z</time></trkpt><trkpt lat="43.61596971357722" lon="6.770283323089"><ele>308.5</ele><time>2026-04-12T07:15:42Z</time></trkpt><trkpt lat="43.61599382766633" lon="6.770181130324729"><ele>308.0</ele><time>2026-04-12T07:15:45Z</time></trkpt><trkpt lat="43.61601624939212" lon="6.7700727541132135"><ele>307.5</ele><time>2026-04-12T07:15:48Z</time></trkpt><trkpt lat="43.61604042908164" lon="6.769952769701735"><ele>307.0</ele><time>2026-04-12T07:15:51Z</time></trkpt><trkpt lat="43.616071387456365" lon="6.769839058672553"><ele>306.5</ele><time>2026-04-12T07:15:54Z</time></trkpt><trkpt lat="43.616106642363555" lon="6.769725281302597"><ele>306.0</ele><time>2026-04-12T07:15:57Z</time></trkpt><trkpt lat="43.616147726088656" lon="6.769616325300197"><ele>309.0</ele><time>2026-04-12T07:16:00Z</time></trkpt><trkpt lat="43.61618169340129" lon="6.769503815083785"><ele>312.0</ele><time>2026-04-12T07:16:03Z</time></trkpt><trkpt lat="43.616222977987654" lon="6.769397726350332"><ele>315.0</ele><time>2026-04-12T07:16:06Z</time></trkpt><trkpt lat="43.616270297016136" lon="6.769297166366544"><ele>318.0</ele><time>2026-04-12T07:16:09Z</time></trkpt><trkpt lat="43.61632728417199" lon="6.7692048602892125"><ele>321.0</ele><time>2026-04-12T07:16:12Z</time></trkpt><trkpt lat="43.61638748883082" lon="6.769116821112223"><ele>324.0</ele><time>2026-04-12T07:16:15Z</time></trkpt><trkpt lat="43.61645573113858" lon="6.769044449078594"><ele>324.0</ele><time>2026-04-12T07:16:18Z</time></trkpt><trkpt lat="43.61651257834907" lon="6.768961007566877"><ele>324.0</ele><time>2026-04-12T07:16:21Z</time></trkpt><trkpt lat="43.61656989645359" lon="6.768883228692573"><ele>324.0</ele><time>2026-04-12T07:16:24Z</time></trkpt><trkpt lat="43.616626412345695" lon="6.768807247134745"><ele>324.0</ele><time>2026-04-12T07:16:27Z</time></trkpt><trkpt lat="43.61667541600324" lon="6.768736720485242"><ele>324.0</ele><time>2026-04-12T07:16:30Z</time></trkpt><trkpt lat="43.616717384876914" lon="6.768662445252752"><ele>324.0</ele><time>2026-04-12T07:16:33Z</time></trkpt><trkpt lat="43.616757354211124" lon="6.768588173006306"><ele>324.0</ele><time>2026-04-12T07:16:36Z</time></trkpt><trkpt lat="43.61679477793005" lon="6.768512516007893"><ele>322.57142857142856</ele><time>2026-04-12T07:16:39Z</time></trkpt><trkpt lat="43.616841866558374" lon="6.768424468616933"><ele>321.1428571428571</ele><time>2026-04-12T07:16:43Z</time></trkpt><trkpt lat="43.6168906569827" lon="6.768336444241121"><ele>319.71428571428567</ele><time>2026-04-12T07:16:47Z</time></trkpt><trkpt lat="43.616933812592606" lon="6.768264902110618"><ele>318.2857142857143</ele><time>2026-04-12T07:16:50Z</time></trkpt><trkpt lat="43.61698507100371" lon="6.768181960496361"><ele>316.85714285714283</ele><time>2026-04-12T07:16:54Z</time></trkpt><trkpt lat="43.61702746619027" lon="6.768116496037156"><ele>315.4285714285714</ele><time>2026-04-12T07:16:57Z</time></trkpt><trkpt lat="43.61707060509806" lon="6.768023579194749"><ele>314.0</ele><time>2026-04-12T07:17:00Z</time></trkpt><trkpt lat="43.61709703892377" lon="6.7679307038894025"><ele>318.1428571428571</ele><time>2026-04-12T07:17:04Z</time></trkpt><trkpt lat="43.61711570177291" lon="6.767829744874815"><ele>322.2857142857143</ele><time>2026-04-12T07:17:07Z</time></trkpt><trkpt lat="43.617125632255544" lon="6.767734590347791"><ele>326.42857142857144</ele><time>2026-04-12T07:17:10Z</time></trkpt><trkpt lat="43.61713483676274" lon="6.767634108236327"><ele>330.57142857142856</ele><time>2026-04-12T07:17:14Z</time></trkpt><trkpt lat="43.61714339064736" lon="6.7675461653331865"><ele>334.7142857142857</ele><time>2026-04-12T07:17:17Z</time></trkpt><trkpt lat="43.617151842939485" lon="6.767445270583988"><ele>338.85714285714283</ele><time>2026-04-12T07:17:21Z</time></trkpt><trkpt lat="43.61715590772725" lon="6.767324332803351"><ele>343.0</ele><time>2026-04-12T07:17:25Z</time></trkpt><trkpt lat="43.61716009984884" lon="6.767200659048455"><ele>343.0</ele><time>2026-04-12T07:17:29Z</time></trkpt><trkpt lat="43.617162758672904" lon="6.767083691899082"><ele>343.0</ele><time>2026-04-12T07:17:33Z</time></trkpt><trkpt lat="43.61716571149859" lon="6.766973200548442"><ele>343.0</ele><time>2026-04-12T07:17:37Z</time></trkpt><trkpt lat="43.617167196376165" lon="6.766868377845516"><ele>343.0</ele><time>2026-04-12T07:17:41Z</time></trkpt><trkpt lat="43.617174870388084" lon="6.766781095440437"><ele>343.0</ele><time>2026-04-12T07:17:44Z</time></trkpt><trkpt lat="43.61717752644097" lon="6.766691423526627"><ele>343.0</ele><time>2026-04-12T07:17:47Z</time></trkpt><trkpt lat="43.61718422924764" lon="6.766588266360734"><ele>343.0</ele><time>2026-04-12T07:17:51Z</time></trkpt><trkpt lat="43.617193247105966" lon="6.766501827676064"><ele>343.5</ele><time>2026-04-12T07:17:54Z</time></trkpt><trkpt lat="43.61720160262936" lon="6.766386897431763"><ele>344.0</ele><time>2026-04-12T07:17:58Z</time></trkpt><trkpt lat="43.617212022882576" lon="6.766257040679987"><ele>344.5</ele><time>2026-04-12T07:18:02Z</time></trkpt><trkpt lat="43.61721952549177" lon="6.766167232892177"><ele>345.0</ele><time>2026-04-12T07:18:06Z</time></trkpt><trkpt lat="43.61723009056095" lon="6.7660812597672155"><ele>345.5</ele><time>2026-04-12T07:18:09Z</time></trkpt><trkpt lat="43.61725738018819" lon="6.765973947138717"><ele>346.0</ele><time>2026-04-12T07:18:12Z</time></trkpt><trkpt lat="43.61728593037052" lon="6.765891607738456"><ele>346.1428571428571</ele><time>2026-04-12T07:18:15Z</time></trkpt><trkpt lat="43.61732842392223" lon="6.765790235846755"><ele>346.28571428571433</ele><time>2026-04-12T07:18:19Z</time></trkpt><trkpt lat="43.617362450154914" lon="6.765716478471578"><ele>346.42857142857144</ele><time>2026-04-12T07:18:22Z</time></trkpt><trkpt lat="43.61741187515832" lon="6.765621378100019"><ele>346.57142857142856</ele><time>2026-04-12T07:18:26Z</time></trkpt><trkpt lat="43.617454301138174" lon="6.765550911822561"><ele>346.71428571428567</ele><time>2026-04-12T07:18:29Z</time></trkpt><trkpt lat="43.617492836808076" lon="6.765478620443944"><ele>346.8571428571429</ele><time>2026-04-12T07:18:32Z</time></trkpt><trkpt lat="43.6175327848563" lon="6.76538208070137"><ele>347.0</ele><time>2026-04-12T07:18:36Z</time></trkpt><trkpt lat="43.61755036818784" lon="6.765288829102195"><ele>347.0</ele><time>2026-04-12T07:18:40Z</time></trkpt><trkpt lat="43.61755563041249" lon="6.765198990732785"><ele>347.0</ele><time>2026-04-12T07:18:43Z</time></trkpt><trkpt lat="43.61754428196776" lon="6.765106405027051"><ele>347.0</ele><time>2026-04-12T07:18:46Z</time></trkpt><trkpt lat="43.61753002647825" lon="6.765014331746902"><ele>347.0</ele><time>2026-04-12T07:18:49Z</time></trkpt><trkpt lat="43.61750122660897" lon="6.764915713341444"><ele>347.0</ele><time>2026-04-12T07:18:53Z</time></trkpt><trkpt lat="43.61747097534812" lon="6.764836927840887"><ele>347.0</ele><time>2026-04-12T07:18:56Z</time></trkpt><trkpt lat="43.617436331322125" lon="6.764741632623966"><ele>347.0</ele><time>2026-04-12T07:18:59Z</time></trkpt><trkpt lat="43.61740796080844" lon="6.76464652103621"><ele>347.0</ele><time>2026-04-12T07:19:03Z</time></trkpt><trkpt lat="43.61738244222689" lon="6.764543458511023"><ele>347.0</ele><time>2026-04-12T07:19:06Z</time></trkpt><trkpt lat="43.61737248635542" lon="6.764448828757819"><ele>347.0</ele><time>2026-04-12T07:19:10Z</time></trkpt><trkpt lat="43.61737665736487" lon="6.764358609027833"><ele>347.0</ele><time>2026-04-12T07:19:13Z</time></trkpt><trkpt lat="43.61739041391836" lon="6.7642555993142395"><ele>347.0</ele><time>2026-04-12T07:19:16Z</time></trkpt><trkpt lat="43.617422118506425" lon="6.764171495563985"><ele>347.0</ele><time>2026-04-12T07:19:20Z</time></trkpt><trkpt lat="43.617498129515" lon="6.764128159476602"><ele>347.0</ele><time>2026-04-12T07:19:24Z</time></trkpt><trkpt lat="43.61753827929841" lon="6.764206934912462"><ele>347.0</ele><time>2026-04-12T07:19:28Z</time></trkpt><trkpt lat="43.61755942927155" lon="6.764308459944723"><ele>347.0</ele><time>2026-04-12T07:19:32Z</time></trkpt><trkpt lat="43.61759540104919" lon="6.764405440748343"><ele>347.0</ele><time>2026-04-12T07:19:36Z</time></trkpt><trkpt lat="43.61766774349113" lon="6.764457778357693"><ele>347.0</ele><time>2026-04-12T07:19:39Z</time></trkpt><trkpt lat="43.617744939134795" lon="6.764443270181792"><ele>347.0</ele><time>2026-04-12T07:19:43Z</time></trkpt><trkpt lat="43.6178122792237" lon="6.764432786212517"><ele>347.0</ele><time>2026-04-12T07:19:45Z</time></trkpt><trkpt lat="43.617875219532046" lon="6.764455019222774"><ele>347.0</ele><time>2026-04-12T07:19:48Z</time></trkpt><trkpt lat="43.61791825327436" lon="6.764548813470605"><ele>349.0</ele><time>2026-04-12T07:19:51Z</time></trkpt><trkpt lat="43.61794308319977" lon="6.764662751688249"><ele>351.0</ele><time>2026-04-12T07:19:54Z</time></trkpt><trkpt lat="43.61796459711527" lon="6.764761327588923"><ele>353.0</ele><time>2026-04-12T07:19:56Z</time></trkpt><trkpt lat="43.61799045080578" lon="6.764866420586584"><ele>355.0</ele><time>2026-04-12T07:19:58Z</time></trkpt><trkpt lat="43.61801971433826" lon="6.764973890770854"><ele>357.0</ele><time>2026-04-12T07:20:00Z</time></trkpt><trkpt lat="43.61804220970091" lon="6.765087200550335"><ele>359.0</ele><time>2026-04-12T07:20:02Z</time></trkpt><trkpt lat="43.61806596371946" lon="6.765193575034331"><ele>359.14285714285717</ele><time>2026-04-12T07:20:04Z</time></trkpt><trkpt lat="43.618097952659475" lon="6.765278338935035"><ele>359.28571428571433</ele><time>2026-04-12T07:20:06Z</time></trkpt><trkpt lat="43.61815275842998" lon="6.765325471897303"><ele>359.42857142857144</ele><time>2026-04-12T07:20:08Z</time></trkpt><trkpt lat="43.61822183741749" lon="6.765329908309414"><ele>359.57142857142856</ele><time>2026-04-12T07:20:10Z</time></trkpt><trkpt lat="43.618283671969586" lon="6.7653011096593465"><ele>359.7142857142857</ele><time>2026-04-12T07:20:12Z</time></trkpt><trkpt lat="43.61834819776386" lon="6.765278484013967"><ele>359.85714285714283</ele><time>2026-04-12T07:20:14Z</time></trkpt><trkpt lat="43.61841450090653" lon="6.765255139297591"><ele>360.0</ele><time>2026-04-12T07:20:16Z</time></trkpt><trkpt lat="43.61848026756945" lon="6.765225840462775"><ele>360.0</ele><time>2026-04-12T07:20:18Z</time></trkpt><trkpt lat="43.6185453994776" lon="6.765197671917294"><ele>360.0</ele><time>2026-04-12T07:20:20Z</time></trkpt><trkpt lat="43.61861418009993" lon="6.765176121001924"><ele>360.0</ele><time>2026-04-12T07:20:22Z</time></trkpt><trkpt lat="43.618692536541744" lon="6.765157140799968"><ele>360.0</ele><time>2026-04-12T07:20:24Z</time></trkpt><trkpt lat="43.61877098432605" lon="6.765123392188517"><ele>360.0</ele><time>2026-04-12T07:20:26Z</time></trkpt><trkpt lat="43.61886361956566" lon="6.765100328637565"><ele>360.0</ele><time>2026-04-12T07:20:28Z</time></trkpt><trkpt lat="43.61897344423069" lon="6.765049931298192"><ele>359.5</ele><time>2026-04-12T07:20:30Z</time></trkpt><trkpt lat="43.619078801390195" lon="6.765033631989259"><ele>359.0</ele><time>2026-04-12T07:20:32Z</time></trkpt><trkpt lat="43.61914443608667" lon="6.765165269313413"><ele>358.5</ele><time>2026-04-12T07:20:34Z</time></trkpt><trkpt lat="43.61916141772751" lon="6.765322445544094"><ele>358.0</ele><time>2026-04-12T07:20:36Z</time></trkpt><trkpt lat="43.619196054706464" lon="6.765476087859171"><ele>358.0</ele><time>2026-04-12T07:20:38Z</time></trkpt><trkpt lat="43.619226140167534" lon="6.765626120485235"><ele>358.0</ele><time>2026-04-12T07:20:40Z</time></trkpt><trkpt lat="43.61925480655398" lon="6.765774667530797"><ele>358.0</ele><time>2026-04-12T07:20:42Z</time></trkpt><trkpt lat="43.61928684149116" lon="6.765917657469353"><ele>358.0</ele><time>2026-04-12T07:20:44Z</time></trkpt><trkpt lat="43.61932290407947" lon="6.766069853922991"><ele>358.0</ele><time>2026-04-12T07:20:46Z</time></trkpt><trkpt lat="43.61935725188667" lon="6.766228597851702"><ele>358.25</ele><time>2026-04-12T07:20:48Z</time></trkpt><trkpt lat="43.61940210581157" lon="6.766383379956633"><ele>358.5</ele><time>2026-04-12T07:20:50Z</time></trkpt><trkpt lat="43.61949118458331" lon="6.766495791028653"><ele>358.75</ele><time>2026-04-12T07:20:52Z</time></trkpt><trkpt lat="43.61960224109583" lon="6.766549192041415"><ele>359.0</ele><time>2026-04-12T07:20:54Z</time></trkpt><trkpt lat="43.6197209755724" lon="6.766557689148803"><ele>359.0</ele><time>2026-04-12T07:20:56Z</time></trkpt><trkpt lat="43.61983890801563" lon="6.766550343564017"><ele>359.0</ele><time>2026-04-12T07:20:58Z</time></trkpt><trkpt lat="43.61996008718761" lon="6.766516730173781"><ele>359.0</ele><time>2026-04-12T07:21:00Z</time></trkpt><trkpt lat="43.620022998454274" lon="6.766490357167282"><ele>359.0</ele><time>2026-04-12T07:21:01Z</time></trkpt><trkpt lat="43.62008686030521" lon="6.766472806216191"><ele>359.0</ele><time>2026-04-12T07:21:02Z</time></trkpt><trkpt lat="43.62014947821782" lon="6.766451513232452"><ele>359.0</ele><time>2026-04-12T07:21:03Z</time></trkpt><trkpt lat="43.6202138953164" lon="6.76642885653281"><ele>359.0</ele><time>2026-04-12T07:21:04Z</time></trkpt><trkpt lat="43.620277191828976" lon="6.766407430420885"><ele>359.0</ele><time>2026-04-12T07:21:05Z</time></trkpt><trkpt lat="43.62033858911969" lon="6.766384202551731"><ele>359.0</ele><time>2026-04-12T07:21:06Z</time></trkpt><trkpt lat="43.62045674682119" lon="6.766342901743613"><ele>359.0</ele><time>2026-04-12T07:21:08Z</time></trkpt><trkpt lat="43.62057923607604" lon="6.766300271660739"><ele>359.0</ele><time>2026-04-12T07:21:10Z</time></trkpt><trkpt lat="43.62064209057258" lon="6.766278253703901"><ele>359.0</ele><time>2026-04-12T07:21:11Z</time></trkpt><trkpt lat="43.62070386914672" lon="6.766256712611784"><ele>360.14285714285717</ele><time>2026-04-12T07:21:12Z</time></trkpt><trkpt lat="43.620767435338344" lon="6.766233971996427"><ele>361.28571428571433</ele><time>2026-04-12T07:21:13Z</time></trkpt><trkpt lat="43.62083050368503" lon="6.766211934725248"><ele>362.42857142857144</ele><time>2026-04-12T07:21:14Z</time></trkpt><trkpt lat="43.62089484651208" lon="6.766189915410977"><ele>363.57142857142856</ele><time>2026-04-12T07:21:15Z</time></trkpt><trkpt lat="43.6209544444326" lon="6.766157714778868"><ele>364.7142857142857</ele><time>2026-04-12T07:21:16Z</time></trkpt><trkpt lat="43.62101636189509" lon="6.766127531903703"><ele>365.85714285714283</ele><time>2026-04-12T07:21:17Z</time></trkpt><trkpt lat="43.62107011573072" lon="6.766079261860053"><ele>367.0</ele><time>2026-04-12T07:21:18Z</time></trkpt><trkpt lat="43.62112638666217" lon="6.766031910809028"><ele>365.8</ele><time>2026-04-12T07:21:19Z</time></trkpt><trkpt lat="43.62117792364434" lon="6.765981267904967"><ele>364.6</ele><time>2026-04-12T07:21:20Z</time></trkpt><trkpt lat="43.62127355703467" lon="6.765876513444744"><ele>363.40000000000003</ele><time>2026-04-12T07:21:22Z</time></trkpt><trkpt lat="43.62136026553421" lon="6.765766229173895"><ele>362.20000000000005</ele><time>2026-04-12T07:21:24Z</time></trkpt><trkpt lat="43.62145881304422" lon="6.765657608692993"><ele>361.0</ele><time>2026-04-12T07:21:26Z</time></trkpt><trkpt lat="43.62151305027094" lon="6.76560448590464"><ele>361.0</ele><time>2026-04-12T07:21:27Z</time></trkpt><trkpt lat="43.62157376112063" lon="6.765567429210673"><ele>361.0</ele><time>2026-04-12T07:21:28Z</time></trkpt><trkpt lat="43.62163561273675" lon="6.765530243350909"><ele>361.0</ele><time>2026-04-12T07:21:29Z</time></trkpt><trkpt lat="43.62169925718346" lon="6.765497046193907"><ele>361.0</ele><time>2026-04-12T07:21:30Z</time></trkpt><trkpt lat="43.62176148731638" lon="6.765458825240896"><ele>361.0</ele><time>2026-04-12T07:21:31Z</time></trkpt><trkpt lat="43.621822319779014" lon="6.765424223286203"><ele>361.0</ele><time>2026-04-12T07:21:32Z</time></trkpt><trkpt lat="43.62188148769616" lon="6.76538364980989"><ele>361.0</ele><time>2026-04-12T07:21:33Z</time></trkpt><trkpt lat="43.62193975350794" lon="6.765341419345564"><ele>361.2857142857143</ele><time>2026-04-12T07:21:34Z</time></trkpt><trkpt lat="43.622001598230405" lon="6.765302266583067"><ele>361.57142857142856</ele><time>2026-04-12T07:21:35Z</time></trkpt><trkpt lat="43.62206360018255" lon="6.765264957914537"><ele>361.85714285714283</ele><time>2026-04-12T07:21:36Z</time></trkpt><trkpt lat="43.62212596032252" lon="6.765221916012719"><ele>362.1428571428571</ele><time>2026-04-12T07:21:37Z</time></trkpt><trkpt lat="43.622188802693486" lon="6.765189544903691"><ele>362.42857142857144</ele><time>2026-04-12T07:21:38Z</time></trkpt><trkpt lat="43.62225498055725" lon="6.765162131637717"><ele>362.71428571428567</ele><time>2026-04-12T07:21:39Z</time></trkpt><trkpt lat="43.62232479231993" lon="6.765163034160772"><ele>363.0</ele><time>2026-04-12T07:21:40Z</time></trkpt><trkpt lat="43.62239372087049" lon="6.7651987295142195"><ele>362.99999999999994</ele><time>2026-04-12T07:21:41Z</time></trkpt><trkpt lat="43.62245598267617" lon="6.765252005368117"><ele>363.0</ele><time>2026-04-12T07:21:42Z</time></trkpt><trkpt lat="43.62251113444655" lon="6.765313893477723"><ele>363.0</ele><time>2026-04-12T07:21:43Z</time></trkpt><trkpt lat="43.62256010573087" lon="6.765386581680595"><ele>363.0</ele><time>2026-04-12T07:21:44Z</time></trkpt><trkpt lat="43.62260616963763" lon="6.765459651217388"><ele>363.0</ele><time>2026-04-12T07:21:45Z</time></trkpt><trkpt lat="43.62265315332775" lon="6.765528538252429"><ele>362.99999999999994</ele><time>2026-04-12T07:21:46Z</time></trkpt><trkpt lat="43.62270129747886" lon="6.765598138575746"><ele>363.0</ele><time>2026-04-12T07:21:47Z</time></trkpt><trkpt lat="43.6227481259345" lon="6.765670252335868"><ele>362.99999999999994</ele><time>2026-04-12T07:21:48Z</time></trkpt><trkpt lat="43.62279993777653" lon="6.765735466556732"><ele>363.0</ele><time>2026-04-12T07:21:49Z</time></trkpt><trkpt lat="43.62285582489201" lon="6.765789925148854"><ele>363.0</ele><time>2026-04-12T07:21:50Z</time></trkpt><trkpt lat="43.62291353135162" lon="6.765837149723332"><ele>363.0</ele><time>2026-04-12T07:21:51Z</time></trkpt><trkpt lat="43.62297552762714" lon="6.765876072561315"><ele>363.0</ele><time>2026-04-12T07:21:52Z</time></trkpt><trkpt lat="43.623039670144756" lon="6.765909473715604"><ele>362.99999999999994</ele><time>2026-04-12T07:21:53Z</time></trkpt><trkpt lat="43.62310453590316" lon="6.765938812628105"><ele>363.0</ele><time>2026-04-12T07:21:54Z</time></trkpt><trkpt lat="43.623171208465465" lon="6.765963274819555"><ele>363.1428571428571</ele><time>2026-04-12T07:21:55Z</time></trkpt><trkpt lat="43.62323710576415" lon="6.765988602580839"><ele>363.2857142857143</ele><time>2026-04-12T07:21:56Z</time></trkpt><trkpt lat="43.62330232514348" lon="6.766022017675227"><ele>363.42857142857144</ele><time>2026-04-12T07:21:57Z</time></trkpt><trkpt lat="43.623366744809275" lon="6.76605554740661"><ele>363.57142857142856</ele><time>2026-04-12T07:21:58Z</time></trkpt><trkpt lat="43.623434693661636" lon="6.766095206986564"><ele>363.7142857142857</ele><time>2026-04-12T07:21:59Z</time></trkpt><trkpt lat="43.623495158929565" lon="6.766139550099969"><ele>363.85714285714283</ele><time>2026-04-12T07:22:00Z</time></trkpt><trkpt lat="43.623554813899915" lon="6.766194649042092"><ele>364.0</ele><time>2026-04-12T07:22:01Z</time></trkpt><trkpt lat="43.62360895029389" lon="6.766256976088432"><ele>361.2857142857143</ele><time>2026-04-12T07:22:02Z</time></trkpt><trkpt lat="43.62366135884733" lon="6.766322945075468"><ele>358.57142857142856</ele><time>2026-04-12T07:22:03Z</time></trkpt><trkpt lat="43.623711683598316" lon="6.766388596018885"><ele>355.8571428571429</ele><time>2026-04-12T07:22:04Z</time></trkpt><trkpt lat="43.62376105297591" lon="6.76645290521388"><ele>353.1428571428571</ele><time>2026-04-12T07:22:05Z</time></trkpt><trkpt lat="43.623806536441" lon="6.766524502099503"><ele>350.42857142857144</ele><time>2026-04-12T07:22:06Z</time></trkpt><trkpt lat="43.623845643353015" lon="6.766608150472101"><ele>347.7142857142857</ele><time>2026-04-12T07:22:07Z</time></trkpt><trkpt lat="43.62388105719863" lon="6.766691433242473"><ele>345.0</ele><time>2026-04-12T07:22:08Z</time></trkpt><trkpt lat="43.62390755757594" lon="6.76678176282973"><ele>345.7142857142857</ele><time>2026-04-12T07:22:09Z</time></trkpt><trkpt lat="43.623925595615425" lon="6.7668744677031825"><ele>346.42857142857144</ele><time>2026-04-12T07:22:10Z</time></trkpt><trkpt lat="43.623938036136984" lon="6.766967733568932"><ele>347.1428571428571</ele><time>2026-04-12T07:22:11Z</time></trkpt><trkpt lat="43.62394199790084" lon="6.767060917733142"><ele>347.8571428571429</ele><time>2026-04-12T07:22:12Z</time></trkpt><trkpt lat="43.62394702394645" lon="6.767155488654115"><ele>348.57142857142856</ele><time>2026-04-12T07:22:13Z</time></trkpt><trkpt lat="43.62395167318861" lon="6.767247317538541"><ele>349.2857142857143</ele><time>2026-04-12T07:22:14Z</time></trkpt><trkpt lat="43.62395402212745" lon="6.7673407021438665"><ele>350.0</ele><time>2026-04-12T07:22:15Z</time></trkpt><trkpt lat="43.62395517912915" lon="6.767432445640524"><ele>350.0</ele><time>2026-04-12T07:22:16Z</time></trkpt><trkpt lat="43.62395813609194" lon="6.767523713567342"><ele>350.0</ele><time>2026-04-12T07:22:17Z</time></trkpt><trkpt lat="43.623968696827255" lon="6.767613451754717"><ele>350.0</ele><time>2026-04-12T07:22:18Z</time></trkpt><trkpt lat="43.62398722239233" lon="6.76770274265922"><ele>350.0</ele><time>2026-04-12T07:22:19Z</time></trkpt><trkpt lat="43.624010789673584" lon="6.767789516816738"><ele>350.0</ele><time>2026-04-12T07:22:20Z</time></trkpt><trkpt lat="43.62404944770533" lon="6.767865703364208"><ele>350.0</ele><time>2026-04-12T07:22:21Z</time></trkpt><trkpt lat="43.62410822632575" lon="6.767917230166654"><ele>350.0</ele><time>2026-04-12T07:22:22Z</time></trkpt><trkpt lat="43.62417649821236" lon="6.767933992069376"><ele>352.6</ele><time>2026-04-12T07:22:23Z</time></trkpt><trkpt lat="43.6242448280374" lon="6.76791910538235"><ele>355.2</ele><time>2026-04-12T07:22:24Z</time></trkpt><trkpt lat="43.6243588751991" lon="6.767864681208099"><ele>357.79999999999995</ele><time>2026-04-12T07:22:26Z</time></trkpt><trkpt lat="43.62446071976253" lon="6.767815081475335"><ele>360.4</ele><time>2026-04-12T07:22:28Z</time></trkpt><trkpt lat="43.624552132758524" lon="6.767766598123226"><ele>363.0</ele><time>2026-04-12T07:22:30Z</time></trkpt><trkpt lat="43.624637879498756" lon="6.767718571713695"><ele>362.1666666666667</ele><time>2026-04-12T07:22:32Z</time></trkpt><trkpt lat="43.62471312107248" lon="6.7676976751362625"><ele>361.3333333333333</ele><time>2026-04-12T07:22:34Z</time></trkpt><trkpt lat="43.62480123354566" lon="6.767639674778342"><ele>360.5</ele><time>2026-04-12T07:22:36Z</time></trkpt><trkpt lat="43.62487596672432" lon="6.7675901547549655"><ele>359.66666666666663</ele><time>2026-04-12T07:22:38Z</time></trkpt><trkpt lat="43.6249428278541" lon="6.7675250399993"><ele>358.8333333333333</ele><time>2026-04-12T07:22:40Z</time></trkpt><trkpt lat="43.62500170519914" lon="6.76744553658443"><ele>358.0</ele><time>2026-04-12T07:22:42Z</time></trkpt><trkpt lat="43.625052926765356" lon="6.767353357239084"><ele>358.0</ele><time>2026-04-12T07:22:44Z</time></trkpt><trkpt lat="43.62509298466629" lon="6.767250542657129"><ele>358.0</ele><time>2026-04-12T07:22:46Z</time></trkpt><trkpt lat="43.625126545862045" lon="6.7671504734794965"><ele>358.0</ele><time>2026-04-12T07:22:48Z</time></trkpt><trkpt lat="43.6251458385931" lon="6.767044843038254"><ele>358.0</ele><time>2026-04-12T07:22:50Z</time></trkpt><trkpt lat="43.62515130205748" lon="6.766937352013866"><ele>358.0</ele><time>2026-04-12T07:22:52Z</time></trkpt><trkpt lat="43.6251411759103" lon="6.766828624236361"><ele>358.0</ele><time>2026-04-12T07:22:54Z</time></trkpt><trkpt lat="43.62513572672453" lon="6.766721267989816"><ele>357.16666666666663</ele><time>2026-04-12T07:22:56Z</time></trkpt><trkpt lat="43.62513168684213" lon="6.766611962949659"><ele>356.3333333333333</ele><time>2026-04-12T07:22:58Z</time></trkpt><trkpt lat="43.62511541425191" lon="6.766508516108167"><ele>355.5</ele><time>2026-04-12T07:23:00Z</time></trkpt><trkpt lat="43.62508800585592" lon="6.766403956431967"><ele>354.6666666666667</ele><time>2026-04-12T07:23:02Z</time></trkpt><trkpt lat="43.62505418936769" lon="6.766298476333465"><ele>353.83333333333337</ele><time>2026-04-12T07:23:04Z</time></trkpt><trkpt lat="43.62502215115108" lon="6.766185431708079"><ele>353.0</ele><time>2026-04-12T07:23:06Z</time></trkpt><trkpt lat="43.62499631155246" lon="6.766058312941708"><ele>353.4</ele><time>2026-04-12T07:23:08Z</time></trkpt><trkpt lat="43.62498746006853" lon="6.765921262047766"><ele>353.79999999999995</ele><time>2026-04-12T07:23:10Z</time></trkpt><trkpt lat="43.62499272783224" lon="6.765771653687245"><ele>354.2</ele><time>2026-04-12T07:23:12Z</time></trkpt><trkpt lat="43.624990439355834" lon="6.76561461132387"><ele>354.6</ele><time>2026-04-12T07:23:14Z</time></trkpt><trkpt lat="43.62495213298947" lon="6.765467656652273"><ele>355.0</ele><time>2026-04-12T07:23:16Z</time></trkpt><trkpt lat="43.62492770943314" lon="6.765323618895874"><ele>355.2</ele><time>2026-04-12T07:23:18Z</time></trkpt><trkpt lat="43.624908992302665" lon="6.765176906457971"><ele>355.4</ele><time>2026-04-12T07:23:20Z</time></trkpt><trkpt lat="43.62491796363925" lon="6.765033343752167"><ele>355.6</ele><time>2026-04-12T07:23:22Z</time></trkpt><trkpt lat="43.62491633325335" lon="6.764878426224549"><ele>355.8</ele><time>2026-04-12T07:23:24Z</time></trkpt><trkpt lat="43.624938247354855" lon="6.764722446159503"><ele>356.0</ele><time>2026-04-12T07:23:26Z</time></trkpt><trkpt lat="43.62495218129103" lon="6.764561505937616"><ele>356.0</ele><time>2026-04-12T07:23:28Z</time></trkpt><trkpt lat="43.62497069350646" lon="6.764400521735767"><ele>356.0</ele><time>2026-04-12T07:23:30Z</time></trkpt><trkpt lat="43.62500252104897" lon="6.764251737849874"><ele>356.0</ele><time>2026-04-12T07:23:32Z</time></trkpt><trkpt lat="43.62501308314786" lon="6.764156898028446"><ele>356.0</ele><time>2026-04-12T07:23:33Z</time></trkpt><trkpt lat="43.625039792334704" lon="6.763992114097822"><ele>356.0</ele><time>2026-04-12T07:23:35Z</time></trkpt><trkpt lat="43.62505672909935" lon="6.763905849592718"><ele>355.57142857142856</ele><time>2026-04-12T07:23:36Z</time></trkpt><trkpt lat="43.625071338552324" lon="6.76381743690789"><ele>355.1428571428571</ele><time>2026-04-12T07:23:37Z</time></trkpt><trkpt lat="43.6250964574242" lon="6.7637345557545565"><ele>354.71428571428567</ele><time>2026-04-12T07:23:38Z</time></trkpt><trkpt lat="43.625126698378196" lon="6.763652055458939"><ele>354.2857142857143</ele><time>2026-04-12T07:23:39Z</time></trkpt><trkpt lat="43.62516168628773" lon="6.763571850359734"><ele>353.8571428571429</ele><time>2026-04-12T07:23:40Z</time></trkpt><trkpt lat="43.62519811576653" lon="6.763497773622095"><ele>353.4285714285714</ele><time>2026-04-12T07:23:41Z</time></trkpt><trkpt lat="43.62523716481529" lon="6.763424983544646"><ele>353.0</ele><time>2026-04-12T07:23:42Z</time></trkpt><trkpt lat="43.6252747435482" lon="6.763353340001394"><ele>351.7142857142857</ele><time>2026-04-12T07:23:43Z</time></trkpt><trkpt lat="43.6253106644929" lon="6.76328164947401"><ele>350.42857142857144</ele><time>2026-04-12T07:23:44Z</time></trkpt><trkpt lat="43.625354454856065" lon="6.763218051809446"><ele>349.14285714285717</ele><time>2026-04-12T07:23:45Z</time></trkpt><trkpt lat="43.625406081872526" lon="6.763161262012483"><ele>347.8571428571429</ele><time>2026-04-12T07:23:46Z</time></trkpt><trkpt lat="43.6254570511165" lon="6.763106021760317"><ele>346.57142857142856</ele><time>2026-04-12T07:23:47Z</time></trkpt><trkpt lat="43.62550826822057" lon="6.76305322883829"><ele>345.28571428571433</ele><time>2026-04-12T07:23:48Z</time></trkpt><trkpt lat="43.625609197184374" lon="6.762952844111185"><ele>344.0</ele><time>2026-04-12T07:23:50Z</time></trkpt><trkpt lat="43.625706896112064" lon="6.762850886290318"><ele>345.5</ele><time>2026-04-12T07:23:52Z</time></trkpt><trkpt lat="43.62580199928561" lon="6.762745551575415"><ele>347.0</ele><time>2026-04-12T07:23:54Z</time></trkpt><trkpt lat="43.62590015141291" lon="6.762647430242976"><ele>348.5</ele><time>2026-04-12T07:23:56Z</time></trkpt><trkpt lat="43.62599100299243" lon="6.762539454070875"><ele>350.0</ele><time>2026-04-12T07:23:58Z</time></trkpt><trkpt lat="43.626072783282346" lon="6.7624136735364555"><ele>350.0</ele><time>2026-04-12T07:24:00Z</time></trkpt><trkpt lat="43.62614123728702" lon="6.7622699430076265"><ele>350.0</ele><time>2026-04-12T07:24:02Z</time></trkpt><trkpt lat="43.62619860379003" lon="6.762120316385742"><ele>350.0</ele><time>2026-04-12T07:24:04Z</time></trkpt><trkpt lat="43.62624976294513" lon="6.761966599890885"><ele>350.0</ele><time>2026-04-12T07:24:06Z</time></trkpt><trkpt lat="43.62630403412975" lon="6.761814918463551"><ele>352.5</ele><time>2026-04-12T07:24:08Z</time></trkpt><trkpt lat="43.626359848711395" lon="6.761667700843486"><ele>355.0</ele><time>2026-04-12T07:24:10Z</time></trkpt><trkpt lat="43.62643052624691" lon="6.761537721248281"><ele>357.5</ele><time>2026-04-12T07:24:12Z</time></trkpt><trkpt lat="43.62651552271837" lon="6.761427872939256"><ele>360.0</ele><time>2026-04-12T07:24:14Z</time></trkpt><trkpt lat="43.62660607189747" lon="6.761330427257059"><ele>360.0</ele><time>2026-04-12T07:24:16Z</time></trkpt><trkpt lat="43.62671025636309" lon="6.761265814919852"><ele>360.0</ele><time>2026-04-12T07:24:18Z</time></trkpt><trkpt lat="43.62681780758618" lon="6.761220571397541"><ele>360.0</ele><time>2026-04-12T07:24:20Z</time></trkpt><trkpt lat="43.62692018768958" lon="6.761174158289744"><ele>360.0</ele><time>2026-04-12T07:24:22Z</time></trkpt><trkpt lat="43.62701101430087" lon="6.76113795054968"><ele>360.0</ele><time>2026-04-12T07:24:24Z</time></trkpt><trkpt lat="43.62708959672313" lon="6.761163434489687"><ele>362.1428571428571</ele><time>2026-04-12T07:24:26Z</time></trkpt><trkpt lat="43.627144248016286" lon="6.761206664548116"><ele>364.28571428571433</ele><time>2026-04-12T07:24:28Z</time></trkpt><trkpt lat="43.627206240548254" lon="6.761254943121921"><ele>366.42857142857144</ele><time>2026-04-12T07:24:32Z</time></trkpt><trkpt lat="43.627282150515974" lon="6.761274079011441"><ele>368.57142857142856</ele><time>2026-04-12T07:24:37Z</time></trkpt><trkpt lat="43.627346880377736" lon="6.7613182590660506"><ele>370.71428571428567</ele><time>2026-04-12T07:24:42Z</time></trkpt><trkpt lat="43.62742377857249" lon="6.761362557744878"><ele>372.8571428571429</ele><time>2026-04-12T07:24:47Z</time></trkpt><trkpt lat="43.62749795560725" lon="6.761386133065073"><ele>375.0</ele><time>2026-04-12T07:24:52Z</time></trkpt><trkpt lat="43.62758008683842" lon="6.761411696776605"><ele>375.0</ele><time>2026-04-12T07:24:57Z</time></trkpt><trkpt lat="43.627646345473146" lon="6.761435594710345"><ele>375.0</ele><time>2026-04-12T07:25:01Z</time></trkpt><trkpt lat="43.62770924159311" lon="6.761463623177004"><ele>375.0</ele><time>2026-04-12T07:25:04Z</time></trkpt><trkpt lat="43.627791256637586" lon="6.7614554495734485"><ele>375.0</ele><time>2026-04-12T07:25:09Z</time></trkpt><trkpt lat="43.627862820630774" lon="6.761447384398184"><ele>375.0</ele><time>2026-04-12T07:25:13Z</time></trkpt><trkpt lat="43.62792902072701" lon="6.761445178860045"><ele>375.0</ele><time>2026-04-12T07:25:17Z</time></trkpt><trkpt lat="43.62799276269191" lon="6.761436756944951"><ele>375.0</ele><time>2026-04-12T07:25:20Z</time></trkpt><trkpt lat="43.628073303154615" lon="6.7614515730854805"><ele>377.0</ele><time>2026-04-12T07:25:25Z</time></trkpt><trkpt lat="43.628139336171934" lon="6.761478808510906"><ele>379.0</ele><time>2026-04-12T07:25:29Z</time></trkpt><trkpt lat="43.62822154462213" lon="6.761511619521022"><ele>381.0</ele><time>2026-04-12T07:25:34Z</time></trkpt><trkpt lat="43.62829777911024" lon="6.761538318168917"><ele>383.0</ele><time>2026-04-12T07:25:39Z</time></trkpt><trkpt lat="43.628367581873924" lon="6.761571560275297"><ele>385.0</ele><time>2026-04-12T07:25:43Z</time></trkpt><trkpt lat="43.62843769300641" lon="6.761585961563692"><ele>387.0</ele><time>2026-04-12T07:25:47Z</time></trkpt><trkpt lat="43.628510268693745" lon="6.761604442469426"><ele>387.0</ele><time>2026-04-12T07:25:52Z</time></trkpt><trkpt lat="43.62857996238298" lon="6.761618411284253"><ele>387.0</ele><time>2026-04-12T07:25:56Z</time></trkpt><trkpt lat="43.62864631594793" lon="6.7616246012621914"><ele>387.0</ele><time>2026-04-12T07:26:00Z</time></trkpt><trkpt lat="43.6287179107515" lon="6.761627070561259"><ele>387.0</ele><time>2026-04-12T07:26:04Z</time></trkpt><trkpt lat="43.62879748885406" lon="6.761638971352086"><ele>387.0</ele><time>2026-04-12T07:26:09Z</time></trkpt><trkpt lat="43.62887980342933" lon="6.761645310869542"><ele>387.0</ele><time>2026-04-12T07:26:14Z</time></trkpt><trkpt lat="43.62895894720138" lon="6.761642462789105"><ele>387.6666666666667</ele><time>2026-04-12T07:26:19Z</time></trkpt><trkpt lat="43.62904077891419" lon="6.761651410428171"><ele>388.33333333333337</ele><time>2026-04-12T07:26:24Z</time></trkpt><trkpt lat="43.629113567202225" lon="6.761660577450225"><ele>389.0</ele><time>2026-04-12T07:26:29Z</time></trkpt><trkpt lat="43.62919082716601" lon="6.761679147455859"><ele>389.6666666666667</ele><time>2026-04-12T07:26:33Z</time></trkpt><trkpt lat="43.6292622014112" lon="6.761685180992712"><ele>390.33333333333337</ele><time>2026-04-12T07:26:36Z</time></trkpt><trkpt lat="43.62934457879156" lon="6.761671558089867"><ele>391.0</ele><time>2026-04-12T07:26:39Z</time></trkpt><trkpt lat="43.62941227369017" lon="6.7616348093913405"><ele>391.00000000000006</ele><time>2026-04-12T07:26:41Z</time></trkpt><trkpt lat="43.62947255812081" lon="6.761541736624107"><ele>391.0</ele><time>2026-04-12T07:26:44Z</time></trkpt><trkpt lat="43.62950824187541" lon="6.76145870638323"><ele>391.0</ele><time>2026-04-12T07:26:46Z</time></trkpt><trkpt lat="43.62954173323302" lon="6.761372671673131"><ele>391.0</ele><time>2026-04-12T07:26:48Z</time></trkpt><trkpt lat="43.62958075903418" lon="6.761266731144882"><ele>391.00000000000006</ele><time>2026-04-12T07:26:50Z</time></trkpt><trkpt lat="43.62960337261438" lon="6.761147718942249"><ele>391.0</ele><time>2026-04-12T07:26:52Z</time></trkpt><trkpt lat="43.629622852539335" lon="6.7610581077768055"><ele>391.0</ele><time>2026-04-12T07:26:54Z</time></trkpt><trkpt lat="43.6296559994825" lon="6.760929778565011"><ele>391.0</ele><time>2026-04-12T07:26:56Z</time></trkpt><trkpt lat="43.62967289907863" lon="6.76080911446738"><ele>391.0</ele><time>2026-04-12T07:26:58Z</time></trkpt><trkpt lat="43.629691964029085" lon="6.760689994378367"><ele>391.0</ele><time>2026-04-12T07:27:00Z</time></trkpt><trkpt lat="43.62970918555308" lon="6.760567051352051"><ele>391.0</ele><time>2026-04-12T07:27:02Z</time></trkpt><trkpt lat="43.629728207360465" lon="6.760447069226131"><ele>391.00000000000006</ele><time>2026-04-12T07:27:04Z</time></trkpt><trkpt lat="43.62974745823402" lon="6.760329768505833"><ele>391.0</ele><time>2026-04-12T07:27:06Z</time></trkpt><trkpt lat="43.62976712891291" lon="6.760214154508439"><ele>391.0</ele><time>2026-04-12T07:27:08Z</time></trkpt><trkpt lat="43.62978972850111" lon="6.760099329456896"><ele>391.0</ele><time>2026-04-12T07:27:10Z</time></trkpt><trkpt lat="43.62980968229197" lon="6.7599896400486035"><ele>391.00000000000006</ele><time>2026-04-12T07:27:12Z</time></trkpt><trkpt lat="43.62981613139071" lon="6.7598856262388685"><ele>391.0</ele><time>2026-04-12T07:27:14Z</time></trkpt><trkpt lat="43.629835879223734" lon="6.759786868822611"><ele>390.83333333333337</ele><time>2026-04-12T07:27:16Z</time></trkpt><trkpt lat="43.62984853726202" lon="6.759679830186779"><ele>390.6666666666667</ele><time>2026-04-12T07:27:18Z</time></trkpt><trkpt lat="43.62986688129917" lon="6.7595715393537015"><ele>390.5</ele><time>2026-04-12T07:27:20Z</time></trkpt><trkpt lat="43.629887204494175" lon="6.759463489208634"><ele>390.33333333333337</ele><time>2026-04-12T07:27:22Z</time></trkpt><trkpt lat="43.6299054934865" lon="6.759342636338159"><ele>390.1666666666667</ele><time>2026-04-12T07:27:24Z</time></trkpt><trkpt lat="43.62992449267697" lon="6.759222038048052"><ele>390.0</ele><time>2026-04-12T07:27:26Z</time></trkpt><trkpt lat="43.62993618775265" lon="6.759102661679347"><ele>390.3333333333333</ele><time>2026-04-12T07:27:28Z</time></trkpt><trkpt lat="43.62995289843022" lon="6.7589814824880765"><ele>390.66666666666663</ele><time>2026-04-12T07:27:30Z</time></trkpt><trkpt lat="43.629957067195974" lon="6.758871882679623"><ele>391.0</ele><time>2026-04-12T07:27:32Z</time></trkpt><trkpt lat="43.63000916133262" lon="6.7587826049699515"><ele>391.3333333333333</ele><time>2026-04-12T07:27:35Z</time></trkpt><trkpt lat="43.63008495048012" lon="6.758813115352736"><ele>391.66666666666663</ele><time>2026-04-12T07:27:37Z</time></trkpt><trkpt lat="43.63015882526205" lon="6.758901855425626"><ele>392.0</ele><time>2026-04-12T07:27:39Z</time></trkpt><trkpt lat="43.63025084232119" lon="6.7589789610007704"><ele>391.99999999999994</ele><time>2026-04-12T07:27:41Z</time></trkpt><trkpt lat="43.63035227020539" lon="6.759060875750978"><ele>392.0</ele><time>2026-04-12T07:27:43Z</time></trkpt><trkpt lat="43.63046128334084" lon="6.759151394384865"><ele>392.0</ele><time>2026-04-12T07:27:45Z</time></trkpt><trkpt lat="43.630515662631716" lon="6.759199850214929"><ele>392.0</ele><time>2026-04-12T07:27:46Z</time></trkpt><trkpt lat="43.63056971827892" lon="6.759249466234612"><ele>391.99999999999994</ele><time>2026-04-12T07:27:47Z</time></trkpt><trkpt lat="43.63062540228158" lon="6.759299083803375"><ele>392.0</ele><time>2026-04-12T07:27:48Z</time></trkpt><trkpt lat="43.63068017607539" lon="6.7593502456139"><ele>391.7142857142857</ele><time>2026-04-12T07:27:49Z</time></trkpt><trkpt lat="43.63073606858209" lon="6.759399813164706"><ele>391.42857142857144</ele><time>2026-04-12T07:27:50Z</time></trkpt><trkpt lat="43.630793436591944" lon="6.759450569153254"><ele>391.1428571428571</ele><time>2026-04-12T07:27:51Z</time></trkpt><trkpt lat="43.630846847386366" lon="6.759502584362709"><ele>390.8571428571429</ele><time>2026-04-12T07:27:52Z</time></trkpt><trkpt lat="43.63090370157228" lon="6.75955638654901"><ele>390.57142857142856</ele><time>2026-04-12T07:27:53Z</time></trkpt><trkpt lat="43.63096243528475" lon="6.759603313627477"><ele>390.2857142857143</ele><time>2026-04-12T07:27:54Z</time></trkpt><trkpt lat="43.63101785491413" lon="6.7596577322256"><ele>390.0</ele><time>2026-04-12T07:27:55Z</time></trkpt><trkpt lat="43.63107068925126" lon="6.75971197493902"><ele>390.0</ele><time>2026-04-12T07:27:56Z</time></trkpt><trkpt lat="43.631126915847695" lon="6.75976569271404"><ele>390.0</ele><time>2026-04-12T07:27:57Z</time></trkpt><trkpt lat="43.63118025338215" lon="6.7598186630549195"><ele>390.0</ele><time>2026-04-12T07:27:58Z</time></trkpt><trkpt lat="43.63123862041366" lon="6.7598673992870415"><ele>390.0</ele><time>2026-04-12T07:27:59Z</time></trkpt><trkpt lat="43.63129257483579" lon="6.759921218985779"><ele>390.0</ele><time>2026-04-12T07:28:00Z</time></trkpt><trkpt lat="43.631346878516744" lon="6.759969744509102"><ele>390.0</ele><time>2026-04-12T07:28:01Z</time></trkpt><trkpt lat="43.63140730003778" lon="6.760017156910164"><ele>390.0</ele><time>2026-04-12T07:28:02Z</time></trkpt><trkpt lat="43.63146561326395" lon="6.760063514933135"><ele>390.2857142857143</ele><time>2026-04-12T07:28:03Z</time></trkpt><trkpt lat="43.631525041342684" lon="6.760107173587045"><ele>390.57142857142856</ele><time>2026-04-12T07:28:04Z</time></trkpt><trkpt lat="43.63158364916759" lon="6.760153465144599"><ele>390.8571428571429</ele><time>2026-04-12T07:28:05Z</time></trkpt><trkpt lat="43.63164313017535" lon="6.760198469183544"><ele>391.1428571428571</ele><time>2026-04-12T07:28:06Z</time></trkpt><trkpt lat="43.63170468207168" lon="6.760239747958501"><ele>391.42857142857144</ele><time>2026-04-12T07:28:07Z</time></trkpt><trkpt lat="43.63176711345092" lon="6.760281390099195"><ele>391.7142857142857</ele><time>2026-04-12T07:28:08Z</time></trkpt><trkpt lat="43.63183068402866" lon="6.760320545729663"><ele>392.0</ele><time>2026-04-12T07:28:09Z</time></trkpt><trkpt lat="43.63189720849037" lon="6.760359991142725"><ele>391.57142857142856</ele><time>2026-04-12T07:28:10Z</time></trkpt><trkpt lat="43.63196001223076" lon="6.76040083021623"><ele>391.1428571428571</ele><time>2026-04-12T07:28:11Z</time></trkpt><trkpt lat="43.6320236319176" lon="6.760441480979067"><ele>390.7142857142857</ele><time>2026-04-12T07:28:12Z</time></trkpt><trkpt lat="43.63208827619243" lon="6.760482431242289"><ele>390.2857142857143</ele><time>2026-04-12T07:28:13Z</time></trkpt><trkpt lat="43.632152044663634" lon="6.76052103930549"><ele>389.85714285714283</ele><time>2026-04-12T07:28:14Z</time></trkpt><trkpt lat="43.63221214318655" lon="6.760562040375269"><ele>389.42857142857144</ele><time>2026-04-12T07:28:15Z</time></trkpt><trkpt lat="43.6322734747439" lon="6.760602012207"><ele>389.0</ele><time>2026-04-12T07:28:16Z</time></trkpt><trkpt lat="43.63233561797133" lon="6.760640668647244"><ele>389.0</ele><time>2026-04-12T07:28:17Z</time></trkpt><trkpt lat="43.63239740611342" lon="6.760679810811952"><ele>389.0</ele><time>2026-04-12T07:28:18Z</time></trkpt><trkpt lat="43.632459072286395" lon="6.760722177042806"><ele>389.0</ele><time>2026-04-12T07:28:19Z</time></trkpt><trkpt lat="43.632522984315216" lon="6.760760566117479"><ele>389.0</ele><time>2026-04-12T07:28:20Z</time></trkpt><trkpt lat="43.632586143140614" lon="6.760802243948224"><ele>389.0</ele><time>2026-04-12T07:28:21Z</time></trkpt><trkpt lat="43.632648140176364" lon="6.760844381460953"><ele>389.0</ele><time>2026-04-12T07:28:22Z</time></trkpt><trkpt lat="43.632712295709176" lon="6.7608865458196155"><ele>389.0</ele><time>2026-04-12T07:28:23Z</time></trkpt><trkpt lat="43.63277416561874" lon="6.760926494065169"><ele>389.14285714285717</ele><time>2026-04-12T07:28:24Z</time></trkpt><trkpt lat="43.632835476552806" lon="6.760969913549485"><ele>389.2857142857143</ele><time>2026-04-12T07:28:25Z</time></trkpt><trkpt lat="43.63289527163611" lon="6.761014904530389"><ele>389.42857142857144</ele><time>2026-04-12T07:28:26Z</time></trkpt><trkpt lat="43.63295566625609" lon="6.761061109635974"><ele>389.57142857142856</ele><time>2026-04-12T07:28:27Z</time></trkpt><trkpt lat="43.633012615008994" lon="6.761114530043166"><ele>389.71428571428567</ele><time>2026-04-12T07:28:28Z</time></trkpt><trkpt lat="43.63306470327285" lon="6.761173388556416"><ele>389.85714285714283</ele><time>2026-04-12T07:28:29Z</time></trkpt><trkpt lat="43.633116803202384" lon="6.7612334103874465"><ele>390.0</ele><time>2026-04-12T07:28:30Z</time></trkpt><trkpt lat="43.6331679797544" lon="6.76129132068535"><ele>390.3333333333333</ele><time>2026-04-12T07:28:31Z</time></trkpt><trkpt lat="43.63322251699188" lon="6.761346747635454"><ele>390.66666666666663</ele><time>2026-04-12T07:28:32Z</time></trkpt><trkpt lat="43.633280149366605" lon="6.761392812554843"><ele>391.0</ele><time>2026-04-12T07:28:33Z</time></trkpt><trkpt lat="43.633339066326634" lon="6.761430881414004"><ele>391.3333333333333</ele><time>2026-04-12T07:28:34Z</time></trkpt><trkpt lat="43.63339747021362" lon="6.761466115057469"><ele>391.66666666666663</ele><time>2026-04-12T07:28:35Z</time></trkpt><trkpt lat="43.63345814343615" lon="6.761495020686752"><ele>392.0</ele><time>2026-04-12T07:28:36Z</time></trkpt><trkpt lat="43.633580926320185" lon="6.76152709338375"><ele>391.75</ele><time>2026-04-12T07:28:38Z</time></trkpt><trkpt lat="43.633696670453894" lon="6.761558575846359"><ele>391.5</ele><time>2026-04-12T07:28:40Z</time></trkpt><trkpt lat="43.63380644906481" lon="6.761625015401124"><ele>391.25</ele><time>2026-04-12T07:28:42Z</time></trkpt><trkpt lat="43.63390121712436" lon="6.761709268614004"><ele>391.0</ele><time>2026-04-12T07:28:44Z</time></trkpt><trkpt lat="43.634001979713474" lon="6.761795888576986"><ele>391.8</ele><time>2026-04-12T07:28:46Z</time></trkpt><trkpt lat="43.6341084784877" lon="6.761881282219902"><ele>392.6</ele><time>2026-04-12T07:28:48Z</time></trkpt><trkpt lat="43.63422056318692" lon="6.761966897258327"><ele>393.4</ele><time>2026-04-12T07:28:50Z</time></trkpt><trkpt lat="43.63428228082643" lon="6.762002216931986"><ele>394.2</ele><time>2026-04-12T07:28:51Z</time></trkpt><trkpt lat="43.634343900150846" lon="6.762038437952548"><ele>395.0</ele><time>2026-04-12T07:28:52Z</time></trkpt><trkpt lat="43.634405094013324" lon="6.7620726154086555"><ele>395.0</ele><time>2026-04-12T07:28:53Z</time></trkpt><trkpt lat="43.63446688567316" lon="6.762104620342344"><ele>395.0</ele><time>2026-04-12T07:28:54Z</time></trkpt><trkpt lat="43.63457966729438" lon="6.76215981043958"><ele>395.0</ele><time>2026-04-12T07:28:56Z</time></trkpt><trkpt lat="43.634639373729726" lon="6.762195852100957"><ele>395.0</ele><time>2026-04-12T07:28:57Z</time></trkpt><trkpt lat="43.63475482695807" lon="6.762248692487757"><ele>395.0</ele><time>2026-04-12T07:28:59Z</time></trkpt><trkpt lat="43.63485987461226" lon="6.762325402001571"><ele>394.6</ele><time>2026-04-12T07:29:01Z</time></trkpt><trkpt lat="43.63494812918426" lon="6.762432095877096"><ele>394.2</ele><time>2026-04-12T07:29:03Z</time></trkpt><trkpt lat="43.635019510709334" lon="6.762553771006791"><ele>393.79999999999995</ele><time>2026-04-12T07:29:05Z</time></trkpt><trkpt lat="43.635073092092455" lon="6.762692262207938"><ele>393.4</ele><time>2026-04-12T07:29:07Z</time></trkpt><trkpt lat="43.63511181824087" lon="6.7628265911652905"><ele>393.0</ele><time>2026-04-12T07:29:09Z</time></trkpt><trkpt lat="43.635147278657456" lon="6.7629567288883266"><ele>392.79999999999995</ele><time>2026-04-12T07:29:11Z</time></trkpt><trkpt lat="43.63519698708705" lon="6.763083096553066"><ele>392.6</ele><time>2026-04-12T07:29:13Z</time></trkpt><trkpt lat="43.63525521218335" lon="6.763199942048915"><ele>392.4</ele><time>2026-04-12T07:29:15Z</time></trkpt><trkpt lat="43.63531613604823" lon="6.763310906325347"><ele>392.20000000000005</ele><time>2026-04-12T07:29:17Z</time></trkpt><trkpt lat="43.63537719218869" lon="6.763418888322952"><ele>392.0</ele><time>2026-04-12T07:29:19Z</time></trkpt><trkpt lat="43.63543733806684" lon="6.763525657746101"><ele>392.40000000000003</ele><time>2026-04-12T07:29:21Z</time></trkpt><trkpt lat="43.635494756099725" lon="6.763633511623033"><ele>392.8</ele><time>2026-04-12T07:29:23Z</time></trkpt><trkpt lat="43.635558506301855" lon="6.763733272016281"><ele>393.2</ele><time>2026-04-12T07:29:25Z</time></trkpt><trkpt lat="43.63564109215199" lon="6.7638071714324175"><ele>393.6</ele><time>2026-04-12T07:29:27Z</time></trkpt><trkpt lat="43.63573471519518" lon="6.763854868174358"><ele>394.0</ele><time>2026-04-12T07:29:29Z</time></trkpt><trkpt lat="43.63583505429639" lon="6.7639025742419285"><ele>394.0</ele><time>2026-04-12T07:29:31Z</time></trkpt><trkpt lat="43.63595113818713" lon="6.763949627058962"><ele>394.0</ele><time>2026-04-12T07:29:33Z</time></trkpt><trkpt lat="43.636068311269085" lon="6.763994807135272"><ele>394.0</ele><time>2026-04-12T07:29:35Z</time></trkpt><trkpt lat="43.63617809531326" lon="6.764057273732509"><ele>394.0</ele><time>2026-04-12T07:29:37Z</time></trkpt><trkpt lat="43.63628082472478" lon="6.764126633520243"><ele>394.0</ele><time>2026-04-12T07:29:39Z</time></trkpt><trkpt lat="43.636378642194565" lon="6.764206448161481"><ele>394.0</ele><time>2026-04-12T07:29:41Z</time></trkpt><trkpt lat="43.63648304269929" lon="6.764276391009088"><ele>394.0</ele><time>2026-04-12T07:29:43Z</time></trkpt><trkpt lat="43.63659093216299" lon="6.764331635014772"><ele>394.0</ele><time>2026-04-12T07:29:45Z</time></trkpt><trkpt lat="43.636698767235195" lon="6.76437756912196"><ele>394.00000000000006</ele><time>2026-04-12T07:29:47Z</time></trkpt><trkpt lat="43.63680889872935" lon="6.764422248589607"><ele>394.0</ele><time>2026-04-12T07:29:49Z</time></trkpt><trkpt lat="43.636917720346254" lon="6.764490359181295"><ele>394.0</ele><time>2026-04-12T07:29:51Z</time></trkpt><trkpt lat="43.63697187710692" lon="6.764542887793452"><ele>394.0</ele><time>2026-04-12T07:29:52Z</time></trkpt><trkpt lat="43.637019545134045" lon="6.764609382081754"><ele>394.00000000000006</ele><time>2026-04-12T07:29:53Z</time></trkpt><trkpt lat="43.637061891690614" lon="6.764682647848029"><ele>394.0</ele><time>2026-04-12T07:29:54Z</time></trkpt><trkpt lat="43.63710560385094" lon="6.764760205332516"><ele>393.7142857142857</ele><time>2026-04-12T07:29:55Z</time></trkpt><trkpt lat="43.637147915351726" lon="6.764840859140534"><ele>393.42857142857144</ele><time>2026-04-12T07:29:56Z</time></trkpt><trkpt lat="43.63719348663887" lon="6.76491975429555"><ele>393.1428571428571</ele><time>2026-04-12T07:29:57Z</time></trkpt><trkpt lat="43.637238870563834" lon="6.76499895820079"><ele>392.8571428571429</ele><time>2026-04-12T07:29:58Z</time></trkpt><trkpt lat="43.637282464910186" lon="6.7650753106891885"><ele>392.57142857142856</ele><time>2026-04-12T07:29:59Z</time></trkpt><trkpt lat="43.6373281586729" lon="6.765146853878111"><ele>392.2857142857143</ele><time>2026-04-12T07:30:00Z</time></trkpt><trkpt lat="43.63737535372127" lon="6.7652142044947325"><ele>392.0</ele><time>2026-04-12T07:30:01Z</time></trkpt><trkpt lat="43.63742544131654" lon="6.765281131585232"><ele>391.7142857142857</ele><time>2026-04-12T07:30:02Z</time></trkpt><trkpt lat="43.63747732371416" lon="6.765334199448765"><ele>391.42857142857144</ele><time>2026-04-12T07:30:03Z</time></trkpt><trkpt lat="43.63753100091122" lon="6.7653894054959824"><ele>391.1428571428571</ele><time>2026-04-12T07:30:04Z</time></trkpt><trkpt lat="43.637581267160925" lon="6.765452725267584"><ele>390.8571428571429</ele><time>2026-04-12T07:30:05Z</time></trkpt><trkpt lat="43.63762521444116" lon="6.765518767255696"><ele>390.57142857142856</ele><time>2026-04-12T07:30:06Z</time></trkpt><trkpt lat="43.63767254436526" lon="6.765590487869133"><ele>390.2857142857143</ele><time>2026-04-12T07:30:07Z</time></trkpt><trkpt lat="43.63772499640507" lon="6.765665995093652"><ele>390.0</ele><time>2026-04-12T07:30:08Z</time></trkpt><trkpt lat="43.6377805889224" lon="6.76574412153564"><ele>389.6666666666667</ele><time>2026-04-12T07:30:09Z</time></trkpt><trkpt lat="43.63783598883861" lon="6.765822960825144"><ele>389.33333333333337</ele><time>2026-04-12T07:30:10Z</time></trkpt><trkpt lat="43.63789410675818" lon="6.765897755735633"><ele>389.0</ele><time>2026-04-12T07:30:11Z</time></trkpt><trkpt lat="43.637949260020335" lon="6.765974789540011"><ele>388.6666666666667</ele><time>2026-04-12T07:30:12Z</time></trkpt><trkpt lat="43.63800388910802" lon="6.766051183833578"><ele>388.33333333333337</ele><time>2026-04-12T07:30:13Z</time></trkpt><trkpt lat="43.63805757872171" lon="6.7661266888279865"><ele>388.0</ele><time>2026-04-12T07:30:14Z</time></trkpt><trkpt lat="43.63811305954" lon="6.766196787042821"><ele>388.00000000000006</ele><time>2026-04-12T07:30:15Z</time></trkpt><trkpt lat="43.63816869935807" lon="6.766269759055987"><ele>388.0</ele><time>2026-04-12T07:30:16Z</time></trkpt><trkpt lat="43.638227190800436" lon="6.766344240392261"><ele>388.0</ele><time>2026-04-12T07:30:17Z</time></trkpt><trkpt lat="43.6382852478128" lon="6.766423274728178"><ele>388.0</ele><time>2026-04-12T07:30:18Z</time></trkpt><trkpt lat="43.63834727676598" lon="6.766507805353777"><ele>388.00000000000006</ele><time>2026-04-12T07:30:19Z</time></trkpt><trkpt lat="43.63841171544896" lon="6.766589960275755"><ele>388.0</ele><time>2026-04-12T07:30:20Z</time></trkpt><trkpt lat="43.638477670477165" lon="6.766664032935201"><ele>388.00000000000006</ele><time>2026-04-12T07:30:21Z</time></trkpt><trkpt lat="43.63854799059942" lon="6.766721833151989"><ele>388.0</ele><time>2026-04-12T07:30:22Z</time></trkpt><trkpt lat="43.638618141592964" lon="6.766765161466963"><ele>388.0</ele><time>2026-04-12T07:30:23Z</time></trkpt><trkpt lat="43.63869215782991" lon="6.766800712347882"><ele>388.0</ele><time>2026-04-12T07:30:24Z</time></trkpt><trkpt lat="43.63876775936018" lon="6.7668305842936265"><ele>388.00000000000006</ele><time>2026-04-12T07:30:25Z</time></trkpt><trkpt lat="43.63884569776592" lon="6.7668568084631975"><ele>388.0</ele><time>2026-04-12T07:30:26Z</time></trkpt><trkpt lat="43.638921255938534" lon="6.766883241589009"><ele>388.33333333333337</ele><time>2026-04-12T07:30:27Z</time></trkpt><trkpt lat="43.63899648805938" lon="6.766917407516304"><ele>388.6666666666667</ele><time>2026-04-12T07:30:28Z</time></trkpt><trkpt lat="43.639071165331984" lon="6.766953215285926"><ele>389.0</ele><time>2026-04-12T07:30:29Z</time></trkpt><trkpt lat="43.639144101165705" lon="6.766984050798034"><ele>389.33333333333337</ele><time>2026-04-12T07:30:30Z</time></trkpt><trkpt lat="43.63921506628202" lon="6.767014450132668"><ele>389.6666666666667</ele><time>2026-04-12T07:30:31Z</time></trkpt><trkpt lat="43.6392866685275" lon="6.767038857801601"><ele>390.0</ele><time>2026-04-12T07:30:32Z</time></trkpt><trkpt lat="43.63935828315875" lon="6.767060683860164"><ele>390.0</ele><time>2026-04-12T07:30:33Z</time></trkpt><trkpt lat="43.63942884997128" lon="6.767082350738385"><ele>390.0</ele><time>2026-04-12T07:30:34Z</time></trkpt><trkpt lat="43.639496106713274" lon="6.767106421451291"><ele>390.0</ele><time>2026-04-12T07:30:35Z</time></trkpt><trkpt lat="43.63956062033195" lon="6.7671334649272445"><ele>390.0</ele><time>2026-04-12T07:30:36Z</time></trkpt><trkpt lat="43.63962123148657" lon="6.7671632835903175"><ele>390.0</ele><time>2026-04-12T07:30:37Z</time></trkpt><trkpt lat="43.63972653322497" lon="6.767233759400201"><ele>390.0</ele><time>2026-04-12T07:30:39Z</time></trkpt><trkpt lat="43.63982353124404" lon="6.767297996133258"><ele>390.0</ele><time>2026-04-12T07:30:41Z</time></trkpt><trkpt lat="43.63991860257383" lon="6.767352288183087"><ele>390.0</ele><time>2026-04-12T07:30:43Z</time></trkpt><trkpt lat="43.6400163104623" lon="6.7674087315164"><ele>390.0</ele><time>2026-04-12T07:30:45Z</time></trkpt><trkpt lat="43.64011872839016" lon="6.76744779222164"><ele>390.0</ele><time>2026-04-12T07:30:47Z</time></trkpt><trkpt lat="43.64022929878964" lon="6.767474791833446"><ele>390.0</ele><time>2026-04-12T07:30:49Z</time></trkpt><trkpt lat="43.64034465475695" lon="6.767507427131433"><ele>390.0</ele><time>2026-04-12T07:30:51Z</time></trkpt><trkpt lat="43.64045564172247" lon="6.767554595523207"><ele>390.0</ele><time>2026-04-12T07:30:53Z</time></trkpt><trkpt lat="43.64055836642088" lon="6.767618604731737"><ele>390.0</ele><time>2026-04-12T07:30:55Z</time></trkpt><trkpt lat="43.64064684104896" lon="6.767693292643605"><ele>390.0</ele><time>2026-04-12T07:30:57Z</time></trkpt><trkpt lat="43.640730394934245" lon="6.767783356092339"><ele>390.0</ele><time>2026-04-12T07:30:59Z</time></trkpt><trkpt lat="43.64081347312536" lon="6.767871087133861"><ele>390.8</ele><time>2026-04-12T07:31:01Z</time></trkpt><trkpt lat="43.64089447055112" lon="6.76795278282319"><ele>391.6</ele><time>2026-04-12T07:31:03Z</time></trkpt><trkpt lat="43.64096913716545" lon="6.768035451305542"><ele>392.4</ele><time>2026-04-12T07:31:05Z</time></trkpt><trkpt lat="43.64104295661171" lon="6.768119110105317"><ele>393.2</ele><time>2026-04-12T07:31:07Z</time></trkpt><trkpt lat="43.64110841478615" lon="6.768219218898491"><ele>394.0</ele><time>2026-04-12T07:31:09Z</time></trkpt><trkpt lat="43.64119403523898" lon="6.768306045384665"><ele>394.0</ele><time>2026-04-12T07:31:11Z</time></trkpt><trkpt lat="43.641270634460014" lon="6.768398745000437"><ele>394.0</ele><time>2026-04-12T07:31:13Z</time></trkpt><trkpt lat="43.64136879565545" lon="6.768537288506255"><ele>394.0</ele><time>2026-04-12T07:31:16Z</time></trkpt><trkpt lat="43.641425041821726" lon="6.768606055166858"><ele>394.0</ele><time>2026-04-12T07:31:17Z</time></trkpt><trkpt lat="43.641502990803154" lon="6.76869941026709"><ele>394.0</ele><time>2026-04-12T07:31:19Z</time></trkpt><trkpt lat="43.6415870281805" lon="6.768800860226842"><ele>394.25</ele><time>2026-04-12T07:31:21Z</time></trkpt><trkpt lat="43.64167671385593" lon="6.768898483994057"><ele>394.5</ele><time>2026-04-12T07:31:23Z</time></trkpt><trkpt lat="43.64175342740595" lon="6.769007788955531"><ele>394.75</ele><time>2026-04-12T07:31:25Z</time></trkpt><trkpt lat="43.641849822164396" lon="6.769099372563705"><ele>395.0</ele><time>2026-04-12T07:31:27Z</time></trkpt><trkpt lat="43.64195835132107" lon="6.769162729113728"><ele>394.4</ele><time>2026-04-12T07:31:29Z</time></trkpt><trkpt lat="43.64208471529614" lon="6.769186114489557"><ele>393.8</ele><time>2026-04-12T07:31:31Z</time></trkpt><trkpt lat="43.64215388669202" lon="6.7691872662759724"><ele>393.20000000000005</ele><time>2026-04-12T07:31:32Z</time></trkpt><trkpt lat="43.64222318604947" lon="6.769207951977234"><ele>392.6</ele><time>2026-04-12T07:31:33Z</time></trkpt><trkpt lat="43.64228988801191" lon="6.769184824687252"><ele>392.0</ele><time>2026-04-12T07:31:34Z</time></trkpt><trkpt lat="43.642408663705325" lon="6.769235314586142"><ele>392.0</ele><time>2026-04-12T07:31:36Z</time></trkpt><trkpt lat="43.64246472245086" lon="6.769276615392317"><ele>392.0</ele><time>2026-04-12T07:31:37Z</time></trkpt><trkpt lat="43.642571664605136" lon="6.769369747481571"><ele>392.0</ele><time>2026-04-12T07:31:39Z</time></trkpt><trkpt lat="43.642665060368124" lon="6.769475549321884"><ele>392.0</ele><time>2026-04-12T07:31:41Z</time></trkpt><trkpt lat="43.6427511513589" lon="6.769593625108913"><ele>392.0</ele><time>2026-04-12T07:31:43Z</time></trkpt><trkpt lat="43.64282625216096" lon="6.7697204401283875"><ele>392.8</ele><time>2026-04-12T07:31:45Z</time></trkpt><trkpt lat="43.64288609091254" lon="6.769849358444478"><ele>393.6</ele><time>2026-04-12T07:31:47Z</time></trkpt><trkpt lat="43.64294022221367" lon="6.769968408918978"><ele>394.40000000000003</ele><time>2026-04-12T07:31:49Z</time></trkpt><trkpt lat="43.64300243265785" lon="6.770078361067588"><ele>395.20000000000005</ele><time>2026-04-12T07:31:51Z</time></trkpt><trkpt lat="43.643073219670256" lon="6.770171120554285"><ele>396.0</ele><time>2026-04-12T07:31:53Z</time></trkpt><trkpt lat="43.64315101258238" lon="6.7702539319435076"><ele>396.0</ele><time>2026-04-12T07:31:55Z</time></trkpt><trkpt lat="43.64323176070117" lon="6.770341541854157"><ele>396.0</ele><time>2026-04-12T07:31:57Z</time></trkpt><trkpt lat="43.64330891455353" lon="6.770428820080304"><ele>396.0</ele><time>2026-04-12T07:31:59Z</time></trkpt><trkpt lat="43.64337686147228" lon="6.770529237257601"><ele>396.0</ele><time>2026-04-12T07:32:01Z</time></trkpt><trkpt lat="43.64343269794408" lon="6.77063684352843"><ele>396.0</ele><time>2026-04-12T07:32:03Z</time></trkpt><trkpt lat="43.643487200239676" lon="6.770746792099584"><ele>396.0</ele><time>2026-04-12T07:32:05Z</time></trkpt><trkpt lat="43.6435397889459" lon="6.770857182972742"><ele>396.0</ele><time>2026-04-12T07:32:07Z</time></trkpt><trkpt lat="43.643592816299844" lon="6.770961323925977"><ele>396.0</ele><time>2026-04-12T07:32:09Z</time></trkpt><trkpt lat="43.643641670068774" lon="6.771064236407436"><ele>396.0</ele><time>2026-04-12T07:32:11Z</time></trkpt><trkpt lat="43.6436968236268" lon="6.771163234878438"><ele>396.0</ele><time>2026-04-12T07:32:13Z</time></trkpt><trkpt lat="43.64375408268392" lon="6.771256811404566"><ele>396.8333333333333</ele><time>2026-04-12T07:32:15Z</time></trkpt><trkpt lat="43.64380915101477" lon="6.771351132114489"><ele>397.66666666666663</ele><time>2026-04-12T07:32:17Z</time></trkpt><trkpt lat="43.643867071220136" lon="6.7714420101936454"><ele>398.5</ele><time>2026-04-12T07:32:19Z</time></trkpt><trkpt lat="43.6439221641677" lon="6.771533237422271"><ele>399.3333333333333</ele><time>2026-04-12T07:32:21Z</time></trkpt><trkpt lat="43.64397811517152" lon="6.771614754115519"><ele>400.16666666666663</ele><time>2026-04-12T07:32:23Z</time></trkpt><trkpt lat="43.644026300991875" lon="6.771708528754514"><ele>401.0</ele><time>2026-04-12T07:32:25Z</time></trkpt><trkpt lat="43.64406314646617" lon="6.771782176580369"><ele>400.8333333333333</ele><time>2026-04-12T07:32:27Z</time></trkpt><trkpt lat="43.64410343188697" lon="6.77186213086112"><ele>400.66666666666663</ele><time>2026-04-12T07:32:29Z</time></trkpt><trkpt lat="43.644158197575216" lon="6.77195959307089"><ele>400.5</ele><time>2026-04-12T07:32:31Z</time></trkpt><trkpt lat="43.644195677901465" lon="6.772043665169994"><ele>400.33333333333337</ele><time>2026-04-12T07:32:33Z</time></trkpt><trkpt lat="43.64423291376996" lon="6.772124989471148"><ele>400.1666666666667</ele><time>2026-04-12T07:32:35Z</time></trkpt><trkpt lat="43.6442841984262" lon="6.772238214703959"><ele>400.0</ele><time>2026-04-12T07:32:37Z</time></trkpt><trkpt lat="43.644324334850296" lon="6.7723172607815725"><ele>400.00000000000006</ele><time>2026-04-12T07:32:39Z</time></trkpt><trkpt lat="43.64438288286467" lon="6.772426939113972"><ele>400.0</ele><time>2026-04-12T07:32:41Z</time></trkpt><trkpt lat="43.64443589565614" lon="6.772521688736878"><ele>400.0</ele><time>2026-04-12T07:32:43Z</time></trkpt><trkpt lat="43.644487708011965" lon="6.772613471928203"><ele>400.0</ele><time>2026-04-12T07:32:45Z</time></trkpt><trkpt lat="43.6445391220436" lon="6.77270573985886"><ele>400.00000000000006</ele><time>2026-04-12T07:32:47Z</time></trkpt><trkpt lat="43.644596669315035" lon="6.772799078545523"><ele>400.0</ele><time>2026-04-12T07:32:49Z</time></trkpt><trkpt lat="43.64465523386849" lon="6.772896237747871"><ele>400.8</ele><time>2026-04-12T07:32:51Z</time></trkpt><trkpt lat="43.64471437403007" lon="6.772996040528166"><ele>401.6</ele><time>2026-04-12T07:32:53Z</time></trkpt><trkpt lat="43.64476867606438" lon="6.77309702812252"><ele>402.4</ele><time>2026-04-12T07:32:55Z</time></trkpt><trkpt lat="43.644837553493396" lon="6.77321507842255"><ele>403.2</ele><time>2026-04-12T07:32:58Z</time></trkpt><trkpt lat="43.64490641258278" lon="6.773325133087388"><ele>404.0</ele><time>2026-04-12T07:33:00Z</time></trkpt><trkpt lat="43.64497284552208" lon="6.773423361176853"><ele>404.0</ele><time>2026-04-12T07:33:02Z</time></trkpt><trkpt lat="43.645015854904514" lon="6.773498397505628"><ele>404.0</ele><time>2026-04-12T07:33:03Z</time></trkpt><trkpt lat="43.64507542732976" lon="6.773600992934298"><ele>404.0</ele><time>2026-04-12T07:33:05Z</time></trkpt><trkpt lat="43.64514270137613" lon="6.773702301863219"><ele>404.0</ele><time>2026-04-12T07:33:07Z</time></trkpt><trkpt lat="43.64521351115502" lon="6.7737964365841865"><ele>404.0</ele><time>2026-04-12T07:33:09Z</time></trkpt><trkpt lat="43.64528510533617" lon="6.773885546887927"><ele>405.3333333333333</ele><time>2026-04-12T07:33:11Z</time></trkpt><trkpt lat="43.64535246295478" lon="6.773968177671888"><ele>406.66666666666663</ele><time>2026-04-12T07:33:13Z</time></trkpt><trkpt lat="43.64542098970431" lon="6.774044352304221"><ele>408.0</ele><time>2026-04-12T07:33:15Z</time></trkpt><trkpt lat="43.645486746163904" lon="6.774110137056535"><ele>409.33333333333337</ele><time>2026-04-12T07:33:17Z</time></trkpt><trkpt lat="43.6455517981393" lon="6.7741892265613055"><ele>410.6666666666667</ele><time>2026-04-12T07:33:19Z</time></trkpt><trkpt lat="43.64559850031598" lon="6.774273916377916"><ele>412.0</ele><time>2026-04-12T07:33:21Z</time></trkpt><trkpt lat="43.645666264030076" lon="6.774346925681292"><ele>411.1666666666667</ele><time>2026-04-12T07:33:23Z</time></trkpt><trkpt lat="43.645720899514075" lon="6.774417836552053"><ele>410.33333333333337</ele><time>2026-04-12T07:33:25Z</time></trkpt><trkpt lat="43.64576980336537" lon="6.774482050012401"><ele>409.5</ele><time>2026-04-12T07:33:27Z</time></trkpt><trkpt lat="43.64581008853917" lon="6.774563536639456"><ele>408.66666666666663</ele><time>2026-04-12T07:33:29Z</time></trkpt><trkpt lat="43.64586403923247" lon="6.774668131688824"><ele>407.8333333333333</ele><time>2026-04-12T07:33:32Z</time></trkpt><trkpt lat="43.64591392775137" lon="6.774773487365821"><ele>407.0</ele><time>2026-04-12T07:33:35Z</time></trkpt><trkpt lat="43.64596291601528" lon="6.774880300893389"><ele>406.99999999999994</ele><time>2026-04-12T07:33:38Z</time></trkpt><trkpt lat="43.64601776492466" lon="6.774981493177971"><ele>407.0</ele><time>2026-04-12T07:33:41Z</time></trkpt><trkpt lat="43.64605661504177" lon="6.7750577650854975"><ele>407.0</ele><time>2026-04-12T07:33:44Z</time></trkpt><trkpt lat="43.64610258566784" lon="6.775157241882267"><ele>407.0</ele><time>2026-04-12T07:33:47Z</time></trkpt><trkpt lat="43.64614920653383" lon="6.775254753585522"><ele>406.99999999999994</ele><time>2026-04-12T07:33:50Z</time></trkpt><trkpt lat="43.64619175744043" lon="6.775335241685848"><ele>407.0</ele><time>2026-04-12T07:33:52Z</time></trkpt><trkpt lat="43.64622997379952" lon="6.775414233631783"><ele>409.00000000000006</ele><time>2026-04-12T07:33:55Z</time></trkpt><trkpt lat="43.64626809651596" lon="6.775495170936156"><ele>411.0</ele><time>2026-04-12T07:33:57Z</time></trkpt><trkpt lat="43.64630406288752" lon="6.775573070827475"><ele>413.0</ele><time>2026-04-12T07:34:00Z</time></trkpt><trkpt lat="43.646344491988124" lon="6.775652569957191"><ele>415.0</ele><time>2026-04-12T07:34:02Z</time></trkpt><trkpt lat="43.64638876308466" lon="6.775740501696274"><ele>417.0</ele><time>2026-04-12T07:34:05Z</time></trkpt><trkpt lat="43.646432590286196" lon="6.775835824254027"><ele>419.00000000000006</ele><time>2026-04-12T07:34:09Z</time></trkpt><trkpt lat="43.646474015712016" lon="6.7759272587223665"><ele>421.0</ele><time>2026-04-12T07:34:12Z</time></trkpt><trkpt lat="43.64651858235408" lon="6.776014147979517"><ele>420.7142857142857</ele><time>2026-04-12T07:34:15Z</time></trkpt><trkpt lat="43.646563826087004" lon="6.7760998078684205"><ele>420.42857142857144</ele><time>2026-04-12T07:34:17Z</time></trkpt><trkpt lat="43.646605141851815" lon="6.7761808681115365"><ele>420.1428571428571</ele><time>2026-04-12T07:34:20Z</time></trkpt><trkpt lat="43.64665053057763" lon="6.7762788057477055"><ele>419.8571428571429</ele><time>2026-04-12T07:34:24Z</time></trkpt><trkpt lat="43.6466925758578" lon="6.7763646176393255"><ele>419.57142857142856</ele><time>2026-04-12T07:34:27Z</time></trkpt><trkpt lat="43.64673115919443" lon="6.7764395440747345"><ele>419.2857142857143</ele><time>2026-04-12T07:34:30Z</time></trkpt><trkpt lat="43.6467711605376" lon="6.776525247951297"><ele>419.0</ele><time>2026-04-12T07:34:33Z</time></trkpt><trkpt lat="43.64680371859485" lon="6.776619584898583"><ele>418.99999999999994</ele><time>2026-04-12T07:34:36Z</time></trkpt><trkpt lat="43.6468295257079" lon="6.77671935926448"><ele>419.0</ele><time>2026-04-12T07:34:39Z</time></trkpt><trkpt lat="43.64685272674218" lon="6.776820400817535"><ele>419.0</ele><time>2026-04-12T07:34:42Z</time></trkpt><trkpt lat="43.64686978414071" lon="6.776950181631481"><ele>419.0</ele><time>2026-04-12T07:34:45Z</time></trkpt><trkpt lat="43.64688311469005" lon="6.777066750528446"><ele>418.99999999999994</ele><time>2026-04-12T07:34:48Z</time></trkpt><trkpt lat="43.646896047898906" lon="6.777174320105588"><ele>419.0</ele><time>2026-04-12T07:34:51Z</time></trkpt><trkpt lat="43.64690653546909" lon="6.777264398301019"><ele>419.4285714285714</ele><time>2026-04-12T07:34:54Z</time></trkpt><trkpt lat="43.64691634371575" lon="6.777374037566717"><ele>419.85714285714283</ele><time>2026-04-12T07:34:57Z</time></trkpt><trkpt lat="43.646924055609176" lon="6.777478761142359"><ele>420.2857142857143</ele><time>2026-04-12T07:35:00Z</time></trkpt><trkpt lat="43.64693076468049" lon="6.777574102430673"><ele>420.71428571428567</ele><time>2026-04-12T07:35:03Z</time></trkpt><trkpt lat="43.64693233166415" lon="6.777664341439636"><ele>421.14285714285717</ele><time>2026-04-12T07:35:05Z</time></trkpt><trkpt lat="43.646933834394524" lon="6.777756684827152"><ele>421.57142857142856</ele><time>2026-04-12T07:35:08Z</time></trkpt><trkpt lat="43.64692893809593" lon="6.777858063369471"><ele>422.0</ele><time>2026-04-12T07:35:11Z</time></trkpt><trkpt lat="43.646928112673756" lon="6.777956801738554"><ele>423.16666666666663</ele><time>2026-04-12T07:35:14Z</time></trkpt><trkpt lat="43.64692363662956" lon="6.778055351518751"><ele>424.3333333333333</ele><time>2026-04-12T07:35:16Z</time></trkpt><trkpt lat="43.646914749180574" lon="6.778156458300219"><ele>425.5</ele><time>2026-04-12T07:35:19Z</time></trkpt><trkpt lat="43.646907226129194" lon="6.778274938726636"><ele>426.66666666666663</ele><time>2026-04-12T07:35:23Z</time></trkpt><trkpt lat="43.64689411064287" lon="6.778410827350636"><ele>427.8333333333333</ele><time>2026-04-12T07:35:26Z</time></trkpt><trkpt lat="43.6468898050049" lon="6.77851510897668"><ele>429.0</ele><time>2026-04-12T07:35:29Z</time></trkpt><trkpt lat="43.646878200135106" lon="6.778638251302024"><ele>429.0</ele><time>2026-04-12T07:35:32Z</time></trkpt><trkpt lat="43.64686916288934" lon="6.778726500714415"><ele>429.0</ele><time>2026-04-12T07:35:34Z</time></trkpt><trkpt lat="43.64686401992734" lon="6.778823131075973"><ele>429.0</ele><time>2026-04-12T07:35:36Z</time></trkpt><trkpt lat="43.64685788098557" lon="6.778928559586618"><ele>429.0</ele><time>2026-04-12T07:35:38Z</time></trkpt><trkpt lat="43.64684982122102" lon="6.779040402984311"><ele>429.0</ele><time>2026-04-12T07:35:40Z</time></trkpt><trkpt lat="43.646835579505314" lon="6.77915892412046"><ele>429.0</ele><time>2026-04-12T07:35:42Z</time></trkpt><trkpt lat="43.6468214314931" lon="6.779289879752639"><ele>428.1666666666667</ele><time>2026-04-12T07:35:44Z</time></trkpt><trkpt lat="43.646793961631516" lon="6.779429751346272"><ele>427.33333333333337</ele><time>2026-04-12T07:35:46Z</time></trkpt><trkpt lat="43.64675341848226" lon="6.779589830127109"><ele>426.5</ele><time>2026-04-12T07:35:48Z</time></trkpt><trkpt lat="43.64672680964975" lon="6.77967964142324"><ele>425.6666666666667</ele><time>2026-04-12T07:35:49Z</time></trkpt><trkpt lat="43.64669687457035" lon="6.779769136320938"><ele>424.83333333333337</ele><time>2026-04-12T07:35:50Z</time></trkpt><trkpt lat="43.64666853001093" lon="6.779857816172186"><ele>424.0</ele><time>2026-04-12T07:35:51Z</time></trkpt><trkpt lat="43.64664911920966" lon="6.779942218658643"><ele>424.00000000000006</ele><time>2026-04-12T07:35:52Z</time></trkpt><trkpt lat="43.6466554546888" lon="6.780099067527491"><ele>424.0</ele><time>2026-04-12T07:35:54Z</time></trkpt><trkpt lat="43.64668822259106" lon="6.780183294657644"><ele>424.0</ele><time>2026-04-12T07:35:55Z</time></trkpt><trkpt lat="43.64677900169429" lon="6.780210100742242"><ele>424.0</ele><time>2026-04-12T07:35:56Z</time></trkpt><trkpt lat="43.64686418422099" lon="6.780211507681454"><ele>424.00000000000006</ele><time>2026-04-12T07:35:57Z</time></trkpt><trkpt lat="43.646947239322216" lon="6.7801900141142335"><ele>424.0</ele><time>2026-04-12T07:35:58Z</time></trkpt><trkpt lat="43.647031748618716" lon="6.780194887113065"><ele>422.4</ele><time>2026-04-12T07:35:59Z</time></trkpt><trkpt lat="43.64711465489628" lon="6.780177666458802"><ele>420.79999999999995</ele><time>2026-04-12T07:36:00Z</time></trkpt><trkpt lat="43.6472035003588" lon="6.7801476401594485"><ele>419.20000000000005</ele><time>2026-04-12T07:36:01Z</time></trkpt><trkpt lat="43.64728937462537" lon="6.780083067051644"><ele>417.6</ele><time>2026-04-12T07:36:02Z</time></trkpt><trkpt lat="43.64737631174157" lon="6.780024187972164"><ele>416.0</ele><time>2026-04-12T07:36:03Z</time></trkpt><trkpt lat="43.647465316772255" lon="6.779953655352999"><ele>416.0</ele><time>2026-04-12T07:36:04Z</time></trkpt><trkpt lat="43.64755344290969" lon="6.779882937507269"><ele>416.0</ele><time>2026-04-12T07:36:05Z</time></trkpt><trkpt lat="43.647639447013745" lon="6.779829558571153"><ele>416.0</ele><time>2026-04-12T07:36:06Z</time></trkpt><trkpt lat="43.647719971538784" lon="6.779772970689728"><ele>416.0</ele><time>2026-04-12T07:36:07Z</time></trkpt><trkpt lat="43.647802050122245" lon="6.779744752704849"><ele>416.0</ele><time>2026-04-12T07:36:08Z</time></trkpt><trkpt lat="43.64790156128359" lon="6.77972287843903"><ele>412.4</ele><time>2026-04-12T07:36:09Z</time></trkpt><trkpt lat="43.648003928239866" lon="6.779726862279458"><ele>408.8</ele><time>2026-04-12T07:36:10Z</time></trkpt><trkpt lat="43.648110960893476" lon="6.779754924162043"><ele>405.2</ele><time>2026-04-12T07:36:11Z</time></trkpt><trkpt lat="43.64821465696093" lon="6.779787998123801"><ele>401.59999999999997</ele><time>2026-04-12T07:36:12Z</time></trkpt><trkpt lat="43.648318754880854" lon="6.779815329885982"><ele>398.0</ele><time>2026-04-12T07:36:13Z</time></trkpt><trkpt lat="43.64843484599063" lon="6.779817940225991"><ele>398.0</ele><time>2026-04-12T07:36:14Z</time></trkpt><trkpt lat="43.64855306484936" lon="6.7798178728779686"><ele>398.0</ele><time>2026-04-12T07:36:15Z</time></trkpt><trkpt lat="43.648673956191345" lon="6.7798110470513215"><ele>398.0</ele><time>2026-04-12T07:36:16Z</time></trkpt><trkpt lat="43.64879758089618" lon="6.779798463094592"><ele>398.0</ele><time>2026-04-12T07:36:17Z</time></trkpt><trkpt lat="43.64891965711016" lon="6.779794439694193"><ele>397.0</ele><time>2026-04-12T07:36:18Z</time></trkpt><trkpt lat="43.64904511104029" lon="6.7797912166821845"><ele>396.0</ele><time>2026-04-12T07:36:19Z</time></trkpt><trkpt lat="43.64916945685777" lon="6.7798016762318625"><ele>395.0</ele><time>2026-04-12T07:36:20Z</time></trkpt><trkpt lat="43.64929668934198" lon="6.779809234145303"><ele>394.0</ele><time>2026-04-12T07:36:21Z</time></trkpt><trkpt lat="43.649425436709265" lon="6.779818510062696"><ele>393.0</ele><time>2026-04-12T07:36:22Z</time></trkpt><trkpt lat="43.64954529026799" lon="6.7798247287415245"><ele>392.0</ele><time>2026-04-12T07:36:23Z</time></trkpt><trkpt lat="43.64966532996094" lon="6.7798302706008355"><ele>391.0</ele><time>2026-04-12T07:36:24Z</time></trkpt><trkpt lat="43.64978693894618" lon="6.779835404814414"><ele>390.0</ele><time>2026-04-12T07:36:25Z</time></trkpt><trkpt lat="43.64989722026997" lon="6.779833033326035"><ele>390.0</ele><time>2026-04-12T07:36:26Z</time></trkpt><trkpt lat="43.650001101603685" lon="6.779836716135762"><ele>390.0</ele><time>2026-04-12T07:36:27Z</time></trkpt><trkpt lat="43.6501044284691" lon="6.77982576979135"><ele>390.0</ele><time>2026-04-12T07:36:28Z</time></trkpt><trkpt lat="43.65020325291019" lon="6.779797186747211"><ele>390.0</ele><time>2026-04-12T07:36:29Z</time></trkpt><trkpt lat="43.65030683266705" lon="6.779776103589476"><ele>390.0</ele><time>2026-04-12T07:36:30Z</time></trkpt><trkpt lat="43.65040966570959" lon="6.779722839202355"><ele>383.25</ele><time>2026-04-12T07:36:31Z</time></trkpt><trkpt lat="43.65050879074832" lon="6.779652491646615"><ele>376.5</ele><time>2026-04-12T07:36:32Z</time></trkpt><trkpt lat="43.65060440870571" lon="6.779563665709002"><ele>369.75</ele><time>2026-04-12T07:36:33Z</time></trkpt><trkpt lat="43.65069758551464" lon="6.77946564215654"><ele>363.0</ele><time>2026-04-12T07:36:34Z</time></trkpt><trkpt lat="43.65078865073436" lon="6.7793594279822775"><ele>361.25</ele><time>2026-04-12T07:36:35Z</time></trkpt><trkpt lat="43.65088008120605" lon="6.7792534631844426"><ele>359.5</ele><time>2026-04-12T07:36:36Z</time></trkpt><trkpt lat="43.650972175139195" lon="6.779145584544573"><ele>357.75</ele><time>2026-04-12T07:36:37Z</time></trkpt><trkpt lat="43.65106510884848" lon="6.779036290235749"><ele>356.0</ele><time>2026-04-12T07:36:38Z</time></trkpt><trkpt lat="43.65115924108456" lon="6.778925586136801"><ele>356.0</ele><time>2026-04-12T07:36:39Z</time></trkpt><trkpt lat="43.651244025281784" lon="6.778793639993394"><ele>356.0</ele><time>2026-04-12T07:36:40Z</time></trkpt><trkpt lat="43.65132744402594" lon="6.778685647295492"><ele>356.0</ele><time>2026-04-12T07:36:41Z</time></trkpt><trkpt lat="43.65140683953119" lon="6.778581567437466"><ele>356.0</ele><time>2026-04-12T07:36:42Z</time></trkpt><trkpt lat="43.651495072772725" lon="6.7784864095751765"><ele>359.20000000000005</ele><time>2026-04-12T07:36:43Z</time></trkpt><trkpt lat="43.65156423681856" lon="6.7783628280734005"><ele>362.40000000000003</ele><time>2026-04-12T07:36:44Z</time></trkpt><trkpt lat="43.651624518384914" lon="6.778245272512866"><ele>365.6</ele><time>2026-04-12T07:36:45Z</time></trkpt><trkpt lat="43.65168386119556" lon="6.778122055809115"><ele>368.8</ele><time>2026-04-12T07:36:46Z</time></trkpt><trkpt lat="43.65174218964314" lon="6.777992688767801"><ele>372.0</ele><time>2026-04-12T07:36:47Z</time></trkpt><trkpt lat="43.651797276379526" lon="6.77785884187782"><ele>372.0</ele><time>2026-04-12T07:36:48Z</time></trkpt><trkpt lat="43.65185102262799" lon="6.777722814030814"><ele>372.0</ele><time>2026-04-12T07:36:49Z</time></trkpt><trkpt lat="43.6519044976783" lon="6.777581364944953"><ele>372.0</ele><time>2026-04-12T07:36:50Z</time></trkpt><trkpt lat="43.651956910899294" lon="6.777435634314991"><ele>372.0</ele><time>2026-04-12T07:36:51Z</time></trkpt><trkpt lat="43.65200751538964" lon="6.777289155847937"><ele>369.0</ele><time>2026-04-12T07:36:52Z</time></trkpt><trkpt lat="43.65205859527049" lon="6.777139361802896"><ele>366.0</ele><time>2026-04-12T07:36:53Z</time></trkpt><trkpt lat="43.65211054037542" lon="6.776987030618571"><ele>363.0</ele><time>2026-04-12T07:36:54Z</time></trkpt><trkpt lat="43.65216114118916" lon="6.776835520354379"><ele>360.0</ele><time>2026-04-12T07:36:55Z</time></trkpt><trkpt lat="43.65220594078153" lon="6.776700219368798"><ele>360.0</ele><time>2026-04-12T07:36:56Z</time></trkpt><trkpt lat="43.65225189304419" lon="6.77657428724483"><ele>360.0</ele><time>2026-04-12T07:36:57Z</time></trkpt><trkpt lat="43.65229876402363" lon="6.776456525313862"><ele>360.0</ele><time>2026-04-12T07:36:58Z</time></trkpt><trkpt lat="43.65234895080016" lon="6.776350240294071"><ele>360.0</ele><time>2026-04-12T07:36:59Z</time></trkpt><trkpt lat="43.652406904300044" lon="6.7762575471058195"><ele>360.0</ele><time>2026-04-12T07:37:00Z</time></trkpt><trkpt lat="43.652467027856204" lon="6.776152086324107"><ele>360.0</ele><time>2026-04-12T07:37:01Z</time></trkpt><trkpt lat="43.65254801631103" lon="6.776068375879458"><ele>360.0</ele><time>2026-04-12T07:37:02Z</time></trkpt><trkpt lat="43.652630994067295" lon="6.77598467452758"><ele>360.0</ele><time>2026-04-12T07:37:03Z</time></trkpt><trkpt lat="43.652713073190675" lon="6.775898119497407"><ele>360.0</ele><time>2026-04-12T07:37:04Z</time></trkpt><trkpt lat="43.65279363042984" lon="6.775809681188606"><ele>360.0</ele><time>2026-04-12T07:37:05Z</time></trkpt><trkpt lat="43.65287593622434" lon="6.775720253979334"><ele>356.2</ele><time>2026-04-12T07:37:06Z</time></trkpt><trkpt lat="43.652958625437904" lon="6.775629366110253"><ele>352.4</ele><time>2026-04-12T07:37:07Z</time></trkpt><trkpt lat="43.65304033379689" lon="6.775539256270796"><ele>348.6</ele><time>2026-04-12T07:37:08Z</time></trkpt><trkpt lat="43.65312063002147" lon="6.775445930565881"><ele>344.8</ele><time>2026-04-12T07:37:09Z</time></trkpt><trkpt lat="43.653203188708595" lon="6.775350661527373"><ele>341.0</ele><time>2026-04-12T07:37:10Z</time></trkpt><trkpt lat="43.653283741018946" lon="6.775242331858964"><ele>347.0</ele><time>2026-04-12T07:37:11Z</time></trkpt><trkpt lat="43.653357636470616" lon="6.77512520052149"><ele>353.0</ele><time>2026-04-12T07:37:12Z</time></trkpt><trkpt lat="43.65343397386023" lon="6.7750015828184065"><ele>359.0</ele><time>2026-04-12T07:37:13Z</time></trkpt><trkpt lat="43.65350755257145" lon="6.774874958830908"><ele>365.0</ele><time>2026-04-12T07:37:14Z</time></trkpt><trkpt lat="43.65358409020423" lon="6.774749185221024"><ele>360.0</ele><time>2026-04-12T07:37:15Z</time></trkpt><trkpt lat="43.65365817075719" lon="6.774623292474141"><ele>355.0</ele><time>2026-04-12T07:37:16Z</time></trkpt><trkpt lat="43.65373636232056" lon="6.774504280801803"><ele>350.0</ele><time>2026-04-12T07:37:17Z</time></trkpt><trkpt lat="43.653823837306945" lon="6.774396105090007"><ele>345.0</ele><time>2026-04-12T07:37:18Z</time></trkpt><trkpt lat="43.65392081404512" lon="6.774294611502241"><ele>345.0</ele><time>2026-04-12T07:37:19Z</time></trkpt><trkpt lat="43.65401745109425" lon="6.774190023312271"><ele>345.0</ele><time>2026-04-12T07:37:20Z</time></trkpt><trkpt lat="43.654116140101934" lon="6.774085821202864"><ele>345.0</ele><time>2026-04-12T07:37:21Z</time></trkpt><trkpt lat="43.65420824513034" lon="6.773994007482993"><ele>345.0</ele><time>2026-04-12T07:37:22Z</time></trkpt><trkpt lat="43.654295804841155" lon="6.77391325484642"><ele>345.0</ele><time>2026-04-12T07:37:23Z</time></trkpt><trkpt lat="43.65437700746322" lon="6.773836510179108"><ele>345.0</ele><time>2026-04-12T07:37:24Z</time></trkpt><trkpt lat="43.65444455443754" lon="6.773763544000933"><ele>345.0</ele><time>2026-04-12T07:37:25Z</time></trkpt><trkpt lat="43.654501749516854" lon="6.773685682559853"><ele>345.0</ele><time>2026-04-12T07:37:26Z</time></trkpt><trkpt lat="43.65454378741681" lon="6.773580511408397"><ele>345.0</ele><time>2026-04-12T07:37:27Z</time></trkpt><trkpt lat="43.65457135785214" lon="6.773462700951616"><ele>345.0</ele><time>2026-04-12T07:37:28Z</time></trkpt><trkpt lat="43.65458915330267" lon="6.77333645148746"><ele>343.0</ele><time>2026-04-12T07:37:29Z</time></trkpt><trkpt lat="43.654601250808156" lon="6.773205695537385"><ele>341.0</ele><time>2026-04-12T07:37:30Z</time></trkpt><trkpt lat="43.65461278846705" lon="6.773067208479001"><ele>339.0</ele><time>2026-04-12T07:37:31Z</time></trkpt><trkpt lat="43.654627435556414" lon="6.772923614185714"><ele>337.0</ele><time>2026-04-12T07:37:32Z</time></trkpt><trkpt lat="43.6546595035995" lon="6.772781566376227"><ele>335.0</ele><time>2026-04-12T07:37:33Z</time></trkpt><trkpt lat="43.654694400835126" lon="6.772638131359387"><ele>335.0</ele><time>2026-04-12T07:37:34Z</time></trkpt><trkpt lat="43.654739916916235" lon="6.772498113096882"><ele>335.0</ele><time>2026-04-12T07:37:35Z</time></trkpt><trkpt lat="43.654786686007434" lon="6.772361004576561"><ele>335.0</ele><time>2026-04-12T07:37:36Z</time></trkpt><trkpt lat="43.65483697856395" lon="6.772216078010519"><ele>335.0</ele><time>2026-04-12T07:37:37Z</time></trkpt><trkpt lat="43.654886291698155" lon="6.772064775650224"><ele>335.0</ele><time>2026-04-12T07:37:38Z</time></trkpt><trkpt lat="43.65494447478657" lon="6.771927817692265"><ele>335.0</ele><time>2026-04-12T07:37:39Z</time></trkpt><trkpt lat="43.65500008359455" lon="6.771790414428726"><ele>335.0</ele><time>2026-04-12T07:37:40Z</time></trkpt><trkpt lat="43.65505483902641" lon="6.77164854483964"><ele>335.0</ele><time>2026-04-12T07:37:41Z</time></trkpt><trkpt lat="43.65511213381963" lon="6.7715127140569935"><ele>336.6</ele><time>2026-04-12T07:37:42Z</time></trkpt><trkpt lat="43.65516537145239" lon="6.7713867581943905"><ele>338.2</ele><time>2026-04-12T07:37:43Z</time></trkpt><trkpt lat="43.655221947147325" lon="6.771274586803334"><ele>339.79999999999995</ele><time>2026-04-12T07:37:44Z</time></trkpt><trkpt lat="43.65528608781818" lon="6.771172492229097"><ele>341.4</ele><time>2026-04-12T07:37:45Z</time></trkpt><trkpt lat="43.65536223085033" lon="6.771082929155341"><ele>343.0</ele><time>2026-04-12T07:37:46Z</time></trkpt><trkpt lat="43.65545002492498" lon="6.771011082510221"><ele>339.79999999999995</ele><time>2026-04-12T07:37:47Z</time></trkpt><trkpt lat="43.65554957014038" lon="6.770973312733421"><ele>336.6</ele><time>2026-04-12T07:37:48Z</time></trkpt><trkpt lat="43.65563683065576" lon="6.770905919197591"><ele>333.4</ele><time>2026-04-12T07:37:49Z</time></trkpt><trkpt lat="43.655729094784185" lon="6.770865235675137"><ele>330.20000000000005</ele><time>2026-04-12T07:37:50Z</time></trkpt><trkpt lat="43.65581268808925" lon="6.770821276405923"><ele>327.0</ele><time>2026-04-12T07:37:51Z</time></trkpt><trkpt lat="43.65590143047175" lon="6.77077782329584"><ele>327.0</ele><time>2026-04-12T07:37:52Z</time></trkpt><trkpt lat="43.655989175579684" lon="6.770717612350938"><ele>327.0</ele><time>2026-04-12T07:37:53Z</time></trkpt><trkpt lat="43.65608336120237" lon="6.770658549052498"><ele>327.0</ele><time>2026-04-12T07:37:54Z</time></trkpt><trkpt lat="43.65617261396165" lon="6.770576434398622"><ele>327.0</ele><time>2026-04-12T07:37:55Z</time></trkpt><trkpt lat="43.656258616959136" lon="6.770486169709941"><ele>327.0</ele><time>2026-04-12T07:37:56Z</time></trkpt><trkpt lat="43.65634576131491" lon="6.770391889085997"><ele>326.0</ele><time>2026-04-12T07:37:57Z</time></trkpt><trkpt lat="43.65643282682145" lon="6.770301258310186"><ele>325.0</ele><time>2026-04-12T07:37:58Z</time></trkpt><trkpt lat="43.65651980952575" lon="6.770215184231307"><ele>324.0</ele><time>2026-04-12T07:37:59Z</time></trkpt><trkpt lat="43.65661031599002" lon="6.770128204113813"><ele>323.0</ele><time>2026-04-12T07:38:00Z</time></trkpt><trkpt lat="43.65670386422293" lon="6.770040636625553"><ele>322.0</ele><time>2026-04-12T07:38:01Z</time></trkpt><trkpt lat="43.6567921581414" lon="6.7699417949481955"><ele>322.0</ele><time>2026-04-12T07:38:02Z</time></trkpt><trkpt lat="43.656887313839846" lon="6.769865721988926"><ele>322.0</ele><time>2026-04-12T07:38:03Z</time></trkpt><trkpt lat="43.65698570433972" lon="6.769798503392345"><ele>322.0</ele><time>2026-04-12T07:38:04Z</time></trkpt><trkpt lat="43.65708778318129" lon="6.769733826175746"><ele>322.0</ele><time>2026-04-12T07:38:05Z</time></trkpt><trkpt lat="43.657180047238995" lon="6.769672769963175"><ele>322.0</ele><time>2026-04-12T07:38:06Z</time></trkpt><trkpt lat="43.65726923156579" lon="6.769619692530698"><ele>320.3333333333333</ele><time>2026-04-12T07:38:07Z</time></trkpt><trkpt lat="43.657349707725174" lon="6.769568802443945"><ele>318.66666666666663</ele><time>2026-04-12T07:38:08Z</time></trkpt><trkpt lat="43.657422094786966" lon="6.769520633637734"><ele>317.0</ele><time>2026-04-12T07:38:09Z</time></trkpt><trkpt lat="43.65749156864953" lon="6.769475747106512"><ele>315.3333333333333</ele><time>2026-04-12T07:38:10Z</time></trkpt><trkpt lat="43.65754715612116" lon="6.76942563289484"><ele>313.6666666666667</ele><time>2026-04-12T07:38:11Z</time></trkpt><trkpt lat="43.657592022900566" lon="6.769360039285258"><ele>312.0</ele><time>2026-04-12T07:38:12Z</time></trkpt><trkpt lat="43.65764028193092" lon="6.769285429176624"><ele>312.0</ele><time>2026-04-12T07:38:13Z</time></trkpt><trkpt lat="43.657642950033015" lon="6.769161990522915"><ele>312.0</ele><time>2026-04-12T07:38:14Z</time></trkpt><trkpt lat="43.657613384659534" lon="6.769053818583787"><ele>312.0</ele><time>2026-04-12T07:38:15Z</time></trkpt><trkpt lat="43.65761797006467" lon="6.768936537511831"><ele>312.0</ele><time>2026-04-12T07:38:16Z</time></trkpt><trkpt lat="43.65760792041271" lon="6.768819227853047"><ele>312.0</ele><time>2026-04-12T07:38:17Z</time></trkpt><trkpt lat="43.657601458693186" lon="6.768694568795563"><ele>312.0</ele><time>2026-04-12T07:38:18Z</time></trkpt><trkpt lat="43.65760523702129" lon="6.7685679946401756"><ele>313.5</ele><time>2026-04-12T07:38:19Z</time></trkpt><trkpt lat="43.65761913911533" lon="6.768442085953878"><ele>315.0</ele><time>2026-04-12T07:38:20Z</time></trkpt><trkpt lat="43.65763348978637" lon="6.76832785284466"><ele>316.5</ele><time>2026-04-12T07:38:21Z</time></trkpt><trkpt lat="43.657643028937116" lon="6.76821776228218"><ele>318.0</ele><time>2026-04-12T07:38:22Z</time></trkpt><trkpt lat="43.65769464932172" lon="6.76811899402353"><ele>319.5</ele><time>2026-04-12T07:38:23Z</time></trkpt><trkpt lat="43.657762783788705" lon="6.768040678046147"><ele>321.0</ele><time>2026-04-12T07:38:24Z</time></trkpt><trkpt lat="43.65784500541987" lon="6.767992613513861"><ele>317.40000000000003</ele><time>2026-04-12T07:38:25Z</time></trkpt><trkpt lat="43.65793139987793" lon="6.767937551452033"><ele>313.8</ele><time>2026-04-12T07:38:26Z</time></trkpt><trkpt lat="43.65800789091667" lon="6.767847340945853"><ele>310.20000000000005</ele><time>2026-04-12T07:38:27Z</time></trkpt><trkpt lat="43.658089193957096" lon="6.767762628911396"><ele>306.6</ele><time>2026-04-12T07:38:28Z</time></trkpt><trkpt lat="43.65817223960425" lon="6.767675624995177"><ele>303.0</ele><time>2026-04-12T07:38:29Z</time></trkpt><trkpt lat="43.6582694029855" lon="6.767611622982912"><ele>303.0</ele><time>2026-04-12T07:38:30Z</time></trkpt><trkpt lat="43.658353336533885" lon="6.767530885646464"><ele>303.0</ele><time>2026-04-12T07:38:31Z</time></trkpt><trkpt lat="43.65843652122432" lon="6.767450603803207"><ele>303.0</ele><time>2026-04-12T07:38:32Z</time></trkpt><trkpt lat="43.65851112616406" lon="6.767344709085856"><ele>303.0</ele><time>2026-04-12T07:38:33Z</time></trkpt><trkpt lat="43.65858938076022" lon="6.767255417666573"><ele>303.0</ele><time>2026-04-12T07:38:34Z</time></trkpt><trkpt lat="43.658659504256484" lon="6.76717356032766"><ele>298.6666666666667</ele><time>2026-04-12T07:38:35Z</time></trkpt><trkpt lat="43.6587251830756" lon="6.767096024676809"><ele>294.3333333333333</ele><time>2026-04-12T07:38:36Z</time></trkpt><trkpt lat="43.65878284821596" lon="6.767024399672317"><ele>290.0</ele><time>2026-04-12T07:38:37Z</time></trkpt><trkpt lat="43.65883694445905" lon="6.766949880092896"><ele>285.66666666666663</ele><time>2026-04-12T07:38:38Z</time></trkpt><trkpt lat="43.65888396733382" lon="6.76685811656984"><ele>281.3333333333333</ele><time>2026-04-12T07:38:39Z</time></trkpt><trkpt lat="43.65892931102024" lon="6.76674607011486"><ele>277.0</ele><time>2026-04-12T07:38:40Z</time></trkpt><trkpt lat="43.65896045372827" lon="6.76662642893338"><ele>277.0</ele><time>2026-04-12T07:38:41Z</time></trkpt><trkpt lat="43.65897521620437" lon="6.766494514336295"><ele>277.0</ele><time>2026-04-12T07:38:42Z</time></trkpt><trkpt lat="43.65903182457467" lon="6.766391856372352"><ele>277.0</ele><time>2026-04-12T07:38:43Z</time></trkpt><trkpt lat="43.65909450920317" lon="6.7662814627385375"><ele>277.0</ele><time>2026-04-12T07:38:44Z</time></trkpt><trkpt lat="43.659143149188594" lon="6.766154340210019"><ele>277.0</ele><time>2026-04-12T07:38:45Z</time></trkpt><trkpt lat="43.659182343792665" lon="6.766028053773416"><ele>279.3333333333333</ele><time>2026-04-12T07:38:46Z</time></trkpt><trkpt lat="43.659217249069826" lon="6.765906991031898"><ele>281.66666666666663</ele><time>2026-04-12T07:38:47Z</time></trkpt><trkpt lat="43.6592498823805" lon="6.765799696016507"><ele>284.0</ele><time>2026-04-12T07:38:48Z</time></trkpt><trkpt lat="43.65927514056503" lon="6.76570206770633"><ele>286.3333333333333</ele><time>2026-04-12T07:38:49Z</time></trkpt><trkpt lat="43.659330150880336" lon="6.765653795465254"><ele>288.6666666666667</ele><time>2026-04-12T07:38:50Z</time></trkpt><trkpt lat="43.65936815323887" lon="6.765482138006226"><ele>291.0</ele><time>2026-04-12T07:38:52Z</time></trkpt><trkpt lat="43.659340608909886" lon="6.765374949825784"><ele>291.0</ele><time>2026-04-12T07:38:53Z</time></trkpt><trkpt lat="43.65932133637334" lon="6.76528002412837"><ele>291.0</ele><time>2026-04-12T07:38:54Z</time></trkpt><trkpt lat="43.6593021356949" lon="6.765179045154578"><ele>291.0</ele><time>2026-04-12T07:38:55Z</time></trkpt><trkpt lat="43.65927325105896" lon="6.7650895655721754"><ele>291.0</ele><time>2026-04-12T07:38:56Z</time></trkpt><trkpt lat="43.65927760251146" lon="6.76499110627303"><ele>291.0</ele><time>2026-04-12T07:38:57Z</time></trkpt><trkpt lat="43.65930509296622" lon="6.7648952195782615"><ele>291.0</ele><time>2026-04-12T07:38:58Z</time></trkpt><trkpt lat="43.65935793083655" lon="6.764820098529586"><ele>291.0</ele><time>2026-04-12T07:38:59Z</time></trkpt><trkpt lat="43.65944187280567" lon="6.764782699230041"><ele>288.0</ele><time>2026-04-12T07:39:00Z</time></trkpt><trkpt lat="43.65950856136903" lon="6.764717933605557"><ele>285.0</ele><time>2026-04-12T07:39:01Z</time></trkpt><trkpt lat="43.65956890109576" lon="6.764636421163395"><ele>282.0</ele><time>2026-04-12T07:39:02Z</time></trkpt><trkpt lat="43.65962986992946" lon="6.764556476679595"><ele>279.0</ele><time>2026-04-12T07:39:03Z</time></trkpt><trkpt lat="43.659691896887225" lon="6.764471791831836"><ele>276.0</ele><time>2026-04-12T07:39:04Z</time></trkpt><trkpt lat="43.65975627109806" lon="6.7643855963710315"><ele>273.0</ele><time>2026-04-12T07:39:05Z</time></trkpt><trkpt lat="43.65982309475356" lon="6.764297582698597"><ele>273.0</ele><time>2026-04-12T07:39:06Z</time></trkpt><trkpt lat="43.65988690517362" lon="6.764219141095013"><ele>273.0</ele><time>2026-04-12T07:39:07Z</time></trkpt><trkpt lat="43.65994983601251" lon="6.764153548415144"><ele>273.0</ele><time>2026-04-12T07:39:08Z</time></trkpt><trkpt lat="43.6600028116447" lon="6.76407716719538"><ele>273.0</ele><time>2026-04-12T07:39:09Z</time></trkpt><trkpt lat="43.66003503693326" lon="6.763969873298367"><ele>273.0</ele><time>2026-04-12T07:39:10Z</time></trkpt><trkpt lat="43.660040970274835" lon="6.76384421289564"><ele>273.0</ele><time>2026-04-12T07:39:11Z</time></trkpt><trkpt lat="43.660064127276584" lon="6.763721743395594"><ele>273.0</ele><time>2026-04-12T07:39:12Z</time></trkpt><trkpt lat="43.660084287984866" lon="6.763606389907801"><ele>273.0</ele><time>2026-04-12T07:39:13Z</time></trkpt><trkpt lat="43.660128568476416" lon="6.7634992128886635"><ele>273.0</ele><time>2026-04-12T07:39:14Z</time></trkpt><trkpt lat="43.66019292942674" lon="6.763406357954427"><ele>273.0</ele><time>2026-04-12T07:39:15Z</time></trkpt><trkpt lat="43.660276896628595" lon="6.763342690267242"><ele>273.0</ele><time>2026-04-12T07:39:16Z</time></trkpt><trkpt lat="43.6603684596148" lon="6.763320340810891"><ele>271.2</ele><time>2026-04-12T07:39:17Z</time></trkpt><trkpt lat="43.66046263577586" lon="6.763305645286857"><ele>269.4</ele><time>2026-04-12T07:39:18Z</time></trkpt><trkpt lat="43.66054880727996" lon="6.763280104735203"><ele>267.59999999999997</ele><time>2026-04-12T07:39:19Z</time></trkpt><trkpt lat="43.66063040665902" lon="6.76326533206677"><ele>265.8</ele><time>2026-04-12T07:39:20Z</time></trkpt><trkpt lat="43.66071118606731" lon="6.763213206086363"><ele>264.0</ele><time>2026-04-12T07:39:21Z</time></trkpt><trkpt lat="43.66079201725939" lon="6.763142503725443"><ele>264.0</ele><time>2026-04-12T07:39:22Z</time></trkpt><trkpt lat="43.6608678041419" lon="6.7630636583587584"><ele>264.0</ele><time>2026-04-12T07:39:23Z</time></trkpt><trkpt lat="43.66094457359042" lon="6.762981203728224"><ele>264.0</ele><time>2026-04-12T07:39:24Z</time></trkpt><trkpt lat="43.66102089471213" lon="6.7628968681791966"><ele>264.0</ele><time>2026-04-12T07:39:25Z</time></trkpt><trkpt lat="43.661100753229505" lon="6.762814337978758"><ele>264.0</ele><time>2026-04-12T07:39:26Z</time></trkpt><trkpt lat="43.66117232335065" lon="6.762733131569956"><ele>262.8</ele><time>2026-04-12T07:39:27Z</time></trkpt><trkpt lat="43.66125188114442" lon="6.762633421542901"><ele>261.59999999999997</ele><time>2026-04-12T07:39:28Z</time></trkpt><trkpt lat="43.66133267467814" lon="6.7625278684109995"><ele>260.4</ele><time>2026-04-12T07:39:29Z</time></trkpt><trkpt lat="43.66140721502678" lon="6.76242242535007"><ele>259.2</ele><time>2026-04-12T07:39:30Z</time></trkpt><trkpt lat="43.661491476705415" lon="6.76232735434187"><ele>258.0</ele><time>2026-04-12T07:39:31Z</time></trkpt><trkpt lat="43.66157693400526" lon="6.7622404908145635"><ele>258.0</ele><time>2026-04-12T07:39:32Z</time></trkpt><trkpt lat="43.66166448664062" lon="6.762163370303812"><ele>258.0</ele><time>2026-04-12T07:39:33Z</time></trkpt><trkpt lat="43.66175363624851" lon="6.7620869685920235"><ele>258.0</ele><time>2026-04-12T07:39:34Z</time></trkpt><trkpt lat="43.66183885772613" lon="6.762021987293416"><ele>258.0</ele><time>2026-04-12T07:39:35Z</time></trkpt><trkpt lat="43.66192684320657" lon="6.761959738648338"><ele>258.0</ele><time>2026-04-12T07:39:36Z</time></trkpt><trkpt lat="43.66201924252759" lon="6.761903636043039"><ele>259.4</ele><time>2026-04-12T07:39:37Z</time></trkpt><trkpt lat="43.6621175851795" lon="6.761858400575579"><ele>260.8</ele><time>2026-04-12T07:39:38Z</time></trkpt><trkpt lat="43.662223659204805" lon="6.7618242854822235"><ele>262.2</ele><time>2026-04-12T07:39:39Z</time></trkpt><trkpt lat="43.66232865000022" lon="6.761796903934521"><ele>263.6</ele><time>2026-04-12T07:39:40Z</time></trkpt><trkpt lat="43.66243090010331" lon="6.7617699614951405"><ele>265.0</ele><time>2026-04-12T07:39:41Z</time></trkpt><trkpt lat="43.66253799735945" lon="6.761727779868432"><ele>265.0</ele><time>2026-04-12T07:39:42Z</time></trkpt><trkpt lat="43.66265356007561" lon="6.761733035017034"><ele>265.0</ele><time>2026-04-12T07:39:43Z</time></trkpt><trkpt lat="43.66277088459555" lon="6.761738799556889"><ele>265.0</ele><time>2026-04-12T07:39:44Z</time></trkpt><trkpt lat="43.66288752017541" lon="6.761746284292342"><ele>265.0</ele><time>2026-04-12T07:39:45Z</time></trkpt><trkpt lat="43.66299497570405" lon="6.761741489555751"><ele>263.0</ele><time>2026-04-12T07:39:46Z</time></trkpt><trkpt lat="43.663090722611194" lon="6.761719053907238"><ele>261.0</ele><time>2026-04-12T07:39:47Z</time></trkpt><trkpt lat="43.6631721863359" lon="6.761668308814048"><ele>259.0</ele><time>2026-04-12T07:39:48Z</time></trkpt><trkpt lat="43.66326023304967" lon="6.761657663308862"><ele>257.0</ele><time>2026-04-12T07:39:49Z</time></trkpt><trkpt lat="43.66335306412406" lon="6.7616997834537065"><ele>255.0</ele><time>2026-04-12T07:39:50Z</time></trkpt><trkpt lat="43.66345287713607" lon="6.761723842017071"><ele>255.0</ele><time>2026-04-12T07:39:51Z</time></trkpt><trkpt lat="43.6635577433699" lon="6.761731797558829"><ele>255.0</ele><time>2026-04-12T07:39:52Z</time></trkpt><trkpt lat="43.6636854367917" lon="6.7617378906950245"><ele>255.0</ele><time>2026-04-12T07:39:53Z</time></trkpt><trkpt lat="43.66378547219996" lon="6.761716972665854"><ele>255.0</ele><time>2026-04-12T07:39:54Z</time></trkpt><trkpt lat="43.66387915392022" lon="6.761744750828396"><ele>255.0</ele><time>2026-04-12T07:39:55Z</time></trkpt><trkpt lat="43.66395831860694" lon="6.761778592766477"><ele>252.4</ele><time>2026-04-12T07:39:56Z</time></trkpt><trkpt lat="43.66403756070265" lon="6.7617994547874325"><ele>249.8</ele><time>2026-04-12T07:39:57Z</time></trkpt><trkpt lat="43.66412153873529" lon="6.7617735076772165"><ele>247.2</ele><time>2026-04-12T07:39:58Z</time></trkpt><trkpt lat="43.664207277449286" lon="6.761729805617597"><ele>244.6</ele><time>2026-04-12T07:39:59Z</time></trkpt><trkpt lat="43.66429947947833" lon="6.761692998049495"><ele>242.0</ele><time>2026-04-12T07:40:00Z</time></trkpt><trkpt lat="43.66439599844632" lon="6.761666975724554"><ele>239.8</ele><time>2026-04-12T07:40:01Z</time></trkpt><trkpt lat="43.66449971600886" lon="6.761652441987898"><ele>237.6</ele><time>2026-04-12T07:40:02Z</time></trkpt><trkpt lat="43.66460048107668" lon="6.761618208930147"><ele>235.40000000000003</ele><time>2026-04-12T07:40:03Z</time></trkpt><trkpt lat="43.66470381373721" lon="6.761590072647311"><ele>233.20000000000002</ele><time>2026-04-12T07:40:04Z</time></trkpt><trkpt lat="43.66481001828463" lon="6.7615576856646555"><ele>231.0</ele><time>2026-04-12T07:40:05Z</time></trkpt><trkpt lat="43.66490972141705" lon="6.761527984588101"><ele>231.0</ele><time>2026-04-12T07:40:06Z</time></trkpt><trkpt lat="43.66500546762271" lon="6.761506805003369"><ele>231.0</ele><time>2026-04-12T07:40:07Z</time></trkpt><trkpt lat="43.665094237786676" lon="6.761500533717157"><ele>231.0</ele><time>2026-04-12T07:40:08Z</time></trkpt><trkpt lat="43.66516910316851" lon="6.761505666174636"><ele>231.0</ele><time>2026-04-12T07:40:09Z</time></trkpt><trkpt lat="43.66524170973932" lon="6.761490553483493"><ele>231.0</ele><time>2026-04-12T07:40:10Z</time></trkpt><trkpt lat="43.66532532561392" lon="6.761462557774524"><ele>231.0</ele><time>2026-04-12T07:40:11Z</time></trkpt><trkpt lat="43.66540006186603" lon="6.761376152511511"><ele>230.66666666666666</ele><time>2026-04-12T07:40:12Z</time></trkpt><trkpt lat="43.66546819121368" lon="6.761286766572222"><ele>230.33333333333331</ele><time>2026-04-12T07:40:13Z</time></trkpt><trkpt lat="43.66553203668008" lon="6.761192296861435"><ele>230.0</ele><time>2026-04-12T07:40:14Z</time></trkpt><trkpt lat="43.66558735847085" lon="6.7610957869249715"><ele>229.66666666666666</ele><time>2026-04-12T07:40:15Z</time></trkpt><trkpt lat="43.665627586828165" lon="6.761002813537276"><ele>229.33333333333331</ele><time>2026-04-12T07:40:16Z</time></trkpt><trkpt lat="43.665657864773095" lon="6.760910451550638"><ele>229.0</ele><time>2026-04-12T07:40:17Z</time></trkpt><trkpt lat="43.66569305073591" lon="6.760829266455247"><ele>228.71428571428572</ele><time>2026-04-12T07:40:18Z</time></trkpt><trkpt lat="43.665737168511484" lon="6.7607558900587374"><ele>228.42857142857144</ele><time>2026-04-12T07:40:19Z</time></trkpt><trkpt lat="43.665773969115094" lon="6.760668414539259"><ele>228.14285714285717</ele><time>2026-04-12T07:40:20Z</time></trkpt><trkpt lat="43.665830331005345" lon="6.76061323562201"><ele>227.85714285714286</ele><time>2026-04-12T07:40:21Z</time></trkpt><trkpt lat="43.66588426722878" lon="6.760553653238717"><ele>227.5714285714286</ele><time>2026-04-12T07:40:22Z</time></trkpt><trkpt lat="43.6659427041557" lon="6.760506577779007"><ele>227.2857142857143</ele><time>2026-04-12T07:40:23Z</time></trkpt><trkpt lat="43.66600462517375" lon="6.760471362114846"><ele>227.0</ele><time>2026-04-12T07:40:24Z</time></trkpt><trkpt lat="43.666066279125396" lon="6.760453651817187"><ele>228.6</ele><time>2026-04-12T07:40:25Z</time></trkpt><trkpt lat="43.666181339410784" lon="6.760440926927745"><ele>230.2</ele><time>2026-04-12T07:40:27Z</time></trkpt><trkpt lat="43.66629046411906" lon="6.760472026977327"><ele>231.8</ele><time>2026-04-12T07:40:29Z</time></trkpt><trkpt lat="43.66638395560451" lon="6.760507298206199"><ele>233.4</ele><time>2026-04-12T07:40:31Z</time></trkpt><trkpt lat="43.66647865812535" lon="6.760523454620665"><ele>235.0</ele><time>2026-04-12T07:40:33Z</time></trkpt><trkpt lat="43.66656040967108" lon="6.760544310329636"><ele>234.99999999999997</ele><time>2026-04-12T07:40:35Z</time></trkpt><trkpt lat="43.66664365036539" lon="6.760563563178669"><ele>235.0</ele><time>2026-04-12T07:40:37Z</time></trkpt><trkpt lat="43.66671736609279" lon="6.760573855498107"><ele>235.0</ele><time>2026-04-12T07:40:39Z</time></trkpt><trkpt lat="43.66678438893738" lon="6.760575841450396"><ele>235.0</ele><time>2026-04-12T07:40:41Z</time></trkpt><trkpt lat="43.66685052133343" lon="6.7605931766314225"><ele>234.99999999999997</ele><time>2026-04-12T07:40:43Z</time></trkpt><trkpt lat="43.666936842385915" lon="6.760631911408327"><ele>235.0</ele><time>2026-04-12T07:40:46Z</time></trkpt><trkpt lat="43.666999310901666" lon="6.76060035664976"><ele>234.99999999999997</ele><time>2026-04-12T07:40:49Z</time></trkpt><trkpt lat="43.666980488805784" lon="6.760499614680292"><ele>235.0</ele><time>2026-04-12T07:40:53Z</time></trkpt><trkpt lat="43.66693207907403" lon="6.760432141391931"><ele>235.0</ele><time>2026-04-12T07:40:56Z</time></trkpt><trkpt lat="43.66688152571806" lon="6.760369919862172"><ele>235.0</ele><time>2026-04-12T07:40:59Z</time></trkpt><trkpt lat="43.666808559261675" lon="6.760293209255615"><ele>234.99999999999997</ele><time>2026-04-12T07:41:02Z</time></trkpt><trkpt lat="43.666732920316306" lon="6.760257222865837"><ele>235.0</ele><time>2026-04-12T07:41:05Z</time></trkpt><trkpt lat="43.666649844427475" lon="6.760247094663039"><ele>234.99999999999997</ele><time>2026-04-12T07:41:09Z</time></trkpt><trkpt lat="43.66655533540774" lon="6.760245962151719"><ele>235.0</ele><time>2026-04-12T07:41:12Z</time></trkpt><trkpt lat="43.66648142163334" lon="6.760247805097644"><ele>235.0</ele><time>2026-04-12T07:41:15Z</time></trkpt><trkpt lat="43.6664188885214" lon="6.760191092090389"><ele>235.0</ele><time>2026-04-12T07:41:18Z</time></trkpt><trkpt lat="43.666447813097655" lon="6.760111964758481"><ele>234.99999999999997</ele><time>2026-04-12T07:41:21Z</time></trkpt><trkpt lat="43.66652312940472" lon="6.760107275672385"><ele>235.0</ele><time>2026-04-12T07:41:25Z</time></trkpt><trkpt lat="43.66660047088887" lon="6.7601164198638894"><ele>237.0</ele><time>2026-04-12T07:41:29Z</time></trkpt><trkpt lat="43.6666693861929" lon="6.760103895313185"><ele>238.99999999999997</ele><time>2026-04-12T07:41:33Z</time></trkpt><trkpt lat="43.66673910423362" lon="6.760088170414587"><ele>241.0</ele><time>2026-04-12T07:41:36Z</time></trkpt><trkpt lat="43.66680496044969" lon="6.7600920110556535"><ele>243.0</ele><time>2026-04-12T07:41:40Z</time></trkpt><trkpt lat="43.66688995749655" lon="6.760132634479141"><ele>244.99999999999997</ele><time>2026-04-12T07:41:44Z</time></trkpt><trkpt lat="43.66696195035747" lon="6.760171560764946"><ele>247.0</ele><time>2026-04-12T07:41:48Z</time></trkpt><trkpt lat="43.66703165545186" lon="6.760207059001527"><ele>249.0</ele><time>2026-04-12T07:41:51Z</time></trkpt><trkpt lat="43.667096060017315" lon="6.760234478455585"><ele>249.0</ele><time>2026-04-12T07:41:55Z</time></trkpt><trkpt lat="43.66718189733636" lon="6.7602721993242"><ele>249.0</ele><time>2026-04-12T07:41:59Z</time></trkpt><trkpt lat="43.66725394676565" lon="6.76031481930514"><ele>249.0</ele><time>2026-04-12T07:42:03Z</time></trkpt><trkpt lat="43.66731326302105" lon="6.760350225268864"><ele>249.0</ele><time>2026-04-12T07:42:06Z</time></trkpt><trkpt lat="43.667382134395616" lon="6.760393574752457"><ele>249.0</ele><time>2026-04-12T07:42:09Z</time></trkpt><trkpt lat="43.667447340357576" lon="6.76044199134152"><ele>249.0</ele><time>2026-04-12T07:42:13Z</time></trkpt><trkpt lat="43.6675075881749" lon="6.760488667647869"><ele>249.0</ele><time>2026-04-12T07:42:16Z</time></trkpt><trkpt lat="43.667580307948036" lon="6.760544755175084"><ele>249.0</ele><time>2026-04-12T07:42:19Z</time></trkpt><trkpt lat="43.667643961381366" lon="6.760603532870448"><ele>249.0</ele><time>2026-04-12T07:42:23Z</time></trkpt><trkpt lat="43.66770511071064" lon="6.760658440687474"><ele>249.0</ele><time>2026-04-12T07:42:26Z</time></trkpt><trkpt lat="43.66776657515803" lon="6.760718418496998"><ele>249.0</ele><time>2026-04-12T07:42:29Z</time></trkpt><trkpt lat="43.66784087954684" lon="6.760790886322321"><ele>249.0</ele><time>2026-04-12T07:42:32Z</time></trkpt><trkpt lat="43.667919750127844" lon="6.7608583693351285"><ele>248.0</ele><time>2026-04-12T07:42:36Z</time></trkpt><trkpt lat="43.667985075018166" lon="6.7609156849142655"><ele>246.99999999999997</ele><time>2026-04-12T07:42:40Z</time></trkpt><trkpt lat="43.66804621323274" lon="6.7609654651849365"><ele>246.0</ele><time>2026-04-12T07:42:43Z</time></trkpt><trkpt lat="43.66811034794392" lon="6.761013613339208"><ele>245.0</ele><time>2026-04-12T07:42:46Z</time></trkpt><trkpt lat="43.66817445182378" lon="6.761055299366611"><ele>243.99999999999997</ele><time>2026-04-12T07:42:49Z</time></trkpt><trkpt lat="43.66825080715276" lon="6.761101274195242"><ele>243.0</ele><time>2026-04-12T07:42:52Z</time></trkpt><trkpt lat="43.66831357351882" lon="6.761121780024021"><ele>242.0</ele><time>2026-04-12T07:42:55Z</time></trkpt><trkpt lat="43.668377207554805" lon="6.7611325115326295"><ele>242.00000000000003</ele><time>2026-04-12T07:42:58Z</time></trkpt><trkpt lat="43.66844978345133" lon="6.761142774667353"><ele>242.0</ele><time>2026-04-12T07:43:01Z</time></trkpt><trkpt lat="43.66851834712822" lon="6.761148309663492"><ele>242.0</ele><time>2026-04-12T07:43:04Z</time></trkpt><trkpt lat="43.66861011140856" lon="6.7611480200530725"><ele>242.0</ele><time>2026-04-12T07:43:07Z</time></trkpt><trkpt lat="43.66867811000419" lon="6.761155487344998"><ele>242.00000000000003</ele><time>2026-04-12T07:43:10Z</time></trkpt><trkpt lat="43.66874831634327" lon="6.761157038221013"><ele>242.0</ele><time>2026-04-12T07:43:13Z</time></trkpt><trkpt lat="43.668829953292835" lon="6.7611501553449065"><ele>243.14285714285714</ele><time>2026-04-12T07:43:17Z</time></trkpt><trkpt lat="43.66889851291333" lon="6.761142595946961"><ele>244.28571428571428</ele><time>2026-04-12T07:43:20Z</time></trkpt><trkpt lat="43.66897224237481" lon="6.7611193014087645"><ele>245.42857142857142</ele><time>2026-04-12T07:43:24Z</time></trkpt><trkpt lat="43.66903873521815" lon="6.761098668814296"><ele>246.57142857142856</ele><time>2026-04-12T07:43:27Z</time></trkpt><trkpt lat="43.66911925691932" lon="6.761074000545699"><ele>247.71428571428572</ele><time>2026-04-12T07:43:30Z</time></trkpt><trkpt lat="43.66918373846806" lon="6.761032821720739"><ele>248.85714285714283</ele><time>2026-04-12T07:43:34Z</time></trkpt><trkpt lat="43.669240996403786" lon="6.760995786607053"><ele>250.0</ele><time>2026-04-12T07:43:37Z</time></trkpt><trkpt lat="43.66929410614963" lon="6.760942613615497"><ele>250.57142857142856</ele><time>2026-04-12T07:43:40Z</time></trkpt><trkpt lat="43.669355553677065" lon="6.760880250320259"><ele>251.14285714285717</ele><time>2026-04-12T07:43:43Z</time></trkpt><trkpt lat="43.66941102408253" lon="6.760817093174965"><ele>251.71428571428572</ele><time>2026-04-12T07:43:47Z</time></trkpt><trkpt lat="43.66945817514547" lon="6.760757651993396"><ele>252.28571428571428</ele><time>2026-04-12T07:43:50Z</time></trkpt><trkpt lat="43.66951313694463" lon="6.760683971171831"><ele>252.85714285714283</ele><time>2026-04-12T07:43:53Z</time></trkpt><trkpt lat="43.669563627264466" lon="6.760614130555794"><ele>253.42857142857144</ele><time>2026-04-12T07:43:57Z</time></trkpt><trkpt lat="43.66961569047178" lon="6.760558859637479"><ele>254.0</ele><time>2026-04-12T07:44:00Z</time></trkpt><trkpt lat="43.66968007825056" lon="6.76049752457455"><ele>254.00000000000003</ele><time>2026-04-12T07:44:03Z</time></trkpt><trkpt lat="43.66976576763345" lon="6.760456290070763"><ele>254.0</ele><time>2026-04-12T07:44:07Z</time></trkpt><trkpt lat="43.669833328023664" lon="6.760456431041966"><ele>254.0</ele><time>2026-04-12T07:44:10Z</time></trkpt><trkpt lat="43.66989828893611" lon="6.760407772009758"><ele>254.0</ele><time>2026-04-12T07:44:14Z</time></trkpt><trkpt lat="43.66995201260781" lon="6.760331798338785"><ele>254.00000000000003</ele><time>2026-04-12T07:44:17Z</time></trkpt><trkpt lat="43.66999694998028" lon="6.760247690078324"><ele>254.0</ele><time>2026-04-12T07:44:21Z</time></trkpt><trkpt lat="43.670071974568344" lon="6.760205188149643"><ele>256.14285714285717</ele><time>2026-04-12T07:44:24Z</time></trkpt><trkpt lat="43.670137525370656" lon="6.76018143061166"><ele>258.2857142857143</ele><time>2026-04-12T07:44:27Z</time></trkpt><trkpt lat="43.67020091628501" lon="6.760154914040736"><ele>260.42857142857144</ele><time>2026-04-12T07:44:30Z</time></trkpt><trkpt lat="43.670266912393444" lon="6.760135953788366"><ele>262.57142857142856</ele><time>2026-04-12T07:44:33Z</time></trkpt><trkpt lat="43.67033472977001" lon="6.760149001942633"><ele>264.7142857142857</ele><time>2026-04-12T07:44:36Z</time></trkpt><trkpt lat="43.67040295594878" lon="6.760143587119758"><ele>266.8571428571429</ele><time>2026-04-12T07:44:39Z</time></trkpt><trkpt lat="43.67047235451847" lon="6.760103208609225"><ele>269.0</ele><time>2026-04-12T07:44:43Z</time></trkpt><trkpt lat="43.670526370360776" lon="6.760046849257824"><ele>269.0</ele><time>2026-04-12T07:44:46Z</time></trkpt><trkpt lat="43.670582750419634" lon="6.759985837354795"><ele>269.0</ele><time>2026-04-12T07:44:49Z</time></trkpt><trkpt lat="43.67063876499101" lon="6.759922187818973"><ele>269.0</ele><time>2026-04-12T07:44:53Z</time></trkpt><trkpt lat="43.67069274831598" lon="6.759865314013581"><ele>269.0</ele><time>2026-04-12T07:44:56Z</time></trkpt><trkpt lat="43.67075516752599" lon="6.759810902064747"><ele>269.0</ele><time>2026-04-12T07:44:59Z</time></trkpt><trkpt lat="43.67081323648348" lon="6.7597738167406956"><ele>269.0</ele><time>2026-04-12T07:45:01Z</time></trkpt><trkpt lat="43.67087772437506" lon="6.759736298052506"><ele>269.0</ele><time>2026-04-12T07:45:04Z</time></trkpt><trkpt lat="43.67094940648158" lon="6.759713272252836"><ele>269.0</ele><time>2026-04-12T07:45:08Z</time></trkpt><trkpt lat="43.671016414293995" lon="6.759692510960149"><ele>269.0</ele><time>2026-04-12T07:45:11Z</time></trkpt><trkpt lat="43.6710906433337" lon="6.759666357964661"><ele>269.0</ele><time>2026-04-12T07:45:14Z</time></trkpt><trkpt lat="43.671167975912375" lon="6.75964115643782"><ele>269.0</ele><time>2026-04-12T07:45:18Z</time></trkpt><trkpt lat="43.67123331992883" lon="6.759609645362432"><ele>269.0</ele><time>2026-04-12T07:45:21Z</time></trkpt><trkpt lat="43.671304278508444" lon="6.7595654322511365"><ele>269.0</ele><time>2026-04-12T07:45:24Z</time></trkpt><trkpt lat="43.67137002852287" lon="6.759571089408868"><ele>269.0</ele><time>2026-04-12T07:45:27Z</time></trkpt><trkpt lat="43.67146678517533" lon="6.759610007636854"><ele>269.14285714285717</ele><time>2026-04-12T07:45:31Z</time></trkpt><trkpt lat="43.671532179404196" lon="6.759617321323708"><ele>269.28571428571433</ele><time>2026-04-12T07:45:34Z</time></trkpt><trkpt lat="43.67160211229736" lon="6.759603610075096"><ele>269.42857142857144</ele><time>2026-04-12T07:45:37Z</time></trkpt><trkpt lat="43.67166800864081" lon="6.759582964760167"><ele>269.57142857142856</ele><time>2026-04-12T07:45:40Z</time></trkpt><trkpt lat="43.67173735744802" lon="6.759557018589737"><ele>269.71428571428567</ele><time>2026-04-12T07:45:43Z</time></trkpt><trkpt lat="43.671816231743755" lon="6.759542305023352"><ele>269.85714285714283</ele><time>2026-04-12T07:45:47Z</time></trkpt><trkpt lat="43.67188983736876" lon="6.759542834634043"><ele>270.0</ele><time>2026-04-12T07:45:50Z</time></trkpt><trkpt lat="43.67198529902511" lon="6.759553413859485"><ele>270.0</ele><time>2026-04-12T07:45:53Z</time></trkpt><trkpt lat="43.67205160725614" lon="6.7595503762225295"><ele>270.0</ele><time>2026-04-12T07:45:56Z</time></trkpt><trkpt lat="43.67211627736876" lon="6.759546088947962"><ele>270.0</ele><time>2026-04-12T07:45:58Z</time></trkpt><trkpt lat="43.672192153192135" lon="6.759547359832896"><ele>270.0</ele><time>2026-04-12T07:46:01Z</time></trkpt><trkpt lat="43.67227056678166" lon="6.759550737592848"><ele>270.0</ele><time>2026-04-12T07:46:04Z</time></trkpt><trkpt lat="43.67235185818007" lon="6.759555855393146"><ele>270.0</ele><time>2026-04-12T07:46:07Z</time></trkpt><trkpt lat="43.672429707313704" lon="6.7595541024520465"><ele>270.0</ele><time>2026-04-12T07:46:10Z</time></trkpt><trkpt lat="43.67250783715961" lon="6.7595546598262635"><ele>270.0</ele><time>2026-04-12T07:46:13Z</time></trkpt><trkpt lat="43.67258528363336" lon="6.75955301371859"><ele>270.0</ele><time>2026-04-12T07:46:16Z</time></trkpt><trkpt lat="43.67265739899191" lon="6.75955463062172"><ele>270.0</ele><time>2026-04-12T07:46:19Z</time></trkpt><trkpt lat="43.67272649783088" lon="6.759557081301623"><ele>270.0</ele><time>2026-04-12T07:46:22Z</time></trkpt><trkpt lat="43.672794802856586" lon="6.759549241148983"><ele>270.0</ele><time>2026-04-12T07:46:25Z</time></trkpt><trkpt lat="43.6728594138531" lon="6.759524766108454"><ele>270.0</ele><time>2026-04-12T07:46:28Z</time></trkpt><trkpt lat="43.672920886791246" lon="6.759491570531097"><ele>270.0</ele><time>2026-04-12T07:46:31Z</time></trkpt><trkpt lat="43.67297691238496" lon="6.759425407315394"><ele>273.6666666666667</ele><time>2026-04-12T07:46:35Z</time></trkpt><trkpt lat="43.67302590371035" lon="6.75931873624285"><ele>277.3333333333333</ele><time>2026-04-12T07:46:39Z</time></trkpt><trkpt lat="43.67306398005525" lon="6.759241952535418"><ele>281.0</ele><time>2026-04-12T07:46:43Z</time></trkpt><trkpt lat="43.67310048834851" lon="6.759168095544983"><ele>284.66666666666663</ele><time>2026-04-12T07:46:45Z</time></trkpt><trkpt lat="43.67314544348278" lon="6.759072082992452"><ele>288.3333333333333</ele><time>2026-04-12T07:46:49Z</time></trkpt><trkpt lat="43.673203211447756" lon="6.759004156532942"><ele>292.0</ele><time>2026-04-12T07:46:53Z</time></trkpt><trkpt lat="43.67327177121446" lon="6.758947840415345"><ele>292.0</ele><time>2026-04-12T07:46:57Z</time></trkpt><trkpt lat="43.673347415627866" lon="6.758884945708331"><ele>292.0</ele><time>2026-04-12T07:47:01Z</time></trkpt><trkpt lat="43.67339865038577" lon="6.758797406526374"><ele>292.0</ele><time>2026-04-12T07:47:05Z</time></trkpt><trkpt lat="43.6734315110541" lon="6.758714247845349"><ele>292.0</ele><time>2026-04-12T07:47:08Z</time></trkpt><trkpt lat="43.67348138688697" lon="6.758628364990875"><ele>292.0</ele><time>2026-04-12T07:47:11Z</time></trkpt><trkpt lat="43.67354236150312" lon="6.758603954527908"><ele>292.0</ele><time>2026-04-12T07:47:14Z</time></trkpt><trkpt lat="43.67362380483614" lon="6.7586229664550785"><ele>292.57142857142856</ele><time>2026-04-12T07:47:18Z</time></trkpt><trkpt lat="43.67369551256619" lon="6.758639460450689"><ele>293.14285714285717</ele><time>2026-04-12T07:47:22Z</time></trkpt><trkpt lat="43.67376560805616" lon="6.758650314429057"><ele>293.7142857142857</ele><time>2026-04-12T07:47:25Z</time></trkpt><trkpt lat="43.673839017289474" lon="6.75865145463191"><ele>294.2857142857143</ele><time>2026-04-12T07:47:27Z</time></trkpt><trkpt lat="43.67391419624536" lon="6.7586420972608305"><ele>294.85714285714283</ele><time>2026-04-12T07:47:30Z</time></trkpt><trkpt lat="43.673978800958466" lon="6.758637404777405"><ele>295.42857142857144</ele><time>2026-04-12T07:47:33Z</time></trkpt><trkpt lat="43.67404647560367" lon="6.75864528547885"><ele>296.0</ele><time>2026-04-12T07:47:35Z</time></trkpt><trkpt lat="43.674121965199475" lon="6.7586676976325375"><ele>296.0</ele><time>2026-04-12T07:47:38Z</time></trkpt><trkpt lat="43.67419659531755" lon="6.75870705105574"><ele>296.0</ele><time>2026-04-12T07:47:41Z</time></trkpt><trkpt lat="43.674262089093006" lon="6.758762515091004"><ele>296.0</ele><time>2026-04-12T07:47:44Z</time></trkpt><trkpt lat="43.67431655023402" lon="6.758834840448458"><ele>296.0</ele><time>2026-04-12T07:47:47Z</time></trkpt><trkpt lat="43.674363473447606" lon="6.758911619807713"><ele>296.0</ele><time>2026-04-12T07:47:50Z</time></trkpt><trkpt lat="43.67440934831655" lon="6.758984910136162"><ele>296.0</ele><time>2026-04-12T07:47:53Z</time></trkpt><trkpt lat="43.67445361803089" lon="6.7590580882627815"><ele>296.0</ele><time>2026-04-12T07:47:56Z</time></trkpt><trkpt lat="43.67449658963899" lon="6.759130103152719"><ele>299.1666666666667</ele><time>2026-04-12T07:47:59Z</time></trkpt><trkpt lat="43.67453767744416" lon="6.759210373766135"><ele>302.33333333333337</ele><time>2026-04-12T07:48:03Z</time></trkpt><trkpt lat="43.67456390290419" lon="6.759291034430261"><ele>305.5</ele><time>2026-04-12T07:48:06Z</time></trkpt><trkpt lat="43.67458867991667" lon="6.759398608996741"><ele>308.6666666666667</ele><time>2026-04-12T07:48:09Z</time></trkpt><trkpt lat="43.67461668011095" lon="6.759494203594048"><ele>311.8333333333333</ele><time>2026-04-12T07:48:13Z</time></trkpt><trkpt lat="43.674648686971025" lon="6.759608899391491"><ele>315.0</ele><time>2026-04-12T07:48:17Z</time></trkpt><trkpt lat="43.674679322928036" lon="6.759696128695767"><ele>315.0</ele><time>2026-04-12T07:48:20Z</time></trkpt><trkpt lat="43.674715588244496" lon="6.759773552075565"><ele>315.0</ele><time>2026-04-12T07:48:23Z</time></trkpt><trkpt lat="43.67476124299077" lon="6.759866044867282"><ele>315.0</ele><time>2026-04-12T07:48:27Z</time></trkpt><trkpt lat="43.67480122063427" lon="6.759957232003709"><ele>315.0</ele><time>2026-04-12T07:48:31Z</time></trkpt><trkpt lat="43.67483659345173" lon="6.760033887596659"><ele>315.0</ele><time>2026-04-12T07:48:34Z</time></trkpt><trkpt lat="43.674875244839264" lon="6.760127817043912"><ele>315.0</ele><time>2026-04-12T07:48:37Z</time></trkpt><trkpt lat="43.67491248373306" lon="6.760206389495518"><ele>315.0</ele><time>2026-04-12T07:48:40Z</time></trkpt><trkpt lat="43.67495440350153" lon="6.760280114748052"><ele>313.0</ele><time>2026-04-12T07:48:43Z</time></trkpt><trkpt lat="43.67500152560996" lon="6.760354958099294"><ele>311.0</ele><time>2026-04-12T07:48:47Z</time></trkpt><trkpt lat="43.675059358114424" lon="6.76038940927448"><ele>309.0</ele><time>2026-04-12T07:48:50Z</time></trkpt><trkpt lat="43.675135712656726" lon="6.760369656365517"><ele>307.0</ele><time>2026-04-12T07:48:53Z</time></trkpt><trkpt lat="43.67519425027373" lon="6.7603102540023965"><ele>305.0</ele><time>2026-04-12T07:48:57Z</time></trkpt><trkpt lat="43.67525082192614" lon="6.760267658154659"><ele>303.0</ele><time>2026-04-12T07:49:00Z</time></trkpt><trkpt lat="43.67531679651427" lon="6.7602281271562825"><ele>301.0</ele><time>2026-04-12T07:49:03Z</time></trkpt><trkpt lat="43.67538531131396" lon="6.760202844963145"><ele>307.5</ele><time>2026-04-12T07:49:07Z</time></trkpt><trkpt lat="43.67544779765711" lon="6.760183312250495"><ele>314.0</ele><time>2026-04-12T07:49:10Z</time></trkpt><trkpt lat="43.675535214450385" lon="6.7601644167542725"><ele>320.5</ele><time>2026-04-12T07:49:14Z</time></trkpt><trkpt lat="43.67562243180605" lon="6.760152649834077"><ele>327.0</ele><time>2026-04-12T07:49:18Z</time></trkpt><trkpt lat="43.67570611543718" lon="6.76015132036901"><ele>333.5</ele><time>2026-04-12T07:49:21Z</time></trkpt><trkpt lat="43.67577376513691" lon="6.760160523699965"><ele>340.0</ele><time>2026-04-12T07:49:24Z</time></trkpt><trkpt lat="43.67583955003942" lon="6.7601666384900305"><ele>340.0</ele><time>2026-04-12T07:49:27Z</time></trkpt><trkpt lat="43.67590722922884" lon="6.760168425908603"><ele>340.0</ele><time>2026-04-12T07:49:30Z</time></trkpt><trkpt lat="43.67597720930552" lon="6.760179913448191"><ele>340.0</ele><time>2026-04-12T07:49:33Z</time></trkpt><trkpt lat="43.67605074377885" lon="6.760195152833597"><ele>340.0</ele><time>2026-04-12T07:49:36Z</time></trkpt><trkpt lat="43.676131146081886" lon="6.760199693124573"><ele>340.0</ele><time>2026-04-12T07:49:40Z</time></trkpt><trkpt lat="43.67620947721348" lon="6.760208480872635"><ele>340.0</ele><time>2026-04-12T07:49:43Z</time></trkpt><trkpt lat="43.67628124904072" lon="6.760213178622925"><ele>340.0</ele><time>2026-04-12T07:49:47Z</time></trkpt><trkpt lat="43.676348535579095" lon="6.760219880539161"><ele>336.14285714285717</ele><time>2026-04-12T07:49:50Z</time></trkpt><trkpt lat="43.676413230781776" lon="6.760230158050455"><ele>332.2857142857143</ele><time>2026-04-12T07:49:53Z</time></trkpt><trkpt lat="43.67648933258501" lon="6.760243067559796"><ele>328.42857142857144</ele><time>2026-04-12T07:49:56Z</time></trkpt><trkpt lat="43.67656291938159" lon="6.7602564682165935"><ele>324.57142857142856</ele><time>2026-04-12T07:50:00Z</time></trkpt><trkpt lat="43.676625426793294" lon="6.760278087304779"><ele>320.7142857142857</ele><time>2026-04-12T07:50:03Z</time></trkpt><trkpt lat="43.6766886839403" lon="6.760297001444141"><ele>316.85714285714283</ele><time>2026-04-12T07:50:05Z</time></trkpt><trkpt lat="43.67675031261979" lon="6.760316387434846"><ele>313.0</ele><time>2026-04-12T07:50:08Z</time></trkpt><trkpt lat="43.67682435079457" lon="6.760340373770665"><ele>313.0</ele><time>2026-04-12T07:50:12Z</time></trkpt><trkpt lat="43.67690566034285" lon="6.760363853929284"><ele>313.0</ele><time>2026-04-12T07:50:16Z</time></trkpt><trkpt lat="43.67698261344699" lon="6.760387457573273"><ele>313.0</ele><time>2026-04-12T07:50:19Z</time></trkpt><trkpt lat="43.677056313939865" lon="6.760405442934431"><ele>313.0</ele><time>2026-04-12T07:50:23Z</time></trkpt><trkpt lat="43.67712358203148" lon="6.760431410973534"><ele>313.0</ele><time>2026-04-12T07:50:26Z</time></trkpt><trkpt lat="43.67719342545181" lon="6.7604428792553115"><ele>313.0</ele><time>2026-04-12T07:50:29Z</time></trkpt><trkpt lat="43.67725699760465" lon="6.7604253140378905"><ele>313.0</ele><time>2026-04-12T07:50:32Z</time></trkpt><trkpt lat="43.67729081974008" lon="6.760346385900183"><ele>315.5</ele><time>2026-04-12T07:50:35Z</time></trkpt><trkpt lat="43.67725346097628" lon="6.760271096444066"><ele>318.0</ele><time>2026-04-12T07:50:39Z</time></trkpt><trkpt lat="43.677175675765106" lon="6.760247521981105"><ele>320.5</ele><time>2026-04-12T07:50:43Z</time></trkpt><trkpt lat="43.6770979933671" lon="6.760238648447633"><ele>323.0</ele><time>2026-04-12T07:50:47Z</time></trkpt><trkpt lat="43.67703328049073" lon="6.7602281121892736"><ele>325.5</ele><time>2026-04-12T07:50:50Z</time></trkpt><trkpt lat="43.67695319837418" lon="6.760196925631457"><ele>328.0</ele><time>2026-04-12T07:50:54Z</time></trkpt><trkpt lat="43.67687685766106" lon="6.760155016107786"><ele>330.85714285714283</ele><time>2026-04-12T07:50:58Z</time></trkpt><trkpt lat="43.6768083087845" lon="6.760112942268227"><ele>333.7142857142857</ele><time>2026-04-12T07:51:01Z</time></trkpt><trkpt lat="43.67673830263003" lon="6.760067994936035"><ele>336.57142857142856</ele><time>2026-04-12T07:51:05Z</time></trkpt><trkpt lat="43.67667556404417" lon="6.760037731720529"><ele>339.42857142857144</ele><time>2026-04-12T07:51:08Z</time></trkpt><trkpt lat="43.67660453638428" lon="6.759998490523761"><ele>342.2857142857143</ele><time>2026-04-12T07:51:11Z</time></trkpt><trkpt lat="43.67653512677385" lon="6.759958582425785"><ele>345.1428571428571</ele><time>2026-04-12T07:51:15Z</time></trkpt><trkpt lat="43.676473832666126" lon="6.759921543485916"><ele>348.0</ele><time>2026-04-12T07:51:18Z</time></trkpt><trkpt lat="43.6764117737638" lon="6.759886783852087"><ele>348.0</ele><time>2026-04-12T07:51:21Z</time></trkpt><trkpt lat="43.67634567446174" lon="6.759848260766039"><ele>348.0</ele><time>2026-04-12T07:51:24Z</time></trkpt><trkpt lat="43.67627984449344" lon="6.75979107152974"><ele>348.0</ele><time>2026-04-12T07:51:28Z</time></trkpt><trkpt lat="43.67621542864549" lon="6.759761885676732"><ele>348.0</ele><time>2026-04-12T07:51:31Z</time></trkpt><trkpt lat="43.67614407187294" lon="6.759748563926643"><ele>348.0</ele><time>2026-04-12T07:51:34Z</time></trkpt><trkpt lat="43.676063817628666" lon="6.759738254035339"><ele>348.0</ele><time>2026-04-12T07:51:37Z</time></trkpt><trkpt lat="43.675982303389375" lon="6.7597326829564865"><ele>346.85714285714283</ele><time>2026-04-12T07:51:41Z</time></trkpt><trkpt lat="43.67591207630029" lon="6.759725821653379"><ele>345.7142857142857</ele><time>2026-04-12T07:51:44Z</time></trkpt><trkpt lat="43.675842327690816" lon="6.759721217866994"><ele>344.57142857142856</ele><time>2026-04-12T07:51:47Z</time></trkpt><trkpt lat="43.675764202720735" lon="6.759714755487874"><ele>343.42857142857144</ele><time>2026-04-12T07:51:50Z</time></trkpt><trkpt lat="43.675689546859054" lon="6.759706893576683"><ele>342.2857142857143</ele><time>2026-04-12T07:51:54Z</time></trkpt><trkpt lat="43.675620694208824" lon="6.759702637667163"><ele>341.14285714285717</ele><time>2026-04-12T07:51:57Z</time></trkpt><trkpt lat="43.67553982619499" lon="6.759698053974836"><ele>340.0</ele><time>2026-04-12T07:52:00Z</time></trkpt><trkpt lat="43.67546802169984" lon="6.759690740729779"><ele>340.0</ele><time>2026-04-12T07:52:04Z</time></trkpt><trkpt lat="43.67540658017731" lon="6.759670438423213"><ele>340.0</ele><time>2026-04-12T07:52:07Z</time></trkpt><trkpt lat="43.675346045971594" lon="6.759620839180055"><ele>340.0</ele><time>2026-04-12T07:52:10Z</time></trkpt><trkpt lat="43.67530562269128" lon="6.759552990908185"><ele>340.0</ele><time>2026-04-12T07:52:12Z</time></trkpt><trkpt lat="43.67527861172586" lon="6.759456326441699"><ele>340.0</ele><time>2026-04-12T07:52:15Z</time></trkpt><trkpt lat="43.67524802577171" lon="6.759361144969041"><ele>340.0</ele><time>2026-04-12T07:52:18Z</time></trkpt><trkpt lat="43.67522509888653" lon="6.759270549430941"><ele>340.0</ele><time>2026-04-12T07:52:21Z</time></trkpt><trkpt lat="43.67520501760479" lon="6.759186176225567"><ele>340.2857142857143</ele><time>2026-04-12T07:52:24Z</time></trkpt><trkpt lat="43.67518117262133" lon="6.759084803517008"><ele>340.57142857142856</ele><time>2026-04-12T07:52:28Z</time></trkpt><trkpt lat="43.67515726462639" lon="6.758996738940407"><ele>340.85714285714283</ele><time>2026-04-12T07:52:31Z</time></trkpt><trkpt lat="43.67513719943244" lon="6.758909215839827"><ele>341.1428571428571</ele><time>2026-04-12T07:52:34Z</time></trkpt><trkpt lat="43.67511329597186" lon="6.758807773207259"><ele>341.42857142857144</ele><time>2026-04-12T07:52:37Z</time></trkpt><trkpt lat="43.67508909840059" lon="6.7587061982083965"><ele>341.71428571428567</ele><time>2026-04-12T07:52:41Z</time></trkpt><trkpt lat="43.675066087117145" lon="6.758620683833848"><ele>342.0</ele><time>2026-04-12T07:52:44Z</time></trkpt><trkpt lat="43.67503344189372" lon="6.758533032784364"><ele>345.85714285714283</ele><time>2026-04-12T07:52:47Z</time></trkpt><trkpt lat="43.67500261584656" lon="6.758444823264009"><ele>349.7142857142857</ele><time>2026-04-12T07:52:50Z</time></trkpt><trkpt lat="43.6749680627803" lon="6.758370229961805"><ele>353.57142857142856</ele><time>2026-04-12T07:52:53Z</time></trkpt><trkpt lat="43.674910819996896" lon="6.758262991588998"><ele>357.42857142857144</ele><time>2026-04-12T07:52:57Z</time></trkpt><trkpt lat="43.67487523277523" lon="6.758190652144974"><ele>361.2857142857143</ele><time>2026-04-12T07:53:00Z</time></trkpt><trkpt lat="43.67483095343194" lon="6.758115794116599"><ele>365.1428571428571</ele><time>2026-04-12T07:53:03Z</time></trkpt><trkpt lat="43.67478722400449" lon="6.758039367824155"><ele>369.0</ele><time>2026-04-12T07:53:06Z</time></trkpt><trkpt lat="43.67473671275302" lon="6.757946008820893"><ele>369.0</ele><time>2026-04-12T07:53:10Z</time></trkpt><trkpt lat="43.6746866928373" lon="6.757868608326775"><ele>369.0</ele><time>2026-04-12T07:53:14Z</time></trkpt><trkpt lat="43.674636500616856" lon="6.757800472921109"><ele>369.0</ele><time>2026-04-12T07:53:17Z</time></trkpt><trkpt lat="43.67458226671725" lon="6.757748644046605"><ele>369.0</ele><time>2026-04-12T07:53:20Z</time></trkpt><trkpt lat="43.67451525923727" lon="6.757697943290295"><ele>369.0</ele><time>2026-04-12T07:53:24Z</time></trkpt><trkpt lat="43.674455344142075" lon="6.757660720053571"><ele>369.0</ele><time>2026-04-12T07:53:27Z</time></trkpt><trkpt lat="43.674393173699606" lon="6.757624375796426"><ele>369.0</ele><time>2026-04-12T07:53:30Z</time></trkpt><trkpt lat="43.67432118676149" lon="6.757588908680787"><ele>370.2857142857143</ele><time>2026-04-12T07:53:33Z</time></trkpt><trkpt lat="43.67424563731858" lon="6.757581462606242"><ele>371.57142857142856</ele><time>2026-04-12T07:53:37Z</time></trkpt><trkpt lat="43.67417883533584" lon="6.757597859808886"><ele>372.8571428571429</ele><time>2026-04-12T07:53:39Z</time></trkpt><trkpt lat="43.67411994417373" lon="6.75764529202716"><ele>374.1428571428571</ele><time>2026-04-12T07:53:42Z</time></trkpt><trkpt lat="43.67406466219359" lon="6.757706947646303"><ele>375.42857142857144</ele><time>2026-04-12T07:53:45Z</time></trkpt><trkpt lat="43.67401252206766" lon="6.757769333655401"><ele>376.7142857142857</ele><time>2026-04-12T07:53:48Z</time></trkpt><trkpt lat="43.67394175528505" lon="6.757797436814325"><ele>378.0</ele><time>2026-04-12T07:53:52Z</time></trkpt><trkpt lat="43.673888643322954" lon="6.757749424474387"><ele>378.0</ele><time>2026-04-12T07:53:55Z</time></trkpt><trkpt lat="43.673897352520534" lon="6.757631925995018"><ele>378.0</ele><time>2026-04-12T07:53:59Z</time></trkpt><trkpt lat="43.673958965935206" lon="6.75757031988802"><ele>378.0</ele><time>2026-04-12T07:54:03Z</time></trkpt><trkpt lat="43.6740134816104" lon="6.757526524534559"><ele>378.0</ele><time>2026-04-12T07:54:06Z</time></trkpt><trkpt lat="43.674089763545275" lon="6.75746803504229"><ele>378.0</ele><time>2026-04-12T07:54:10Z</time></trkpt><trkpt lat="43.674165421257385" lon="6.75743542801192"><ele>378.0</ele><time>2026-04-12T07:54:14Z</time></trkpt><trkpt lat="43.67423671435126" lon="6.757415065780534"><ele>378.0</ele><time>2026-04-12T07:54:17Z</time></trkpt><trkpt lat="43.67431121214495" lon="6.757413620890513"><ele>378.0</ele><time>2026-04-12T07:54:21Z</time></trkpt><trkpt lat="43.67437917816193" lon="6.757423875738674"><ele>378.0</ele><time>2026-04-12T07:54:24Z</time></trkpt><trkpt lat="43.67444485225213" lon="6.7574431326830755"><ele>378.0</ele><time>2026-04-12T07:54:27Z</time></trkpt><trkpt lat="43.67452649252946" lon="6.757472484241977"><ele>378.0</ele><time>2026-04-12T07:54:31Z</time></trkpt><trkpt lat="43.674596449864" lon="6.757501226289427"><ele>378.0</ele><time>2026-04-12T07:54:34Z</time></trkpt><trkpt lat="43.67466412657473" lon="6.7575379820261015"><ele>378.0</ele><time>2026-04-12T07:54:37Z</time></trkpt><trkpt lat="43.674734078937476" lon="6.757585830149442"><ele>376.7142857142857</ele><time>2026-04-12T07:54:41Z</time></trkpt><trkpt lat="43.674791871990365" lon="6.757634002256857"><ele>375.42857142857144</ele><time>2026-04-12T07:54:44Z</time></trkpt><trkpt lat="43.67484903007824" lon="6.7576887781365125"><ele>374.1428571428571</ele><time>2026-04-12T07:54:47Z</time></trkpt><trkpt lat="43.67490913599477" lon="6.757748589086308"><ele>372.8571428571429</ele><time>2026-04-12T07:54:50Z</time></trkpt><trkpt lat="43.67497119336487" lon="6.7578140692665025"><ele>371.57142857142856</ele><time>2026-04-12T07:54:54Z</time></trkpt><trkpt lat="43.67502813052812" lon="6.757870307376151"><ele>370.2857142857143</ele><time>2026-04-12T07:54:57Z</time></trkpt><trkpt lat="43.67509301816417" lon="6.757938863473579"><ele>369.0</ele><time>2026-04-12T07:55:00Z</time></trkpt><trkpt lat="43.67515083504849" lon="6.758000008216286"><ele>369.0</ele><time>2026-04-12T07:55:04Z</time></trkpt><trkpt lat="43.67520245970466" lon="6.758063811407316"><ele>369.0</ele><time>2026-04-12T07:55:07Z</time></trkpt><trkpt lat="43.67525220594066" lon="6.758127124122809"><ele>369.0</ele><time>2026-04-12T07:55:10Z</time></trkpt><trkpt lat="43.675300220276846" lon="6.758194827009835"><ele>369.0</ele><time>2026-04-12T07:55:13Z</time></trkpt><trkpt lat="43.675346687544334" lon="6.758277146321317"><ele>369.0</ele><time>2026-04-12T07:55:16Z</time></trkpt><trkpt lat="43.67539397895838" lon="6.758369124436776"><ele>369.0</ele><time>2026-04-12T07:55:20Z</time></trkpt><trkpt lat="43.67542758990434" lon="6.758455116259276"><ele>369.0</ele><time>2026-04-12T07:55:23Z</time></trkpt><trkpt lat="43.675458390956976" lon="6.7585414019290795"><ele>370.6666666666667</ele><time>2026-04-12T07:55:26Z</time></trkpt><trkpt lat="43.67550186688308" lon="6.758628551537812"><ele>372.3333333333333</ele><time>2026-04-12T07:55:29Z</time></trkpt><trkpt lat="43.675546860492794" lon="6.758698654411802"><ele>374.0</ele><time>2026-04-12T07:55:32Z</time></trkpt><trkpt lat="43.67561304321157" lon="6.758769433475924"><ele>375.66666666666663</ele><time>2026-04-12T07:55:35Z</time></trkpt><trkpt lat="43.675699929332126" lon="6.758816789146352"><ele>377.3333333333333</ele><time>2026-04-12T07:55:39Z</time></trkpt><trkpt lat="43.67577396415699" lon="6.758829051281634"><ele>379.0</ele><time>2026-04-12T07:55:43Z</time></trkpt><trkpt lat="43.67583929868531" lon="6.758831365810769"><ele>379.00000000000006</ele><time>2026-04-12T07:55:46Z</time></trkpt><trkpt lat="43.6759089230473" lon="6.758836560476222"><ele>379.0</ele><time>2026-04-12T07:55:49Z</time></trkpt><trkpt lat="43.67598803301319" lon="6.758838749818002"><ele>379.0</ele><time>2026-04-12T07:55:52Z</time></trkpt><trkpt lat="43.676061309062824" lon="6.75884492419675"><ele>379.0</ele><time>2026-04-12T07:55:56Z</time></trkpt><trkpt lat="43.67612433524136" lon="6.7588455238791525"><ele>379.0</ele><time>2026-04-12T07:55:59Z</time></trkpt><trkpt lat="43.6762090909722" lon="6.7588487655731475"><ele>379.00000000000006</ele><time>2026-04-12T07:56:02Z</time></trkpt><trkpt lat="43.676274464875725" lon="6.7588539212369785"><ele>379.0</ele><time>2026-04-12T07:56:05Z</time></trkpt><trkpt lat="43.676343047710446" lon="6.7588472291981105"><ele>381.3333333333333</ele><time>2026-04-12T07:56:08Z</time></trkpt><trkpt lat="43.676407890184194" lon="6.75885344598932"><ele>383.66666666666663</ele><time>2026-04-12T07:56:11Z</time></trkpt><trkpt lat="43.676482676388986" lon="6.7588507744913615"><ele>386.0</ele><time>2026-04-12T07:56:15Z</time></trkpt><trkpt lat="43.67655394400531" lon="6.758847214264274"><ele>388.3333333333333</ele><time>2026-04-12T07:56:18Z</time></trkpt><trkpt lat="43.67663427679647" lon="6.7588620676639675"><ele>390.6666666666667</ele><time>2026-04-12T07:56:21Z</time></trkpt><trkpt lat="43.67672490845715" lon="6.75887806493851"><ele>393.0</ele><time>2026-04-12T07:56:25Z</time></trkpt><trkpt lat="43.67679562375652" lon="6.7589045884805525"><ele>393.00000000000006</ele><time>2026-04-12T07:56:28Z</time></trkpt><trkpt lat="43.67685555545757" lon="6.758948300330166"><ele>393.0</ele><time>2026-04-12T07:56:31Z</time></trkpt><trkpt lat="43.67691926230959" lon="6.758993195238359"><ele>393.0</ele><time>2026-04-12T07:56:35Z</time></trkpt><trkpt lat="43.676976342935454" lon="6.759033433014861"><ele>393.0</ele><time>2026-04-12T07:56:38Z</time></trkpt><trkpt lat="43.67703551507595" lon="6.759064017102646"><ele>393.0</ele><time>2026-04-12T07:56:41Z</time></trkpt><trkpt lat="43.67713059426545" lon="6.759096418816284"><ele>393.00000000000006</ele><time>2026-04-12T07:56:45Z</time></trkpt><trkpt lat="43.6771982606558" lon="6.759111646298661"><ele>393.0</ele><time>2026-04-12T07:56:48Z</time></trkpt><trkpt lat="43.67727942809122" lon="6.759117241518443"><ele>394.5714285714286</ele><time>2026-04-12T07:56:52Z</time></trkpt><trkpt lat="43.67734243684961" lon="6.759119433060316"><ele>396.14285714285717</ele><time>2026-04-12T07:56:55Z</time></trkpt><trkpt lat="43.67740668588564" lon="6.759119914713949"><ele>397.7142857142857</ele><time>2026-04-12T07:56:58Z</time></trkpt><trkpt lat="43.67747162083233" lon="6.759123650499663"><ele>399.28571428571433</ele><time>2026-04-12T07:57:01Z</time></trkpt><trkpt lat="43.677538585276366" lon="6.759130464771615"><ele>400.85714285714283</ele><time>2026-04-12T07:57:04Z</time></trkpt><trkpt lat="43.67761258318109" lon="6.759135401761204"><ele>402.42857142857144</ele><time>2026-04-12T07:57:07Z</time></trkpt><trkpt lat="43.67768829720989" lon="6.759141913601088"><ele>404.0</ele><time>2026-04-12T07:57:11Z</time></trkpt><trkpt lat="43.67778662698876" lon="6.759158176912407"><ele>404.42857142857144</ele><time>2026-04-12T07:57:15Z</time></trkpt><trkpt lat="43.677863390720645" lon="6.759148875825498"><ele>404.85714285714283</ele><time>2026-04-12T07:57:19Z</time></trkpt><trkpt lat="43.67793076695411" lon="6.759132901674433"><ele>405.28571428571433</ele><time>2026-04-12T07:57:21Z</time></trkpt><trkpt lat="43.67799387854978" lon="6.759106697906112"><ele>405.7142857142857</ele><time>2026-04-12T07:57:24Z</time></trkpt><trkpt lat="43.67805338558564" lon="6.759071162555635"><ele>406.14285714285717</ele><time>2026-04-12T07:57:27Z</time></trkpt><trkpt lat="43.678112081650454" lon="6.759026308894725"><ele>406.5714285714286</ele><time>2026-04-12T07:57:30Z</time></trkpt><trkpt lat="43.67817596583863" lon="6.758980069697796"><ele>407.0</ele><time>2026-04-12T07:57:33Z</time></trkpt><trkpt lat="43.67824903484006" lon="6.758937201961314"><ele>407.00000000000006</ele><time>2026-04-12T07:57:37Z</time></trkpt><trkpt lat="43.67831788496624" lon="6.758911699048433"><ele>407.0</ele><time>2026-04-12T07:57:40Z</time></trkpt><trkpt lat="43.67837974481384" lon="6.75888885009278"><ele>407.0</ele><time>2026-04-12T07:57:42Z</time></trkpt><trkpt lat="43.67844458431267" lon="6.758879590978144"><ele>407.0</ele><time>2026-04-12T07:57:45Z</time></trkpt><trkpt lat="43.67851451901685" lon="6.7588626791409245"><ele>407.0</ele><time>2026-04-12T07:57:48Z</time></trkpt><trkpt lat="43.67858672844538" lon="6.758849429544759"><ele>407.00000000000006</ele><time>2026-04-12T07:57:51Z</time></trkpt><trkpt lat="43.67866248423406" lon="6.7588273224936275"><ele>407.0</ele><time>2026-04-12T07:57:55Z</time></trkpt><trkpt lat="43.678728030549564" lon="6.758814443936913"><ele>404.8571428571429</ele><time>2026-04-12T07:57:58Z</time></trkpt><trkpt lat="43.678803765355546" lon="6.758786445111943"><ele>402.7142857142857</ele><time>2026-04-12T07:58:01Z</time></trkpt><trkpt lat="43.67887469195044" lon="6.758753342758523"><ele>400.57142857142856</ele><time>2026-04-12T07:58:05Z</time></trkpt><trkpt lat="43.678932839601984" lon="6.758712383566853"><ele>398.42857142857144</ele><time>2026-04-12T07:58:08Z</time></trkpt><trkpt lat="43.67898931458504" lon="6.758663369208406"><ele>396.2857142857143</ele><time>2026-04-12T07:58:10Z</time></trkpt><trkpt lat="43.679048131967356" lon="6.758615244637053"><ele>394.14285714285717</ele><time>2026-04-12T07:58:13Z</time></trkpt><trkpt lat="43.67910866232143" lon="6.758551215530495"><ele>392.0</ele><time>2026-04-12T07:58:17Z</time></trkpt><trkpt lat="43.679173165038215" lon="6.75847756841453"><ele>395.2857142857143</ele><time>2026-04-12T07:58:20Z</time></trkpt><trkpt lat="43.679220487526806" lon="6.758411557792812"><ele>398.57142857142856</ele><time>2026-04-12T07:58:23Z</time></trkpt><trkpt lat="43.6792760539876" lon="6.758338031030819"><ele>401.8571428571429</ele><time>2026-04-12T07:58:27Z</time></trkpt><trkpt lat="43.67932601969055" lon="6.758282250531848"><ele>405.1428571428571</ele><time>2026-04-12T07:58:30Z</time></trkpt><trkpt lat="43.67939704076871" lon="6.7582319501801305"><ele>408.42857142857144</ele><time>2026-04-12T07:58:34Z</time></trkpt><trkpt lat="43.6794653356163" lon="6.758212606884122"><ele>411.7142857142857</ele><time>2026-04-12T07:58:37Z</time></trkpt><trkpt lat="43.67953691869347" lon="6.758199568395303"><ele>415.0</ele><time>2026-04-12T07:58:40Z</time></trkpt><trkpt lat="43.679600524109446" lon="6.758187568298941"><ele>415.0</ele><time>2026-04-12T07:58:43Z</time></trkpt><trkpt lat="43.67966628242518" lon="6.758180168390744"><ele>415.0</ele><time>2026-04-12T07:58:46Z</time></trkpt><trkpt lat="43.67973522318168" lon="6.75817130132512"><ele>415.0</ele><time>2026-04-12T07:58:49Z</time></trkpt><trkpt lat="43.6798032763356" lon="6.758162941353246"><ele>415.0</ele><time>2026-04-12T07:58:52Z</time></trkpt><trkpt lat="43.67987102104986" lon="6.758160907706293"><ele>415.0</ele><time>2026-04-12T07:58:55Z</time></trkpt><trkpt lat="43.67995173361122" lon="6.758159661931485"><ele>415.0</ele><time>2026-04-12T07:58:58Z</time></trkpt><trkpt lat="43.6800229500756" lon="6.758138587565214"><ele>415.0</ele><time>2026-04-12T07:59:02Z</time></trkpt><trkpt lat="43.68008434781538" lon="6.758104576211303"><ele>415.00000000000006</ele><time>2026-04-12T07:59:05Z</time></trkpt><trkpt lat="43.68013985900294" lon="6.7580420826342635"><ele>415.0</ele><time>2026-04-12T07:59:08Z</time></trkpt><trkpt lat="43.68018623619616" lon="6.757959253716276"><ele>415.0</ele><time>2026-04-12T07:59:11Z</time></trkpt><trkpt lat="43.68023231220908" lon="6.757869779642646"><ele>415.0</ele><time>2026-04-12T07:59:14Z</time></trkpt><trkpt lat="43.68026938909235" lon="6.757784688343862"><ele>415.00000000000006</ele><time>2026-04-12T07:59:18Z</time></trkpt><trkpt lat="43.68030596068705" lon="6.7576846706848"><ele>415.0</ele><time>2026-04-12T07:59:22Z</time></trkpt><trkpt lat="43.680331066193794" lon="6.7575739221339814"><ele>414.8571428571429</ele><time>2026-04-12T07:59:26Z</time></trkpt><trkpt lat="43.680349978512005" lon="6.757465427161818"><ele>414.7142857142857</ele><time>2026-04-12T07:59:29Z</time></trkpt><trkpt lat="43.680366847977886" lon="6.757371669159196"><ele>414.57142857142856</ele><time>2026-04-12T07:59:32Z</time></trkpt><trkpt lat="43.680373258389444" lon="6.757280173701155"><ele>414.42857142857144</ele><time>2026-04-12T07:59:35Z</time></trkpt><trkpt lat="43.6803802886885" lon="6.757160755955387"><ele>414.2857142857143</ele><time>2026-04-12T07:59:39Z</time></trkpt><trkpt lat="43.680387261953335" lon="6.757063451758471"><ele>414.14285714285717</ele><time>2026-04-12T07:59:43Z</time></trkpt><trkpt lat="43.68039153492721" lon="6.756966714445252"><ele>414.0</ele><time>2026-04-12T07:59:45Z</time></trkpt><trkpt lat="43.680394750098" lon="6.756877066400788"><ele>414.42857142857144</ele><time>2026-04-12T07:59:48Z</time></trkpt><trkpt lat="43.680398088030465" lon="6.7567781553654"><ele>414.8571428571429</ele><time>2026-04-12T07:59:51Z</time></trkpt><trkpt lat="43.68040538848388" lon="6.756682704029186"><ele>415.28571428571433</ele><time>2026-04-12T07:59:54Z</time></trkpt><trkpt lat="43.680408248724824" lon="6.756583615350588"><ele>415.7142857142857</ele><time>2026-04-12T07:59:57Z</time></trkpt><trkpt lat="43.680413082979186" lon="6.756486763801456"><ele>416.1428571428571</ele><time>2026-04-12T08:00:00Z</time></trkpt><trkpt lat="43.6804155651496" lon="6.75639036867558"><ele>416.5714285714286</ele><time>2026-04-12T08:00:03Z</time></trkpt><trkpt lat="43.68041774374985" lon="6.756295657354206"><ele>417.0</ele><time>2026-04-12T08:00:06Z</time></trkpt><trkpt lat="43.680423767678356" lon="6.756192262768401"><ele>417.0</ele><time>2026-04-12T08:00:10Z</time></trkpt><trkpt lat="43.68042198852778" lon="6.756076153492039"><ele>417.0</ele><time>2026-04-12T08:00:14Z</time></trkpt><trkpt lat="43.68042830207206" lon="6.755979707675793"><ele>417.0</ele><time>2026-04-12T08:00:17Z</time></trkpt><trkpt lat="43.68043217648709" lon="6.755871052191931"><ele>417.0</ele><time>2026-04-12T08:00:20Z</time></trkpt><trkpt lat="43.68043487714325" lon="6.755777437799292"><ele>417.0</ele><time>2026-04-12T08:00:23Z</time></trkpt><trkpt lat="43.68043882133956" lon="6.75567329605366"><ele>417.0</ele><time>2026-04-12T08:00:26Z</time></trkpt><trkpt lat="43.68044369650953" lon="6.755570170286201"><ele>417.8571428571429</ele><time>2026-04-12T08:00:29Z</time></trkpt><trkpt lat="43.68044617687865" lon="6.755482645353254"><ele>418.71428571428567</ele><time>2026-04-12T08:00:31Z</time></trkpt><trkpt lat="43.68043752880002" lon="6.7553813843210735"><ele>419.57142857142856</ele><time>2026-04-12T08:00:34Z</time></trkpt><trkpt lat="43.68042209917152" lon="6.755285499783225"><ele>420.42857142857144</ele><time>2026-04-12T08:00:36Z</time></trkpt><trkpt lat="43.68039021426051" lon="6.755184650911378"><ele>421.28571428571433</ele><time>2026-04-12T08:00:39Z</time></trkpt><trkpt lat="43.6803496117727" lon="6.755082518308775"><ele>422.1428571428571</ele><time>2026-04-12T08:00:43Z</time></trkpt><trkpt lat="43.680305487141" lon="6.754994844176251"><ele>423.0</ele><time>2026-04-12T08:00:46Z</time></trkpt><trkpt lat="43.68025396492748" lon="6.754904923507417"><ele>428.6666666666667</ele><time>2026-04-12T08:00:49Z</time></trkpt><trkpt lat="43.680204397743985" lon="6.754813551576233"><ele>434.33333333333337</ele><time>2026-04-12T08:00:52Z</time></trkpt><trkpt lat="43.68016780783165" lon="6.7547271909401365"><ele>440.0</ele><time>2026-04-12T08:00:55Z</time></trkpt><trkpt lat="43.680134464351504" lon="6.754635190350345"><ele>445.6666666666667</ele><time>2026-04-12T08:00:58Z</time></trkpt><trkpt lat="43.680105850246676" lon="6.754541888009538"><ele>451.33333333333337</ele><time>2026-04-12T08:01:01Z</time></trkpt><trkpt lat="43.68008046813354" lon="6.754437359201778"><ele>457.0</ele><time>2026-04-12T08:01:04Z</time></trkpt><trkpt lat="43.68006003084793" lon="6.754341544739691"><ele>457.00000000000006</ele><time>2026-04-12T08:01:07Z</time></trkpt><trkpt lat="43.68004814834285" lon="6.754246980901892"><ele>457.0</ele><time>2026-04-12T08:01:10Z</time></trkpt><trkpt lat="43.680042570030686" lon="6.754155609063236"><ele>457.00000000000006</ele><time>2026-04-12T08:01:13Z</time></trkpt><trkpt lat="43.680044537668486" lon="6.754065315232972"><ele>457.00000000000006</ele><time>2026-04-12T08:01:16Z</time></trkpt><trkpt lat="43.68004996118343" lon="6.7539754117476845"><ele>457.0</ele><time>2026-04-12T08:01:19Z</time></trkpt><trkpt lat="43.68006104122374" lon="6.753877362182051"><ele>457.00000000000006</ele><time>2026-04-12T08:01:23Z</time></trkpt><trkpt lat="43.68007496026684" lon="6.753791927086649"><ele>457.00000000000006</ele><time>2026-04-12T08:01:26Z</time></trkpt><trkpt lat="43.68009366885627" lon="6.753702876548148"><ele>457.00000000000006</ele><time>2026-04-12T08:01:29Z</time></trkpt><trkpt lat="43.680119681326595" lon="6.7536178264920315"><ele>457.0</ele><time>2026-04-12T08:01:32Z</time></trkpt><trkpt lat="43.68015581675179" lon="6.753529357063481"><ele>457.00000000000006</ele><time>2026-04-12T08:01:36Z</time></trkpt><trkpt lat="43.68019191207165" lon="6.753453622471177"><ele>457.00000000000006</ele><time>2026-04-12T08:01:39Z</time></trkpt><trkpt lat="43.68023433273305" lon="6.753371460862982"><ele>457.0</ele><time>2026-04-12T08:01:42Z</time></trkpt><trkpt lat="43.680274264413605" lon="6.75327253478953"><ele>457.00000000000006</ele><time>2026-04-12T08:01:46Z</time></trkpt><trkpt lat="43.680306512900636" lon="6.753195831450565"><ele>457.00000000000006</ele><time>2026-04-12T08:01:50Z</time></trkpt><trkpt lat="43.680325577078825" lon="6.7531041732488735"><ele>457.4285714285715</ele><time>2026-04-12T08:01:53Z</time></trkpt><trkpt lat="43.68034092978483" lon="6.753004191958187"><ele>457.8571428571429</ele><time>2026-04-12T08:01:57Z</time></trkpt><trkpt lat="43.68034172912156" lon="6.7529146270575415"><ele>458.2857142857143</ele><time>2026-04-12T08:02:00Z</time></trkpt><trkpt lat="43.680333567555756" lon="6.7528257763757535"><ele>458.7142857142857</ele><time>2026-04-12T08:02:03Z</time></trkpt><trkpt lat="43.68032563822741" lon="6.75273758179499"><ele>459.1428571428571</ele><time>2026-04-12T08:02:06Z</time></trkpt><trkpt lat="43.680307998372655" lon="6.752644963270966"><ele>459.5714285714285</ele><time>2026-04-12T08:02:09Z</time></trkpt><trkpt lat="43.68029300241171" lon="6.752544382185375"><ele>459.99999999999994</ele><time>2026-04-12T08:02:13Z</time></trkpt><trkpt lat="43.680274896975895" lon="6.75242872862316"><ele>461.71428571428567</ele><time>2026-04-12T08:02:16Z</time></trkpt><trkpt lat="43.68025546538474" lon="6.752314424720335"><ele>463.42857142857144</ele><time>2026-04-12T08:02:20Z</time></trkpt><trkpt lat="43.680242479867196" lon="6.752226184199037"><ele>465.1428571428571</ele><time>2026-04-12T08:02:23Z</time></trkpt><trkpt lat="43.68023138147368" lon="6.752140194216273"><ele>466.85714285714283</ele><time>2026-04-12T08:02:26Z</time></trkpt><trkpt lat="43.68021999548633" lon="6.752052880666105"><ele>468.57142857142856</ele><time>2026-04-12T08:02:29Z</time></trkpt><trkpt lat="43.68021311932157" lon="6.751965743429851"><ele>470.2857142857143</ele><time>2026-04-12T08:02:32Z</time></trkpt><trkpt lat="43.68018878815482" lon="6.751874657303074"><ele>472.0</ele><time>2026-04-12T08:02:36Z</time></trkpt><trkpt lat="43.68014506900817" lon="6.751758301073032"><ele>472.00000000000006</ele><time>2026-04-12T08:02:40Z</time></trkpt><trkpt lat="43.6800943768571" lon="6.7516577781290055"><ele>472.0</ele><time>2026-04-12T08:02:44Z</time></trkpt><trkpt lat="43.68003254477408" lon="6.751584654486052"><ele>472.0</ele><time>2026-04-12T08:02:48Z</time></trkpt><trkpt lat="43.67997394448483" lon="6.751531235726111"><ele>472.0</ele><time>2026-04-12T08:02:51Z</time></trkpt><trkpt lat="43.67990955154823" lon="6.751484274628226"><ele>472.00000000000006</ele><time>2026-04-12T08:02:54Z</time></trkpt><trkpt lat="43.67983778205032" lon="6.751399180162239"><ele>472.0</ele><time>2026-04-12T08:02:59Z</time></trkpt><trkpt lat="43.679776572011455" lon="6.751345566680378"><ele>472.0</ele><time>2026-04-12T08:03:02Z</time></trkpt><trkpt lat="43.67973200760818" lon="6.75128047392599"><ele>472.0</ele><time>2026-04-12T08:03:05Z</time></trkpt><trkpt lat="43.67966834234838" lon="6.751204358453542"><ele>472.0</ele><time>2026-04-12T08:03:09Z</time></trkpt><trkpt lat="43.67962474804199" lon="6.751129506853896"><ele>472.0</ele><time>2026-04-12T08:03:13Z</time></trkpt><trkpt lat="43.67958615155231" lon="6.7510603302624075"><ele>472.0</ele><time>2026-04-12T08:03:15Z</time></trkpt><trkpt lat="43.679548791979606" lon="6.750990083757612"><ele>472.0</ele><time>2026-04-12T08:03:18Z</time></trkpt><trkpt lat="43.679523919477774" lon="6.750908987614056"><ele>472.0</ele><time>2026-04-12T08:03:21Z</time></trkpt><trkpt lat="43.679498789415874" lon="6.750822746502351"><ele>472.85714285714283</ele><time>2026-04-12T08:03:24Z</time></trkpt><trkpt lat="43.67948727173888" lon="6.7507291425412275"><ele>473.7142857142858</ele><time>2026-04-12T08:03:27Z</time></trkpt><trkpt lat="43.67947728471482" lon="6.75063273866263"><ele>474.5714285714286</ele><time>2026-04-12T08:03:30Z</time></trkpt><trkpt lat="43.679466092436755" lon="6.750535650020653"><ele>475.42857142857144</ele><time>2026-04-12T08:03:33Z</time></trkpt><trkpt lat="43.679456738840095" lon="6.750439533027542"><ele>476.28571428571433</ele><time>2026-04-12T08:03:36Z</time></trkpt><trkpt lat="43.679448653064846" lon="6.750347106752827"><ele>477.1428571428572</ele><time>2026-04-12T08:03:39Z</time></trkpt><trkpt lat="43.6794513931698" lon="6.750250807920084"><ele>478.00000000000006</ele><time>2026-04-12T08:03:42Z</time></trkpt><trkpt lat="43.67946724514683" lon="6.750159826570238"><ele>478.7142857142858</ele><time>2026-04-12T08:03:45Z</time></trkpt><trkpt lat="43.67948436799998" lon="6.750061400280914"><ele>479.42857142857144</ele><time>2026-04-12T08:03:49Z</time></trkpt><trkpt lat="43.67950350595653" lon="6.7499750383191035"><ele>480.14285714285717</ele><time>2026-04-12T08:03:51Z</time></trkpt><trkpt lat="43.679534097278335" lon="6.749897519337995"><ele>480.8571428571429</ele><time>2026-04-12T08:03:54Z</time></trkpt><trkpt lat="43.67957137758131" lon="6.749821697429755"><ele>481.57142857142856</ele><time>2026-04-12T08:03:57Z</time></trkpt><trkpt lat="43.67961154848959" lon="6.749741136338041"><ele>482.2857142857143</ele><time>2026-04-12T08:04:01Z</time></trkpt><trkpt lat="43.679649771383765" lon="6.74966665906512"><ele>483.0</ele><time>2026-04-12T08:04:04Z</time></trkpt><trkpt lat="43.67968254979646" lon="6.749587596203916"><ele>483.0</ele><time>2026-04-12T08:04:07Z</time></trkpt><trkpt lat="43.67972710476257" lon="6.749505259599712"><ele>483.0</ele><time>2026-04-12T08:04:10Z</time></trkpt><trkpt lat="43.67976321113921" lon="6.749414107637956"><ele>483.0</ele><time>2026-04-12T08:04:14Z</time></trkpt><trkpt lat="43.67978262503785" lon="6.749330521179737"><ele>483.0</ele><time>2026-04-12T08:04:17Z</time></trkpt><trkpt lat="43.679769308072316" lon="6.749222304340696"><ele>483.0</ele><time>2026-04-12T08:04:20Z</time></trkpt><trkpt lat="43.679745341185324" lon="6.749140115420244"><ele>483.0</ele><time>2026-04-12T08:04:23Z</time></trkpt><trkpt lat="43.67971362126256" lon="6.74906242084352"><ele>483.0</ele><time>2026-04-12T08:04:26Z</time></trkpt><trkpt lat="43.6796790405325" lon="6.748984366403334"><ele>483.42857142857144</ele><time>2026-04-12T08:04:29Z</time></trkpt><trkpt lat="43.679634596711466" lon="6.748905160072179"><ele>483.8571428571429</ele><time>2026-04-12T08:04:33Z</time></trkpt><trkpt lat="43.67958671163947" lon="6.748805100285657"><ele>484.2857142857143</ele><time>2026-04-12T08:04:37Z</time></trkpt><trkpt lat="43.679549197710195" lon="6.748718460847778"><ele>484.7142857142857</ele><time>2026-04-12T08:04:40Z</time></trkpt><trkpt lat="43.67950666824838" lon="6.748630096728214"><ele>485.14285714285717</ele><time>2026-04-12T08:04:44Z</time></trkpt><trkpt lat="43.67947128970908" lon="6.748555839397809"><ele>485.57142857142856</ele><time>2026-04-12T08:04:47Z</time></trkpt><trkpt lat="43.67943778325871" lon="6.7484762969928935"><ele>486.0</ele><time>2026-04-12T08:04:50Z</time></trkpt><trkpt lat="43.67940330565381" lon="6.7483987221265895"><ele>487.1428571428571</ele><time>2026-04-12T08:04:53Z</time></trkpt><trkpt lat="43.67937665187021" lon="6.748305147749767"><ele>488.28571428571433</ele><time>2026-04-12T08:04:57Z</time></trkpt><trkpt lat="43.67935957428185" lon="6.748218280135559"><ele>489.42857142857144</ele><time>2026-04-12T08:05:00Z</time></trkpt><trkpt lat="43.679352933031375" lon="6.748122514487976"><ele>490.57142857142856</ele><time>2026-04-12T08:05:03Z</time></trkpt><trkpt lat="43.679358689328126" lon="6.748009078126076"><ele>491.71428571428567</ele><time>2026-04-12T08:05:06Z</time></trkpt><trkpt lat="43.679365985150774" lon="6.747919980069"><ele>492.8571428571429</ele><time>2026-04-12T08:05:09Z</time></trkpt><trkpt lat="43.679378138896936" lon="6.747806327857734"><ele>494.0</ele><time>2026-04-12T08:05:13Z</time></trkpt><trkpt lat="43.67938550922755" lon="6.7476975641023405"><ele>494.28571428571433</ele><time>2026-04-12T08:05:17Z</time></trkpt><trkpt lat="43.679385773969514" lon="6.747604638271013"><ele>494.57142857142856</ele><time>2026-04-12T08:05:20Z</time></trkpt><trkpt lat="43.67936982838176" lon="6.747512907221908"><ele>494.8571428571429</ele><time>2026-04-12T08:05:23Z</time></trkpt><trkpt lat="43.679335553880854" lon="6.747420983064822"><ele>495.14285714285717</ele><time>2026-04-12T08:05:26Z</time></trkpt><trkpt lat="43.67928097876424" lon="6.747358639044054"><ele>495.42857142857144</ele><time>2026-04-12T08:05:30Z</time></trkpt><trkpt lat="43.67922644917493" lon="6.7473101079759825"><ele>495.7142857142857</ele><time>2026-04-12T08:05:33Z</time></trkpt><trkpt lat="43.679152680383176" lon="6.747247984168622"><ele>496.0</ele><time>2026-04-12T08:05:36Z</time></trkpt><trkpt lat="43.67909465462931" lon="6.747213535578145"><ele>496.0</ele><time>2026-04-12T08:05:39Z</time></trkpt><trkpt lat="43.67903949831878" lon="6.747163459348601"><ele>496.00000000000006</ele><time>2026-04-12T08:05:42Z</time></trkpt><trkpt lat="43.67897963866407" lon="6.747127739886777"><ele>496.0</ele><time>2026-04-12T08:05:45Z</time></trkpt><trkpt lat="43.67892371472258" lon="6.747082941320326"><ele>496.0</ele><time>2026-04-12T08:05:48Z</time></trkpt><trkpt lat="43.678869129920166" lon="6.7470374391873555"><ele>496.00000000000006</ele><time>2026-04-12T08:05:51Z</time></trkpt><trkpt lat="43.67881193887048" lon="6.746997773291658"><ele>496.0</ele><time>2026-04-12T08:05:54Z</time></trkpt><trkpt lat="43.678750241497006" lon="6.746948066718952"><ele>496.0</ele><time>2026-04-12T08:05:58Z</time></trkpt><trkpt lat="43.67868698938848" lon="6.746895969253719"><ele>496.8571428571429</ele><time>2026-04-12T08:06:01Z</time></trkpt><trkpt lat="43.678625091218315" lon="6.7468459968067265"><ele>497.7142857142858</ele><time>2026-04-12T08:06:04Z</time></trkpt><trkpt lat="43.678568096366725" lon="6.746800300570142"><ele>498.57142857142856</ele><time>2026-04-12T08:06:07Z</time></trkpt><trkpt lat="43.67850571162088" lon="6.746764184122661"><ele>499.42857142857144</ele><time>2026-04-12T08:06:10Z</time></trkpt><trkpt lat="43.67844120539517" lon="6.746743116881926"><ele>500.2857142857143</ele><time>2026-04-12T08:06:13Z</time></trkpt><trkpt lat="43.678377095134145" lon="6.7467221315025006"><ele>501.1428571428571</ele><time>2026-04-12T08:06:16Z</time></trkpt><trkpt lat="43.67830285771161" lon="6.746708012280549"><ele>501.99999999999994</ele><time>2026-04-12T08:06:20Z</time></trkpt><trkpt lat="43.67823598565442" lon="6.746705746351816"><ele>502.71428571428567</ele><time>2026-04-12T08:06:23Z</time></trkpt><trkpt lat="43.67815905395895" lon="6.746704525408788"><ele>503.42857142857144</ele><time>2026-04-12T08:06:27Z</time></trkpt><trkpt lat="43.678093365689755" lon="6.746699695232841"><ele>504.1428571428571</ele><time>2026-04-12T08:06:30Z</time></trkpt><trkpt lat="43.678027131223025" lon="6.746702736980297"><ele>504.85714285714283</ele><time>2026-04-12T08:06:32Z</time></trkpt><trkpt lat="43.67794284400653" lon="6.746692276734669"><ele>505.57142857142856</ele><time>2026-04-12T08:06:36Z</time></trkpt><trkpt lat="43.6778740618778" lon="6.7466866314072185"><ele>506.2857142857143</ele><time>2026-04-12T08:06:40Z</time></trkpt><trkpt lat="43.67780790934275" lon="6.746680045586593"><ele>507.0</ele><time>2026-04-12T08:06:43Z</time></trkpt><trkpt lat="43.677725988394194" lon="6.746668545720528"><ele>507.71428571428567</ele><time>2026-04-12T08:06:46Z</time></trkpt><trkpt lat="43.67766017281123" lon="6.746651647426769"><ele>508.42857142857144</ele><time>2026-04-12T08:06:49Z</time></trkpt><trkpt lat="43.67758174959247" lon="6.746621213546238"><ele>509.1428571428571</ele><time>2026-04-12T08:06:53Z</time></trkpt><trkpt lat="43.67751007285597" lon="6.746583462519712"><ele>509.85714285714283</ele><time>2026-04-12T08:06:57Z</time></trkpt><trkpt lat="43.67744803442808" lon="6.74654860154713"><ele>510.57142857142856</ele><time>2026-04-12T08:07:00Z</time></trkpt><trkpt lat="43.67737638433135" lon="6.746502945335404"><ele>511.2857142857143</ele><time>2026-04-12T08:07:03Z</time></trkpt><trkpt lat="43.67730986637646" lon="6.746458635033009"><ele>512.0</ele><time>2026-04-12T08:07:07Z</time></trkpt><trkpt lat="43.677249980688316" lon="6.746422142811357"><ele>511.99999999999994</ele><time>2026-04-12T08:07:10Z</time></trkpt><trkpt lat="43.67718815469598" lon="6.746380913086671"><ele>512.0</ele><time>2026-04-12T08:07:13Z</time></trkpt><trkpt lat="43.67711667870915" lon="6.746332068643266"><ele>512.0</ele><time>2026-04-12T08:07:16Z</time></trkpt><trkpt lat="43.677044673319145" lon="6.746284278052805"><ele>512.0</ele><time>2026-04-12T08:07:19Z</time></trkpt><trkpt lat="43.67698185496875" lon="6.74622399958387"><ele>511.99999999999994</ele><time>2026-04-12T08:07:22Z</time></trkpt><trkpt lat="43.67692829272348" lon="6.7461608218164875"><ele>512.0</ele><time>2026-04-12T08:07:25Z</time></trkpt><trkpt lat="43.67686488120797" lon="6.746067126273133"><ele>512.7142857142857</ele><time>2026-04-12T08:07:28Z</time></trkpt><trkpt lat="43.67681880329655" lon="6.745975064851447"><ele>513.4285714285713</ele><time>2026-04-12T08:07:31Z</time></trkpt><trkpt lat="43.67678445910066" lon="6.745889865611868"><ele>514.1428571428571</ele><time>2026-04-12T08:07:34Z</time></trkpt><trkpt lat="43.67675154178992" lon="6.745807674985021"><ele>514.8571428571429</ele><time>2026-04-12T08:07:37Z</time></trkpt><trkpt lat="43.67671845254318" lon="6.745725571512631"><ele>515.5714285714287</ele><time>2026-04-12T08:07:40Z</time></trkpt><trkpt lat="43.676690282738335" lon="6.745644460196519"><ele>516.2857142857143</ele><time>2026-04-12T08:07:43Z</time></trkpt><trkpt lat="43.676643232387846" lon="6.74558090175938"><ele>517.0</ele><time>2026-04-12T08:07:46Z</time></trkpt><trkpt lat="43.67660517624311" lon="6.745509682059831"><ele>517.0</ele><time>2026-04-12T08:08:00Z</time></trkpt><trkpt lat="43.67657932445826" lon="6.74542055224504"><ele>517.0</ele><time>2026-04-12T08:09:42Z</time></trkpt><trkpt lat="43.676547646637815" lon="6.745337084319203"><ele>517.0</ele><time>2026-04-12T08:09:46Z</time></trkpt><trkpt lat="43.676510891299785" lon="6.74526470409516"><ele>517.0</ele><time>2026-04-12T08:09:50Z</time></trkpt><trkpt lat="43.67647463320975" lon="6.745159515504962"><ele>517.0</ele><time>2026-04-12T08:09:54Z</time></trkpt><trkpt lat="43.676443066828014" lon="6.7450739702819895"><ele>517.0</ele><time>2026-04-12T08:09:57Z</time></trkpt><trkpt lat="43.67641312255989" lon="6.744985188418587"><ele>517.0</ele><time>2026-04-12T08:10:00Z</time></trkpt><trkpt lat="43.67638638186651" lon="6.744896078691766"><ele>517.7142857142858</ele><time>2026-04-12T08:10:03Z</time></trkpt><trkpt lat="43.676364060064834" lon="6.744804059020492"><ele>518.4285714285714</ele><time>2026-04-12T08:10:06Z</time></trkpt><trkpt lat="43.676346914335504" lon="6.744710699625035"><ele>519.1428571428571</ele><time>2026-04-12T08:10:09Z</time></trkpt><trkpt lat="43.67634451879057" lon="6.744612330041555"><ele>519.8571428571429</ele><time>2026-04-12T08:10:12Z</time></trkpt><trkpt lat="43.67634518821034" lon="6.744514461932453"><ele>520.5714285714286</ele><time>2026-04-12T08:10:15Z</time></trkpt><trkpt lat="43.67636435696146" lon="6.744422762538636"><ele>521.2857142857143</ele><time>2026-04-12T08:10:18Z</time></trkpt><trkpt lat="43.67637943404416" lon="6.74433086096978"><ele>522.0</ele><time>2026-04-12T08:10:21Z</time></trkpt><trkpt lat="43.67638983969042" lon="6.744234130038471"><ele>522.5714285714286</ele><time>2026-04-12T08:10:24Z</time></trkpt><trkpt lat="43.676410260583125" lon="6.744141202071739"><ele>523.1428571428571</ele><time>2026-04-12T08:10:27Z</time></trkpt><trkpt lat="43.67642327033912" lon="6.74404442350121"><ele>523.7142857142857</ele><time>2026-04-12T08:10:30Z</time></trkpt><trkpt lat="43.67644020579052" lon="6.743948382608284"><ele>524.2857142857142</ele><time>2026-04-12T08:10:33Z</time></trkpt><trkpt lat="43.67645343560371" lon="6.743855693665569"><ele>524.8571428571428</ele><time>2026-04-12T08:10:36Z</time></trkpt><trkpt lat="43.676471989318706" lon="6.743760084778526"><ele>525.4285714285714</ele><time>2026-04-12T08:10:39Z</time></trkpt><trkpt lat="43.67648246964102" lon="6.743657396131659"><ele>526.0</ele><time>2026-04-12T08:10:42Z</time></trkpt><trkpt lat="43.67649895532999" lon="6.743555727498405"><ele>526.0</ele><time>2026-04-12T08:10:45Z</time></trkpt><trkpt lat="43.67652039587394" lon="6.743454699068269"><ele>526.0</ele><time>2026-04-12T08:10:48Z</time></trkpt><trkpt lat="43.67653376121728" lon="6.743350226123257"><ele>526.0</ele><time>2026-04-12T08:10:51Z</time></trkpt><trkpt lat="43.67653302776417" lon="6.743227741397009"><ele>526.0</ele><time>2026-04-12T08:10:54Z</time></trkpt><trkpt lat="43.6765212707528" lon="6.743108170429699"><ele>526.0</ele><time>2026-04-12T08:10:57Z</time></trkpt><trkpt lat="43.67649515452638" lon="6.742995056004971"><ele>526.0</ele><time>2026-04-12T08:11:00Z</time></trkpt><trkpt lat="43.67645977170787" lon="6.742889398030952"><ele>526.0</ele><time>2026-04-12T08:11:03Z</time></trkpt><trkpt lat="43.67641092031588" lon="6.742788501341357"><ele>526.0</ele><time>2026-04-12T08:11:06Z</time></trkpt><trkpt lat="43.67636623965048" lon="6.742686456066137"><ele>526.0</ele><time>2026-04-12T08:11:09Z</time></trkpt><trkpt lat="43.67632447363996" lon="6.742593173696947"><ele>526.0</ele><time>2026-04-12T08:11:12Z</time></trkpt><trkpt lat="43.676287758915564" lon="6.742507780268877"><ele>526.0</ele><time>2026-04-12T08:11:15Z</time></trkpt><trkpt lat="43.67624102256266" lon="6.742412640022956"><ele>526.0</ele><time>2026-04-12T08:11:17Z</time></trkpt><trkpt lat="43.676199350538425" lon="6.742317923958645"><ele>526.3333333333334</ele><time>2026-04-12T08:11:20Z</time></trkpt><trkpt lat="43.67615127258043" lon="6.742219225604791"><ele>526.6666666666667</ele><time>2026-04-12T08:11:23Z</time></trkpt><trkpt lat="43.67610758613927" lon="6.742113303612987"><ele>527.0</ele><time>2026-04-12T08:11:26Z</time></trkpt><trkpt lat="43.67607011448573" lon="6.742040384158876"><ele>527.3333333333334</ele><time>2026-04-12T08:11:29Z</time></trkpt><trkpt lat="43.67603066083592" lon="6.741941949823909"><ele>527.6666666666666</ele><time>2026-04-12T08:11:32Z</time></trkpt><trkpt lat="43.675987646770736" lon="6.741846257035996"><ele>528.0</ele><time>2026-04-12T08:11:35Z</time></trkpt><trkpt lat="43.67593841847374" lon="6.741748972200588"><ele>528.5</ele><time>2026-04-12T08:11:38Z</time></trkpt><trkpt lat="43.67588120125724" lon="6.741628980551544"><ele>529.0</ele><time>2026-04-12T08:11:41Z</time></trkpt><trkpt lat="43.67583998950518" lon="6.74154008157041"><ele>529.5</ele><time>2026-04-12T08:11:44Z</time></trkpt><trkpt lat="43.67579747186701" lon="6.741432330524879"><ele>530.0</ele><time>2026-04-12T08:11:47Z</time></trkpt><trkpt lat="43.67575964930245" lon="6.741344765896018"><ele>530.5</ele><time>2026-04-12T08:11:49Z</time></trkpt><trkpt lat="43.675712904382145" lon="6.741236196101087"><ele>531.0</ele><time>2026-04-12T08:11:52Z</time></trkpt><trkpt lat="43.67566428874381" lon="6.7411292074961215"><ele>531.2857142857143</ele><time>2026-04-12T08:11:55Z</time></trkpt><trkpt lat="43.67561215009963" lon="6.741017198708273"><ele>531.5714285714287</ele><time>2026-04-12T08:11:58Z</time></trkpt><trkpt lat="43.67557689105586" lon="6.7409374381840825"><ele>531.8571428571429</ele><time>2026-04-12T08:12:00Z</time></trkpt><trkpt lat="43.675539020653304" lon="6.740857153038246"><ele>532.1428571428571</ele><time>2026-04-12T08:12:02Z</time></trkpt><trkpt lat="43.67550293897856" lon="6.740776624406347"><ele>532.4285714285713</ele><time>2026-04-12T08:12:04Z</time></trkpt><trkpt lat="43.67546551577097" lon="6.740695264623539"><ele>532.7142857142857</ele><time>2026-04-12T08:12:06Z</time></trkpt><trkpt lat="43.67543007425093" lon="6.740620465567459"><ele>533.0</ele><time>2026-04-12T08:12:09Z</time></trkpt><trkpt lat="43.675396740128186" lon="6.740544334962191"><ele>533.0</ele><time>2026-04-12T08:12:11Z</time></trkpt><trkpt lat="43.67534133868256" lon="6.7404279752217935"><ele>533.0</ele><time>2026-04-12T08:12:13Z</time></trkpt><trkpt lat="43.675307316739" lon="6.740346798354757"><ele>533.0</ele><time>2026-04-12T08:12:15Z</time></trkpt><trkpt lat="43.67526953735506" lon="6.740262984547145"><ele>533.0</ele><time>2026-04-12T08:12:18Z</time></trkpt><trkpt lat="43.67522997345842" lon="6.7401725392733844"><ele>533.0</ele><time>2026-04-12T08:12:20Z</time></trkpt><trkpt lat="43.675185315350184" lon="6.740079506912919"><ele>533.0</ele><time>2026-04-12T08:12:22Z</time></trkpt><trkpt lat="43.67514543040872" lon="6.739994344687583"><ele>533.8333333333333</ele><time>2026-04-12T08:12:25Z</time></trkpt><trkpt lat="43.67511139119041" lon="6.739920105156824"><ele>534.6666666666666</ele><time>2026-04-12T08:12:27Z</time></trkpt><trkpt lat="43.675053552534784" lon="6.739792773895861"><ele>535.5</ele><time>2026-04-12T08:12:30Z</time></trkpt><trkpt lat="43.67501813320213" lon="6.7397195056906085"><ele>536.3333333333334</ele><time>2026-04-12T08:12:32Z</time></trkpt><trkpt lat="43.674974464588246" lon="6.7396197351188905"><ele>537.1666666666667</ele><time>2026-04-12T08:12:35Z</time></trkpt><trkpt lat="43.67492542515205" lon="6.739517017346322"><ele>538.0</ele><time>2026-04-12T08:12:38Z</time></trkpt><trkpt lat="43.67488105820647" lon="6.739423156330937"><ele>538.2857142857143</ele><time>2026-04-12T08:12:40Z</time></trkpt><trkpt lat="43.674837379356646" lon="6.7393190968171295"><ele>538.5714285714287</ele><time>2026-04-12T08:12:43Z</time></trkpt><trkpt lat="43.67480009299217" lon="6.73923837102213"><ele>538.8571428571429</ele><time>2026-04-12T08:12:44Z</time></trkpt><trkpt lat="43.67476438147612" lon="6.7391624329706605"><ele>539.1428571428571</ele><time>2026-04-12T08:12:46Z</time></trkpt><trkpt lat="43.67473061227499" lon="6.739079599374028"><ele>539.4285714285713</ele><time>2026-04-12T08:12:48Z</time></trkpt><trkpt lat="43.674691676690294" lon="6.739001600918096"><ele>539.7142857142857</ele><time>2026-04-12T08:12:50Z</time></trkpt><trkpt lat="43.674656199607284" lon="6.738921478071519"><ele>540.0</ele><time>2026-04-12T08:12:52Z</time></trkpt><trkpt lat="43.674620232778025" lon="6.738844094390115"><ele>540.0</ele><time>2026-04-12T08:12:54Z</time></trkpt><trkpt lat="43.67458454216368" lon="6.738763768654258"><ele>540.0</ele><time>2026-04-12T08:12:56Z</time></trkpt><trkpt lat="43.67454875393904" lon="6.7386819686315835"><ele>540.0</ele><time>2026-04-12T08:12:58Z</time></trkpt><trkpt lat="43.67451475921383" lon="6.738600045788786"><ele>540.0</ele><time>2026-04-12T08:13:00Z</time></trkpt><trkpt lat="43.67447818697221" lon="6.738522050481452"><ele>540.0</ele><time>2026-04-12T08:13:02Z</time></trkpt><trkpt lat="43.67444204800111" lon="6.738444269986793"><ele>540.0</ele><time>2026-04-12T08:13:04Z</time></trkpt><trkpt lat="43.67440491428822" lon="6.738366754973141"><ele>540.0</ele><time>2026-04-12T08:13:06Z</time></trkpt><trkpt lat="43.67437002575482" lon="6.738286352358239"><ele>540.2857142857142</ele><time>2026-04-12T08:13:08Z</time></trkpt><trkpt lat="43.67433442299141" lon="6.738208981818465"><ele>540.5714285714286</ele><time>2026-04-12T08:13:10Z</time></trkpt><trkpt lat="43.674297808763406" lon="6.7381322150659"><ele>540.8571428571429</ele><time>2026-04-12T08:13:12Z</time></trkpt><trkpt lat="43.67426168222018" lon="6.738056242248293"><ele>541.1428571428571</ele><time>2026-04-12T08:13:14Z</time></trkpt><trkpt lat="43.67422846548036" lon="6.7379791847761"><ele>541.4285714285714</ele><time>2026-04-12T08:13:16Z</time></trkpt><trkpt lat="43.67419473051864" lon="6.737902052692332"><ele>541.7142857142857</ele><time>2026-04-12T08:13:18Z</time></trkpt><trkpt lat="43.674158547386746" lon="6.737828242889084"><ele>542.0</ele><time>2026-04-12T08:13:20Z</time></trkpt><trkpt lat="43.674124056205606" lon="6.7377544705569345"><ele>542.7142857142857</ele><time>2026-04-12T08:13:22Z</time></trkpt><trkpt lat="43.67409046564988" lon="6.737678566094659"><ele>543.4285714285714</ele><time>2026-04-12T08:13:24Z</time></trkpt><trkpt lat="43.674037890829226" lon="6.737570077570067"><ele>544.1428571428571</ele><time>2026-04-12T08:13:27Z</time></trkpt><trkpt lat="43.67400690879527" lon="6.7374925632369385"><ele>544.8571428571429</ele><time>2026-04-12T08:13:29Z</time></trkpt><trkpt lat="43.673973359173566" lon="6.737418896523579"><ele>545.5714285714286</ele><time>2026-04-12T08:13:31Z</time></trkpt><trkpt lat="43.67393250795753" lon="6.73733235727062"><ele>546.2857142857142</ele><time>2026-04-12T08:13:34Z</time></trkpt><trkpt lat="43.67388344275316" lon="6.737232815178821"><ele>547.0</ele><time>2026-04-12T08:13:37Z</time></trkpt><trkpt lat="43.67385068507153" lon="6.737155073575247"><ele>547.0</ele><time>2026-04-12T08:13:40Z</time></trkpt><trkpt lat="43.67381406217469" lon="6.737078710996338"><ele>547.0</ele><time>2026-04-12T08:13:42Z</time></trkpt><trkpt lat="43.67377601537498" lon="6.737006950709096"><ele>547.0</ele><time>2026-04-12T08:13:44Z</time></trkpt><trkpt lat="43.673734830495405" lon="6.736906669095302"><ele>547.0</ele><time>2026-04-12T08:13:47Z</time></trkpt><trkpt lat="43.673689769133304" lon="6.736808589568764"><ele>547.0</ele><time>2026-04-12T08:13:50Z</time></trkpt><trkpt lat="43.67364713280992" lon="6.736711657577125"><ele>547.0</ele><time>2026-04-12T08:13:53Z</time></trkpt><trkpt lat="43.673612438411155" lon="6.736622395774233"><ele>547.2857142857142</ele><time>2026-04-12T08:13:56Z</time></trkpt><trkpt lat="43.67357745235785" lon="6.736535776024882"><ele>547.5714285714286</ele><time>2026-04-12T08:13:59Z</time></trkpt><trkpt lat="43.67355201415914" lon="6.736455348859596"><ele>547.8571428571429</ele><time>2026-04-12T08:14:01Z</time></trkpt><trkpt lat="43.673529704092175" lon="6.736363151566048"><ele>548.1428571428571</ele><time>2026-04-12T08:14:04Z</time></trkpt><trkpt lat="43.67351013103728" lon="6.736277496795324"><ele>548.4285714285714</ele><time>2026-04-12T08:14:07Z</time></trkpt><trkpt lat="43.67348573621009" lon="6.736176921940154"><ele>548.7142857142857</ele><time>2026-04-12T08:14:10Z</time></trkpt><trkpt lat="43.673474606990105" lon="6.736082610550656"><ele>549.0</ele><time>2026-04-12T08:14:12Z</time></trkpt><trkpt lat="43.67347344348717" lon="6.735988820335636"><ele>549.7142857142857</ele><time>2026-04-12T08:14:15Z</time></trkpt><trkpt lat="43.673478365808414" lon="6.735897204609673"><ele>550.4285714285714</ele><time>2026-04-12T08:14:17Z</time></trkpt><trkpt lat="43.67349358480538" lon="6.735795749150101"><ele>551.1428571428571</ele><time>2026-04-12T08:14:20Z</time></trkpt><trkpt lat="43.67351138298653" lon="6.735711350418985"><ele>551.8571428571429</ele><time>2026-04-12T08:14:22Z</time></trkpt><trkpt lat="43.67354047673332" lon="6.73561312607276"><ele>552.5714285714286</ele><time>2026-04-12T08:14:25Z</time></trkpt><trkpt lat="43.67357442322046" lon="6.7355136300594225"><ele>553.2857142857142</ele><time>2026-04-12T08:14:28Z</time></trkpt><trkpt lat="43.673610379104396" lon="6.73541510319827"><ele>554.0</ele><time>2026-04-12T08:14:31Z</time></trkpt><trkpt lat="43.67364416145129" lon="6.735319150182556"><ele>555.1666666666666</ele><time>2026-04-12T08:14:34Z</time></trkpt><trkpt lat="43.67368354645507" lon="6.73522295553754"><ele>556.3333333333333</ele><time>2026-04-12T08:14:37Z</time></trkpt><trkpt lat="43.67371911914555" lon="6.735126754246773"><ele>557.5</ele><time>2026-04-12T08:14:40Z</time></trkpt><trkpt lat="43.67375075453107" lon="6.73502470696136"><ele>558.6666666666666</ele><time>2026-04-12T08:14:43Z</time></trkpt><trkpt lat="43.67377214026615" lon="6.734942220830953"><ele>559.8333333333334</ele><time>2026-04-12T08:14:46Z</time></trkpt><trkpt lat="43.673779476243794" lon="6.7348399199274445"><ele>561.0</ele><time>2026-04-12T08:14:49Z</time></trkpt><trkpt lat="43.67377817756703" lon="6.7347096410312774"><ele>561.5</ele><time>2026-04-12T08:14:52Z</time></trkpt><trkpt lat="43.6737671807955" lon="6.734605964544707"><ele>562.0</ele><time>2026-04-12T08:14:55Z</time></trkpt><trkpt lat="43.67375102299395" lon="6.734510770992642"><ele>562.5</ele><time>2026-04-12T08:14:58Z</time></trkpt><trkpt lat="43.67373538184486" lon="6.734402373017135"><ele>563.0</ele><time>2026-04-12T08:15:00Z</time></trkpt><trkpt lat="43.673723461055154" lon="6.7342954290362655"><ele>563.5</ele><time>2026-04-12T08:15:03Z</time></trkpt><trkpt lat="43.673702293582025" lon="6.734172095129552"><ele>564.0</ele><time>2026-04-12T08:15:07Z</time></trkpt><trkpt lat="43.6736839548712" lon="6.734056549851093"><ele>563.6666666666666</ele><time>2026-04-12T08:15:10Z</time></trkpt><trkpt lat="43.6736694757674" lon="6.733965801198386"><ele>563.3333333333334</ele><time>2026-04-12T08:15:12Z</time></trkpt><trkpt lat="43.67365139742007" lon="6.733852504813829"><ele>563.0</ele><time>2026-04-12T08:15:15Z</time></trkpt><trkpt lat="43.67363215731697" lon="6.733737494898815"><ele>562.6666666666667</ele><time>2026-04-12T08:15:18Z</time></trkpt><trkpt lat="43.67361341762664" lon="6.733625031504262"><ele>562.3333333333334</ele><time>2026-04-12T08:15:21Z</time></trkpt><trkpt lat="43.673594709769695" lon="6.733513841629723"><ele>562.0</ele><time>2026-04-12T08:15:24Z</time></trkpt><trkpt lat="43.67360719840519" lon="6.733384057734477"><ele>563.0</ele><time>2026-04-12T08:15:28Z</time></trkpt><trkpt lat="43.673662223058024" lon="6.7332840656012625"><ele>564.0</ele><time>2026-04-12T08:15:31Z</time></trkpt><trkpt lat="43.67373732538294" lon="6.733325983679102"><ele>565.0</ele><time>2026-04-12T08:15:34Z</time></trkpt><trkpt lat="43.67379089465324" lon="6.733415529505992"><ele>566.0</ele><time>2026-04-12T08:15:38Z</time></trkpt><trkpt lat="43.67386675127359" lon="6.733529346979617"><ele>567.0</ele><time>2026-04-12T08:15:41Z</time></trkpt><trkpt lat="43.673932832858384" lon="6.733595130250649"><ele>568.0</ele><time>2026-04-12T08:15:44Z</time></trkpt><trkpt lat="43.673999037323355" lon="6.733658372549842"><ele>568.0</ele><time>2026-04-12T08:15:47Z</time></trkpt><trkpt lat="43.67407502364568" lon="6.733681589514932"><ele>568.0</ele><time>2026-04-12T08:15:50Z</time></trkpt><trkpt lat="43.6741479619088" lon="6.733641963902475"><ele>568.0</ele><time>2026-04-12T08:15:53Z</time></trkpt><trkpt lat="43.67422429679256" lon="6.733595829444549"><ele>568.0</ele><time>2026-04-12T08:15:57Z</time></trkpt><trkpt lat="43.67427668887305" lon="6.733546742982994"><ele>568.0</ele><time>2026-04-12T08:16:00Z</time></trkpt><trkpt lat="43.674333569466484" lon="6.733501369211574"><ele>568.0</ele><time>2026-04-12T08:16:03Z</time></trkpt><trkpt lat="43.67439003609398" lon="6.733456288754494"><ele>568.0</ele><time>2026-04-12T08:16:06Z</time></trkpt><trkpt lat="43.67444559544675" lon="6.7334111204502936"><ele>569.4285714285714</ele><time>2026-04-12T08:16:09Z</time></trkpt><trkpt lat="43.6745170760419" lon="6.73335124579957"><ele>570.8571428571428</ele><time>2026-04-12T08:16:13Z</time></trkpt><trkpt lat="43.67457006259475" lon="6.733302902172054"><ele>572.2857142857142</ele><time>2026-04-12T08:16:16Z</time></trkpt><trkpt lat="43.674619369475515" lon="6.733248239327887"><ele>573.7142857142857</ele><time>2026-04-12T08:16:19Z</time></trkpt><trkpt lat="43.67467899257934" lon="6.733209692473095"><ele>575.1428571428571</ele><time>2026-04-12T08:16:22Z</time></trkpt><trkpt lat="43.674741992023286" lon="6.733157640826705"><ele>576.5714285714286</ele><time>2026-04-12T08:16:26Z</time></trkpt><trkpt lat="43.67480836771649" lon="6.733108339474976"><ele>578.0</ele><time>2026-04-12T08:16:29Z</time></trkpt><trkpt lat="43.67485966812281" lon="6.733051504821341"><ele>578.0</ele><time>2026-04-12T08:16:32Z</time></trkpt><trkpt lat="43.674919382842226" lon="6.733003095415548"><ele>578.0</ele><time>2026-04-12T08:16:36Z</time></trkpt><trkpt lat="43.67498075531662" lon="6.732949355721326"><ele>578.0</ele><time>2026-04-12T08:16:39Z</time></trkpt><trkpt lat="43.67504608188258" lon="6.7329016272586335"><ele>578.0</ele><time>2026-04-12T08:16:42Z</time></trkpt><trkpt lat="43.675119616427054" lon="6.732846471070255"><ele>578.0</ele><time>2026-04-12T08:16:46Z</time></trkpt><trkpt lat="43.67517463538451" lon="6.732798326672065"><ele>578.0</ele><time>2026-04-12T08:16:49Z</time></trkpt><trkpt lat="43.67523520909814" lon="6.732746305160107"><ele>578.0</ele><time>2026-04-12T08:16:53Z</time></trkpt><trkpt lat="43.675299390243154" lon="6.732689716340965"><ele>579.5714285714286</ele><time>2026-04-12T08:16:56Z</time></trkpt><trkpt lat="43.675369220059615" lon="6.732630615365318"><ele>581.1428571428571</ele><time>2026-04-12T08:17:00Z</time></trkpt><trkpt lat="43.6754223862147" lon="6.732583575182193"><ele>582.7142857142857</ele><time>2026-04-12T08:17:03Z</time></trkpt><trkpt lat="43.67549136855704" lon="6.732524019840765"><ele>584.2857142857142</ele><time>2026-04-12T08:17:07Z</time></trkpt><trkpt lat="43.67555949681401" lon="6.732468357862779"><ele>585.8571428571428</ele><time>2026-04-12T08:17:11Z</time></trkpt><trkpt lat="43.67562521998249" lon="6.7324132175621445"><ele>587.4285714285714</ele><time>2026-04-12T08:17:15Z</time></trkpt><trkpt lat="43.6756833971723" lon="6.7323713322740275"><ele>589.0</ele><time>2026-04-12T08:17:19Z</time></trkpt><trkpt lat="43.6757402111479" lon="6.732320826201871"><ele>589.0</ele><time>2026-04-12T08:17:22Z</time></trkpt><trkpt lat="43.675799570563406" lon="6.732254044580329"><ele>589.0</ele><time>2026-04-12T08:17:26Z</time></trkpt><trkpt lat="43.675866096375735" lon="6.732186803889104"><ele>589.0</ele><time>2026-04-12T08:17:30Z</time></trkpt><trkpt lat="43.67592513200876" lon="6.732114415651252"><ele>589.0</ele><time>2026-04-12T08:17:34Z</time></trkpt><trkpt lat="43.67598003298255" lon="6.7320319464804665"><ele>589.0</ele><time>2026-04-12T08:17:38Z</time></trkpt><trkpt lat="43.67603655927611" lon="6.731963535598841"><ele>589.0</ele><time>2026-04-12T08:17:42Z</time></trkpt><trkpt lat="43.67609592857455" lon="6.731900266492024"><ele>590.5714285714286</ele><time>2026-04-12T08:17:46Z</time></trkpt><trkpt lat="43.67616003403516" lon="6.731840875633568"><ele>592.1428571428571</ele><time>2026-04-12T08:17:50Z</time></trkpt><trkpt lat="43.6762213880627" lon="6.73178033974266"><ele>593.7142857142857</ele><time>2026-04-12T08:17:54Z</time></trkpt><trkpt lat="43.67627842209746" lon="6.731734921864437"><ele>595.2857142857142</ele><time>2026-04-12T08:17:58Z</time></trkpt><trkpt lat="43.67633140358654" lon="6.731679318469991"><ele>596.8571428571429</ele><time>2026-04-12T08:18:02Z</time></trkpt><trkpt lat="43.676390182712666" lon="6.731640071390619"><ele>598.4285714285713</ele><time>2026-04-12T08:18:05Z</time></trkpt><trkpt lat="43.67644608914756" lon="6.731579849994982"><ele>600.0</ele><time>2026-04-12T08:18:09Z</time></trkpt><trkpt lat="43.67650841520821" lon="6.731533600364853"><ele>599.9999999999999</ele><time>2026-04-12T08:18:13Z</time></trkpt><trkpt lat="43.67656532925529" lon="6.731489568304449"><ele>600.0</ele><time>2026-04-12T08:18:17Z</time></trkpt><trkpt lat="43.67663240403674" lon="6.731433731569329"><ele>600.0</ele><time>2026-04-12T08:18:22Z</time></trkpt><trkpt lat="43.676691176998474" lon="6.731391402675136"><ele>600.0</ele><time>2026-04-12T08:18:26Z</time></trkpt><trkpt lat="43.67674751741939" lon="6.731346017880828"><ele>600.0</ele><time>2026-04-12T08:18:30Z</time></trkpt><trkpt lat="43.67680085964533" lon="6.731293551059825"><ele>599.9999999999999</ele><time>2026-04-12T08:18:33Z</time></trkpt><trkpt lat="43.67686865586886" lon="6.73124047472776"><ele>600.0</ele><time>2026-04-12T08:18:38Z</time></trkpt><trkpt lat="43.67693405583534" lon="6.731180503118061"><ele>601.1666666666666</ele><time>2026-04-12T08:18:43Z</time></trkpt><trkpt lat="43.676995146270706" lon="6.731126147103032"><ele>602.3333333333334</ele><time>2026-04-12T08:18:47Z</time></trkpt><trkpt lat="43.6770502663046" lon="6.731076818900785"><ele>603.5</ele><time>2026-04-12T08:18:51Z</time></trkpt><trkpt lat="43.67710857351511" lon="6.731040178382173"><ele>604.6666666666667</ele><time>2026-04-12T08:18:54Z</time></trkpt><trkpt lat="43.677168086692774" lon="6.731002926965842"><ele>605.8333333333334</ele><time>2026-04-12T08:18:58Z</time></trkpt><trkpt lat="43.677241666475595" lon="6.730941037632032"><ele>607.0</ele><time>2026-04-12T08:19:02Z</time></trkpt><trkpt lat="43.67733025266771" lon="6.7308880613087645"><ele>607.5</ele><time>2026-04-12T08:19:06Z</time></trkpt><trkpt lat="43.677400615058225" lon="6.7308294513246505"><ele>608.0</ele><time>2026-04-12T08:19:10Z</time></trkpt><trkpt lat="43.677473074155294" lon="6.730770376991858"><ele>608.5</ele><time>2026-04-12T08:19:14Z</time></trkpt><trkpt lat="43.67754709177003" lon="6.730718088482286"><ele>609.0</ele><time>2026-04-12T08:19:18Z</time></trkpt><trkpt lat="43.67761790974618" lon="6.7306643710414535"><ele>609.5</ele><time>2026-04-12T08:19:22Z</time></trkpt><trkpt lat="43.67768777739551" lon="6.73060942556741"><ele>610.0</ele><time>2026-04-12T08:19:26Z</time></trkpt><trkpt lat="43.67775723401388" lon="6.730557446973794"><ele>610.6666666666667</ele><time>2026-04-12T08:19:30Z</time></trkpt><trkpt lat="43.677831777263094" lon="6.730504212576594"><ele>611.3333333333334</ele><time>2026-04-12T08:19:34Z</time></trkpt><trkpt lat="43.67789403371824" lon="6.730460369511565"><ele>612.0</ele><time>2026-04-12T08:19:38Z</time></trkpt><trkpt lat="43.67796575656178" lon="6.730406514105217"><ele>612.6666666666666</ele><time>2026-04-12T08:19:41Z</time></trkpt><trkpt lat="43.67803472735681" lon="6.7303542919098405"><ele>613.3333333333333</ele><time>2026-04-12T08:19:45Z</time></trkpt><trkpt lat="43.67809854224977" lon="6.730290582499733"><ele>614.0</ele><time>2026-04-12T08:19:49Z</time></trkpt><trkpt lat="43.67816802565304" lon="6.730230135801033"><ele>614.8333333333333</ele><time>2026-04-12T08:19:53Z</time></trkpt><trkpt lat="43.67823040385001" lon="6.730162227645911"><ele>615.6666666666666</ele><time>2026-04-12T08:19:57Z</time></trkpt><trkpt lat="43.67830115937126" lon="6.730075629806006"><ele>616.5</ele><time>2026-04-12T08:20:02Z</time></trkpt><trkpt lat="43.67835847889176" lon="6.730004205919042"><ele>617.3333333333334</ele><time>2026-04-12T08:20:06Z</time></trkpt><trkpt lat="43.67841743404055" lon="6.729931733525211"><ele>618.1666666666667</ele><time>2026-04-12T08:20:10Z</time></trkpt><trkpt lat="43.67846647593094" lon="6.7298690868085345"><ele>619.0</ele><time>2026-04-12T08:20:14Z</time></trkpt><trkpt lat="43.67852023184098" lon="6.7298013110714665"><ele>619.0</ele><time>2026-04-12T08:20:18Z</time></trkpt><trkpt lat="43.67857989611971" lon="6.7297238256817655"><ele>619.0</ele><time>2026-04-12T08:20:22Z</time></trkpt><trkpt lat="43.67862828860622" lon="6.72965678526551"><ele>619.0</ele><time>2026-04-12T08:20:25Z</time></trkpt><trkpt lat="43.678677260709115" lon="6.729574364057299"><ele>619.0</ele><time>2026-04-12T08:20:29Z</time></trkpt><trkpt lat="43.67871486198134" lon="6.729473627265556"><ele>619.0</ele><time>2026-04-12T08:20:33Z</time></trkpt><trkpt lat="43.678757030453816" lon="6.729375970815208"><ele>619.0</ele><time>2026-04-12T08:20:37Z</time></trkpt><trkpt lat="43.678799552008996" lon="6.729279362369822"><ele>621.0</ele><time>2026-04-12T08:20:41Z</time></trkpt><trkpt lat="43.678855479989885" lon="6.729196208517175"><ele>623.0</ele><time>2026-04-12T08:20:45Z</time></trkpt><trkpt lat="43.6789133459372" lon="6.729117705718233"><ele>625.0</ele><time>2026-04-12T08:20:49Z</time></trkpt><trkpt lat="43.6789759069825" lon="6.729044969418404"><ele>627.0</ele><time>2026-04-12T08:20:53Z</time></trkpt><trkpt lat="43.67904043996757" lon="6.728982668834021"><ele>629.0</ele><time>2026-04-12T08:20:57Z</time></trkpt><trkpt lat="43.679096636336745" lon="6.728940375933804"><ele>631.0</ele><time>2026-04-12T08:21:00Z</time></trkpt><trkpt lat="43.67916696539642" lon="6.728895889118461"><ele>631.0</ele><time>2026-04-12T08:21:04Z</time></trkpt><trkpt lat="43.67923591884995" lon="6.728861970637574"><ele>631.0</ele><time>2026-04-12T08:21:08Z</time></trkpt><trkpt lat="43.67930906699317" lon="6.728829831555421"><ele>631.0</ele><time>2026-04-12T08:21:11Z</time></trkpt><trkpt lat="43.67937182766868" lon="6.728807843770966"><ele>631.0</ele><time>2026-04-12T08:21:14Z</time></trkpt><trkpt lat="43.67943511280342" lon="6.728785029934291"><ele>631.0</ele><time>2026-04-12T08:21:17Z</time></trkpt><trkpt lat="43.67950004205039" lon="6.728761160408289"><ele>631.0</ele><time>2026-04-12T08:21:20Z</time></trkpt><trkpt lat="43.679563343743226" lon="6.72873529161172"><ele>631.0</ele><time>2026-04-12T08:21:23Z</time></trkpt><trkpt lat="43.679637366690365" lon="6.72869144148439"><ele>631.5</ele><time>2026-04-12T08:21:27Z</time></trkpt><trkpt lat="43.679706228176315" lon="6.72865866208762"><ele>632.0</ele><time>2026-04-12T08:21:31Z</time></trkpt><trkpt lat="43.679768122658786" lon="6.728625216743353"><ele>632.5</ele><time>2026-04-12T08:21:34Z</time></trkpt><trkpt lat="43.67985031933681" lon="6.728569370531749"><ele>633.0</ele><time>2026-04-12T08:21:37Z</time></trkpt><trkpt lat="43.67990824852948" lon="6.728533580565331"><ele>633.5</ele><time>2026-04-12T08:21:39Z</time></trkpt><trkpt lat="43.67998972304083" lon="6.728471884257283"><ele>634.0</ele><time>2026-04-12T08:21:42Z</time></trkpt><trkpt lat="43.680057012143465" lon="6.728429932972498"><ele>634.1428571428571</ele><time>2026-04-12T08:21:44Z</time></trkpt><trkpt lat="43.680124155001984" lon="6.72838399476526"><ele>634.2857142857142</ele><time>2026-04-12T08:21:46Z</time></trkpt><trkpt lat="43.68019568260377" lon="6.728334610829448"><ele>634.4285714285713</ele><time>2026-04-12T08:21:48Z</time></trkpt><trkpt lat="43.68026731031273" lon="6.728287057522113"><ele>634.5714285714286</ele><time>2026-04-12T08:21:50Z</time></trkpt><trkpt lat="43.68033567509915" lon="6.728239405420109"><ele>634.7142857142857</ele><time>2026-04-12T08:21:52Z</time></trkpt><trkpt lat="43.680396456677" lon="6.728200891037726"><ele>634.8571428571428</ele><time>2026-04-12T08:21:54Z</time></trkpt><trkpt lat="43.68045646217324" lon="6.728171653359587"><ele>635.0</ele><time>2026-04-12T08:21:56Z</time></trkpt><trkpt lat="43.68051319473452" lon="6.7281306764402835"><ele>636.0</ele><time>2026-04-12T08:21:58Z</time></trkpt><trkpt lat="43.68059482185045" lon="6.72807127982951"><ele>637.0</ele><time>2026-04-12T08:22:01Z</time></trkpt><trkpt lat="43.680669652135144" lon="6.728011556325055"><ele>638.0</ele><time>2026-04-12T08:22:04Z</time></trkpt><trkpt lat="43.680743897781504" lon="6.727968178029039"><ele>639.0</ele><time>2026-04-12T08:22:07Z</time></trkpt><trkpt lat="43.6808131412501" lon="6.727922234574556"><ele>640.0</ele><time>2026-04-12T08:22:10Z</time></trkpt><trkpt lat="43.68088219000858" lon="6.727876486054391"><ele>641.0</ele><time>2026-04-12T08:22:13Z</time></trkpt><trkpt lat="43.680947189962126" lon="6.727833721329218"><ele>641.0</ele><time>2026-04-12T08:22:16Z</time></trkpt><trkpt lat="43.681021443212614" lon="6.727778757308344"><ele>641.0</ele><time>2026-04-12T08:22:20Z</time></trkpt><trkpt lat="43.681086916031035" lon="6.727731385385359"><ele>641.0</ele><time>2026-04-12T08:22:24Z</time></trkpt><trkpt lat="43.681148822141594" lon="6.727689980454887"><ele>641.0</ele><time>2026-04-12T08:22:27Z</time></trkpt><trkpt lat="43.68120627698381" lon="6.727650084973971"><ele>641.0</ele><time>2026-04-12T08:22:30Z</time></trkpt><trkpt lat="43.68127725664969" lon="6.7275956165968465"><ele>641.0</ele><time>2026-04-12T08:22:34Z</time></trkpt><trkpt lat="43.68134883370436" lon="6.727549911305354"><ele>642.6666666666666</ele><time>2026-04-12T08:22:37Z</time></trkpt><trkpt lat="43.68140957768691" lon="6.727500667402734"><ele>644.3333333333333</ele><time>2026-04-12T08:22:41Z</time></trkpt><trkpt lat="43.681485916264705" lon="6.727461294541067"><ele>646.0</ele><time>2026-04-12T08:22:45Z</time></trkpt><trkpt lat="43.68155299519204" lon="6.727407923368174"><ele>647.6666666666666</ele><time>2026-04-12T08:22:48Z</time></trkpt><trkpt lat="43.68161504933015" lon="6.727348447020903"><ele>649.3333333333334</ele><time>2026-04-12T08:22:52Z</time></trkpt><trkpt lat="43.68168514994093" lon="6.727287841988302"><ele>651.0</ele><time>2026-04-12T08:22:55Z</time></trkpt><trkpt lat="43.68174521429177" lon="6.727237532651141"><ele>651.0</ele><time>2026-04-12T08:22:59Z</time></trkpt><trkpt lat="43.6818162506811" lon="6.727173362302602"><ele>651.0</ele><time>2026-04-12T08:23:03Z</time></trkpt><trkpt lat="43.681889253835124" lon="6.727120972793409"><ele>651.0</ele><time>2026-04-12T08:23:06Z</time></trkpt><trkpt lat="43.68195036635628" lon="6.727090714382026"><ele>651.0</ele><time>2026-04-12T08:23:09Z</time></trkpt><trkpt lat="43.68201246690191" lon="6.727075366273407"><ele>651.0</ele><time>2026-04-12T08:23:12Z</time></trkpt><trkpt lat="43.682075834959264" lon="6.727086976213418"><ele>651.0</ele><time>2026-04-12T08:23:15Z</time></trkpt><trkpt lat="43.68213380131145" lon="6.727139392642955"><ele>651.0</ele><time>2026-04-12T08:23:19Z</time></trkpt><trkpt lat="43.68216992694314" lon="6.72722837054944"><ele>652.4285714285714</ele><time>2026-04-12T08:23:22Z</time></trkpt><trkpt lat="43.68218000442548" lon="6.727314936991549"><ele>653.8571428571429</ele><time>2026-04-12T08:23:25Z</time></trkpt><trkpt lat="43.68218067435241" lon="6.727402433389588"><ele>655.2857142857142</ele><time>2026-04-12T08:23:28Z</time></trkpt><trkpt lat="43.68217297989386" lon="6.727494771865729"><ele>656.7142857142858</ele><time>2026-04-12T08:23:32Z</time></trkpt><trkpt lat="43.68216968773283" lon="6.72758616763989"><ele>658.1428571428571</ele><time>2026-04-12T08:23:35Z</time></trkpt><trkpt lat="43.682169246948156" lon="6.727695098034794"><ele>659.5714285714286</ele><time>2026-04-12T08:23:39Z</time></trkpt><trkpt lat="43.68217926759877" lon="6.727799914394597"><ele>661.0</ele><time>2026-04-12T08:23:42Z</time></trkpt><trkpt lat="43.68219483226444" lon="6.727896989696939"><ele>661.2857142857142</ele><time>2026-04-12T08:23:45Z</time></trkpt><trkpt lat="43.682212654625964" lon="6.727988212626197"><ele>661.5714285714286</ele><time>2026-04-12T08:23:48Z</time></trkpt><trkpt lat="43.68223611612956" lon="6.728076126500096"><ele>661.8571428571429</ele><time>2026-04-12T08:23:51Z</time></trkpt><trkpt lat="43.68225052256789" lon="6.7281706114457895"><ele>662.1428571428571</ele><time>2026-04-12T08:23:54Z</time></trkpt><trkpt lat="43.6822731554571" lon="6.7282608872372816"><ele>662.4285714285714</ele><time>2026-04-12T08:23:57Z</time></trkpt><trkpt lat="43.6822916842945" lon="6.728354064945503"><ele>662.7142857142857</ele><time>2026-04-12T08:24:00Z</time></trkpt><trkpt lat="43.682316293749" lon="6.728441552134977"><ele>663.0</ele><time>2026-04-12T08:24:03Z</time></trkpt><trkpt lat="43.682339829305974" lon="6.728536799333266"><ele>662.8571428571428</ele><time>2026-04-12T08:24:07Z</time></trkpt><trkpt lat="43.68236167306943" lon="6.728620028065131"><ele>662.7142857142857</ele><time>2026-04-12T08:24:09Z</time></trkpt><trkpt lat="43.6823868387045" lon="6.728708975763632"><ele>662.5714285714286</ele><time>2026-04-12T08:24:13Z</time></trkpt><trkpt lat="43.68243443358713" lon="6.7288285287529295"><ele>662.4285714285713</ele><time>2026-04-12T08:24:17Z</time></trkpt><trkpt lat="43.68247403287138" lon="6.728905646248183"><ele>662.2857142857142</ele><time>2026-04-12T08:24:21Z</time></trkpt><trkpt lat="43.682514154396856" lon="6.728982685618449"><ele>662.1428571428571</ele><time>2026-04-12T08:24:24Z</time></trkpt><trkpt lat="43.68255516704863" lon="6.729064568175824"><ele>662.0</ele><time>2026-04-12T08:24:27Z</time></trkpt><trkpt lat="43.6826062118505" lon="6.729146146118182"><ele>662.0</ele><time>2026-04-12T08:24:29Z</time></trkpt><trkpt lat="43.68265482961654" lon="6.729229785511156"><ele>662.0</ele><time>2026-04-12T08:24:32Z</time></trkpt><trkpt lat="43.68270525491821" lon="6.729320585806073"><ele>662.0</ele><time>2026-04-12T08:24:35Z</time></trkpt><trkpt lat="43.6827517351298" lon="6.729416338416636"><ele>662.0</ele><time>2026-04-12T08:24:38Z</time></trkpt><trkpt lat="43.682794182414845" lon="6.729509935502325"><ele>662.0</ele><time>2026-04-12T08:24:41Z</time></trkpt><trkpt lat="43.68283277413744" lon="6.729611380037685"><ele>662.0</ele><time>2026-04-12T08:24:44Z</time></trkpt><trkpt lat="43.68287218187419" lon="6.729712169314032"><ele>664.3333333333333</ele><time>2026-04-12T08:24:47Z</time></trkpt><trkpt lat="43.68290873259788" lon="6.729813596102405"><ele>666.6666666666666</ele><time>2026-04-12T08:24:50Z</time></trkpt><trkpt lat="43.68293693597132" lon="6.729923821076108"><ele>669.0</ele><time>2026-04-12T08:24:54Z</time></trkpt><trkpt lat="43.68295417579795" lon="6.730040720713521"><ele>671.3333333333334</ele><time>2026-04-12T08:24:57Z</time></trkpt><trkpt lat="43.682960733755394" lon="6.730129044752768"><ele>673.6666666666667</ele><time>2026-04-12T08:25:00Z</time></trkpt><trkpt lat="43.682970358309845" lon="6.730230244472348"><ele>676.0</ele><time>2026-04-12T08:25:02Z</time></trkpt><trkpt lat="43.68298979874893" lon="6.730341821963739"><ele>676.1666666666667</ele><time>2026-04-12T08:25:05Z</time></trkpt><trkpt lat="43.68301378246722" lon="6.730461133284163"><ele>676.3333333333334</ele><time>2026-04-12T08:25:09Z</time></trkpt><trkpt lat="43.68303550210561" lon="6.7305472733538885"><ele>676.5</ele><time>2026-04-12T08:25:11Z</time></trkpt><trkpt lat="43.68306434326928" lon="6.730656942375203"><ele>676.6666666666666</ele><time>2026-04-12T08:25:14Z</time></trkpt><trkpt lat="43.6830956688202" lon="6.730757373778978"><ele>676.8333333333333</ele><time>2026-04-12T08:25:17Z</time></trkpt><trkpt lat="43.68313842304236" lon="6.730851408123024"><ele>677.0</ele><time>2026-04-12T08:25:20Z</time></trkpt><trkpt lat="43.68317599357149" lon="6.730952748270615"><ele>677.0</ele><time>2026-04-12T08:25:23Z</time></trkpt><trkpt lat="43.68321131390664" lon="6.731054659081109"><ele>677.0</ele><time>2026-04-12T08:25:26Z</time></trkpt><trkpt lat="43.68324394295287" lon="6.731157872532725"><ele>677.0</ele><time>2026-04-12T08:25:29Z</time></trkpt><trkpt lat="43.68327205640316" lon="6.731261652706792"><ele>677.0</ele><time>2026-04-12T08:25:32Z</time></trkpt><trkpt lat="43.68330567716906" lon="6.73136488355058"><ele>677.0</ele><time>2026-04-12T08:25:35Z</time></trkpt><trkpt lat="43.68334154592286" lon="6.731466152704892"><ele>677.0</ele><time>2026-04-12T08:25:38Z</time></trkpt><trkpt lat="43.68337548243129" lon="6.731565828059148"><ele>677.0</ele><time>2026-04-12T08:25:41Z</time></trkpt><trkpt lat="43.683419512452296" lon="6.731668654974452"><ele>677.0</ele><time>2026-04-12T08:25:45Z</time></trkpt><trkpt lat="43.68345415483835" lon="6.731751004734895"><ele>677.0</ele><time>2026-04-12T08:25:47Z</time></trkpt><trkpt lat="43.683497903138246" lon="6.731835586027073"><ele>677.0</ele><time>2026-04-12T08:25:50Z</time></trkpt><trkpt lat="43.68353668493182" lon="6.731923781975126"><ele>677.0</ele><time>2026-04-12T08:25:53Z</time></trkpt><trkpt lat="43.68357603514022" lon="6.732009398995785"><ele>677.0</ele><time>2026-04-12T08:25:56Z</time></trkpt><trkpt lat="43.68361380481404" lon="6.732094875603916"><ele>678.9999999999999</ele><time>2026-04-12T08:25:59Z</time></trkpt><trkpt lat="43.68365306079235" lon="6.73217182513159"><ele>681.0</ele><time>2026-04-12T08:26:02Z</time></trkpt><trkpt lat="43.683686243161944" lon="6.732252400404509"><ele>683.0</ele><time>2026-04-12T08:26:05Z</time></trkpt><trkpt lat="43.6837287198452" lon="6.73232052060615"><ele>685.0</ele><time>2026-04-12T08:26:08Z</time></trkpt><trkpt lat="43.683766019248445" lon="6.7323937452823595"><ele>687.0</ele><time>2026-04-12T08:26:11Z</time></trkpt><trkpt lat="43.68380742209229" lon="6.732462687261954"><ele>688.9999999999999</ele><time>2026-04-12T08:26:14Z</time></trkpt><trkpt lat="43.683850239049" lon="6.73252766548078"><ele>691.0</ele><time>2026-04-12T08:26:17Z</time></trkpt><trkpt lat="43.68388730687744" lon="6.732598191948508"><ele>691.0</ele><time>2026-04-12T08:26:20Z</time></trkpt><trkpt lat="43.68393881150069" lon="6.732683498075967"><ele>691.0</ele><time>2026-04-12T08:26:24Z</time></trkpt><trkpt lat="43.68401172710555" lon="6.732764123461973"><ele>691.0</ele><time>2026-04-12T08:26:29Z</time></trkpt><trkpt lat="43.68408208269897" lon="6.732761748238835"><ele>691.0</ele><time>2026-04-12T08:26:33Z</time></trkpt><trkpt lat="43.68410948342944" lon="6.732671720021657"><ele>691.0</ele><time>2026-04-12T08:26:37Z</time></trkpt><trkpt lat="43.68411756566338" lon="6.732582277865745"><ele>691.0</ele><time>2026-04-12T08:26:41Z</time></trkpt><trkpt lat="43.68411721867598" lon="6.732484504488461"><ele>691.0</ele><time>2026-04-12T08:26:45Z</time></trkpt><trkpt lat="43.68411506051335" lon="6.732363032080812"><ele>691.0</ele><time>2026-04-12T08:26:49Z</time></trkpt><trkpt lat="43.684121391441565" lon="6.732250244129647"><ele>691.0</ele><time>2026-04-12T08:26:53Z</time></trkpt><trkpt lat="43.68412290948063" lon="6.732147711666725"><ele>691.0</ele><time>2026-04-12T08:26:57Z</time></trkpt><trkpt lat="43.68411295631777" lon="6.732056396399803"><ele>691.0</ele><time>2026-04-12T08:27:01Z</time></trkpt><trkpt lat="43.68409772801296" lon="6.731949480917139"><ele>691.0</ele><time>2026-04-12T08:27:05Z</time></trkpt><trkpt lat="43.68407968437213" lon="6.731851701893121"><ele>691.8571428571428</ele><time>2026-04-12T08:27:08Z</time></trkpt><trkpt lat="43.684066475506796" lon="6.731741300588473"><ele>692.7142857142857</ele><time>2026-04-12T08:27:12Z</time></trkpt><trkpt lat="43.68405999666575" lon="6.731651893269723"><ele>693.5714285714286</ele><time>2026-04-12T08:27:15Z</time></trkpt><trkpt lat="43.68404808326215" lon="6.731564506341959"><ele>694.4285714285713</ele><time>2026-04-12T08:27:18Z</time></trkpt><trkpt lat="43.68404169834253" lon="6.731476354703245"><ele>695.2857142857142</ele><time>2026-04-12T08:27:21Z</time></trkpt><trkpt lat="43.68404732470833" lon="6.731386478785438"><ele>696.1428571428571</ele><time>2026-04-12T08:27:24Z</time></trkpt><trkpt lat="43.6840613967" lon="6.7312897659193105"><ele>697.0</ele><time>2026-04-12T08:27:28Z</time></trkpt><trkpt lat="43.68407676194405" lon="6.731182532541348"><ele>697.0</ele><time>2026-04-12T08:27:32Z</time></trkpt><trkpt lat="43.68409914393739" lon="6.731076031269068"><ele>697.0</ele><time>2026-04-12T08:27:36Z</time></trkpt><trkpt lat="43.68412064941057" lon="6.730968853975119"><ele>697.0</ele><time>2026-04-12T08:27:40Z</time></trkpt><trkpt lat="43.68414285620202" lon="6.730860040182363"><ele>697.0</ele><time>2026-04-12T08:27:44Z</time></trkpt><trkpt lat="43.68417022359176" lon="6.730753739483087"><ele>697.0</ele><time>2026-04-12T08:27:48Z</time></trkpt><trkpt lat="43.68420633044955" lon="6.730654977504158"><ele>697.0</ele><time>2026-04-12T08:27:52Z</time></trkpt><trkpt lat="43.6842441567402" lon="6.730557800210713"><ele>696.8571428571429</ele><time>2026-04-12T08:27:56Z</time></trkpt><trkpt lat="43.684282330763274" lon="6.73046386139709"><ele>696.7142857142857</ele><time>2026-04-12T08:28:00Z</time></trkpt><trkpt lat="43.684321897710795" lon="6.730370018587379"><ele>696.5714285714286</ele><time>2026-04-12T08:28:04Z</time></trkpt><trkpt lat="43.684360128205036" lon="6.730292131853963"><ele>696.4285714285714</ele><time>2026-04-12T08:28:07Z</time></trkpt><trkpt lat="43.68439397270406" lon="6.730212295034327"><ele>696.2857142857143</ele><time>2026-04-12T08:28:11Z</time></trkpt><trkpt lat="43.684436103590045" lon="6.730129826460244"><ele>696.1428571428571</ele><time>2026-04-12T08:28:14Z</time></trkpt><trkpt lat="43.68447353587228" lon="6.73005792004633"><ele>696.0</ele><time>2026-04-12T08:28:17Z</time></trkpt><trkpt lat="43.68450956129302" lon="6.729980285960831"><ele>698.1428571428571</ele><time>2026-04-12T08:28:20Z</time></trkpt><trkpt lat="43.68454791442334" lon="6.729887957267748"><ele>700.2857142857143</ele><time>2026-04-12T08:28:23Z</time></trkpt><trkpt lat="43.68459010612569" lon="6.729801590756576"><ele>702.4285714285714</ele><time>2026-04-12T08:28:26Z</time></trkpt><trkpt lat="43.68463611395317" lon="6.7297207041396625"><ele>704.5714285714286</ele><time>2026-04-12T08:28:29Z</time></trkpt><trkpt lat="43.68468052939862" lon="6.72963685360946"><ele>706.7142857142857</ele><time>2026-04-12T08:28:32Z</time></trkpt><trkpt lat="43.68472301838574" lon="6.729551576700777"><ele>708.8571428571429</ele><time>2026-04-12T08:28:35Z</time></trkpt><trkpt lat="43.684762112007384" lon="6.729468666719815"><ele>711.0</ele><time>2026-04-12T08:28:38Z</time></trkpt><trkpt lat="43.6848076969174" lon="6.729383622766193"><ele>711.0</ele><time>2026-04-12T08:28:42Z</time></trkpt><trkpt lat="43.68484633885564" lon="6.729306273733108"><ele>711.0</ele><time>2026-04-12T08:28:45Z</time></trkpt><trkpt lat="43.6848913715384" lon="6.729224423554618"><ele>711.0</ele><time>2026-04-12T08:28:49Z</time></trkpt><trkpt lat="43.6849449897857" lon="6.729138647293859"><ele>711.0</ele><time>2026-04-12T08:28:53Z</time></trkpt><trkpt lat="43.68500053892534" lon="6.729062182768944"><ele>711.0</ele><time>2026-04-12T08:28:56Z</time></trkpt><trkpt lat="43.685047931006686" lon="6.729001039361399"><ele>711.0</ele><time>2026-04-12T08:29:00Z</time></trkpt><trkpt lat="43.68510221546438" lon="6.728917144362586"><ele>711.0</ele><time>2026-04-12T08:29:04Z</time></trkpt><trkpt lat="43.685170917520274" lon="6.728827745199728"><ele>711.0</ele><time>2026-04-12T08:29:08Z</time></trkpt><trkpt lat="43.685227301721774" lon="6.728748546527817"><ele>711.0</ele><time>2026-04-12T08:29:12Z</time></trkpt><trkpt lat="43.68528149851986" lon="6.728665251538652"><ele>711.0</ele><time>2026-04-12T08:29:16Z</time></trkpt><trkpt lat="43.6853407481828" lon="6.728587184295023"><ele>711.0</ele><time>2026-04-12T08:29:20Z</time></trkpt><trkpt lat="43.685387007016054" lon="6.728527529444241"><ele>711.0</ele><time>2026-04-12T08:29:23Z</time></trkpt><trkpt lat="43.685447395909875" lon="6.728448235477956"><ele>711.0</ele><time>2026-04-12T08:29:27Z</time></trkpt><trkpt lat="43.6855005027801" lon="6.728389438907883"><ele>711.8571428571429</ele><time>2026-04-12T08:29:31Z</time></trkpt><trkpt lat="43.685561470304116" lon="6.728338740885123"><ele>712.7142857142857</ele><time>2026-04-12T08:29:34Z</time></trkpt><trkpt lat="43.68562503937645" lon="6.728302937175753"><ele>713.5714285714286</ele><time>2026-04-12T08:29:38Z</time></trkpt><trkpt lat="43.6856999657837" lon="6.728274325084155"><ele>714.4285714285714</ele><time>2026-04-12T08:29:41Z</time></trkpt><trkpt lat="43.68576374598162" lon="6.7282570370504935"><ele>715.2857142857142</ele><time>2026-04-12T08:29:44Z</time></trkpt><trkpt lat="43.68583118582252" lon="6.728250505751052"><ele>716.1428571428571</ele><time>2026-04-12T08:29:47Z</time></trkpt><trkpt lat="43.68590043129031" lon="6.728252718583828"><ele>717.0</ele><time>2026-04-12T08:29:50Z</time></trkpt><trkpt lat="43.685966003342266" lon="6.728247552297333"><ele>717.0</ele><time>2026-04-12T08:29:53Z</time></trkpt><trkpt lat="43.6860306245145" lon="6.72824087136023"><ele>717.0</ele><time>2026-04-12T08:29:56Z</time></trkpt><trkpt lat="43.68611370336453" lon="6.728241886786711"><ele>717.0</ele><time>2026-04-12T08:30:00Z</time></trkpt><trkpt lat="43.686184723623924" lon="6.728225778130475"><ele>717.0</ele><time>2026-04-12T08:30:04Z</time></trkpt><trkpt lat="43.68624970682985" lon="6.7282051737173765"><ele>717.0</ele><time>2026-04-12T08:30:07Z</time></trkpt><trkpt lat="43.68632577587584" lon="6.728188752907336"><ele>717.0</ele><time>2026-04-12T08:30:11Z</time></trkpt><trkpt lat="43.686397606701036" lon="6.728156640058184"><ele>717.0</ele><time>2026-04-12T08:30:15Z</time></trkpt><trkpt lat="43.686474172960786" lon="6.728104384641201"><ele>718.0</ele><time>2026-04-12T08:30:20Z</time></trkpt><trkpt lat="43.68653212266925" lon="6.7280483897723755"><ele>719.0</ele><time>2026-04-12T08:30:24Z</time></trkpt><trkpt lat="43.68659127106728" lon="6.727960889028367"><ele>720.0</ele><time>2026-04-12T08:30:28Z</time></trkpt><trkpt lat="43.686634713111495" lon="6.727895787970972"><ele>721.0</ele><time>2026-04-12T08:30:32Z</time></trkpt><trkpt lat="43.68667894254721" lon="6.727831081149601"><ele>722.0</ele><time>2026-04-12T08:30:35Z</time></trkpt><trkpt lat="43.68675375224724" lon="6.7277447964231465"><ele>723.0</ele><time>2026-04-12T08:30:38Z</time></trkpt><trkpt lat="43.686835270217195" lon="6.72766447636968"><ele>723.0</ele><time>2026-04-12T08:30:41Z</time></trkpt><trkpt lat="43.686892814455426" lon="6.727614738877309"><ele>723.0</ele><time>2026-04-12T08:30:43Z</time></trkpt><trkpt lat="43.68696370188299" lon="6.727551276050438"><ele>723.0</ele><time>2026-04-12T08:30:45Z</time></trkpt><trkpt lat="43.68702664160662" lon="6.727502753342105"><ele>723.0</ele><time>2026-04-12T08:30:46Z</time></trkpt><trkpt lat="43.68709049431872" lon="6.727451691933779"><ele>723.0</ele><time>2026-04-12T08:30:48Z</time></trkpt><trkpt lat="43.68715814142074" lon="6.727393514144434"><ele>723.0</ele><time>2026-04-12T08:30:50Z</time></trkpt><trkpt lat="43.68722225761748" lon="6.727339657082311"><ele>724.4285714285714</ele><time>2026-04-12T08:30:52Z</time></trkpt><trkpt lat="43.6872855405322" lon="6.727289364524396"><ele>725.8571428571429</ele><time>2026-04-12T08:30:54Z</time></trkpt><trkpt lat="43.68734689935491" lon="6.727236034664725"><ele>727.2857142857142</ele><time>2026-04-12T08:30:56Z</time></trkpt><trkpt lat="43.687411859805934" lon="6.727191078336955"><ele>728.7142857142858</ele><time>2026-04-12T08:30:58Z</time></trkpt><trkpt lat="43.68747499700221" lon="6.727147265710242"><ele>730.1428571428571</ele><time>2026-04-12T08:31:00Z</time></trkpt><trkpt lat="43.68753451470318" lon="6.727102106796591"><ele>731.5714285714286</ele><time>2026-04-12T08:31:02Z</time></trkpt><trkpt lat="43.687594756913434" lon="6.727062209665203"><ele>733.0</ele><time>2026-04-12T08:31:04Z</time></trkpt><trkpt lat="43.68767445491073" lon="6.726994568199059"><ele>732.9999999999999</ele><time>2026-04-12T08:31:07Z</time></trkpt><trkpt lat="43.68775365852871" lon="6.72694334067203"><ele>733.0</ele><time>2026-04-12T08:31:10Z</time></trkpt><trkpt lat="43.687810826405425" lon="6.726904143185946"><ele>733.0</ele><time>2026-04-12T08:31:13Z</time></trkpt><trkpt lat="43.687876482630564" lon="6.7268611045952715"><ele>733.0</ele><time>2026-04-12T08:31:16Z</time></trkpt><trkpt lat="43.687937369193335" lon="6.726823871753085"><ele>733.0</ele><time>2026-04-12T08:31:18Z</time></trkpt><trkpt lat="43.68800413910185" lon="6.726794221992973"><ele>732.9999999999999</ele><time>2026-04-12T08:31:20Z</time></trkpt><trkpt lat="43.68806647940667" lon="6.726777121839052"><ele>733.0</ele><time>2026-04-12T08:31:23Z</time></trkpt><trkpt lat="43.68815276721946" lon="6.726759768851226"><ele>732.6666666666667</ele><time>2026-04-12T08:31:26Z</time></trkpt><trkpt lat="43.68822163206112" lon="6.726750751376336"><ele>732.3333333333334</ele><time>2026-04-12T08:31:29Z</time></trkpt><trkpt lat="43.68829844567367" lon="6.726739084482459"><ele>732.0</ele><time>2026-04-12T08:31:32Z</time></trkpt><trkpt lat="43.68837736426025" lon="6.726723746875493"><ele>731.6666666666666</ele><time>2026-04-12T08:31:35Z</time></trkpt><trkpt lat="43.688468419045776" lon="6.726700609713883"><ele>731.3333333333333</ele><time>2026-04-12T08:31:37Z</time></trkpt><trkpt lat="43.688564281480225" lon="6.72669008235407"><ele>731.0</ele><time>2026-04-12T08:31:40Z</time></trkpt><trkpt lat="43.68864033802011" lon="6.726694458674379"><ele>732.5</ele><time>2026-04-12T08:31:42Z</time></trkpt><trkpt lat="43.68872003199587" lon="6.72670077300447"><ele>734.0</ele><time>2026-04-12T08:31:44Z</time></trkpt><trkpt lat="43.688798989708296" lon="6.7267079601463555"><ele>735.5</ele><time>2026-04-12T08:31:46Z</time></trkpt><trkpt lat="43.68887582440612" lon="6.726719048016594"><ele>737.0</ele><time>2026-04-12T08:31:48Z</time></trkpt><trkpt lat="43.6889512611907" lon="6.72672867074174"><ele>738.5</ele><time>2026-04-12T08:31:50Z</time></trkpt><trkpt lat="43.689025525865794" lon="6.7267400956624614"><ele>740.0</ele><time>2026-04-12T08:31:52Z</time></trkpt><trkpt lat="43.68909736275085" lon="6.726761273126202"><ele>739.9999999999999</ele><time>2026-04-12T08:31:54Z</time></trkpt><trkpt lat="43.689169981939216" lon="6.726776513775999"><ele>740.0</ele><time>2026-04-12T08:31:56Z</time></trkpt><trkpt lat="43.68923746956064" lon="6.726788406940051"><ele>740.0</ele><time>2026-04-12T08:31:58Z</time></trkpt><trkpt lat="43.68930399144594" lon="6.726789154273135"><ele>740.0</ele><time>2026-04-12T08:32:00Z</time></trkpt><trkpt lat="43.68936884870926" lon="6.72678301056289"><ele>740.0</ele><time>2026-04-12T08:32:02Z</time></trkpt><trkpt lat="43.689453463294385" lon="6.726762251167068"><ele>739.9999999999999</ele><time>2026-04-12T08:32:05Z</time></trkpt><trkpt lat="43.68952179194709" lon="6.726714905353472"><ele>740.0</ele><time>2026-04-12T08:32:08Z</time></trkpt><trkpt lat="43.68956822127018" lon="6.726622330145768"><ele>743.0</ele><time>2026-04-12T08:32:11Z</time></trkpt><trkpt lat="43.68956290185958" lon="6.726505186656622"><ele>746.0</ele><time>2026-04-12T08:32:14Z</time></trkpt><trkpt lat="43.68952998102277" lon="6.726396778820157"><ele>749.0</ele><time>2026-04-12T08:32:17Z</time></trkpt><trkpt lat="43.68949586123684" lon="6.726283753361684"><ele>752.0</ele><time>2026-04-12T08:32:21Z</time></trkpt><trkpt lat="43.68947260827652" lon="6.726192116755682"><ele>755.0</ele><time>2026-04-12T08:32:24Z</time></trkpt><trkpt lat="43.68945595954559" lon="6.7260880157328575"><ele>758.0</ele><time>2026-04-12T08:32:27Z</time></trkpt><trkpt lat="43.68943688623417" lon="6.7260006272746145"><ele>758.0</ele><time>2026-04-12T08:32:30Z</time></trkpt><trkpt lat="43.68943349073145" lon="6.725899099862451"><ele>758.0</ele><time>2026-04-12T08:32:33Z</time></trkpt><trkpt lat="43.689439117566025" lon="6.725804315689116"><ele>758.0</ele><time>2026-04-12T08:32:36Z</time></trkpt><trkpt lat="43.68947028745199" lon="6.725711801805766"><ele>758.0</ele><time>2026-04-12T08:32:40Z</time></trkpt><trkpt lat="43.6895205661757" lon="6.725617089403462"><ele>758.0</ele><time>2026-04-12T08:32:44Z</time></trkpt><trkpt lat="43.689585380224464" lon="6.725520920354142"><ele>758.0</ele><time>2026-04-12T08:32:47Z</time></trkpt><trkpt lat="43.68965061677428" lon="6.7254514309339335"><ele>758.0</ele><time>2026-04-12T08:32:50Z</time></trkpt><trkpt lat="43.68970221401836" lon="6.725393771755428"><ele>758.0</ele><time>2026-04-12T08:32:51Z</time></trkpt><trkpt lat="43.68977137675335" lon="6.725343794637061"><ele>758.0</ele><time>2026-04-12T08:32:53Z</time></trkpt><trkpt lat="43.6898458188675" lon="6.725264595241457"><ele>758.0</ele><time>2026-04-12T08:32:55Z</time></trkpt><trkpt lat="43.689939875495476" lon="6.725201560607784"><ele>758.0</ele><time>2026-04-12T08:32:57Z</time></trkpt><trkpt lat="43.690036963816816" lon="6.7251435921584655"><ele>758.0</ele><time>2026-04-12T08:32:59Z</time></trkpt><trkpt lat="43.690132685845725" lon="6.725088411314369"><ele>756.0</ele><time>2026-04-12T08:33:01Z</time></trkpt><trkpt lat="43.6901928972663" lon="6.7249775070739775"><ele>754.0</ele><time>2026-04-12T08:33:03Z</time></trkpt><trkpt lat="43.69022224879613" lon="6.724830380017579"><ele>752.0</ele><time>2026-04-12T08:33:05Z</time></trkpt><trkpt lat="43.69018905120523" lon="6.724746686554575"><ele>750.0</ele><time>2026-04-12T08:33:06Z</time></trkpt><trkpt lat="43.69010040165298" lon="6.724664394589413"><ele>748.0</ele><time>2026-04-12T08:33:08Z</time></trkpt><trkpt lat="43.69003222335364" lon="6.7246109892594585"><ele>748.0</ele><time>2026-04-12T08:33:10Z</time></trkpt><trkpt lat="43.68996104966606" lon="6.7245754664721975"><ele>748.0</ele><time>2026-04-12T08:33:12Z</time></trkpt><trkpt lat="43.68991971822037" lon="6.724500955838404"><ele>748.0</ele><time>2026-04-12T08:33:14Z</time></trkpt><trkpt lat="43.689866078917774" lon="6.724444512768753"><ele>748.0</ele><time>2026-04-12T08:33:16Z</time></trkpt><trkpt lat="43.68978765880117" lon="6.724383187433351"><ele>748.0</ele><time>2026-04-12T08:33:19Z</time></trkpt><trkpt lat="43.68970715862106" lon="6.724362374105136"><ele>748.0</ele><time>2026-04-12T08:33:22Z</time></trkpt><trkpt lat="43.6896426005916" lon="6.724323524243904"><ele>749.6666666666667</ele><time>2026-04-12T08:33:25Z</time></trkpt><trkpt lat="43.68957299272347" lon="6.724307880061946"><ele>751.3333333333334</ele><time>2026-04-12T08:33:28Z</time></trkpt><trkpt lat="43.689514828402174" lon="6.724261582711181"><ele>753.0</ele><time>2026-04-12T08:33:31Z</time></trkpt><trkpt lat="43.689471349348096" lon="6.724188865040004"><ele>754.6666666666666</ele><time>2026-04-12T08:33:34Z</time></trkpt><trkpt lat="43.68945769353517" lon="6.724084404427393"><ele>756.3333333333333</ele><time>2026-04-12T08:33:38Z</time></trkpt><trkpt lat="43.68946381205841" lon="6.723959638501299"><ele>758.0</ele><time>2026-04-12T08:33:41Z</time></trkpt><trkpt lat="43.689473319272004" lon="6.723841135165813"><ele>758.0</ele><time>2026-04-12T08:33:44Z</time></trkpt><trkpt lat="43.68949171632669" lon="6.723731910157941"><ele>758.0</ele><time>2026-04-12T08:33:47Z</time></trkpt><trkpt lat="43.68951743310098" lon="6.723552516335187"><ele>758.0</ele><time>2026-04-12T08:33:50Z</time></trkpt><trkpt lat="43.68954137251486" lon="6.72346842353363"><ele>758.0</ele><time>2026-04-12T08:33:52Z</time></trkpt><trkpt lat="43.68956397027584" lon="6.723381219945983"><ele>758.0</ele><time>2026-04-12T08:33:54Z</time></trkpt><trkpt lat="43.689590177983824" lon="6.7232968971607"><ele>758.0</ele><time>2026-04-12T08:33:56Z</time></trkpt><trkpt lat="43.689624713702365" lon="6.7232174656389745"><ele>758.3333333333333</ele><time>2026-04-12T08:33:58Z</time></trkpt><trkpt lat="43.68966665909349" lon="6.7231451612805255"><ele>758.6666666666666</ele><time>2026-04-12T08:34:00Z</time></trkpt><trkpt lat="43.68971170861982" lon="6.7230764774845415"><ele>759.0</ele><time>2026-04-12T08:34:02Z</time></trkpt><trkpt lat="43.68977894625684" lon="6.722984297756882"><ele>759.3333333333334</ele><time>2026-04-12T08:34:05Z</time></trkpt><trkpt lat="43.689825896137485" lon="6.7229251122204206"><ele>759.6666666666667</ele><time>2026-04-12T08:34:07Z</time></trkpt><trkpt lat="43.68989499832327" lon="6.722836656152886"><ele>760.0</ele><time>2026-04-12T08:34:10Z</time></trkpt><trkpt lat="43.689941593267385" lon="6.722776666046991"><ele>758.6</ele><time>2026-04-12T08:34:12Z</time></trkpt><trkpt lat="43.69000853337337" lon="6.7226870782403605"><ele>757.2</ele><time>2026-04-12T08:34:15Z</time></trkpt><trkpt lat="43.690078882176714" lon="6.722603911124283"><ele>755.8</ele><time>2026-04-12T08:34:18Z</time></trkpt><trkpt lat="43.69015018432298" lon="6.722523964635932"><ele>754.4</ele><time>2026-04-12T08:34:21Z</time></trkpt><trkpt lat="43.69022032362369" lon="6.722440845268967"><ele>753.0</ele><time>2026-04-12T08:34:24Z</time></trkpt><trkpt lat="43.690291819384065" lon="6.722363284400706"><ele>756.1666666666666</ele><time>2026-04-12T08:34:27Z</time></trkpt><trkpt lat="43.69036271075616" lon="6.722286505682837"><ele>759.3333333333333</ele><time>2026-04-12T08:34:30Z</time></trkpt><trkpt lat="43.69043505010424" lon="6.722210887264536"><ele>762.5</ele><time>2026-04-12T08:34:33Z</time></trkpt><trkpt lat="43.690508080603465" lon="6.722145388145"><ele>765.6666666666666</ele><time>2026-04-12T08:34:36Z</time></trkpt><trkpt lat="43.6905796272073" lon="6.722078424978788"><ele>768.8333333333333</ele><time>2026-04-12T08:34:39Z</time></trkpt><trkpt lat="43.69064358166302" lon="6.722015131229715"><ele>772.0</ele><time>2026-04-12T08:34:42Z</time></trkpt><trkpt lat="43.69070503883991" lon="6.721948262399601"><ele>769.9999999999999</ele><time>2026-04-12T08:34:45Z</time></trkpt><trkpt lat="43.69076391764985" lon="6.721877839840024"><ele>768.0</ele><time>2026-04-12T08:34:48Z</time></trkpt><trkpt lat="43.69082319745851" lon="6.7218111221318555"><ele>766.0</ele><time>2026-04-12T08:34:51Z</time></trkpt><trkpt lat="43.690881295277435" lon="6.721738568831033"><ele>764.0</ele><time>2026-04-12T08:34:54Z</time></trkpt><trkpt lat="43.69093131969541" lon="6.721661587405646"><ele>762.0</ele><time>2026-04-12T08:34:57Z</time></trkpt><trkpt lat="43.69098155126691" lon="6.721586222299379"><ele>760.0</ele><time>2026-04-12T08:35:00Z</time></trkpt><trkpt lat="43.69102896284056" lon="6.721500747666434"><ele>760.0</ele><time>2026-04-12T08:35:03Z</time></trkpt><trkpt lat="43.69107672800941" lon="6.721415916154809"><ele>760.0</ele><time>2026-04-12T08:35:06Z</time></trkpt><trkpt lat="43.691126181191514" lon="6.721333397856385"><ele>760.0</ele><time>2026-04-12T08:35:09Z</time></trkpt><trkpt lat="43.69117780251131" lon="6.721258240401005"><ele>760.0</ele><time>2026-04-12T08:35:12Z</time></trkpt><trkpt lat="43.69123846974094" lon="6.721191315914651"><ele>760.0</ele><time>2026-04-12T08:35:15Z</time></trkpt><trkpt lat="43.69130326371123" lon="6.72113374386378"><ele>760.0</ele><time>2026-04-12T08:35:18Z</time></trkpt><trkpt lat="43.69136956379392" lon="6.72108081529071"><ele>762.0</ele><time>2026-04-12T08:35:21Z</time></trkpt><trkpt lat="43.69143384769834" lon="6.721037061702887"><ele>764.0</ele><time>2026-04-12T08:35:24Z</time></trkpt><trkpt lat="43.69149738179076" lon="6.721044316391862"><ele>766.0</ele><time>2026-04-12T08:35:27Z</time></trkpt><trkpt lat="43.69147776862732" lon="6.7211533585347265"><ele>768.0</ele><time>2026-04-12T08:35:31Z</time></trkpt><trkpt lat="43.691423488757714" lon="6.721206635603472"><ele>770.0</ele><time>2026-04-12T08:35:34Z</time></trkpt><trkpt lat="43.69136962422573" lon="6.721263225918207"><ele>772.0</ele><time>2026-04-12T08:35:37Z</time></trkpt><trkpt lat="43.69132011579232" lon="6.7213245498851055"><ele>774.0</ele><time>2026-04-12T08:35:40Z</time></trkpt><trkpt lat="43.69127222328181" lon="6.721396960636369"><ele>773.6666666666666</ele><time>2026-04-12T08:35:43Z</time></trkpt><trkpt lat="43.6912258107916" lon="6.721483248234559"><ele>773.3333333333333</ele><time>2026-04-12T08:35:46Z</time></trkpt><trkpt lat="43.69118045819031" lon="6.721592020249094"><ele>773.0</ele><time>2026-04-12T08:35:50Z</time></trkpt><trkpt lat="43.69114434930342" lon="6.721685952086244"><ele>772.6666666666666</ele><time>2026-04-12T08:35:53Z</time></trkpt><trkpt lat="43.69110703996321" lon="6.7218078337875475"><ele>772.3333333333333</ele><time>2026-04-12T08:35:56Z</time></trkpt><trkpt lat="43.691072045034794" lon="6.721894728910059"><ele>772.0</ele><time>2026-04-12T08:35:59Z</time></trkpt><trkpt lat="43.69103871116803" lon="6.72199492224316"><ele>771.9999999999999</ele><time>2026-04-12T08:36:02Z</time></trkpt><trkpt lat="43.691012647749815" lon="6.722097538717763"><ele>772.0</ele><time>2026-04-12T08:36:06Z</time></trkpt><trkpt lat="43.6909866797531" lon="6.722198802765224"><ele>772.0</ele><time>2026-04-12T08:36:09Z</time></trkpt><trkpt lat="43.69096025719026" lon="6.722305632249046"><ele>772.0</ele><time>2026-04-12T08:36:12Z</time></trkpt><trkpt lat="43.69093391170361" lon="6.722419671690434"><ele>771.9999999999999</ele><time>2026-04-12T08:36:15Z</time></trkpt><trkpt lat="43.690914859212874" lon="6.722513027837654"><ele>772.0</ele><time>2026-04-12T08:36:18Z</time></trkpt><trkpt lat="43.69089661381665" lon="6.722611257649409"><ele>771.9999999999999</ele><time>2026-04-12T08:36:20Z</time></trkpt><trkpt lat="43.69087438725687" lon="6.722711455635728"><ele>772.0</ele><time>2026-04-12T08:36:23Z</time></trkpt><trkpt lat="43.69084918545759" lon="6.722813971766038"><ele>772.0</ele><time>2026-04-12T08:36:26Z</time></trkpt><trkpt lat="43.690822454241115" lon="6.722917325554012"><ele>772.0</ele><time>2026-04-12T08:36:29Z</time></trkpt><trkpt lat="43.69079419652291" lon="6.723016527121299"><ele>771.9999999999999</ele><time>2026-04-12T08:36:32Z</time></trkpt><trkpt lat="43.69079067802155" lon="6.723127251461266"><ele>772.0</ele><time>2026-04-12T08:36:35Z</time></trkpt><trkpt lat="43.690843961839" lon="6.723202712096016"><ele>772.9999999999999</ele><time>2026-04-12T08:36:38Z</time></trkpt><trkpt lat="43.69091384972399" lon="6.723173469243404"><ele>774.0</ele><time>2026-04-12T08:36:41Z</time></trkpt><trkpt lat="43.69095443598023" lon="6.723076242798081"><ele>775.0</ele><time>2026-04-12T08:36:44Z</time></trkpt><trkpt lat="43.69100067501602" lon="6.7229888538618585"><ele>776.0</ele><time>2026-04-12T08:36:47Z</time></trkpt><trkpt lat="43.691043584035405" lon="6.722895353203348"><ele>776.9999999999999</ele><time>2026-04-12T08:36:50Z</time></trkpt><trkpt lat="43.691093009663376" lon="6.7228059579501664"><ele>778.0</ele><time>2026-04-12T08:36:53Z</time></trkpt><trkpt lat="43.69114331000757" lon="6.722717789881879"><ele>780.1666666666666</ele><time>2026-04-12T08:36:56Z</time></trkpt><trkpt lat="43.69119219143595" lon="6.722629134015081"><ele>782.3333333333333</ele><time>2026-04-12T08:36:59Z</time></trkpt><trkpt lat="43.691239337609794" lon="6.722542328141971"><ele>784.5</ele><time>2026-04-12T08:37:02Z</time></trkpt><trkpt lat="43.69128941397586" lon="6.722455636653422"><ele>786.6666666666667</ele><time>2026-04-12T08:37:05Z</time></trkpt><trkpt lat="43.6913391810851" lon="6.722379865544189"><ele>788.8333333333334</ele><time>2026-04-12T08:37:08Z</time></trkpt><trkpt lat="43.69139026092762" lon="6.722285748018091"><ele>791.0</ele><time>2026-04-12T08:37:11Z</time></trkpt><trkpt lat="43.69143274842006" lon="6.72220389531516"><ele>791.0000000000001</ele><time>2026-04-12T08:37:14Z</time></trkpt><trkpt lat="43.69148151730062" lon="6.7221211998149"><ele>791.0</ele><time>2026-04-12T08:37:17Z</time></trkpt><trkpt lat="43.69152689736898" lon="6.7220343261052475"><ele>791.0</ele><time>2026-04-12T08:37:20Z</time></trkpt><trkpt lat="43.69157439030398" lon="6.7219487201526285"><ele>791.0</ele><time>2026-04-12T08:37:23Z</time></trkpt><trkpt lat="43.69162711213325" lon="6.72186015497289"><ele>791.0000000000001</ele><time>2026-04-12T08:37:26Z</time></trkpt><trkpt lat="43.691678161284976" lon="6.7217777016011"><ele>791.0</ele><time>2026-04-12T08:37:29Z</time></trkpt><trkpt lat="43.691731828773285" lon="6.72169588600964"><ele>789.6666666666667</ele><time>2026-04-12T08:37:32Z</time></trkpt><trkpt lat="43.691785284793774" lon="6.721614816495054"><ele>788.3333333333334</ele><time>2026-04-12T08:37:35Z</time></trkpt><trkpt lat="43.69184208564077" lon="6.721537163365935"><ele>787.0</ele><time>2026-04-12T08:37:38Z</time></trkpt><trkpt lat="43.69189578668794" lon="6.721459474793914"><ele>785.6666666666667</ele><time>2026-04-12T08:37:41Z</time></trkpt><trkpt lat="43.69194954722717" lon="6.721387139633007"><ele>784.3333333333334</ele><time>2026-04-12T08:37:44Z</time></trkpt><trkpt lat="43.692012473486265" lon="6.721308898231846"><ele>783.0</ele><time>2026-04-12T08:37:47Z</time></trkpt><trkpt lat="43.692063802784" lon="6.721233764902026"><ele>784.6666666666666</ele><time>2026-04-12T08:37:50Z</time></trkpt><trkpt lat="43.69212528462342" lon="6.721160347216126"><ele>786.3333333333333</ele><time>2026-04-12T08:37:53Z</time></trkpt><trkpt lat="43.6921864818476" lon="6.7210869840144385"><ele>788.0</ele><time>2026-04-12T08:37:56Z</time></trkpt><trkpt lat="43.69224836486215" lon="6.721013203577661"><ele>789.6666666666666</ele><time>2026-04-12T08:37:59Z</time></trkpt><trkpt lat="43.692313969153474" lon="6.720946815171939"><ele>791.3333333333333</ele><time>2026-04-12T08:38:02Z</time></trkpt><trkpt lat="43.6923833036719" lon="6.720892437044143"><ele>793.0</ele><time>2026-04-12T08:38:05Z</time></trkpt><trkpt lat="43.692454778406805" lon="6.720838358943048"><ele>792.9999999999999</ele><time>2026-04-12T08:38:08Z</time></trkpt><trkpt lat="43.69252618982675" lon="6.7207867222576265"><ele>793.0</ele><time>2026-04-12T08:38:11Z</time></trkpt><trkpt lat="43.69259959445998" lon="6.720711379188257"><ele>793.0</ele><time>2026-04-12T08:38:14Z</time></trkpt><trkpt lat="43.69264704064685" lon="6.720633986483086"><ele>793.0</ele><time>2026-04-12T08:38:16Z</time></trkpt><trkpt lat="43.69267282161795" lon="6.72055041122743"><ele>792.9999999999999</ele><time>2026-04-12T08:38:18Z</time></trkpt><trkpt lat="43.692678857046495" lon="6.720461952228712"><ele>793.0</ele><time>2026-04-12T08:38:20Z</time></trkpt><trkpt lat="43.69266447213054" lon="6.7203371351022865"><ele>793.3333333333333</ele><time>2026-04-12T08:38:23Z</time></trkpt><trkpt lat="43.69264174938763" lon="6.720228874686576"><ele>793.6666666666666</ele><time>2026-04-12T08:38:26Z</time></trkpt><trkpt lat="43.69261908178643" lon="6.720133338506301"><ele>794.0</ele><time>2026-04-12T08:38:28Z</time></trkpt><trkpt lat="43.69259116502266" lon="6.7200169320491225"><ele>794.3333333333333</ele><time>2026-04-12T08:38:31Z</time></trkpt><trkpt lat="43.69255749550506" lon="6.719901450391267"><ele>794.6666666666666</ele><time>2026-04-12T08:38:34Z</time></trkpt><trkpt lat="43.6925209204795" lon="6.719783546367189"><ele>795.0</ele><time>2026-04-12T08:38:37Z</time></trkpt><trkpt lat="43.69248595549538" lon="6.719667334766096"><ele>795.0</ele><time>2026-04-12T08:38:40Z</time></trkpt><trkpt lat="43.69244258925273" lon="6.719559512253853"><ele>795.0</ele><time>2026-04-12T08:38:43Z</time></trkpt><trkpt lat="43.69238696897282" lon="6.719464384616821"><ele>795.0</ele><time>2026-04-12T08:38:46Z</time></trkpt><trkpt lat="43.69233320574333" lon="6.7193675660503525"><ele>795.0</ele><time>2026-04-12T08:38:49Z</time></trkpt><trkpt lat="43.692272133041264" lon="6.719277617996457"><ele>795.0</ele><time>2026-04-12T08:38:52Z</time></trkpt><trkpt lat="43.69221158198577" lon="6.719189283047815"><ele>795.0</ele><time>2026-04-12T08:38:55Z</time></trkpt><trkpt lat="43.69214614913249" lon="6.719104089026298"><ele>794.6666666666666</ele><time>2026-04-12T08:38:58Z</time></trkpt><trkpt lat="43.69208298571298" lon="6.719013253064976"><ele>794.3333333333333</ele><time>2026-04-12T08:39:01Z</time></trkpt><trkpt lat="43.69201807482112" lon="6.71892697387926"><ele>794.0</ele><time>2026-04-12T08:39:04Z</time></trkpt><trkpt lat="43.69195560343214" lon="6.718841418776234"><ele>793.6666666666666</ele><time>2026-04-12T08:39:07Z</time></trkpt><trkpt lat="43.69190842294352" lon="6.718739977776363"><ele>793.3333333333333</ele><time>2026-04-12T08:39:10Z</time></trkpt><trkpt lat="43.69187462936666" lon="6.7186336600315135"><ele>793.0</ele><time>2026-04-12T08:39:13Z</time></trkpt><trkpt lat="43.691841184963664" lon="6.718528260391444"><ele>794.4999999999999</ele><time>2026-04-12T08:39:16Z</time></trkpt><trkpt lat="43.69180918419289" lon="6.718415305410755"><ele>796.0</ele><time>2026-04-12T08:39:19Z</time></trkpt><trkpt lat="43.69177435959273" lon="6.718302845857338"><ele>797.5</ele><time>2026-04-12T08:39:22Z</time></trkpt><trkpt lat="43.6917448133762" lon="6.71819127636206"><ele>799.0</ele><time>2026-04-12T08:39:25Z</time></trkpt><trkpt lat="43.69172081207507" lon="6.718074895076152"><ele>800.4999999999999</ele><time>2026-04-12T08:39:28Z</time></trkpt><trkpt lat="43.691684152378265" lon="6.717961041645493"><ele>802.0</ele><time>2026-04-12T08:39:31Z</time></trkpt><trkpt lat="43.69165899214358" lon="6.717844561063342"><ele>802.4999999999999</ele><time>2026-04-12T08:39:34Z</time></trkpt><trkpt lat="43.69165663763234" lon="6.717720768456001"><ele>803.0</ele><time>2026-04-12T08:39:37Z</time></trkpt><trkpt lat="43.69165270852695" lon="6.717601121128258"><ele>803.5</ele><time>2026-04-12T08:39:40Z</time></trkpt><trkpt lat="43.691653874482505" lon="6.71747984349361"><ele>804.0</ele><time>2026-04-12T08:39:43Z</time></trkpt><trkpt lat="43.69166351114529" lon="6.717350481361771"><ele>804.4999999999999</ele><time>2026-04-12T08:39:46Z</time></trkpt><trkpt lat="43.691686066981376" lon="6.7172636044741205"><ele>805.0</ele><time>2026-04-12T08:39:48Z</time></trkpt><trkpt lat="43.69171114169671" lon="6.717165767686582"><ele>805.0</ele><time>2026-04-12T08:39:50Z</time></trkpt><trkpt lat="43.69174467761169" lon="6.717048177159524"><ele>805.0</ele><time>2026-04-12T08:39:52Z</time></trkpt><trkpt lat="43.69179128137943" lon="6.716924156596853"><ele>805.0</ele><time>2026-04-12T08:39:54Z</time></trkpt><trkpt lat="43.69183451687494" lon="6.716786727407588"><ele>805.0</ele><time>2026-04-12T08:39:56Z</time></trkpt><trkpt lat="43.69190020766769" lon="6.716647393789228"><ele>805.0</ele><time>2026-04-12T08:39:58Z</time></trkpt><trkpt lat="43.69193734552238" lon="6.716576380265704"><ele>805.8571428571429</ele><time>2026-04-12T08:39:59Z</time></trkpt><trkpt lat="43.69197411558324" lon="6.716500910043087"><ele>806.7142857142858</ele><time>2026-04-12T08:40:00Z</time></trkpt><trkpt lat="43.692009919937036" lon="6.716424321363519"><ele>807.5714285714286</ele><time>2026-04-12T08:40:01Z</time></trkpt><trkpt lat="43.692034498472104" lon="6.7163349440849265"><ele>808.4285714285714</ele><time>2026-04-12T08:40:02Z</time></trkpt><trkpt lat="43.69207634314825" lon="6.716261505836645"><ele>809.2857142857143</ele><time>2026-04-12T08:40:03Z</time></trkpt><trkpt lat="43.69211687380525" lon="6.716184639916668"><ele>810.1428571428571</ele><time>2026-04-12T08:40:04Z</time></trkpt><trkpt lat="43.692155118446486" lon="6.71610810000427"><ele>811.0</ele><time>2026-04-12T08:40:05Z</time></trkpt><trkpt lat="43.692199264738264" lon="6.716034232980371"><ele>810.9999999999999</ele><time>2026-04-12T08:40:06Z</time></trkpt><trkpt lat="43.69224288570749" lon="6.715963620791244"><ele>811.0</ele><time>2026-04-12T08:40:07Z</time></trkpt><trkpt lat="43.6922840675049" lon="6.7158885672743285"><ele>811.0</ele><time>2026-04-12T08:40:08Z</time></trkpt><trkpt lat="43.69231957997498" lon="6.715809030487618"><ele>811.0</ele><time>2026-04-12T08:40:09Z</time></trkpt><trkpt lat="43.692353432900696" lon="6.7157299125185"><ele>810.9999999999999</ele><time>2026-04-12T08:40:10Z</time></trkpt><trkpt lat="43.69237998841152" lon="6.715649673321443"><ele>811.0</ele><time>2026-04-12T08:40:11Z</time></trkpt><trkpt lat="43.692424938766415" lon="6.7155009459673325"><ele>811.0</ele><time>2026-04-12T08:40:13Z</time></trkpt><trkpt lat="43.69245129461045" lon="6.715358846210976"><ele>811.0</ele><time>2026-04-12T08:40:15Z</time></trkpt><trkpt lat="43.6924549670823" lon="6.715207948678284"><ele>811.0</ele><time>2026-04-12T08:40:17Z</time></trkpt><trkpt lat="43.6924490188362" lon="6.715053415236725"><ele>811.0</ele><time>2026-04-12T08:40:19Z</time></trkpt><trkpt lat="43.692390402711695" lon="6.714999766924347"><ele>811.0</ele><time>2026-04-12T08:40:20Z</time></trkpt><trkpt lat="43.69232198339218" lon="6.714909441540811"><ele>810.3333333333333</ele><time>2026-04-12T08:40:22Z</time></trkpt><trkpt lat="43.69229927251076" lon="6.714800830005584"><ele>809.6666666666666</ele><time>2026-04-12T08:40:24Z</time></trkpt><trkpt lat="43.692317604909135" lon="6.714690961128263"><ele>809.0</ele><time>2026-04-12T08:40:26Z</time></trkpt><trkpt lat="43.69235430266965" lon="6.714582841176974"><ele>808.3333333333333</ele><time>2026-04-12T08:40:28Z</time></trkpt><trkpt lat="43.692386554424104" lon="6.714460919131879"><ele>807.6666666666666</ele><time>2026-04-12T08:40:30Z</time></trkpt><trkpt lat="43.6924203012905" lon="6.7143297205862575"><ele>807.0</ele><time>2026-04-12T08:40:32Z</time></trkpt><trkpt lat="43.69247237563011" lon="6.714174729388756"><ele>806.8333333333334</ele><time>2026-04-12T08:40:34Z</time></trkpt><trkpt lat="43.692496915022595" lon="6.714084060669031"><ele>806.6666666666667</ele><time>2026-04-12T08:40:35Z</time></trkpt><trkpt lat="43.6925243989698" lon="6.713988262290413"><ele>806.5</ele><time>2026-04-12T08:40:36Z</time></trkpt><trkpt lat="43.69255233709423" lon="6.7138896181664665"><ele>806.3333333333334</ele><time>2026-04-12T08:40:37Z</time></trkpt><trkpt lat="43.692576952974385" lon="6.713791061373598"><ele>806.1666666666667</ele><time>2026-04-12T08:40:38Z</time></trkpt><trkpt lat="43.69259008198479" lon="6.713686742220129"><ele>806.0</ele><time>2026-04-12T08:40:39Z</time></trkpt><trkpt lat="43.69256698937427" lon="6.713574569063612"><ele>805.4</ele><time>2026-04-12T08:40:40Z</time></trkpt><trkpt lat="43.69251402517888" lon="6.713472740640017"><ele>804.8</ele><time>2026-04-12T08:40:41Z</time></trkpt><trkpt lat="43.692443120043684" lon="6.713389595339497"><ele>804.1999999999999</ele><time>2026-04-12T08:40:42Z</time></trkpt><trkpt lat="43.69236830889148" lon="6.7133201856308595"><ele>803.5999999999999</ele><time>2026-04-12T08:40:43Z</time></trkpt><trkpt lat="43.69229597121938" lon="6.713246348732953"><ele>803.0</ele><time>2026-04-12T08:40:44Z</time></trkpt><trkpt lat="43.69222369272258" lon="6.713171409831981"><ele>803.0</ele><time>2026-04-12T08:40:45Z</time></trkpt><trkpt lat="43.69215539199105" lon="6.71308930749056"><ele>803.0</ele><time>2026-04-12T08:40:46Z</time></trkpt><trkpt lat="43.69208538406159" lon="6.7130068002102465"><ele>803.0</ele><time>2026-04-12T08:40:47Z</time></trkpt><trkpt lat="43.692016712567806" lon="6.712924378788957"><ele>803.0</ele><time>2026-04-12T08:40:48Z</time></trkpt><trkpt lat="43.69194343856197" lon="6.7128450304670215"><ele>803.0</ele><time>2026-04-12T08:40:49Z</time></trkpt><trkpt lat="43.691869362703635" lon="6.71276664189469"><ele>801.8</ele><time>2026-04-12T08:40:50Z</time></trkpt><trkpt lat="43.69179579717749" lon="6.712686580276287"><ele>800.5999999999999</ele><time>2026-04-12T08:40:51Z</time></trkpt><trkpt lat="43.69172474573827" lon="6.712604592731644"><ele>799.4000000000001</ele><time>2026-04-12T08:40:52Z</time></trkpt><trkpt lat="43.691653603044394" lon="6.712522356170794"><ele>798.2</ele><time>2026-04-12T08:40:53Z</time></trkpt><trkpt lat="43.69158104531913" lon="6.712437337381207"><ele>797.0</ele><time>2026-04-12T08:40:54Z</time></trkpt><trkpt lat="43.69150842805507" lon="6.712354571800537"><ele>797.0</ele><time>2026-04-12T08:40:55Z</time></trkpt><trkpt lat="43.6914344814404" lon="6.712273026440128"><ele>797.0</ele><time>2026-04-12T08:40:56Z</time></trkpt><trkpt lat="43.691361624836" lon="6.712190099257264"><ele>797.0</ele><time>2026-04-12T08:40:57Z</time></trkpt><trkpt lat="43.69128796467226" lon="6.712108024828263"><ele>797.0</ele><time>2026-04-12T08:40:58Z</time></trkpt><trkpt lat="43.691218263209365" lon="6.71202540281609"><ele>797.0</ele><time>2026-04-12T08:40:59Z</time></trkpt><trkpt lat="43.69114870852175" lon="6.711944087152656"><ele>796.5000000000001</ele><time>2026-04-12T08:41:00Z</time></trkpt><trkpt lat="43.6910815260476" lon="6.7118620627594066"><ele>796.0</ele><time>2026-04-12T08:41:01Z</time></trkpt><trkpt lat="43.69101735763059" lon="6.7117807368975555"><ele>795.5</ele><time>2026-04-12T08:41:02Z</time></trkpt><trkpt lat="43.690953071366295" lon="6.711702329256722"><ele>795.0</ele><time>2026-04-12T08:41:03Z</time></trkpt><trkpt lat="43.690890459137535" lon="6.711628728878835"><ele>794.5000000000001</ele><time>2026-04-12T08:41:04Z</time></trkpt><trkpt lat="43.690830564956386" lon="6.71155487099021"><ele>794.0</ele><time>2026-04-12T08:41:05Z</time></trkpt><trkpt lat="43.69077077063872" lon="6.711485133334342"><ele>794.0</ele><time>2026-04-12T08:41:06Z</time></trkpt><trkpt lat="43.69071275659444" lon="6.71141558471687"><ele>794.0</ele><time>2026-04-12T08:41:07Z</time></trkpt><trkpt lat="43.69065587983758" lon="6.7113504288978545"><ele>794.0</ele><time>2026-04-12T08:41:08Z</time></trkpt><trkpt lat="43.69060052109915" lon="6.711282994428741"><ele>794.0</ele><time>2026-04-12T08:41:09Z</time></trkpt><trkpt lat="43.690547961371266" lon="6.711215314125603"><ele>794.0</ele><time>2026-04-12T08:41:10Z</time></trkpt><trkpt lat="43.6904965542024" lon="6.711149475009261"><ele>794.0</ele><time>2026-04-12T08:41:11Z</time></trkpt><trkpt lat="43.69044777287457" lon="6.7110850902532055"><ele>794.0</ele><time>2026-04-12T08:41:12Z</time></trkpt><trkpt lat="43.690397465987" lon="6.711021646667202"><ele>793.7142857142857</ele><time>2026-04-12T08:41:13Z</time></trkpt><trkpt lat="43.69034604605561" lon="6.710961836508045"><ele>793.4285714285713</ele><time>2026-04-12T08:41:14Z</time></trkpt><trkpt lat="43.690294493846274" lon="6.710898845065995"><ele>793.1428571428571</ele><time>2026-04-12T08:41:15Z</time></trkpt><trkpt lat="43.69024387806682" lon="6.710839168333372"><ele>792.8571428571429</ele><time>2026-04-12T08:41:16Z</time></trkpt><trkpt lat="43.69019046789505" lon="6.710780550593377"><ele>792.5714285714286</ele><time>2026-04-12T08:41:17Z</time></trkpt><trkpt lat="43.69013826781335" lon="6.71072151026432"><ele>792.2857142857143</ele><time>2026-04-12T08:41:18Z</time></trkpt><trkpt lat="43.690086421778325" lon="6.710663436482529"><ele>792.0</ele><time>2026-04-12T08:41:19Z</time></trkpt><trkpt lat="43.69003491481345" lon="6.7106052495711035"><ele>792.0</ele><time>2026-04-12T08:41:20Z</time></trkpt><trkpt lat="43.68998433277689" lon="6.710545781274174"><ele>792.0</ele><time>2026-04-12T08:41:21Z</time></trkpt><trkpt lat="43.68993498057168" lon="6.710484199311226"><ele>792.0</ele><time>2026-04-12T08:41:22Z</time></trkpt><trkpt lat="43.68988552262062" lon="6.710423239002308"><ele>792.0</ele><time>2026-04-12T08:41:23Z</time></trkpt><trkpt lat="43.689835047793366" lon="6.710363455095793"><ele>792.0</ele><time>2026-04-12T08:41:24Z</time></trkpt><trkpt lat="43.68978422833196" lon="6.7103051182382645"><ele>792.0</ele><time>2026-04-12T08:41:25Z</time></trkpt><trkpt lat="43.689736434242754" lon="6.710247247975522"><ele>792.0</ele><time>2026-04-12T08:41:26Z</time></trkpt><trkpt lat="43.689643629340964" lon="6.710136529147764"><ele>792.25</ele><time>2026-04-12T08:41:28Z</time></trkpt><trkpt lat="43.68955302764623" lon="6.710028054231177"><ele>792.5</ele><time>2026-04-12T08:41:30Z</time></trkpt><trkpt lat="43.68946323961435" lon="6.70993032489782"><ele>792.75</ele><time>2026-04-12T08:41:32Z</time></trkpt><trkpt lat="43.689376649320245" lon="6.709832492273624"><ele>793.0</ele><time>2026-04-12T08:41:34Z</time></trkpt><trkpt lat="43.68929024666468" lon="6.709730493371694"><ele>793.0</ele><time>2026-04-12T08:41:36Z</time></trkpt><trkpt lat="43.68920571448176" lon="6.709633411746649"><ele>793.0</ele><time>2026-04-12T08:41:38Z</time></trkpt><trkpt lat="43.689120466456416" lon="6.709538270123454"><ele>793.0</ele><time>2026-04-12T08:41:40Z</time></trkpt><trkpt lat="43.68903706713104" lon="6.709441878708472"><ele>793.0</ele><time>2026-04-12T08:41:42Z</time></trkpt><trkpt lat="43.68895443185437" lon="6.70934725033388"><ele>793.0</ele><time>2026-04-12T08:41:44Z</time></trkpt><trkpt lat="43.68886872027836" lon="6.709264010852431"><ele>795.5</ele><time>2026-04-12T08:41:46Z</time></trkpt><trkpt lat="43.68877615114539" lon="6.709189213364041"><ele>798.0</ele><time>2026-04-12T08:41:48Z</time></trkpt><trkpt lat="43.68867577518928" lon="6.709123714715284"><ele>800.5</ele><time>2026-04-12T08:41:50Z</time></trkpt><trkpt lat="43.688567901842234" lon="6.709063735316707"><ele>803.0</ele><time>2026-04-12T08:41:52Z</time></trkpt><trkpt lat="43.68846309382313" lon="6.708989883796106"><ele>803.0</ele><time>2026-04-12T08:41:54Z</time></trkpt><trkpt lat="43.6883691348745" lon="6.708902919994535"><ele>803.0</ele><time>2026-04-12T08:41:56Z</time></trkpt><trkpt lat="43.6882886633949" lon="6.70880528124435"><ele>803.0</ele><time>2026-04-12T08:41:58Z</time></trkpt><trkpt lat="43.68821525589534" lon="6.708703241698306"><ele>803.0</ele><time>2026-04-12T08:42:00Z</time></trkpt><trkpt lat="43.68814261105196" lon="6.708612391124215"><ele>803.0</ele><time>2026-04-12T08:42:02Z</time></trkpt><trkpt lat="43.688075908125626" lon="6.708523555267301"><ele>803.3333333333334</ele><time>2026-04-12T08:42:04Z</time></trkpt><trkpt lat="43.688016657990836" lon="6.7084325137223075"><ele>803.6666666666667</ele><time>2026-04-12T08:42:06Z</time></trkpt><trkpt lat="43.68795451796463" lon="6.708349519318897"><ele>804.0</ele><time>2026-04-12T08:42:08Z</time></trkpt><trkpt lat="43.68789164936871" lon="6.708269524080581"><ele>804.3333333333333</ele><time>2026-04-12T08:42:10Z</time></trkpt><trkpt lat="43.68783006796615" lon="6.708185535904388"><ele>804.6666666666666</ele><time>2026-04-12T08:42:12Z</time></trkpt><trkpt lat="43.68776677377788" lon="6.708103973253278"><ele>805.0</ele><time>2026-04-12T08:42:14Z</time></trkpt><trkpt lat="43.68770452308591" lon="6.7080200221404755"><ele>805.0</ele><time>2026-04-12T08:42:16Z</time></trkpt><trkpt lat="43.687639827504725" lon="6.707936830403331"><ele>805.0</ele><time>2026-04-12T08:42:18Z</time></trkpt><trkpt lat="43.68757423218622" lon="6.707853795841284"><ele>805.0</ele><time>2026-04-12T08:42:20Z</time></trkpt><trkpt lat="43.68750193967817" lon="6.707755706861944"><ele>805.0</ele><time>2026-04-12T08:42:22Z</time></trkpt><trkpt lat="43.687419539559144" lon="6.7076542862466315"><ele>805.0</ele><time>2026-04-12T08:42:24Z</time></trkpt><trkpt lat="43.68733057317161" lon="6.7075374897553"><ele>805.8571428571429</ele><time>2026-04-12T08:42:26Z</time></trkpt><trkpt lat="43.68728374325206" lon="6.707475088023633"><ele>806.7142857142858</ele><time>2026-04-12T08:42:27Z</time></trkpt><trkpt lat="43.68723571515039" lon="6.707412225844672"><ele>807.5714285714286</ele><time>2026-04-12T08:42:28Z</time></trkpt><trkpt lat="43.687184082913184" lon="6.707350001881765"><ele>808.4285714285714</ele><time>2026-04-12T08:42:29Z</time></trkpt><trkpt lat="43.68713277767703" lon="6.70728432874024"><ele>809.2857142857143</ele><time>2026-04-12T08:42:30Z</time></trkpt><trkpt lat="43.68708294200201" lon="6.707213775023059"><ele>810.1428571428571</ele><time>2026-04-12T08:42:31Z</time></trkpt><trkpt lat="43.687034516061686" lon="6.707143760587495"><ele>811.0</ele><time>2026-04-12T08:42:32Z</time></trkpt><trkpt lat="43.68698498080854" lon="6.707075533021472"><ele>811.0</ele><time>2026-04-12T08:42:33Z</time></trkpt><trkpt lat="43.68693448285484" lon="6.707005906244145"><ele>811.0</ele><time>2026-04-12T08:42:34Z</time></trkpt><trkpt lat="43.68688880557569" lon="6.706933497291918"><ele>811.0</ele><time>2026-04-12T08:42:35Z</time></trkpt><trkpt lat="43.686855809876334" lon="6.706845574436522"><ele>811.0</ele><time>2026-04-12T08:42:36Z</time></trkpt><trkpt lat="43.686829463681825" lon="6.706753688741667"><ele>811.0</ele><time>2026-04-12T08:42:37Z</time></trkpt><trkpt lat="43.686808729256995" lon="6.7066600636114275"><ele>811.0</ele><time>2026-04-12T08:42:38Z</time></trkpt><trkpt lat="43.68679215172868" lon="6.706560045322462"><ele>811.0</ele><time>2026-04-12T08:42:39Z</time></trkpt><trkpt lat="43.68676546592168" lon="6.7064649463432096"><ele>810.6666666666666</ele><time>2026-04-12T08:42:40Z</time></trkpt><trkpt lat="43.68672240419185" lon="6.70637361578633"><ele>810.3333333333333</ele><time>2026-04-12T08:42:41Z</time></trkpt><trkpt lat="43.68667015279231" lon="6.706287665652315"><ele>810.0</ele><time>2026-04-12T08:42:42Z</time></trkpt><trkpt lat="43.68661286106129" lon="6.706206457352256"><ele>809.6666666666667</ele><time>2026-04-12T08:42:43Z</time></trkpt><trkpt lat="43.686554982061246" lon="6.706121525123252"><ele>809.3333333333334</ele><time>2026-04-12T08:42:44Z</time></trkpt><trkpt lat="43.68650308691304" lon="6.706027353118771"><ele>809.0</ele><time>2026-04-12T08:42:45Z</time></trkpt><trkpt lat="43.68645706158715" lon="6.705922162427085"><ele>809.0</ele><time>2026-04-12T08:42:46Z</time></trkpt><trkpt lat="43.68641026175165" lon="6.7058146263166085"><ele>809.0</ele><time>2026-04-12T08:42:47Z</time></trkpt><trkpt lat="43.68635603276296" lon="6.705712936124806"><ele>809.0</ele><time>2026-04-12T08:42:48Z</time></trkpt><trkpt lat="43.68628688371533" lon="6.705623867570027"><ele>809.0</ele><time>2026-04-12T08:42:49Z</time></trkpt><trkpt lat="43.68620961925024" lon="6.705544724370498"><ele>809.0</ele><time>2026-04-12T08:42:50Z</time></trkpt><trkpt lat="43.686132956112715" lon="6.705460978033951"><ele>805.0</ele><time>2026-04-12T08:42:51Z</time></trkpt><trkpt lat="43.686070008714246" lon="6.705354806050627"><ele>801.0</ele><time>2026-04-12T08:42:52Z</time></trkpt><trkpt lat="43.68602325708095" lon="6.705227644321214"><ele>797.0</ele><time>2026-04-12T08:42:53Z</time></trkpt><trkpt lat="43.6859818866707" lon="6.705097010801135"><ele>793.0</ele><time>2026-04-12T08:42:54Z</time></trkpt><trkpt lat="43.68593898751192" lon="6.704967312881228"><ele>789.0</ele><time>2026-04-12T08:42:55Z</time></trkpt><trkpt lat="43.68589521955941" lon="6.704836961473874"><ele>789.0</ele><time>2026-04-12T08:42:56Z</time></trkpt><trkpt lat="43.68584880211562" lon="6.704705310225984"><ele>789.0</ele><time>2026-04-12T08:42:57Z</time></trkpt><trkpt lat="43.685803061141726" lon="6.704573320540858"><ele>789.0</ele><time>2026-04-12T08:42:58Z</time></trkpt><trkpt lat="43.68575858206074" lon="6.704438197051099"><ele>789.0</ele><time>2026-04-12T08:42:59Z</time></trkpt><trkpt lat="43.68571261646879" lon="6.704304532862713"><ele>789.0</ele><time>2026-04-12T08:43:00Z</time></trkpt><trkpt lat="43.68566316524491" lon="6.704172730413788"><ele>791.6</ele><time>2026-04-12T08:43:01Z</time></trkpt><trkpt lat="43.68561656399059" lon="6.704039630438291"><ele>794.2</ele><time>2026-04-12T08:43:02Z</time></trkpt><trkpt lat="43.68556954074319" lon="6.7039018044940795"><ele>796.8000000000001</ele><time>2026-04-12T08:43:03Z</time></trkpt><trkpt lat="43.68551896457581" lon="6.703767286374501"><ele>799.4000000000001</ele><time>2026-04-12T08:43:04Z</time></trkpt><trkpt lat="43.685468567552576" lon="6.703630037659779"><ele>802.0</ele><time>2026-04-12T08:43:05Z</time></trkpt><trkpt lat="43.68541393822667" lon="6.703497120870123"><ele>804.25</ele><time>2026-04-12T08:43:06Z</time></trkpt><trkpt lat="43.6853488800118" lon="6.703368382087165"><ele>806.5</ele><time>2026-04-12T08:43:07Z</time></trkpt><trkpt lat="43.68527724188705" lon="6.703246882409801"><ele>808.75</ele><time>2026-04-12T08:43:08Z</time></trkpt><trkpt lat="43.685201079536604" lon="6.703123686047983"><ele>811.0</ele><time>2026-04-12T08:43:09Z</time></trkpt><trkpt lat="43.685084921553106" lon="6.703065403514824"><ele>803.25</ele><time>2026-04-12T08:43:10Z</time></trkpt><trkpt lat="43.684983644529666" lon="6.702977489216236"><ele>795.5</ele><time>2026-04-12T08:43:11Z</time></trkpt><trkpt lat="43.6848766192218" lon="6.702904697681192"><ele>787.75</ele><time>2026-04-12T08:43:12Z</time></trkpt><trkpt lat="43.68476687762007" lon="6.702834877673297"><ele>780.0</ele><time>2026-04-12T08:43:13Z</time></trkpt><trkpt lat="43.684661797778695" lon="6.702768023813228"><ele>778.2</ele><time>2026-04-12T08:43:14Z</time></trkpt><trkpt lat="43.68456645866232" lon="6.702722504153642"><ele>776.4</ele><time>2026-04-12T08:43:15Z</time></trkpt><trkpt lat="43.68448644961216" lon="6.7026290500529"><ele>774.5999999999999</ele><time>2026-04-12T08:43:16Z</time></trkpt><trkpt lat="43.68441729095373" lon="6.7025127495275685"><ele>772.8</ele><time>2026-04-12T08:43:17Z</time></trkpt><trkpt lat="43.68435234393839" lon="6.702392618281649"><ele>771.0</ele><time>2026-04-12T08:43:18Z</time></trkpt><trkpt lat="43.684286359403096" lon="6.702269426761544"><ele>771.0</ele><time>2026-04-12T08:43:19Z</time></trkpt><trkpt lat="43.68421592388967" lon="6.702146615420074"><ele>771.0</ele><time>2026-04-12T08:43:20Z</time></trkpt><trkpt lat="43.68413686494245" lon="6.702028128664311"><ele>771.0</ele><time>2026-04-12T08:43:21Z</time></trkpt><trkpt lat="43.68404983397853" lon="6.701919651083047"><ele>771.0</ele><time>2026-04-12T08:43:22Z</time></trkpt><trkpt lat="43.6839579293426" lon="6.701810808351844"><ele>775.5</ele><time>2026-04-12T08:43:23Z</time></trkpt><trkpt lat="43.6838663332057" lon="6.701701747347359"><ele>780.0</ele><time>2026-04-12T08:43:24Z</time></trkpt><trkpt lat="43.68377276164413" lon="6.701590994461301"><ele>784.5</ele><time>2026-04-12T08:43:25Z</time></trkpt><trkpt lat="43.68368717337038" lon="6.701488851765015"><ele>789.0</ele><time>2026-04-12T08:43:26Z</time></trkpt><trkpt lat="43.68360054754445" lon="6.701393381921219"><ele>784.4000000000001</ele><time>2026-04-12T08:43:27Z</time></trkpt><trkpt lat="43.68351997683178" lon="6.701291019649205"><ele>779.8</ele><time>2026-04-12T08:43:28Z</time></trkpt><trkpt lat="43.68345350926085" lon="6.701173810913669"><ele>775.2</ele><time>2026-04-12T08:43:29Z</time></trkpt><trkpt lat="43.6833979694384" lon="6.7010436066876835"><ele>770.5999999999999</ele><time>2026-04-12T08:43:30Z</time></trkpt><trkpt lat="43.68335770023355" lon="6.700893177545911"><ele>766.0</ele><time>2026-04-12T08:43:31Z</time></trkpt><trkpt lat="43.68333447533456" lon="6.700738829464483"><ele>766.0</ele><time>2026-04-12T08:43:32Z</time></trkpt><trkpt lat="43.68332005987527" lon="6.7005813928248035"><ele>766.0</ele><time>2026-04-12T08:43:33Z</time></trkpt><trkpt lat="43.68330618608842" lon="6.700422157702517"><ele>766.0</ele><time>2026-04-12T08:43:34Z</time></trkpt><trkpt lat="43.68329203862022" lon="6.700259677878447"><ele>766.0</ele><time>2026-04-12T08:43:35Z</time></trkpt><trkpt lat="43.683279347779155" lon="6.700095011292306"><ele>765.75</ele><time>2026-04-12T08:43:36Z</time></trkpt><trkpt lat="43.68326673819878" lon="6.699927387039881"><ele>765.5</ele><time>2026-04-12T08:43:37Z</time></trkpt><trkpt lat="43.68325176409216" lon="6.6997610510498085"><ele>765.25</ele><time>2026-04-12T08:43:38Z</time></trkpt><trkpt lat="43.68323434181592" lon="6.699603810662428"><ele>765.0</ele><time>2026-04-12T08:43:39Z</time></trkpt><trkpt lat="43.683213176872535" lon="6.699444836905198"><ele>764.75</ele><time>2026-04-12T08:43:40Z</time></trkpt><trkpt lat="43.68317127948114" lon="6.699291990476695"><ele>764.5</ele><time>2026-04-12T08:43:41Z</time></trkpt><trkpt lat="43.68310486042242" lon="6.6991502026578775"><ele>764.25</ele><time>2026-04-12T08:43:42Z</time></trkpt><trkpt lat="43.6830309691131" lon="6.699014307291283"><ele>764.0</ele><time>2026-04-12T08:43:43Z</time></trkpt><trkpt lat="43.68295299820147" lon="6.698881424183892"><ele>764.0</ele><time>2026-04-12T08:43:44Z</time></trkpt><trkpt lat="43.68287504900962" lon="6.698745809913555"><ele>764.0</ele><time>2026-04-12T08:43:45Z</time></trkpt><trkpt lat="43.682796219786354" lon="6.698611340093321"><ele>764.0</ele><time>2026-04-12T08:43:46Z</time></trkpt><trkpt lat="43.682717029610075" lon="6.698474259931603"><ele>764.0</ele><time>2026-04-12T08:43:47Z</time></trkpt><trkpt lat="43.68264508488886" lon="6.698342358441969"><ele>761.25</ele><time>2026-04-12T08:43:48Z</time></trkpt><trkpt lat="43.682570486650235" lon="6.698216160912197"><ele>758.5</ele><time>2026-04-12T08:43:49Z</time></trkpt><trkpt lat="43.682495660855686" lon="6.698097605770907"><ele>755.75</ele><time>2026-04-12T08:43:50Z</time></trkpt><trkpt lat="43.6824116306477" lon="6.697982841442491"><ele>753.0</ele><time>2026-04-12T08:43:51Z</time></trkpt><trkpt lat="43.682327468694986" lon="6.697863843189639"><ele>753.0</ele><time>2026-04-12T08:43:52Z</time></trkpt><trkpt lat="43.68222531825301" lon="6.697768652397058"><ele>753.0</ele><time>2026-04-12T08:43:53Z</time></trkpt><trkpt lat="43.68211622554512" lon="6.697684366357329"><ele>753.0</ele><time>2026-04-12T08:43:54Z</time></trkpt><trkpt lat="43.68200701590579" lon="6.697602040641867"><ele>753.0</ele><time>2026-04-12T08:43:55Z</time></trkpt><trkpt lat="43.68189099709144" lon="6.697535617229373"><ele>751.0</ele><time>2026-04-12T08:43:56Z</time></trkpt><trkpt lat="43.681782119627" lon="6.697446034950663"><ele>749.0</ele><time>2026-04-12T08:43:57Z</time></trkpt><trkpt lat="43.68167294940161" lon="6.697357553278317"><ele>747.0</ele><time>2026-04-12T08:43:58Z</time></trkpt><trkpt lat="43.681562125385064" lon="6.697268535606969"><ele>745.0</ele><time>2026-04-12T08:43:59Z</time></trkpt><trkpt lat="43.68145307841739" lon="6.697179545494411"><ele>745.0</ele><time>2026-04-12T08:44:00Z</time></trkpt><trkpt lat="43.68134215404188" lon="6.697094096370892"><ele>745.0</ele><time>2026-04-12T08:44:01Z</time></trkpt><trkpt lat="43.681233104599244" lon="6.6970073137636135"><ele>745.0</ele><time>2026-04-12T08:44:02Z</time></trkpt><trkpt lat="43.68112419392866" lon="6.696919685043186"><ele>745.0</ele><time>2026-04-12T08:44:03Z</time></trkpt><trkpt lat="43.68101697761918" lon="6.696836445505578"><ele>742.8</ele><time>2026-04-12T08:44:04Z</time></trkpt><trkpt lat="43.68091593307606" lon="6.696757810491525"><ele>740.6</ele><time>2026-04-12T08:44:05Z</time></trkpt><trkpt lat="43.680816191824846" lon="6.696681197336491"><ele>738.4000000000001</ele><time>2026-04-12T08:44:06Z</time></trkpt><trkpt lat="43.68072095767962" lon="6.696606756288434"><ele>736.2</ele><time>2026-04-12T08:44:07Z</time></trkpt><trkpt lat="43.680628352224055" lon="6.696547045632175"><ele>734.0</ele><time>2026-04-12T08:44:08Z</time></trkpt><trkpt lat="43.68052315647377" lon="6.696512663427446"><ele>734.0</ele><time>2026-04-12T08:44:09Z</time></trkpt><trkpt lat="43.68041309563229" lon="6.696505667033674"><ele>734.0</ele><time>2026-04-12T08:44:10Z</time></trkpt><trkpt lat="43.68030374527034" lon="6.696523058762061"><ele>734.0</ele><time>2026-04-12T08:44:11Z</time></trkpt><trkpt lat="43.68019649276164" lon="6.696563019346538"><ele>734.0</ele><time>2026-04-12T08:44:12Z</time></trkpt><trkpt lat="43.68010169999578" lon="6.696585608495588"><ele>734.0</ele><time>2026-04-12T08:44:13Z</time></trkpt><trkpt lat="43.680014173007464" lon="6.6966080393003935"><ele>733.0</ele><time>2026-04-12T08:44:14Z</time></trkpt><trkpt lat="43.679939335067274" lon="6.696629871555038"><ele>732.0</ele><time>2026-04-12T08:44:15Z</time></trkpt><trkpt lat="43.6798706645694" lon="6.696617401373753"><ele>731.0</ele><time>2026-04-12T08:44:16Z</time></trkpt><trkpt lat="43.679810083357104" lon="6.696571955185754"><ele>730.0</ele><time>2026-04-12T08:44:17Z</time></trkpt><trkpt lat="43.679760302298654" lon="6.696498012073603"><ele>729.0</ele><time>2026-04-12T08:44:18Z</time></trkpt><trkpt lat="43.67973744411438" lon="6.696399968577347"><ele>728.0</ele><time>2026-04-12T08:44:19Z</time></trkpt><trkpt lat="43.679752057976856" lon="6.696286455299618"><ele>727.0</ele><time>2026-04-12T08:44:20Z</time></trkpt><trkpt lat="43.67979657867954" lon="6.696182998214142"><ele>727.0</ele><time>2026-04-12T08:44:21Z</time></trkpt><trkpt lat="43.6798570594175" lon="6.696097795383973"><ele>727.0</ele><time>2026-04-12T08:44:22Z</time></trkpt><trkpt lat="43.679924050617" lon="6.696020737023285"><ele>727.0</ele><time>2026-04-12T08:44:23Z</time></trkpt><trkpt lat="43.67999278938942" lon="6.695939429970931"><ele>727.0</ele><time>2026-04-12T08:44:24Z</time></trkpt><trkpt lat="43.68006363249936" lon="6.69585888490648"><ele>727.0</ele><time>2026-04-12T08:44:25Z</time></trkpt><trkpt lat="43.68013835494778" lon="6.695778653987743"><ele>727.0</ele><time>2026-04-12T08:44:26Z</time></trkpt><trkpt lat="43.68021483310294" lon="6.6956956713635005"><ele>727.0</ele><time>2026-04-12T08:44:27Z</time></trkpt><trkpt lat="43.680298912737896" lon="6.695620772944056"><ele>727.0</ele><time>2026-04-12T08:44:28Z</time></trkpt><trkpt lat="43.680394491479255" lon="6.695566246075784"><ele>727.0</ele><time>2026-04-12T08:44:29Z</time></trkpt><trkpt lat="43.680495955528286" lon="6.695523150681945"><ele>727.0</ele><time>2026-04-12T08:44:30Z</time></trkpt><trkpt lat="43.680598067308786" lon="6.695478501191344"><ele>727.0</ele><time>2026-04-12T08:44:31Z</time></trkpt><trkpt lat="43.680697780536626" lon="6.695419430857305"><ele>727.0</ele><time>2026-04-12T08:44:32Z</time></trkpt><trkpt lat="43.68078763128884" lon="6.69533006804467"><ele>727.0</ele><time>2026-04-12T08:44:33Z</time></trkpt><trkpt lat="43.68086591037801" lon="6.695227292428426"><ele>727.0</ele><time>2026-04-12T08:44:34Z</time></trkpt><trkpt lat="43.6809359059353" lon="6.695127101893999"><ele>727.0</ele><time>2026-04-12T08:44:35Z</time></trkpt><trkpt lat="43.68100839881601" lon="6.695066563131597"><ele>725.3333333333334</ele><time>2026-04-12T08:44:36Z</time></trkpt><trkpt lat="43.6810668242155" lon="6.694997093088617"><ele>723.6666666666667</ele><time>2026-04-12T08:44:37Z</time></trkpt><trkpt lat="43.68113044397248" lon="6.69493905214284"><ele>722.0</ele><time>2026-04-12T08:44:38Z</time></trkpt><trkpt lat="43.68120313737326" lon="6.694893594643421"><ele>720.3333333333334</ele><time>2026-04-12T08:44:39Z</time></trkpt><trkpt lat="43.681292397832976" lon="6.694895873822578"><ele>718.6666666666666</ele><time>2026-04-12T08:44:40Z</time></trkpt><trkpt lat="43.68138183348287" lon="6.694925649900566"><ele>717.0</ele><time>2026-04-12T08:44:41Z</time></trkpt><trkpt lat="43.68147286781187" lon="6.6949695135900615"><ele>716.8333333333334</ele><time>2026-04-12T08:44:42Z</time></trkpt><trkpt lat="43.681562671239355" lon="6.695007428269871"><ele>716.6666666666666</ele><time>2026-04-12T08:44:43Z</time></trkpt><trkpt lat="43.6816562045499" lon="6.69505135630507"><ele>716.5</ele><time>2026-04-12T08:44:44Z</time></trkpt><trkpt lat="43.68174240745959" lon="6.695087743997227"><ele>716.3333333333333</ele><time>2026-04-12T08:44:45Z</time></trkpt><trkpt lat="43.681822575663375" lon="6.6951040923896095"><ele>716.1666666666666</ele><time>2026-04-12T08:44:46Z</time></trkpt><trkpt lat="43.68190068807579" lon="6.695076147711197"><ele>716.0</ele><time>2026-04-12T08:44:47Z</time></trkpt><trkpt lat="43.6819660670393" lon="6.695012899402717"><ele>718.0</ele><time>2026-04-12T08:44:48Z</time></trkpt><trkpt lat="43.68201101520874" lon="6.6949142319320805"><ele>720.0</ele><time>2026-04-12T08:44:49Z</time></trkpt><trkpt lat="43.682034421394164" lon="6.694796406198628"><ele>722.0</ele><time>2026-04-12T08:44:50Z</time></trkpt><trkpt lat="43.68205747174215" lon="6.694676412382627"><ele>724.0</ele><time>2026-04-12T08:44:51Z</time></trkpt><trkpt lat="43.68208619387458" lon="6.694552544397308"><ele>726.0</ele><time>2026-04-12T08:44:52Z</time></trkpt><trkpt lat="43.682117100824065" lon="6.694424801204022"><ele>723.4</ele><time>2026-04-12T08:44:53Z</time></trkpt><trkpt lat="43.68214843882836" lon="6.694296497573756"><ele>720.8</ele><time>2026-04-12T08:44:54Z</time></trkpt><trkpt lat="43.682183903356886" lon="6.694165887805072"><ele>718.1999999999999</ele><time>2026-04-12T08:44:55Z</time></trkpt><trkpt lat="43.68223059343672" lon="6.694035907677471"><ele>715.5999999999999</ele><time>2026-04-12T08:44:56Z</time></trkpt><trkpt lat="43.68228603842643" lon="6.693907212051533"><ele>713.0</ele><time>2026-04-12T08:44:57Z</time></trkpt><trkpt lat="43.68234375188031" lon="6.69378064813138"><ele>713.0</ele><time>2026-04-12T08:44:58Z</time></trkpt><trkpt lat="43.68239946377825" lon="6.693665286784896"><ele>713.0</ele><time>2026-04-12T08:44:59Z</time></trkpt><trkpt lat="43.682471750623165" lon="6.693573135312895"><ele>713.0</ele><time>2026-04-12T08:45:00Z</time></trkpt><trkpt lat="43.68254070644794" lon="6.693478359026709"><ele>713.0</ele><time>2026-04-12T08:45:01Z</time></trkpt><trkpt lat="43.682631232285964" lon="6.693416005633203"><ele>713.0</ele><time>2026-04-12T08:45:02Z</time></trkpt><trkpt lat="43.68273109606185" lon="6.693355500235854"><ele>712.4</ele><time>2026-04-12T08:45:03Z</time></trkpt><trkpt lat="43.682833454805866" lon="6.693284723020598"><ele>711.8</ele><time>2026-04-12T08:45:04Z</time></trkpt><trkpt lat="43.68293226729682" lon="6.693228223000801"><ele>711.2</ele><time>2026-04-12T08:45:05Z</time></trkpt><trkpt lat="43.68302830325067" lon="6.693172630984946"><ele>710.6</ele><time>2026-04-12T08:45:06Z</time></trkpt><trkpt lat="43.683118734608904" lon="6.693091819636127"><ele>710.0</ele><time>2026-04-12T08:45:07Z</time></trkpt><trkpt lat="43.68319942859269" lon="6.692988595838536"><ele>710.0</ele><time>2026-04-12T08:45:08Z</time></trkpt><trkpt lat="43.68327113948682" lon="6.692869282852676"><ele>710.0</ele><time>2026-04-12T08:45:09Z</time></trkpt><trkpt lat="43.68334055945194" lon="6.692744420055908"><ele>710.0</ele><time>2026-04-12T08:45:10Z</time></trkpt><trkpt lat="43.683412940793" lon="6.692620818339263"><ele>710.0</ele><time>2026-04-12T08:45:11Z</time></trkpt><trkpt lat="43.683478006605704" lon="6.69250309632453"><ele>710.0</ele><time>2026-04-12T08:45:12Z</time></trkpt><trkpt lat="43.68353885352819" lon="6.692394960774283"><ele>709.1666666666666</ele><time>2026-04-12T08:45:13Z</time></trkpt><trkpt lat="43.683604096451646" lon="6.692300612841915"><ele>708.3333333333333</ele><time>2026-04-12T08:45:14Z</time></trkpt><trkpt lat="43.68367953037835" lon="6.6922268759702"><ele>707.5</ele><time>2026-04-12T08:45:15Z</time></trkpt><trkpt lat="43.683757174081215" lon="6.692166048204597"><ele>706.6666666666666</ele><time>2026-04-12T08:45:16Z</time></trkpt><trkpt lat="43.68382519249247" lon="6.692118341000621"><ele>705.8333333333334</ele><time>2026-04-12T08:45:17Z</time></trkpt><trkpt lat="43.683883821618004" lon="6.692060690797071"><ele>705.0</ele><time>2026-04-12T08:45:18Z</time></trkpt><trkpt lat="43.68391808152183" lon="6.691979451525211"><ele>703.2857142857142</ele><time>2026-04-12T08:45:19Z</time></trkpt><trkpt lat="43.683916171996586" lon="6.69187260900581"><ele>701.5714285714286</ele><time>2026-04-12T08:45:20Z</time></trkpt><trkpt lat="43.68388328168289" lon="6.691777060922845"><ele>699.8571428571429</ele><time>2026-04-12T08:45:21Z</time></trkpt><trkpt lat="43.683833945628535" lon="6.69170552968279"><ele>698.1428571428571</ele><time>2026-04-12T08:45:22Z</time></trkpt><trkpt lat="43.68380247953012" lon="6.691623154159398"><ele>696.4285714285714</ele><time>2026-04-12T08:45:23Z</time></trkpt><trkpt lat="43.683763399983675" lon="6.6915436514842455"><ele>694.7142857142857</ele><time>2026-04-12T08:45:24Z</time></trkpt><trkpt lat="43.68372581267174" lon="6.691467184582508"><ele>693.0</ele><time>2026-04-12T08:45:25Z</time></trkpt><trkpt lat="43.68362219905301" lon="6.691461803548995"><ele>692.8333333333334</ele><time>2026-04-12T08:45:26Z</time></trkpt><trkpt lat="43.68355550914145" lon="6.69144613053498"><ele>692.6666666666666</ele><time>2026-04-12T08:45:27Z</time></trkpt><trkpt lat="43.683492350961885" lon="6.691456981527845"><ele>692.5</ele><time>2026-04-12T08:45:28Z</time></trkpt><trkpt lat="43.683377384643656" lon="6.691481771006675"><ele>692.3333333333333</ele><time>2026-04-12T08:45:30Z</time></trkpt><trkpt lat="43.68327863778775" lon="6.691506988345544"><ele>692.1666666666666</ele><time>2026-04-12T08:45:32Z</time></trkpt><trkpt lat="43.68319305461719" lon="6.691550120307815"><ele>692.0</ele><time>2026-04-12T08:45:34Z</time></trkpt><trkpt lat="43.683112445509394" lon="6.691586002656663"><ele>692.0</ele><time>2026-04-12T08:45:36Z</time></trkpt><trkpt lat="43.683040690873916" lon="6.691619790891053"><ele>692.0</ele><time>2026-04-12T08:45:38Z</time></trkpt><trkpt lat="43.68297460785264" lon="6.691635876213167"><ele>692.0</ele><time>2026-04-12T08:45:40Z</time></trkpt><trkpt lat="43.68288819876746" lon="6.691623759713854"><ele>692.0</ele><time>2026-04-12T08:45:43Z</time></trkpt><trkpt lat="43.68281733659593" lon="6.691558674493298"><ele>692.0</ele><time>2026-04-12T08:45:46Z</time></trkpt><trkpt lat="43.68275418017455" lon="6.691478477087392"><ele>692.0</ele><time>2026-04-12T08:45:49Z</time></trkpt><trkpt lat="43.68269164051715" lon="6.691405060390844"><ele>691.0</ele><time>2026-04-12T08:45:52Z</time></trkpt><trkpt lat="43.682636519113075" lon="6.69131853245784"><ele>690.0</ele><time>2026-04-12T08:45:55Z</time></trkpt><trkpt lat="43.68258419024039" lon="6.691234374364146"><ele>689.0</ele><time>2026-04-12T08:45:58Z</time></trkpt><trkpt lat="43.68253119804788" lon="6.691154615216973"><ele>688.0</ele><time>2026-04-12T08:46:01Z</time></trkpt><trkpt lat="43.6824770485631" lon="6.691082929006872"><ele>687.0</ele><time>2026-04-12T08:46:04Z</time></trkpt><trkpt lat="43.682419490054315" lon="6.691020581763927"><ele>686.0</ele><time>2026-04-12T08:46:07Z</time></trkpt><trkpt lat="43.68235068573355" lon="6.690977252580801"><ele>690.5</ele><time>2026-04-12T08:46:10Z</time></trkpt><trkpt lat="43.68227871799031" lon="6.690943024325419"><ele>695.0</ele><time>2026-04-12T08:46:13Z</time></trkpt><trkpt lat="43.682204891114125" lon="6.6909153019583965"><ele>699.5</ele><time>2026-04-12T08:46:16Z</time></trkpt><trkpt lat="43.68213153263096" lon="6.690893430090827"><ele>704.0</ele><time>2026-04-12T08:46:19Z</time></trkpt><trkpt lat="43.6820583324352" lon="6.6908776172808535"><ele>708.5</ele><time>2026-04-12T08:46:22Z</time></trkpt><trkpt lat="43.68198294852593" lon="6.69087186780173"><ele>713.0</ele><time>2026-04-12T08:46:26Z</time></trkpt><trkpt lat="43.68189612598118" lon="6.69086039344059"><ele>713.0</ele><time>2026-04-12T08:46:29Z</time></trkpt><trkpt lat="43.68181480084045" lon="6.690857285644403"><ele>713.0</ele><time>2026-04-12T08:46:32Z</time></trkpt><trkpt lat="43.68174445676391" lon="6.690858218631682"><ele>713.0</ele><time>2026-04-12T08:46:35Z</time></trkpt><trkpt lat="43.681669463336426" lon="6.690858016980099"><ele>713.0</ele><time>2026-04-12T08:46:38Z</time></trkpt><trkpt lat="43.68159396280046" lon="6.690858388926708"><ele>713.0</ele><time>2026-04-12T08:46:41Z</time></trkpt><trkpt lat="43.68152246900337" lon="6.6908735868025895"><ele>713.0</ele><time>2026-04-12T08:46:44Z</time></trkpt><trkpt lat="43.68145235109545" lon="6.690888413282764"><ele>713.0</ele><time>2026-04-12T08:46:47Z</time></trkpt><trkpt lat="43.681383816994426" lon="6.690914385575309"><ele>713.0</ele><time>2026-04-12T08:46:50Z</time></trkpt><trkpt lat="43.681318081831634" lon="6.690942481351237"><ele>713.0</ele><time>2026-04-12T08:46:53Z</time></trkpt><trkpt lat="43.68124707319357" lon="6.690968528067173"><ele>713.0</ele><time>2026-04-12T08:46:57Z</time></trkpt><trkpt lat="43.681183047187936" lon="6.690992864704506"><ele>713.0</ele><time>2026-04-12T08:47:00Z</time></trkpt><trkpt lat="43.68112473169262" lon="6.6910328506619425"><ele>713.0</ele><time>2026-04-12T08:47:03Z</time></trkpt><trkpt lat="43.68105476699859" lon="6.691093154415182"><ele>713.0</ele><time>2026-04-12T08:47:07Z</time></trkpt><trkpt lat="43.68099092561931" lon="6.691162684630249"><ele>713.0</ele><time>2026-04-12T08:47:10Z</time></trkpt><trkpt lat="43.680939106373245" lon="6.691226802482479"><ele>711.4285714285714</ele><time>2026-04-12T08:47:13Z</time></trkpt><trkpt lat="43.68089659858957" lon="6.691294262569998"><ele>709.8571428571429</ele><time>2026-04-12T08:47:16Z</time></trkpt><trkpt lat="43.68084779331129" lon="6.691365755018366"><ele>708.2857142857143</ele><time>2026-04-12T08:47:20Z</time></trkpt><trkpt lat="43.680792480520445" lon="6.691442580787932"><ele>706.7142857142858</ele><time>2026-04-12T08:47:23Z</time></trkpt><trkpt lat="43.68073392504081" lon="6.691503145298464"><ele>705.1428571428571</ele><time>2026-04-12T08:47:27Z</time></trkpt><trkpt lat="43.68067678999503" lon="6.691550713372674"><ele>703.5714285714287</ele><time>2026-04-12T08:47:30Z</time></trkpt><trkpt lat="43.68061010223971" lon="6.691580986760573"><ele>702.0</ele><time>2026-04-12T08:47:33Z</time></trkpt><trkpt lat="43.68054380098574" lon="6.691605181983249"><ele>702.0000000000001</ele><time>2026-04-12T08:47:36Z</time></trkpt><trkpt lat="43.680481415277164" lon="6.69162297526445"><ele>702.0</ele><time>2026-04-12T08:47:39Z</time></trkpt><trkpt lat="43.680408586784836" lon="6.691639376379801"><ele>702.0</ele><time>2026-04-12T08:47:42Z</time></trkpt><trkpt lat="43.68033711924096" lon="6.691656389957247"><ele>702.0</ele><time>2026-04-12T08:47:45Z</time></trkpt><trkpt lat="43.68027063452732" lon="6.691668082840622"><ele>702.0</ele><time>2026-04-12T08:47:48Z</time></trkpt><trkpt lat="43.68020090577778" lon="6.6916888818722216"><ele>702.0000000000001</ele><time>2026-04-12T08:47:52Z</time></trkpt><trkpt lat="43.68010138010542" lon="6.6917049390899095"><ele>702.0</ele><time>2026-04-12T08:47:56Z</time></trkpt><trkpt lat="43.680033122625034" lon="6.691713585700931"><ele>704.2857142857143</ele><time>2026-04-12T08:47:59Z</time></trkpt><trkpt lat="43.67996829806525" lon="6.691719960181287"><ele>706.5714285714286</ele><time>2026-04-12T08:48:02Z</time></trkpt><trkpt lat="43.67990401859258" lon="6.691725819322235"><ele>708.8571428571429</ele><time>2026-04-12T08:48:05Z</time></trkpt><trkpt lat="43.67982950684544" lon="6.691714678862071"><ele>711.1428571428571</ele><time>2026-04-12T08:48:09Z</time></trkpt><trkpt lat="43.67974815414549" lon="6.691704464957739"><ele>713.4285714285714</ele><time>2026-04-12T08:48:12Z</time></trkpt><trkpt lat="43.67968398956087" lon="6.691688819156977"><ele>715.7142857142858</ele><time>2026-04-12T08:48:15Z</time></trkpt><trkpt lat="43.679618289989016" lon="6.691666477189106"><ele>718.0</ele><time>2026-04-12T08:48:18Z</time></trkpt><trkpt lat="43.679549941673905" lon="6.691642757615462"><ele>718.0</ele><time>2026-04-12T08:48:21Z</time></trkpt><trkpt lat="43.67947438608899" lon="6.691615125071177"><ele>718.0</ele><time>2026-04-12T08:48:25Z</time></trkpt><trkpt lat="43.67939923010833" lon="6.6915894894090435"><ele>718.0</ele><time>2026-04-12T08:48:28Z</time></trkpt><trkpt lat="43.67932626249539" lon="6.691565282940226"><ele>718.0</ele><time>2026-04-12T08:48:32Z</time></trkpt><trkpt lat="43.67926399256843" lon="6.691533559134409"><ele>718.0</ele><time>2026-04-12T08:48:35Z</time></trkpt><trkpt lat="43.67920588492523" lon="6.691485777000946"><ele>718.0</ele><time>2026-04-12T08:48:38Z</time></trkpt><trkpt lat="43.67914088288154" lon="6.691419627447847"><ele>718.0</ele><time>2026-04-12T08:48:41Z</time></trkpt><trkpt lat="43.67908605427111" lon="6.691340466620636"><ele>719.2</ele><time>2026-04-12T08:48:44Z</time></trkpt><trkpt lat="43.67903479909831" lon="6.691247113831405"><ele>720.4</ele><time>2026-04-12T08:48:47Z</time></trkpt><trkpt lat="43.67899563575608" lon="6.691137057300569"><ele>721.6</ele><time>2026-04-12T08:48:50Z</time></trkpt><trkpt lat="43.67896741664966" lon="6.691011723932731"><ele>722.8000000000001</ele><time>2026-04-12T08:48:53Z</time></trkpt><trkpt lat="43.67895071473732" lon="6.6908859240013445"><ele>724.0</ele><time>2026-04-12T08:48:56Z</time></trkpt><trkpt lat="43.67895280457146" lon="6.690758204081781"><ele>725.0</ele><time>2026-04-12T08:48:59Z</time></trkpt><trkpt lat="43.67897685164542" lon="6.690635993072777"><ele>726.0</ele><time>2026-04-12T08:49:02Z</time></trkpt><trkpt lat="43.679007842370304" lon="6.690520094831028"><ele>727.0</ele><time>2026-04-12T08:49:05Z</time></trkpt><trkpt lat="43.679043264339185" lon="6.690416773177531"><ele>728.0</ele><time>2026-04-12T08:49:08Z</time></trkpt><trkpt lat="43.67907646126887" lon="6.690311075028573"><ele>729.0</ele><time>2026-04-12T08:49:11Z</time></trkpt><trkpt lat="43.67909474704142" lon="6.690205160633799"><ele>730.0</ele><time>2026-04-12T08:49:14Z</time></trkpt><trkpt lat="43.67909829801502" lon="6.690091152496319"><ele>730.3333333333334</ele><time>2026-04-12T08:49:18Z</time></trkpt><trkpt lat="43.679090663612946" lon="6.689980161713125"><ele>730.6666666666667</ele><time>2026-04-12T08:49:21Z</time></trkpt><trkpt lat="43.6790646201675" lon="6.689872716997306"><ele>731.0</ele><time>2026-04-12T08:49:23Z</time></trkpt><trkpt lat="43.67902455627956" lon="6.68978175941279"><ele>731.3333333333334</ele><time>2026-04-12T08:49:26Z</time></trkpt><trkpt lat="43.67897033191459" lon="6.689691649896063"><ele>731.6666666666666</ele><time>2026-04-12T08:49:29Z</time></trkpt><trkpt lat="43.678922323683" lon="6.689594931915024"><ele>732.0</ele><time>2026-04-12T08:49:32Z</time></trkpt><trkpt lat="43.67886400400346" lon="6.689511918938442"><ele>732.0</ele><time>2026-04-12T08:49:35Z</time></trkpt><trkpt lat="43.67880738013436" lon="6.689426243682029"><ele>732.0</ele><time>2026-04-12T08:49:38Z</time></trkpt><trkpt lat="43.67874993655774" lon="6.689331552171706"><ele>732.0</ele><time>2026-04-12T08:49:41Z</time></trkpt><trkpt lat="43.67868864922371" lon="6.689242500375571"><ele>732.0</ele><time>2026-04-12T08:49:44Z</time></trkpt><trkpt lat="43.67864693073005" lon="6.689174676199744"><ele>732.0</ele><time>2026-04-12T08:49:46Z</time></trkpt><trkpt lat="43.67860585287736" lon="6.689094890567923"><ele>732.0</ele><time>2026-04-12T08:49:48Z</time></trkpt><trkpt lat="43.67855759591826" lon="6.689016477357855"><ele>731.6666666666666</ele><time>2026-04-12T08:49:50Z</time></trkpt><trkpt lat="43.67851166161679" lon="6.688931367856582"><ele>731.3333333333334</ele><time>2026-04-12T08:49:52Z</time></trkpt><trkpt lat="43.67845842679984" lon="6.688852746114051"><ele>731.0</ele><time>2026-04-12T08:49:54Z</time></trkpt><trkpt lat="43.67840746634105" lon="6.688767112549118"><ele>730.6666666666667</ele><time>2026-04-12T08:49:56Z</time></trkpt><trkpt lat="43.67835462978088" lon="6.68869028011315"><ele>730.3333333333334</ele><time>2026-04-12T08:49:58Z</time></trkpt><trkpt lat="43.67831394317404" lon="6.688607991740716"><ele>730.0</ele><time>2026-04-12T08:50:00Z</time></trkpt><trkpt lat="43.678282206586225" lon="6.68850351499531"><ele>730.0</ele><time>2026-04-12T08:50:02Z</time></trkpt><trkpt lat="43.67826749533188" lon="6.6883816423268785"><ele>730.0</ele><time>2026-04-12T08:50:04Z</time></trkpt><trkpt lat="43.678261820206785" lon="6.688252317251435"><ele>730.0</ele><time>2026-04-12T08:50:06Z</time></trkpt><trkpt lat="43.67826817721992" lon="6.688121075352134"><ele>730.0</ele><time>2026-04-12T08:50:08Z</time></trkpt><trkpt lat="43.67827527801327" lon="6.687986598749101"><ele>730.0</ele><time>2026-04-12T08:50:10Z</time></trkpt><trkpt lat="43.67828551507211" lon="6.687852728940004"><ele>730.6</ele><time>2026-04-12T08:50:12Z</time></trkpt><trkpt lat="43.67829585349857" lon="6.687716642554053"><ele>731.2</ele><time>2026-04-12T08:50:14Z</time></trkpt><trkpt lat="43.67830260494308" lon="6.687578508671033"><ele>731.8</ele><time>2026-04-12T08:50:16Z</time></trkpt><trkpt lat="43.67831355425207" lon="6.68744046190345"><ele>732.4</ele><time>2026-04-12T08:50:18Z</time></trkpt><trkpt lat="43.6783264852629" lon="6.687302916328943"><ele>733.0</ele><time>2026-04-12T08:50:20Z</time></trkpt><trkpt lat="43.67834188826812" lon="6.687162626214944"><ele>733.0</ele><time>2026-04-12T08:50:22Z</time></trkpt><trkpt lat="43.678357617238305" lon="6.687022579627147"><ele>733.0</ele><time>2026-04-12T08:50:24Z</time></trkpt><trkpt lat="43.67838587569015" lon="6.686884167770308"><ele>733.0</ele><time>2026-04-12T08:50:26Z</time></trkpt><trkpt lat="43.67843801377273" lon="6.686758166008051"><ele>733.0</ele><time>2026-04-12T08:50:28Z</time></trkpt><trkpt lat="43.67849129647069" lon="6.686638398714123"><ele>733.0</ele><time>2026-04-12T08:50:30Z</time></trkpt><trkpt lat="43.67855119932683" lon="6.686523491175032"><ele>734.2</ele><time>2026-04-12T08:50:32Z</time></trkpt><trkpt lat="43.67861147220103" lon="6.6864099740592815"><ele>735.4</ele><time>2026-04-12T08:50:34Z</time></trkpt><trkpt lat="43.67866377279395" lon="6.686286696255346"><ele>736.6</ele><time>2026-04-12T08:50:36Z</time></trkpt><trkpt lat="43.67870976967249" lon="6.686152199870927"><ele>737.8000000000001</ele><time>2026-04-12T08:50:38Z</time></trkpt><trkpt lat="43.67874508229543" lon="6.686008804635421"><ele>739.0</ele><time>2026-04-12T08:50:40Z</time></trkpt><trkpt lat="43.67874991477962" lon="6.685859120036704"><ele>739.0</ele><time>2026-04-12T08:50:42Z</time></trkpt><trkpt lat="43.67873198840215" lon="6.685711894660798"><ele>739.0</ele><time>2026-04-12T08:50:44Z</time></trkpt><trkpt lat="43.678713893583506" lon="6.685566140733317"><ele>739.0</ele><time>2026-04-12T08:50:46Z</time></trkpt><trkpt lat="43.67870011296801" lon="6.685420170491323"><ele>739.0</ele><time>2026-04-12T08:50:48Z</time></trkpt><trkpt lat="43.67868852887941" lon="6.685277391896834"><ele>739.0</ele><time>2026-04-12T08:50:50Z</time></trkpt><trkpt lat="43.67867049600101" lon="6.685128288091775"><ele>739.0</ele><time>2026-04-12T08:50:52Z</time></trkpt><trkpt lat="43.67865406986199" lon="6.68498290017756"><ele>739.0</ele><time>2026-04-12T08:50:54Z</time></trkpt><trkpt lat="43.67863093175799" lon="6.684839617523164"><ele>739.0</ele><time>2026-04-12T08:50:56Z</time></trkpt><trkpt lat="43.67861582815699" lon="6.684706355114556"><ele>739.0</ele><time>2026-04-12T08:50:58Z</time></trkpt><trkpt lat="43.67859335171441" lon="6.684560761448042"><ele>739.0</ele><time>2026-04-12T08:51:00Z</time></trkpt><trkpt lat="43.67857910657" lon="6.684413656779401"><ele>736.6</ele><time>2026-04-12T08:51:02Z</time></trkpt><trkpt lat="43.678565042081495" lon="6.684265207392679"><ele>734.2</ele><time>2026-04-12T08:51:04Z</time></trkpt><trkpt lat="43.678550087905876" lon="6.684116623242661"><ele>731.8000000000001</ele><time>2026-04-12T08:51:06Z</time></trkpt><trkpt lat="43.67853427509552" lon="6.683970586336152"><ele>729.4000000000001</ele><time>2026-04-12T08:51:08Z</time></trkpt><trkpt lat="43.67851457833351" lon="6.6838255777065045"><ele>727.0</ele><time>2026-04-12T08:51:10Z</time></trkpt><trkpt lat="43.67849914768618" lon="6.683680117103051"><ele>727.6</ele><time>2026-04-12T08:51:12Z</time></trkpt><trkpt lat="43.678484104988115" lon="6.683533569587654"><ele>728.2</ele><time>2026-04-12T08:51:14Z</time></trkpt><trkpt lat="43.67846851332102" lon="6.683385029928596"><ele>728.8</ele><time>2026-04-12T08:51:16Z</time></trkpt><trkpt lat="43.678449430254" lon="6.683237464570638"><ele>729.4</ele><time>2026-04-12T08:51:18Z</time></trkpt><trkpt lat="43.67843140385696" lon="6.683089903478051"><ele>730.0</ele><time>2026-04-12T08:51:20Z</time></trkpt><trkpt lat="43.67841354630555" lon="6.682943761560884"><ele>730.0</ele><time>2026-04-12T08:51:22Z</time></trkpt><trkpt lat="43.67839740566623" lon="6.6827960625142335"><ele>730.0</ele><time>2026-04-12T08:51:24Z</time></trkpt><trkpt lat="43.678372410211" lon="6.682651642451522"><ele>730.0</ele><time>2026-04-12T08:51:26Z</time></trkpt><trkpt lat="43.678335065119434" lon="6.682509939476811"><ele>730.0</ele><time>2026-04-12T08:51:28Z</time></trkpt><trkpt lat="43.67828474851474" lon="6.6823810403683055"><ele>730.0</ele><time>2026-04-12T08:51:30Z</time></trkpt><trkpt lat="43.678226221074304" lon="6.682261732736746"><ele>730.1666666666667</ele><time>2026-04-12T08:51:32Z</time></trkpt><trkpt lat="43.67815505528232" lon="6.682163023822451"><ele>730.3333333333334</ele><time>2026-04-12T08:51:34Z</time></trkpt><trkpt lat="43.67808116918392" lon="6.682071984822546"><ele>730.5</ele><time>2026-04-12T08:51:36Z</time></trkpt><trkpt lat="43.678029268964735" lon="6.68200003011256"><ele>730.6666666666666</ele><time>2026-04-12T08:51:38Z</time></trkpt><trkpt lat="43.67798746733519" lon="6.681931089831999"><ele>730.8333333333333</ele><time>2026-04-12T08:51:41Z</time></trkpt><trkpt lat="43.67799554535339" lon="6.681844138549664"><ele>731.0</ele><time>2026-04-12T08:52:03Z</time></trkpt><trkpt lat="43.67792905235749" lon="6.681864496426036"><ele>731.0</ele><time>2026-04-12T08:57:15Z</time></trkpt><trkpt lat="43.67786986430336" lon="6.681797997687105"><ele>731.0</ele><time>2026-04-12T08:57:18Z</time></trkpt><trkpt lat="43.67781890231751" lon="6.68173827991856"><ele>731.0</ele><time>2026-04-12T08:57:20Z</time></trkpt><trkpt lat="43.6777646869076" lon="6.681663677312468"><ele>731.0</ele><time>2026-04-12T08:57:22Z</time></trkpt><trkpt lat="43.67770331955404" lon="6.681585615052425"><ele>731.0</ele><time>2026-04-12T08:57:24Z</time></trkpt><trkpt lat="43.67763554496477" lon="6.6815055052959655"><ele>731.0</ele><time>2026-04-12T08:57:26Z</time></trkpt><trkpt lat="43.67756920801075" lon="6.681419796742418"><ele>731.0</ele><time>2026-04-12T08:57:28Z</time></trkpt><trkpt lat="43.677497318264614" lon="6.681339069050353"><ele>731.0</ele><time>2026-04-12T08:57:30Z</time></trkpt><trkpt lat="43.67743017139585" lon="6.681246900319735"><ele>731.0</ele><time>2026-04-12T08:57:32Z</time></trkpt><trkpt lat="43.677357511774744" lon="6.681156331639829"><ele>731.0</ele><time>2026-04-12T08:57:34Z</time></trkpt><trkpt lat="43.67728244687635" lon="6.681066205544308"><ele>731.0</ele><time>2026-04-12T08:57:36Z</time></trkpt><trkpt lat="43.67720438381625" lon="6.680967500560903"><ele>731.0</ele><time>2026-04-12T08:57:38Z</time></trkpt><trkpt lat="43.6771258349398" lon="6.680865756351582"><ele>731.0</ele><time>2026-04-12T08:57:40Z</time></trkpt><trkpt lat="43.67704409225933" lon="6.680760063168711"><ele>731.0</ele><time>2026-04-12T08:57:42Z</time></trkpt><trkpt lat="43.676960313823194" lon="6.680657112861097"><ele>731.0</ele><time>2026-04-12T08:57:44Z</time></trkpt><trkpt lat="43.67687525863246" lon="6.680552252193457"><ele>731.0</ele><time>2026-04-12T08:57:46Z</time></trkpt><trkpt lat="43.67678706088237" lon="6.680455076609884"><ele>731.0</ele><time>2026-04-12T08:57:48Z</time></trkpt><trkpt lat="43.6766889332777" lon="6.680374085205574"><ele>731.0</ele><time>2026-04-12T08:57:50Z</time></trkpt><trkpt lat="43.676586880194385" lon="6.680301274431032"><ele>731.0</ele><time>2026-04-12T08:57:52Z</time></trkpt><trkpt lat="43.67648485070952" lon="6.680228665882183"><ele>731.0</ele><time>2026-04-12T08:57:54Z</time></trkpt><trkpt lat="43.67638251272519" lon="6.680161597752891"><ele>731.8</ele><time>2026-04-12T08:57:56Z</time></trkpt><trkpt lat="43.67627938143713" lon="6.68009532116883"><ele>732.5999999999999</ele><time>2026-04-12T08:57:58Z</time></trkpt><trkpt lat="43.67617996262642" lon="6.68002151841972"><ele>733.4</ele><time>2026-04-12T08:58:00Z</time></trkpt><trkpt lat="43.67607861289717" lon="6.679954103641038"><ele>734.2</ele><time>2026-04-12T08:58:02Z</time></trkpt><trkpt lat="43.67597454375174" lon="6.679912960312889"><ele>735.0</ele><time>2026-04-12T08:58:04Z</time></trkpt><trkpt lat="43.6758713802602" lon="6.679890998682319"><ele>735.0</ele><time>2026-04-12T08:58:06Z</time></trkpt><trkpt lat="43.67577118666136" lon="6.679887455279654"><ele>735.0</ele><time>2026-04-12T08:58:08Z</time></trkpt><trkpt lat="43.675676948126764" lon="6.679879371620625"><ele>735.0</ele><time>2026-04-12T08:58:10Z</time></trkpt><trkpt lat="43.67559105598886" lon="6.679875020094147"><ele>735.0</ele><time>2026-04-12T08:58:12Z</time></trkpt><trkpt lat="43.67551702680166" lon="6.679876211650057"><ele>735.0</ele><time>2026-04-12T08:58:14Z</time></trkpt><trkpt lat="43.675450371257284" lon="6.679869088365823"><ele>735.0</ele><time>2026-04-12T08:58:16Z</time></trkpt><trkpt lat="43.67538626152982" lon="6.67986292084896"><ele>735.0</ele><time>2026-04-12T08:58:18Z</time></trkpt><trkpt lat="43.675293732339455" lon="6.679857697721356"><ele>735.0</ele><time>2026-04-12T08:58:21Z</time></trkpt><trkpt lat="43.67522932017555" lon="6.679845349306911"><ele>735.0</ele><time>2026-04-12T08:58:23Z</time></trkpt><trkpt lat="43.67513810166169" lon="6.679817302506531"><ele>735.0</ele><time>2026-04-12T08:58:26Z</time></trkpt><trkpt lat="43.67505645048544" lon="6.679764034542216"><ele>735.0</ele><time>2026-04-12T08:58:29Z</time></trkpt><trkpt lat="43.67498188570617" lon="6.6796935056113895"><ele>735.0</ele><time>2026-04-12T08:58:32Z</time></trkpt><trkpt lat="43.674917033595385" lon="6.679621499282973"><ele>735.8333333333334</ele><time>2026-04-12T08:58:35Z</time></trkpt><trkpt lat="43.674854983350116" lon="6.679547806732186"><ele>736.6666666666666</ele><time>2026-04-12T08:58:38Z</time></trkpt><trkpt lat="43.674792235369985" lon="6.679482742714603"><ele>737.5</ele><time>2026-04-12T08:58:41Z</time></trkpt><trkpt lat="43.67473381536927" lon="6.679411382698901"><ele>738.3333333333333</ele><time>2026-04-12T08:58:44Z</time></trkpt><trkpt lat="43.674668368569094" lon="6.679338129931866"><ele>739.1666666666666</ele><time>2026-04-12T08:58:48Z</time></trkpt><trkpt lat="43.67461136554134" lon="6.67926890509696"><ele>740.0</ele><time>2026-04-12T08:58:51Z</time></trkpt><trkpt lat="43.67455486061396" lon="6.679202463411348"><ele>740.1428571428571</ele><time>2026-04-12T08:58:53Z</time></trkpt><trkpt lat="43.67449996324218" lon="6.679140372257824"><ele>740.2857142857142</ele><time>2026-04-12T08:58:56Z</time></trkpt><trkpt lat="43.67443992722419" lon="6.6790753531707425"><ele>740.4285714285713</ele><time>2026-04-12T08:58:59Z</time></trkpt><trkpt lat="43.67438633629369" lon="6.6790050130698155"><ele>740.5714285714286</ele><time>2026-04-12T08:59:02Z</time></trkpt><trkpt lat="43.6743301542131" lon="6.6789370193545805"><ele>740.7142857142858</ele><time>2026-04-12T08:59:05Z</time></trkpt><trkpt lat="43.67427260413112" lon="6.678873039876113"><ele>740.8571428571428</ele><time>2026-04-12T08:59:08Z</time></trkpt><trkpt lat="43.67421555106561" lon="6.678809270319408"><ele>741.0</ele><time>2026-04-12T08:59:11Z</time></trkpt><trkpt lat="43.67415925588055" lon="6.678745841558509"><ele>741.8333333333334</ele><time>2026-04-12T08:59:14Z</time></trkpt><trkpt lat="43.67410157859242" lon="6.678681638409369"><ele>742.6666666666666</ele><time>2026-04-12T08:59:17Z</time></trkpt><trkpt lat="43.674042680460076" lon="6.678611232745155"><ele>743.5</ele><time>2026-04-12T08:59:20Z</time></trkpt><trkpt lat="43.67398618705149" lon="6.678545969106115"><ele>744.3333333333333</ele><time>2026-04-12T08:59:23Z</time></trkpt><trkpt lat="43.6739293469567" lon="6.678482075811838"><ele>745.1666666666666</ele><time>2026-04-12T08:59:26Z</time></trkpt><trkpt lat="43.673869356489554" lon="6.678414562668591"><ele>746.0</ele><time>2026-04-12T08:59:29Z</time></trkpt><trkpt lat="43.67381066474182" lon="6.6783479782772375"><ele>746.3333333333333</ele><time>2026-04-12T08:59:32Z</time></trkpt><trkpt lat="43.67375153576241" lon="6.6782786743760045"><ele>746.6666666666666</ele><time>2026-04-12T08:59:35Z</time></trkpt><trkpt lat="43.673695058518646" lon="6.678206186261873"><ele>747.0</ele><time>2026-04-12T08:59:38Z</time></trkpt><trkpt lat="43.67363113259624" lon="6.6781423037954735"><ele>747.3333333333334</ele><time>2026-04-12T08:59:41Z</time></trkpt><trkpt lat="43.67357217314674" lon="6.67807245979997"><ele>747.6666666666667</ele><time>2026-04-12T08:59:44Z</time></trkpt><trkpt lat="43.67351343608584" lon="6.678000023099173"><ele>748.0</ele><time>2026-04-12T08:59:47Z</time></trkpt><trkpt lat="43.67345382174779" lon="6.677932123452618"><ele>749.1666666666667</ele><time>2026-04-12T08:59:50Z</time></trkpt><trkpt lat="43.673392889625106" lon="6.6778683306952615"><ele>750.3333333333334</ele><time>2026-04-12T08:59:53Z</time></trkpt><trkpt lat="43.6733314538609" lon="6.677797733002399"><ele>751.5</ele><time>2026-04-12T08:59:56Z</time></trkpt><trkpt lat="43.67326898875639" lon="6.677725337772413"><ele>752.6666666666666</ele><time>2026-04-12T08:59:59Z</time></trkpt><trkpt lat="43.67320927624352" lon="6.677654963169975"><ele>753.8333333333333</ele><time>2026-04-12T09:00:02Z</time></trkpt><trkpt lat="43.67315114597118" lon="6.67758353176511"><ele>755.0</ele><time>2026-04-12T09:00:05Z</time></trkpt><trkpt lat="43.673093134851484" lon="6.6775104805429955"><ele>755.0</ele><time>2026-04-12T09:00:08Z</time></trkpt><trkpt lat="43.673033205176125" lon="6.67743980513628"><ele>755.0</ele><time>2026-04-12T09:00:11Z</time></trkpt><trkpt lat="43.672974364804226" lon="6.677370101784615"><ele>755.0</ele><time>2026-04-12T09:00:14Z</time></trkpt><trkpt lat="43.67291624301513" lon="6.677301453877647"><ele>755.0</ele><time>2026-04-12T09:00:17Z</time></trkpt><trkpt lat="43.67285814542414" lon="6.677230268443522"><ele>755.0</ele><time>2026-04-12T09:00:20Z</time></trkpt><trkpt lat="43.6727846235545" lon="6.6771567207055345"><ele>755.0</ele><time>2026-04-12T09:00:24Z</time></trkpt><trkpt lat="43.67272552382121" lon="6.677115682237985"><ele>756.1666666666666</ele><time>2026-04-12T09:00:26Z</time></trkpt><trkpt lat="43.6726517345294" lon="6.677086310882546"><ele>757.3333333333333</ele><time>2026-04-12T09:00:29Z</time></trkpt><trkpt lat="43.67256831301737" lon="6.677074794198353"><ele>758.5</ele><time>2026-04-12T09:00:33Z</time></trkpt><trkpt lat="43.67247914327988" lon="6.677082880182258"><ele>759.6666666666666</ele><time>2026-04-12T09:00:36Z</time></trkpt><trkpt lat="43.672399367883884" lon="6.677111478009599"><ele>760.8333333333334</ele><time>2026-04-12T09:00:39Z</time></trkpt><trkpt lat="43.67232864424331" lon="6.677151642701537"><ele>762.0</ele><time>2026-04-12T09:00:42Z</time></trkpt><trkpt lat="43.67225888358764" lon="6.677193488529946"><ele>762.0</ele><time>2026-04-12T09:00:45Z</time></trkpt><trkpt lat="43.672188790379465" lon="6.677236363716868"><ele>762.0</ele><time>2026-04-12T09:00:48Z</time></trkpt><trkpt lat="43.672120298139156" lon="6.6772894190187015"><ele>762.0</ele><time>2026-04-12T09:00:51Z</time></trkpt><trkpt lat="43.672052583673576" lon="6.6773444332826974"><ele>762.0</ele><time>2026-04-12T09:00:54Z</time></trkpt><trkpt lat="43.67199131320805" lon="6.677410168118322"><ele>762.0</ele><time>2026-04-12T09:00:57Z</time></trkpt><trkpt lat="43.67193267697212" lon="6.677481106063101"><ele>762.0</ele><time>2026-04-12T09:01:00Z</time></trkpt><trkpt lat="43.67188655874369" lon="6.677566647674776"><ele>763.1666666666666</ele><time>2026-04-12T09:01:03Z</time></trkpt><trkpt lat="43.67185115478736" lon="6.677662757148243"><ele>764.3333333333333</ele><time>2026-04-12T09:01:06Z</time></trkpt><trkpt lat="43.671824962956386" lon="6.677763917484589"><ele>765.5</ele><time>2026-04-12T09:01:09Z</time></trkpt><trkpt lat="43.671803990433474" lon="6.6778675355650225"><ele>766.6666666666666</ele><time>2026-04-12T09:01:12Z</time></trkpt><trkpt lat="43.671782550603886" lon="6.677969622907262"><ele>767.8333333333333</ele><time>2026-04-12T09:01:15Z</time></trkpt><trkpt lat="43.67176456408425" lon="6.678074842284756"><ele>769.0</ele><time>2026-04-12T09:01:18Z</time></trkpt><trkpt lat="43.67174808181155" lon="6.678176847762554"><ele>769.3333333333333</ele><time>2026-04-12T09:01:21Z</time></trkpt><trkpt lat="43.67173636333203" lon="6.678281372692754"><ele>769.6666666666666</ele><time>2026-04-12T09:01:24Z</time></trkpt><trkpt lat="43.67172164743186" lon="6.678384045312301"><ele>770.0</ele><time>2026-04-12T09:01:27Z</time></trkpt><trkpt lat="43.67170702086201" lon="6.678490056421134"><ele>770.3333333333333</ele><time>2026-04-12T09:01:30Z</time></trkpt><trkpt lat="43.67169425128634" lon="6.678593910834494"><ele>770.6666666666666</ele><time>2026-04-12T09:01:33Z</time></trkpt><trkpt lat="43.67167584529333" lon="6.678696860646264"><ele>771.0</ele><time>2026-04-12T09:01:36Z</time></trkpt><trkpt lat="43.6716545808224" lon="6.678797818495488"><ele>771.1666666666666</ele><time>2026-04-12T09:01:39Z</time></trkpt><trkpt lat="43.67162521426099" lon="6.678898662683876"><ele>771.3333333333333</ele><time>2026-04-12T09:01:42Z</time></trkpt><trkpt lat="43.67157660104717" lon="6.678977917920316"><ele>771.5</ele><time>2026-04-12T09:01:45Z</time></trkpt><trkpt lat="43.67151259280525" lon="6.679042614244702"><ele>771.6666666666666</ele><time>2026-04-12T09:01:48Z</time></trkpt><trkpt lat="43.671441164692034" lon="6.679085674606986"><ele>771.8333333333333</ele><time>2026-04-12T09:01:51Z</time></trkpt><trkpt lat="43.6713661829857" lon="6.679122751298764"><ele>772.0</ele><time>2026-04-12T09:01:54Z</time></trkpt><trkpt lat="43.67129183126183" lon="6.679156007423966"><ele>771.9999999999999</ele><time>2026-04-12T09:01:57Z</time></trkpt><trkpt lat="43.671217015021675" lon="6.679183945384047"><ele>772.0</ele><time>2026-04-12T09:02:00Z</time></trkpt><trkpt lat="43.67114559130564" lon="6.6792198474974525"><ele>772.0</ele><time>2026-04-12T09:02:03Z</time></trkpt><trkpt lat="43.67107207643201" lon="6.679257945478969"><ele>772.0</ele><time>2026-04-12T09:02:07Z</time></trkpt><trkpt lat="43.670974395110825" lon="6.679304575950103"><ele>771.9999999999999</ele><time>2026-04-12T09:02:10Z</time></trkpt><trkpt lat="43.670901236155395" lon="6.679337635915288"><ele>772.0</ele><time>2026-04-12T09:02:13Z</time></trkpt><trkpt lat="43.67082525215702" lon="6.679372801803495"><ele>773.1666666666666</ele><time>2026-04-12T09:02:16Z</time></trkpt><trkpt lat="43.670742517463225" lon="6.679406640778506"><ele>774.3333333333333</ele><time>2026-04-12T09:02:19Z</time></trkpt><trkpt lat="43.6706635107834" lon="6.67945180892828"><ele>775.5</ele><time>2026-04-12T09:02:22Z</time></trkpt><trkpt lat="43.670579721484444" lon="6.6794767225206915"><ele>776.6666666666667</ele><time>2026-04-12T09:02:25Z</time></trkpt><trkpt lat="43.67049648751383" lon="6.679490381732952"><ele>777.8333333333334</ele><time>2026-04-12T09:02:28Z</time></trkpt><trkpt lat="43.67040906845372" lon="6.679479769556302"><ele>779.0</ele><time>2026-04-12T09:02:31Z</time></trkpt><trkpt lat="43.67031666988816" lon="6.6794524800235875"><ele>779.0</ele><time>2026-04-12T09:02:35Z</time></trkpt><trkpt lat="43.67019811837463" lon="6.679385878426526"><ele>779.0</ele><time>2026-04-12T09:02:38Z</time></trkpt><trkpt lat="43.67013796593163" lon="6.679333596488021"><ele>779.0</ele><time>2026-04-12T09:02:40Z</time></trkpt><trkpt lat="43.67007004196016" lon="6.679285529998932"><ele>779.0</ele><time>2026-04-12T09:02:42Z</time></trkpt><trkpt lat="43.66999899061399" lon="6.6792285551871755"><ele>779.0</ele><time>2026-04-12T09:02:44Z</time></trkpt><trkpt lat="43.66991950664261" lon="6.679154975841274"><ele>779.0000000000001</ele><time>2026-04-12T09:02:46Z</time></trkpt><trkpt lat="43.669819854085446" lon="6.679065666031569"><ele>779.0</ele><time>2026-04-12T09:02:48Z</time></trkpt><trkpt lat="43.66976265303853" lon="6.679019146804807"><ele>779.0</ele><time>2026-04-12T09:02:49Z</time></trkpt><trkpt lat="43.66970403580492" lon="6.678966283812027"><ele>779.0</ele><time>2026-04-12T09:02:50Z</time></trkpt><trkpt lat="43.66964488541906" lon="6.678903707182052"><ele>779.0000000000001</ele><time>2026-04-12T09:02:51Z</time></trkpt><trkpt lat="43.66958616818408" lon="6.678831226573053"><ele>779.0</ele><time>2026-04-12T09:02:52Z</time></trkpt><trkpt lat="43.66952746971628" lon="6.678751482854187"><ele>779.0</ele><time>2026-04-12T09:02:53Z</time></trkpt><trkpt lat="43.6694702871262" lon="6.678660975973482"><ele>779.0</ele><time>2026-04-12T09:02:54Z</time></trkpt><trkpt lat="43.66941851944922" lon="6.678559132450499"><ele>779.0</ele><time>2026-04-12T09:02:55Z</time></trkpt><trkpt lat="43.66937248980529" lon="6.6784489831778915"><ele>779.0</ele><time>2026-04-12T09:02:56Z</time></trkpt><trkpt lat="43.6693318289545" lon="6.67833225331523"><ele>779.0</ele><time>2026-04-12T09:02:57Z</time></trkpt><trkpt lat="43.669292521551895" lon="6.678210820375818"><ele>779.2</ele><time>2026-04-12T09:02:58Z</time></trkpt><trkpt lat="43.66925193898551" lon="6.678086747771261"><ele>779.4000000000001</ele><time>2026-04-12T09:02:59Z</time></trkpt><trkpt lat="43.669211014638975" lon="6.6779575102370226"><ele>779.6</ele><time>2026-04-12T09:03:00Z</time></trkpt><trkpt lat="43.66916466684682" lon="6.677831905355071"><ele>779.8</ele><time>2026-04-12T09:03:01Z</time></trkpt><trkpt lat="43.66910762465254" lon="6.677719572867158"><ele>780.0</ele><time>2026-04-12T09:03:02Z</time></trkpt><trkpt lat="43.669036299929616" lon="6.677618936898275"><ele>780.0</ele><time>2026-04-12T09:03:03Z</time></trkpt><trkpt lat="43.66895788501319" lon="6.677536840085468"><ele>780.0</ele><time>2026-04-12T09:03:04Z</time></trkpt><trkpt lat="43.66888636501246" lon="6.677484196604441"><ele>780.0</ele><time>2026-04-12T09:03:05Z</time></trkpt><trkpt lat="43.66881087700048" lon="6.677459789457076"><ele>780.0</ele><time>2026-04-12T09:03:06Z</time></trkpt><trkpt lat="43.66873822596605" lon="6.6774509318371855"><ele>780.0</ele><time>2026-04-12T09:03:07Z</time></trkpt><trkpt lat="43.66866971413431" lon="6.677477759774235"><ele>780.0</ele><time>2026-04-12T09:03:08Z</time></trkpt><trkpt lat="43.6686009746762" lon="6.677535460882268"><ele>777.0</ele><time>2026-04-12T09:03:09Z</time></trkpt><trkpt lat="43.66856749493587" lon="6.677657760925404"><ele>774.0</ele><time>2026-04-12T09:03:10Z</time></trkpt><trkpt lat="43.66856325121683" lon="6.677786719562252"><ele>771.0</ele><time>2026-04-12T09:03:11Z</time></trkpt><trkpt lat="43.66856742103853" lon="6.677909735705676"><ele>768.0</ele><time>2026-04-12T09:03:12Z</time></trkpt><trkpt lat="43.66857193460383" lon="6.678034828835223"><ele>765.0</ele><time>2026-04-12T09:03:13Z</time></trkpt><trkpt lat="43.668576564473035" lon="6.67816314511425"><ele>763.8</ele><time>2026-04-12T09:03:14Z</time></trkpt><trkpt lat="43.66859727812249" lon="6.678293208098483"><ele>762.6</ele><time>2026-04-12T09:03:15Z</time></trkpt><trkpt lat="43.668602707814074" lon="6.678427510596738"><ele>761.4000000000001</ele><time>2026-04-12T09:03:16Z</time></trkpt><trkpt lat="43.66860615698558" lon="6.678566721830138"><ele>760.2</ele><time>2026-04-12T09:03:17Z</time></trkpt><trkpt lat="43.66861024147327" lon="6.678708505711284"><ele>759.0</ele><time>2026-04-12T09:03:18Z</time></trkpt><trkpt lat="43.66859341612297" lon="6.678853892716543"><ele>758.75</ele><time>2026-04-12T09:03:19Z</time></trkpt><trkpt lat="43.66859423294461" lon="6.679004548490324"><ele>758.5</ele><time>2026-04-12T09:03:20Z</time></trkpt><trkpt lat="43.66855449988131" lon="6.679147677341697"><ele>758.25</ele><time>2026-04-12T09:03:21Z</time></trkpt><trkpt lat="43.66849683865696" lon="6.679283571015746"><ele>758.0</ele><time>2026-04-12T09:03:22Z</time></trkpt><trkpt lat="43.668420319831164" lon="6.67940702270026"><ele>757.75</ele><time>2026-04-12T09:03:23Z</time></trkpt><trkpt lat="43.66833864405486" lon="6.679525294150853"><ele>757.5</ele><time>2026-04-12T09:03:24Z</time></trkpt><trkpt lat="43.6682561767696" lon="6.679642656076487"><ele>757.25</ele><time>2026-04-12T09:03:25Z</time></trkpt><trkpt lat="43.66817809148705" lon="6.679757846294404"><ele>757.0</ele><time>2026-04-12T09:03:26Z</time></trkpt><trkpt lat="43.668105448955856" lon="6.679872631331094"><ele>757.0</ele><time>2026-04-12T09:03:27Z</time></trkpt><trkpt lat="43.668039909696645" lon="6.679986772310874"><ele>757.0</ele><time>2026-04-12T09:03:28Z</time></trkpt><trkpt lat="43.66797366744889" lon="6.680082090796988"><ele>757.0</ele><time>2026-04-12T09:03:29Z</time></trkpt><trkpt lat="43.667936202615515" lon="6.680178902926981"><ele>757.0</ele><time>2026-04-12T09:03:30Z</time></trkpt><trkpt lat="43.667911743241795" lon="6.680260291243493"><ele>757.0</ele><time>2026-04-12T09:03:31Z</time></trkpt><trkpt lat="43.66779398221463" lon="6.680295992887561"><ele>757.25</ele><time>2026-04-12T09:03:33Z</time></trkpt><trkpt lat="43.66770399765184" lon="6.680209878021576"><ele>757.5</ele><time>2026-04-12T09:03:35Z</time></trkpt><trkpt lat="43.66764438321242" lon="6.6800825323735165"><ele>757.75</ele><time>2026-04-12T09:03:37Z</time></trkpt><trkpt lat="43.66757150002159" lon="6.6799573773769225"><ele>758.0</ele><time>2026-04-12T09:03:39Z</time></trkpt><trkpt lat="43.66749487661165" lon="6.679830778116701"><ele>758.0000000000001</ele><time>2026-04-12T09:03:41Z</time></trkpt><trkpt lat="43.6674527554698" lon="6.679765672165314"><ele>758.0</ele><time>2026-04-12T09:03:42Z</time></trkpt><trkpt lat="43.66741021848773" lon="6.679701348702196"><ele>758.0</ele><time>2026-04-12T09:03:43Z</time></trkpt><trkpt lat="43.66736948990085" lon="6.679634042557196"><ele>758.0</ele><time>2026-04-12T09:03:44Z</time></trkpt><trkpt lat="43.667330391661956" lon="6.67956469300037"><ele>758.0</ele><time>2026-04-12T09:03:45Z</time></trkpt><trkpt lat="43.66729233343849" lon="6.679491821176455"><ele>758.0000000000001</ele><time>2026-04-12T09:03:46Z</time></trkpt><trkpt lat="43.66725241237091" lon="6.679417069693487"><ele>758.0</ele><time>2026-04-12T09:03:47Z</time></trkpt><trkpt lat="43.66721024286304" lon="6.679336849126078"><ele>758.5</ele><time>2026-04-12T09:03:48Z</time></trkpt><trkpt lat="43.66716328063868" lon="6.67925264837943"><ele>759.0</ele><time>2026-04-12T09:03:49Z</time></trkpt><trkpt lat="43.66711238875947" lon="6.679163777630183"><ele>759.5</ele><time>2026-04-12T09:03:50Z</time></trkpt><trkpt lat="43.667057487068256" lon="6.679071700311644"><ele>760.0</ele><time>2026-04-12T09:03:51Z</time></trkpt><trkpt lat="43.666998996840235" lon="6.678977687518992"><ele>760.5</ele><time>2026-04-12T09:03:52Z</time></trkpt><trkpt lat="43.6669370920251" lon="6.678883219743567"><ele>761.0</ele><time>2026-04-12T09:03:53Z</time></trkpt><trkpt lat="43.66686981851699" lon="6.6787897083967485"><ele>761.0</ele><time>2026-04-12T09:03:54Z</time></trkpt><trkpt lat="43.66679663797839" lon="6.67869986586506"><ele>761.0</ele><time>2026-04-12T09:03:55Z</time></trkpt><trkpt lat="43.66671784947975" lon="6.678613594209466"><ele>761.0</ele><time>2026-04-12T09:03:56Z</time></trkpt><trkpt lat="43.66663577591649" lon="6.678530603824928"><ele>761.0</ele><time>2026-04-12T09:03:57Z</time></trkpt><trkpt lat="43.666549611173494" lon="6.678448171983059"><ele>761.0</ele><time>2026-04-12T09:03:58Z</time></trkpt><trkpt lat="43.666461654562944" lon="6.678363079373601"><ele>759.8</ele><time>2026-04-12T09:03:59Z</time></trkpt><trkpt lat="43.66637316235386" lon="6.678275537241593"><ele>758.5999999999999</ele><time>2026-04-12T09:04:00Z</time></trkpt><trkpt lat="43.666286430725435" lon="6.678188113286363"><ele>757.4</ele><time>2026-04-12T09:04:01Z</time></trkpt><trkpt lat="43.666201567784924" lon="6.6781019370369235"><ele>756.2</ele><time>2026-04-12T09:04:02Z</time></trkpt><trkpt lat="43.6661117571126" lon="6.678016904172205"><ele>755.0</ele><time>2026-04-12T09:04:03Z</time></trkpt><trkpt lat="43.6660220003156" lon="6.677937041222543"><ele>755.0</ele><time>2026-04-12T09:04:04Z</time></trkpt><trkpt lat="43.66593073073973" lon="6.677849108606044"><ele>755.0</ele><time>2026-04-12T09:04:05Z</time></trkpt><trkpt lat="43.66584281028891" lon="6.677761936860658"><ele>755.0</ele><time>2026-04-12T09:04:06Z</time></trkpt><trkpt lat="43.66575160134901" lon="6.6776707698565465"><ele>755.0</ele><time>2026-04-12T09:04:07Z</time></trkpt><trkpt lat="43.66566530908576" lon="6.677574444357936"><ele>755.0</ele><time>2026-04-12T09:04:08Z</time></trkpt><trkpt lat="43.66557929558755" lon="6.677477353696935"><ele>754.6</ele><time>2026-04-12T09:04:09Z</time></trkpt><trkpt lat="43.66549223310327" lon="6.6773844117241925"><ele>754.2</ele><time>2026-04-12T09:04:10Z</time></trkpt><trkpt lat="43.66540774486785" lon="6.677291465776806"><ele>753.8</ele><time>2026-04-12T09:04:11Z</time></trkpt><trkpt lat="43.66533022297144" lon="6.6771956895591265"><ele>753.4</ele><time>2026-04-12T09:04:12Z</time></trkpt><trkpt lat="43.665262376477706" lon="6.677099063134288"><ele>753.0</ele><time>2026-04-12T09:04:13Z</time></trkpt><trkpt lat="43.66519593578986" lon="6.677007637795596"><ele>751.3333333333334</ele><time>2026-04-12T09:04:14Z</time></trkpt><trkpt lat="43.66513369192319" lon="6.676916985877291"><ele>749.6666666666666</ele><time>2026-04-12T09:04:15Z</time></trkpt><trkpt lat="43.66507352900976" lon="6.676828214571593"><ele>748.0</ele><time>2026-04-12T09:04:16Z</time></trkpt><trkpt lat="43.665015306997695" lon="6.676739418370616"><ele>746.3333333333333</ele><time>2026-04-12T09:04:17Z</time></trkpt><trkpt lat="43.66495765781958" lon="6.67664960012429"><ele>744.6666666666666</ele><time>2026-04-12T09:04:18Z</time></trkpt><trkpt lat="43.664900184459526" lon="6.6765565103767734"><ele>743.0</ele><time>2026-04-12T09:04:19Z</time></trkpt><trkpt lat="43.664843910314346" lon="6.676462684363708"><ele>743.0</ele><time>2026-04-12T09:04:20Z</time></trkpt><trkpt lat="43.66478738720508" lon="6.676370855983496"><ele>743.0</ele><time>2026-04-12T09:04:21Z</time></trkpt><trkpt lat="43.66473093421304" lon="6.6762787332418245"><ele>743.0</ele><time>2026-04-12T09:04:22Z</time></trkpt><trkpt lat="43.66467546001142" lon="6.676186049113469"><ele>743.0</ele><time>2026-04-12T09:04:23Z</time></trkpt><trkpt lat="43.66462706923865" lon="6.676087970299184"><ele>743.0</ele><time>2026-04-12T09:04:24Z</time></trkpt><trkpt lat="43.664578561055436" lon="6.675991997394644"><ele>743.0</ele><time>2026-04-12T09:04:25Z</time></trkpt><trkpt lat="43.66453294229861" lon="6.675894092807296"><ele>743.8333333333333</ele><time>2026-04-12T09:04:26Z</time></trkpt><trkpt lat="43.66448818123101" lon="6.675799715446858"><ele>744.6666666666666</ele><time>2026-04-12T09:04:27Z</time></trkpt><trkpt lat="43.66444628318922" lon="6.675700545768583"><ele>745.5</ele><time>2026-04-12T09:04:28Z</time></trkpt><trkpt lat="43.66440472510395" lon="6.675595735680814"><ele>746.3333333333334</ele><time>2026-04-12T09:04:29Z</time></trkpt><trkpt lat="43.66436247060029" lon="6.6754926777554315"><ele>747.1666666666667</ele><time>2026-04-12T09:04:30Z</time></trkpt><trkpt lat="43.66431468189947" lon="6.67539217084091"><ele>748.0</ele><time>2026-04-12T09:04:31Z</time></trkpt><trkpt lat="43.66426634346598" lon="6.675288851019308"><ele>746.5999999999999</ele><time>2026-04-12T09:04:32Z</time></trkpt><trkpt lat="43.66421415943471" lon="6.675182992842134"><ele>745.1999999999999</ele><time>2026-04-12T09:04:33Z</time></trkpt><trkpt lat="43.664163460921905" lon="6.675072030289712"><ele>743.8</ele><time>2026-04-12T09:04:34Z</time></trkpt><trkpt lat="43.66411416513761" lon="6.674953397756386"><ele>742.4</ele><time>2026-04-12T09:04:35Z</time></trkpt><trkpt lat="43.664066360290335" lon="6.674833173152866"><ele>741.0</ele><time>2026-04-12T09:04:36Z</time></trkpt><trkpt lat="43.664018440567546" lon="6.674712141463445"><ele>741.0</ele><time>2026-04-12T09:04:37Z</time></trkpt><trkpt lat="43.663970097349626" lon="6.674595476803454"><ele>741.0</ele><time>2026-04-12T09:04:38Z</time></trkpt><trkpt lat="43.66391551435768" lon="6.674487160759745"><ele>741.0</ele><time>2026-04-12T09:04:39Z</time></trkpt><trkpt lat="43.66385780179026" lon="6.6743869915036305"><ele>741.0</ele><time>2026-04-12T09:04:40Z</time></trkpt><trkpt lat="43.66379564368185" lon="6.674292794304762"><ele>741.0</ele><time>2026-04-12T09:04:41Z</time></trkpt><trkpt lat="43.66373342288335" lon="6.674200807715348"><ele>742.0</ele><time>2026-04-12T09:04:42Z</time></trkpt><trkpt lat="43.663673353527265" lon="6.6741074749365525"><ele>743.0</ele><time>2026-04-12T09:04:43Z</time></trkpt><trkpt lat="43.663611746109495" lon="6.6740146718539775"><ele>744.0</ele><time>2026-04-12T09:04:44Z</time></trkpt><trkpt lat="43.663545741721094" lon="6.673928548082533"><ele>745.0</ele><time>2026-04-12T09:04:45Z</time></trkpt><trkpt lat="43.66347390062037" lon="6.673849199777085"><ele>746.0</ele><time>2026-04-12T09:04:46Z</time></trkpt><trkpt lat="43.663402298300866" lon="6.673765919046592"><ele>746.0</ele><time>2026-04-12T09:04:47Z</time></trkpt><trkpt lat="43.663329768022955" lon="6.673677244116917"><ele>746.0</ele><time>2026-04-12T09:04:48Z</time></trkpt><trkpt lat="43.663260762758554" lon="6.67357769289469"><ele>746.0</ele><time>2026-04-12T09:04:49Z</time></trkpt><trkpt lat="43.66319766933104" lon="6.673468649551515"><ele>746.0</ele><time>2026-04-12T09:04:50Z</time></trkpt><trkpt lat="43.66313780521734" lon="6.673364645636821"><ele>746.0</ele><time>2026-04-12T09:04:51Z</time></trkpt><trkpt lat="43.663078926872025" lon="6.67325565861241"><ele>743.1999999999999</ele><time>2026-04-12T09:04:52Z</time></trkpt><trkpt lat="43.66302419085718" lon="6.673144597117987"><ele>740.4</ele><time>2026-04-12T09:04:53Z</time></trkpt><trkpt lat="43.662971437260694" lon="6.6730375881264"><ele>737.6</ele><time>2026-04-12T09:04:54Z</time></trkpt><trkpt lat="43.662920904324984" lon="6.672926793252068"><ele>734.8</ele><time>2026-04-12T09:04:55Z</time></trkpt><trkpt lat="43.66287321772209" lon="6.672817784726658"><ele>732.0</ele><time>2026-04-12T09:04:56Z</time></trkpt><trkpt lat="43.662827571789876" lon="6.672707311197565"><ele>733.0</ele><time>2026-04-12T09:04:57Z</time></trkpt><trkpt lat="43.6627864318683" lon="6.672595228256339"><ele>734.0</ele><time>2026-04-12T09:04:58Z</time></trkpt><trkpt lat="43.66274353781794" lon="6.672477958739365"><ele>735.0</ele><time>2026-04-12T09:04:59Z</time></trkpt><trkpt lat="43.662703803229924" lon="6.672359035810263"><ele>736.0</ele><time>2026-04-12T09:05:00Z</time></trkpt><trkpt lat="43.66266148421977" lon="6.672239258930091"><ele>737.0</ele><time>2026-04-12T09:05:01Z</time></trkpt><trkpt lat="43.66261867832482" lon="6.672112272672223"><ele>737.0</ele><time>2026-04-12T09:05:02Z</time></trkpt><trkpt lat="43.6625780887855" lon="6.671986293468003"><ele>737.0</ele><time>2026-04-12T09:05:03Z</time></trkpt><trkpt lat="43.66253208164196" lon="6.671861690001006"><ele>737.0</ele><time>2026-04-12T09:05:04Z</time></trkpt><trkpt lat="43.66247753626663" lon="6.6717497772646635"><ele>737.0</ele><time>2026-04-12T09:05:05Z</time></trkpt><trkpt lat="43.66241231445479" lon="6.671651623242832"><ele>737.0</ele><time>2026-04-12T09:05:06Z</time></trkpt><trkpt lat="43.66233934493202" lon="6.671572005892429"><ele>736.0</ele><time>2026-04-12T09:05:07Z</time></trkpt><trkpt lat="43.662263265417785" lon="6.671499737114703"><ele>735.0</ele><time>2026-04-12T09:05:08Z</time></trkpt><trkpt lat="43.66218919029961" lon="6.671433153768138"><ele>734.0</ele><time>2026-04-12T09:05:09Z</time></trkpt><trkpt lat="43.662113801254385" lon="6.6713717044628185"><ele>733.0</ele><time>2026-04-12T09:05:10Z</time></trkpt><trkpt lat="43.662035065309425" lon="6.671321870889134"><ele>732.0</ele><time>2026-04-12T09:05:11Z</time></trkpt><trkpt lat="43.661954272178924" lon="6.671284431573279"><ele>731.0</ele><time>2026-04-12T09:05:12Z</time></trkpt><trkpt lat="43.661873348591065" lon="6.6712606532335155"><ele>730.5999999999999</ele><time>2026-04-12T09:05:13Z</time></trkpt><trkpt lat="43.661789617481695" lon="6.6712588704957225"><ele>730.2</ele><time>2026-04-12T09:05:14Z</time></trkpt><trkpt lat="43.66170272556531" lon="6.67125119971123"><ele>729.8</ele><time>2026-04-12T09:05:15Z</time></trkpt><trkpt lat="43.66161365044419" lon="6.671278256672204"><ele>729.4000000000001</ele><time>2026-04-12T09:05:16Z</time></trkpt><trkpt lat="43.66152439300674" lon="6.671314427676734"><ele>729.0</ele><time>2026-04-12T09:05:17Z</time></trkpt><trkpt lat="43.66143326731996" lon="6.671354290858005"><ele>729.0</ele><time>2026-04-12T09:05:18Z</time></trkpt><trkpt lat="43.66133822390844" lon="6.671398259986995"><ele>729.0</ele><time>2026-04-12T09:05:19Z</time></trkpt><trkpt lat="43.66124780852869" lon="6.671462422512993"><ele>729.0</ele><time>2026-04-12T09:05:20Z</time></trkpt><trkpt lat="43.6611482250544" lon="6.671503538750745"><ele>729.0</ele><time>2026-04-12T09:05:21Z</time></trkpt><trkpt lat="43.661048027007666" lon="6.671550403529722"><ele>729.0</ele><time>2026-04-12T09:05:22Z</time></trkpt><trkpt lat="43.660940169769255" lon="6.671572729842435"><ele>728.0</ele><time>2026-04-12T09:05:23Z</time></trkpt><trkpt lat="43.66083874902381" lon="6.671619689548508"><ele>727.0</ele><time>2026-04-12T09:05:24Z</time></trkpt><trkpt lat="43.660740235625475" lon="6.6716868907312215"><ele>726.0</ele><time>2026-04-12T09:05:25Z</time></trkpt><trkpt lat="43.66063731761778" lon="6.671730927539336"><ele>725.0</ele><time>2026-04-12T09:05:26Z</time></trkpt><trkpt lat="43.66053415694467" lon="6.67177551956229"><ele>724.0</ele><time>2026-04-12T09:05:27Z</time></trkpt><trkpt lat="43.66043253143285" lon="6.671814712560019"><ele>724.0</ele><time>2026-04-12T09:05:28Z</time></trkpt><trkpt lat="43.660328195112704" lon="6.671841591207868"><ele>724.0</ele><time>2026-04-12T09:05:29Z</time></trkpt><trkpt lat="43.66022608527615" lon="6.6718581071311664"><ele>724.0</ele><time>2026-04-12T09:05:30Z</time></trkpt><trkpt lat="43.660122382883294" lon="6.671856771978215"><ele>724.0</ele><time>2026-04-12T09:05:31Z</time></trkpt><trkpt lat="43.66002038660108" lon="6.671842319473497"><ele>724.0</ele><time>2026-04-12T09:05:32Z</time></trkpt><trkpt lat="43.659919176831984" lon="6.671829647888025"><ele>723.2</ele><time>2026-04-12T09:05:33Z</time></trkpt><trkpt lat="43.65981876576246" lon="6.671816899963836"><ele>722.4000000000001</ele><time>2026-04-12T09:05:34Z</time></trkpt><trkpt lat="43.659723423562056" lon="6.671786319949823"><ele>721.6</ele><time>2026-04-12T09:05:35Z</time></trkpt><trkpt lat="43.659623120498665" lon="6.671786641574683"><ele>720.8</ele><time>2026-04-12T09:05:36Z</time></trkpt><trkpt lat="43.659527518307776" lon="6.671763514414063"><ele>720.0</ele><time>2026-04-12T09:05:37Z</time></trkpt><trkpt lat="43.659431896781456" lon="6.671743638790555"><ele>719.8</ele><time>2026-04-12T09:05:38Z</time></trkpt><trkpt lat="43.65933655560585" lon="6.671719228333654"><ele>719.6</ele><time>2026-04-12T09:05:39Z</time></trkpt><trkpt lat="43.659245340062974" lon="6.671678012811071"><ele>719.4000000000001</ele><time>2026-04-12T09:05:40Z</time></trkpt><trkpt lat="43.65915675319877" lon="6.671627093668971"><ele>719.2</ele><time>2026-04-12T09:05:41Z</time></trkpt><trkpt lat="43.65907342614806" lon="6.671566985565757"><ele>719.0</ele><time>2026-04-12T09:05:42Z</time></trkpt><trkpt lat="43.658994269560004" lon="6.671499282154785"><ele>719.0</ele><time>2026-04-12T09:05:43Z</time></trkpt><trkpt lat="43.65891579688093" lon="6.6714286810525705"><ele>719.0</ele><time>2026-04-12T09:05:44Z</time></trkpt><trkpt lat="43.658844560549035" lon="6.671350510755511"><ele>719.0</ele><time>2026-04-12T09:05:45Z</time></trkpt><trkpt lat="43.65878192531953" lon="6.671263874265225"><ele>719.0</ele><time>2026-04-12T09:05:46Z</time></trkpt><trkpt lat="43.65872476840194" lon="6.67117031729061"><ele>719.0</ele><time>2026-04-12T09:05:47Z</time></trkpt><trkpt lat="43.65866957919124" lon="6.6710821752620175"><ele>719.0</ele><time>2026-04-12T09:05:48Z</time></trkpt><trkpt lat="43.658617936184164" lon="6.6709885631919885"><ele>720.0</ele><time>2026-04-12T09:05:49Z</time></trkpt><trkpt lat="43.65856611543943" lon="6.670896171676675"><ele>721.0</ele><time>2026-04-12T09:05:50Z</time></trkpt><trkpt lat="43.658514869729814" lon="6.670804967422529"><ele>722.0</ele><time>2026-04-12T09:05:51Z</time></trkpt><trkpt lat="43.65846491698771" lon="6.670714599676755"><ele>723.0</ele><time>2026-04-12T09:05:52Z</time></trkpt><trkpt lat="43.658414539275256" lon="6.670623886804377"><ele>724.0</ele><time>2026-04-12T09:05:53Z</time></trkpt><trkpt lat="43.65836163248383" lon="6.670535176750714"><ele>725.0</ele><time>2026-04-12T09:05:54Z</time></trkpt><trkpt lat="43.65830956860827" lon="6.670446761052754"><ele>725.0</ele><time>2026-04-12T09:05:55Z</time></trkpt><trkpt lat="43.65826074195282" lon="6.670356851341339"><ele>725.0</ele><time>2026-04-12T09:05:56Z</time></trkpt><trkpt lat="43.658211275066485" lon="6.6702628168588"><ele>725.0</ele><time>2026-04-12T09:05:57Z</time></trkpt><trkpt lat="43.65815977651437" lon="6.670176383418056"><ele>725.0</ele><time>2026-04-12T09:05:58Z</time></trkpt><trkpt lat="43.658111243709094" lon="6.6700843396243465"><ele>725.0</ele><time>2026-04-12T09:05:59Z</time></trkpt><trkpt lat="43.65805883918193" lon="6.670004725258461"><ele>725.0</ele><time>2026-04-12T09:06:00Z</time></trkpt><trkpt lat="43.658011390380416" lon="6.669917733546336"><ele>724.7142857142858</ele><time>2026-04-12T09:06:01Z</time></trkpt><trkpt lat="43.65796593759652" lon="6.6698333073344855"><ele>724.4285714285714</ele><time>2026-04-12T09:06:02Z</time></trkpt><trkpt lat="43.65792174845107" lon="6.6697491821735815"><ele>724.1428571428571</ele><time>2026-04-12T09:06:03Z</time></trkpt><trkpt lat="43.65787671318992" lon="6.669667037770121"><ele>723.8571428571429</ele><time>2026-04-12T09:06:04Z</time></trkpt><trkpt lat="43.65783419774471" lon="6.669590283474744"><ele>723.5714285714286</ele><time>2026-04-12T09:06:05Z</time></trkpt><trkpt lat="43.65778754124429" lon="6.669513261480977"><ele>723.2857142857143</ele><time>2026-04-12T09:06:06Z</time></trkpt><trkpt lat="43.65774219405923" lon="6.669434367417015"><ele>723.0</ele><time>2026-04-12T09:06:07Z</time></trkpt><trkpt lat="43.657697891044265" lon="6.669351136966744"><ele>723.0000000000001</ele><time>2026-04-12T09:06:08Z</time></trkpt><trkpt lat="43.657656948065735" lon="6.669271095063407"><ele>723.0</ele><time>2026-04-12T09:06:09Z</time></trkpt><trkpt lat="43.65761046021475" lon="6.66919155756857"><ele>723.0</ele><time>2026-04-12T09:06:10Z</time></trkpt><trkpt lat="43.657559725631316" lon="6.669119415710607"><ele>723.0</ele><time>2026-04-12T09:06:11Z</time></trkpt><trkpt lat="43.6575109931565" lon="6.6690401087027"><ele>723.0</ele><time>2026-04-12T09:06:12Z</time></trkpt><trkpt lat="43.657465880447" lon="6.668965172109785"><ele>723.0000000000001</ele><time>2026-04-12T09:06:13Z</time></trkpt><trkpt lat="43.657418221781015" lon="6.668893404852673"><ele>723.0</ele><time>2026-04-12T09:06:14Z</time></trkpt><trkpt lat="43.65737282757943" lon="6.668811866704311"><ele>723.0</ele><time>2026-04-12T09:06:15Z</time></trkpt><trkpt lat="43.6573265043369" lon="6.668730361432505"><ele>723.0</ele><time>2026-04-12T09:06:16Z</time></trkpt><trkpt lat="43.657278212056994" lon="6.668643542597786"><ele>723.0</ele><time>2026-04-12T09:06:17Z</time></trkpt><trkpt lat="43.65723588185129" lon="6.668564856221346"><ele>723.0</ele><time>2026-04-12T09:06:18Z</time></trkpt><trkpt lat="43.6571855482256" lon="6.668486509106995"><ele>723.0</ele><time>2026-04-12T09:06:19Z</time></trkpt><trkpt lat="43.65714102964327" lon="6.668400023046952"><ele>723.0</ele><time>2026-04-12T09:06:20Z</time></trkpt><trkpt lat="43.65709637265058" lon="6.668313628283364"><ele>723.5</ele><time>2026-04-12T09:06:21Z</time></trkpt><trkpt lat="43.65705141815636" lon="6.6682264707254415"><ele>724.0</ele><time>2026-04-12T09:06:22Z</time></trkpt><trkpt lat="43.65700202529873" lon="6.668139353628756"><ele>724.5</ele><time>2026-04-12T09:06:23Z</time></trkpt><trkpt lat="43.6569509698059" lon="6.668054716910807"><ele>725.0</ele><time>2026-04-12T09:06:24Z</time></trkpt><trkpt lat="43.6568948342497" lon="6.6679708714909225"><ele>725.5</ele><time>2026-04-12T09:06:25Z</time></trkpt><trkpt lat="43.65684462351614" lon="6.667883129485984"><ele>726.0</ele><time>2026-04-12T09:06:26Z</time></trkpt><trkpt lat="43.65679439872251" lon="6.667794476516282"><ele>724.6666666666666</ele><time>2026-04-12T09:06:27Z</time></trkpt><trkpt lat="43.65673724817508" lon="6.667712248702924"><ele>723.3333333333334</ele><time>2026-04-12T09:06:28Z</time></trkpt><trkpt lat="43.6566827609964" lon="6.667627586604077"><ele>722.0</ele><time>2026-04-12T09:06:29Z</time></trkpt><trkpt lat="43.656624355627265" lon="6.6675480902258215"><ele>720.6666666666667</ele><time>2026-04-12T09:06:30Z</time></trkpt><trkpt lat="43.65656229485334" lon="6.667472278542727"><ele>719.3333333333334</ele><time>2026-04-12T09:06:31Z</time></trkpt><trkpt lat="43.656499941791445" lon="6.667398018181041"><ele>718.0</ele><time>2026-04-12T09:06:32Z</time></trkpt><trkpt lat="43.656436383266154" lon="6.667324241765934"><ele>718.0</ele><time>2026-04-12T09:06:33Z</time></trkpt><trkpt lat="43.65637075331176" lon="6.667249229879378"><ele>718.0</ele><time>2026-04-12T09:06:34Z</time></trkpt><trkpt lat="43.656301364029396" lon="6.667177772073812"><ele>718.0</ele><time>2026-04-12T09:06:35Z</time></trkpt><trkpt lat="43.65623181277399" lon="6.667107281535849"><ele>718.0</ele><time>2026-04-12T09:06:36Z</time></trkpt><trkpt lat="43.656163597588936" lon="6.6670357220959655"><ele>718.0</ele><time>2026-04-12T09:06:37Z</time></trkpt><trkpt lat="43.6560959735406" lon="6.666961034601574"><ele>718.0</ele><time>2026-04-12T09:06:38Z</time></trkpt><trkpt lat="43.656029442028675" lon="6.666881892042384"><ele>718.0</ele><time>2026-04-12T09:06:39Z</time></trkpt><trkpt lat="43.65596141235778" lon="6.666804983565507"><ele>718.0</ele><time>2026-04-12T09:06:40Z</time></trkpt><trkpt lat="43.655891869283614" lon="6.666729600948198"><ele>718.0</ele><time>2026-04-12T09:06:41Z</time></trkpt><trkpt lat="43.655824138869136" lon="6.6666534459707005"><ele>718.0</ele><time>2026-04-12T09:06:42Z</time></trkpt><trkpt lat="43.655755910237836" lon="6.666579291309719"><ele>718.0</ele><time>2026-04-12T09:06:43Z</time></trkpt><trkpt lat="43.65568941860943" lon="6.6665086042702475"><ele>718.0</ele><time>2026-04-12T09:06:44Z</time></trkpt><trkpt lat="43.655625729338134" lon="6.666438994032715"><ele>718.0</ele><time>2026-04-12T09:06:45Z</time></trkpt><trkpt lat="43.65556431928545" lon="6.6663726094366025"><ele>718.0</ele><time>2026-04-12T09:06:46Z</time></trkpt><trkpt lat="43.65550526876487" lon="6.666312740433984"><ele>718.0</ele><time>2026-04-12T09:06:47Z</time></trkpt><trkpt lat="43.65545065905108" lon="6.6662512367167075"><ele>718.0</ele><time>2026-04-12T09:06:48Z</time></trkpt><trkpt lat="43.655398413395325" lon="6.6661898108041795"><ele>718.0</ele><time>2026-04-12T09:06:49Z</time></trkpt><trkpt lat="43.65534606607238" lon="6.666133903836345"><ele>718.0</ele><time>2026-04-12T09:06:50Z</time></trkpt><trkpt lat="43.655295778994045" lon="6.66607881250423"><ele>718.0</ele><time>2026-04-12T09:06:51Z</time></trkpt><trkpt lat="43.65524630813564" lon="6.6660213971354745"><ele>717.1666666666667</ele><time>2026-04-12T09:06:52Z</time></trkpt><trkpt lat="43.65519422851542" lon="6.665971518384935"><ele>716.3333333333334</ele><time>2026-04-12T09:06:53Z</time></trkpt><trkpt lat="43.65511613374546" lon="6.665889315030406"><ele>715.5</ele><time>2026-04-12T09:06:55Z</time></trkpt><trkpt lat="43.65505400526054" lon="6.665836113614986"><ele>714.6666666666666</ele><time>2026-04-12T09:07:37Z</time></trkpt><trkpt lat="43.65497531141254" lon="6.665764076281471"><ele>713.8333333333333</ele><time>2026-04-12T09:07:40Z</time></trkpt><trkpt lat="43.65490289145313" lon="6.665700086403121"><ele>713.0</ele><time>2026-04-12T09:07:42Z</time></trkpt><trkpt lat="43.65481972988889" lon="6.665627368608268"><ele>713.0</ele><time>2026-04-12T09:07:44Z</time></trkpt><trkpt lat="43.65472438224723" lon="6.665538581754238"><ele>713.0</ele><time>2026-04-12T09:07:46Z</time></trkpt><trkpt lat="43.65466803854208" lon="6.665494609757134"><ele>713.0</ele><time>2026-04-12T09:07:47Z</time></trkpt><trkpt lat="43.65461007481405" lon="6.665444905335624"><ele>713.0</ele><time>2026-04-12T09:07:48Z</time></trkpt><trkpt lat="43.654551557646904" lon="6.6653891197599915"><ele>713.0</ele><time>2026-04-12T09:07:49Z</time></trkpt><trkpt lat="43.65449069522066" lon="6.665331357775415"><ele>713.0</ele><time>2026-04-12T09:07:50.001Z</time></trkpt><trkpt lat="43.654427144861344" lon="6.66527539408592"><ele>712.3333333333333</ele><time>2026-04-12T09:07:51.001Z</time></trkpt><trkpt lat="43.65436179002746" lon="6.665217587179092"><ele>711.6666666666666</ele><time>2026-04-12T09:07:52.001Z</time></trkpt><trkpt lat="43.654297348778584" lon="6.665156206223701"><ele>711.0</ele><time>2026-04-12T09:07:53.001Z</time></trkpt><trkpt lat="43.65423204336185" lon="6.66508757017073"><ele>710.3333333333334</ele><time>2026-04-12T09:07:54.001Z</time></trkpt><trkpt lat="43.65416715334371" lon="6.665012480377773"><ele>709.6666666666667</ele><time>2026-04-12T09:07:55.001Z</time></trkpt><trkpt lat="43.6541058281439" lon="6.664922856404753"><ele>709.0</ele><time>2026-04-12T09:07:56.001Z</time></trkpt><trkpt lat="43.654057352288795" lon="6.664820397774401"><ele>709.0</ele><time>2026-04-12T09:07:57.001Z</time></trkpt><trkpt lat="43.65401963668251" lon="6.664707130557729"><ele>709.0</ele><time>2026-04-12T09:07:58.001Z</time></trkpt><trkpt lat="43.65399344007146" lon="6.664579032527276"><ele>709.0</ele><time>2026-04-12T09:07:59.001Z</time></trkpt><trkpt lat="43.6539808860858" lon="6.66444419632755"><ele>709.0</ele><time>2026-04-12T09:08:00.001Z</time></trkpt><trkpt lat="43.653965229407135" lon="6.664314033841157"><ele>709.0</ele><time>2026-04-12T09:08:01.001Z</time></trkpt><trkpt lat="43.65396871827557" lon="6.664179579365063"><ele>708.0</ele><time>2026-04-12T09:08:02.001Z</time></trkpt><trkpt lat="43.65397408947915" lon="6.66404577814224"><ele>707.0</ele><time>2026-04-12T09:08:03.001Z</time></trkpt><trkpt lat="43.65398776144292" lon="6.6639110030838244"><ele>706.0</ele><time>2026-04-12T09:08:04.001Z</time></trkpt><trkpt lat="43.65400901159778" lon="6.663780509353207"><ele>705.0</ele><time>2026-04-12T09:08:05.001Z</time></trkpt><trkpt lat="43.65403320434554" lon="6.6636516961250525"><ele>704.0</ele><time>2026-04-12T09:08:06.001Z</time></trkpt><trkpt lat="43.65405253641628" lon="6.663527240850006"><ele>703.0</ele><time>2026-04-12T09:08:07.001Z</time></trkpt><trkpt lat="43.654072616333025" lon="6.663404739694191"><ele>702.0</ele><time>2026-04-12T09:08:08.001Z</time></trkpt><trkpt lat="43.65409180749878" lon="6.663282693393736"><ele>701.0</ele><time>2026-04-12T09:08:09.001Z</time></trkpt><trkpt lat="43.65410948321144" lon="6.663158920305059"><ele>700.0</ele><time>2026-04-12T09:08:10.001Z</time></trkpt><trkpt lat="43.65412484657862" lon="6.663033488261036"><ele>699.0</ele><time>2026-04-12T09:08:11.001Z</time></trkpt><trkpt lat="43.65413781497918" lon="6.662901343584475"><ele>698.6</ele><time>2026-04-12T09:08:12.001Z</time></trkpt><trkpt lat="43.65413866819044" lon="6.662767037751118"><ele>698.2</ele><time>2026-04-12T09:08:13.001Z</time></trkpt><trkpt lat="43.654123888232725" lon="6.662629776323004"><ele>697.8000000000001</ele><time>2026-04-12T09:08:14.001Z</time></trkpt><trkpt lat="43.654093050773184" lon="6.662495638930433"><ele>697.4000000000001</ele><time>2026-04-12T09:08:15Z</time></trkpt><trkpt lat="43.65405721779785" lon="6.662363580666691"><ele>697.0</ele><time>2026-04-12T09:08:16Z</time></trkpt><trkpt lat="43.65401871742595" lon="6.662232998030889"><ele>697.0</ele><time>2026-04-12T09:08:17Z</time></trkpt><trkpt lat="43.65397832587007" lon="6.6621019914394095"><ele>697.0</ele><time>2026-04-12T09:08:18Z</time></trkpt><trkpt lat="43.653940621893334" lon="6.661964962022751"><ele>697.0</ele><time>2026-04-12T09:08:19Z</time></trkpt><trkpt lat="43.65390457656621" lon="6.661831754512278"><ele>697.0</ele><time>2026-04-12T09:08:20Z</time></trkpt><trkpt lat="43.653866799991945" lon="6.661699207740176"><ele>697.0</ele><time>2026-04-12T09:08:21Z</time></trkpt><trkpt lat="43.65383365312375" lon="6.661572830203603"><ele>697.0</ele><time>2026-04-12T09:08:22Z</time></trkpt><trkpt lat="43.65380347505233" lon="6.661454412844841"><ele>697.0</ele><time>2026-04-12T09:08:23Z</time></trkpt><trkpt lat="43.653775825692456" lon="6.661337439942314"><ele>697.0</ele><time>2026-04-12T09:08:24Z</time></trkpt><trkpt lat="43.653754438534484" lon="6.661225693151068"><ele>697.0</ele><time>2026-04-12T09:08:25Z</time></trkpt><trkpt lat="43.65375326135969" lon="6.661114812814617"><ele>697.0</ele><time>2026-04-12T09:08:26Z</time></trkpt><trkpt lat="43.653769621278606" lon="6.661008460947342"><ele>697.0</ele><time>2026-04-12T09:08:27Z</time></trkpt><trkpt lat="43.65380429131981" lon="6.660905977343123"><ele>696.8333333333334</ele><time>2026-04-12T09:08:28Z</time></trkpt><trkpt lat="43.6538407778008" lon="6.660805712233221"><ele>696.6666666666667</ele><time>2026-04-12T09:08:29Z</time></trkpt><trkpt lat="43.653881651470435" lon="6.660705093235122"><ele>696.5</ele><time>2026-04-12T09:08:30Z</time></trkpt><trkpt lat="43.65392642782954" lon="6.660600768621429"><ele>696.3333333333334</ele><time>2026-04-12T09:08:31Z</time></trkpt><trkpt lat="43.65397039509403" lon="6.6604948220705396"><ele>696.1666666666666</ele><time>2026-04-12T09:08:32Z</time></trkpt><trkpt lat="43.654013417841675" lon="6.660383640708561"><ele>696.0</ele><time>2026-04-12T09:08:33Z</time></trkpt><trkpt lat="43.65406061954853" lon="6.660272178526819"><ele>694.5999999999999</ele><time>2026-04-12T09:08:34Z</time></trkpt><trkpt lat="43.65410889553905" lon="6.6601570168758935"><ele>693.2</ele><time>2026-04-12T09:08:35Z</time></trkpt><trkpt lat="43.65415958256599" lon="6.660042194973705"><ele>691.8</ele><time>2026-04-12T09:08:36Z</time></trkpt><trkpt lat="43.654209396654664" lon="6.659921603010602"><ele>690.4000000000001</ele><time>2026-04-12T09:08:37Z</time></trkpt><trkpt lat="43.654256079055145" lon="6.6597977076796235"><ele>689.0</ele><time>2026-04-12T09:08:38Z</time></trkpt><trkpt lat="43.65429566678667" lon="6.659686016347343"><ele>689.0</ele><time>2026-04-12T09:08:39Z</time></trkpt><trkpt lat="43.65433446451134" lon="6.659591852528038"><ele>689.0</ele><time>2026-04-12T09:08:40Z</time></trkpt><trkpt lat="43.65436794006172" lon="6.659512947625604"><ele>689.0</ele><time>2026-04-12T09:08:41Z</time></trkpt><trkpt lat="43.65440780124632" lon="6.659370518849388"><ele>689.0</ele><time>2026-04-12T09:08:43Z</time></trkpt><trkpt lat="43.654379848618184" lon="6.659233319574143"><ele>689.0</ele><time>2026-04-12T09:08:45Z</time></trkpt><trkpt lat="43.65429597562152" lon="6.659136041671528"><ele>689.0</ele><time>2026-04-12T09:08:47Z</time></trkpt><trkpt lat="43.65416281076197" lon="6.659280385637773"><ele>689.0</ele><time>2026-04-12T09:08:49Z</time></trkpt><trkpt lat="43.65411374568516" lon="6.659361328732337"><ele>689.0</ele><time>2026-04-12T09:08:50Z</time></trkpt><trkpt lat="43.65405658999792" lon="6.659431362618103"><ele>689.0</ele><time>2026-04-12T09:08:51Z</time></trkpt><trkpt lat="43.653995754109026" lon="6.659505438363012"><ele>689.0</ele><time>2026-04-12T09:08:52Z</time></trkpt><trkpt lat="43.65393379928633" lon="6.659585296931552"><ele>689.0</ele><time>2026-04-12T09:08:53Z</time></trkpt><trkpt lat="43.65386655889686" lon="6.659658350132583"><ele>689.0</ele><time>2026-04-12T09:08:54Z</time></trkpt><trkpt lat="43.653792966155514" lon="6.659724637915235"><ele>689.0</ele><time>2026-04-12T09:08:55Z</time></trkpt><trkpt lat="43.653706732859874" lon="6.659768635125918"><ele>689.0</ele><time>2026-04-12T09:08:56Z</time></trkpt><trkpt lat="43.653613109043924" lon="6.659784479943756"><ele>689.0</ele><time>2026-04-12T09:08:57Z</time></trkpt><trkpt lat="43.65351775940405" lon="6.659772308585272"><ele>686.6</ele><time>2026-04-12T09:08:58Z</time></trkpt><trkpt lat="43.65342357796219" lon="6.659747236424023"><ele>684.2</ele><time>2026-04-12T09:08:59Z</time></trkpt><trkpt lat="43.65332948564581" lon="6.6597219447716265"><ele>681.8000000000001</ele><time>2026-04-12T09:09:00Z</time></trkpt><trkpt lat="43.65323352261868" lon="6.65970031331158"><ele>679.4000000000001</ele><time>2026-04-12T09:09:01Z</time></trkpt><trkpt lat="43.65314283239271" lon="6.659680954908528"><ele>677.0</ele><time>2026-04-12T09:09:02Z</time></trkpt><trkpt lat="43.65306232322679" lon="6.659667176203573"><ele>677.0</ele><time>2026-04-12T09:09:03Z</time></trkpt><trkpt lat="43.65298979502154" lon="6.659666186454631"><ele>677.0</ele><time>2026-04-12T09:09:04Z</time></trkpt><trkpt lat="43.652916369219" lon="6.6597087464474285"><ele>677.0</ele><time>2026-04-12T09:09:05Z</time></trkpt><trkpt lat="43.65284901750892" lon="6.659788856790663"><ele>677.0</ele><time>2026-04-12T09:09:06Z</time></trkpt><trkpt lat="43.65278689927973" lon="6.659880662085076"><ele>677.0</ele><time>2026-04-12T09:09:07Z</time></trkpt><trkpt lat="43.652725850894235" lon="6.659972599963712"><ele>677.0</ele><time>2026-04-12T09:09:08Z</time></trkpt><trkpt lat="43.652659743604886" lon="6.6600614924438135"><ele>677.6</ele><time>2026-04-12T09:09:09Z</time></trkpt><trkpt lat="43.652591142242564" lon="6.66015275067767"><ele>678.2</ele><time>2026-04-12T09:09:10Z</time></trkpt><trkpt lat="43.652519580792934" lon="6.660243856773074"><ele>678.8</ele><time>2026-04-12T09:09:11Z</time></trkpt><trkpt lat="43.652446896830895" lon="6.6603395490070065"><ele>679.4</ele><time>2026-04-12T09:09:12Z</time></trkpt><trkpt lat="43.652370876444486" lon="6.660436681286897"><ele>680.0</ele><time>2026-04-12T09:09:13Z</time></trkpt><trkpt lat="43.65229667558243" lon="6.660535198244418"><ele>677.8</ele><time>2026-04-12T09:09:14Z</time></trkpt><trkpt lat="43.65222302710115" lon="6.66063606005327"><ele>675.6</ele><time>2026-04-12T09:09:15Z</time></trkpt><trkpt lat="43.652147134020616" lon="6.6607359864734335"><ele>673.4000000000001</ele><time>2026-04-12T09:09:16Z</time></trkpt><trkpt lat="43.65207419271977" lon="6.660832844525909"><ele>671.2</ele><time>2026-04-12T09:09:17Z</time></trkpt><trkpt lat="43.65200717992259" lon="6.660924664525669"><ele>669.0</ele><time>2026-04-12T09:09:18Z</time></trkpt><trkpt lat="43.65194702759478" lon="6.661008807860922"><ele>668.8333333333334</ele><time>2026-04-12T09:09:19Z</time></trkpt><trkpt lat="43.651886586968324" lon="6.661082735469293"><ele>668.6666666666666</ele><time>2026-04-12T09:09:20Z</time></trkpt><trkpt lat="43.65181642435878" lon="6.661140261186281"><ele>668.5</ele><time>2026-04-12T09:09:21Z</time></trkpt><trkpt lat="43.651744541894786" lon="6.661167904027614"><ele>668.3333333333333</ele><time>2026-04-12T09:09:22Z</time></trkpt><trkpt lat="43.65166597506438" lon="6.661154915355538"><ele>668.1666666666666</ele><time>2026-04-12T09:09:23Z</time></trkpt><trkpt lat="43.65159103498359" lon="6.661098515221734"><ele>668.0</ele><time>2026-04-12T09:09:24Z</time></trkpt><trkpt lat="43.65153258946292" lon="6.6610088996096675"><ele>668.0</ele><time>2026-04-12T09:09:25Z</time></trkpt><trkpt lat="43.6514844520051" lon="6.660908807019579"><ele>668.0</ele><time>2026-04-12T09:09:26Z</time></trkpt><trkpt lat="43.651436990195805" lon="6.660808020190011"><ele>668.0</ele><time>2026-04-12T09:09:27Z</time></trkpt><trkpt lat="43.65138626492182" lon="6.6607071521422565"><ele>668.0</ele><time>2026-04-12T09:09:28Z</time></trkpt><trkpt lat="43.65132793969179" lon="6.6606076493662885"><ele>668.0</ele><time>2026-04-12T09:09:29Z</time></trkpt><trkpt lat="43.651261319324234" lon="6.660517884484105"><ele>668.0</ele><time>2026-04-12T09:09:30Z</time></trkpt><trkpt lat="43.651182483078266" lon="6.660437362265067"><ele>665.4</ele><time>2026-04-12T09:09:31Z</time></trkpt><trkpt lat="43.65109030652644" lon="6.660380544978212"><ele>662.8</ele><time>2026-04-12T09:09:32Z</time></trkpt><trkpt lat="43.65099244264499" lon="6.660348123201801"><ele>660.2</ele><time>2026-04-12T09:09:33Z</time></trkpt><trkpt lat="43.650892150384074" lon="6.660323142764163"><ele>657.6</ele><time>2026-04-12T09:09:34Z</time></trkpt><trkpt lat="43.65079061545884" lon="6.660314095358481"><ele>655.0</ele><time>2026-04-12T09:09:35Z</time></trkpt><trkpt lat="43.65068675417304" lon="6.660319200241922"><ele>655.0</ele><time>2026-04-12T09:09:36Z</time></trkpt><trkpt lat="43.65058375184492" lon="6.660339864377129"><ele>655.0</ele><time>2026-04-12T09:09:37Z</time></trkpt><trkpt lat="43.65047755225455" lon="6.6603579125951375"><ele>655.0</ele><time>2026-04-12T09:09:38Z</time></trkpt><trkpt lat="43.65037146456696" lon="6.6603508696973766"><ele>655.0</ele><time>2026-04-12T09:09:39Z</time></trkpt><trkpt lat="43.6502633800045" lon="6.660330920110782"><ele>655.0</ele><time>2026-04-12T09:09:40Z</time></trkpt><trkpt lat="43.65015373045274" lon="6.660298657971976"><ele>658.5</ele><time>2026-04-12T09:09:41Z</time></trkpt><trkpt lat="43.65004448334471" lon="6.660267219393101"><ele>662.0</ele><time>2026-04-12T09:09:42Z</time></trkpt><trkpt lat="43.649931657380364" lon="6.660237543157048"><ele>665.5</ele><time>2026-04-12T09:09:43Z</time></trkpt><trkpt lat="43.649818120640454" lon="6.6602131502874755"><ele>669.0</ele><time>2026-04-12T09:09:44Z</time></trkpt><trkpt lat="43.64970547639582" lon="6.660182928600869"><ele>669.0</ele><time>2026-04-12T09:09:45Z</time></trkpt><trkpt lat="43.64959082503101" lon="6.6601540051177635"><ele>669.0</ele><time>2026-04-12T09:09:46Z</time></trkpt><trkpt lat="43.649476918204186" lon="6.66012148622011"><ele>669.0</ele><time>2026-04-12T09:09:47Z</time></trkpt><trkpt lat="43.64936315380765" lon="6.660080810506821"><ele>669.0</ele><time>2026-04-12T09:09:48Z</time></trkpt><trkpt lat="43.64924929576047" lon="6.660037670715017"><ele>665.75</ele><time>2026-04-12T09:09:49Z</time></trkpt><trkpt lat="43.649135496607535" lon="6.659992364762338"><ele>662.5</ele><time>2026-04-12T09:09:50Z</time></trkpt><trkpt lat="43.649018102039214" lon="6.659954987849227"><ele>659.25</ele><time>2026-04-12T09:09:51Z</time></trkpt><trkpt lat="43.64889873305436" lon="6.659925728726095"><ele>656.0</ele><time>2026-04-12T09:09:52Z</time></trkpt><trkpt lat="43.64878063105755" lon="6.6599161362876425"><ele>656.0</ele><time>2026-04-12T09:09:53Z</time></trkpt><trkpt lat="43.64865685718925" lon="6.659928688178866"><ele>656.0</ele><time>2026-04-12T09:09:54Z</time></trkpt><trkpt lat="43.64853699204957" lon="6.659952530158829"><ele>656.0</ele><time>2026-04-12T09:09:55Z</time></trkpt><trkpt lat="43.6484196971669" lon="6.659978865551422"><ele>656.0</ele><time>2026-04-12T09:09:56Z</time></trkpt><trkpt lat="43.648296382175744" lon="6.660000149332496"><ele>654.0</ele><time>2026-04-12T09:09:57Z</time></trkpt><trkpt lat="43.648172587799685" lon="6.660015769434349"><ele>652.0</ele><time>2026-04-12T09:09:58Z</time></trkpt><trkpt lat="43.648046408756784" lon="6.660028357736823"><ele>650.0</ele><time>2026-04-12T09:09:59Z</time></trkpt><trkpt lat="43.64792023002367" lon="6.660042201341281"><ele>648.0</ele><time>2026-04-12T09:10:00Z</time></trkpt><trkpt lat="43.6477916160829" lon="6.660058081855525"><ele>646.25</ele><time>2026-04-12T09:10:01Z</time></trkpt><trkpt lat="43.647670885516625" lon="6.6600697007391245"><ele>644.5</ele><time>2026-04-12T09:10:02Z</time></trkpt><trkpt lat="43.647550888767995" lon="6.660080512735879"><ele>642.75</ele><time>2026-04-12T09:10:03Z</time></trkpt><trkpt lat="43.647428226824694" lon="6.660073483345497"><ele>641.0</ele><time>2026-04-12T09:10:04Z</time></trkpt><trkpt lat="43.64730907416149" lon="6.660044659356158"><ele>641.0</ele><time>2026-04-12T09:10:05Z</time></trkpt><trkpt lat="43.647193226931805" lon="6.660007059929107"><ele>641.0</ele><time>2026-04-12T09:10:06Z</time></trkpt><trkpt lat="43.6470843292801" lon="6.659974117579034"><ele>641.0</ele><time>2026-04-12T09:10:07Z</time></trkpt><trkpt lat="43.64697904038137" lon="6.659960144690903"><ele>641.0</ele><time>2026-04-12T09:10:08Z</time></trkpt><trkpt lat="43.6468757119391" lon="6.659959911967795"><ele>641.0</ele><time>2026-04-12T09:10:09Z</time></trkpt><trkpt lat="43.646785468384074" lon="6.6599643224955845"><ele>638.6666666666666</ele><time>2026-04-12T09:10:10Z</time></trkpt><trkpt lat="43.64670848986513" lon="6.659967868109385"><ele>636.3333333333333</ele><time>2026-04-12T09:10:11Z</time></trkpt><trkpt lat="43.64664504939513" lon="6.659964667911443"><ele>634.0</ele><time>2026-04-12T09:10:12Z</time></trkpt><trkpt lat="43.646527100774534" lon="6.659927418568018"><ele>631.6666666666666</ele><time>2026-04-12T09:10:14Z</time></trkpt><trkpt lat="43.646482437572665" lon="6.65986589464112"><ele>629.3333333333334</ele><time>2026-04-12T09:10:15Z</time></trkpt><trkpt lat="43.64645950798146" lon="6.659767916231769"><ele>627.0</ele><time>2026-04-12T09:10:16Z</time></trkpt><trkpt lat="43.64646146951697" lon="6.659654942267286"><ele>627.0</ele><time>2026-04-12T09:10:17Z</time></trkpt><trkpt lat="43.64646869576761" lon="6.659535841866586"><ele>627.0</ele><time>2026-04-12T09:10:18Z</time></trkpt><trkpt lat="43.64647189358388" lon="6.659408927426736"><ele>627.0</ele><time>2026-04-12T09:10:19Z</time></trkpt><trkpt lat="43.64647785332067" lon="6.659282032135483"><ele>627.0</ele><time>2026-04-12T09:10:20Z</time></trkpt><trkpt lat="43.64649030339081" lon="6.659151003199363"><ele>627.0</ele><time>2026-04-12T09:10:21Z</time></trkpt><trkpt lat="43.646509072650254" lon="6.659019661503058"><ele>626.2</ele><time>2026-04-12T09:10:22Z</time></trkpt><trkpt lat="43.646539384566466" lon="6.658887645758437"><ele>625.4000000000001</ele><time>2026-04-12T09:10:23Z</time></trkpt><trkpt lat="43.64658425525132" lon="6.658760101497448"><ele>624.5999999999999</ele><time>2026-04-12T09:10:24Z</time></trkpt><trkpt lat="43.64664035905802" lon="6.658637693955387"><ele>623.8</ele><time>2026-04-12T09:10:25Z</time></trkpt><trkpt lat="43.64669769054921" lon="6.658513057363037"><ele>623.0</ele><time>2026-04-12T09:10:26Z</time></trkpt><trkpt lat="43.6467492473012" lon="6.658396772970307"><ele>623.0</ele><time>2026-04-12T09:10:27Z</time></trkpt><trkpt lat="43.64679280042609" lon="6.658296848297605"><ele>623.0</ele><time>2026-04-12T09:10:28Z</time></trkpt><trkpt lat="43.64683171042935" lon="6.658203872742248"><ele>623.0</ele><time>2026-04-12T09:10:29Z</time></trkpt><trkpt lat="43.646849465525165" lon="6.658102021145475"><ele>623.0</ele><time>2026-04-12T09:10:30Z</time></trkpt><trkpt lat="43.64683247600476" lon="6.657994870347326"><ele>623.0</ele><time>2026-04-12T09:10:31Z</time></trkpt><trkpt lat="43.646784818782066" lon="6.657900354773281"><ele>623.0</ele><time>2026-04-12T09:10:32Z</time></trkpt><trkpt lat="43.64670947991557" lon="6.657835610368839"><ele>623.0</ele><time>2026-04-12T09:10:33Z</time></trkpt><trkpt lat="43.64662210149347" lon="6.65778992969331"><ele>623.0</ele><time>2026-04-12T09:10:34Z</time></trkpt><trkpt lat="43.64653251829713" lon="6.6577560512026785"><ele>623.0</ele><time>2026-04-12T09:10:35Z</time></trkpt><trkpt lat="43.646444035416806" lon="6.65772034947277"><ele>623.0</ele><time>2026-04-12T09:10:36Z</time></trkpt><trkpt lat="43.646352537460096" lon="6.657679837952516"><ele>623.0</ele><time>2026-04-12T09:10:37Z</time></trkpt><trkpt lat="43.64625848341089" lon="6.657639522751332"><ele>624.3333333333333</ele><time>2026-04-12T09:10:38Z</time></trkpt><trkpt lat="43.64617286133196" lon="6.657598770034417"><ele>625.6666666666666</ele><time>2026-04-12T09:10:39Z</time></trkpt><trkpt lat="43.64609305603827" lon="6.657556179083534"><ele>627.0</ele><time>2026-04-12T09:10:40Z</time></trkpt><trkpt lat="43.64601724311123" lon="6.657509004094522"><ele>628.3333333333334</ele><time>2026-04-12T09:10:41Z</time></trkpt><trkpt lat="43.64594806736208" lon="6.657446335353356"><ele>629.6666666666667</ele><time>2026-04-12T09:10:42Z</time></trkpt><trkpt lat="43.645892394953975" lon="6.657361434259516"><ele>631.0</ele><time>2026-04-12T09:10:43Z</time></trkpt><trkpt lat="43.64585283336467" lon="6.657263308299614"><ele>626.4</ele><time>2026-04-12T09:10:44Z</time></trkpt><trkpt lat="43.64582960846942" lon="6.657147054351876"><ele>621.8</ele><time>2026-04-12T09:10:45Z</time></trkpt><trkpt lat="43.64582579005666" lon="6.657017851655923"><ele>617.1999999999999</ele><time>2026-04-12T09:10:46Z</time></trkpt><trkpt lat="43.645836825233054" lon="6.65688625790611"><ele>612.6</ele><time>2026-04-12T09:10:47Z</time></trkpt><trkpt lat="43.64584998532273" lon="6.656752230629598"><ele>608.0</ele><time>2026-04-12T09:10:48Z</time></trkpt><trkpt lat="43.645853503991006" lon="6.6566177264171955"><ele>608.0</ele><time>2026-04-12T09:10:49Z</time></trkpt><trkpt lat="43.64583795458873" lon="6.656482276465853"><ele>608.0</ele><time>2026-04-12T09:10:50Z</time></trkpt><trkpt lat="43.645804009719924" lon="6.656347341681436"><ele>608.0</ele><time>2026-04-12T09:10:51Z</time></trkpt><trkpt lat="43.645755317133876" lon="6.656216923737715"><ele>608.0</ele><time>2026-04-12T09:10:52Z</time></trkpt><trkpt lat="43.64570767536299" lon="6.656100008050786"><ele>608.0</ele><time>2026-04-12T09:10:53Z</time></trkpt><trkpt lat="43.64565104367924" lon="6.655991187050092"><ele>609.0</ele><time>2026-04-12T09:10:54Z</time></trkpt><trkpt lat="43.6455810049349" lon="6.655888729795825"><ele>610.0</ele><time>2026-04-12T09:10:55Z</time></trkpt><trkpt lat="43.645497852444" lon="6.655808035016798"><ele>611.0</ele><time>2026-04-12T09:10:56Z</time></trkpt><trkpt lat="43.645411493819246" lon="6.655762991199761"><ele>612.0</ele><time>2026-04-12T09:10:57Z</time></trkpt><trkpt lat="43.64533381652738" lon="6.6556973410746325"><ele>613.0</ele><time>2026-04-12T09:10:58Z</time></trkpt><trkpt lat="43.64526404033208" lon="6.6556078646534615"><ele>609.8</ele><time>2026-04-12T09:10:59Z</time></trkpt><trkpt lat="43.645197516281854" lon="6.655505574755472"><ele>606.5999999999999</ele><time>2026-04-12T09:11:00Z</time></trkpt><trkpt lat="43.645135198484205" lon="6.655394067424138"><ele>603.4000000000001</ele><time>2026-04-12T09:11:01Z</time></trkpt><trkpt lat="43.64507581042636" lon="6.655272894054072"><ele>600.2</ele><time>2026-04-12T09:11:02Z</time></trkpt><trkpt lat="43.645013291960225" lon="6.655148339940913"><ele>597.0</ele><time>2026-04-12T09:11:03Z</time></trkpt><trkpt lat="43.644951262840145" lon="6.655024343086115"><ele>597.0</ele><time>2026-04-12T09:11:04Z</time></trkpt><trkpt lat="43.64489086153946" lon="6.6548939120904045"><ele>597.0</ele><time>2026-04-12T09:11:05Z</time></trkpt><trkpt lat="43.64483058020859" lon="6.654763178181982"><ele>597.0</ele><time>2026-04-12T09:11:06Z</time></trkpt><trkpt lat="43.64477502327497" lon="6.654623432745769"><ele>597.0</ele><time>2026-04-12T09:11:07Z</time></trkpt><trkpt lat="43.644726531372875" lon="6.654484202922533"><ele>597.4</ele><time>2026-04-12T09:11:08Z</time></trkpt><trkpt lat="43.64468171630208" lon="6.654352528293139"><ele>597.8000000000001</ele><time>2026-04-12T09:11:09Z</time></trkpt><trkpt lat="43.644643283229314" lon="6.654229062345386"><ele>598.2</ele><time>2026-04-12T09:11:10Z</time></trkpt><trkpt lat="43.644611222457996" lon="6.654108085550004"><ele>598.6</ele><time>2026-04-12T09:11:11Z</time></trkpt><trkpt lat="43.6445817390336" lon="6.653997198470786"><ele>599.0</ele><time>2026-04-12T09:11:12Z</time></trkpt><trkpt lat="43.64455423176558" lon="6.6538903104718115"><ele>599.0</ele><time>2026-04-12T09:11:13Z</time></trkpt><trkpt lat="43.64453188162654" lon="6.653788149677982"><ele>599.0</ele><time>2026-04-12T09:11:14Z</time></trkpt><trkpt lat="43.64452204966986" lon="6.653683919959024"><ele>599.0</ele><time>2026-04-12T09:11:15Z</time></trkpt><trkpt lat="43.64452160384195" lon="6.653580968398671"><ele>599.0</ele><time>2026-04-12T09:11:16Z</time></trkpt><trkpt lat="43.64453957680138" lon="6.65347092020723"><ele>599.0</ele><time>2026-04-12T09:11:17Z</time></trkpt><trkpt lat="43.64458193457223" lon="6.653368206444451"><ele>599.0</ele><time>2026-04-12T09:11:18Z</time></trkpt><trkpt lat="43.644636330284555" lon="6.653275326724758"><ele>597.8</ele><time>2026-04-12T09:11:19Z</time></trkpt><trkpt lat="43.644697879373425" lon="6.653186834971316"><ele>596.5999999999999</ele><time>2026-04-12T09:11:20Z</time></trkpt><trkpt lat="43.64476136039389" lon="6.653095909475411"><ele>595.4</ele><time>2026-04-12T09:11:21Z</time></trkpt><trkpt lat="43.64482959522539" lon="6.653004574504102"><ele>594.1999999999999</ele><time>2026-04-12T09:11:22Z</time></trkpt><trkpt lat="43.64489849125976" lon="6.652910128580328"><ele>593.0</ele><time>2026-04-12T09:11:23Z</time></trkpt><trkpt lat="43.64496720457062" lon="6.652808533307779"><ele>593.1666666666666</ele><time>2026-04-12T09:11:24Z</time></trkpt><trkpt lat="43.64503502522581" lon="6.6527101928364"><ele>593.3333333333333</ele><time>2026-04-12T09:11:25Z</time></trkpt><trkpt lat="43.6451005362595" lon="6.65262128548858"><ele>593.5</ele><time>2026-04-12T09:11:26Z</time></trkpt><trkpt lat="43.64515946060131" lon="6.652544359429191"><ele>593.6666666666666</ele><time>2026-04-12T09:11:27Z</time></trkpt><trkpt lat="43.64521776179844" lon="6.652482469583105"><ele>593.8333333333334</ele><time>2026-04-12T09:11:28Z</time></trkpt><trkpt lat="43.645276233685664" lon="6.652430001271837"><ele>594.0</ele><time>2026-04-12T09:11:29Z</time></trkpt><trkpt lat="43.645332751358715" lon="6.6523846450879125"><ele>594.0</ele><time>2026-04-12T09:11:30Z</time></trkpt><trkpt lat="43.645380126867806" lon="6.652255833820851"><ele>594.0</ele><time>2026-04-12T09:11:32Z</time></trkpt><trkpt lat="43.64534592156717" lon="6.6521788753801205"><ele>594.0</ele><time>2026-04-12T09:11:33Z</time></trkpt><trkpt lat="43.645275021982116" lon="6.652134740483307"><ele>594.0</ele><time>2026-04-12T09:11:34Z</time></trkpt><trkpt lat="43.64519368664341" lon="6.6521610006329785"><ele>594.0</ele><time>2026-04-12T09:11:35Z</time></trkpt><trkpt lat="43.645125072293865" lon="6.6522271713774614"><ele>594.0</ele><time>2026-04-12T09:11:36Z</time></trkpt><trkpt lat="43.6450593582251" lon="6.652292492378457"><ele>591.2</ele><time>2026-04-12T09:11:37Z</time></trkpt><trkpt lat="43.64499048777076" lon="6.6523568376790365"><ele>588.4</ele><time>2026-04-12T09:11:38Z</time></trkpt><trkpt lat="43.64491762840634" lon="6.652421590307425"><ele>585.6</ele><time>2026-04-12T09:11:39Z</time></trkpt><trkpt lat="43.64483581125245" lon="6.652473621337305"><ele>582.8</ele><time>2026-04-12T09:11:40Z</time></trkpt><trkpt lat="43.64474646520989" lon="6.652511819517137"><ele>580.0</ele><time>2026-04-12T09:11:41Z</time></trkpt><trkpt lat="43.64465398215327" lon="6.652555386839666"><ele>580.0</ele><time>2026-04-12T09:11:42Z</time></trkpt><trkpt lat="43.644562682074536" lon="6.652608950685088"><ele>580.0</ele><time>2026-04-12T09:11:43Z</time></trkpt><trkpt lat="43.644471707425666" lon="6.652676157008641"><ele>580.0</ele><time>2026-04-12T09:11:44Z</time></trkpt><trkpt lat="43.644385653680274" lon="6.6527614313475265"><ele>580.0</ele><time>2026-04-12T09:11:45Z</time></trkpt><trkpt lat="43.64430658135507" lon="6.652863152904666"><ele>580.0</ele><time>2026-04-12T09:11:46Z</time></trkpt><trkpt lat="43.64423096210008" lon="6.652964571439379"><ele>578.2</ele><time>2026-04-12T09:11:47Z</time></trkpt><trkpt lat="43.644160927344274" lon="6.653071874467412"><ele>576.4</ele><time>2026-04-12T09:11:48Z</time></trkpt><trkpt lat="43.64410054962311" lon="6.653196422543532"><ele>574.6</ele><time>2026-04-12T09:11:49Z</time></trkpt><trkpt lat="43.64404493457536" lon="6.653327328234679"><ele>572.8</ele><time>2026-04-12T09:11:50Z</time></trkpt><trkpt lat="43.643995026622626" lon="6.65346482175305"><ele>571.0</ele><time>2026-04-12T09:11:51Z</time></trkpt><trkpt lat="43.64394324463987" lon="6.653609038989983"><ele>571.75</ele><time>2026-04-12T09:11:52Z</time></trkpt><trkpt lat="43.64389156551657" lon="6.6537557528133275"><ele>572.5</ele><time>2026-04-12T09:11:53Z</time></trkpt><trkpt lat="43.643847984422464" lon="6.653908247875533"><ele>573.25</ele><time>2026-04-12T09:11:54Z</time></trkpt><trkpt lat="43.643811853593526" lon="6.65406737282695"><ele>574.0</ele><time>2026-04-12T09:11:55Z</time></trkpt><trkpt lat="43.64378347926334" lon="6.654230953214323"><ele>574.0</ele><time>2026-04-12T09:11:56Z</time></trkpt><trkpt lat="43.64375478351789" lon="6.6543950078963805"><ele>574.0</ele><time>2026-04-12T09:11:57Z</time></trkpt><trkpt lat="43.64372478326107" lon="6.654552859162984"><ele>574.0</ele><time>2026-04-12T09:11:58Z</time></trkpt><trkpt lat="43.6436986375117" lon="6.654693965320636"><ele>574.0</ele><time>2026-04-12T09:11:59Z</time></trkpt><trkpt lat="43.64367286596136" lon="6.654835478555173"><ele>573.8</ele><time>2026-04-12T09:12:00Z</time></trkpt><trkpt lat="43.64365476602678" lon="6.65497256839576"><ele>573.5999999999999</ele><time>2026-04-12T09:12:01Z</time></trkpt><trkpt lat="43.64365824535389" lon="6.655106747988558"><ele>573.4</ele><time>2026-04-12T09:12:02Z</time></trkpt><trkpt lat="43.64367361782351" lon="6.655234573066485"><ele>573.1999999999999</ele><time>2026-04-12T09:12:03Z</time></trkpt><trkpt lat="43.6436926407911" lon="6.655346210772965"><ele>573.0</ele><time>2026-04-12T09:12:04Z</time></trkpt><trkpt lat="43.64371872625395" lon="6.655446652690654"><ele>572.1666666666666</ele><time>2026-04-12T09:12:05Z</time></trkpt><trkpt lat="43.6437377409671" lon="6.65554682171181"><ele>571.3333333333334</ele><time>2026-04-12T09:12:06Z</time></trkpt><trkpt lat="43.64373770284201" lon="6.655656837187691"><ele>570.5</ele><time>2026-04-12T09:12:07Z</time></trkpt><trkpt lat="43.643721635686546" lon="6.655768625675257"><ele>569.6666666666667</ele><time>2026-04-12T09:12:08Z</time></trkpt><trkpt lat="43.643690206221684" lon="6.655882890221268"><ele>568.8333333333334</ele><time>2026-04-12T09:12:09Z</time></trkpt><trkpt lat="43.643646588880465" lon="6.655997559090448"><ele>568.0</ele><time>2026-04-12T09:12:10Z</time></trkpt><trkpt lat="43.643606062878334" lon="6.656115032044551"><ele>562.1999999999999</ele><time>2026-04-12T09:12:11Z</time></trkpt><trkpt lat="43.64357199819016" lon="6.656237743105253"><ele>556.4</ele><time>2026-04-12T09:12:12Z</time></trkpt><trkpt lat="43.64354723476909" lon="6.656365638540385"><ele>550.5999999999999</ele><time>2026-04-12T09:12:13Z</time></trkpt><trkpt lat="43.643527785834564" lon="6.656485878548738"><ele>544.8</ele><time>2026-04-12T09:12:14Z</time></trkpt><trkpt lat="43.64352217750332" lon="6.656605630617803"><ele>539.0</ele><time>2026-04-12T09:12:15Z</time></trkpt><trkpt lat="43.643536040769526" lon="6.656729825288734"><ele>539.0</ele><time>2026-04-12T09:12:16Z</time></trkpt><trkpt lat="43.64357776914805" lon="6.656843267252619"><ele>539.0</ele><time>2026-04-12T09:12:17Z</time></trkpt><trkpt lat="43.64365049951182" lon="6.656932525966712"><ele>539.0</ele><time>2026-04-12T09:12:18Z</time></trkpt><trkpt lat="43.64371356639718" lon="6.657027982713594"><ele>539.0</ele><time>2026-04-12T09:12:19Z</time></trkpt><trkpt lat="43.6437510672386" lon="6.65715769842396"><ele>539.0</ele><time>2026-04-12T09:12:20Z</time></trkpt><trkpt lat="43.64376314069792" lon="6.65730043175555"><ele>540.2</ele><time>2026-04-12T09:12:21Z</time></trkpt><trkpt lat="43.643763744412375" lon="6.657444295962419"><ele>541.4</ele><time>2026-04-12T09:12:22Z</time></trkpt><trkpt lat="43.64376606718207" lon="6.657590881278593"><ele>542.6</ele><time>2026-04-12T09:12:23Z</time></trkpt><trkpt lat="43.64377620022927" lon="6.657727774466663"><ele>543.8</ele><time>2026-04-12T09:12:24Z</time></trkpt><trkpt lat="43.643794724783156" lon="6.657850577827652"><ele>545.0</ele><time>2026-04-12T09:12:25Z</time></trkpt><trkpt lat="43.64382781787956" lon="6.657961450336687"><ele>545.0</ele><time>2026-04-12T09:12:26Z</time></trkpt><trkpt lat="43.64388640156616" lon="6.658050495592736"><ele>545.0</ele><time>2026-04-12T09:12:27Z</time></trkpt><trkpt lat="43.64396287380641" lon="6.658118426610767"><ele>545.0</ele><time>2026-04-12T09:12:28Z</time></trkpt><trkpt lat="43.64403372565077" lon="6.658167823614096"><ele>545.0</ele><time>2026-04-12T09:12:29Z</time></trkpt><trkpt lat="43.64409752178457" lon="6.658221201589124"><ele>545.0</ele><time>2026-04-12T09:12:30Z</time></trkpt><trkpt lat="43.644142629228895" lon="6.658282270937811"><ele>545.0</ele><time>2026-04-12T09:12:31Z</time></trkpt><trkpt lat="43.64412276598271" lon="6.6584356217713445"><ele>545.0</ele><time>2026-04-12T09:12:33Z</time></trkpt><trkpt lat="43.64405071652881" lon="6.658474297181698"><ele>545.0</ele><time>2026-04-12T09:12:34Z</time></trkpt><trkpt lat="43.64396804122182" lon="6.658451373168143"><ele>545.0</ele><time>2026-04-12T09:12:35Z</time></trkpt><trkpt lat="43.64389489599165" lon="6.658397103309061"><ele>545.0</ele><time>2026-04-12T09:12:36Z</time></trkpt><trkpt lat="43.64382563728506" lon="6.658338370328968"><ele>545.0</ele><time>2026-04-12T09:12:37Z</time></trkpt><trkpt lat="43.64375812437123" lon="6.658272643296586"><ele>545.0</ele><time>2026-04-12T09:12:38Z</time></trkpt><trkpt lat="43.64369579889977" lon="6.6581884461861325"><ele>545.0</ele><time>2026-04-12T09:12:39Z</time></trkpt><trkpt lat="43.64364255645874" lon="6.65808509253444"><ele>545.0</ele><time>2026-04-12T09:12:40Z</time></trkpt><trkpt lat="43.64359400386851" lon="6.657969563064486"><ele>545.0</ele><time>2026-04-12T09:12:41Z</time></trkpt><trkpt lat="43.64354029535132" lon="6.657852807784488"><ele>545.0</ele><time>2026-04-12T09:12:42Z</time></trkpt><trkpt lat="43.643480112148914" lon="6.657737518227563"><ele>545.0</ele><time>2026-04-12T09:12:43Z</time></trkpt><trkpt lat="43.64341481711421" lon="6.657636210244231"><ele>542.8</ele><time>2026-04-12T09:12:44Z</time></trkpt><trkpt lat="43.643332761342094" lon="6.657564636051389"><ele>540.6</ele><time>2026-04-12T09:12:45Z</time></trkpt><trkpt lat="43.6432382578078" lon="6.657514756032818"><ele>538.4</ele><time>2026-04-12T09:12:46Z</time></trkpt><trkpt lat="43.64315720130433" lon="6.657457528887087"><ele>536.2</ele><time>2026-04-12T09:12:47Z</time></trkpt><trkpt lat="43.64309687559261" lon="6.657368181984028"><ele>534.0</ele><time>2026-04-12T09:12:48Z</time></trkpt><trkpt lat="43.6430526689929" lon="6.657245664447211"><ele>534.0</ele><time>2026-04-12T09:12:49Z</time></trkpt><trkpt lat="43.64303113788863" lon="6.6571045223253575"><ele>534.0</ele><time>2026-04-12T09:12:50Z</time></trkpt><trkpt lat="43.64302943186399" lon="6.656957863033041"><ele>534.0</ele><time>2026-04-12T09:12:51Z</time></trkpt><trkpt lat="43.643014950193916" lon="6.656816299137365"><ele>534.0</ele><time>2026-04-12T09:12:52Z</time></trkpt><trkpt lat="43.64297251351893" lon="6.656678958914575"><ele>534.0</ele><time>2026-04-12T09:12:53Z</time></trkpt><trkpt lat="43.64291576345674" lon="6.656546169123387"><ele>535.0</ele><time>2026-04-12T09:12:54Z</time></trkpt><trkpt lat="43.64285371667169" lon="6.656412095121809"><ele>536.0</ele><time>2026-04-12T09:12:55Z</time></trkpt><trkpt lat="43.64279720124405" lon="6.6562836049430745"><ele>537.0</ele><time>2026-04-12T09:12:56Z</time></trkpt><trkpt lat="43.64275437218016" lon="6.656154033795405"><ele>538.0</ele><time>2026-04-12T09:12:57Z</time></trkpt><trkpt lat="43.64273024707768" lon="6.65602327980725"><ele>539.0</ele><time>2026-04-12T09:12:58Z</time></trkpt><trkpt lat="43.642721491052576" lon="6.655892920500576"><ele>534.6</ele><time>2026-04-12T09:12:59Z</time></trkpt><trkpt lat="43.64268907320129" lon="6.655764828415286"><ele>530.2</ele><time>2026-04-12T09:13:00Z</time></trkpt><trkpt lat="43.64262089389355" lon="6.655649051766677"><ele>525.8000000000001</ele><time>2026-04-12T09:13:01Z</time></trkpt><trkpt lat="43.642537686245376" lon="6.655558361010679"><ele>521.4</ele><time>2026-04-12T09:13:02Z</time></trkpt><trkpt lat="43.642462570479914" lon="6.655482504101194"><ele>517.0</ele><time>2026-04-12T09:13:03Z</time></trkpt><trkpt lat="43.64239379080664" lon="6.655390185073579"><ele>518.4</ele><time>2026-04-12T09:13:04Z</time></trkpt><trkpt lat="43.642342991142634" lon="6.655280277095351"><ele>519.8000000000001</ele><time>2026-04-12T09:13:05Z</time></trkpt><trkpt lat="43.64231063494878" lon="6.6551573936781905"><ele>521.2</ele><time>2026-04-12T09:13:06Z</time></trkpt><trkpt lat="43.64229640942217" lon="6.65502117918659"><ele>522.6</ele><time>2026-04-12T09:13:07Z</time></trkpt><trkpt lat="43.64229438441374" lon="6.654880334863184"><ele>524.0</ele><time>2026-04-12T09:13:08Z</time></trkpt><trkpt lat="43.64229380812303" lon="6.654736990444713"><ele>524.0</ele><time>2026-04-12T09:13:09Z</time></trkpt><trkpt lat="43.64229254802525" lon="6.654592691779548"><ele>524.0</ele><time>2026-04-12T09:13:10Z</time></trkpt><trkpt lat="43.6422909003166" lon="6.654446098965916"><ele>524.0</ele><time>2026-04-12T09:13:11Z</time></trkpt><trkpt lat="43.64229069370534" lon="6.654295809904663"><ele>524.0</ele><time>2026-04-12T09:13:12Z</time></trkpt><trkpt lat="43.6422883595923" lon="6.654141569133166"><ele>524.0</ele><time>2026-04-12T09:13:13Z</time></trkpt><trkpt lat="43.642281872745656" lon="6.653984642994885"><ele>523.5</ele><time>2026-04-12T09:13:14Z</time></trkpt><trkpt lat="43.642272454963305" lon="6.653823910374093"><ele>523.0</ele><time>2026-04-12T09:13:15Z</time></trkpt><trkpt lat="43.64226854728883" lon="6.653660142157795"><ele>522.5</ele><time>2026-04-12T09:13:16Z</time></trkpt><trkpt lat="43.64227332374233" lon="6.653496159102247"><ele>522.0</ele><time>2026-04-12T09:13:17Z</time></trkpt><trkpt lat="43.6422869266715" lon="6.6533283646632055"><ele>520.25</ele><time>2026-04-12T09:13:18Z</time></trkpt><trkpt lat="43.64231089006071" lon="6.653159329826773"><ele>518.5</ele><time>2026-04-12T09:13:19Z</time></trkpt><trkpt lat="43.642344281770846" lon="6.652991311890505"><ele>516.75</ele><time>2026-04-12T09:13:20Z</time></trkpt><trkpt lat="43.64238858743229" lon="6.652825751795882"><ele>515.0</ele><time>2026-04-12T09:13:21Z</time></trkpt><trkpt lat="43.64242561339051" lon="6.652659525787732"><ele>513.4</ele><time>2026-04-12T09:13:22Z</time></trkpt><trkpt lat="43.642454434099214" lon="6.652503666877105"><ele>511.8</ele><time>2026-04-12T09:13:23Z</time></trkpt><trkpt lat="43.64247393787469" lon="6.652352166996082"><ele>510.20000000000005</ele><time>2026-04-12T09:13:24Z</time></trkpt><trkpt lat="43.64249086827101" lon="6.652207644764967"><ele>508.6</ele><time>2026-04-12T09:13:25Z</time></trkpt><trkpt lat="43.64250711847532" lon="6.652063085044734"><ele>507.0</ele><time>2026-04-12T09:13:26Z</time></trkpt><trkpt lat="43.64253528528814" lon="6.6519193720830145"><ele>505.0</ele><time>2026-04-12T09:13:27Z</time></trkpt><trkpt lat="43.64257413520058" lon="6.651805368361588"><ele>503.0</ele><time>2026-04-12T09:13:28Z</time></trkpt><trkpt lat="43.64261086058495" lon="6.6517009183038125"><ele>501.0</ele><time>2026-04-12T09:13:29Z</time></trkpt><trkpt lat="43.64264569109556" lon="6.651608714832194"><ele>499.0</ele><time>2026-04-12T09:13:30Z</time></trkpt><trkpt lat="43.64269028382815" lon="6.651509085095714"><ele>497.0</ele><time>2026-04-12T09:13:31Z</time></trkpt><trkpt lat="43.642748868537275" lon="6.6514169719309235"><ele>495.0</ele><time>2026-04-12T09:13:32Z</time></trkpt><trkpt lat="43.642823796936476" lon="6.651336497536464"><ele>496.2</ele><time>2026-04-12T09:13:33Z</time></trkpt><trkpt lat="43.64290212005553" lon="6.651260046205695"><ele>497.4</ele><time>2026-04-12T09:13:34Z</time></trkpt><trkpt lat="43.64298301877939" lon="6.651182557013174"><ele>498.6</ele><time>2026-04-12T09:13:35Z</time></trkpt><trkpt lat="43.643062762240206" lon="6.651095629354278"><ele>499.8</ele><time>2026-04-12T09:13:36Z</time></trkpt><trkpt lat="43.64313764182654" lon="6.650997328790794"><ele>501.0</ele><time>2026-04-12T09:13:37Z</time></trkpt><trkpt lat="43.64320680752952" lon="6.6508867308051425"><ele>501.0</ele><time>2026-04-12T09:13:38Z</time></trkpt><trkpt lat="43.64326677532154" lon="6.6507716248887805"><ele>501.0</ele><time>2026-04-12T09:13:39Z</time></trkpt><trkpt lat="43.64331605779889" lon="6.650669332781808"><ele>501.0</ele><time>2026-04-12T09:13:40Z</time></trkpt><trkpt lat="43.64336247982595" lon="6.6505725329454775"><ele>501.0</ele><time>2026-04-12T09:13:41Z</time></trkpt><trkpt lat="43.64341629918233" lon="6.650491337671042"><ele>501.0</ele><time>2026-04-12T09:13:42Z</time></trkpt><trkpt lat="43.643482223984535" lon="6.650409622166437"><ele>501.0</ele><time>2026-04-12T09:13:43Z</time></trkpt><trkpt lat="43.64356755097879" lon="6.650365186982946"><ele>500.6</ele><time>2026-04-12T09:13:44Z</time></trkpt><trkpt lat="43.64365481776214" lon="6.650327984623798"><ele>500.20000000000005</ele><time>2026-04-12T09:13:45Z</time></trkpt><trkpt lat="43.64374401771908" lon="6.650274553680449"><ele>499.79999999999995</ele><time>2026-04-12T09:13:46Z</time></trkpt><trkpt lat="43.643815599031676" lon="6.650175280658263"><ele>499.4</ele><time>2026-04-12T09:13:47Z</time></trkpt><trkpt lat="43.64387034665736" lon="6.650057391724635"><ele>499.0</ele><time>2026-04-12T09:13:48Z</time></trkpt><trkpt lat="43.64392350587508" lon="6.649943108490353"><ele>499.0</ele><time>2026-04-12T09:13:49Z</time></trkpt><trkpt lat="43.64398561712542" lon="6.64985286032841"><ele>499.0</ele><time>2026-04-12T09:13:50Z</time></trkpt><trkpt lat="43.644071108201345" lon="6.649788967981559"><ele>499.0</ele><time>2026-04-12T09:13:51Z</time></trkpt><trkpt lat="43.644161441755536" lon="6.649756631157578"><ele>499.0</ele><time>2026-04-12T09:13:52Z</time></trkpt><trkpt lat="43.64425049558488" lon="6.649742262217676"><ele>499.0</ele><time>2026-04-12T09:13:53Z</time></trkpt><trkpt lat="43.644327261472284" lon="6.649714320794516"><ele>499.00000000000006</ele><time>2026-04-12T09:13:54Z</time></trkpt><trkpt lat="43.64439281221537" lon="6.649674950727495"><ele>499.0</ele><time>2026-04-12T09:13:55Z</time></trkpt><trkpt lat="43.644462379907345" lon="6.649564956323142"><ele>499.0</ele><time>2026-04-12T09:13:57Z</time></trkpt><trkpt lat="43.64440649669183" lon="6.649448772249723"><ele>499.0</ele><time>2026-04-12T09:13:59Z</time></trkpt><trkpt lat="43.64433129689208" lon="6.649450416955666"><ele>499.00000000000006</ele><time>2026-04-12T09:14:00Z</time></trkpt><trkpt lat="43.644259378393585" lon="6.649507665474935"><ele>499.0</ele><time>2026-04-12T09:14:01Z</time></trkpt><trkpt lat="43.64419089489703" lon="6.649555147574102"><ele>499.00000000000006</ele><time>2026-04-12T09:14:02Z</time></trkpt><trkpt lat="43.64411576759568" lon="6.649590323934557"><ele>499.0</ele><time>2026-04-12T09:14:03Z</time></trkpt><trkpt lat="43.644038934068746" lon="6.649622694153538"><ele>499.0</ele><time>2026-04-12T09:14:04Z</time></trkpt><trkpt lat="43.64395960052781" lon="6.64965676728575"><ele>499.0</ele><time>2026-04-12T09:14:05Z</time></trkpt><trkpt lat="43.64387350861813" lon="6.649692903131986"><ele>499.00000000000006</ele><time>2026-04-12T09:14:06Z</time></trkpt><trkpt lat="43.643780077239335" lon="6.649730420048195"><ele>499.0</ele><time>2026-04-12T09:14:07Z</time></trkpt><trkpt lat="43.64368223526926" lon="6.6497873563071845"><ele>494.0</ele><time>2026-04-12T09:14:08Z</time></trkpt><trkpt lat="43.643588245316295" lon="6.649879909677902"><ele>489.0</ele><time>2026-04-12T09:14:09Z</time></trkpt><trkpt lat="43.64349848029344" lon="6.649981830383068"><ele>484.0</ele><time>2026-04-12T09:14:10Z</time></trkpt><trkpt lat="43.643397829562396" lon="6.650041964765282"><ele>479.0</ele><time>2026-04-12T09:14:11Z</time></trkpt><trkpt lat="43.64328758017159" lon="6.650051012859556"><ele>479.0</ele><time>2026-04-12T09:14:12Z</time></trkpt><trkpt lat="43.643184204483376" lon="6.650046495286247"><ele>479.0</ele><time>2026-04-12T09:14:13Z</time></trkpt><trkpt lat="43.64309250675721" lon="6.650078487263674"><ele>479.0</ele><time>2026-04-12T09:14:14Z</time></trkpt><trkpt lat="43.643001312259436" lon="6.650160346851376"><ele>479.0</ele><time>2026-04-12T09:14:15Z</time></trkpt><trkpt lat="43.64292441346433" lon="6.650248994843586"><ele>479.0</ele><time>2026-04-12T09:14:16Z</time></trkpt><trkpt lat="43.64282787856429" lon="6.650321211854532"><ele>479.5</ele><time>2026-04-12T09:14:17Z</time></trkpt><trkpt lat="43.64272477766026" lon="6.650372548640429"><ele>480.0</ele><time>2026-04-12T09:14:18Z</time></trkpt><trkpt lat="43.64261056247624" lon="6.650404591153967"><ele>480.5</ele><time>2026-04-12T09:14:19Z</time></trkpt><trkpt lat="43.64249268006065" lon="6.650410025010898"><ele>481.0</ele><time>2026-04-12T09:14:20Z</time></trkpt><trkpt lat="43.64237405830899" lon="6.650404833665415"><ele>481.0</ele><time>2026-04-12T09:14:21Z</time></trkpt><trkpt lat="43.64225638999271" lon="6.650420268948178"><ele>481.0</ele><time>2026-04-12T09:14:22Z</time></trkpt><trkpt lat="43.642135788915" lon="6.650451420864774"><ele>481.0</ele><time>2026-04-12T09:14:23Z</time></trkpt><trkpt lat="43.64201648362992" lon="6.6504901131283995"><ele>481.0</ele><time>2026-04-12T09:14:24Z</time></trkpt><trkpt lat="43.641894279859606" lon="6.6505307801900395"><ele>477.75</ele><time>2026-04-12T09:14:25Z</time></trkpt><trkpt lat="43.64177096206834" lon="6.650570616517546"><ele>474.5</ele><time>2026-04-12T09:14:26Z</time></trkpt><trkpt lat="43.64165572665266" lon="6.650608806153527"><ele>471.25</ele><time>2026-04-12T09:14:27Z</time></trkpt><trkpt lat="43.64154843690592" lon="6.650638722560539"><ele>468.0</ele><time>2026-04-12T09:14:28Z</time></trkpt><trkpt lat="43.64144184214317" lon="6.650658132422646"><ele>468.0</ele><time>2026-04-12T09:14:29Z</time></trkpt><trkpt lat="43.641350210345514" lon="6.650657353838989"><ele>468.0</ele><time>2026-04-12T09:14:30Z</time></trkpt><trkpt lat="43.64126715241218" lon="6.650628985568295"><ele>468.0</ele><time>2026-04-12T09:14:31Z</time></trkpt><trkpt lat="43.6411899475301" lon="6.650603868076513"><ele>468.0</ele><time>2026-04-12T09:14:32Z</time></trkpt><trkpt lat="43.64111264404806" lon="6.6506120016097015"><ele>468.0</ele><time>2026-04-12T09:14:33Z</time></trkpt><trkpt lat="43.64104016272927" lon="6.650666974707989"><ele>468.0</ele><time>2026-04-12T09:14:34Z</time></trkpt><trkpt lat="43.640983191503054" lon="6.6507443881200565"><ele>464.2</ele><time>2026-04-12T09:14:35Z</time></trkpt><trkpt lat="43.64095215796204" lon="6.650855545971268"><ele>460.4</ele><time>2026-04-12T09:14:36Z</time></trkpt><trkpt lat="43.64094969269679" lon="6.650979394352735"><ele>456.59999999999997</ele><time>2026-04-12T09:14:37Z</time></trkpt><trkpt lat="43.64095412955463" lon="6.65110522383913"><ele>452.79999999999995</ele><time>2026-04-12T09:14:38Z</time></trkpt><trkpt lat="43.64095464951955" lon="6.651234176774291"><ele>449.0</ele><time>2026-04-12T09:14:39Z</time></trkpt><trkpt lat="43.640950241278226" lon="6.651368098448826"><ele>449.0</ele><time>2026-04-12T09:14:40Z</time></trkpt><trkpt lat="43.640938510427866" lon="6.65150658304905"><ele>449.0</ele><time>2026-04-12T09:14:41Z</time></trkpt><trkpt lat="43.64091993970881" lon="6.651649204310266"><ele>449.0</ele><time>2026-04-12T09:14:42Z</time></trkpt><trkpt lat="43.64089398338982" lon="6.651791501063163"><ele>449.0</ele><time>2026-04-12T09:14:43Z</time></trkpt><trkpt lat="43.64086886910729" lon="6.651929250475732"><ele>449.0</ele><time>2026-04-12T09:14:44Z</time></trkpt><trkpt lat="43.64084393518352" lon="6.652058507222226"><ele>450.4</ele><time>2026-04-12T09:14:45Z</time></trkpt><trkpt lat="43.64081139445928" lon="6.6521813509637635"><ele>451.79999999999995</ele><time>2026-04-12T09:14:46Z</time></trkpt><trkpt lat="43.640754320019425" lon="6.652289216537657"><ele>453.20000000000005</ele><time>2026-04-12T09:14:47Z</time></trkpt><trkpt lat="43.64068337544627" lon="6.652373734077406"><ele>454.6</ele><time>2026-04-12T09:14:48Z</time></trkpt><trkpt lat="43.64060109957013" lon="6.652429542279841"><ele>456.0</ele><time>2026-04-12T09:14:49Z</time></trkpt><trkpt lat="43.64050835765483" lon="6.652460139614268"><ele>456.0</ele><time>2026-04-12T09:14:50Z</time></trkpt><trkpt lat="43.640415784917245" lon="6.652497392455431"><ele>456.0</ele><time>2026-04-12T09:14:51Z</time></trkpt><trkpt lat="43.64031959854937" lon="6.652533912211713"><ele>456.0</ele><time>2026-04-12T09:14:52Z</time></trkpt><trkpt lat="43.64022263001461" lon="6.6525735291624875"><ele>456.0</ele><time>2026-04-12T09:14:53Z</time></trkpt><trkpt lat="43.64012357804525" lon="6.652620474812893"><ele>456.0</ele><time>2026-04-12T09:14:54Z</time></trkpt><trkpt lat="43.640023320703854" lon="6.6526735827104515"><ele>454.25</ele><time>2026-04-12T09:14:55Z</time></trkpt><trkpt lat="43.63992061489067" lon="6.652729403610914"><ele>452.5</ele><time>2026-04-12T09:14:56Z</time></trkpt><trkpt lat="43.639815650760546" lon="6.652784403090604"><ele>450.75</ele><time>2026-04-12T09:14:57Z</time></trkpt><trkpt lat="43.63971049324385" lon="6.652844613556548"><ele>449.0</ele><time>2026-04-12T09:14:58Z</time></trkpt><trkpt lat="43.639608373140106" lon="6.6529169324052955"><ele>449.0</ele><time>2026-04-12T09:14:59Z</time></trkpt><trkpt lat="43.63951605502646" lon="6.653010713112142"><ele>449.0</ele><time>2026-04-12T09:15:00Z</time></trkpt><trkpt lat="43.6394353451785" lon="6.653123131740355"><ele>449.0</ele><time>2026-04-12T09:15:01Z</time></trkpt><trkpt lat="43.639371946484765" lon="6.653222221219295"><ele>449.0</ele><time>2026-04-12T09:15:02Z</time></trkpt><trkpt lat="43.639323283673704" lon="6.653315335613277"><ele>449.0</ele><time>2026-04-12T09:15:03Z</time></trkpt><trkpt lat="43.639285132405355" lon="6.653412307963125"><ele>447.99999999999994</ele><time>2026-04-12T09:15:04Z</time></trkpt><trkpt lat="43.63927239125942" lon="6.65352472594872"><ele>447.0</ele><time>2026-04-12T09:15:05Z</time></trkpt><trkpt lat="43.639291764891844" lon="6.653642729013439"><ele>446.0</ele><time>2026-04-12T09:15:06Z</time></trkpt><trkpt lat="43.63933645898539" lon="6.65374934227445"><ele>445.0</ele><time>2026-04-12T09:15:07Z</time></trkpt><trkpt lat="43.63939526970558" lon="6.65383835893473"><ele>443.99999999999994</ele><time>2026-04-12T09:15:08Z</time></trkpt><trkpt lat="43.639448989178085" lon="6.653920645084634"><ele>443.0</ele><time>2026-04-12T09:15:09Z</time></trkpt><trkpt lat="43.63948181407388" lon="6.6540044306857125"><ele>443.0</ele><time>2026-04-12T09:15:10Z</time></trkpt><trkpt lat="43.63948731482469" lon="6.65410461857382"><ele>443.0</ele><time>2026-04-12T09:15:11Z</time></trkpt><trkpt lat="43.63945273094229" lon="6.654199283913978"><ele>443.0</ele><time>2026-04-12T09:15:12Z</time></trkpt><trkpt lat="43.6393891568947" lon="6.654253777052054"><ele>443.0</ele><time>2026-04-12T09:15:13Z</time></trkpt><trkpt lat="43.639321252504644" lon="6.654258637632149"><ele>443.0</ele><time>2026-04-12T09:15:14Z</time></trkpt><trkpt lat="43.63926193873374" lon="6.654205121541491"><ele>443.0</ele><time>2026-04-12T09:15:15Z</time></trkpt><trkpt lat="43.63921949234076" lon="6.654113943707578"><ele>443.0</ele><time>2026-04-12T09:15:16Z</time></trkpt><trkpt lat="43.63917203136106" lon="6.654030206074705"><ele>440.2</ele><time>2026-04-12T09:15:17Z</time></trkpt><trkpt lat="43.639118523116785" lon="6.6539434220087275"><ele>437.4</ele><time>2026-04-12T09:15:18Z</time></trkpt><trkpt lat="43.6390635229216" lon="6.653849951853763"><ele>434.59999999999997</ele><time>2026-04-12T09:15:19Z</time></trkpt><trkpt lat="43.63900840225316" lon="6.653751305420159"><ele>431.79999999999995</ele><time>2026-04-12T09:15:20Z</time></trkpt><trkpt lat="43.63894976897617" lon="6.653650206026851"><ele>429.0</ele><time>2026-04-12T09:15:21Z</time></trkpt><trkpt lat="43.638886822414314" lon="6.6535497596213915"><ele>429.0</ele><time>2026-04-12T09:15:22Z</time></trkpt><trkpt lat="43.638831120322756" lon="6.653433114446824"><ele>429.0</ele><time>2026-04-12T09:15:23Z</time></trkpt><trkpt lat="43.63878446660392" lon="6.65330806673942"><ele>429.0</ele><time>2026-04-12T09:15:24Z</time></trkpt><trkpt lat="43.63874417961109" lon="6.653195437625956"><ele>429.0</ele><time>2026-04-12T09:15:25Z</time></trkpt><trkpt lat="43.638709048004756" lon="6.653101212340125"><ele>429.0</ele><time>2026-04-12T09:15:26Z</time></trkpt><trkpt lat="43.63868018269359" lon="6.653011062072543"><ele>429.0</ele><time>2026-04-12T09:15:27Z</time></trkpt><trkpt lat="43.63866795490239" lon="6.652915790487069"><ele>429.0</ele><time>2026-04-12T09:15:28Z</time></trkpt><trkpt lat="43.63868369772792" lon="6.652824008248955"><ele>429.0</ele><time>2026-04-12T09:15:29Z</time></trkpt><trkpt lat="43.63872074834901" lon="6.652739598470454"><ele>429.0</ele><time>2026-04-12T09:15:30Z</time></trkpt><trkpt lat="43.63877599588074" lon="6.6526635161891"><ele>429.0</ele><time>2026-04-12T09:15:31Z</time></trkpt><trkpt lat="43.63884329184905" lon="6.652596880140712"><ele>429.0</ele><time>2026-04-12T09:15:32Z</time></trkpt><trkpt lat="43.63891499620538" lon="6.652534267580934"><ele>429.0</ele><time>2026-04-12T09:15:33Z</time></trkpt><trkpt lat="43.63898784366739" lon="6.652465547391248"><ele>427.8333333333333</ele><time>2026-04-12T09:15:34Z</time></trkpt><trkpt lat="43.63905997183102" lon="6.652388585542933"><ele>426.66666666666663</ele><time>2026-04-12T09:15:35Z</time></trkpt><trkpt lat="43.639128405258894" lon="6.652307886651679"><ele>425.5</ele><time>2026-04-12T09:15:36Z</time></trkpt><trkpt lat="43.63919740760047" lon="6.652235939756537"><ele>424.3333333333333</ele><time>2026-04-12T09:15:37Z</time></trkpt><trkpt lat="43.63926363096787" lon="6.652162543435366"><ele>423.16666666666663</ele><time>2026-04-12T09:15:38Z</time></trkpt><trkpt lat="43.63931817006062" lon="6.652078120468383"><ele>422.0</ele><time>2026-04-12T09:15:39Z</time></trkpt><trkpt lat="43.63935847619869" lon="6.651970000113265"><ele>419.40000000000003</ele><time>2026-04-12T09:15:40Z</time></trkpt><trkpt lat="43.63938484600394" lon="6.651854663324813"><ele>416.8</ele><time>2026-04-12T09:15:41Z</time></trkpt><trkpt lat="43.639392594238885" lon="6.65173036489742"><ele>414.2</ele><time>2026-04-12T09:15:42Z</time></trkpt><trkpt lat="43.639377274905364" lon="6.651596893696914"><ele>411.6</ele><time>2026-04-12T09:15:43Z</time></trkpt><trkpt lat="43.63935231027324" lon="6.651461691314235"><ele>409.0</ele><time>2026-04-12T09:15:44Z</time></trkpt><trkpt lat="43.6393361322574" lon="6.651322665439232"><ele>409.0</ele><time>2026-04-12T09:15:45Z</time></trkpt><trkpt lat="43.63932594037613" lon="6.651181645459724"><ele>409.0</ele><time>2026-04-12T09:15:46Z</time></trkpt><trkpt lat="43.639311359065594" lon="6.651037698447396"><ele>409.0</ele><time>2026-04-12T09:15:47Z</time></trkpt><trkpt lat="43.63929682451499" lon="6.650895760733032"><ele>409.0</ele><time>2026-04-12T09:15:48Z</time></trkpt><trkpt lat="43.63927995258926" lon="6.650761953176025"><ele>409.0</ele><time>2026-04-12T09:15:49Z</time></trkpt><trkpt lat="43.63926673161982" lon="6.650632106626471"><ele>407.79999999999995</ele><time>2026-04-12T09:15:50Z</time></trkpt><trkpt lat="43.639264884240575" lon="6.650502834381413"><ele>406.59999999999997</ele><time>2026-04-12T09:15:51Z</time></trkpt><trkpt lat="43.63927069170384" lon="6.6503743068969055"><ele>405.4</ele><time>2026-04-12T09:15:52Z</time></trkpt><trkpt lat="43.63927834201497" lon="6.6502379464"><ele>404.2</ele><time>2026-04-12T09:15:53Z</time></trkpt><trkpt lat="43.63928902659442" lon="6.65009964078843"><ele>403.0</ele><time>2026-04-12T09:15:54Z</time></trkpt><trkpt lat="43.63931071499424" lon="6.64996133721903"><ele>402.0</ele><time>2026-04-12T09:15:55Z</time></trkpt><trkpt lat="43.63933875493586" lon="6.649823994066653"><ele>401.0</ele><time>2026-04-12T09:15:56Z</time></trkpt><trkpt lat="43.639362848377125" lon="6.64969149759251"><ele>400.0</ele><time>2026-04-12T09:15:57Z</time></trkpt><trkpt lat="43.639386912353224" lon="6.649569496998976"><ele>399.0</ele><time>2026-04-12T09:15:58Z</time></trkpt><trkpt lat="43.63940965803097" lon="6.649454777068572"><ele>398.0</ele><time>2026-04-12T09:15:59Z</time></trkpt><trkpt lat="43.63942176077659" lon="6.649355141144908"><ele>397.99999999999994</ele><time>2026-04-12T09:16:00Z</time></trkpt><trkpt lat="43.639408897478305" lon="6.649255732839073"><ele>398.0</ele><time>2026-04-12T09:16:01Z</time></trkpt><trkpt lat="43.63936136491577" lon="6.649161672910044"><ele>398.0</ele><time>2026-04-12T09:16:02Z</time></trkpt><trkpt lat="43.639296556013285" lon="6.649084873490215"><ele>398.0</ele><time>2026-04-12T09:16:03Z</time></trkpt><trkpt lat="43.63924297783571" lon="6.649000953529492"><ele>397.99999999999994</ele><time>2026-04-12T09:16:04Z</time></trkpt><trkpt lat="43.63918436471577" lon="6.648917881996247"><ele>398.0</ele><time>2026-04-12T09:16:05Z</time></trkpt><trkpt lat="43.63912243497745" lon="6.648843928111447"><ele>397.99999999999994</ele><time>2026-04-12T09:16:06Z</time></trkpt><trkpt lat="43.639055235836906" lon="6.648792219579555"><ele>398.0</ele><time>2026-04-12T09:16:07Z</time></trkpt><trkpt lat="43.638983198096085" lon="6.648765427040259"><ele>398.0</ele><time>2026-04-12T09:16:08Z</time></trkpt><trkpt lat="43.63891013455203" lon="6.648740730410275"><ele>398.0</ele><time>2026-04-12T09:16:09Z</time></trkpt><trkpt lat="43.63884619090167" lon="6.6486747168946705"><ele>397.99999999999994</ele><time>2026-04-12T09:16:10Z</time></trkpt><trkpt lat="43.63879246830474" lon="6.648593425657369"><ele>398.0</ele><time>2026-04-12T09:16:11Z</time></trkpt><trkpt lat="43.63874091594858" lon="6.648510072255955"><ele>397.49999999999994</ele><time>2026-04-12T09:16:12Z</time></trkpt><trkpt lat="43.6386874259762" lon="6.648427214393511"><ele>397.0</ele><time>2026-04-12T09:16:13Z</time></trkpt><trkpt lat="43.63863406246547" lon="6.648339668102966"><ele>396.5</ele><time>2026-04-12T09:16:14Z</time></trkpt><trkpt lat="43.63858249828075" lon="6.648246868197656"><ele>396.0</ele><time>2026-04-12T09:16:15Z</time></trkpt><trkpt lat="43.63853117676007" lon="6.648145129891213"><ele>395.49999999999994</ele><time>2026-04-12T09:16:16Z</time></trkpt><trkpt lat="43.63847869180045" lon="6.648039059388157"><ele>395.0</ele><time>2026-04-12T09:16:17Z</time></trkpt><trkpt lat="43.63842675874209" lon="6.647926258591935"><ele>395.0</ele><time>2026-04-12T09:16:18Z</time></trkpt><trkpt lat="43.638377547366915" lon="6.647808021159985"><ele>395.0</ele><time>2026-04-12T09:16:19Z</time></trkpt><trkpt lat="43.638332303654245" lon="6.647686905739579"><ele>395.0</ele><time>2026-04-12T09:16:20Z</time></trkpt><trkpt lat="43.63828151400591" lon="6.647580025364417"><ele>395.0</ele><time>2026-04-12T09:16:21Z</time></trkpt><trkpt lat="43.63822876480272" lon="6.647489555136901"><ele>395.0</ele><time>2026-04-12T09:16:22Z</time></trkpt><trkpt lat="43.638177291850965" lon="6.647407857443578"><ele>394.49999999999994</ele><time>2026-04-12T09:16:23Z</time></trkpt><trkpt lat="43.63811201195939" lon="6.647290297373776"><ele>394.0</ele><time>2026-04-12T09:16:25Z</time></trkpt><trkpt lat="43.63801403839392" lon="6.647288764614171"><ele>393.5</ele><time>2026-04-12T09:16:27Z</time></trkpt><trkpt lat="43.637957532848176" lon="6.647351906249659"><ele>393.0</ele><time>2026-04-12T09:16:28Z</time></trkpt><trkpt lat="43.63789470208142" lon="6.647408085577758"><ele>392.49999999999994</ele><time>2026-04-12T09:16:29Z</time></trkpt><trkpt lat="43.63781503424092" lon="6.6474486287230725"><ele>392.0</ele><time>2026-04-12T09:16:30Z</time></trkpt><trkpt lat="43.63772344421339" lon="6.647476219680686"><ele>389.8</ele><time>2026-04-12T09:16:31Z</time></trkpt><trkpt lat="43.637625746029734" lon="6.647499267724342"><ele>387.6</ele><time>2026-04-12T09:16:32Z</time></trkpt><trkpt lat="43.63752991241276" lon="6.647519205617412"><ele>385.40000000000003</ele><time>2026-04-12T09:16:33Z</time></trkpt><trkpt lat="43.63744241104761" lon="6.64753149069221"><ele>383.20000000000005</ele><time>2026-04-12T09:16:34Z</time></trkpt><trkpt lat="43.637359763781" lon="6.647554564723487"><ele>381.0</ele><time>2026-04-12T09:16:35Z</time></trkpt><trkpt lat="43.637264061417106" lon="6.647572894743069"><ele>381.0</ele><time>2026-04-12T09:16:36Z</time></trkpt><trkpt lat="43.63716121995573" lon="6.647572152308371"><ele>381.0</ele><time>2026-04-12T09:16:37Z</time></trkpt><trkpt lat="43.6370541273986" lon="6.647563747197981"><ele>381.0</ele><time>2026-04-12T09:16:38Z</time></trkpt><trkpt lat="43.63694585394958" lon="6.6475521096592605"><ele>381.0</ele><time>2026-04-12T09:16:39Z</time></trkpt><trkpt lat="43.63683615307767" lon="6.647541828103756"><ele>381.0</ele><time>2026-04-12T09:16:40Z</time></trkpt><trkpt lat="43.63672516308036" lon="6.647526609503889"><ele>379.8</ele><time>2026-04-12T09:16:41Z</time></trkpt><trkpt lat="43.636612506981876" lon="6.647528620315758"><ele>378.6</ele><time>2026-04-12T09:16:42Z</time></trkpt><trkpt lat="43.63650550906654" lon="6.647523804192154"><ele>377.4</ele><time>2026-04-12T09:16:43Z</time></trkpt><trkpt lat="43.636410712790855" lon="6.647512458347004"><ele>376.2</ele><time>2026-04-12T09:16:44Z</time></trkpt><trkpt lat="43.636321183288196" lon="6.647509783768334"><ele>375.0</ele><time>2026-04-12T09:16:45Z</time></trkpt><trkpt lat="43.63623560361888" lon="6.647512689780128"><ele>375.0</ele><time>2026-04-12T09:16:46Z</time></trkpt><trkpt lat="43.63615220955365" lon="6.647532265672535"><ele>375.0</ele><time>2026-04-12T09:16:47Z</time></trkpt><trkpt lat="43.63607747598646" lon="6.647593031379154"><ele>375.0</ele><time>2026-04-12T09:16:48Z</time></trkpt><trkpt lat="43.63601906669381" lon="6.647692488456936"><ele>375.0</ele><time>2026-04-12T09:16:49Z</time></trkpt><trkpt lat="43.63597930914434" lon="6.647815612003021"><ele>375.0</ele><time>2026-04-12T09:16:50Z</time></trkpt><trkpt lat="43.63595145241854" lon="6.647949044015216"><ele>373.6</ele><time>2026-04-12T09:16:51Z</time></trkpt><trkpt lat="43.63592166773432" lon="6.648084044579757"><ele>372.2</ele><time>2026-04-12T09:16:52Z</time></trkpt><trkpt lat="43.63587722549229" lon="6.6482147568189225"><ele>370.79999999999995</ele><time>2026-04-12T09:16:53Z</time></trkpt><trkpt lat="43.63580402035248" lon="6.648327771174963"><ele>369.4</ele><time>2026-04-12T09:16:54Z</time></trkpt><trkpt lat="43.63571199211022" lon="6.64841001718347"><ele>368.0</ele><time>2026-04-12T09:16:55Z</time></trkpt><trkpt lat="43.635614091658944" lon="6.648479293473574"><ele>368.0</ele><time>2026-04-12T09:16:56Z</time></trkpt><trkpt lat="43.63551741046379" lon="6.648557590447304"><ele>368.0</ele><time>2026-04-12T09:16:57Z</time></trkpt><trkpt lat="43.635419520806266" lon="6.64863381930187"><ele>368.0</ele><time>2026-04-12T09:16:58Z</time></trkpt><trkpt lat="43.635318305253094" lon="6.64870985375562"><ele>368.0</ele><time>2026-04-12T09:16:59Z</time></trkpt><trkpt lat="43.6352171934383" lon="6.64879123512189"><ele>366.0</ele><time>2026-04-12T09:17:00Z</time></trkpt><trkpt lat="43.6351163875525" lon="6.64888019389347"><ele>364.0</ele><time>2026-04-12T09:17:01Z</time></trkpt><trkpt lat="43.635019904738044" lon="6.648978152879978"><ele>362.0</ele><time>2026-04-12T09:17:02Z</time></trkpt><trkpt lat="43.63492942049003" lon="6.64909015329912"><ele>360.0</ele><time>2026-04-12T09:17:03Z</time></trkpt><trkpt lat="43.634847635150194" lon="6.6492118774761835"><ele>360.0</ele><time>2026-04-12T09:17:04Z</time></trkpt><trkpt lat="43.634766475051585" lon="6.649336078610816"><ele>360.0</ele><time>2026-04-12T09:17:05Z</time></trkpt><trkpt lat="43.63468471072087" lon="6.649460449106798"><ele>360.0</ele><time>2026-04-12T09:17:06Z</time></trkpt><trkpt lat="43.6346040322751" lon="6.649585538223875"><ele>360.0</ele><time>2026-04-12T09:17:07Z</time></trkpt><trkpt lat="43.63452653664626" lon="6.649706719201581"><ele>359.0</ele><time>2026-04-12T09:17:08Z</time></trkpt><trkpt lat="43.634453998908995" lon="6.649821312763371"><ele>358.0</ele><time>2026-04-12T09:17:09Z</time></trkpt><trkpt lat="43.63438993529313" lon="6.649932390697027"><ele>357.0</ele><time>2026-04-12T09:17:10Z</time></trkpt><trkpt lat="43.634336075396426" lon="6.650044955928533"><ele>356.0</ele><time>2026-04-12T09:17:11Z</time></trkpt><trkpt lat="43.63429455130943" lon="6.650163939729108"><ele>355.0</ele><time>2026-04-12T09:17:12Z</time></trkpt><trkpt lat="43.63425365472826" lon="6.6502897912849575"><ele>354.6</ele><time>2026-04-12T09:17:13Z</time></trkpt><trkpt lat="43.63421707958731" lon="6.650416763087795"><ele>354.2</ele><time>2026-04-12T09:17:14Z</time></trkpt><trkpt lat="43.63417767631965" lon="6.650527199466639"><ele>353.79999999999995</ele><time>2026-04-12T09:17:15Z</time></trkpt><trkpt lat="43.63408875148121" lon="6.6506416071107095"><ele>353.4</ele><time>2026-04-12T09:17:17Z</time></trkpt><trkpt lat="43.63400974068491" lon="6.650626686330937"><ele>353.0</ele><time>2026-04-12T09:17:18Z</time></trkpt><trkpt lat="43.6339416604168" lon="6.650563209599719"><ele>353.0</ele><time>2026-04-12T09:17:19Z</time></trkpt><trkpt lat="43.633872842104424" lon="6.650506013272788"><ele>353.0</ele><time>2026-04-12T09:17:20Z</time></trkpt><trkpt lat="43.6337967804508" lon="6.650454062854408"><ele>353.0</ele><time>2026-04-12T09:17:21Z</time></trkpt><trkpt lat="43.633715710222276" lon="6.650400629563393"><ele>353.0</ele><time>2026-04-12T09:17:22Z</time></trkpt><trkpt lat="43.63363372755364" lon="6.6503405265251825"><ele>353.0</ele><time>2026-04-12T09:17:23Z</time></trkpt><trkpt lat="43.63355126742226" lon="6.650277353834623"><ele>353.0</ele><time>2026-04-12T09:17:24Z</time></trkpt><trkpt lat="43.633465197527784" lon="6.650215397914795"><ele>352.0</ele><time>2026-04-12T09:17:25Z</time></trkpt><trkpt lat="43.63337698150952" lon="6.650151954474642"><ele>351.0</ele><time>2026-04-12T09:17:26Z</time></trkpt><trkpt lat="43.63328761567061" lon="6.650085398296511"><ele>350.0</ele><time>2026-04-12T09:17:27Z</time></trkpt><trkpt lat="43.633197233126424" lon="6.650018551463827"><ele>349.0</ele><time>2026-04-12T09:17:28Z</time></trkpt><trkpt lat="43.63310459467566" lon="6.649949775174077"><ele>348.0</ele><time>2026-04-12T09:17:29Z</time></trkpt><trkpt lat="43.63300877296334" lon="6.649886621471248"><ele>348.0</ele><time>2026-04-12T09:17:30Z</time></trkpt><trkpt lat="43.63291262159771" lon="6.64982156969949"><ele>348.0</ele><time>2026-04-12T09:17:31Z</time></trkpt><trkpt lat="43.63281615357172" lon="6.6497521018152455"><ele>348.0</ele><time>2026-04-12T09:17:32Z</time></trkpt><trkpt lat="43.632717569418865" lon="6.649683318235899"><ele>348.0</ele><time>2026-04-12T09:17:33Z</time></trkpt><trkpt lat="43.63261788465403" lon="6.649612670092214"><ele>348.0</ele><time>2026-04-12T09:17:34Z</time></trkpt><trkpt lat="43.63251902956377" lon="6.649536567050481"><ele>347.0</ele><time>2026-04-12T09:17:35Z</time></trkpt><trkpt lat="43.63241730527499" lon="6.649462214453591"><ele>346.0</ele><time>2026-04-12T09:17:36Z</time></trkpt><trkpt lat="43.632312885123646" lon="6.649390368698407"><ele>345.0</ele><time>2026-04-12T09:17:37Z</time></trkpt><trkpt lat="43.63221149167383" lon="6.6493231281282155"><ele>344.0</ele><time>2026-04-12T09:17:38Z</time></trkpt><trkpt lat="43.6321094181183" lon="6.6492578900404045"><ele>344.0</ele><time>2026-04-12T09:17:39Z</time></trkpt><trkpt lat="43.632009970973016" lon="6.649187723171705"><ele>344.0</ele><time>2026-04-12T09:17:40Z</time></trkpt><trkpt lat="43.63191626203062" lon="6.649117965367561"><ele>344.0</ele><time>2026-04-12T09:17:41Z</time></trkpt><trkpt lat="43.63182515048915" lon="6.649055443106964"><ele>344.0</ele><time>2026-04-12T09:17:42Z</time></trkpt><trkpt lat="43.63173109702779" lon="6.6490094861389695"><ele>344.0</ele><time>2026-04-12T09:17:43Z</time></trkpt><trkpt lat="43.63162957960091" lon="6.648997157828537"><ele>343.2</ele><time>2026-04-12T09:17:44Z</time></trkpt><trkpt lat="43.63153129793904" lon="6.649008099716779"><ele>342.4</ele><time>2026-04-12T09:17:45Z</time></trkpt><trkpt lat="43.631438654939856" lon="6.649021583830952"><ele>341.6</ele><time>2026-04-12T09:17:46Z</time></trkpt><trkpt lat="43.63135096505569" lon="6.649050282235389"><ele>340.8</ele><time>2026-04-12T09:17:47Z</time></trkpt><trkpt lat="43.63128025290158" lon="6.6491217712124895"><ele>340.0</ele><time>2026-04-12T09:17:48Z</time></trkpt><trkpt lat="43.63123317459585" lon="6.649218108615072"><ele>340.0</ele><time>2026-04-12T09:17:49Z</time></trkpt><trkpt lat="43.63120401152812" lon="6.649317535672955"><ele>340.0</ele><time>2026-04-12T09:17:50Z</time></trkpt><trkpt lat="43.63118453103233" lon="6.649412594064525"><ele>340.0</ele><time>2026-04-12T09:17:51Z</time></trkpt><trkpt lat="43.631156878147145" lon="6.649501249608194"><ele>340.0</ele><time>2026-04-12T09:17:52Z</time></trkpt><trkpt lat="43.63111747040851" lon="6.64958264292162"><ele>340.0</ele><time>2026-04-12T09:17:53Z</time></trkpt><trkpt lat="43.63107179155814" lon="6.649658020536085"><ele>340.0</ele><time>2026-04-12T09:17:54Z</time></trkpt><trkpt lat="43.63102202907579" lon="6.64972612722447"><ele>340.0</ele><time>2026-04-12T09:17:55Z</time></trkpt><trkpt lat="43.63096732017631" lon="6.649784212269539"><ele>340.14285714285717</ele><time>2026-04-12T09:17:56Z</time></trkpt><trkpt lat="43.630909838020585" lon="6.649834230184775"><ele>340.2857142857143</ele><time>2026-04-12T09:17:57Z</time></trkpt><trkpt lat="43.63085215801676" lon="6.649879732718579"><ele>340.42857142857144</ele><time>2026-04-12T09:17:58Z</time></trkpt><trkpt lat="43.63079000837661" lon="6.649919999924917"><ele>340.57142857142856</ele><time>2026-04-12T09:17:59Z</time></trkpt><trkpt lat="43.63072651921123" lon="6.649954507782318"><ele>340.7142857142857</ele><time>2026-04-12T09:18:00Z</time></trkpt><trkpt lat="43.630660992559136" lon="6.649980976935533"><ele>340.85714285714283</ele><time>2026-04-12T09:18:01Z</time></trkpt><trkpt lat="43.63059231505503" lon="6.649994716073649"><ele>341.0</ele><time>2026-04-12T09:18:02Z</time></trkpt><trkpt lat="43.63052133806594" lon="6.64999468454179"><ele>341.0</ele><time>2026-04-12T09:18:03Z</time></trkpt><trkpt lat="43.63044933918983" lon="6.649985509831115"><ele>341.0</ele><time>2026-04-12T09:18:04Z</time></trkpt><trkpt lat="43.63037746598085" lon="6.649974711035125"><ele>341.0</ele><time>2026-04-12T09:18:05Z</time></trkpt><trkpt lat="43.63030536345535" lon="6.6499493624950485"><ele>341.0</ele><time>2026-04-12T09:18:06Z</time></trkpt><trkpt lat="43.630231960541" lon="6.64991775324456"><ele>341.0</ele><time>2026-04-12T09:18:07Z</time></trkpt><trkpt lat="43.630156755288745" lon="6.649883198017325"><ele>341.0</ele><time>2026-04-12T09:18:08Z</time></trkpt><trkpt lat="43.630078211556494" lon="6.6498517068577145"><ele>341.0</ele><time>2026-04-12T09:18:09Z</time></trkpt><trkpt lat="43.62999818560678" lon="6.649822845477431"><ele>341.0</ele><time>2026-04-12T09:18:10Z</time></trkpt><trkpt lat="43.62991687156992" lon="6.649796045190526"><ele>341.0</ele><time>2026-04-12T09:18:11Z</time></trkpt><trkpt lat="43.629834004247996" lon="6.64977126226126"><ele>341.0</ele><time>2026-04-12T09:18:12Z</time></trkpt><trkpt lat="43.62975009804916" lon="6.649744918582466"><ele>341.0</ele><time>2026-04-12T09:18:13Z</time></trkpt><trkpt lat="43.62966342511082" lon="6.649732993635214"><ele>341.0</ele><time>2026-04-12T09:18:14Z</time></trkpt><trkpt lat="43.62957430433864" lon="6.649742959730869"><ele>341.0</ele><time>2026-04-12T09:18:15Z</time></trkpt><trkpt lat="43.629484620123975" lon="6.649776366404709"><ele>341.0</ele><time>2026-04-12T09:18:16Z</time></trkpt><trkpt lat="43.62939951784929" lon="6.649823171690938"><ele>341.0</ele><time>2026-04-12T09:18:17Z</time></trkpt><trkpt lat="43.62931657668395" lon="6.6498767420095"><ele>341.0</ele><time>2026-04-12T09:18:18Z</time></trkpt><trkpt lat="43.62923534874719" lon="6.649931680059795"><ele>341.0</ele><time>2026-04-12T09:18:19Z</time></trkpt><trkpt lat="43.629155290148915" lon="6.649982459759119"><ele>341.0</ele><time>2026-04-12T09:18:20Z</time></trkpt><trkpt lat="43.629078912559564" lon="6.650038987288042"><ele>341.0</ele><time>2026-04-12T09:18:21Z</time></trkpt><trkpt lat="43.62901372534136" lon="6.650112458415532"><ele>341.0</ele><time>2026-04-12T09:18:22Z</time></trkpt><trkpt lat="43.62896197756046" lon="6.650198532650429"><ele>341.0</ele><time>2026-04-12T09:18:23Z</time></trkpt><trkpt lat="43.62891659295525" lon="6.65028616237947"><ele>341.0</ele><time>2026-04-12T09:18:24Z</time></trkpt><trkpt lat="43.628876228953" lon="6.650373343612624"><ele>341.0</ele><time>2026-04-12T09:18:25Z</time></trkpt><trkpt lat="43.628837759104464" lon="6.650458709388695"><ele>340.85714285714283</ele><time>2026-04-12T09:18:26Z</time></trkpt><trkpt lat="43.628801846474" lon="6.650541961253181"><ele>340.7142857142857</ele><time>2026-04-12T09:18:27Z</time></trkpt><trkpt lat="43.628763257719285" lon="6.650621019695403"><ele>340.57142857142856</ele><time>2026-04-12T09:18:28Z</time></trkpt><trkpt lat="43.62872163556133" lon="6.650696643677676"><ele>340.42857142857144</ele><time>2026-04-12T09:18:29Z</time></trkpt><trkpt lat="43.628670738636515" lon="6.650763974902926"><ele>340.2857142857143</ele><time>2026-04-12T09:18:30Z</time></trkpt><trkpt lat="43.62860688142747" lon="6.650815570213584"><ele>340.14285714285717</ele><time>2026-04-12T09:18:31Z</time></trkpt><trkpt lat="43.62852809957386" lon="6.650840842552868"><ele>340.0</ele><time>2026-04-12T09:18:32Z</time></trkpt><trkpt lat="43.62844302197977" lon="6.650836383036826"><ele>340.4</ele><time>2026-04-12T09:18:33Z</time></trkpt><trkpt lat="43.628356956366495" lon="6.650818091833992"><ele>340.8</ele><time>2026-04-12T09:18:34Z</time></trkpt><trkpt lat="43.62826963512635" lon="6.650802390891682"><ele>341.20000000000005</ele><time>2026-04-12T09:18:35Z</time></trkpt><trkpt lat="43.628179851563395" lon="6.650788138479542"><ele>341.6</ele><time>2026-04-12T09:18:36Z</time></trkpt><trkpt lat="43.62808750806789" lon="6.65077430220982"><ele>342.0</ele><time>2026-04-12T09:18:37Z</time></trkpt><trkpt lat="43.6279928011528" lon="6.65076418852778"><ele>342.0</ele><time>2026-04-12T09:18:38Z</time></trkpt><trkpt lat="43.627894599214436" lon="6.650752848192663"><ele>342.0</ele><time>2026-04-12T09:18:39Z</time></trkpt><trkpt lat="43.627795872852445" lon="6.650733290297012"><ele>342.0</ele><time>2026-04-12T09:18:40Z</time></trkpt><trkpt lat="43.62769567277744" lon="6.650706759401966"><ele>342.0</ele><time>2026-04-12T09:18:41Z</time></trkpt><trkpt lat="43.627593913545525" lon="6.65067974642359"><ele>342.0</ele><time>2026-04-12T09:18:42Z</time></trkpt><trkpt lat="43.62749168206944" lon="6.6506426246698425"><ele>340.40000000000003</ele><time>2026-04-12T09:18:43Z</time></trkpt><trkpt lat="43.62738807594982" lon="6.650608772210685"><ele>338.8</ele><time>2026-04-12T09:18:44Z</time></trkpt><trkpt lat="43.62728125622935" lon="6.650588356316744"><ele>337.2</ele><time>2026-04-12T09:18:45Z</time></trkpt><trkpt lat="43.627172264780825" lon="6.650591201535605"><ele>335.6</ele><time>2026-04-12T09:18:46Z</time></trkpt><trkpt lat="43.627063254811496" lon="6.650622310002046"><ele>334.0</ele><time>2026-04-12T09:18:47Z</time></trkpt><trkpt lat="43.6269570650301" lon="6.650660704555434"><ele>332.79999999999995</ele><time>2026-04-12T09:18:48Z</time></trkpt><trkpt lat="43.62685180339376" lon="6.650705009450786"><ele>331.59999999999997</ele><time>2026-04-12T09:18:49Z</time></trkpt><trkpt lat="43.626747645881856" lon="6.650741524191455"><ele>330.4</ele><time>2026-04-12T09:18:50Z</time></trkpt><trkpt lat="43.6266454707644" lon="6.6507794375666425"><ele>329.2</ele><time>2026-04-12T09:18:51Z</time></trkpt><trkpt lat="43.626543899192164" lon="6.650822461907588"><ele>328.0</ele><time>2026-04-12T09:18:52Z</time></trkpt><trkpt lat="43.6264455232787" lon="6.6508614259313"><ele>328.0</ele><time>2026-04-12T09:18:53Z</time></trkpt><trkpt lat="43.62634519982911" lon="6.650900553834276"><ele>328.0</ele><time>2026-04-12T09:18:54Z</time></trkpt><trkpt lat="43.62624600107607" lon="6.650939732404568"><ele>328.0</ele><time>2026-04-12T09:18:55Z</time></trkpt><trkpt lat="43.62614819142953" lon="6.650980503678767"><ele>328.0</ele><time>2026-04-12T09:18:56Z</time></trkpt><trkpt lat="43.626051912934166" lon="6.651026395620511"><ele>328.0</ele><time>2026-04-12T09:18:57Z</time></trkpt><trkpt lat="43.625957603873616" lon="6.651077586773876"><ele>328.0</ele><time>2026-04-12T09:18:58Z</time></trkpt><trkpt lat="43.6258670225903" lon="6.651132432204976"><ele>328.0</ele><time>2026-04-12T09:18:59Z</time></trkpt><trkpt lat="43.625780677383645" lon="6.651188096032586"><ele>328.0</ele><time>2026-04-12T09:19:00Z</time></trkpt><trkpt lat="43.625698676219365" lon="6.651244986448261"><ele>328.0</ele><time>2026-04-12T09:19:01Z</time></trkpt><trkpt lat="43.62562001052608" lon="6.651300353938812"><ele>328.0</ele><time>2026-04-12T09:19:02Z</time></trkpt><trkpt lat="43.62554438418493" lon="6.651357984710629"><ele>327.99999999999994</ele><time>2026-04-12T09:19:03Z</time></trkpt><trkpt lat="43.62547300642829" lon="6.651414484980193"><ele>328.0</ele><time>2026-04-12T09:19:04Z</time></trkpt><trkpt lat="43.625405568014074" lon="6.651468061054919"><ele>328.0</ele><time>2026-04-12T09:19:05Z</time></trkpt><trkpt lat="43.6253426719256" lon="6.651521360311285"><ele>328.0</ele><time>2026-04-12T09:19:06Z</time></trkpt><trkpt lat="43.62528383679841" lon="6.651575394169196"><ele>328.0</ele><time>2026-04-12T09:19:07Z</time></trkpt><trkpt lat="43.62522887042988" lon="6.651628300764054"><ele>327.99999999999994</ele><time>2026-04-12T09:19:08Z</time></trkpt><trkpt lat="43.62517921836849" lon="6.651682331009005"><ele>328.0</ele><time>2026-04-12T09:19:09Z</time></trkpt><trkpt lat="43.62508743293199" lon="6.651782754098805"><ele>329.0</ele><time>2026-04-12T09:19:11Z</time></trkpt><trkpt lat="43.62500471349809" lon="6.651884389769205"><ele>330.0</ele><time>2026-04-12T09:19:13Z</time></trkpt><trkpt lat="43.624928091272665" lon="6.651981794757135"><ele>331.0</ele><time>2026-04-12T09:19:15Z</time></trkpt><trkpt lat="43.62486340476595" lon="6.652080440962398"><ele>332.0</ele><time>2026-04-12T09:19:17Z</time></trkpt><trkpt lat="43.624802701628205" lon="6.6521671542327026"><ele>333.0</ele><time>2026-04-12T09:19:19Z</time></trkpt><trkpt lat="43.62474579372167" lon="6.652248246701006"><ele>333.0</ele><time>2026-04-12T09:19:21Z</time></trkpt><trkpt lat="43.62468748549314" lon="6.652325611548022"><ele>333.0</ele><time>2026-04-12T09:19:23Z</time></trkpt><trkpt lat="43.62462601775131" lon="6.6523986733732645"><ele>333.0</ele><time>2026-04-12T09:19:25Z</time></trkpt><trkpt lat="43.62457066694917" lon="6.652476748725761"><ele>333.0</ele><time>2026-04-12T09:19:27Z</time></trkpt><trkpt lat="43.624516266720235" lon="6.652550005916431"><ele>333.0</ele><time>2026-04-12T09:19:29Z</time></trkpt><trkpt lat="43.62446495257346" lon="6.652623788127691"><ele>333.0</ele><time>2026-04-12T09:19:31Z</time></trkpt><trkpt lat="43.62441400704939" lon="6.652698211017231"><ele>334.42857142857144</ele><time>2026-04-12T09:19:33Z</time></trkpt><trkpt lat="43.624359914613905" lon="6.652769111579681"><ele>335.85714285714283</ele><time>2026-04-12T09:19:35Z</time></trkpt><trkpt lat="43.62430893521755" lon="6.652845130296005"><ele>337.2857142857143</ele><time>2026-04-12T09:19:37Z</time></trkpt><trkpt lat="43.62425863100027" lon="6.6529171042909985"><ele>338.7142857142857</ele><time>2026-04-12T09:19:39Z</time></trkpt><trkpt lat="43.62421049677396" lon="6.652989897261682"><ele>340.1428571428571</ele><time>2026-04-12T09:19:41Z</time></trkpt><trkpt lat="43.62417491906786" lon="6.653069346790271"><ele>341.57142857142856</ele><time>2026-04-12T09:19:44Z</time></trkpt><trkpt lat="43.62414701586701" lon="6.6531500695494765"><ele>343.0</ele><time>2026-04-12T09:19:46Z</time></trkpt><trkpt lat="43.62409039644751" lon="6.6532810031134435"><ele>343.0</ele><time>2026-04-12T09:19:48Z</time></trkpt><trkpt lat="43.624036951258184" lon="6.653379269217507"><ele>343.0</ele><time>2026-04-12T09:19:50Z</time></trkpt><trkpt lat="43.623985192499056" lon="6.653464629758245"><ele>343.0</ele><time>2026-04-12T09:19:52Z</time></trkpt><trkpt lat="43.623928502923725" lon="6.653547277330622"><ele>343.0</ele><time>2026-04-12T09:19:54Z</time></trkpt><trkpt lat="43.62386328140945" lon="6.653622451788911"><ele>343.0</ele><time>2026-04-12T09:19:56Z</time></trkpt><trkpt lat="43.62377986254554" lon="6.653684308358289"><ele>343.0</ele><time>2026-04-12T09:19:58Z</time></trkpt><trkpt lat="43.62367132873096" lon="6.653710896287827"><ele>342.7142857142857</ele><time>2026-04-12T09:20:00Z</time></trkpt><trkpt lat="43.623608288681794" lon="6.653710182696759"><ele>342.42857142857144</ele><time>2026-04-12T09:20:01Z</time></trkpt><trkpt lat="43.62354255953055" lon="6.653696281888755"><ele>342.1428571428571</ele><time>2026-04-12T09:20:02Z</time></trkpt><trkpt lat="43.6234712984923" lon="6.653676174634326"><ele>341.8571428571429</ele><time>2026-04-12T09:20:03Z</time></trkpt><trkpt lat="43.6233963495411" lon="6.6536568829376925"><ele>341.57142857142856</ele><time>2026-04-12T09:20:04Z</time></trkpt><trkpt lat="43.62331661023195" lon="6.653640715937147"><ele>341.2857142857143</ele><time>2026-04-12T09:20:05Z</time></trkpt><trkpt lat="43.62323634461927" lon="6.653628111362004"><ele>341.0</ele><time>2026-04-12T09:20:06Z</time></trkpt><trkpt lat="43.62315587812488" lon="6.653624104166461"><ele>341.0</ele><time>2026-04-12T09:20:07Z</time></trkpt><trkpt lat="43.62307593694625" lon="6.6536304966258655"><ele>341.0</ele><time>2026-04-12T09:20:08Z</time></trkpt><trkpt lat="43.62299768281225" lon="6.653641601304047"><ele>341.0</ele><time>2026-04-12T09:20:09Z</time></trkpt><trkpt lat="43.622921416497135" lon="6.653656386290198"><ele>341.0</ele><time>2026-04-12T09:20:10Z</time></trkpt><trkpt lat="43.622846560474116" lon="6.653663302094637"><ele>341.0</ele><time>2026-04-12T09:20:11Z</time></trkpt><trkpt lat="43.622770857633085" lon="6.653675362606785"><ele>341.0</ele><time>2026-04-12T09:20:12Z</time></trkpt><trkpt lat="43.62269874589496" lon="6.653685528140377"><ele>341.33333333333337</ele><time>2026-04-12T09:20:13Z</time></trkpt><trkpt lat="43.622629474076255" lon="6.653697885847496"><ele>341.6666666666667</ele><time>2026-04-12T09:20:14Z</time></trkpt><trkpt lat="43.62256312673215" lon="6.653710464620343"><ele>342.0</ele><time>2026-04-12T09:20:15Z</time></trkpt><trkpt lat="43.62249693354716" lon="6.65371525423053"><ele>342.3333333333333</ele><time>2026-04-12T09:20:16Z</time></trkpt><trkpt lat="43.62237302195027" lon="6.6537338657679514"><ele>342.66666666666663</ele><time>2026-04-12T09:20:18Z</time></trkpt><trkpt lat="43.62225760154721" lon="6.65374611708906"><ele>343.0</ele><time>2026-04-12T09:20:20Z</time></trkpt><trkpt lat="43.622150585707416" lon="6.653760551235382"><ele>343.0</ele><time>2026-04-12T09:20:22Z</time></trkpt><trkpt lat="43.622043894261935" lon="6.653777169596975"><ele>343.0</ele><time>2026-04-12T09:20:24Z</time></trkpt><trkpt lat="43.62193654129689" lon="6.65379626118861"><ele>343.0</ele><time>2026-04-12T09:20:26Z</time></trkpt><trkpt lat="43.621830139207866" lon="6.653808268160296"><ele>343.0</ele><time>2026-04-12T09:20:28Z</time></trkpt><trkpt lat="43.621725907602546" lon="6.653819313146325"><ele>343.0</ele><time>2026-04-12T09:20:30Z</time></trkpt><trkpt lat="43.62162542216257" lon="6.653825192286737"><ele>343.2</ele><time>2026-04-12T09:20:32Z</time></trkpt><trkpt lat="43.62152993865878" lon="6.653832066998369"><ele>343.4</ele><time>2026-04-12T09:20:34Z</time></trkpt><trkpt lat="43.62143746907161" lon="6.653844022636941"><ele>343.59999999999997</ele><time>2026-04-12T09:20:36Z</time></trkpt><trkpt lat="43.62134700214352" lon="6.653849892826973"><ele>343.79999999999995</ele><time>2026-04-12T09:20:38Z</time></trkpt><trkpt lat="43.621256437762284" lon="6.653842487650247"><ele>344.0</ele><time>2026-04-12T09:20:40Z</time></trkpt><trkpt lat="43.62116587178101" lon="6.653837874116441"><ele>344.0</ele><time>2026-04-12T09:20:42Z</time></trkpt><trkpt lat="43.62107627911111" lon="6.6538353117912346"><ele>344.0</ele><time>2026-04-12T09:20:44Z</time></trkpt><trkpt lat="43.62098979878281" lon="6.653820305969555"><ele>344.0</ele><time>2026-04-12T09:20:46Z</time></trkpt><trkpt lat="43.62090586743463" lon="6.653795717195929"><ele>344.0</ele><time>2026-04-12T09:20:48Z</time></trkpt><trkpt lat="43.62082107897761" lon="6.653765679503611"><ele>344.0</ele><time>2026-04-12T09:20:50Z</time></trkpt><trkpt lat="43.62073516038366" lon="6.653733219326929"><ele>344.0</ele><time>2026-04-12T09:20:52Z</time></trkpt><trkpt lat="43.62064858485386" lon="6.653696971354572"><ele>344.0</ele><time>2026-04-12T09:20:54Z</time></trkpt><trkpt lat="43.62056006882329" lon="6.65366534481505"><ele>344.0</ele><time>2026-04-12T09:20:56Z</time></trkpt><trkpt lat="43.62046978329655" lon="6.653639355127798"><ele>344.0</ele><time>2026-04-12T09:20:58Z</time></trkpt><trkpt lat="43.62037735740105" lon="6.6536100072640165"><ele>344.0</ele><time>2026-04-12T09:21:00Z</time></trkpt><trkpt lat="43.62028140809179" lon="6.653574193829495"><ele>344.0</ele><time>2026-04-12T09:21:02Z</time></trkpt><trkpt lat="43.62018146289902" lon="6.653534829742026"><ele>344.6</ele><time>2026-04-12T09:21:04Z</time></trkpt><trkpt lat="43.620076872893314" lon="6.653502756736183"><ele>345.2</ele><time>2026-04-12T09:21:06Z</time></trkpt><trkpt lat="43.619972425824784" lon="6.6534585246764655"><ele>345.8</ele><time>2026-04-12T09:21:08Z</time></trkpt><trkpt lat="43.619869674704134" lon="6.6534018675913495"><ele>346.40000000000003</ele><time>2026-04-12T09:21:10Z</time></trkpt><trkpt lat="43.619767725423735" lon="6.653329359565921"><ele>347.0</ele><time>2026-04-12T09:21:12Z</time></trkpt><trkpt lat="43.61966602769302" lon="6.653246397535514"><ele>347.0</ele><time>2026-04-12T09:21:14Z</time></trkpt><trkpt lat="43.619562272416125" lon="6.653157326953764"><ele>347.0</ele><time>2026-04-12T09:21:16Z</time></trkpt><trkpt lat="43.61950986828757" lon="6.653107186957238"><ele>347.0</ele><time>2026-04-12T09:21:17Z</time></trkpt><trkpt lat="43.61945361385151" lon="6.653053603900332"><ele>347.0</ele><time>2026-04-12T09:21:18Z</time></trkpt><trkpt lat="43.619395334422634" lon="6.653000557973651"><ele>347.0</ele><time>2026-04-12T09:21:19Z</time></trkpt><trkpt lat="43.61933621332235" lon="6.6529475797748665"><ele>347.0</ele><time>2026-04-12T09:21:20Z</time></trkpt><trkpt lat="43.61927513331723" lon="6.65289602269286"><ele>346.83333333333337</ele><time>2026-04-12T09:21:21Z</time></trkpt><trkpt lat="43.61921209071746" lon="6.652844448468423"><ele>346.6666666666667</ele><time>2026-04-12T09:21:22Z</time></trkpt><trkpt lat="43.61915050259536" lon="6.652786457932138"><ele>346.5</ele><time>2026-04-12T09:21:23Z</time></trkpt><trkpt lat="43.61908859115488" lon="6.652728419963063"><ele>346.3333333333333</ele><time>2026-04-12T09:21:24Z</time></trkpt><trkpt lat="43.6190247273008" lon="6.652670570240105"><ele>346.16666666666663</ele><time>2026-04-12T09:21:25Z</time></trkpt><trkpt lat="43.61896226905674" lon="6.6526111653817726"><ele>346.0</ele><time>2026-04-12T09:21:26Z</time></trkpt><trkpt lat="43.61890076206485" lon="6.652550644446456"><ele>346.0</ele><time>2026-04-12T09:21:27Z</time></trkpt><trkpt lat="43.618839912706655" lon="6.652488427915754"><ele>346.0</ele><time>2026-04-12T09:21:28Z</time></trkpt><trkpt lat="43.61877850785131" lon="6.65242887502986"><ele>346.0</ele><time>2026-04-12T09:21:29Z</time></trkpt><trkpt lat="43.61871672219631" lon="6.652371027742384"><ele>346.0</ele><time>2026-04-12T09:21:30Z</time></trkpt><trkpt lat="43.61865311137322" lon="6.6523166288139794"><ele>346.0</ele><time>2026-04-12T09:21:31Z</time></trkpt><trkpt lat="43.61858637043876" lon="6.65226811927452"><ele>346.0</ele><time>2026-04-12T09:21:32Z</time></trkpt><trkpt lat="43.61851803232442" lon="6.652222541416398"><ele>345.3333333333333</ele><time>2026-04-12T09:21:33Z</time></trkpt><trkpt lat="43.618447552018885" lon="6.65217756676129"><ele>344.66666666666663</ele><time>2026-04-12T09:21:34Z</time></trkpt><trkpt lat="43.61837489678575" lon="6.65213608483066"><ele>344.0</ele><time>2026-04-12T09:21:35Z</time></trkpt><trkpt lat="43.61830079210753" lon="6.652098936539929"><ele>343.3333333333333</ele><time>2026-04-12T09:21:36Z</time></trkpt><trkpt lat="43.61822413172627" lon="6.652066737712593"><ele>342.6666666666667</ele><time>2026-04-12T09:21:37Z</time></trkpt><trkpt lat="43.61814367786548" lon="6.652040791851821"><ele>342.0</ele><time>2026-04-12T09:21:38Z</time></trkpt><trkpt lat="43.61805970613205" lon="6.652021196473738"><ele>342.0</ele><time>2026-04-12T09:21:39Z</time></trkpt><trkpt lat="43.617972782559285" lon="6.652006516237949"><ele>342.0</ele><time>2026-04-12T09:21:40Z</time></trkpt><trkpt lat="43.61787826608748" lon="6.652004370241582"><ele>342.0</ele><time>2026-04-12T09:21:41Z</time></trkpt><trkpt lat="43.61777996115849" lon="6.652001213105325"><ele>342.0</ele><time>2026-04-12T09:21:42Z</time></trkpt><trkpt lat="43.61767829619852" lon="6.651994170325452"><ele>342.0</ele><time>2026-04-12T09:21:43Z</time></trkpt><trkpt lat="43.6175748987372" lon="6.651987051997938"><ele>341.40000000000003</ele><time>2026-04-12T09:21:44Z</time></trkpt><trkpt lat="43.61746858646185" lon="6.651991241414385"><ele>340.8</ele><time>2026-04-12T09:21:45Z</time></trkpt><trkpt lat="43.617360369565155" lon="6.652000573853891"><ele>340.2</ele><time>2026-04-12T09:21:46Z</time></trkpt><trkpt lat="43.617250910342364" lon="6.65201240295349"><ele>339.6</ele><time>2026-04-12T09:21:47Z</time></trkpt><trkpt lat="43.61713919306941" lon="6.652025678700568"><ele>339.0</ele><time>2026-04-12T09:21:48Z</time></trkpt><trkpt lat="43.61702510600706" lon="6.652037044485443"><ele>337.25</ele><time>2026-04-12T09:21:49Z</time></trkpt><trkpt lat="43.61690876446214" lon="6.6520394144459285"><ele>335.5</ele><time>2026-04-12T09:21:50Z</time></trkpt><trkpt lat="43.616790348944384" lon="6.6520324562059745"><ele>333.75</ele><time>2026-04-12T09:21:51Z</time></trkpt><trkpt lat="43.6166725719717" lon="6.652013116599136"><ele>332.0</ele><time>2026-04-12T09:21:52Z</time></trkpt><trkpt lat="43.616550820118256" lon="6.651980756652348"><ele>332.5</ele><time>2026-04-12T09:21:53Z</time></trkpt><trkpt lat="43.616432245440464" lon="6.651954824208022"><ele>333.0</ele><time>2026-04-12T09:21:54Z</time></trkpt><trkpt lat="43.61630629228604" lon="6.6519378159619516"><ele>333.5</ele><time>2026-04-12T09:21:55Z</time></trkpt><trkpt lat="43.61617964202645" lon="6.6519403197534315"><ele>334.0</ele><time>2026-04-12T09:21:56Z</time></trkpt><trkpt lat="43.616050264362876" lon="6.651965224247738"><ele>332.25</ele><time>2026-04-12T09:21:57Z</time></trkpt><trkpt lat="43.61591768889811" lon="6.651994386771083"><ele>330.5</ele><time>2026-04-12T09:21:58Z</time></trkpt><trkpt lat="43.61578651177358" lon="6.65202509230942"><ele>328.75</ele><time>2026-04-12T09:21:59Z</time></trkpt><trkpt lat="43.61565424763029" lon="6.652053408364108"><ele>327.0</ele><time>2026-04-12T09:22:00Z</time></trkpt><trkpt lat="43.61552216219851" lon="6.652079020771083"><ele>327.0</ele><time>2026-04-12T09:22:01Z</time></trkpt><trkpt lat="43.615393272193955" lon="6.652103645498385"><ele>327.0</ele><time>2026-04-12T09:22:02Z</time></trkpt><trkpt lat="43.61526724123968" lon="6.6521243203683715"><ele>327.0</ele><time>2026-04-12T09:22:03Z</time></trkpt><trkpt lat="43.615146827089816" lon="6.652143710097487"><ele>327.0</ele><time>2026-04-12T09:22:04Z</time></trkpt><trkpt lat="43.61502741995747" lon="6.652161368704815"><ele>325.8</ele><time>2026-04-12T09:22:05Z</time></trkpt><trkpt lat="43.614912594141465" lon="6.652178702043962"><ele>324.6</ele><time>2026-04-12T09:22:06Z</time></trkpt><trkpt lat="43.614802944868906" lon="6.652199426912952"><ele>323.40000000000003</ele><time>2026-04-12T09:22:07Z</time></trkpt><trkpt lat="43.614698847744194" lon="6.652217895613047"><ele>322.20000000000005</ele><time>2026-04-12T09:22:08Z</time></trkpt><trkpt lat="43.61459821828603" lon="6.652220866564493"><ele>321.0</ele><time>2026-04-12T09:22:09Z</time></trkpt><trkpt lat="43.61450188923803" lon="6.652233892659994"><ele>321.0</ele><time>2026-04-12T09:22:10Z</time></trkpt><trkpt lat="43.61441131214355" lon="6.652250720659161"><ele>321.0</ele><time>2026-04-12T09:22:11Z</time></trkpt><trkpt lat="43.61431935692948" lon="6.652259600142048"><ele>321.0</ele><time>2026-04-12T09:22:12Z</time></trkpt><trkpt lat="43.61422789390173" lon="6.652263816939024"><ele>321.0</ele><time>2026-04-12T09:22:13Z</time></trkpt><trkpt lat="43.61413578257209" lon="6.652262988000765"><ele>321.0</ele><time>2026-04-12T09:22:14Z</time></trkpt><trkpt lat="43.61404438967049" lon="6.652251182300563"><ele>321.0</ele><time>2026-04-12T09:22:15Z</time></trkpt><trkpt lat="43.61395598434835" lon="6.652225876737249"><ele>321.0</ele><time>2026-04-12T09:22:16Z</time></trkpt><trkpt lat="43.613872296715044" lon="6.6521818294195425"><ele>321.0</ele><time>2026-04-12T09:22:17Z</time></trkpt><trkpt lat="43.6137974870592" lon="6.652118462543255"><ele>321.0</ele><time>2026-04-12T09:22:18Z</time></trkpt><trkpt lat="43.61373129461043" lon="6.652046261269217"><ele>321.0</ele><time>2026-04-12T09:22:19Z</time></trkpt><trkpt lat="43.613670365479436" lon="6.651968908496611"><ele>321.0</ele><time>2026-04-12T09:22:20Z</time></trkpt><trkpt lat="43.61360847660797" lon="6.651896193440171"><ele>321.85714285714283</ele><time>2026-04-12T09:22:21Z</time></trkpt><trkpt lat="43.61354253277934" lon="6.651832374385843"><ele>322.7142857142857</ele><time>2026-04-12T09:22:22Z</time></trkpt><trkpt lat="43.613472138960255" lon="6.65178263391936"><ele>323.57142857142856</ele><time>2026-04-12T09:22:23Z</time></trkpt><trkpt lat="43.61340204491998" lon="6.651742046329488"><ele>324.42857142857144</ele><time>2026-04-12T09:22:24Z</time></trkpt><trkpt lat="43.61333095138005" lon="6.651715633463325"><ele>325.2857142857143</ele><time>2026-04-12T09:22:25Z</time></trkpt><trkpt lat="43.61326164053352" lon="6.651703100859803"><ele>326.1428571428571</ele><time>2026-04-12T09:22:26Z</time></trkpt><trkpt lat="43.613194616949954" lon="6.6517046568183"><ele>327.0</ele><time>2026-04-12T09:22:27Z</time></trkpt><trkpt lat="43.61308371139946" lon="6.651752910057476"><ele>327.0</ele><time>2026-04-12T09:22:29Z</time></trkpt><trkpt lat="43.613002244331796" lon="6.6518349025982735"><ele>327.0</ele><time>2026-04-12T09:22:31Z</time></trkpt><trkpt lat="43.61292426683069" lon="6.651917809017743"><ele>327.0</ele><time>2026-04-12T09:22:33Z</time></trkpt><trkpt lat="43.612852151405455" lon="6.652005402720098"><ele>327.0</ele><time>2026-04-12T09:22:35Z</time></trkpt><trkpt lat="43.6127784714146" lon="6.652086663781353"><ele>327.0</ele><time>2026-04-12T09:22:37Z</time></trkpt><trkpt lat="43.61270162941198" lon="6.652163247118904"><ele>327.6</ele><time>2026-04-12T09:22:39Z</time></trkpt><trkpt lat="43.61262579736808" lon="6.652239783369136"><ele>328.20000000000005</ele><time>2026-04-12T09:22:41Z</time></trkpt><trkpt lat="43.612543289044396" lon="6.652301189980562"><ele>328.8</ele><time>2026-04-12T09:22:43Z</time></trkpt><trkpt lat="43.61246072151093" lon="6.652356260281701"><ele>329.4</ele><time>2026-04-12T09:22:45Z</time></trkpt><trkpt lat="43.61237836652958" lon="6.6524024122412"><ele>330.0</ele><time>2026-04-12T09:22:47Z</time></trkpt><trkpt lat="43.61229557825328" lon="6.652439028179909"><ele>330.0</ele><time>2026-04-12T09:22:49Z</time></trkpt><trkpt lat="43.612213064191174" lon="6.65247863360993"><ele>330.0</ele><time>2026-04-12T09:22:51Z</time></trkpt><trkpt lat="43.61213310535532" lon="6.652519253730407"><ele>330.0</ele><time>2026-04-12T09:22:53Z</time></trkpt><trkpt lat="43.612054741853036" lon="6.652557131164499"><ele>330.0</ele><time>2026-04-12T09:22:55Z</time></trkpt><trkpt lat="43.6119777229907" lon="6.652598906514674"><ele>330.0</ele><time>2026-04-12T09:22:57Z</time></trkpt><trkpt lat="43.61190046498218" lon="6.652638948777255"><ele>330.0</ele><time>2026-04-12T09:22:59Z</time></trkpt><trkpt lat="43.611824183849635" lon="6.652677370256252"><ele>330.0</ele><time>2026-04-12T09:23:01Z</time></trkpt><trkpt lat="43.61175120513901" lon="6.652717014830417"><ele>330.0</ele><time>2026-04-12T09:23:03Z</time></trkpt><trkpt lat="43.61167781611658" lon="6.652755140932438"><ele>330.0</ele><time>2026-04-12T09:23:05Z</time></trkpt><trkpt lat="43.6116038557779" lon="6.652793737468812"><ele>330.0</ele><time>2026-04-12T09:23:07Z</time></trkpt><trkpt lat="43.61152920510767" lon="6.6528325538125515"><ele>330.0</ele><time>2026-04-12T09:23:09Z</time></trkpt><trkpt lat="43.611454565281505" lon="6.6528728913486015"><ele>330.0</ele><time>2026-04-12T09:23:11Z</time></trkpt><trkpt lat="43.611383591579276" lon="6.652916598633836"><ele>330.00000000000006</ele><time>2026-04-12T09:23:13Z</time></trkpt><trkpt lat="43.61131320169217" lon="6.652950751355449"><ele>330.0</ele><time>2026-04-12T09:23:15Z</time></trkpt><trkpt lat="43.611245303789154" lon="6.652981297379195"><ele>330.0</ele><time>2026-04-12T09:23:17Z</time></trkpt><trkpt lat="43.61117706283456" lon="6.653015908012935"><ele>330.0</ele><time>2026-04-12T09:23:19Z</time></trkpt><trkpt lat="43.61110720285682" lon="6.653045415243878"><ele>330.0</ele><time>2026-04-12T09:23:21Z</time></trkpt><trkpt lat="43.61103415896357" lon="6.653066593310304"><ele>330.00000000000006</ele><time>2026-04-12T09:23:23Z</time></trkpt><trkpt lat="43.61096187406266" lon="6.6530889893688165"><ele>330.0</ele><time>2026-04-12T09:23:25Z</time></trkpt><trkpt lat="43.610887755400405" lon="6.653103853688515"><ele>330.5714285714286</ele><time>2026-04-12T09:23:27Z</time></trkpt><trkpt lat="43.610815376008084" lon="6.653125530164025"><ele>331.14285714285717</ele><time>2026-04-12T09:23:29Z</time></trkpt><trkpt lat="43.61074166399735" lon="6.653147032858967"><ele>331.7142857142857</ele><time>2026-04-12T09:23:31Z</time></trkpt><trkpt lat="43.61066788789577" lon="6.653163498594261"><ele>332.28571428571433</ele><time>2026-04-12T09:23:33Z</time></trkpt><trkpt lat="43.610598127772285" lon="6.653177511504959"><ele>332.8571428571429</ele><time>2026-04-12T09:23:35Z</time></trkpt><trkpt lat="43.610522526194494" lon="6.653183543363294"><ele>333.42857142857144</ele><time>2026-04-12T09:23:37Z</time></trkpt><trkpt lat="43.610445679867645" lon="6.653190121166372"><ele>334.0</ele><time>2026-04-12T09:23:39Z</time></trkpt><trkpt lat="43.610371016329545" lon="6.653196162044646"><ele>335.0</ele><time>2026-04-12T09:23:41Z</time></trkpt><trkpt lat="43.61029279462171" lon="6.653188875094933"><ele>336.0</ele><time>2026-04-12T09:23:43Z</time></trkpt><trkpt lat="43.61021201425196" lon="6.6531833613314735"><ele>337.0</ele><time>2026-04-12T09:23:45Z</time></trkpt><trkpt lat="43.61012912421023" lon="6.653172836887472"><ele>338.0</ele><time>2026-04-12T09:23:47Z</time></trkpt><trkpt lat="43.610045031633504" lon="6.653168870446929"><ele>339.0</ele><time>2026-04-12T09:23:49Z</time></trkpt><trkpt lat="43.6099626553783" lon="6.653152325684091"><ele>340.0</ele><time>2026-04-12T09:23:51Z</time></trkpt><trkpt lat="43.60988159697756" lon="6.653135281536526"><ele>340.0</ele><time>2026-04-12T09:23:53Z</time></trkpt><trkpt lat="43.60980191447957" lon="6.65311601642285"><ele>340.0</ele><time>2026-04-12T09:23:55Z</time></trkpt><trkpt lat="43.60972339001631" lon="6.653092020218909"><ele>340.0</ele><time>2026-04-12T09:23:57Z</time></trkpt><trkpt lat="43.60964533589616" lon="6.6530767573792176"><ele>340.0</ele><time>2026-04-12T09:23:59Z</time></trkpt><trkpt lat="43.609569304549865" lon="6.6530664154844406"><ele>340.0</ele><time>2026-04-12T09:24:01Z</time></trkpt><trkpt lat="43.6094938175828" lon="6.653056957423093"><ele>340.0</ele><time>2026-04-12T09:24:03Z</time></trkpt><trkpt lat="43.609418012141006" lon="6.6530572313109175"><ele>339.8333333333333</ele><time>2026-04-12T09:24:05Z</time></trkpt><trkpt lat="43.60934491874301" lon="6.653051469828665"><ele>339.66666666666663</ele><time>2026-04-12T09:24:07Z</time></trkpt><trkpt lat="43.60927149514455" lon="6.653057500630568"><ele>339.5</ele><time>2026-04-12T09:24:09Z</time></trkpt><trkpt lat="43.60919919160806" lon="6.65307137996744"><ele>339.3333333333333</ele><time>2026-04-12T09:24:11Z</time></trkpt><trkpt lat="43.6091212196617" lon="6.653086647741544"><ele>339.1666666666667</ele><time>2026-04-12T09:24:13Z</time></trkpt><trkpt lat="43.609042919249696" lon="6.65311525358943"><ele>339.0</ele><time>2026-04-12T09:24:15Z</time></trkpt><trkpt lat="43.60896285077377" lon="6.653155586387705"><ele>339.0</ele><time>2026-04-12T09:24:17Z</time></trkpt><trkpt lat="43.608878858144806" lon="6.653189990488228"><ele>339.0</ele><time>2026-04-12T09:24:19Z</time></trkpt><trkpt lat="43.60879144675994" lon="6.6532316107745615"><ele>339.0</ele><time>2026-04-12T09:24:21Z</time></trkpt><trkpt lat="43.60870427900706" lon="6.65327594971936"><ele>339.0</ele><time>2026-04-12T09:24:23Z</time></trkpt><trkpt lat="43.608614225883585" lon="6.65331632683584"><ele>339.0</ele><time>2026-04-12T09:24:25Z</time></trkpt><trkpt lat="43.60851967627927" lon="6.653361135308612"><ele>340.0</ele><time>2026-04-12T09:24:27Z</time></trkpt><trkpt lat="43.60842358149902" lon="6.653417473487939"><ele>341.0</ele><time>2026-04-12T09:24:29Z</time></trkpt><trkpt lat="43.608323071397535" lon="6.653467269436073"><ele>342.0</ele><time>2026-04-12T09:24:31Z</time></trkpt><trkpt lat="43.60822034510691" lon="6.653512318622913"><ele>343.0</ele><time>2026-04-12T09:24:33Z</time></trkpt><trkpt lat="43.60811661558011" lon="6.653552311599982"><ele>344.0</ele><time>2026-04-12T09:24:35Z</time></trkpt><trkpt lat="43.608010623353884" lon="6.653584475638865"><ele>344.0</ele><time>2026-04-12T09:24:37Z</time></trkpt><trkpt lat="43.6079076890182" lon="6.653621549517188"><ele>344.0</ele><time>2026-04-12T09:24:39Z</time></trkpt><trkpt lat="43.60780146900562" lon="6.653657660050383"><ele>344.0</ele><time>2026-04-12T09:24:41Z</time></trkpt><trkpt lat="43.60769615834562" lon="6.653696344603768"><ele>344.0</ele><time>2026-04-12T09:24:43Z</time></trkpt><trkpt lat="43.60759118104808" lon="6.6537326088464015"><ele>344.0</ele><time>2026-04-12T09:24:45Z</time></trkpt><trkpt lat="43.60748419540099" lon="6.6537640776183435"><ele>342.25</ele><time>2026-04-12T09:24:47Z</time></trkpt><trkpt lat="43.60737385162607" lon="6.6537918376120535"><ele>340.5</ele><time>2026-04-12T09:24:49Z</time></trkpt><trkpt lat="43.60726499782433" lon="6.653833570588181"><ele>338.75</ele><time>2026-04-12T09:24:51Z</time></trkpt><trkpt lat="43.60715473131583" lon="6.653870089307628"><ele>337.0</ele><time>2026-04-12T09:24:53Z</time></trkpt><trkpt lat="43.6070429550611" lon="6.6539060137525485"><ele>337.75</ele><time>2026-04-12T09:24:55Z</time></trkpt><trkpt lat="43.60693064556159" lon="6.653944886804079"><ele>338.5</ele><time>2026-04-12T09:24:57Z</time></trkpt><trkpt lat="43.60681643219835" lon="6.653987707863295"><ele>339.25</ele><time>2026-04-12T09:24:59Z</time></trkpt><trkpt lat="43.606701783509486" lon="6.654031058868678"><ele>340.0</ele><time>2026-04-12T09:25:01Z</time></trkpt><trkpt lat="43.60658691924186" lon="6.654065152251736"><ele>340.0</ele><time>2026-04-12T09:25:03Z</time></trkpt><trkpt lat="43.60647540530394" lon="6.654095758805114"><ele>340.0</ele><time>2026-04-12T09:25:05Z</time></trkpt><trkpt lat="43.60636100164528" lon="6.654114013070604"><ele>340.0</ele><time>2026-04-12T09:25:07Z</time></trkpt><trkpt lat="43.608010623353884" lon="6.653584475638865"><ele>339.4</ele><time>2026-04-12T09:24:37Z</time></trkpt><trkpt lat="43.6079076890182" lon="6.653621549517188"><ele>338.8</ele><time>2026-04-12T09:24:39Z</time></trkpt><trkpt lat="43.60780146900562" lon="6.653657660050383"><ele>338.20000000000005</ele><time>2026-04-12T09:24:41Z</time></trkpt><trkpt lat="43.60769615834562" lon="6.653696344603768"><ele>337.6</ele><time>2026-04-12T09:24:43Z</time></trkpt><trkpt lat="43.60759118104808" lon="6.6537326088464015"><ele>337.0</ele><time>2026-04-12T09:24:45Z</time></trkpt><trkpt lat="43.60748419540099" lon="6.6537640776183435"><ele>337.0</ele><time>2026-04-12T09:24:47Z</time></trkpt><trkpt lat="43.60737385162607" lon="6.6537918376120535"><ele>337.0</ele><time>2026-04-12T09:24:49Z</time></trkpt><trkpt lat="43.60726499782433" lon="6.653833570588181"><ele>337.0</ele><time>2026-04-12T09:24:51Z</time></trkpt><trkpt lat="43.60715473131583" lon="6.653870089307628"><ele>337.0</ele><time>2026-04-12T09:24:53Z</time></trkpt><trkpt lat="43.6070429550611" lon="6.6539060137525485"><ele>337.75</ele><time>2026-04-12T09:24:55Z</time></trkpt><trkpt lat="43.60693064556159" lon="6.653944886804079"><ele>338.5</ele><time>2026-04-12T09:24:57Z</time></trkpt><trkpt lat="43.60681643219835" lon="6.653987707863295"><ele>339.25</ele><time>2026-04-12T09:24:59Z</time></trkpt><trkpt lat="43.606701783509486" lon="6.654031058868678"><ele>340.0</ele><time>2026-04-12T09:25:01Z</time></trkpt><trkpt lat="43.60658691924186" lon="6.654065152251736"><ele>340.0</ele><time>2026-04-12T09:25:03Z</time></trkpt><trkpt lat="43.60647540530394" lon="6.654095758805114"><ele>340.0</ele><time>2026-04-12T09:25:05Z</time></trkpt><trkpt lat="43.60636100164528" lon="6.654114013070604"><ele>340.0</ele><time>2026-04-12T09:25:07Z</time></trkpt><trkpt lat="43.606245334439016" lon="6.654091506338494"><ele>340.0</ele><time>2026-04-12T09:25:09Z</time></trkpt><trkpt lat="43.606145527039885" lon="6.654016470713852"><ele>340.2</ele><time>2026-04-12T09:25:11Z</time></trkpt><trkpt lat="43.606080719372564" lon="6.653885803876433"><ele>340.4</ele><time>2026-04-12T09:25:13Z</time></trkpt><trkpt lat="43.606052281707996" lon="6.653727182498463"><ele>340.6</ele><time>2026-04-12T09:25:15Z</time></trkpt><trkpt lat="43.6060406164888" lon="6.653559680870116"><ele>340.8</ele><time>2026-04-12T09:25:17Z</time></trkpt><trkpt lat="43.60603334792117" lon="6.653472815402154"><ele>341.0</ele><time>2026-04-12T09:25:18Z</time></trkpt><trkpt lat="43.60602659430926" lon="6.653385215575753"><ele>341.0</ele><time>2026-04-12T09:25:19Z</time></trkpt><trkpt lat="43.606019470229874" lon="6.653297073489942"><ele>341.0</ele><time>2026-04-12T09:25:20Z</time></trkpt><trkpt lat="43.60600467690245" lon="6.653211275451726"><ele>341.0</ele><time>2026-04-12T09:25:21Z</time></trkpt><trkpt lat="43.60598030915741" lon="6.653127256132503"><ele>341.0</ele><time>2026-04-12T09:25:22Z</time></trkpt><trkpt lat="43.60595340570495" lon="6.6530433640013085"><ele>341.0</ele><time>2026-04-12T09:25:23Z</time></trkpt><trkpt lat="43.60591922959771" lon="6.6529607374513295"><ele>341.0</ele><time>2026-04-12T09:25:24Z</time></trkpt><trkpt lat="43.60587262270086" lon="6.652883152732132"><ele>341.0</ele><time>2026-04-12T09:25:25Z</time></trkpt><trkpt lat="43.60581159434125" lon="6.6528137064676764"><ele>340.6</ele><time>2026-04-12T09:25:26Z</time></trkpt><trkpt lat="43.60573876829242" lon="6.6527544167302946"><ele>340.20000000000005</ele><time>2026-04-12T09:25:27Z</time></trkpt><trkpt lat="43.60565730172871" lon="6.6527056263094595"><ele>339.79999999999995</ele><time>2026-04-12T09:25:28Z</time></trkpt><trkpt lat="43.605570934525964" lon="6.652662638654595"><ele>339.4</ele><time>2026-04-12T09:25:29Z</time></trkpt><trkpt lat="43.605480059467766" lon="6.652626421464161"><ele>339.0</ele><time>2026-04-12T09:25:30Z</time></trkpt><trkpt lat="43.60538757774144" lon="6.6525866791147"><ele>338.6</ele><time>2026-04-12T09:25:31Z</time></trkpt><trkpt lat="43.60529580165989" lon="6.652533993138257"><ele>338.2</ele><time>2026-04-12T09:25:32Z</time></trkpt><trkpt lat="43.60521060936943" lon="6.652455390199896"><ele>337.8</ele><time>2026-04-12T09:25:33Z</time></trkpt><trkpt lat="43.60513915130275" lon="6.652347323677589"><ele>337.40000000000003</ele><time>2026-04-12T09:25:34Z</time></trkpt><trkpt lat="43.60506842550634" lon="6.652239145666503"><ele>337.0</ele><time>2026-04-12T09:25:35Z</time></trkpt><trkpt lat="43.60498785936786" lon="6.652144505164133"><ele>337.0</ele><time>2026-04-12T09:25:36Z</time></trkpt><trkpt lat="43.60489709080551" lon="6.652065261926868"><ele>337.0</ele><time>2026-04-12T09:25:37Z</time></trkpt><trkpt lat="43.60479700228653" lon="6.6519998652268235"><ele>337.0</ele><time>2026-04-12T09:25:38Z</time></trkpt><trkpt lat="43.6046917909441" lon="6.651944207471657"><ele>337.0</ele><time>2026-04-12T09:25:39Z</time></trkpt><trkpt lat="43.60458071439329" lon="6.651900971589245"><ele>337.0</ele><time>2026-04-12T09:25:40Z</time></trkpt><trkpt lat="43.604465917311714" lon="6.651874773456622"><ele>335.0</ele><time>2026-04-12T09:25:41Z</time></trkpt><trkpt lat="43.604347281328465" lon="6.651873698058467"><ele>333.0</ele><time>2026-04-12T09:25:42Z</time></trkpt><trkpt lat="43.60423006793185" lon="6.651877169779727"><ele>331.0</ele><time>2026-04-12T09:25:43Z</time></trkpt><trkpt lat="43.60411040947171" lon="6.651882714883399"><ele>329.0</ele><time>2026-04-12T09:25:44Z</time></trkpt><trkpt lat="43.60399051881268" lon="6.651892190694652"><ele>329.0</ele><time>2026-04-12T09:25:45Z</time></trkpt><trkpt lat="43.60387157921292" lon="6.651899454602353"><ele>329.0</ele><time>2026-04-12T09:25:46Z</time></trkpt><trkpt lat="43.6037542221089" lon="6.651910165248469"><ele>329.0</ele><time>2026-04-12T09:25:47Z</time></trkpt><trkpt lat="43.60363486195335" lon="6.65192377577006"><ele>329.0</ele><time>2026-04-12T09:25:48Z</time></trkpt><trkpt lat="43.60351801724741" lon="6.651967438646064"><ele>330.0</ele><time>2026-04-12T09:25:49Z</time></trkpt><trkpt lat="43.60340883660097" lon="6.6520381395434525"><ele>331.0</ele><time>2026-04-12T09:25:50Z</time></trkpt><trkpt lat="43.60331042393153" lon="6.652119448984802"><ele>332.0</ele><time>2026-04-12T09:25:51Z</time></trkpt><trkpt lat="43.603207971853884" lon="6.65219739822516"><ele>333.0</ele><time>2026-04-12T09:25:52Z</time></trkpt><trkpt lat="43.60309649500055" lon="6.652254316131044"><ele>333.0</ele><time>2026-04-12T09:25:53Z</time></trkpt><trkpt lat="43.60297978019103" lon="6.652285653538644"><ele>333.0</ele><time>2026-04-12T09:25:54Z</time></trkpt><trkpt lat="43.60285969229554" lon="6.652306340227257"><ele>333.0</ele><time>2026-04-12T09:25:55Z</time></trkpt><trkpt lat="43.60273631374449" lon="6.652312333716945"><ele>333.0</ele><time>2026-04-12T09:25:56Z</time></trkpt><trkpt lat="43.60261224711119" lon="6.652314272239584"><ele>330.75</ele><time>2026-04-12T09:25:57Z</time></trkpt><trkpt lat="43.602487267015604" lon="6.652326786882433"><ele>328.5</ele><time>2026-04-12T09:25:58Z</time></trkpt><trkpt lat="43.6023631784298" lon="6.652355236575032"><ele>326.25</ele><time>2026-04-12T09:25:59Z</time></trkpt><trkpt lat="43.60223999546801" lon="6.6523899403831015"><ele>324.0</ele><time>2026-04-12T09:26:00Z</time></trkpt><trkpt lat="43.60211862547154" lon="6.6524389107305515"><ele>321.75</ele><time>2026-04-12T09:26:01Z</time></trkpt><trkpt lat="43.60199764950442" lon="6.652493498627688"><ele>319.5</ele><time>2026-04-12T09:26:02Z</time></trkpt><trkpt lat="43.601878676817854" lon="6.652555163054242"><ele>317.25</ele><time>2026-04-12T09:26:03Z</time></trkpt><trkpt lat="43.601759775404076" lon="6.652615558049243"><ele>315.0</ele><time>2026-04-12T09:26:04Z</time></trkpt><trkpt lat="43.60164594265763" lon="6.652680239070628"><ele>315.0</ele><time>2026-04-12T09:26:05Z</time></trkpt><trkpt lat="43.60153783044832" lon="6.65274695451424"><ele>315.0</ele><time>2026-04-12T09:26:06Z</time></trkpt><trkpt lat="43.60143342835473" lon="6.652810464141391"><ele>315.0</ele><time>2026-04-12T09:26:07Z</time></trkpt><trkpt lat="43.60134080335662" lon="6.652862528920635"><ele>315.0</ele><time>2026-04-12T09:26:08Z</time></trkpt><trkpt lat="43.601256831786635" lon="6.652900352679892"><ele>315.0</ele><time>2026-04-12T09:26:09Z</time></trkpt><trkpt lat="43.60117113718888" lon="6.652925283399831"><ele>313.8333333333333</ele><time>2026-04-12T09:26:10Z</time></trkpt><trkpt lat="43.60107850847629" lon="6.65292302653665"><ele>312.6666666666667</ele><time>2026-04-12T09:26:11Z</time></trkpt><trkpt lat="43.600997684432215" lon="6.65288457967709"><ele>311.5</ele><time>2026-04-12T09:26:12Z</time></trkpt><trkpt lat="43.600924208461485" lon="6.652815286930977"><ele>310.33333333333337</ele><time>2026-04-12T09:26:13Z</time></trkpt><trkpt lat="43.600874307278374" lon="6.6527130893321464"><ele>309.1666666666667</ele><time>2026-04-12T09:26:14Z</time></trkpt><trkpt lat="43.600849703591415" lon="6.652593110749868"><ele>308.0</ele><time>2026-04-12T09:26:15Z</time></trkpt><trkpt lat="43.600849894922206" lon="6.652465925201991"><ele>307.2</ele><time>2026-04-12T09:26:16Z</time></trkpt><trkpt lat="43.60086690422342" lon="6.652346681097492"><ele>306.4</ele><time>2026-04-12T09:26:17Z</time></trkpt><trkpt lat="43.60089759827699" lon="6.652225681112373"><ele>305.59999999999997</ele><time>2026-04-12T09:26:18Z</time></trkpt><trkpt lat="43.60092703851797" lon="6.65210120254305"><ele>304.8</ele><time>2026-04-12T09:26:19Z</time></trkpt><trkpt lat="43.60095484622161" lon="6.651970996983561"><ele>304.0</ele><time>2026-04-12T09:26:20Z</time></trkpt><trkpt lat="43.60098366754008" lon="6.651839328850143"><ele>303.59999999999997</ele><time>2026-04-12T09:26:21Z</time></trkpt><trkpt lat="43.601006098343206" lon="6.6517095235252635"><ele>303.2</ele><time>2026-04-12T09:26:22Z</time></trkpt><trkpt lat="43.601001108086024" lon="6.651571569238312"><ele>302.79999999999995</ele><time>2026-04-12T09:26:23Z</time></trkpt><trkpt lat="43.60096915333882" lon="6.651442798631042"><ele>302.4</ele><time>2026-04-12T09:26:24Z</time></trkpt><trkpt lat="43.60090712923237" lon="6.6513314448996965"><ele>302.0</ele><time>2026-04-12T09:26:25Z</time></trkpt><trkpt lat="43.60082851086264" lon="6.651244665396362"><ele>302.0</ele><time>2026-04-12T09:26:26Z</time></trkpt><trkpt lat="43.600740763646066" lon="6.651183544022013"><ele>302.0</ele><time>2026-04-12T09:26:27Z</time></trkpt><trkpt lat="43.60065095161075" lon="6.651146663416368"><ele>302.0</ele><time>2026-04-12T09:26:28Z</time></trkpt><trkpt lat="43.600563077798334" lon="6.651123273728149"><ele>302.0</ele><time>2026-04-12T09:26:29Z</time></trkpt><trkpt lat="43.60047858221089" lon="6.651102941174914"><ele>302.0</ele><time>2026-04-12T09:26:30Z</time></trkpt><trkpt lat="43.60039912096956" lon="6.6510856339507844"><ele>302.0</ele><time>2026-04-12T09:26:31Z</time></trkpt><trkpt lat="43.60032409371793" lon="6.65106200291218"><ele>302.5</ele><time>2026-04-12T09:26:32Z</time></trkpt><trkpt lat="43.600253079831944" lon="6.651042608848182"><ele>303.0</ele><time>2026-04-12T09:26:33Z</time></trkpt><trkpt lat="43.60018591903686" lon="6.651029369866977"><ele>303.5</ele><time>2026-04-12T09:26:34Z</time></trkpt><trkpt lat="43.60012354609277" lon="6.651012791040351"><ele>304.0</ele><time>2026-04-12T09:26:35Z</time></trkpt><trkpt lat="43.60000279586804" lon="6.650984470226661"><ele>304.5</ele><time>2026-04-12T09:26:37Z</time></trkpt><trkpt lat="43.599891974647285" lon="6.650955917384245"><ele>305.0</ele><time>2026-04-12T09:26:39Z</time></trkpt><trkpt lat="43.599783500662994" lon="6.650918013187485"><ele>305.0</ele><time>2026-04-12T09:26:41Z</time></trkpt><trkpt lat="43.59967180281348" lon="6.650890331070368"><ele>305.0</ele><time>2026-04-12T09:26:43Z</time></trkpt><trkpt lat="43.59956062879528" lon="6.650846852234035"><ele>305.0</ele><time>2026-04-12T09:26:45Z</time></trkpt><trkpt lat="43.59944116191225" lon="6.65081646743699"><ele>305.0</ele><time>2026-04-12T09:26:47Z</time></trkpt><trkpt lat="43.59937712550382" lon="6.650803594022202"><ele>305.0</ele><time>2026-04-12T09:26:48Z</time></trkpt><trkpt lat="43.59925578429966" lon="6.65079910355459"><ele>306.0</ele><time>2026-04-12T09:26:50Z</time></trkpt><trkpt lat="43.599141992133944" lon="6.650780810191845"><ele>307.0</ele><time>2026-04-12T09:26:52Z</time></trkpt><trkpt lat="43.59903906626611" lon="6.650774640152818"><ele>308.0</ele><time>2026-04-12T09:26:54Z</time></trkpt><trkpt lat="43.59894602232404" lon="6.650763444937422"><ele>309.0</ele><time>2026-04-12T09:26:56Z</time></trkpt><trkpt lat="43.598861980032176" lon="6.650741696163425"><ele>310.0</ele><time>2026-04-12T09:26:58Z</time></trkpt><trkpt lat="43.598787297059445" lon="6.650724531654985"><ele>310.0</ele><time>2026-04-12T09:27:00Z</time></trkpt><trkpt lat="43.598715776945696" lon="6.650703104464024"><ele>310.0</ele><time>2026-04-12T09:27:02Z</time></trkpt><trkpt lat="43.59864567192655" lon="6.650683989151088"><ele>310.0</ele><time>2026-04-12T09:27:04Z</time></trkpt><trkpt lat="43.598574873452606" lon="6.650666669347761"><ele>310.0</ele><time>2026-04-12T09:27:06Z</time></trkpt><trkpt lat="43.598503911516715" lon="6.650650081600069"><ele>310.0</ele><time>2026-04-12T09:27:08Z</time></trkpt><trkpt lat="43.598433543245996" lon="6.650634031416773"><ele>310.0</ele><time>2026-04-12T09:27:10Z</time></trkpt><trkpt lat="43.59836298135859" lon="6.65062683917578"><ele>310.0</ele><time>2026-04-12T09:27:12Z</time></trkpt><trkpt lat="43.598291993631605" lon="6.650619007672256"><ele>310.0</ele><time>2026-04-12T09:27:14Z</time></trkpt><trkpt lat="43.5982191904469" lon="6.650604383682547"><ele>310.0</ele><time>2026-04-12T09:27:16Z</time></trkpt><trkpt lat="43.59814402559617" lon="6.650589424741898"><ele>310.0</ele><time>2026-04-12T09:27:18Z</time></trkpt><trkpt lat="43.59806937764367" lon="6.650563246061509"><ele>310.0</ele><time>2026-04-12T09:27:20Z</time></trkpt><trkpt lat="43.59798900167685" lon="6.650522071984455"><ele>310.0</ele><time>2026-04-12T09:27:22Z</time></trkpt><trkpt lat="43.597918438117965" lon="6.650488319139447"><ele>310.0</ele><time>2026-04-12T09:27:25Z</time></trkpt><trkpt lat="43.59780806648784" lon="6.6504381596672335"><ele>310.0</ele><time>2026-04-12T09:27:26Z</time></trkpt><trkpt lat="43.59770564265546" lon="6.650386871131482"><ele>310.0</ele><time>2026-04-12T09:27:28Z</time></trkpt><trkpt lat="43.59759531982476" lon="6.650328227714122"><ele>310.0</ele><time>2026-04-12T09:27:30Z</time></trkpt><trkpt lat="43.59748406689186" lon="6.650266932361353"><ele>310.0</ele><time>2026-04-12T09:27:32Z</time></trkpt><trkpt lat="43.59742515846166" lon="6.650234724082193"><ele>310.0</ele><time>2026-04-12T09:27:33Z</time></trkpt><trkpt lat="43.597310252025046" lon="6.650178237126697"><ele>309.75</ele><time>2026-04-12T09:27:35Z</time></trkpt><trkpt lat="43.59720352172763" lon="6.650123281700363"><ele>309.5</ele><time>2026-04-12T09:27:37Z</time></trkpt><trkpt lat="43.59709853048893" lon="6.650070561039433"><ele>309.25</ele><time>2026-04-12T09:27:39Z</time></trkpt><trkpt lat="43.59699285862552" lon="6.650014484744938"><ele>309.0</ele><time>2026-04-12T09:27:41Z</time></trkpt><trkpt lat="43.59688515226913" lon="6.649965080829826"><ele>309.0</ele><time>2026-04-12T09:27:43Z</time></trkpt><trkpt lat="43.59678467316782" lon="6.649902783093366"><ele>309.0</ele><time>2026-04-12T09:27:45Z</time></trkpt><trkpt lat="43.596685940512785" lon="6.64983577539146"><ele>309.0</ele><time>2026-04-12T09:27:47Z</time></trkpt><trkpt lat="43.59658764924729" lon="6.649747596961484"><ele>309.0</ele><time>2026-04-12T09:27:49Z</time></trkpt><trkpt lat="43.59648227169232" lon="6.6496506324457965"><ele>309.0</ele><time>2026-04-12T09:27:51Z</time></trkpt><trkpt lat="43.59642760043764" lon="6.649590696864968"><ele>309.0</ele><time>2026-04-12T09:27:52Z</time></trkpt><trkpt lat="43.59637043350343" lon="6.64952545233547"><ele>309.0</ele><time>2026-04-12T09:27:53Z</time></trkpt><trkpt lat="43.596311558500155" lon="6.649447463208461"><ele>309.0</ele><time>2026-04-12T09:27:54Z</time></trkpt><trkpt lat="43.59626590479339" lon="6.649341208895335"><ele>309.0</ele><time>2026-04-12T09:27:55Z</time></trkpt><trkpt lat="43.59622411960423" lon="6.649228841697581"><ele>309.0</ele><time>2026-04-12T09:27:56Z</time></trkpt><trkpt lat="43.59618222296562" lon="6.6491145013242505"><ele>308.0</ele><time>2026-04-12T09:27:57Z</time></trkpt><trkpt lat="43.596142101923284" lon="6.648996817511924"><ele>307.0</ele><time>2026-04-12T09:27:58Z</time></trkpt><trkpt lat="43.59610162357501" lon="6.648876289935359"><ele>306.0</ele><time>2026-04-12T09:27:59Z</time></trkpt><trkpt lat="43.59606289864617" lon="6.648750962694105"><ele>305.0</ele><time>2026-04-12T09:28:00Z</time></trkpt><trkpt lat="43.59602112657451" lon="6.648628399971862"><ele>304.0</ele><time>2026-04-12T09:28:01Z</time></trkpt><trkpt lat="43.595975147090144" lon="6.648509073986424"><ele>304.0</ele><time>2026-04-12T09:28:02Z</time></trkpt><trkpt lat="43.595916235858475" lon="6.648397703173804"><ele>304.0</ele><time>2026-04-12T09:28:03Z</time></trkpt><trkpt lat="43.595842577250394" lon="6.648298585878437"><ele>304.0</ele><time>2026-04-12T09:28:04Z</time></trkpt><trkpt lat="43.59576726967638" lon="6.648203508816362"><ele>304.0</ele><time>2026-04-12T09:28:05Z</time></trkpt><trkpt lat="43.59568495740822" lon="6.648120354379396"><ele>304.0</ele><time>2026-04-12T09:28:06Z</time></trkpt><trkpt lat="43.5956034598523" lon="6.648034303516178"><ele>304.0</ele><time>2026-04-12T09:28:07Z</time></trkpt><trkpt lat="43.595520057821574" lon="6.647944650110208"><ele>304.0</ele><time>2026-04-12T09:28:08Z</time></trkpt><trkpt lat="43.59543606590732" lon="6.647855940358923"><ele>304.0</ele><time>2026-04-12T09:28:09Z</time></trkpt><trkpt lat="43.59535551891255" lon="6.647766937966862"><ele>304.0</ele><time>2026-04-12T09:28:10Z</time></trkpt><trkpt lat="43.595273794460525" lon="6.647678425210978"><ele>304.0</ele><time>2026-04-12T09:28:11Z</time></trkpt><trkpt lat="43.59519413304292" lon="6.647595396739471"><ele>303.59999999999997</ele><time>2026-04-12T09:28:12Z</time></trkpt><trkpt lat="43.59511362991749" lon="6.6475087536353"><ele>303.2</ele><time>2026-04-12T09:28:13Z</time></trkpt><trkpt lat="43.59503470909151" lon="6.647421225008863"><ele>302.79999999999995</ele><time>2026-04-12T09:28:14Z</time></trkpt><trkpt lat="43.59495143800718" lon="6.647327595687479"><ele>302.4</ele><time>2026-04-12T09:28:15Z</time></trkpt><trkpt lat="43.59486853791404" lon="6.647229583310026"><ele>302.0</ele><time>2026-04-12T09:28:16Z</time></trkpt><trkpt lat="43.594784316997654" lon="6.647130582236934"><ele>302.0</ele><time>2026-04-12T09:28:17Z</time></trkpt><trkpt lat="43.594700166107124" lon="6.647027212761775"><ele>302.0</ele><time>2026-04-12T09:28:18Z</time></trkpt><trkpt lat="43.59461787971203" lon="6.646920735749453"><ele>302.0</ele><time>2026-04-12T09:28:19Z</time></trkpt><trkpt lat="43.594535177609146" lon="6.646813960267853"><ele>302.0</ele><time>2026-04-12T09:28:20Z</time></trkpt><trkpt lat="43.59445196067093" lon="6.64670087833763"><ele>301.0</ele><time>2026-04-12T09:28:21Z</time></trkpt><trkpt lat="43.594368559063845" lon="6.646586911455641"><ele>300.0</ele><time>2026-04-12T09:28:22Z</time></trkpt><trkpt lat="43.5942857297083" lon="6.646472708529096"><ele>299.0</ele><time>2026-04-12T09:28:23Z</time></trkpt><trkpt lat="43.594204462377675" lon="6.646356040375821"><ele>298.0</ele><time>2026-04-12T09:28:24Z</time></trkpt><trkpt lat="43.59412641301353" lon="6.646235671790622"><ele>297.75</ele><time>2026-04-12T09:28:25Z</time></trkpt><trkpt lat="43.59404988531937" lon="6.646114926691382"><ele>297.5</ele><time>2026-04-12T09:28:26Z</time></trkpt><trkpt lat="43.59397579148484" lon="6.645996487295043"><ele>297.25</ele><time>2026-04-12T09:28:27Z</time></trkpt><trkpt lat="43.59390173802209" lon="6.645878258207602"><ele>297.0</ele><time>2026-04-12T09:28:28Z</time></trkpt><trkpt lat="43.593826551274375" lon="6.645759416172033"><ele>297.0</ele><time>2026-04-12T09:28:29Z</time></trkpt><trkpt lat="43.593754177352935" lon="6.645637331761486"><ele>297.0</ele><time>2026-04-12T09:28:30Z</time></trkpt><trkpt lat="43.59368254215003" lon="6.645516520851178"><ele>297.0</ele><time>2026-04-12T09:28:31Z</time></trkpt><trkpt lat="43.59361149568575" lon="6.645395380745088"><ele>297.0</ele><time>2026-04-12T09:28:32Z</time></trkpt><trkpt lat="43.593538441897294" lon="6.645279761111184"><ele>295.6</ele><time>2026-04-12T09:28:33Z</time></trkpt><trkpt lat="43.59346726866981" lon="6.645163357005634"><ele>294.2</ele><time>2026-04-12T09:28:34Z</time></trkpt><trkpt lat="43.593396318057394" lon="6.645047987724685"><ele>292.8</ele><time>2026-04-12T09:28:35Z</time></trkpt><trkpt lat="43.593326819890464" lon="6.644933160411916"><ele>291.4</ele><time>2026-04-12T09:28:36Z</time></trkpt><trkpt lat="43.59325653244552" lon="6.644819816908506"><ele>290.0</ele><time>2026-04-12T09:28:37Z</time></trkpt><trkpt lat="43.59318780662219" lon="6.6447045794544115"><ele>290.0</ele><time>2026-04-12T09:28:38Z</time></trkpt><trkpt lat="43.59311988769611" lon="6.644592132787826"><ele>290.0</ele><time>2026-04-12T09:28:39Z</time></trkpt><trkpt lat="43.5930525631671" lon="6.64448005572062"><ele>290.0</ele><time>2026-04-12T09:28:40Z</time></trkpt><trkpt lat="43.59298339317942" lon="6.644373686807581"><ele>290.0</ele><time>2026-04-12T09:28:41Z</time></trkpt><trkpt lat="43.59291828717885" lon="6.644264541155924"><ele>290.0</ele><time>2026-04-12T09:28:42Z</time></trkpt><trkpt lat="43.59285445551558" lon="6.644155569326825"><ele>289.2</ele><time>2026-04-12T09:28:43Z</time></trkpt><trkpt lat="43.59279136667836" lon="6.64404822926436"><ele>288.4</ele><time>2026-04-12T09:28:44Z</time></trkpt><trkpt lat="43.5927289021343" lon="6.643941406555313"><ele>287.6</ele><time>2026-04-12T09:28:45Z</time></trkpt><trkpt lat="43.59266549609141" lon="6.643834197587476"><ele>286.8</ele><time>2026-04-12T09:28:46Z</time></trkpt><trkpt lat="43.59260597365441" lon="6.643717583468744"><ele>286.0</ele><time>2026-04-12T09:28:47Z</time></trkpt><trkpt lat="43.592546890658866" lon="6.64359318366006"><ele>285.5</ele><time>2026-04-12T09:28:48Z</time></trkpt><trkpt lat="43.592492821374805" lon="6.643463850346071"><ele>285.0</ele><time>2026-04-12T09:28:49Z</time></trkpt><trkpt lat="43.5924375619006" lon="6.643325218616879"><ele>284.5</ele><time>2026-04-12T09:28:50Z</time></trkpt><trkpt lat="43.592384586812486" lon="6.643181258995197"><ele>284.0</ele><time>2026-04-12T09:28:51Z</time></trkpt><trkpt lat="43.5923297914982" lon="6.643036553502509"><ele>284.0</ele><time>2026-04-12T09:28:52Z</time></trkpt><trkpt lat="43.59226640280826" lon="6.642889328600298"><ele>284.0</ele><time>2026-04-12T09:28:53Z</time></trkpt><trkpt lat="43.592207766559675" lon="6.64273661809152"><ele>284.0</ele><time>2026-04-12T09:28:54Z</time></trkpt><trkpt lat="43.59214298503588" lon="6.6425887705480955"><ele>284.0</ele><time>2026-04-12T09:28:55Z</time></trkpt><trkpt lat="43.592073746859626" lon="6.642444977534654"><ele>284.0</ele><time>2026-04-12T09:28:56Z</time></trkpt><trkpt lat="43.592008099693736" lon="6.642303846772792"><ele>284.0</ele><time>2026-04-12T09:28:57Z</time></trkpt><trkpt lat="43.5919423113144" lon="6.642167668796721"><ele>284.0</ele><time>2026-04-12T09:28:58Z</time></trkpt><trkpt lat="43.591876684096064" lon="6.64203423336503"><ele>284.0</ele><time>2026-04-12T09:28:59Z</time></trkpt><trkpt lat="43.5918096200119" lon="6.641908395593141"><ele>283.2</ele><time>2026-04-12T09:29:00Z</time></trkpt><trkpt lat="43.59174065871222" lon="6.641786088285067"><ele>282.4</ele><time>2026-04-12T09:29:01Z</time></trkpt><trkpt lat="43.59166436290331" lon="6.64167698267633"><ele>281.6</ele><time>2026-04-12T09:29:02Z</time></trkpt><trkpt lat="43.59158633894272" lon="6.641577377025345"><ele>280.8</ele><time>2026-04-12T09:29:03Z</time></trkpt><trkpt lat="43.59150821363929" lon="6.641483283072245"><ele>280.0</ele><time>2026-04-12T09:29:04Z</time></trkpt><trkpt lat="43.59142854526256" lon="6.6414001025046145"><ele>280.0</ele><time>2026-04-12T09:29:05Z</time></trkpt><trkpt lat="43.59135303901315" lon="6.641307975650517"><ele>280.0</ele><time>2026-04-12T09:29:06Z</time></trkpt><trkpt lat="43.591276338360814" lon="6.641220816999836"><ele>280.0</ele><time>2026-04-12T09:29:07Z</time></trkpt><trkpt lat="43.591202724485214" lon="6.641134372035559"><ele>280.0</ele><time>2026-04-12T09:29:08Z</time></trkpt><trkpt lat="43.59112969842459" lon="6.6410497818177285"><ele>280.0</ele><time>2026-04-12T09:29:09Z</time></trkpt><trkpt lat="43.59105889885521" lon="6.64096549540544"><ele>280.0</ele><time>2026-04-12T09:29:10Z</time></trkpt><trkpt lat="43.590983534152755" lon="6.640893327239121"><ele>280.0</ele><time>2026-04-12T09:29:11Z</time></trkpt><trkpt lat="43.59089547668643" lon="6.640852442950319"><ele>280.0</ele><time>2026-04-12T09:29:12Z</time></trkpt><trkpt lat="43.59079786393588" lon="6.64083959115272"><ele>280.0</ele><time>2026-04-12T09:29:13Z</time></trkpt><trkpt lat="43.59069990741499" lon="6.640853478372403"><ele>280.0</ele><time>2026-04-12T09:29:14Z</time></trkpt><trkpt lat="43.59060321252474" lon="6.640882742731964"><ele>280.0</ele><time>2026-04-12T09:29:15Z</time></trkpt><trkpt lat="43.59050611152143" lon="6.640914317791317"><ele>280.0</ele><time>2026-04-12T09:29:16Z</time></trkpt><trkpt lat="43.590406345701474" lon="6.640940793490487"><ele>280.0</ele><time>2026-04-12T09:29:17Z</time></trkpt><trkpt lat="43.590304884245874" lon="6.6409677166791266"><ele>280.0</ele><time>2026-04-12T09:29:18Z</time></trkpt><trkpt lat="43.59020571868129" lon="6.6409970883246805"><ele>280.0</ele><time>2026-04-12T09:29:19Z</time></trkpt><trkpt lat="43.590103907786705" lon="6.641029215775664"><ele>279.4</ele><time>2026-04-12T09:29:20Z</time></trkpt><trkpt lat="43.590003872131405" lon="6.641066306204495"><ele>278.8</ele><time>2026-04-12T09:29:21Z</time></trkpt><trkpt lat="43.589903292673796" lon="6.641102238744238"><ele>278.2</ele><time>2026-04-12T09:29:22Z</time></trkpt><trkpt lat="43.58980421629186" lon="6.641143751715499"><ele>277.6</ele><time>2026-04-12T09:29:23Z</time></trkpt><trkpt lat="43.58970624822309" lon="6.641190266030045"><ele>277.0</ele><time>2026-04-12T09:29:24Z</time></trkpt><trkpt lat="43.589610587783184" lon="6.641238541930727"><ele>276.6</ele><time>2026-04-12T09:29:25Z</time></trkpt><trkpt lat="43.589518316399406" lon="6.641291654366479"><ele>276.2</ele><time>2026-04-12T09:29:26Z</time></trkpt><trkpt lat="43.58942647500352" lon="6.641345077657046"><ele>275.8</ele><time>2026-04-12T09:29:27Z</time></trkpt><trkpt lat="43.58933650427298" lon="6.641401716651451"><ele>275.4</ele><time>2026-04-12T09:29:28Z</time></trkpt><trkpt lat="43.589249148425345" lon="6.641460066753357"><ele>275.0</ele><time>2026-04-12T09:29:29Z</time></trkpt><trkpt lat="43.589165036655125" lon="6.641523831487509"><ele>274.8</ele><time>2026-04-12T09:29:30Z</time></trkpt><trkpt lat="43.589083769457964" lon="6.641594157954558"><ele>274.6</ele><time>2026-04-12T09:29:31Z</time></trkpt><trkpt lat="43.58900871247711" lon="6.641674931746749"><ele>274.4</ele><time>2026-04-12T09:29:32Z</time></trkpt><trkpt lat="43.588940311157174" lon="6.641766630724916"><ele>274.2</ele><time>2026-04-12T09:29:33Z</time></trkpt><trkpt lat="43.58887078448667" lon="6.641859472470266"><ele>274.0</ele><time>2026-04-12T09:29:34Z</time></trkpt><trkpt lat="43.5887991886124" lon="6.64195048362412"><ele>273.0</ele><time>2026-04-12T09:29:35Z</time></trkpt><trkpt lat="43.588727558481885" lon="6.642044528551872"><ele>272.0</ele><time>2026-04-12T09:29:36Z</time></trkpt><trkpt lat="43.58865127720768" lon="6.6421304061296595"><ele>271.0</ele><time>2026-04-12T09:29:37Z</time></trkpt><trkpt lat="43.58856988829081" lon="6.642200717496286"><ele>270.0</ele><time>2026-04-12T09:29:38Z</time></trkpt><trkpt lat="43.58848410676312" lon="6.642263385940521"><ele>269.0</ele><time>2026-04-12T09:29:39Z</time></trkpt><trkpt lat="43.58840179103969" lon="6.642322188832936"><ele>269.0</ele><time>2026-04-12T09:29:40Z</time></trkpt><trkpt lat="43.58831991720099" lon="6.642372912327635"><ele>269.0</ele><time>2026-04-12T09:29:41Z</time></trkpt><trkpt lat="43.588238003691174" lon="6.6424164061783335"><ele>269.0</ele><time>2026-04-12T09:29:42Z</time></trkpt><trkpt lat="43.588154500438286" lon="6.642453000160605"><ele>269.0</ele><time>2026-04-12T09:29:43Z</time></trkpt><trkpt lat="43.58807298505509" lon="6.642487992119032"><ele>269.0</ele><time>2026-04-12T09:29:44Z</time></trkpt><trkpt lat="43.587992312665065" lon="6.642519973024837"><ele>269.0</ele><time>2026-04-12T09:29:45Z</time></trkpt><trkpt lat="43.58791079340024" lon="6.6425488097468"><ele>269.33333333333337</ele><time>2026-04-12T09:29:46Z</time></trkpt><trkpt lat="43.58783056654275" lon="6.642576397251629"><ele>269.6666666666667</ele><time>2026-04-12T09:29:47Z</time></trkpt><trkpt lat="43.587748106635" lon="6.642604558322662"><ele>270.0</ele><time>2026-04-12T09:29:48Z</time></trkpt><trkpt lat="43.58766523373894" lon="6.642634950365462"><ele>270.3333333333333</ele><time>2026-04-12T09:29:49Z</time></trkpt><trkpt lat="43.58758100488594" lon="6.6426636684049685"><ele>270.66666666666663</ele><time>2026-04-12T09:29:50Z</time></trkpt><trkpt lat="43.58749610145495" lon="6.642689336278611"><ele>271.0</ele><time>2026-04-12T09:29:51Z</time></trkpt><trkpt lat="43.587411249278674" lon="6.6427166930572925"><ele>271.0</ele><time>2026-04-12T09:29:52Z</time></trkpt><trkpt lat="43.587325046154476" lon="6.64274638351344"><ele>271.0</ele><time>2026-04-12T09:29:53Z</time></trkpt><trkpt lat="43.587239768796266" lon="6.642777469987803"><ele>271.0</ele><time>2026-04-12T09:29:54Z</time></trkpt><trkpt lat="43.587154509517596" lon="6.642807147638072"><ele>271.0</ele><time>2026-04-12T09:29:55Z</time></trkpt><trkpt lat="43.58706862324372" lon="6.642838906058563"><ele>271.0</ele><time>2026-04-12T09:29:56Z</time></trkpt><trkpt lat="43.58698202346383" lon="6.642867570492505"><ele>271.0</ele><time>2026-04-12T09:29:57Z</time></trkpt><trkpt lat="43.586895020192294" lon="6.64288194827218"><ele>270.16666666666663</ele><time>2026-04-12T09:29:58Z</time></trkpt><trkpt lat="43.58682553882026" lon="6.642883512964476"><ele>269.3333333333333</ele><time>2026-04-12T09:29:59Z</time></trkpt><trkpt lat="43.58670159141582" lon="6.642870928729004"><ele>268.5</ele><time>2026-04-12T09:30:01Z</time></trkpt><trkpt lat="43.58663940558435" lon="6.642839044760434"><ele>267.6666666666667</ele><time>2026-04-12T09:30:02Z</time></trkpt><trkpt lat="43.586589496745404" lon="6.6427791327418575"><ele>266.83333333333337</ele><time>2026-04-12T09:30:03Z</time></trkpt><trkpt lat="43.58654665082119" lon="6.642715199765054"><ele>266.0</ele><time>2026-04-12T09:30:04Z</time></trkpt><trkpt lat="43.58645464602508" lon="6.64263031779823"><ele>266.0</ele><time>2026-04-12T09:30:06Z</time></trkpt><trkpt lat="43.586343206893225" lon="6.6426130080725425"><ele>266.0</ele><time>2026-04-12T09:30:08Z</time></trkpt><trkpt lat="43.586237633018605" lon="6.642707599751932"><ele>266.0</ele><time>2026-04-12T09:30:10Z</time></trkpt><trkpt lat="43.58620232655765" lon="6.6427891369073055"><ele>266.0</ele><time>2026-04-12T09:30:11Z</time></trkpt><trkpt lat="43.58616839948533" lon="6.642873509521033"><ele>266.0</ele><time>2026-04-12T09:30:12Z</time></trkpt><trkpt lat="43.58612798259282" lon="6.6429529146823425"><ele>266.0</ele><time>2026-04-12T09:30:13Z</time></trkpt><trkpt lat="43.58608497073977" lon="6.64303750592059"><ele>265.83333333333337</ele><time>2026-04-12T09:30:14Z</time></trkpt><trkpt lat="43.58604277771568" lon="6.6431286475991875"><ele>265.6666666666667</ele><time>2026-04-12T09:30:15Z</time></trkpt><trkpt lat="43.58600210348457" lon="6.64322254620229"><ele>265.5</ele><time>2026-04-12T09:30:16Z</time></trkpt><trkpt lat="43.58595484014837" lon="6.643316993769451"><ele>265.3333333333333</ele><time>2026-04-12T09:30:17Z</time></trkpt><trkpt lat="43.58590800505551" lon="6.64341163336666"><ele>265.16666666666663</ele><time>2026-04-12T09:30:18Z</time></trkpt><trkpt lat="43.58586541271743" lon="6.643511306858317"><ele>265.0</ele><time>2026-04-12T09:30:19Z</time></trkpt><trkpt lat="43.58582081981505" lon="6.643614269198102"><ele>264.2</ele><time>2026-04-12T09:30:20Z</time></trkpt><trkpt lat="43.58577329526579" lon="6.643716807084508"><ele>263.4</ele><time>2026-04-12T09:30:21Z</time></trkpt><trkpt lat="43.58572252339322" lon="6.6438182552432865"><ele>262.6</ele><time>2026-04-12T09:30:22Z</time></trkpt><trkpt lat="43.58567253867812" lon="6.643920934661796"><ele>261.8</ele><time>2026-04-12T09:30:23Z</time></trkpt><trkpt lat="43.58562032285568" lon="6.644024851066804"><ele>261.0</ele><time>2026-04-12T09:30:24Z</time></trkpt><trkpt lat="43.58557126900815" lon="6.644132945396373"><ele>261.0</ele><time>2026-04-12T09:30:25Z</time></trkpt><trkpt lat="43.58552114840555" lon="6.644241303409146"><ele>261.0</ele><time>2026-04-12T09:30:26Z</time></trkpt><trkpt lat="43.5854690520914" lon="6.644346795258221"><ele>261.0</ele><time>2026-04-12T09:30:27Z</time></trkpt><trkpt lat="43.585416953149924" lon="6.644453720077526"><ele>261.0</ele><time>2026-04-12T09:30:28Z</time></trkpt><trkpt lat="43.58536469198257" lon="6.6445609554193545"><ele>261.0</ele><time>2026-04-12T09:30:29Z</time></trkpt><trkpt lat="43.58531251873928" lon="6.644668380374463"><ele>261.2</ele><time>2026-04-12T09:30:30Z</time></trkpt><trkpt lat="43.58526050650473" lon="6.6447769625907505"><ele>261.40000000000003</ele><time>2026-04-12T09:30:31Z</time></trkpt><trkpt lat="43.58520938092924" lon="6.644886231174917"><ele>261.6</ele><time>2026-04-12T09:30:32Z</time></trkpt><trkpt lat="43.5851579032596" lon="6.644993957349927"><ele>261.8</ele><time>2026-04-12T09:30:33Z</time></trkpt><trkpt lat="43.5851063179175" lon="6.645103242351308"><ele>262.0</ele><time>2026-04-12T09:30:34Z</time></trkpt><trkpt lat="43.58505613057414" lon="6.645214158990493"><ele>261.4</ele><time>2026-04-12T09:30:35Z</time></trkpt><trkpt lat="43.58500943467272" lon="6.645327830917624"><ele>260.79999999999995</ele><time>2026-04-12T09:30:36Z</time></trkpt><trkpt lat="43.58496802203895" lon="6.645444637911205"><ele>260.2</ele><time>2026-04-12T09:30:37Z</time></trkpt><trkpt lat="43.58493585634861" lon="6.645566400403842"><ele>259.59999999999997</ele><time>2026-04-12T09:30:38Z</time></trkpt><trkpt lat="43.58490961349812" lon="6.645689235295584"><ele>259.0</ele><time>2026-04-12T09:30:39Z</time></trkpt><trkpt lat="43.58488739643451" lon="6.645815828883091"><ele>259.0</ele><time>2026-04-12T09:30:40Z</time></trkpt><trkpt lat="43.58487306187745" lon="6.645944439516921"><ele>259.0</ele><time>2026-04-12T09:30:41Z</time></trkpt><trkpt lat="43.58486194350195" lon="6.6460753663131324"><ele>259.0</ele><time>2026-04-12T09:30:42Z</time></trkpt><trkpt lat="43.584850802492596" lon="6.646205325406808"><ele>259.0</ele><time>2026-04-12T09:30:43Z</time></trkpt><trkpt lat="43.58484036090915" lon="6.646337764756161"><ele>259.0</ele><time>2026-04-12T09:30:44Z</time></trkpt><trkpt lat="43.58483135945101" lon="6.646467623407109"><ele>258.0</ele><time>2026-04-12T09:30:45Z</time></trkpt><trkpt lat="43.58482332626126" lon="6.646599311974548"><ele>257.0</ele><time>2026-04-12T09:30:46Z</time></trkpt><trkpt lat="43.5848124365542" lon="6.646734600175383"><ele>255.99999999999997</ele><time>2026-04-12T09:30:47Z</time></trkpt><trkpt lat="43.58480353567323" lon="6.646873142582578"><ele>255.0</ele><time>2026-04-12T09:30:48Z</time></trkpt><trkpt lat="43.58479440315652" lon="6.6470131048106875"><ele>254.0</ele><time>2026-04-12T09:30:49Z</time></trkpt><trkpt lat="43.5847869529593" lon="6.647153845603543"><ele>253.6</ele><time>2026-04-12T09:30:50Z</time></trkpt><trkpt lat="43.58477870016118" lon="6.647294642789683"><ele>253.2</ele><time>2026-04-12T09:30:51Z</time></trkpt><trkpt lat="43.5847776220867" lon="6.647436909641027"><ele>252.79999999999998</ele><time>2026-04-12T09:30:52Z</time></trkpt><trkpt lat="43.58479357742654" lon="6.647579362277364"><ele>252.39999999999998</ele><time>2026-04-12T09:30:53Z</time></trkpt><trkpt lat="43.5848287336097" lon="6.6477142982306905"><ele>252.0</ele><time>2026-04-12T09:30:54Z</time></trkpt><trkpt lat="43.58487387137134" lon="6.647840886719619"><ele>251.6</ele><time>2026-04-12T09:30:55Z</time></trkpt><trkpt lat="43.584921649968074" lon="6.647960880399529"><ele>251.2</ele><time>2026-04-12T09:30:56Z</time></trkpt><trkpt lat="43.58497126939148" lon="6.648080307650714"><ele>250.8</ele><time>2026-04-12T09:30:57Z</time></trkpt><trkpt lat="43.585009163236016" lon="6.648209772769219"><ele>250.4</ele><time>2026-04-12T09:30:58Z</time></trkpt><trkpt lat="43.585041068082646" lon="6.64834581400355"><ele>250.0</ele><time>2026-04-12T09:30:59Z</time></trkpt><trkpt lat="43.58506433512288" lon="6.648482216350772"><ele>250.0</ele><time>2026-04-12T09:31:00Z</time></trkpt><trkpt lat="43.58507403021002" lon="6.648621865154574"><ele>250.0</ele><time>2026-04-12T09:31:01Z</time></trkpt><trkpt lat="43.58506866084462" lon="6.648762426764294"><ele>250.0</ele><time>2026-04-12T09:31:02Z</time></trkpt><trkpt lat="43.5850541318527" lon="6.648903976717209"><ele>250.0</ele><time>2026-04-12T09:31:03Z</time></trkpt><trkpt lat="43.58503348518969" lon="6.649047553543103"><ele>250.0</ele><time>2026-04-12T09:31:04Z</time></trkpt><trkpt lat="43.58500795698192" lon="6.649194764498889"><ele>249.75</ele><time>2026-04-12T09:31:05Z</time></trkpt><trkpt lat="43.58497885409694" lon="6.649346126541035"><ele>249.5</ele><time>2026-04-12T09:31:06Z</time></trkpt><trkpt lat="43.584950544979314" lon="6.649499341010854"><ele>249.25</ele><time>2026-04-12T09:31:07Z</time></trkpt><trkpt lat="43.58492183367374" lon="6.649655047073806"><ele>249.0</ele><time>2026-04-12T09:31:08Z</time></trkpt><trkpt lat="43.58489485734798" lon="6.649813158541819"><ele>247.25</ele><time>2026-04-12T09:31:09Z</time></trkpt><trkpt lat="43.58487385868798" lon="6.649973988939275"><ele>245.5</ele><time>2026-04-12T09:31:10Z</time></trkpt><trkpt lat="43.58485589328934" lon="6.650132743511414"><ele>243.75</ele><time>2026-04-12T09:31:11Z</time></trkpt><trkpt lat="43.5848432758196" lon="6.650293354464702"><ele>242.0</ele><time>2026-04-12T09:31:12Z</time></trkpt><trkpt lat="43.58483936114768" lon="6.650456040661977"><ele>241.2</ele><time>2026-04-12T09:31:13Z</time></trkpt><trkpt lat="43.58484501591257" lon="6.650614288154989"><ele>240.39999999999998</ele><time>2026-04-12T09:31:14Z</time></trkpt><trkpt lat="43.58486111595506" lon="6.650769399857794"><ele>239.60000000000002</ele><time>2026-04-12T09:31:15Z</time></trkpt><trkpt lat="43.584887539160995" lon="6.650919329389329"><ele>238.8</ele><time>2026-04-12T09:31:16Z</time></trkpt><trkpt lat="43.58492240298898" lon="6.65106159535408"><ele>238.0</ele><time>2026-04-12T09:31:17Z</time></trkpt><trkpt lat="43.584966414756444" lon="6.6511936043934705"><ele>237.8</ele><time>2026-04-12T09:31:18Z</time></trkpt><trkpt lat="43.58501924859692" lon="6.651314690813239"><ele>237.60000000000002</ele><time>2026-04-12T09:31:19Z</time></trkpt><trkpt lat="43.58507363142142" lon="6.6514297886786204"><ele>237.39999999999998</ele><time>2026-04-12T09:31:20Z</time></trkpt><trkpt lat="43.58512616378027" lon="6.6515462598372315"><ele>237.2</ele><time>2026-04-12T09:31:21Z</time></trkpt><trkpt lat="43.58518013342689" lon="6.65166108674056"><ele>237.0</ele><time>2026-04-12T09:31:22Z</time></trkpt><trkpt lat="43.585232751114965" lon="6.651774636443273"><ele>237.0</ele><time>2026-04-12T09:31:23Z</time></trkpt><trkpt lat="43.58528162219433" lon="6.651892400570124"><ele>237.0</ele><time>2026-04-12T09:31:24Z</time></trkpt><trkpt lat="43.58532135611431" lon="6.652015241497566"><ele>237.0</ele><time>2026-04-12T09:31:25Z</time></trkpt><trkpt lat="43.58535227927347" lon="6.652140926966046"><ele>237.0</ele><time>2026-04-12T09:31:26Z</time></trkpt><trkpt lat="43.58536995373323" lon="6.652269031368939"><ele>237.0</ele><time>2026-04-12T09:31:27Z</time></trkpt><trkpt lat="43.58537867757383" lon="6.652396297678935"><ele>237.33333333333334</ele><time>2026-04-12T09:31:28Z</time></trkpt><trkpt lat="43.58538197389407" lon="6.652521130935447"><ele>237.66666666666669</ele><time>2026-04-12T09:31:29Z</time></trkpt><trkpt lat="43.58537937657082" lon="6.652641597840301"><ele>238.0</ele><time>2026-04-12T09:31:30Z</time></trkpt><trkpt lat="43.58537942180021" lon="6.652760991376896"><ele>238.33333333333334</ele><time>2026-04-12T09:31:31Z</time></trkpt><trkpt lat="43.58537677331696" lon="6.652878427137206"><ele>238.66666666666669</ele><time>2026-04-12T09:31:32Z</time></trkpt><trkpt lat="43.58537475226084" lon="6.652993557693843"><ele>239.0</ele><time>2026-04-12T09:31:33Z</time></trkpt><trkpt lat="43.58537364197956" lon="6.653107412417908"><ele>239.00000000000003</ele><time>2026-04-12T09:31:34Z</time></trkpt><trkpt lat="43.58537155488936" lon="6.653219706448119"><ele>239.0</ele><time>2026-04-12T09:31:35Z</time></trkpt><trkpt lat="43.58536878334401" lon="6.653328977415578"><ele>239.0</ele><time>2026-04-12T09:31:36Z</time></trkpt><trkpt lat="43.5853667780135" lon="6.653440101626216"><ele>239.0</ele><time>2026-04-12T09:31:37Z</time></trkpt><trkpt lat="43.585366689777686" lon="6.653547706483109"><ele>239.00000000000003</ele><time>2026-04-12T09:31:38Z</time></trkpt><trkpt lat="43.58536604568232" lon="6.653654431660612"><ele>239.0</ele><time>2026-04-12T09:31:39Z</time></trkpt><trkpt lat="43.585363831915906" lon="6.653761162489342"><ele>239.28571428571433</ele><time>2026-04-12T09:31:40Z</time></trkpt><trkpt lat="43.585363766440835" lon="6.653867140988166"><ele>239.57142857142858</ele><time>2026-04-12T09:31:41Z</time></trkpt><trkpt lat="43.58536393186792" lon="6.653970613153843"><ele>239.8571428571429</ele><time>2026-04-12T09:31:42Z</time></trkpt><trkpt lat="43.58536250753625" lon="6.654073123299844"><ele>240.14285714285717</ele><time>2026-04-12T09:31:43Z</time></trkpt><trkpt lat="43.58536126661605" lon="6.654175785619881"><ele>240.42857142857144</ele><time>2026-04-12T09:31:44Z</time></trkpt><trkpt lat="43.585360050584136" lon="6.654278151201063"><ele>240.71428571428572</ele><time>2026-04-12T09:31:45Z</time></trkpt><trkpt lat="43.58536041682823" lon="6.654381002169512"><ele>241.0</ele><time>2026-04-12T09:31:46Z</time></trkpt><trkpt lat="43.58536158454061" lon="6.654482856428535"><ele>241.42857142857144</ele><time>2026-04-12T09:31:47Z</time></trkpt><trkpt lat="43.58536114287859" lon="6.654584422480092"><ele>241.8571428571429</ele><time>2026-04-12T09:31:48Z</time></trkpt><trkpt lat="43.58536025007149" lon="6.654686045801071"><ele>242.28571428571428</ele><time>2026-04-12T09:31:49Z</time></trkpt><trkpt lat="43.585356926417724" lon="6.654788487104753"><ele>242.71428571428572</ele><time>2026-04-12T09:31:50Z</time></trkpt><trkpt lat="43.58535833081678" lon="6.654888315305254"><ele>243.14285714285714</ele><time>2026-04-12T09:31:51Z</time></trkpt><trkpt lat="43.58535739328463" lon="6.654988086627769"><ele>243.57142857142856</ele><time>2026-04-12T09:31:52Z</time></trkpt><trkpt lat="43.585356244377834" lon="6.6550881342612564"><ele>243.99999999999997</ele><time>2026-04-12T09:31:53Z</time></trkpt><trkpt lat="43.5853534600061" lon="6.655188128274977"><ele>244.1428571428571</ele><time>2026-04-12T09:31:54Z</time></trkpt><trkpt lat="43.58535396047147" lon="6.655287537008746"><ele>244.28571428571428</ele><time>2026-04-12T09:31:55Z</time></trkpt><trkpt lat="43.585352604806836" lon="6.655386326969479"><ele>244.42857142857142</ele><time>2026-04-12T09:31:56Z</time></trkpt><trkpt lat="43.58535296816476" lon="6.655483278786424"><ele>244.57142857142856</ele><time>2026-04-12T09:31:57Z</time></trkpt><trkpt lat="43.58535116454767" lon="6.655579055730873"><ele>244.71428571428572</ele><time>2026-04-12T09:31:58Z</time></trkpt><trkpt lat="43.585350902633664" lon="6.6556751433744425"><ele>244.85714285714286</ele><time>2026-04-12T09:31:59Z</time></trkpt><trkpt lat="43.58535067295419" lon="6.655769900575566"><ele>245.0</ele><time>2026-04-12T09:32:00Z</time></trkpt><trkpt lat="43.58535086835488" lon="6.6558627714873415"><ele>245.0</ele><time>2026-04-12T09:32:01Z</time></trkpt><trkpt lat="43.58535199777542" lon="6.655955002759791"><ele>245.0</ele><time>2026-04-12T09:32:02Z</time></trkpt><trkpt lat="43.58535258979043" lon="6.6560466428381755"><ele>245.0</ele><time>2026-04-12T09:32:03Z</time></trkpt><trkpt lat="43.58535276126285" lon="6.656138269902576"><ele>245.0</ele><time>2026-04-12T09:32:04Z</time></trkpt><trkpt lat="43.585350510599184" lon="6.656230085690944"><ele>245.0</ele><time>2026-04-12T09:32:05Z</time></trkpt><trkpt lat="43.58534698425142" lon="6.656322429262422"><ele>245.0</ele><time>2026-04-12T09:32:06Z</time></trkpt><trkpt lat="43.58534541526007" lon="6.6564132151380155"><ele>245.0</ele><time>2026-04-12T09:32:07Z</time></trkpt><trkpt lat="43.58534654790288" lon="6.65650543378458"><ele>245.0</ele><time>2026-04-12T09:32:08Z</time></trkpt><trkpt lat="43.5853480833838" lon="6.65659768129779"><ele>245.0</ele><time>2026-04-12T09:32:09Z</time></trkpt><trkpt lat="43.5853463309137" lon="6.656689931717829"><ele>245.0</ele><time>2026-04-12T09:32:10Z</time></trkpt><trkpt lat="43.585345443189226" lon="6.656781809424483"><ele>245.0</ele><time>2026-04-12T09:32:11Z</time></trkpt><trkpt lat="43.585349586119776" lon="6.656873150555907"><ele>245.0</ele><time>2026-04-12T09:32:12Z</time></trkpt><trkpt lat="43.585351303529215" lon="6.656964668947408"><ele>245.0</ele><time>2026-04-12T09:32:13Z</time></trkpt><trkpt lat="43.58534992183593" lon="6.657058081526977"><ele>245.0</ele><time>2026-04-12T09:32:14Z</time></trkpt><trkpt lat="43.58534420919914" lon="6.657150014302155"><ele>245.33333333333334</ele><time>2026-04-12T09:32:15Z</time></trkpt><trkpt lat="43.585334984896186" lon="6.657243398486443"><ele>245.66666666666669</ele><time>2026-04-12T09:32:16Z</time></trkpt><trkpt lat="43.58532678616557" lon="6.657334819614212"><ele>246.0</ele><time>2026-04-12T09:32:17Z</time></trkpt><trkpt lat="43.58531435629152" lon="6.657424551147544"><ele>246.33333333333331</ele><time>2026-04-12T09:32:18Z</time></trkpt><trkpt lat="43.58528591097118" lon="6.6575909068510075"><ele>246.66666666666666</ele><time>2026-04-12T09:32:20Z</time></trkpt><trkpt lat="43.585244995778886" lon="6.657744803167049"><ele>247.0</ele><time>2026-04-12T09:32:22Z</time></trkpt><trkpt lat="43.585191479435274" lon="6.657880600252966"><ele>247.0</ele><time>2026-04-12T09:32:24Z</time></trkpt><trkpt lat="43.58513831206587" lon="6.658009055503559"><ele>247.0</ele><time>2026-04-12T09:32:26Z</time></trkpt><trkpt lat="43.58507921043671" lon="6.658125265402957"><ele>247.0</ele><time>2026-04-12T09:32:28Z</time></trkpt><trkpt lat="43.58501927767452" lon="6.658231643198571"><ele>247.0</ele><time>2026-04-12T09:32:30Z</time></trkpt><trkpt lat="43.58495440738668" lon="6.6583262511160335"><ele>247.0</ele><time>2026-04-12T09:32:32Z</time></trkpt><trkpt lat="43.58488761299979" lon="6.658414282237352"><ele>246.99999999999997</ele><time>2026-04-12T09:32:34Z</time></trkpt><trkpt lat="43.58482388518721" lon="6.658494475001218"><ele>247.0</ele><time>2026-04-12T09:32:36Z</time></trkpt><trkpt lat="43.58476137692949" lon="6.658572660536383"><ele>247.0</ele><time>2026-04-12T09:32:38Z</time></trkpt><trkpt lat="43.58470238907553" lon="6.658652113620942"><ele>247.0</ele><time>2026-04-12T09:32:40Z</time></trkpt><trkpt lat="43.584649569576904" lon="6.658738698873741"><ele>246.99999999999997</ele><time>2026-04-12T09:32:42Z</time></trkpt><trkpt lat="43.58460967477715" lon="6.658828203355063"><ele>247.0</ele><time>2026-04-12T09:32:44Z</time></trkpt><trkpt lat="43.584578208375184" lon="6.65891997843115"><ele>248.28571428571428</ele><time>2026-04-12T09:32:46Z</time></trkpt><trkpt lat="43.584551212428636" lon="6.6590145966452505"><ele>249.57142857142856</ele><time>2026-04-12T09:32:48Z</time></trkpt><trkpt lat="43.584532059435006" lon="6.659110207577127"><ele>250.85714285714283</ele><time>2026-04-12T09:32:50Z</time></trkpt><trkpt lat="43.58452223601826" lon="6.659206884513659"><ele>252.14285714285714</ele><time>2026-04-12T09:32:52Z</time></trkpt><trkpt lat="43.58452108419294" lon="6.659304074494971"><ele>253.4285714285714</ele><time>2026-04-12T09:32:54Z</time></trkpt><trkpt lat="43.584526118813926" lon="6.659401756104481"><ele>254.7142857142857</ele><time>2026-04-12T09:32:56Z</time></trkpt><trkpt lat="43.584537673244895" lon="6.659496056624349"><ele>256.0</ele><time>2026-04-12T09:32:58Z</time></trkpt><trkpt lat="43.584559756020056" lon="6.659585639861463"><ele>255.99999999999997</ele><time>2026-04-12T09:33:01Z</time></trkpt><trkpt lat="43.58459608771014" lon="6.659686080729564"><ele>256.0</ele><time>2026-04-12T09:33:03Z</time></trkpt><trkpt lat="43.584648930097" lon="6.659784274967299"><ele>256.0</ele><time>2026-04-12T09:33:06Z</time></trkpt><trkpt lat="43.584728344240055" lon="6.659887052046235"><ele>256.0</ele><time>2026-04-12T09:33:09Z</time></trkpt><trkpt lat="43.58480336401307" lon="6.65995343181527"><ele>255.99999999999997</ele><time>2026-04-12T09:33:11Z</time></trkpt><trkpt lat="43.58486474639193" lon="6.659992237783032"><ele>256.0</ele><time>2026-04-12T09:33:13Z</time></trkpt><trkpt lat="43.58493091597058" lon="6.66003147921747"><ele>256.0</ele><time>2026-04-12T09:33:15Z</time></trkpt><trkpt lat="43.58499449237116" lon="6.660069180778854"><ele>255.99999999999997</ele><time>2026-04-12T09:33:17Z</time></trkpt><trkpt lat="43.585059836437935" lon="6.660106842033"><ele>256.0</ele><time>2026-04-12T09:33:19Z</time></trkpt><trkpt lat="43.58512356046523" lon="6.660149346551454"><ele>256.0</ele><time>2026-04-12T09:33:21Z</time></trkpt><trkpt lat="43.58518491889424" lon="6.660193912996459"><ele>255.99999999999997</ele><time>2026-04-12T09:33:23Z</time></trkpt><trkpt lat="43.58524037846039" lon="6.6602516332039645"><ele>256.0</ele><time>2026-04-12T09:33:25Z</time></trkpt><trkpt lat="43.58529093181703" lon="6.660315622782468"><ele>256.0</ele><time>2026-04-12T09:33:27Z</time></trkpt><trkpt lat="43.585329701724646" lon="6.660393691287151"><ele>256.2857142857143</ele><time>2026-04-12T09:33:29Z</time></trkpt><trkpt lat="43.58535092150022" lon="6.660487078703689"><ele>256.57142857142856</ele><time>2026-04-12T09:33:31Z</time></trkpt><trkpt lat="43.58535155389355" lon="6.660584173121313"><ele>256.85714285714283</ele><time>2026-04-12T09:33:33Z</time></trkpt><trkpt lat="43.58532889952497" lon="6.660677353232378"><ele>257.1428571428571</ele><time>2026-04-12T09:33:35Z</time></trkpt><trkpt lat="43.5852934245533" lon="6.660755377132709"><ele>257.42857142857144</ele><time>2026-04-12T09:33:37Z</time></trkpt><trkpt lat="43.58525897626691" lon="6.660830854214097"><ele>257.71428571428567</ele><time>2026-04-12T09:33:39Z</time></trkpt><trkpt lat="43.58521286149308" lon="6.6608980655160925"><ele>258.0</ele><time>2026-04-12T09:33:41Z</time></trkpt><trkpt lat="43.58516775869657" lon="6.660962135680634"><ele>258.0</ele><time>2026-04-12T09:33:43Z</time></trkpt><trkpt lat="43.58509862545112" lon="6.661046363457853"><ele>258.0</ele><time>2026-04-12T09:33:46Z</time></trkpt><trkpt lat="43.58503115330015" lon="6.661134713689134"><ele>258.0</ele><time>2026-04-12T09:33:49Z</time></trkpt><trkpt lat="43.58496086074855" lon="6.661218688507179"><ele>258.0</ele><time>2026-04-12T09:33:52Z</time></trkpt><trkpt lat="43.584892949887404" lon="6.66130456239977"><ele>258.0</ele><time>2026-04-12T09:33:55Z</time></trkpt><trkpt lat="43.58484969909368" lon="6.661377553243118"><ele>258.0</ele><time>2026-04-12T09:33:58Z</time></trkpt><trkpt lat="43.58479451346522" lon="6.66148072031878"><ele>259.2857142857143</ele><time>2026-04-12T09:34:00Z</time></trkpt><trkpt lat="43.58475035865903" lon="6.661587563651014"><ele>260.57142857142856</ele><time>2026-04-12T09:34:03Z</time></trkpt><trkpt lat="43.58471250055596" lon="6.661705378509103"><ele>261.8571428571429</ele><time>2026-04-12T09:34:06Z</time></trkpt><trkpt lat="43.58468864891814" lon="6.661787688136039"><ele>263.1428571428571</ele><time>2026-04-12T09:34:08Z</time></trkpt><trkpt lat="43.58467132853604" lon="6.661872522749543"><ele>264.42857142857144</ele><time>2026-04-12T09:34:10Z</time></trkpt><trkpt lat="43.58465707678837" lon="6.661959505585008"><ele>265.7142857142857</ele><time>2026-04-12T09:34:12Z</time></trkpt><trkpt lat="43.584645753827644" lon="6.662047873848009"><ele>267.0</ele><time>2026-04-12T09:34:14Z</time></trkpt><trkpt lat="43.58463628043206" lon="6.662136346031292"><ele>267.8571428571429</ele><time>2026-04-12T09:34:16Z</time></trkpt><trkpt lat="43.58462839240894" lon="6.662223350510196"><ele>268.7142857142857</ele><time>2026-04-12T09:34:18Z</time></trkpt><trkpt lat="43.584619630259056" lon="6.662309936520683"><ele>269.57142857142856</ele><time>2026-04-12T09:34:20Z</time></trkpt><trkpt lat="43.58461528914011" lon="6.662397213578507"><ele>270.42857142857144</ele><time>2026-04-12T09:34:22Z</time></trkpt><trkpt lat="43.584605719319725" lon="6.662484792936704"><ele>271.2857142857143</ele><time>2026-04-12T09:34:24Z</time></trkpt><trkpt lat="43.584599044924616" lon="6.662572586328876"><ele>272.14285714285717</ele><time>2026-04-12T09:34:26Z</time></trkpt><trkpt lat="43.58459454390434" lon="6.662670334240414"><ele>273.0</ele><time>2026-04-12T09:34:29Z</time></trkpt><trkpt lat="43.58458519262966" lon="6.662783553193421"><ele>274.3333333333333</ele><time>2026-04-12T09:34:32Z</time></trkpt><trkpt lat="43.58457599839387" lon="6.662885812552949"><ele>275.6666666666667</ele><time>2026-04-12T09:34:34Z</time></trkpt><trkpt lat="43.5845706311011" lon="6.66300311498463"><ele>277.0</ele><time>2026-04-12T09:34:37Z</time></trkpt><trkpt lat="43.584560680331805" lon="6.66311865834515"><ele>278.33333333333337</ele><time>2026-04-12T09:34:39Z</time></trkpt><trkpt lat="43.58455468465951" lon="6.6632414121828445"><ele>279.6666666666667</ele><time>2026-04-12T09:34:42Z</time></trkpt><trkpt lat="43.584543418301145" lon="6.663368724543475"><ele>281.0</ele><time>2026-04-12T09:34:45Z</time></trkpt><trkpt lat="43.58453063721215" lon="6.663495878660891"><ele>281.0</ele><time>2026-04-12T09:34:48Z</time></trkpt><trkpt lat="43.58452058726999" lon="6.663581784044976"><ele>281.0</ele><time>2026-04-12T09:34:50Z</time></trkpt><trkpt lat="43.584509081806" lon="6.663667814538323"><ele>281.0</ele><time>2026-04-12T09:34:52Z</time></trkpt><trkpt lat="43.5844963909629" lon="6.663755994328643"><ele>281.0</ele><time>2026-04-12T09:34:54Z</time></trkpt><trkpt lat="43.58447672016054" lon="6.663839463804874"><ele>281.0</ele><time>2026-04-12T09:34:56Z</time></trkpt><trkpt lat="43.58445728004444" lon="6.663923266873647"><ele>281.0</ele><time>2026-04-12T09:34:58Z</time></trkpt><trkpt lat="43.58443152871144" lon="6.6640056915604715"><ele>281.0</ele><time>2026-04-12T09:35:00Z</time></trkpt><trkpt lat="43.58440444950173" lon="6.664084563746336"><ele>281.0</ele><time>2026-04-12T09:35:02Z</time></trkpt><trkpt lat="43.58436742025892" lon="6.664158348024728"><ele>281.33333333333337</ele><time>2026-04-12T09:35:04Z</time></trkpt><trkpt lat="43.58433055771649" lon="6.664230512467729"><ele>281.6666666666667</ele><time>2026-04-12T09:35:06Z</time></trkpt><trkpt lat="43.584292956911284" lon="6.664301662800421"><ele>282.0</ele><time>2026-04-12T09:35:09Z</time></trkpt><trkpt lat="43.58423335053682" lon="6.664386597951166"><ele>282.3333333333333</ele><time>2026-04-12T09:35:12Z</time></trkpt><trkpt lat="43.584159575078544" lon="6.664470213047504"><ele>282.66666666666663</ele><time>2026-04-12T09:35:15Z</time></trkpt><trkpt lat="43.58408164542229" lon="6.6645457592146045"><ele>283.0</ele><time>2026-04-12T09:35:18Z</time></trkpt><trkpt lat="43.58402015281219" lon="6.664611168542696"><ele>283.0</ele><time>2026-04-12T09:35:20Z</time></trkpt><trkpt lat="43.583964285829275" lon="6.664665112909658"><ele>283.0</ele><time>2026-04-12T09:35:23Z</time></trkpt><trkpt lat="43.58390243910341" lon="6.664727956523541"><ele>283.0</ele><time>2026-04-12T09:35:25Z</time></trkpt><trkpt lat="43.583838515131625" lon="6.664790770333293"><ele>283.0</ele><time>2026-04-12T09:35:28Z</time></trkpt><trkpt lat="43.58377758058984" lon="6.6648539911848514"><ele>283.0</ele><time>2026-04-12T09:35:30Z</time></trkpt><trkpt lat="43.58372080978932" lon="6.664914528988004"><ele>283.0</ele><time>2026-04-12T09:35:33Z</time></trkpt><trkpt lat="43.58366469732384" lon="6.6649796308669504"><ele>283.0</ele><time>2026-04-12T09:35:35Z</time></trkpt><trkpt lat="43.583591002675284" lon="6.665056604100805"><ele>282.3333333333333</ele><time>2026-04-12T09:35:38Z</time></trkpt><trkpt lat="43.58353924040693" lon="6.665118353123697"><ele>281.66666666666663</ele><time>2026-04-12T09:35:39Z</time></trkpt><trkpt lat="43.583470153212495" lon="6.665207637247669"><ele>281.0</ele><time>2026-04-12T09:35:42Z</time></trkpt><trkpt lat="43.58342353339859" lon="6.6652771010504255"><ele>280.3333333333333</ele><time>2026-04-12T09:35:44Z</time></trkpt><trkpt lat="43.583380843167234" lon="6.665354986559997"><ele>279.6666666666667</ele><time>2026-04-12T09:35:46Z</time></trkpt><trkpt lat="43.58333793567118" lon="6.665435016198719"><ele>279.0</ele><time>2026-04-12T09:35:48Z</time></trkpt><trkpt lat="43.583300760062" lon="6.665526360475368"><ele>279.0</ele><time>2026-04-12T09:35:50Z</time></trkpt><trkpt lat="43.58326435355287" lon="6.665623123516686"><ele>279.0</ele><time>2026-04-12T09:35:52Z</time></trkpt><trkpt lat="43.58323328562172" lon="6.665728723858518"><ele>279.0</ele><time>2026-04-12T09:35:54Z</time></trkpt><trkpt lat="43.5832077106984" lon="6.665843751572269"><ele>279.0</ele><time>2026-04-12T09:35:56Z</time></trkpt><trkpt lat="43.583189036924644" lon="6.665967135949651"><ele>279.0</ele><time>2026-04-12T09:35:58Z</time></trkpt><trkpt lat="43.58317460042755" lon="6.66609764248675"><ele>279.0</ele><time>2026-04-12T09:36:00Z</time></trkpt><trkpt lat="43.583169383671994" lon="6.66623243023584"><ele>279.0</ele><time>2026-04-12T09:36:02Z</time></trkpt><trkpt lat="43.58317501201036" lon="6.666371376880351"><ele>279.0</ele><time>2026-04-12T09:36:04Z</time></trkpt><trkpt lat="43.58318888836659" lon="6.6665183249740645"><ele>279.0</ele><time>2026-04-12T09:36:06Z</time></trkpt><trkpt lat="43.583216287346104" lon="6.666666644792334"><ele>279.0</ele><time>2026-04-12T09:36:08Z</time></trkpt><trkpt lat="43.5832426164879" lon="6.666819406608299"><ele>279.0</ele><time>2026-04-12T09:36:10Z</time></trkpt><trkpt lat="43.583270111439" lon="6.666973454788888"><ele>278.5</ele><time>2026-04-12T09:36:12Z</time></trkpt><trkpt lat="43.58329617963471" lon="6.667132039508234"><ele>278.0</ele><time>2026-04-12T09:36:14Z</time></trkpt><trkpt lat="43.583325635750036" lon="6.667292383154023"><ele>277.5</ele><time>2026-04-12T09:36:16Z</time></trkpt><trkpt lat="43.58335500970303" lon="6.667453969250891"><ele>277.0</ele><time>2026-04-12T09:36:18Z</time></trkpt><trkpt lat="43.58338398566922" lon="6.667616542214933"><ele>277.25</ele><time>2026-04-12T09:36:20Z</time></trkpt><trkpt lat="43.5834121824062" lon="6.667778729410939"><ele>277.5</ele><time>2026-04-12T09:36:22Z</time></trkpt><trkpt lat="43.5834421863989" lon="6.667942602284745"><ele>277.75</ele><time>2026-04-12T09:36:24Z</time></trkpt><trkpt lat="43.583469158369425" lon="6.668105389533533"><ele>278.0</ele><time>2026-04-12T09:36:26Z</time></trkpt><trkpt lat="43.58349836070406" lon="6.6682650579292"><ele>278.0</ele><time>2026-04-12T09:36:28Z</time></trkpt><trkpt lat="43.58353124054953" lon="6.6684197858824374"><ele>278.0</ele><time>2026-04-12T09:36:30Z</time></trkpt><trkpt lat="43.583565597807116" lon="6.66857052092274"><ele>278.0</ele><time>2026-04-12T09:36:32Z</time></trkpt><trkpt lat="43.58360659158369" lon="6.668714573379927"><ele>278.0</ele><time>2026-04-12T09:36:34Z</time></trkpt><trkpt lat="43.58366791870403" lon="6.668848351664851"><ele>279.25</ele><time>2026-04-12T09:36:36Z</time></trkpt><trkpt lat="43.58374338528701" lon="6.668965770691334"><ele>280.5</ele><time>2026-04-12T09:36:38Z</time></trkpt><trkpt lat="43.583830596793696" lon="6.669067654019591"><ele>281.75</ele><time>2026-04-12T09:36:40Z</time></trkpt><trkpt lat="43.58392866745924" lon="6.6691509065212395"><ele>283.0</ele><time>2026-04-12T09:36:42Z</time></trkpt><trkpt lat="43.58403735576102" lon="6.6692155101688755"><ele>283.0</ele><time>2026-04-12T09:36:44Z</time></trkpt><trkpt lat="43.58415159871712" lon="6.669264277043485"><ele>283.0</ele><time>2026-04-12T09:36:46Z</time></trkpt><trkpt lat="43.58426824595922" lon="6.66931024169964"><ele>283.0</ele><time>2026-04-12T09:36:48Z</time></trkpt><trkpt lat="43.58438578382594" lon="6.669349536682878"><ele>283.0</ele><time>2026-04-12T09:36:50Z</time></trkpt><trkpt lat="43.5845050796104" lon="6.669393722099285"><ele>284.5</ele><time>2026-04-12T09:36:52Z</time></trkpt><trkpt lat="43.58462384851504" lon="6.669435998517094"><ele>286.0</ele><time>2026-04-12T09:36:54Z</time></trkpt><trkpt lat="43.58474089702911" lon="6.669477106963557"><ele>287.5</ele><time>2026-04-12T09:36:56Z</time></trkpt><trkpt lat="43.58485614691871" lon="6.669526414457648"><ele>289.0</ele><time>2026-04-12T09:36:58Z</time></trkpt><trkpt lat="43.584966276021284" lon="6.6695824846356855"><ele>288.0</ele><time>2026-04-12T09:37:00Z</time></trkpt><trkpt lat="43.58507556576402" lon="6.669655834157187"><ele>287.0</ele><time>2026-04-12T09:37:02Z</time></trkpt><trkpt lat="43.585179296290114" lon="6.669735031822078"><ele>286.0</ele><time>2026-04-12T09:37:04Z</time></trkpt><trkpt lat="43.585280332943015" lon="6.669818572497478"><ele>285.0</ele><time>2026-04-12T09:37:06Z</time></trkpt><trkpt lat="43.585380975333806" lon="6.6698994148174915"><ele>285.0</ele><time>2026-04-12T09:37:08Z</time></trkpt><trkpt lat="43.5854823617922" lon="6.669980699464256"><ele>285.0</ele><time>2026-04-12T09:37:10Z</time></trkpt><trkpt lat="43.585584413037225" lon="6.6700620607544785"><ele>285.0</ele><time>2026-04-12T09:37:12Z</time></trkpt><trkpt lat="43.585688177380746" lon="6.6701373575987075"><ele>285.0</ele><time>2026-04-12T09:37:14Z</time></trkpt><trkpt lat="43.585795602628615" lon="6.670201473409906"><ele>285.0</ele><time>2026-04-12T09:37:16Z</time></trkpt><trkpt lat="43.58590617924303" lon="6.670255306545548"><ele>285.0</ele><time>2026-04-12T09:37:18Z</time></trkpt><trkpt lat="43.58602156305067" lon="6.670291061505903"><ele>285.0</ele><time>2026-04-12T09:37:20Z</time></trkpt><trkpt lat="43.58613885920238" lon="6.670302761283514"><ele>285.0</ele><time>2026-04-12T09:37:22Z</time></trkpt><trkpt lat="43.5862554123209" lon="6.670290443483557"><ele>284.5</ele><time>2026-04-12T09:37:24Z</time></trkpt><trkpt lat="43.586370916341316" lon="6.6702502496962515"><ele>284.0</ele><time>2026-04-12T09:37:26Z</time></trkpt><trkpt lat="43.58648092128021" lon="6.670182679138932"><ele>283.5</ele><time>2026-04-12T09:37:28Z</time></trkpt><trkpt lat="43.58658301103238" lon="6.670093612203709"><ele>283.0</ele><time>2026-04-12T09:37:30Z</time></trkpt><trkpt lat="43.58667478102626" lon="6.669983456510469"><ele>283.0</ele><time>2026-04-12T09:37:32Z</time></trkpt><trkpt lat="43.586768726899464" lon="6.669872101065045"><ele>283.0</ele><time>2026-04-12T09:37:34Z</time></trkpt><trkpt lat="43.58686033980246" lon="6.669757902175766"><ele>283.0</ele><time>2026-04-12T09:37:36Z</time></trkpt><trkpt lat="43.58696156508955" lon="6.669654643666883"><ele>283.0</ele><time>2026-04-12T09:37:38Z</time></trkpt><trkpt lat="43.58701380278633" lon="6.6696015683067"><ele>283.0</ele><time>2026-04-12T09:37:39Z</time></trkpt><trkpt lat="43.58706828402614" lon="6.6695524126615"><ele>282.7142857142857</ele><time>2026-04-12T09:37:40Z</time></trkpt><trkpt lat="43.587125708890774" lon="6.669512558625783"><ele>282.42857142857144</ele><time>2026-04-12T09:37:41Z</time></trkpt><trkpt lat="43.58718571016476" lon="6.6694795790940695"><ele>282.14285714285717</ele><time>2026-04-12T09:37:42Z</time></trkpt><trkpt lat="43.58724600842683" lon="6.669449008823103"><ele>281.8571428571429</ele><time>2026-04-12T09:37:43Z</time></trkpt><trkpt lat="43.58730746900506" lon="6.669427495400739"><ele>281.57142857142856</ele><time>2026-04-12T09:37:44Z</time></trkpt><trkpt lat="43.587371327506304" lon="6.669416260921622"><ele>281.28571428571433</ele><time>2026-04-12T09:37:45Z</time></trkpt><trkpt lat="43.5874369199478" lon="6.669422720230588"><ele>281.0</ele><time>2026-04-12T09:37:46Z</time></trkpt><trkpt lat="43.587500332749364" lon="6.669447062010728"><ele>280.5</ele><time>2026-04-12T09:37:47Z</time></trkpt><trkpt lat="43.58755991763085" lon="6.6694879969011405"><ele>280.0</ele><time>2026-04-12T09:37:48Z</time></trkpt><trkpt lat="43.58761007336167" lon="6.669542834429139"><ele>279.5</ele><time>2026-04-12T09:37:49Z</time></trkpt><trkpt lat="43.58765006194161" lon="6.669610663968749"><ele>279.0</ele><time>2026-04-12T09:37:50Z</time></trkpt><trkpt lat="43.587708014879446" lon="6.669763606058699"><ele>278.5</ele><time>2026-04-12T09:37:52Z</time></trkpt><trkpt lat="43.58773073328456" lon="6.669929714534818"><ele>278.0</ele><time>2026-04-12T09:37:54Z</time></trkpt><trkpt lat="43.587725819562614" lon="6.670093534456069"><ele>278.0</ele><time>2026-04-12T09:37:56Z</time></trkpt><trkpt lat="43.587709726811845" lon="6.670246234431116"><ele>278.0</ele><time>2026-04-12T09:37:58Z</time></trkpt><trkpt lat="43.58767713586367" lon="6.670388996247825"><ele>278.0</ele><time>2026-04-12T09:38:00Z</time></trkpt><trkpt lat="43.58763233442979" lon="6.670527322906204"><ele>278.0</ele><time>2026-04-12T09:38:02Z</time></trkpt><trkpt lat="43.58757599605503" lon="6.670658258708222"><ele>278.0</ele><time>2026-04-12T09:38:04Z</time></trkpt><trkpt lat="43.58752021181457" lon="6.670786121402738"><ele>278.8</ele><time>2026-04-12T09:38:06Z</time></trkpt><trkpt lat="43.58746731185288" lon="6.670914024592592"><ele>279.6</ele><time>2026-04-12T09:38:08Z</time></trkpt><trkpt lat="43.58741644292074" lon="6.671040398910407"><ele>280.4</ele><time>2026-04-12T09:38:10Z</time></trkpt><trkpt lat="43.587363955663655" lon="6.671166140165334"><ele>281.2</ele><time>2026-04-12T09:38:12Z</time></trkpt><trkpt lat="43.58730732443855" lon="6.671292912480733"><ele>282.0</ele><time>2026-04-12T09:38:14Z</time></trkpt><trkpt lat="43.58725075231" lon="6.671420289148544"><ele>283.2</ele><time>2026-04-12T09:38:16Z</time></trkpt><trkpt lat="43.587196581500685" lon="6.671547018662627"><ele>284.4</ele><time>2026-04-12T09:38:18Z</time></trkpt><trkpt lat="43.58714350337343" lon="6.671672389281551"><ele>285.6</ele><time>2026-04-12T09:38:20Z</time></trkpt><trkpt lat="43.58708933445112" lon="6.671796206038523"><ele>286.8</ele><time>2026-04-12T09:38:22Z</time></trkpt><trkpt lat="43.58703579259167" lon="6.67191672638376"><ele>288.0</ele><time>2026-04-12T09:38:24Z</time></trkpt><trkpt lat="43.58698497521973" lon="6.672038564043796"><ele>288.0</ele><time>2026-04-12T09:38:26Z</time></trkpt><trkpt lat="43.58693549424462" lon="6.6721569359516755"><ele>288.0</ele><time>2026-04-12T09:38:28Z</time></trkpt><trkpt lat="43.58689127559606" lon="6.672277991972465"><ele>288.0</ele><time>2026-04-12T09:38:30Z</time></trkpt><trkpt lat="43.58685271951518" lon="6.6723998702604295"><ele>288.0</ele><time>2026-04-12T09:38:32Z</time></trkpt><trkpt lat="43.586819040299766" lon="6.672529350204266"><ele>288.0</ele><time>2026-04-12T09:38:34Z</time></trkpt><trkpt lat="43.58679718964126" lon="6.672665030122334"><ele>287.8</ele><time>2026-04-12T09:38:36Z</time></trkpt><trkpt lat="43.58678212408098" lon="6.672801604033586"><ele>287.6</ele><time>2026-04-12T09:38:38Z</time></trkpt><trkpt lat="43.586780297025776" lon="6.672943452096291"><ele>287.4</ele><time>2026-04-12T09:38:40Z</time></trkpt><trkpt lat="43.58677357626026" lon="6.673082360026688"><ele>287.2</ele><time>2026-04-12T09:38:42Z</time></trkpt><trkpt lat="43.586786987241354" lon="6.67321872404495"><ele>287.0</ele><time>2026-04-12T09:38:44Z</time></trkpt><trkpt lat="43.586807139512814" lon="6.673351342864155"><ele>287.0</ele><time>2026-04-12T09:38:46Z</time></trkpt><trkpt lat="43.58684488974039" lon="6.673474149274116"><ele>287.0</ele><time>2026-04-12T09:38:48Z</time></trkpt><trkpt lat="43.58687975653441" lon="6.673598831187837"><ele>287.0</ele><time>2026-04-12T09:38:50Z</time></trkpt><trkpt lat="43.58691170404706" lon="6.67372618460372"><ele>287.0</ele><time>2026-04-12T09:38:52Z</time></trkpt><trkpt lat="43.58694129379004" lon="6.673854044437835"><ele>287.0</ele><time>2026-04-12T09:38:54Z</time></trkpt><trkpt lat="43.586974047128095" lon="6.673980998737988"><ele>286.6</ele><time>2026-04-12T09:38:56Z</time></trkpt><trkpt lat="43.587003324763025" lon="6.674110098696454"><ele>286.2</ele><time>2026-04-12T09:38:58Z</time></trkpt><trkpt lat="43.58703626117687" lon="6.674234477681865"><ele>285.8</ele><time>2026-04-12T09:39:00Z</time></trkpt><trkpt lat="43.5870618199993" lon="6.674362684628944"><ele>285.4</ele><time>2026-04-12T09:39:02Z</time></trkpt><trkpt lat="43.587099601506566" lon="6.674485332967339"><ele>285.0</ele><time>2026-04-12T09:39:04Z</time></trkpt><trkpt lat="43.587127350744474" lon="6.674613208994629"><ele>286.0</ele><time>2026-04-12T09:39:06Z</time></trkpt><trkpt lat="43.58715440843153" lon="6.67473688165238"><ele>287.0</ele><time>2026-04-12T09:39:08Z</time></trkpt><trkpt lat="43.58718250581351" lon="6.674861949137712"><ele>288.0</ele><time>2026-04-12T09:39:10Z</time></trkpt><trkpt lat="43.58721001617824" lon="6.674990230844345"><ele>289.0</ele><time>2026-04-12T09:39:12Z</time></trkpt><trkpt lat="43.587241035392196" lon="6.675118162111287"><ele>290.0</ele><time>2026-04-12T09:39:14Z</time></trkpt><trkpt lat="43.58727111510571" lon="6.675239489716698"><ele>290.0</ele><time>2026-04-12T09:39:16Z</time></trkpt><trkpt lat="43.58729930040237" lon="6.675361822455194"><ele>290.0</ele><time>2026-04-12T09:39:18Z</time></trkpt><trkpt lat="43.58732965209075" lon="6.675483491738016"><ele>290.0</ele><time>2026-04-12T09:39:20Z</time></trkpt><trkpt lat="43.587364191125324" lon="6.675600966619061"><ele>290.0</ele><time>2026-04-12T09:39:22Z</time></trkpt><trkpt lat="43.58741773084006" lon="6.675711659040548"><ele>290.0</ele><time>2026-04-12T09:39:24Z</time></trkpt><trkpt lat="43.587480130264844" lon="6.675809455713333"><ele>290.0</ele><time>2026-04-12T09:39:26Z</time></trkpt><trkpt lat="43.5875541634316" lon="6.675887958455252"><ele>290.0</ele><time>2026-04-12T09:39:28Z</time></trkpt><trkpt lat="43.587636698578955" lon="6.675951278464194"><ele>290.0</ele><time>2026-04-12T09:39:30Z</time></trkpt><trkpt lat="43.5877223837861" lon="6.676003123884182"><ele>290.0</ele><time>2026-04-12T09:39:32Z</time></trkpt><trkpt lat="43.58781385684406" lon="6.6760292339416"><ele>290.0</ele><time>2026-04-12T09:39:34Z</time></trkpt><trkpt lat="43.58790900755367" lon="6.676053582287595"><ele>289.8</ele><time>2026-04-12T09:39:36Z</time></trkpt><trkpt lat="43.58800641722843" lon="6.676079208559297"><ele>289.6</ele><time>2026-04-12T09:39:38Z</time></trkpt><trkpt lat="43.588107023088114" lon="6.676101889663907"><ele>289.4</ele><time>2026-04-12T09:39:40Z</time></trkpt><trkpt lat="43.58820799933321" lon="6.676126225276066"><ele>289.2</ele><time>2026-04-12T09:39:42Z</time></trkpt><trkpt lat="43.58830837042908" lon="6.676149391968167"><ele>289.0</ele><time>2026-04-12T09:39:44Z</time></trkpt><trkpt lat="43.58840763531721" lon="6.676175917457093"><ele>289.0</ele><time>2026-04-12T09:39:46Z</time></trkpt><trkpt lat="43.5885063698754" lon="6.676201797134496"><ele>289.0</ele><time>2026-04-12T09:39:48Z</time></trkpt><trkpt lat="43.588604292788716" lon="6.676220935754811"><ele>289.0</ele><time>2026-04-12T09:39:50Z</time></trkpt><trkpt lat="43.588702960185856" lon="6.676250275303725"><ele>289.0</ele><time>2026-04-12T09:39:52Z</time></trkpt><trkpt lat="43.58880219047262" lon="6.676273968072155"><ele>289.0</ele><time>2026-04-12T09:39:54Z</time></trkpt><trkpt lat="43.58890015536238" lon="6.676302159795628"><ele>289.59999999999997</ele><time>2026-04-12T09:39:56Z</time></trkpt><trkpt lat="43.58899810104432" lon="6.676328048931485"><ele>290.2</ele><time>2026-04-12T09:39:58Z</time></trkpt><trkpt lat="43.58909686637133" lon="6.676351841083815"><ele>290.79999999999995</ele><time>2026-04-12T09:40:00Z</time></trkpt><trkpt lat="43.589197842198566" lon="6.676376416438258"><ele>291.4</ele><time>2026-04-12T09:40:02Z</time></trkpt><trkpt lat="43.589300823707525" lon="6.676402244931449"><ele>292.0</ele><time>2026-04-12T09:40:04Z</time></trkpt><trkpt lat="43.58940415365157" lon="6.676425621898966"><ele>292.0</ele><time>2026-04-12T09:40:06Z</time></trkpt><trkpt lat="43.589507074713715" lon="6.676449813677151"><ele>292.0</ele><time>2026-04-12T09:40:08Z</time></trkpt><trkpt lat="43.589610735568115" lon="6.676480748706757"><ele>292.0</ele><time>2026-04-12T09:40:10Z</time></trkpt><trkpt lat="43.58971730755947" lon="6.676506953305596"><ele>292.0</ele><time>2026-04-12T09:40:12Z</time></trkpt><trkpt lat="43.58982432661136" lon="6.676543263377878"><ele>292.0</ele><time>2026-04-12T09:40:14Z</time></trkpt><trkpt lat="43.58992939287088" lon="6.676602379854013"><ele>292.5</ele><time>2026-04-12T09:40:16Z</time></trkpt><trkpt lat="43.59002875794691" lon="6.676683594624315"><ele>293.0</ele><time>2026-04-12T09:40:18Z</time></trkpt><trkpt lat="43.590112823379826" lon="6.676799251414488"><ele>293.5</ele><time>2026-04-12T09:40:20Z</time></trkpt><trkpt lat="43.59017509721469" lon="6.6769358198750455"><ele>294.0</ele><time>2026-04-12T09:40:22Z</time></trkpt><trkpt lat="43.59021990333876" lon="6.677074389903496"><ele>294.0</ele><time>2026-04-12T09:40:24Z</time></trkpt><trkpt lat="43.590243448236365" lon="6.677219945400182"><ele>294.0</ele><time>2026-04-12T09:40:26Z</time></trkpt><trkpt lat="43.590253116697134" lon="6.677368479137335"><ele>294.0</ele><time>2026-04-12T09:40:28Z</time></trkpt><trkpt lat="43.5902519829535" lon="6.677514353280994"><ele>294.0</ele><time>2026-04-12T09:40:30Z</time></trkpt><trkpt lat="43.5902354784111" lon="6.677655489440892"><ele>294.0</ele><time>2026-04-12T09:40:32Z</time></trkpt><trkpt lat="43.590207804434705" lon="6.67778614837772"><ele>295.0</ele><time>2026-04-12T09:40:34Z</time></trkpt><trkpt lat="43.59017112859547" lon="6.677906176231724"><ele>296.0</ele><time>2026-04-12T09:40:36Z</time></trkpt><trkpt lat="43.59012560532657" lon="6.67802024169415"><ele>297.0</ele><time>2026-04-12T09:40:38Z</time></trkpt><trkpt lat="43.590070476974034" lon="6.678124165704369"><ele>298.0</ele><time>2026-04-12T09:40:40Z</time></trkpt><trkpt lat="43.59001241135471" lon="6.678222701361259"><ele>299.0</ele><time>2026-04-12T09:40:42Z</time></trkpt><trkpt lat="43.58995371288249" lon="6.6783207420134"><ele>299.0</ele><time>2026-04-12T09:40:44Z</time></trkpt><trkpt lat="43.58989540880911" lon="6.678421754698611"><ele>299.0</ele><time>2026-04-12T09:40:46Z</time></trkpt><trkpt lat="43.58983691978638" lon="6.678520232804134"><ele>299.0</ele><time>2026-04-12T09:40:48Z</time></trkpt><trkpt lat="43.58977936623696" lon="6.678616801065837"><ele>299.0</ele><time>2026-04-12T09:40:50Z</time></trkpt><trkpt lat="43.58972591908219" lon="6.6787153176909495"><ele>299.0</ele><time>2026-04-12T09:40:52Z</time></trkpt><trkpt lat="43.58966913496401" lon="6.678809026061863"><ele>299.1666666666667</ele><time>2026-04-12T09:40:54Z</time></trkpt><trkpt lat="43.589610864842335" lon="6.678901760083217"><ele>299.33333333333337</ele><time>2026-04-12T09:40:56Z</time></trkpt><trkpt lat="43.58955531936897" lon="6.679000816698644"><ele>299.5</ele><time>2026-04-12T09:40:58Z</time></trkpt><trkpt lat="43.58949943121493" lon="6.679097914845778"><ele>299.6666666666667</ele><time>2026-04-12T09:41:00Z</time></trkpt><trkpt lat="43.58944145404499" lon="6.6791901633398645"><ele>299.8333333333333</ele><time>2026-04-12T09:41:02Z</time></trkpt><trkpt lat="43.589389214329664" lon="6.679287320196047"><ele>300.0</ele><time>2026-04-12T09:41:04Z</time></trkpt><trkpt lat="43.58933385472959" lon="6.6793819363846705"><ele>300.6666666666667</ele><time>2026-04-12T09:41:06Z</time></trkpt><trkpt lat="43.589275734821115" lon="6.679471445838511"><ele>301.3333333333333</ele><time>2026-04-12T09:41:08Z</time></trkpt><trkpt lat="43.589221883619594" lon="6.67956304082862"><ele>302.0</ele><time>2026-04-12T09:41:10Z</time></trkpt><trkpt lat="43.58916682599583" lon="6.679651575466441"><ele>302.66666666666663</ele><time>2026-04-12T09:41:12Z</time></trkpt><trkpt lat="43.58911723101138" lon="6.679744572277467"><ele>303.3333333333333</ele><time>2026-04-12T09:41:14Z</time></trkpt><trkpt lat="43.589069726707784" lon="6.679841170054169"><ele>304.0</ele><time>2026-04-12T09:41:16Z</time></trkpt><trkpt lat="43.58903340848308" lon="6.679947109391144"><ele>304.0</ele><time>2026-04-12T09:41:18Z</time></trkpt><trkpt lat="43.589004753849984" lon="6.680059809924212"><ele>304.0</ele><time>2026-04-12T09:41:20Z</time></trkpt><trkpt lat="43.58898871115065" lon="6.680178340135687"><ele>304.0</ele><time>2026-04-12T09:41:22Z</time></trkpt><trkpt lat="43.588983453429144" lon="6.680300364760487"><ele>304.0</ele><time>2026-04-12T09:41:24Z</time></trkpt><trkpt lat="43.58898483360666" lon="6.68042112584177"><ele>304.0</ele><time>2026-04-12T09:41:26Z</time></trkpt><trkpt lat="43.58899558333302" lon="6.680536623264393"><ele>304.0</ele><time>2026-04-12T09:41:28Z</time></trkpt><trkpt lat="43.58901028015004" lon="6.68065121173286"><ele>304.0</ele><time>2026-04-12T09:41:30Z</time></trkpt><trkpt lat="43.58904038450655" lon="6.680758193449863"><ele>304.0</ele><time>2026-04-12T09:41:32Z</time></trkpt><trkpt lat="43.58908052635434" lon="6.680859864539959"><ele>304.0</ele><time>2026-04-12T09:41:34Z</time></trkpt><trkpt lat="43.58913712689515" lon="6.680956425133348"><ele>304.0</ele><time>2026-04-12T09:41:36Z</time></trkpt><trkpt lat="43.589204659872536" lon="6.681046139801843"><ele>304.0</ele><time>2026-04-12T09:41:38Z</time></trkpt><trkpt lat="43.58928698532829" lon="6.681125634060412"><ele>304.0</ele><time>2026-04-12T09:41:40Z</time></trkpt><trkpt lat="43.589381545632314" lon="6.681189420368786"><ele>304.0</ele><time>2026-04-12T09:41:42Z</time></trkpt><trkpt lat="43.58948481839653" lon="6.681241478233513"><ele>304.0</ele><time>2026-04-12T09:41:44Z</time></trkpt><trkpt lat="43.58959355630145" lon="6.681287540246288"><ele>304.0</ele><time>2026-04-12T09:41:46Z</time></trkpt><trkpt lat="43.589708056740946" lon="6.681338014546576"><ele>304.0</ele><time>2026-04-12T09:41:48Z</time></trkpt><trkpt lat="43.5898220320202" lon="6.681389634234306"><ele>304.0</ele><time>2026-04-12T09:41:50Z</time></trkpt><trkpt lat="43.58994208273578" lon="6.68144096781477"><ele>304.0</ele><time>2026-04-12T09:41:52Z</time></trkpt><trkpt lat="43.590065205405814" lon="6.681491137848434"><ele>304.0</ele><time>2026-04-12T09:41:54Z</time></trkpt><trkpt lat="43.59012884272552" lon="6.681513272009379"><ele>304.0</ele><time>2026-04-12T09:41:55Z</time></trkpt><trkpt lat="43.59019388214758" lon="6.6815379301146365"><ele>304.0</ele><time>2026-04-12T09:41:56Z</time></trkpt><trkpt lat="43.59025964593114" lon="6.681567472245324"><ele>304.0</ele><time>2026-04-12T09:41:57Z</time></trkpt><trkpt lat="43.59032580266188" lon="6.681598782619042"><ele>304.0</ele><time>2026-04-12T09:41:58Z</time></trkpt><trkpt lat="43.59039329004813" lon="6.681629360027657"><ele>304.0</ele><time>2026-04-12T09:41:59Z</time></trkpt><trkpt lat="43.590465938042016" lon="6.681659534522212"><ele>304.0</ele><time>2026-04-12T09:42:00Z</time></trkpt><trkpt lat="43.590536217365596" lon="6.681691330622788"><ele>304.0</ele><time>2026-04-12T09:42:01Z</time></trkpt><trkpt lat="43.59060872581914" lon="6.681722537761273"><ele>304.0</ele><time>2026-04-12T09:42:02Z</time></trkpt><trkpt lat="43.59068402803309" lon="6.681751363509137"><ele>304.0</ele><time>2026-04-12T09:42:03Z</time></trkpt><trkpt lat="43.59075994070905" lon="6.681776567335103"><ele>303.8333333333333</ele><time>2026-04-12T09:42:04Z</time></trkpt><trkpt lat="43.59083375667924" lon="6.681810401128748"><ele>303.66666666666663</ele><time>2026-04-12T09:42:05Z</time></trkpt><trkpt lat="43.59090932076948" lon="6.681840973544929"><ele>303.5</ele><time>2026-04-12T09:42:06Z</time></trkpt><trkpt lat="43.590986199694974" lon="6.681875748336325"><ele>303.3333333333333</ele><time>2026-04-12T09:42:07Z</time></trkpt><trkpt lat="43.59106416397574" lon="6.681907876989064"><ele>303.1666666666667</ele><time>2026-04-12T09:42:08Z</time></trkpt><trkpt lat="43.59114365148384" lon="6.681942326077304"><ele>303.0</ele><time>2026-04-12T09:42:09Z</time></trkpt><trkpt lat="43.591223617286786" lon="6.681978595799138"><ele>301.1666666666667</ele><time>2026-04-12T09:42:10Z</time></trkpt><trkpt lat="43.59130462806358" lon="6.682012658538212"><ele>299.3333333333333</ele><time>2026-04-12T09:42:11Z</time></trkpt><trkpt lat="43.59138541762155" lon="6.68204873526631"><ele>297.5</ele><time>2026-04-12T09:42:12Z</time></trkpt><trkpt lat="43.59146699969864" lon="6.682083570876706"><ele>295.66666666666663</ele><time>2026-04-12T09:42:13Z</time></trkpt><trkpt lat="43.591548933201395" lon="6.6821207723239295"><ele>293.8333333333333</ele><time>2026-04-12T09:42:14Z</time></trkpt><trkpt lat="43.59162971722801" lon="6.682158928238211"><ele>292.0</ele><time>2026-04-12T09:42:15Z</time></trkpt><trkpt lat="43.59171313642906" lon="6.682194146154343"><ele>292.0</ele><time>2026-04-12T09:42:16Z</time></trkpt><trkpt lat="43.59179737238708" lon="6.682228128954336"><ele>292.0</ele><time>2026-04-12T09:42:17Z</time></trkpt><trkpt lat="43.5918802755931" lon="6.682262187911633"><ele>292.0</ele><time>2026-04-12T09:42:18Z</time></trkpt><trkpt lat="43.59196208930181" lon="6.682293408328383"><ele>292.0</ele><time>2026-04-12T09:42:19Z</time></trkpt><trkpt lat="43.59204373996304" lon="6.682328576628036"><ele>292.0</ele><time>2026-04-12T09:42:20Z</time></trkpt><trkpt lat="43.592127260477874" lon="6.682364603439355"><ele>292.0</ele><time>2026-04-12T09:42:21Z</time></trkpt><trkpt lat="43.59221184384156" lon="6.682402003151431"><ele>292.2</ele><time>2026-04-12T09:42:22Z</time></trkpt><trkpt lat="43.59229781429879" lon="6.682440332670965"><ele>292.4</ele><time>2026-04-12T09:42:23Z</time></trkpt><trkpt lat="43.5923871543452" lon="6.682483066415993"><ele>292.6</ele><time>2026-04-12T09:42:24Z</time></trkpt><trkpt lat="43.59247861037915" lon="6.682520474846269"><ele>292.8</ele><time>2026-04-12T09:42:25Z</time></trkpt><trkpt lat="43.59257305759681" lon="6.682559431460812"><ele>293.0</ele><time>2026-04-12T09:42:26Z</time></trkpt><trkpt lat="43.592668161651396" lon="6.6825963060893026"><ele>293.0</ele><time>2026-04-12T09:42:27Z</time></trkpt><trkpt lat="43.59276274011495" lon="6.682635650595096"><ele>293.0</ele><time>2026-04-12T09:42:28Z</time></trkpt><trkpt lat="43.59285902479652" lon="6.682671503262519"><ele>293.0</ele><time>2026-04-12T09:42:29Z</time></trkpt><trkpt lat="43.592956675115154" lon="6.682708114735556"><ele>293.0</ele><time>2026-04-12T09:42:30Z</time></trkpt><trkpt lat="43.59305517343496" lon="6.68273598913195"><ele>293.0</ele><time>2026-04-12T09:42:31Z</time></trkpt><trkpt lat="43.59315483571867" lon="6.682757663994816"><ele>292.8</ele><time>2026-04-12T09:42:32Z</time></trkpt><trkpt lat="43.59325621325834" lon="6.6827761072451635"><ele>292.6</ele><time>2026-04-12T09:42:33Z</time></trkpt><trkpt lat="43.593358948295624" lon="6.682795532512437"><ele>292.4</ele><time>2026-04-12T09:42:34Z</time></trkpt><trkpt lat="43.59346348459801" lon="6.682809394524866"><ele>292.2</ele><time>2026-04-12T09:42:35Z</time></trkpt><trkpt lat="43.59357061706451" lon="6.682824392536507"><ele>292.0</ele><time>2026-04-12T09:42:36Z</time></trkpt><trkpt lat="43.59367794875714" lon="6.682843677479841"><ele>291.4</ele><time>2026-04-12T09:42:37Z</time></trkpt><trkpt lat="43.593785818665445" lon="6.682860986742787"><ele>290.79999999999995</ele><time>2026-04-12T09:42:38Z</time></trkpt><trkpt lat="43.59389453693723" lon="6.682878154664981"><ele>290.2</ele><time>2026-04-12T09:42:39Z</time></trkpt><trkpt lat="43.59400608442279" lon="6.68289569357772"><ele>289.59999999999997</ele><time>2026-04-12T09:42:40Z</time></trkpt><trkpt lat="43.59411502173696" lon="6.682911884872613"><ele>289.0</ele><time>2026-04-12T09:42:41Z</time></trkpt><trkpt lat="43.59422414127301" lon="6.682932158913127"><ele>289.0</ele><time>2026-04-12T09:42:42Z</time></trkpt><trkpt lat="43.59433183758807" lon="6.682962490142696"><ele>289.0</ele><time>2026-04-12T09:42:43Z</time></trkpt><trkpt lat="43.59443797029462" lon="6.683010208309607"><ele>289.0</ele><time>2026-04-12T09:42:44Z</time></trkpt><trkpt lat="43.59453108719899" lon="6.6830904644150175"><ele>289.0</ele><time>2026-04-12T09:42:45Z</time></trkpt><trkpt lat="43.59460213931986" lon="6.683194394414779"><ele>289.0</ele><time>2026-04-12T09:42:46Z</time></trkpt><trkpt lat="43.59465197710772" lon="6.68332428023138"><ele>287.0</ele><time>2026-04-12T09:42:47Z</time></trkpt><trkpt lat="43.594678604354" lon="6.683469550038102"><ele>285.0</ele><time>2026-04-12T09:42:48Z</time></trkpt><trkpt lat="43.59469468086011" lon="6.683613733449252"><ele>283.0</ele><time>2026-04-12T09:42:49Z</time></trkpt><trkpt lat="43.59470356804704" lon="6.683763795407875"><ele>281.0</ele><time>2026-04-12T09:42:50Z</time></trkpt><trkpt lat="43.594693465904435" lon="6.683913401462794"><ele>279.0</ele><time>2026-04-12T09:42:51Z</time></trkpt><trkpt lat="43.59467437327147" lon="6.684063213723796"><ele>278.25</ele><time>2026-04-12T09:42:52Z</time></trkpt><trkpt lat="43.59464332982659" lon="6.684209890334596"><ele>277.5</ele><time>2026-04-12T09:42:53Z</time></trkpt><trkpt lat="43.594603809319814" lon="6.684354849815596"><ele>276.75</ele><time>2026-04-12T09:42:54Z</time></trkpt><trkpt lat="43.59456099308456" lon="6.684499239782113"><ele>276.0</ele><time>2026-04-12T09:42:55Z</time></trkpt><trkpt lat="43.59451642514361" lon="6.684644259018054"><ele>276.5</ele><time>2026-04-12T09:42:56Z</time></trkpt><trkpt lat="43.59447235204054" lon="6.68478816393145"><ele>277.0</ele><time>2026-04-12T09:42:57Z</time></trkpt><trkpt lat="43.59442149127211" lon="6.684933941898143"><ele>277.5</ele><time>2026-04-12T09:42:58Z</time></trkpt><trkpt lat="43.594377386157" lon="6.685084666302899"><ele>278.0</ele><time>2026-04-12T09:42:59Z</time></trkpt><trkpt lat="43.59433233207965" lon="6.685237681152373"><ele>276.25</ele><time>2026-04-12T09:43:00Z</time></trkpt><trkpt lat="43.59428490025737" lon="6.685389011296329"><ele>274.5</ele><time>2026-04-12T09:43:01Z</time></trkpt><trkpt lat="43.59423661388982" lon="6.6855425389433965"><ele>272.75</ele><time>2026-04-12T09:43:02Z</time></trkpt><trkpt lat="43.59419051665217" lon="6.685697023569968"><ele>271.0</ele><time>2026-04-12T09:43:03Z</time></trkpt><trkpt lat="43.59414395625291" lon="6.685853608467142"><ele>271.0</ele><time>2026-04-12T09:43:04Z</time></trkpt><trkpt lat="43.59409815786172" lon="6.686009253330404"><ele>271.0</ele><time>2026-04-12T09:43:05Z</time></trkpt><trkpt lat="43.59405115384586" lon="6.6861651480212805"><ele>271.0</ele><time>2026-04-12T09:43:06Z</time></trkpt><trkpt lat="43.59400423383799" lon="6.686320825319442"><ele>271.0</ele><time>2026-04-12T09:43:07Z</time></trkpt><trkpt lat="43.59395433889558" lon="6.68647281020211"><ele>271.0</ele><time>2026-04-12T09:43:08Z</time></trkpt><trkpt lat="43.59390524080033" lon="6.686626726943239"><ele>271.0</ele><time>2026-04-12T09:43:09Z</time></trkpt><trkpt lat="43.59385397658872" lon="6.686779517469388"><ele>271.0</ele><time>2026-04-12T09:43:10Z</time></trkpt><trkpt lat="43.593806814958086" lon="6.686927100217394"><ele>271.0</ele><time>2026-04-12T09:43:11Z</time></trkpt><trkpt lat="43.59376174403348" lon="6.687072428869415"><ele>271.0</ele><time>2026-04-12T09:43:12Z</time></trkpt><trkpt lat="43.59371507297851" lon="6.687222174692436"><ele>271.0</ele><time>2026-04-12T09:43:13Z</time></trkpt><trkpt lat="43.593670653092225" lon="6.687372673556546"><ele>271.0</ele><time>2026-04-12T09:43:14Z</time></trkpt><trkpt lat="43.59363630060908" lon="6.687529359812501"><ele>271.0</ele><time>2026-04-12T09:43:15Z</time></trkpt><trkpt lat="43.59361917129563" lon="6.6876897444141274"><ele>270.0</ele><time>2026-04-12T09:43:16Z</time></trkpt><trkpt lat="43.59361917516391" lon="6.6878442349019425"><ele>269.0</ele><time>2026-04-12T09:43:17Z</time></trkpt><trkpt lat="43.59362835888752" lon="6.687996957772639"><ele>268.0</ele><time>2026-04-12T09:43:18Z</time></trkpt><trkpt lat="43.59365696702129" lon="6.688146602575208"><ele>267.0</ele><time>2026-04-12T09:43:19Z</time></trkpt><trkpt lat="43.5937041354939" lon="6.688287899864149"><ele>266.0</ele><time>2026-04-12T09:43:20Z</time></trkpt><trkpt lat="43.59376637745471" lon="6.688419750844762"><ele>266.0</ele><time>2026-04-12T09:43:21Z</time></trkpt><trkpt lat="43.59383997478306" lon="6.688540842102103"><ele>266.0</ele><time>2026-04-12T09:43:22Z</time></trkpt><trkpt lat="43.59392413619479" lon="6.688644042236669"><ele>266.0</ele><time>2026-04-12T09:43:23Z</time></trkpt><trkpt lat="43.594017273189834" lon="6.688736141550387"><ele>266.0</ele><time>2026-04-12T09:43:24Z</time></trkpt><trkpt lat="43.594112983514165" lon="6.6888276550789705"><ele>264.0</ele><time>2026-04-12T09:43:25Z</time></trkpt><trkpt lat="43.59420801997358" lon="6.6889240157827015"><ele>262.0</ele><time>2026-04-12T09:43:26Z</time></trkpt><trkpt lat="43.59430004135287" lon="6.689019737802556"><ele>260.0</ele><time>2026-04-12T09:43:27Z</time></trkpt><trkpt lat="43.59438859293782" lon="6.68911561399895"><ele>258.0</ele><time>2026-04-12T09:43:28Z</time></trkpt><trkpt lat="43.59448386927861" lon="6.689197892320363"><ele>257.6</ele><time>2026-04-12T09:43:29Z</time></trkpt><trkpt lat="43.59458465221628" lon="6.689261943201196"><ele>257.20000000000005</ele><time>2026-04-12T09:43:30Z</time></trkpt><trkpt lat="43.59468994729392" lon="6.689306697029116"><ele>256.8</ele><time>2026-04-12T09:43:31Z</time></trkpt><trkpt lat="43.5947975352871" lon="6.689332552931401"><ele>256.40000000000003</ele><time>2026-04-12T09:43:32Z</time></trkpt><trkpt lat="43.59490647464076" lon="6.689341193702719"><ele>256.0</ele><time>2026-04-12T09:43:33Z</time></trkpt><trkpt lat="43.59501563135581" lon="6.689337590992944"><ele>256.0</ele><time>2026-04-12T09:43:34Z</time></trkpt><trkpt lat="43.59512539412157" lon="6.689333905197768"><ele>256.0</ele><time>2026-04-12T09:43:35Z</time></trkpt><trkpt lat="43.59523374774735" lon="6.689330409665848"><ele>256.0</ele><time>2026-04-12T09:43:36Z</time></trkpt><trkpt lat="43.5953424996951" lon="6.689324209358404"><ele>256.0</ele><time>2026-04-12T09:43:37Z</time></trkpt><trkpt lat="43.595451333781575" lon="6.6893177297015125"><ele>256.0</ele><time>2026-04-12T09:43:38Z</time></trkpt><trkpt lat="43.59556037242858" lon="6.6893114734544765"><ele>255.20000000000002</ele><time>2026-04-12T09:43:39Z</time></trkpt><trkpt lat="43.59566996262965" lon="6.6893079008285685"><ele>254.40000000000003</ele><time>2026-04-12T09:43:40Z</time></trkpt><trkpt lat="43.59578052880283" lon="6.689308953031664"><ele>253.6</ele><time>2026-04-12T09:43:41Z</time></trkpt><trkpt lat="43.59589201966833" lon="6.689312622488861"><ele>252.8</ele><time>2026-04-12T09:43:42Z</time></trkpt><trkpt lat="43.59600403352874" lon="6.689319864305778"><ele>252.0</ele><time>2026-04-12T09:43:43Z</time></trkpt><trkpt lat="43.59611429084519" lon="6.689340790111554"><ele>251.2</ele><time>2026-04-12T09:43:44Z</time></trkpt><trkpt lat="43.596221814424304" lon="6.6893763334730005"><ele>250.39999999999998</ele><time>2026-04-12T09:43:45Z</time></trkpt><trkpt lat="43.596327039485836" lon="6.689430427876643"><ele>249.60000000000002</ele><time>2026-04-12T09:43:46Z</time></trkpt><trkpt lat="43.59642890335982" lon="6.689497054104619"><ele>248.8</ele><time>2026-04-12T09:43:47Z</time></trkpt><trkpt lat="43.596524606029696" lon="6.689576520002453"><ele>248.0</ele><time>2026-04-12T09:43:48Z</time></trkpt><trkpt lat="43.59661331854139" lon="6.689666844898097"><ele>247.60000000000002</ele><time>2026-04-12T09:43:49Z</time></trkpt><trkpt lat="43.59669399475069" lon="6.689758151420201"><ele>247.20000000000002</ele><time>2026-04-12T09:43:50Z</time></trkpt><trkpt lat="43.59677044680801" lon="6.68984960081448"><ele>246.8</ele><time>2026-04-12T09:43:51Z</time></trkpt><trkpt lat="43.59683591638779" lon="6.689937742584346"><ele>246.4</ele><time>2026-04-12T09:43:52Z</time></trkpt><trkpt lat="43.59688726621275" lon="6.69002591490717"><ele>246.0</ele><time>2026-04-12T09:43:53Z</time></trkpt><trkpt lat="43.59692860517667" lon="6.690118102706372"><ele>246.0</ele><time>2026-04-12T09:43:54Z</time></trkpt><trkpt lat="43.59695304164609" lon="6.6902217434035345"><ele>246.0</ele><time>2026-04-12T09:43:55Z</time></trkpt><trkpt lat="43.59696239736668" lon="6.690330681141255"><ele>246.0</ele><time>2026-04-12T09:43:56Z</time></trkpt><trkpt lat="43.596957933665124" lon="6.690438663760985"><ele>246.0</ele><time>2026-04-12T09:43:57Z</time></trkpt><trkpt lat="43.59695564612304" lon="6.690548796834211"><ele>246.0</ele><time>2026-04-12T09:43:58Z</time></trkpt><trkpt lat="43.59698161695633" lon="6.690654921619798"><ele>246.0</ele><time>2026-04-12T09:43:59Z</time></trkpt><trkpt lat="43.59703945033875" lon="6.69074042658137"><ele>245.83333333333334</ele><time>2026-04-12T09:44:00Z</time></trkpt><trkpt lat="43.597105210976466" lon="6.690813822634345"><ele>245.66666666666669</ele><time>2026-04-12T09:44:01Z</time></trkpt><trkpt lat="43.59715708054721" lon="6.690904943446325"><ele>245.5</ele><time>2026-04-12T09:44:02Z</time></trkpt><trkpt lat="43.59718357752525" lon="6.691015842176342"><ele>245.33333333333334</ele><time>2026-04-12T09:44:03Z</time></trkpt><trkpt lat="43.59719037195539" lon="6.691133652684"><ele>245.16666666666669</ele><time>2026-04-12T09:44:04Z</time></trkpt><trkpt lat="43.5971966959278" lon="6.691249954305617"><ele>245.0</ele><time>2026-04-12T09:44:05Z</time></trkpt><trkpt lat="43.59720042378262" lon="6.69136583908687"><ele>245.00000000000003</ele><time>2026-04-12T09:44:06Z</time></trkpt><trkpt lat="43.597195561513715" lon="6.691481506406308"><ele>245.0</ele><time>2026-04-12T09:44:07Z</time></trkpt><trkpt lat="43.59718203088211" lon="6.691595526487631"><ele>245.0</ele><time>2026-04-12T09:44:08Z</time></trkpt><trkpt lat="43.597160663001254" lon="6.691708999100699"><ele>245.0</ele><time>2026-04-12T09:44:09Z</time></trkpt><trkpt lat="43.59713894649351" lon="6.691822038020743"><ele>245.00000000000003</ele><time>2026-04-12T09:44:10Z</time></trkpt><trkpt lat="43.597118187207236" lon="6.691936567137852"><ele>245.0</ele><time>2026-04-12T09:44:11Z</time></trkpt><trkpt lat="43.597096591663416" lon="6.692049371483828"><ele>245.00000000000003</ele><time>2026-04-12T09:44:12Z</time></trkpt><trkpt lat="43.59706956431688" lon="6.692162048720088"><ele>245.0</ele><time>2026-04-12T09:44:13Z</time></trkpt><trkpt lat="43.597041427028664" lon="6.692273971268539"><ele>245.0</ele><time>2026-04-12T09:44:14Z</time></trkpt><trkpt lat="43.597012149958196" lon="6.6923843563018375"><ele>245.0</ele><time>2026-04-12T09:44:15Z</time></trkpt><trkpt lat="43.5969784100412" lon="6.692490529758609"><ele>245.00000000000003</ele><time>2026-04-12T09:44:16Z</time></trkpt><trkpt lat="43.59693907141464" lon="6.6925924586323555"><ele>245.0</ele><time>2026-04-12T09:44:17Z</time></trkpt><trkpt lat="43.596897268883566" lon="6.692693379780906"><ele>244.83333333333334</ele><time>2026-04-12T09:44:18Z</time></trkpt><trkpt lat="43.59685428718364" lon="6.692791692339524"><ele>244.66666666666669</ele><time>2026-04-12T09:44:19Z</time></trkpt><trkpt lat="43.59681213228583" lon="6.692887270991479"><ele>244.5</ele><time>2026-04-12T09:44:20Z</time></trkpt><trkpt lat="43.59676901193239" lon="6.69298158385909"><ele>244.33333333333331</ele><time>2026-04-12T09:44:21Z</time></trkpt><trkpt lat="43.59672504710869" lon="6.693075406060663"><ele>244.16666666666666</ele><time>2026-04-12T09:44:22Z</time></trkpt><trkpt lat="43.59668273517745" lon="6.693169232142354"><ele>244.0</ele><time>2026-04-12T09:44:23Z</time></trkpt><trkpt lat="43.59664018881582" lon="6.693261750156111"><ele>243.99999999999997</ele><time>2026-04-12T09:44:24Z</time></trkpt><trkpt lat="43.596595557552234" lon="6.69335142705816"><ele>244.0</ele><time>2026-04-12T09:44:25Z</time></trkpt><trkpt lat="43.59655072161137" lon="6.693441969070671"><ele>244.0</ele><time>2026-04-12T09:44:26Z</time></trkpt><trkpt lat="43.59650710927892" lon="6.693534023602197"><ele>244.0</ele><time>2026-04-12T09:44:27Z</time></trkpt><trkpt lat="43.59646694095067" lon="6.693626820378161"><ele>243.99999999999997</ele><time>2026-04-12T09:44:28Z</time></trkpt><trkpt lat="43.596427221043" lon="6.693719206576604"><ele>244.0</ele><time>2026-04-12T09:44:29Z</time></trkpt><trkpt lat="43.59638370803145" lon="6.693809157381342"><ele>244.83333333333331</ele><time>2026-04-12T09:44:30Z</time></trkpt><trkpt lat="43.59634143819879" lon="6.693898965981182"><ele>245.66666666666666</ele><time>2026-04-12T09:44:31Z</time></trkpt><trkpt lat="43.596304672201654" lon="6.693994054305564"><ele>246.5</ele><time>2026-04-12T09:44:32Z</time></trkpt><trkpt lat="43.596269669576216" lon="6.694091103325232"><ele>247.33333333333331</ele><time>2026-04-12T09:44:33Z</time></trkpt><trkpt lat="43.596234512297485" lon="6.694188672614971"><ele>248.16666666666666</ele><time>2026-04-12T09:44:34Z</time></trkpt><trkpt lat="43.59620290532817" lon="6.6942855905999545"><ele>249.0</ele><time>2026-04-12T09:44:35Z</time></trkpt><trkpt lat="43.59617540902151" lon="6.694383042846376"><ele>248.5</ele><time>2026-04-12T09:44:36Z</time></trkpt><trkpt lat="43.596150672689866" lon="6.694480957502092"><ele>248.0</ele><time>2026-04-12T09:44:37Z</time></trkpt><trkpt lat="43.59612842118862" lon="6.6945814331983255"><ele>247.5</ele><time>2026-04-12T09:44:38Z</time></trkpt><trkpt lat="43.596106385259624" lon="6.694681569145158"><ele>247.0</ele><time>2026-04-12T09:44:39Z</time></trkpt><trkpt lat="43.59608754793336" lon="6.694782852248518"><ele>246.5</ele><time>2026-04-12T09:44:40Z</time></trkpt><trkpt lat="43.596072627732894" lon="6.69488490952478"><ele>246.0</ele><time>2026-04-12T09:44:41Z</time></trkpt><trkpt lat="43.59606346844502" lon="6.694987096289336"><ele>246.00000000000003</ele><time>2026-04-12T09:44:42Z</time></trkpt><trkpt lat="43.59605820714733" lon="6.695090295768374"><ele>246.0</ele><time>2026-04-12T09:44:43Z</time></trkpt><trkpt lat="43.59605826841904" lon="6.695195149225522"><ele>246.00000000000003</ele><time>2026-04-12T09:44:44Z</time></trkpt><trkpt lat="43.59606275241695" lon="6.695298436541921"><ele>246.00000000000003</ele><time>2026-04-12T09:44:45Z</time></trkpt><trkpt lat="43.59607226171576" lon="6.695400317573931"><ele>246.0</ele><time>2026-04-12T09:44:46Z</time></trkpt><trkpt lat="43.59608186598272" lon="6.695500260075504"><ele>246.00000000000003</ele><time>2026-04-12T09:44:47Z</time></trkpt><trkpt lat="43.59609610649777" lon="6.695598009709251"><ele>246.00000000000003</ele><time>2026-04-12T09:44:48Z</time></trkpt><trkpt lat="43.596114251189285" lon="6.695695177267092"><ele>245.8571428571429</ele><time>2026-04-12T09:44:49Z</time></trkpt><trkpt lat="43.596134366986014" lon="6.695789022269327"><ele>245.71428571428572</ele><time>2026-04-12T09:44:50Z</time></trkpt><trkpt lat="43.59615903493358" lon="6.695880877500492"><ele>245.57142857142858</ele><time>2026-04-12T09:44:51Z</time></trkpt><trkpt lat="43.59618698735582" lon="6.695969787895821"><ele>245.42857142857144</ele><time>2026-04-12T09:44:52Z</time></trkpt><trkpt lat="43.59621698889539" lon="6.6960581126618335"><ele>245.28571428571428</ele><time>2026-04-12T09:44:53Z</time></trkpt><trkpt lat="43.596247758368925" lon="6.696147694266681"><ele>245.14285714285714</ele><time>2026-04-12T09:44:54Z</time></trkpt><trkpt lat="43.596276966723835" lon="6.696237151807497"><ele>245.0</ele><time>2026-04-12T09:44:55Z</time></trkpt><trkpt lat="43.59630774452577" lon="6.696326984594293"><ele>245.0</ele><time>2026-04-12T09:44:56Z</time></trkpt><trkpt lat="43.59633878895884" lon="6.696415831496567"><ele>245.0</ele><time>2026-04-12T09:44:57Z</time></trkpt><trkpt lat="43.59636906637603" lon="6.696504470241708"><ele>245.0</ele><time>2026-04-12T09:44:58Z</time></trkpt><trkpt lat="43.596401105350765" lon="6.6965905894376645"><ele>245.0</ele><time>2026-04-12T09:44:59Z</time></trkpt><trkpt lat="43.59643315683099" lon="6.696676984549697"><ele>245.0</ele><time>2026-04-12T09:45:00Z</time></trkpt><trkpt lat="43.59646544422563" lon="6.696762812941266"><ele>245.0</ele><time>2026-04-12T09:45:01Z</time></trkpt><trkpt lat="43.59649693847791" lon="6.6968497255549755"><ele>245.0</ele><time>2026-04-12T09:45:02Z</time></trkpt><trkpt lat="43.59652981379478" lon="6.696937497882949"><ele>245.0</ele><time>2026-04-12T09:45:03Z</time></trkpt><trkpt lat="43.596565160913364" lon="6.697027549134532"><ele>245.0</ele><time>2026-04-12T09:45:04Z</time></trkpt><trkpt lat="43.5965991903099" lon="6.697120749694685"><ele>245.0</ele><time>2026-04-12T09:45:05Z</time></trkpt><trkpt lat="43.596634746760486" lon="6.6972113595832"><ele>245.0</ele><time>2026-04-12T09:45:06Z</time></trkpt><trkpt lat="43.59667102288716" lon="6.697299987833333"><ele>245.0</ele><time>2026-04-12T09:45:07Z</time></trkpt><trkpt lat="43.596707255602404" lon="6.697387855185463"><ele>245.0</ele><time>2026-04-12T09:45:08Z</time></trkpt><trkpt lat="43.596746306132594" lon="6.697473469867715"><ele>245.0</ele><time>2026-04-12T09:45:09Z</time></trkpt><trkpt lat="43.596789370038245" lon="6.6975541923141995"><ele>245.0</ele><time>2026-04-12T09:45:10Z</time></trkpt><trkpt lat="43.59683382582554" lon="6.697633572699282"><ele>245.0</ele><time>2026-04-12T09:45:11Z</time></trkpt><trkpt lat="43.59688032085" lon="6.697708135443633"><ele>245.0</ele><time>2026-04-12T09:45:12Z</time></trkpt><trkpt lat="43.59693049834047" lon="6.697779085866218"><ele>245.0</ele><time>2026-04-12T09:45:13Z</time></trkpt><trkpt lat="43.59698170827352" lon="6.697848018847025"><ele>245.0</ele><time>2026-04-12T09:45:14Z</time></trkpt><trkpt lat="43.597033440950696" lon="6.697915778916611"><ele>245.0</ele><time>2026-04-12T09:45:15Z</time></trkpt><trkpt lat="43.597088814206074" lon="6.697977107093745"><ele>245.0</ele><time>2026-04-12T09:45:16Z</time></trkpt><trkpt lat="43.59714375528239" lon="6.698039495807628"><ele>245.0</ele><time>2026-04-12T09:45:17Z</time></trkpt><trkpt lat="43.59720308621977" lon="6.698096088724221"><ele>245.0</ele><time>2026-04-12T09:45:18Z</time></trkpt><trkpt lat="43.597262022275075" lon="6.698149017045086"><ele>245.0</ele><time>2026-04-12T09:45:19Z</time></trkpt><trkpt lat="43.59732178453105" lon="6.698203189913917"><ele>245.0</ele><time>2026-04-12T09:45:20Z</time></trkpt><trkpt lat="43.59738091023181" lon="6.698253158502128"><ele>245.0</ele><time>2026-04-12T09:45:21Z</time></trkpt><trkpt lat="43.59744291821683" lon="6.698304309407181"><ele>245.0</ele><time>2026-04-12T09:45:22Z</time></trkpt><trkpt lat="43.597504255295455" lon="6.698353545015298"><ele>245.0</ele><time>2026-04-12T09:45:23Z</time></trkpt><trkpt lat="43.59756545480064" lon="6.698401927428594"><ele>245.0</ele><time>2026-04-12T09:45:24Z</time></trkpt><trkpt lat="43.59762945522724" lon="6.698442909615925"><ele>245.0</ele><time>2026-04-12T09:45:25Z</time></trkpt><trkpt lat="43.597694731057224" lon="6.698479464807468"><ele>245.0</ele><time>2026-04-12T09:45:26Z</time></trkpt><trkpt lat="43.59776074779005" lon="6.698512050387604"><ele>245.0</ele><time>2026-04-12T09:45:27Z</time></trkpt><trkpt lat="43.59782998182739" lon="6.698544677914656"><ele>245.0</ele><time>2026-04-12T09:45:28Z</time></trkpt><trkpt lat="43.59789821783627" lon="6.698572122506088"><ele>245.0</ele><time>2026-04-12T09:45:29Z</time></trkpt><trkpt lat="43.59797230992199" lon="6.698591599245832"><ele>245.0</ele><time>2026-04-12T09:45:30Z</time></trkpt><trkpt lat="43.598040576787234" lon="6.698619594252579"><ele>244.83333333333334</ele><time>2026-04-12T09:45:31Z</time></trkpt><trkpt lat="43.59811299174662" lon="6.698641893483961"><ele>244.66666666666669</ele><time>2026-04-12T09:45:32Z</time></trkpt><trkpt lat="43.59818679340478" lon="6.698661646636637"><ele>244.5</ele><time>2026-04-12T09:45:33Z</time></trkpt><trkpt lat="43.59826219021359" lon="6.69868132591974"><ele>244.33333333333331</ele><time>2026-04-12T09:45:34Z</time></trkpt><trkpt lat="43.59834111258972" lon="6.698702099456137"><ele>244.16666666666666</ele><time>2026-04-12T09:45:35Z</time></trkpt><trkpt lat="43.59841894246512" lon="6.698722990621903"><ele>244.0</ele><time>2026-04-12T09:45:36Z</time></trkpt><trkpt lat="43.598500562559686" lon="6.69874238811524"><ele>243.99999999999997</ele><time>2026-04-12T09:45:37Z</time></trkpt><trkpt lat="43.59858372548911" lon="6.698763081486524"><ele>244.0</ele><time>2026-04-12T09:45:38Z</time></trkpt><trkpt lat="43.598668457834016" lon="6.698785034951621"><ele>244.0</ele><time>2026-04-12T09:45:39Z</time></trkpt><trkpt lat="43.59875456547899" lon="6.698805866160512"><ele>244.0</ele><time>2026-04-12T09:45:40Z</time></trkpt><trkpt lat="43.598841618877486" lon="6.698826027742108"><ele>243.99999999999997</ele><time>2026-04-12T09:45:41Z</time></trkpt><trkpt lat="43.598929473670054" lon="6.698847226318838"><ele>244.0</ele><time>2026-04-12T09:45:42Z</time></trkpt><trkpt lat="43.59901723394577" lon="6.698872423308129"><ele>243.0</ele><time>2026-04-12T09:45:43Z</time></trkpt><trkpt lat="43.599106422879665" lon="6.698892040475312"><ele>241.99999999999997</ele><time>2026-04-12T09:45:44Z</time></trkpt><trkpt lat="43.599196807340164" lon="6.69891312764099"><ele>240.99999999999997</ele><time>2026-04-12T09:45:45Z</time></trkpt><trkpt lat="43.59928600177825" lon="6.698938736412193"><ele>240.0</ele><time>2026-04-12T09:45:46Z</time></trkpt><trkpt lat="43.59937658458494" lon="6.698962129479123"><ele>239.0</ele><time>2026-04-12T09:45:47Z</time></trkpt><trkpt lat="43.59946775583673" lon="6.698983934822935"><ele>238.39999999999998</ele><time>2026-04-12T09:45:48Z</time></trkpt><trkpt lat="43.599560600234895" lon="6.699004856159839"><ele>237.79999999999998</ele><time>2026-04-12T09:45:49Z</time></trkpt><trkpt lat="43.59965574489779" lon="6.699031401449166"><ele>237.20000000000002</ele><time>2026-04-12T09:45:50Z</time></trkpt><trkpt lat="43.59974988512164" lon="6.69905374607878"><ele>236.60000000000002</ele><time>2026-04-12T09:45:51Z</time></trkpt><trkpt lat="43.59984790136939" lon="6.699078159272577"><ele>236.0</ele><time>2026-04-12T09:45:52Z</time></trkpt><trkpt lat="43.59994490352512" lon="6.699104127979898"><ele>236.0</ele><time>2026-04-12T09:45:53Z</time></trkpt><trkpt lat="43.60004406920484" lon="6.699127202833764"><ele>236.00000000000003</ele><time>2026-04-12T09:45:54Z</time></trkpt><trkpt lat="43.60014380796944" lon="6.699153192234379"><ele>236.00000000000003</ele><time>2026-04-12T09:45:55Z</time></trkpt><trkpt lat="43.60024580441448" lon="6.699177983492455"><ele>236.0</ele><time>2026-04-12T09:45:56Z</time></trkpt><trkpt lat="43.60034893320557" lon="6.699200979529637"><ele>236.0</ele><time>2026-04-12T09:45:57Z</time></trkpt><trkpt lat="43.600452926600646" lon="6.699227249842034"><ele>235.60000000000002</ele><time>2026-04-12T09:45:58Z</time></trkpt><trkpt lat="43.60055835427276" lon="6.699253732875242"><ele>235.20000000000002</ele><time>2026-04-12T09:45:59Z</time></trkpt><trkpt lat="43.60066524028134" lon="6.699278380767055"><ele>234.79999999999998</ele><time>2026-04-12T09:46:00Z</time></trkpt><trkpt lat="43.60077215288955" lon="6.699301938592313"><ele>234.39999999999998</ele><time>2026-04-12T09:46:01Z</time></trkpt><trkpt lat="43.600879226833484" lon="6.699329971001511"><ele>234.0</ele><time>2026-04-12T09:46:02Z</time></trkpt><trkpt lat="43.60098786332688" lon="6.699356880997607"><ele>234.0</ele><time>2026-04-12T09:46:03Z</time></trkpt><trkpt lat="43.60109752886278" lon="6.699384397357503"><ele>233.99999999999997</ele><time>2026-04-12T09:46:04Z</time></trkpt><trkpt lat="43.601207089140146" lon="6.699413085178431"><ele>233.99999999999997</ele><time>2026-04-12T09:46:05Z</time></trkpt><trkpt lat="43.60131611815945" lon="6.699440489832913"><ele>234.0</ele><time>2026-04-12T09:46:06Z</time></trkpt><trkpt lat="43.601425724411286" lon="6.699469369670365"><ele>234.0</ele><time>2026-04-12T09:46:07Z</time></trkpt><trkpt lat="43.601535743702684" lon="6.699494980597627"><ele>233.39999999999998</ele><time>2026-04-12T09:46:08Z</time></trkpt><trkpt lat="43.60164560055135" lon="6.699521835938824"><ele>232.79999999999998</ele><time>2026-04-12T09:46:09Z</time></trkpt><trkpt lat="43.60175454427676" lon="6.69955005905355"><ele>232.20000000000002</ele><time>2026-04-12T09:46:10Z</time></trkpt><trkpt lat="43.60186370567749" lon="6.699577330717449"><ele>231.60000000000002</ele><time>2026-04-12T09:46:11Z</time></trkpt><trkpt lat="43.601973122491835" lon="6.699605157986216"><ele>231.0</ele><time>2026-04-12T09:46:12Z</time></trkpt><trkpt lat="43.60208193402328" lon="6.699631696198005"><ele>229.4</ele><time>2026-04-12T09:46:13Z</time></trkpt><trkpt lat="43.602189819099735" lon="6.699660742811579"><ele>227.8</ele><time>2026-04-12T09:46:14Z</time></trkpt><trkpt lat="43.602297326473945" lon="6.699685315634477"><ele>226.20000000000002</ele><time>2026-04-12T09:46:15Z</time></trkpt><trkpt lat="43.60240526677546" lon="6.699709676996494"><ele>224.60000000000002</ele><time>2026-04-12T09:46:16Z</time></trkpt><trkpt lat="43.60251179257209" lon="6.699736809686033"><ele>223.0</ele><time>2026-04-12T09:46:17Z</time></trkpt><trkpt lat="43.60261704063683" lon="6.699766712259531"><ele>223.0</ele><time>2026-04-12T09:46:18Z</time></trkpt><trkpt lat="43.60272239452518" lon="6.699794604157103"><ele>223.0</ele><time>2026-04-12T09:46:19Z</time></trkpt><trkpt lat="43.602825311638796" lon="6.699824255386003"><ele>223.0</ele><time>2026-04-12T09:46:20Z</time></trkpt><trkpt lat="43.6029252464429" lon="6.699850690884366"><ele>223.0</ele><time>2026-04-12T09:46:21Z</time></trkpt><trkpt lat="43.603026153055026" lon="6.699879850070303"><ele>223.0</ele><time>2026-04-12T09:46:22Z</time></trkpt><trkpt lat="43.60312420085163" lon="6.699907080366823"><ele>222.4</ele><time>2026-04-12T09:46:23Z</time></trkpt><trkpt lat="43.60322153373055" lon="6.699936117704594"><ele>221.8</ele><time>2026-04-12T09:46:24Z</time></trkpt><trkpt lat="43.6033159536581" lon="6.699969382653737"><ele>221.2</ele><time>2026-04-12T09:46:25Z</time></trkpt><trkpt lat="43.603408728495474" lon="6.7000041021485135"><ele>220.6</ele><time>2026-04-12T09:46:26Z</time></trkpt><trkpt lat="43.60349766124683" lon="6.700039604965221"><ele>220.0</ele><time>2026-04-12T09:46:27Z</time></trkpt><trkpt lat="43.60358766985348" lon="6.700077017313517"><ele>220.0</ele><time>2026-04-12T09:46:28Z</time></trkpt><trkpt lat="43.60367437999971" lon="6.700116063142893"><ele>220.0</ele><time>2026-04-12T09:46:29Z</time></trkpt><trkpt lat="43.603761470176345" lon="6.70015776818008"><ele>220.0</ele><time>2026-04-12T09:46:30Z</time></trkpt><trkpt lat="43.60384889940049" lon="6.700200808724134"><ele>220.0</ele><time>2026-04-12T09:46:31Z</time></trkpt><trkpt lat="43.60393748326495" lon="6.700243695635286"><ele>220.0</ele><time>2026-04-12T09:46:32Z</time></trkpt><trkpt lat="43.60402764254165" lon="6.700289744351334"><ele>219.4</ele><time>2026-04-12T09:46:33Z</time></trkpt><trkpt lat="43.6041174645207" lon="6.700332501753555"><ele>218.8</ele><time>2026-04-12T09:46:34Z</time></trkpt><trkpt lat="43.60420784743445" lon="6.70037448350856"><ele>218.2</ele><time>2026-04-12T09:46:35Z</time></trkpt><trkpt lat="43.60429936085163" lon="6.7004190428691395"><ele>217.6</ele><time>2026-04-12T09:46:36Z</time></trkpt><trkpt lat="43.604390206353095" lon="6.700461533680925"><ele>217.0</ele><time>2026-04-12T09:46:37Z</time></trkpt><trkpt lat="43.60448431775701" lon="6.700502583269073"><ele>217.0</ele><time>2026-04-12T09:46:38Z</time></trkpt><trkpt lat="43.604577461910985" lon="6.700541412142915"><ele>217.0</ele><time>2026-04-12T09:46:39Z</time></trkpt><trkpt lat="43.60466923473379" lon="6.700583259533715"><ele>217.0</ele><time>2026-04-12T09:46:40Z</time></trkpt><trkpt lat="43.604760627927604" lon="6.7006270860081765"><ele>217.0</ele><time>2026-04-12T09:46:41Z</time></trkpt><trkpt lat="43.60485237139756" lon="6.70066914664367"><ele>217.0</ele><time>2026-04-12T09:46:42Z</time></trkpt><trkpt lat="43.604943919595" lon="6.700710965889228"><ele>217.0</ele><time>2026-04-12T09:46:43Z</time></trkpt><trkpt lat="43.60503507399003" lon="6.700753950727023"><ele>217.0</ele><time>2026-04-12T09:46:44Z</time></trkpt><trkpt lat="43.60512617536445" lon="6.700797364989238"><ele>217.0</ele><time>2026-04-12T09:46:45Z</time></trkpt><trkpt lat="43.60521834160586" lon="6.7008380576763"><ele>217.0</ele><time>2026-04-12T09:46:46Z</time></trkpt><trkpt lat="43.60530692079516" lon="6.700878132217371"><ele>217.0</ele><time>2026-04-12T09:46:47Z</time></trkpt><trkpt lat="43.60539440673414" lon="6.700918851827166"><ele>216.99999999999997</ele><time>2026-04-12T09:46:48Z</time></trkpt><trkpt lat="43.605480196249324" lon="6.700957425558297"><ele>217.0</ele><time>2026-04-12T09:46:49Z</time></trkpt><trkpt lat="43.60556328519708" lon="6.70099698802455"><ele>217.0</ele><time>2026-04-12T09:46:50Z</time></trkpt><trkpt lat="43.60564515424312" lon="6.701035168818662"><ele>217.0</ele><time>2026-04-12T09:46:51Z</time></trkpt><trkpt lat="43.60572608388452" lon="6.701072346383716"><ele>216.99999999999997</ele><time>2026-04-12T09:46:52Z</time></trkpt><trkpt lat="43.605805634169464" lon="6.701109618333898"><ele>217.0</ele><time>2026-04-12T09:46:53Z</time></trkpt><trkpt lat="43.60588283692907" lon="6.701146945334763"><ele>216.99999999999997</ele><time>2026-04-12T09:46:54Z</time></trkpt><trkpt lat="43.605959858527385" lon="6.701184784064316"><ele>217.0</ele><time>2026-04-12T09:46:55Z</time></trkpt><trkpt lat="43.606034655041086" lon="6.701222815992312"><ele>217.0</ele><time>2026-04-12T09:46:56Z</time></trkpt><trkpt lat="43.60610833186162" lon="6.701262989825472"><ele>217.0</ele><time>2026-04-12T09:46:57Z</time></trkpt><trkpt lat="43.606179961989874" lon="6.7013085139973665"><ele>216.99999999999997</ele><time>2026-04-12T09:46:58Z</time></trkpt><trkpt lat="43.6062504754886" lon="6.70135722210515"><ele>217.0</ele><time>2026-04-12T09:46:59Z</time></trkpt><trkpt lat="43.60631815401295" lon="6.701410812913039"><ele>216.99999999999997</ele><time>2026-04-12T09:47:00Z</time></trkpt><trkpt lat="43.60638353404023" lon="6.701472001109853"><ele>217.0</ele><time>2026-04-12T09:47:01Z</time></trkpt><trkpt lat="43.606446963835154" lon="6.701540221772238"><ele>217.0</ele><time>2026-04-12T09:47:02Z</time></trkpt><trkpt lat="43.60650605873781" lon="6.701616015415878"><ele>217.0</ele><time>2026-04-12T09:47:03Z</time></trkpt><trkpt lat="43.606563794273406" lon="6.70169835435817"><ele>216.99999999999997</ele><time>2026-04-12T09:47:04Z</time></trkpt><trkpt lat="43.60661742818139" lon="6.701783561804836"><ele>217.0</ele><time>2026-04-12T09:47:05Z</time></trkpt><trkpt lat="43.60666746980448" lon="6.701874904651691"><ele>216.83333333333331</ele><time>2026-04-12T09:47:06Z</time></trkpt><trkpt lat="43.60671524969766" lon="6.7019689242881855"><ele>216.66666666666666</ele><time>2026-04-12T09:47:07Z</time></trkpt><trkpt lat="43.60675762217559" lon="6.702064809076427"><ele>216.5</ele><time>2026-04-12T09:47:08Z</time></trkpt><trkpt lat="43.606790531797095" lon="6.702170029582913"><ele>216.33333333333331</ele><time>2026-04-12T09:47:09Z</time></trkpt><trkpt lat="43.60681987082031" lon="6.702276347916162"><ele>216.16666666666666</ele><time>2026-04-12T09:47:10Z</time></trkpt><trkpt lat="43.60684782064675" lon="6.702386327691705"><ele>216.0</ele><time>2026-04-12T09:47:11Z</time></trkpt><trkpt lat="43.60687269980734" lon="6.702496958821546"><ele>216.0</ele><time>2026-04-12T09:47:12Z</time></trkpt><trkpt lat="43.6068956849825" lon="6.702608014043799"><ele>216.0</ele><time>2026-04-12T09:47:13Z</time></trkpt><trkpt lat="43.606915242970715" lon="6.702721271441241"><ele>216.0</ele><time>2026-04-12T09:47:14Z</time></trkpt><trkpt lat="43.60693251925148" lon="6.702833615391867"><ele>216.0</ele><time>2026-04-12T09:47:15Z</time></trkpt><trkpt lat="43.60695051015897" lon="6.702947134693263"><ele>216.0</ele><time>2026-04-12T09:47:16Z</time></trkpt><trkpt lat="43.606964009740636" lon="6.703063608350082"><ele>216.0</ele><time>2026-04-12T09:47:17Z</time></trkpt><trkpt lat="43.60697973536418" lon="6.703180647144433"><ele>215.5</ele><time>2026-04-12T09:47:18Z</time></trkpt><trkpt lat="43.60699462158241" lon="6.7032968955732395"><ele>215.0</ele><time>2026-04-12T09:47:19Z</time></trkpt><trkpt lat="43.60700729237228" lon="6.703414938815012"><ele>214.5</ele><time>2026-04-12T09:47:20Z</time></trkpt><trkpt lat="43.607021486267804" lon="6.703531202062707"><ele>214.0</ele><time>2026-04-12T09:47:21Z</time></trkpt><trkpt lat="43.607034148132" lon="6.703649748916294"><ele>213.5</ele><time>2026-04-12T09:47:22Z</time></trkpt><trkpt lat="43.607047656644966" lon="6.703768927154275"><ele>213.0</ele><time>2026-04-12T09:47:23Z</time></trkpt><trkpt lat="43.6070665245018" lon="6.703888097831723"><ele>213.0</ele><time>2026-04-12T09:47:24Z</time></trkpt><trkpt lat="43.607083716662494" lon="6.70400766044685"><ele>213.0</ele><time>2026-04-12T09:47:25Z</time></trkpt><trkpt lat="43.60710118558319" lon="6.704127833137526"><ele>213.0</ele><time>2026-04-12T09:47:26Z</time></trkpt><trkpt lat="43.607117630157425" lon="6.704248505406444"><ele>213.0</ele><time>2026-04-12T09:47:27Z</time></trkpt><trkpt lat="43.60713234547337" lon="6.704368474730494"><ele>213.0</ele><time>2026-04-12T09:47:28Z</time></trkpt><trkpt lat="43.607150229170166" lon="6.704486291872424"><ele>213.0</ele><time>2026-04-12T09:47:29Z</time></trkpt><trkpt lat="43.607166012493785" lon="6.704605342722227"><ele>212.83333333333334</ele><time>2026-04-12T09:47:30Z</time></trkpt><trkpt lat="43.60718163364592" lon="6.704723246948043"><ele>212.66666666666669</ele><time>2026-04-12T09:47:31Z</time></trkpt><trkpt lat="43.607195917894344" lon="6.7048390815313645"><ele>212.5</ele><time>2026-04-12T09:47:32Z</time></trkpt><trkpt lat="43.60721125456589" lon="6.7049526162433954"><ele>212.33333333333334</ele><time>2026-04-12T09:47:33Z</time></trkpt><trkpt lat="43.60722620560412" lon="6.705065347909284"><ele>212.16666666666669</ele><time>2026-04-12T09:47:34Z</time></trkpt><trkpt lat="43.60724159824812" lon="6.705175929417603"><ele>212.0</ele><time>2026-04-12T09:47:35Z</time></trkpt><trkpt lat="43.60725608674491" lon="6.705285880969556"><ele>212.33333333333334</ele><time>2026-04-12T09:47:36Z</time></trkpt><trkpt lat="43.60727176838668" lon="6.705394859658397"><ele>212.66666666666669</ele><time>2026-04-12T09:47:37Z</time></trkpt><trkpt lat="43.6072873324076" lon="6.705500678369407"><ele>213.0</ele><time>2026-04-12T09:47:38Z</time></trkpt><trkpt lat="43.60730318042223" lon="6.705606856599212"><ele>213.33333333333331</ele><time>2026-04-12T09:47:39Z</time></trkpt><trkpt lat="43.60731891000544" lon="6.70571187116895"><ele>213.66666666666666</ele><time>2026-04-12T09:47:40Z</time></trkpt><trkpt lat="43.607335791566676" lon="6.705813842654857"><ele>214.0</ele><time>2026-04-12T09:47:41Z</time></trkpt><trkpt lat="43.60735405931711" lon="6.705915376956808"><ele>214.00000000000003</ele><time>2026-04-12T09:47:42Z</time></trkpt><trkpt lat="43.60737160275271" lon="6.70601722241868"><ele>214.0</ele><time>2026-04-12T09:47:43Z</time></trkpt><trkpt lat="43.607388557200665" lon="6.706116884126366"><ele>214.0</ele><time>2026-04-12T09:47:44Z</time></trkpt><trkpt lat="43.607406732389116" lon="6.7062141101255035"><ele>214.0</ele><time>2026-04-12T09:47:45Z</time></trkpt><trkpt lat="43.60742563342627" lon="6.706312198188477"><ele>214.0</ele><time>2026-04-12T09:47:46Z</time></trkpt><trkpt lat="43.60744476067353" lon="6.706408667146285"><ele>214.00000000000003</ele><time>2026-04-12T09:47:47Z</time></trkpt><trkpt lat="43.6074613711698" lon="6.706506872076885"><ele>214.0</ele><time>2026-04-12T09:47:48Z</time></trkpt><trkpt lat="43.60747632854529" lon="6.706603508839342"><ele>213.85714285714286</ele><time>2026-04-12T09:47:49Z</time></trkpt><trkpt lat="43.60749098983113" lon="6.706699375705858"><ele>213.71428571428572</ele><time>2026-04-12T09:47:50Z</time></trkpt><trkpt lat="43.607506320388914" lon="6.706793726424617"><ele>213.57142857142856</ele><time>2026-04-12T09:47:51Z</time></trkpt><trkpt lat="43.60751996349783" lon="6.7068872252235545"><ele>213.42857142857144</ele><time>2026-04-12T09:47:52Z</time></trkpt><trkpt lat="43.60753111518297" lon="6.706979280303068"><ele>213.28571428571428</ele><time>2026-04-12T09:47:53Z</time></trkpt><trkpt lat="43.60754219598918" lon="6.7070705361419485"><ele>213.14285714285714</ele><time>2026-04-12T09:47:54Z</time></trkpt><trkpt lat="43.607552677576656" lon="6.70715993535357"><ele>213.0</ele><time>2026-04-12T09:47:55Z</time></trkpt><trkpt lat="43.607564408226274" lon="6.707250643726013"><ele>212.99999999999997</ele><time>2026-04-12T09:47:56Z</time></trkpt><trkpt lat="43.6075745294663" lon="6.707339940563347"><ele>213.0</ele><time>2026-04-12T09:47:57Z</time></trkpt><trkpt lat="43.60758383024055" lon="6.7074292067401124"><ele>213.0</ele><time>2026-04-12T09:47:58Z</time></trkpt><trkpt lat="43.6075925077122" lon="6.7075197563545945"><ele>213.0</ele><time>2026-04-12T09:47:59Z</time></trkpt><trkpt lat="43.607601732050334" lon="6.707610567560369"><ele>213.0</ele><time>2026-04-12T09:48:00Z</time></trkpt><trkpt lat="43.607613027464495" lon="6.70770386462348"><ele>212.99999999999997</ele><time>2026-04-12T09:48:01Z</time></trkpt><trkpt lat="43.60762441602015" lon="6.707797941051146"><ele>213.0</ele><time>2026-04-12T09:48:02Z</time></trkpt><trkpt lat="43.607636206169225" lon="6.707893568939418"><ele>212.99999999999997</ele><time>2026-04-12T09:48:03Z</time></trkpt><trkpt lat="43.60764674392142" lon="6.707992173928092"><ele>213.0</ele><time>2026-04-12T09:48:04Z</time></trkpt><trkpt lat="43.607655995981624" lon="6.708091013755733"><ele>213.0</ele><time>2026-04-12T09:48:05Z</time></trkpt><trkpt lat="43.60766657748376" lon="6.708188921885459"><ele>213.0</ele><time>2026-04-12T09:48:06Z</time></trkpt><trkpt lat="43.607676633261526" lon="6.708285050824529"><ele>213.0</ele><time>2026-04-12T09:48:07Z</time></trkpt><trkpt lat="43.6076871542849" lon="6.708380197250593"><ele>212.99999999999997</ele><time>2026-04-12T09:48:08Z</time></trkpt><trkpt lat="43.60769828358036" lon="6.708475855581407"><ele>213.0</ele><time>2026-04-12T09:48:09Z</time></trkpt><trkpt lat="43.60771009137727" lon="6.708572680530858"><ele>213.14285714285714</ele><time>2026-04-12T09:48:10Z</time></trkpt><trkpt lat="43.60772069599754" lon="6.708670188160605"><ele>213.28571428571428</ele><time>2026-04-12T09:48:11Z</time></trkpt><trkpt lat="43.60773084655524" lon="6.708768427491187"><ele>213.42857142857144</ele><time>2026-04-12T09:48:12Z</time></trkpt><trkpt lat="43.60774353673675" lon="6.70886510752357"><ele>213.57142857142856</ele><time>2026-04-12T09:48:13Z</time></trkpt><trkpt lat="43.607756779032904" lon="6.708963454984263"><ele>213.71428571428572</ele><time>2026-04-12T09:48:14Z</time></trkpt><trkpt lat="43.60776622252626" lon="6.709064382242746"><ele>213.85714285714286</ele><time>2026-04-12T09:48:15Z</time></trkpt><trkpt lat="43.60777796640048" lon="6.709164800621069"><ele>214.0</ele><time>2026-04-12T09:48:16Z</time></trkpt><trkpt lat="43.607789915166286" lon="6.709264309234414"><ele>214.00000000000003</ele><time>2026-04-12T09:48:17Z</time></trkpt><trkpt lat="43.607802690632646" lon="6.709363955285189"><ele>214.0</ele><time>2026-04-12T09:48:18Z</time></trkpt><trkpt lat="43.60781591416547" lon="6.709463510689137"><ele>214.0</ele><time>2026-04-12T09:48:19Z</time></trkpt><trkpt lat="43.60782854259053" lon="6.709563085328769"><ele>214.0</ele><time>2026-04-12T09:48:20Z</time></trkpt><trkpt lat="43.60784187317472" lon="6.7096612783831"><ele>214.0</ele><time>2026-04-12T09:48:21Z</time></trkpt><trkpt lat="43.60785596699537" lon="6.709760751014978"><ele>214.00000000000003</ele><time>2026-04-12T09:48:22Z</time></trkpt><trkpt lat="43.60787086734615" lon="6.709863046256181"><ele>214.0</ele><time>2026-04-12T09:48:23Z</time></trkpt><trkpt lat="43.607884755561955" lon="6.709966889194133"><ele>213.99999999999997</ele><time>2026-04-12T09:48:24Z</time></trkpt><trkpt lat="43.60789519363881" lon="6.710071413572813"><ele>214.0</ele><time>2026-04-12T09:48:25Z</time></trkpt><trkpt lat="43.60790736308962" lon="6.710175058565509"><ele>214.0</ele><time>2026-04-12T09:48:26Z</time></trkpt><trkpt lat="43.607922818883324" lon="6.710278256764935"><ele>214.0</ele><time>2026-04-12T09:48:27Z</time></trkpt><trkpt lat="43.607935543233296" lon="6.710380969362199"><ele>213.99999999999997</ele><time>2026-04-12T09:48:28Z</time></trkpt><trkpt lat="43.60794907731383" lon="6.710483121491352"><ele>214.0</ele><time>2026-04-12T09:48:29Z</time></trkpt><trkpt lat="43.60796547938689" lon="6.710582368433536"><ele>213.85714285714286</ele><time>2026-04-12T09:48:30Z</time></trkpt><trkpt lat="43.60797895337186" lon="6.710678040664812"><ele>213.71428571428572</ele><time>2026-04-12T09:48:31Z</time></trkpt><trkpt lat="43.60799317547046" lon="6.7107703001946515"><ele>213.57142857142856</ele><time>2026-04-12T09:48:32Z</time></trkpt><trkpt lat="43.608004945807004" lon="6.710865861659855"><ele>213.42857142857144</ele><time>2026-04-12T09:48:33Z</time></trkpt><trkpt lat="43.60801176310867" lon="6.710960522620297"><ele>213.28571428571428</ele><time>2026-04-12T09:48:34Z</time></trkpt><trkpt lat="43.608015371548156" lon="6.711056519770177"><ele>213.14285714285714</ele><time>2026-04-12T09:48:35Z</time></trkpt><trkpt lat="43.60800720685214" lon="6.711155640272397"><ele>213.0</ele><time>2026-04-12T09:48:36Z</time></trkpt><trkpt lat="43.6079867860805" lon="6.711258584153381"><ele>213.33333333333334</ele><time>2026-04-12T09:48:37Z</time></trkpt><trkpt lat="43.60796569151804" lon="6.711365362470076"><ele>213.66666666666669</ele><time>2026-04-12T09:48:38Z</time></trkpt><trkpt lat="43.60797646846715" lon="6.711477000087572"><ele>214.0</ele><time>2026-04-12T09:48:39Z</time></trkpt><trkpt lat="43.60801649383588" lon="6.711583133277264"><ele>214.33333333333334</ele><time>2026-04-12T09:48:40Z</time></trkpt><trkpt lat="43.60807075866441" lon="6.711672625678632"><ele>214.66666666666669</ele><time>2026-04-12T09:48:41Z</time></trkpt><trkpt lat="43.608115722247796" lon="6.71176362745662"><ele>215.0</ele><time>2026-04-12T09:48:42Z</time></trkpt><trkpt lat="43.60814029002876" lon="6.711869349020853"><ele>214.66666666666669</ele><time>2026-04-12T09:48:43Z</time></trkpt><trkpt lat="43.60815653894847" lon="6.71198019900729"><ele>214.33333333333334</ele><time>2026-04-12T09:48:44Z</time></trkpt><trkpt lat="43.608171883572" lon="6.7120907557907525"><ele>214.0</ele><time>2026-04-12T09:48:45Z</time></trkpt><trkpt lat="43.608185027549474" lon="6.712201819482233"><ele>213.66666666666669</ele><time>2026-04-12T09:48:46Z</time></trkpt><trkpt lat="43.60819779752389" lon="6.712312389156177"><ele>213.33333333333334</ele><time>2026-04-12T09:48:47Z</time></trkpt><trkpt lat="43.60821360038108" lon="6.712421733181856"><ele>213.0</ele><time>2026-04-12T09:48:48Z</time></trkpt><trkpt lat="43.60822948553692" lon="6.712529672445493"><ele>213.0</ele><time>2026-04-12T09:48:49Z</time></trkpt><trkpt lat="43.608245319588924" lon="6.712637348035022"><ele>213.0</ele><time>2026-04-12T09:48:50Z</time></trkpt><trkpt lat="43.60826143545236" lon="6.7127450518752605"><ele>213.0</ele><time>2026-04-12T09:48:51Z</time></trkpt><trkpt lat="43.608275773488074" lon="6.712853733026476"><ele>213.0</ele><time>2026-04-12T09:48:52Z</time></trkpt><trkpt lat="43.60828952849544" lon="6.71296166845215"><ele>213.0</ele><time>2026-04-12T09:48:53Z</time></trkpt><trkpt lat="43.608302997361015" lon="6.713069466786357"><ele>213.0</ele><time>2026-04-12T09:48:54Z</time></trkpt><trkpt lat="43.60831589111027" lon="6.7131789489499445"><ele>212.83333333333334</ele><time>2026-04-12T09:48:55Z</time></trkpt><trkpt lat="43.60833036324" lon="6.7132904046330495"><ele>212.66666666666669</ele><time>2026-04-12T09:48:56Z</time></trkpt><trkpt lat="43.60834327272786" lon="6.713401806631046"><ele>212.5</ele><time>2026-04-12T09:48:57Z</time></trkpt><trkpt lat="43.608354045423496" lon="6.713515143248376"><ele>212.33333333333334</ele><time>2026-04-12T09:48:58Z</time></trkpt><trkpt lat="43.60836845717774" lon="6.713626982307003"><ele>212.16666666666669</ele><time>2026-04-12T09:48:59Z</time></trkpt><trkpt lat="43.6083836069768" lon="6.713737880563515"><ele>212.0</ele><time>2026-04-12T09:49:00Z</time></trkpt><trkpt lat="43.60839859884313" lon="6.713848540599523"><ele>211.83333333333334</ele><time>2026-04-12T09:49:01Z</time></trkpt><trkpt lat="43.60841418705158" lon="6.713959903255556"><ele>211.66666666666669</ele><time>2026-04-12T09:49:02Z</time></trkpt><trkpt lat="43.60843170209356" lon="6.714069183331805"><ele>211.5</ele><time>2026-04-12T09:49:03Z</time></trkpt><trkpt lat="43.60845097180727" lon="6.714180005797724"><ele>211.33333333333331</ele><time>2026-04-12T09:49:04Z</time></trkpt><trkpt lat="43.60847247714361" lon="6.714291288673861"><ele>211.16666666666666</ele><time>2026-04-12T09:49:05Z</time></trkpt><trkpt lat="43.60849667656607" lon="6.7144023836679345"><ele>211.0</ele><time>2026-04-12T09:49:06Z</time></trkpt><trkpt lat="43.608522606769114" lon="6.714515162511747"><ele>210.83333333333331</ele><time>2026-04-12T09:49:07Z</time></trkpt><trkpt lat="43.608553858189936" lon="6.714626463356848"><ele>210.66666666666666</ele><time>2026-04-12T09:49:08Z</time></trkpt><trkpt lat="43.60859059836873" lon="6.714735458698037"><ele>210.5</ele><time>2026-04-12T09:49:09Z</time></trkpt><trkpt lat="43.608628319906174" lon="6.714844977792464"><ele>210.33333333333331</ele><time>2026-04-12T09:49:10Z</time></trkpt><trkpt lat="43.60866655971888" lon="6.714955170131978"><ele>210.16666666666666</ele><time>2026-04-12T09:49:11Z</time></trkpt><trkpt lat="43.608706466885344" lon="6.7150648959938914"><ele>210.0</ele><time>2026-04-12T09:49:12Z</time></trkpt><trkpt lat="43.6087461771871" lon="6.715173076926828"><ele>210.2</ele><time>2026-04-12T09:49:13Z</time></trkpt><trkpt lat="43.60878515861191" lon="6.715282148945825"><ele>210.4</ele><time>2026-04-12T09:49:14Z</time></trkpt><trkpt lat="43.60882572761237" lon="6.715391967539105"><ele>210.60000000000002</ele><time>2026-04-12T09:49:15Z</time></trkpt><trkpt lat="43.6088662389906" lon="6.715503575353211"><ele>210.8</ele><time>2026-04-12T09:49:16Z</time></trkpt><trkpt lat="43.60890710090833" lon="6.715614913354107"><ele>211.0</ele><time>2026-04-12T09:49:17Z</time></trkpt><trkpt lat="43.6089488650395" lon="6.7157272771695675"><ele>210.99999999999997</ele><time>2026-04-12T09:49:18Z</time></trkpt><trkpt lat="43.608987178215706" lon="6.715837132846905"><ele>211.0</ele><time>2026-04-12T09:49:19Z</time></trkpt><trkpt lat="43.609027166642065" lon="6.71594426521669"><ele>211.0</ele><time>2026-04-12T09:49:20Z</time></trkpt><trkpt lat="43.60906523037629" lon="6.716050577464086"><ele>211.0</ele><time>2026-04-12T09:49:21Z</time></trkpt><trkpt lat="43.60910493444525" lon="6.716152736081158"><ele>210.99999999999997</ele><time>2026-04-12T09:49:22Z</time></trkpt><trkpt lat="43.60914244696109" lon="6.716253661351426"><ele>211.0</ele><time>2026-04-12T09:49:23Z</time></trkpt><trkpt lat="43.60917969891744" lon="6.716351150183048"><ele>211.16666666666666</ele><time>2026-04-12T09:49:24Z</time></trkpt><trkpt lat="43.60921412176576" lon="6.716444338123718"><ele>211.33333333333331</ele><time>2026-04-12T09:49:25Z</time></trkpt><trkpt lat="43.60925051506109" lon="6.716541223954668"><ele>211.5</ele><time>2026-04-12T09:49:26Z</time></trkpt><trkpt lat="43.609289543274315" lon="6.71663998039331"><ele>211.66666666666669</ele><time>2026-04-12T09:49:27Z</time></trkpt><trkpt lat="43.60932575444082" lon="6.716739572234303"><ele>211.83333333333334</ele><time>2026-04-12T09:49:28Z</time></trkpt><trkpt lat="43.60936090948469" lon="6.716836933492861"><ele>212.0</ele><time>2026-04-12T09:49:29Z</time></trkpt><trkpt lat="43.60939537856388" lon="6.716932423695515"><ele>212.0</ele><time>2026-04-12T09:49:30Z</time></trkpt><trkpt lat="43.60942943495664" lon="6.717024125440507"><ele>212.0</ele><time>2026-04-12T09:49:31Z</time></trkpt><trkpt lat="43.60946374522518" lon="6.7171138173655445"><ele>212.0</ele><time>2026-04-12T09:49:32Z</time></trkpt><trkpt lat="43.60949583328009" lon="6.717205515996227"><ele>212.0</ele><time>2026-04-12T09:49:33Z</time></trkpt><trkpt lat="43.60952799550373" lon="6.717296311058181"><ele>212.0</ele><time>2026-04-12T09:49:34Z</time></trkpt><trkpt lat="43.60955849208053" lon="6.717388955004778"><ele>212.0</ele><time>2026-04-12T09:49:35Z</time></trkpt><trkpt lat="43.609588403429164" lon="6.717480771351354"><ele>212.0</ele><time>2026-04-12T09:49:36Z</time></trkpt><trkpt lat="43.60961787316116" lon="6.717574357961623"><ele>212.0</ele><time>2026-04-12T09:49:37Z</time></trkpt><trkpt lat="43.60964432478322" lon="6.71766877312696"><ele>212.0</ele><time>2026-04-12T09:49:38Z</time></trkpt><trkpt lat="43.60966989746189" lon="6.717761333398569"><ele>212.0</ele><time>2026-04-12T09:49:39Z</time></trkpt><trkpt lat="43.609694293215654" lon="6.717853706120379"><ele>212.0</ele><time>2026-04-12T09:49:40Z</time></trkpt><trkpt lat="43.609715583151264" lon="6.7179490384883325"><ele>212.0</ele><time>2026-04-12T09:49:41Z</time></trkpt><trkpt lat="43.60973643708809" lon="6.718045294319992"><ele>212.0</ele><time>2026-04-12T09:49:42Z</time></trkpt><trkpt lat="43.60975487395446" lon="6.7181418271049305"><ele>212.0</ele><time>2026-04-12T09:49:43Z</time></trkpt><trkpt lat="43.60977067073089" lon="6.7182385200004155"><ele>212.0</ele><time>2026-04-12T09:49:44Z</time></trkpt><trkpt lat="43.60978439973529" lon="6.718336427202954"><ele>212.0</ele><time>2026-04-12T09:49:45Z</time></trkpt><trkpt lat="43.60979701267125" lon="6.718436156247465"><ele>212.0</ele><time>2026-04-12T09:49:46Z</time></trkpt><trkpt lat="43.609805671416055" lon="6.718535520448972"><ele>212.0</ele><time>2026-04-12T09:49:47Z</time></trkpt><trkpt lat="43.60981462015656" lon="6.718636158827188"><ele>212.0</ele><time>2026-04-12T09:49:48Z</time></trkpt><trkpt lat="43.609826357714084" lon="6.718739542254183"><ele>212.0</ele><time>2026-04-12T09:49:49Z</time></trkpt><trkpt lat="43.609836558944764" lon="6.718842734165036"><ele>212.0</ele><time>2026-04-12T09:49:50Z</time></trkpt><trkpt lat="43.60984610892653" lon="6.718943878772097"><ele>212.0</ele><time>2026-04-12T09:49:51Z</time></trkpt><trkpt lat="43.60985373602297" lon="6.719045307759886"><ele>212.0</ele><time>2026-04-12T09:49:52Z</time></trkpt><trkpt lat="43.60986041277365" lon="6.7191454573033536"><ele>212.0</ele><time>2026-04-12T09:49:53Z</time></trkpt><trkpt lat="43.609869122244575" lon="6.7192438382528294"><ele>212.0</ele><time>2026-04-12T09:49:54Z</time></trkpt><trkpt lat="43.60987830808289" lon="6.71934101485243"><ele>212.0</ele><time>2026-04-12T09:49:55Z</time></trkpt><trkpt lat="43.609887702694934" lon="6.719436394123896"><ele>212.0</ele><time>2026-04-12T09:49:56Z</time></trkpt><trkpt lat="43.60989699296701" lon="6.719531285974858"><ele>212.0</ele><time>2026-04-12T09:49:57Z</time></trkpt><trkpt lat="43.60990722837786" lon="6.719626215346984"><ele>211.85714285714286</ele><time>2026-04-12T09:49:58Z</time></trkpt><trkpt lat="43.60991716389249" lon="6.719719750908273"><ele>211.7142857142857</ele><time>2026-04-12T09:49:59Z</time></trkpt><trkpt lat="43.60992616959809" lon="6.719814108517034"><ele>211.57142857142856</ele><time>2026-04-12T09:50:00Z</time></trkpt><trkpt lat="43.609935363705105" lon="6.719904984084488"><ele>211.42857142857144</ele><time>2026-04-12T09:50:01Z</time></trkpt><trkpt lat="43.609946436853086" lon="6.719994839294107"><ele>211.28571428571428</ele><time>2026-04-12T09:50:02Z</time></trkpt><trkpt lat="43.609956796202134" lon="6.720083667054699"><ele>211.14285714285714</ele><time>2026-04-12T09:50:03Z</time></trkpt><trkpt lat="43.60996554799507" lon="6.720173905202773"><ele>211.0</ele><time>2026-04-12T09:50:04Z</time></trkpt><trkpt lat="43.60997412641739" lon="6.720262584694248"><ele>211.33333333333331</ele><time>2026-04-12T09:50:05Z</time></trkpt><trkpt lat="43.60998265055382" lon="6.720349334214039"><ele>211.66666666666666</ele><time>2026-04-12T09:50:06Z</time></trkpt><trkpt lat="43.60999279574196" lon="6.720435254877923"><ele>212.0</ele><time>2026-04-12T09:50:07Z</time></trkpt><trkpt lat="43.61000061752585" lon="6.720521541933545"><ele>212.33333333333331</ele><time>2026-04-12T09:50:08Z</time></trkpt><trkpt lat="43.610018581589806" lon="6.72068820989829"><ele>212.66666666666666</ele><time>2026-04-12T09:50:10Z</time></trkpt><trkpt lat="43.61003760602287" lon="6.720852825532957"><ele>213.0</ele><time>2026-04-12T09:50:12Z</time></trkpt><trkpt lat="43.610056006423356" lon="6.7210172729537785"><ele>213.75</ele><time>2026-04-12T09:50:14Z</time></trkpt><trkpt lat="43.61007613607213" lon="6.721179571094087"><ele>214.5</ele><time>2026-04-12T09:50:16Z</time></trkpt><trkpt lat="43.610095408917466" lon="6.721340957518313"><ele>215.25</ele><time>2026-04-12T09:50:18Z</time></trkpt><trkpt lat="43.610112511391335" lon="6.72150093154188"><ele>216.0</ele><time>2026-04-12T09:50:20Z</time></trkpt><trkpt lat="43.61013226853431" lon="6.721654723676942"><ele>216.0</ele><time>2026-04-12T09:50:22Z</time></trkpt><trkpt lat="43.610154544507026" lon="6.721801740916167"><ele>216.0</ele><time>2026-04-12T09:50:24Z</time></trkpt><trkpt lat="43.61017469206767" lon="6.721946166114882"><ele>216.0</ele><time>2026-04-12T09:50:26Z</time></trkpt><trkpt lat="43.61019842209932" lon="6.722103768121896"><ele>216.0</ele><time>2026-04-12T09:50:28Z</time></trkpt><trkpt lat="43.6102254276288" lon="6.722266391969726"><ele>215.8</ele><time>2026-04-12T09:50:30Z</time></trkpt><trkpt lat="43.61025127773814" lon="6.722429429745977"><ele>215.60000000000002</ele><time>2026-04-12T09:50:32Z</time></trkpt><trkpt lat="43.61027280402345" lon="6.7225933623710254"><ele>215.4</ele><time>2026-04-12T09:50:34Z</time></trkpt><trkpt lat="43.61029083329641" lon="6.722762212424563"><ele>215.2</ele><time>2026-04-12T09:50:36Z</time></trkpt><trkpt lat="43.61029511518634" lon="6.722849135982498"><ele>215.0</ele><time>2026-04-12T09:50:37Z</time></trkpt><trkpt lat="43.61030362092539" lon="6.723021337137166"><ele>215.00000000000003</ele><time>2026-04-12T09:50:39Z</time></trkpt><trkpt lat="43.61031255840409" lon="6.723194442198404"><ele>215.0</ele><time>2026-04-12T09:50:41Z</time></trkpt><trkpt lat="43.61031646863892" lon="6.723365695720132"><ele>215.0</ele><time>2026-04-12T09:50:43Z</time></trkpt><trkpt lat="43.61031933905294" lon="6.723453170723399"><ele>215.0</ele><time>2026-04-12T09:50:44Z</time></trkpt><trkpt lat="43.61032707663246" lon="6.723540947920754"><ele>215.00000000000003</ele><time>2026-04-12T09:50:45Z</time></trkpt><trkpt lat="43.61033305955091" lon="6.723630058796265"><ele>215.0</ele><time>2026-04-12T09:50:46Z</time></trkpt><trkpt lat="43.610335080697375" lon="6.723718790020072"><ele>215.6</ele><time>2026-04-12T09:50:47Z</time></trkpt><trkpt lat="43.61033999022965" lon="6.723806307876886"><ele>216.2</ele><time>2026-04-12T09:50:48Z</time></trkpt><trkpt lat="43.61035367001606" lon="6.723978563540082"><ele>216.8</ele><time>2026-04-12T09:50:50Z</time></trkpt><trkpt lat="43.610361660458025" lon="6.724150355086264"><ele>217.4</ele><time>2026-04-12T09:50:52Z</time></trkpt><trkpt lat="43.610376164994996" lon="6.724317305608609"><ele>218.0</ele><time>2026-04-12T09:50:54Z</time></trkpt><trkpt lat="43.61039277312002" lon="6.724484352834835"><ele>218.5</ele><time>2026-04-12T09:50:56Z</time></trkpt><trkpt lat="43.61041171887672" lon="6.724646751460665"><ele>219.0</ele><time>2026-04-12T09:50:58Z</time></trkpt><trkpt lat="43.61043824283181" lon="6.724807490316727"><ele>219.5</ele><time>2026-04-12T09:51:00Z</time></trkpt><trkpt lat="43.61047162837898" lon="6.724965901314887"><ele>220.0</ele><time>2026-04-12T09:51:02Z</time></trkpt><trkpt lat="43.61050602069767" lon="6.7251210957675225"><ele>220.5</ele><time>2026-04-12T09:51:04Z</time></trkpt><trkpt lat="43.61053931125533" lon="6.725274924660678"><ele>221.0</ele><time>2026-04-12T09:51:06Z</time></trkpt><trkpt lat="43.61057036173591" lon="6.725426534012324"><ele>221.5</ele><time>2026-04-12T09:51:08Z</time></trkpt><trkpt lat="43.610595283401224" lon="6.725577647522377"><ele>222.0</ele><time>2026-04-12T09:51:10Z</time></trkpt><trkpt lat="43.61061428280402" lon="6.725731619450797"><ele>222.0</ele><time>2026-04-12T09:51:12Z</time></trkpt><trkpt lat="43.61062388564147" lon="6.7258902875522475"><ele>222.0</ele><time>2026-04-12T09:51:14Z</time></trkpt><trkpt lat="43.61062730662496" lon="6.726050033814779"><ele>222.0</ele><time>2026-04-12T09:51:16Z</time></trkpt><trkpt lat="43.61062788596095" lon="6.726204518576185"><ele>222.0</ele><time>2026-04-12T09:51:18Z</time></trkpt><trkpt lat="43.61062128849599" lon="6.726356497636887"><ele>223.0</ele><time>2026-04-12T09:51:20Z</time></trkpt><trkpt lat="43.610615894688856" lon="6.726503846253742"><ele>224.0</ele><time>2026-04-12T09:51:22Z</time></trkpt><trkpt lat="43.610608552646866" lon="6.726650400195384"><ele>225.0</ele><time>2026-04-12T09:51:24Z</time></trkpt><trkpt lat="43.61059829482261" lon="6.726795144724577"><ele>226.0</ele><time>2026-04-12T09:51:26Z</time></trkpt><trkpt lat="43.61058535759016" lon="6.726936727117561"><ele>227.0</ele><time>2026-04-12T09:51:28Z</time></trkpt><trkpt lat="43.610571987807226" lon="6.727079199792804"><ele>228.25</ele><time>2026-04-12T09:51:30Z</time></trkpt><trkpt lat="43.610553240894504" lon="6.7272500234747"><ele>229.5</ele><time>2026-04-12T09:51:33Z</time></trkpt><trkpt lat="43.61053268285095" lon="6.727434578961229"><ele>230.75</ele><time>2026-04-12T09:51:35Z</time></trkpt><trkpt lat="43.61051278172016" lon="6.72757479251327"><ele>232.0</ele><time>2026-04-12T09:51:37Z</time></trkpt><trkpt lat="43.61049635818571" lon="6.727721948388235"><ele>230.75</ele><time>2026-04-12T09:51:39Z</time></trkpt><trkpt lat="43.61047792085149" lon="6.727869853899768"><ele>229.5</ele><time>2026-04-12T09:51:41Z</time></trkpt><trkpt lat="43.610462054397814" lon="6.728021300284536"><ele>228.25</ele><time>2026-04-12T09:51:43Z</time></trkpt><trkpt lat="43.610450890265014" lon="6.72817758985217"><ele>227.0</ele><time>2026-04-12T09:51:45Z</time></trkpt><trkpt lat="43.610436364415776" lon="6.7283419926177475"><ele>227.00000000000003</ele><time>2026-04-12T09:51:47Z</time></trkpt><trkpt lat="43.610421726174344" lon="6.72850815402853"><ele>227.0</ele><time>2026-04-12T09:51:49Z</time></trkpt><trkpt lat="43.61041238609473" lon="6.72859798446598"><ele>227.0</ele><time>2026-04-12T09:51:50Z</time></trkpt><trkpt lat="43.61040364141368" lon="6.728688104626244"><ele>227.0</ele><time>2026-04-12T09:51:51Z</time></trkpt><trkpt lat="43.6103948758967" lon="6.7287783686639"><ele>227.00000000000003</ele><time>2026-04-12T09:51:52Z</time></trkpt><trkpt lat="43.6103876503323" lon="6.728872721428786"><ele>227.0</ele><time>2026-04-12T09:51:53Z</time></trkpt><trkpt lat="43.61038284297327" lon="6.7289754125598265"><ele>226.50000000000003</ele><time>2026-04-12T09:51:54Z</time></trkpt><trkpt lat="43.61037324497801" lon="6.729073149828757"><ele>226.0</ele><time>2026-04-12T09:51:55Z</time></trkpt><trkpt lat="43.61036392336435" lon="6.729171152235753"><ele>225.5</ele><time>2026-04-12T09:51:56Z</time></trkpt><trkpt lat="43.61035407079652" lon="6.729277542124861"><ele>225.0</ele><time>2026-04-12T09:51:57Z</time></trkpt><trkpt lat="43.61034350101041" lon="6.729384557590347"><ele>224.50000000000003</ele><time>2026-04-12T09:51:58Z</time></trkpt><trkpt lat="43.6103311482816" lon="6.729486136351536"><ele>224.0</ele><time>2026-04-12T09:51:59Z</time></trkpt><trkpt lat="43.61032046231626" lon="6.729592349817129"><ele>222.66666666666669</ele><time>2026-04-12T09:52:00Z</time></trkpt><trkpt lat="43.61031081370218" lon="6.729704772711204"><ele>221.33333333333334</ele><time>2026-04-12T09:52:01Z</time></trkpt><trkpt lat="43.610304304631875" lon="6.729814585555345"><ele>220.0</ele><time>2026-04-12T09:52:02Z</time></trkpt><trkpt lat="43.61029460433807" lon="6.729927503045859"><ele>218.66666666666669</ele><time>2026-04-12T09:52:03Z</time></trkpt><trkpt lat="43.61028016227423" lon="6.730038902404423"><ele>217.33333333333334</ele><time>2026-04-12T09:52:04Z</time></trkpt><trkpt lat="43.61026528506792" lon="6.73015267478028"><ele>216.0</ele><time>2026-04-12T09:52:05Z</time></trkpt><trkpt lat="43.61025065935596" lon="6.730267958796781"><ele>215.83333333333334</ele><time>2026-04-12T09:52:06Z</time></trkpt><trkpt lat="43.61023290814085" lon="6.730385232475319"><ele>215.66666666666669</ele><time>2026-04-12T09:52:07Z</time></trkpt><trkpt lat="43.610215855061185" lon="6.730503288519076"><ele>215.5</ele><time>2026-04-12T09:52:08Z</time></trkpt><trkpt lat="43.61019764585999" lon="6.730621083637467"><ele>215.33333333333334</ele><time>2026-04-12T09:52:09Z</time></trkpt><trkpt lat="43.61017508058442" lon="6.73073949873308"><ele>215.16666666666669</ele><time>2026-04-12T09:52:10Z</time></trkpt><trkpt lat="43.6101513684326" lon="6.730856662603177"><ele>215.0</ele><time>2026-04-12T09:52:11Z</time></trkpt><trkpt lat="43.610130290118384" lon="6.730971392847528"><ele>215.14285714285714</ele><time>2026-04-12T09:52:12Z</time></trkpt><trkpt lat="43.61011195204925" lon="6.73108321917658"><ele>215.2857142857143</ele><time>2026-04-12T09:52:13Z</time></trkpt><trkpt lat="43.610094415359555" lon="6.731189569785355"><ele>215.42857142857144</ele><time>2026-04-12T09:52:14Z</time></trkpt><trkpt lat="43.61007991911866" lon="6.731291727442961"><ele>215.57142857142856</ele><time>2026-04-12T09:52:15Z</time></trkpt><trkpt lat="43.61007507437586" lon="6.731391468445709"><ele>215.71428571428572</ele><time>2026-04-12T09:52:16Z</time></trkpt><trkpt lat="43.61007954994748" lon="6.731488025932603"><ele>215.85714285714286</ele><time>2026-04-12T09:52:17Z</time></trkpt><trkpt lat="43.61008835077804" lon="6.731581418147621"><ele>216.0</ele><time>2026-04-12T09:52:18Z</time></trkpt><trkpt lat="43.61009239118044" lon="6.73167834556459"><ele>216.0</ele><time>2026-04-12T09:52:19Z</time></trkpt><trkpt lat="43.61008065175737" lon="6.731776422070767"><ele>216.0</ele><time>2026-04-12T09:52:20Z</time></trkpt><trkpt lat="43.61005994292157" lon="6.731874900394938"><ele>216.0</ele><time>2026-04-12T09:52:21Z</time></trkpt><trkpt lat="43.61005728589593" lon="6.731976036208008"><ele>216.0</ele><time>2026-04-12T09:52:22Z</time></trkpt><trkpt lat="43.610073626893325" lon="6.7320759346790044"><ele>216.0</ele><time>2026-04-12T09:52:23Z</time></trkpt><trkpt lat="43.610097464918596" lon="6.732170508563128"><ele>216.0</ele><time>2026-04-12T09:52:24Z</time></trkpt><trkpt lat="43.61012034259838" lon="6.73226346096172"><ele>216.0</ele><time>2026-04-12T09:52:25Z</time></trkpt><trkpt lat="43.61013393764445" lon="6.7323593090092295"><ele>216.0</ele><time>2026-04-12T09:52:26Z</time></trkpt><trkpt lat="43.61013875828762" lon="6.7324581489176"><ele>216.0</ele><time>2026-04-12T09:52:27Z</time></trkpt><trkpt lat="43.61013940268482" lon="6.732558713215274"><ele>216.0</ele><time>2026-04-12T09:52:28Z</time></trkpt><trkpt lat="43.610131469761235" lon="6.732661134859045"><ele>216.0</ele><time>2026-04-12T09:52:29Z</time></trkpt><trkpt lat="43.610118210861344" lon="6.732762872891149"><ele>216.0</ele><time>2026-04-12T09:52:30Z</time></trkpt><trkpt lat="43.61010443998937" lon="6.732865396548732"><ele>216.0</ele><time>2026-04-12T09:52:31Z</time></trkpt><trkpt lat="43.61008678150279" lon="6.73296728682962"><ele>216.0</ele><time>2026-04-12T09:52:32Z</time></trkpt><trkpt lat="43.61006900315452" lon="6.73306987733094"><ele>216.16666666666666</ele><time>2026-04-12T09:52:33Z</time></trkpt><trkpt lat="43.61005180928207" lon="6.7331728059121145"><ele>216.33333333333331</ele><time>2026-04-12T09:52:34Z</time></trkpt><trkpt lat="43.61003368182937" lon="6.733276225143089"><ele>216.5</ele><time>2026-04-12T09:52:35Z</time></trkpt><trkpt lat="43.6100142105942" lon="6.733379999051681"><ele>216.66666666666666</ele><time>2026-04-12T09:52:36Z</time></trkpt><trkpt lat="43.60999525501611" lon="6.733484215463713"><ele>216.83333333333331</ele><time>2026-04-12T09:52:37Z</time></trkpt><trkpt lat="43.609976358092275" lon="6.733589041463006"><ele>217.0</ele><time>2026-04-12T09:52:38Z</time></trkpt><trkpt lat="43.60995670272658" lon="6.733694819703434"><ele>216.16666666666666</ele><time>2026-04-12T09:52:39Z</time></trkpt><trkpt lat="43.60993422883" lon="6.733798832975643"><ele>215.33333333333331</ele><time>2026-04-12T09:52:40Z</time></trkpt><trkpt lat="43.60990839081875" lon="6.733904525291477"><ele>214.5</ele><time>2026-04-12T09:52:41Z</time></trkpt><trkpt lat="43.60987995686483" lon="6.73401052313643"><ele>213.66666666666669</ele><time>2026-04-12T09:52:42Z</time></trkpt><trkpt lat="43.60985472593628" lon="6.734122252123323"><ele>212.83333333333334</ele><time>2026-04-12T09:52:43Z</time></trkpt><trkpt lat="43.609829104420726" lon="6.734237754060084"><ele>212.0</ele><time>2026-04-12T09:52:44Z</time></trkpt><trkpt lat="43.60980168121299" lon="6.734356215598244"><ele>211.39999999999998</ele><time>2026-04-12T09:52:45Z</time></trkpt><trkpt lat="43.609772436395474" lon="6.734479200970178"><ele>210.79999999999998</ele><time>2026-04-12T09:52:46Z</time></trkpt><trkpt lat="43.609741900629814" lon="6.734608880714467"><ele>210.2</ele><time>2026-04-12T09:52:47Z</time></trkpt><trkpt lat="43.609710575698315" lon="6.734743708526545"><ele>209.6</ele><time>2026-04-12T09:52:48Z</time></trkpt><trkpt lat="43.60967833239814" lon="6.734883947342933"><ele>209.0</ele><time>2026-04-12T09:52:49Z</time></trkpt><trkpt lat="43.609645026529634" lon="6.735029517940846"><ele>209.0</ele><time>2026-04-12T09:52:50Z</time></trkpt><trkpt lat="43.60961139587675" lon="6.735176826577137"><ele>209.0</ele><time>2026-04-12T09:52:51Z</time></trkpt><trkpt lat="43.60957747040276" lon="6.735325842148734"><ele>209.0</ele><time>2026-04-12T09:52:52Z</time></trkpt><trkpt lat="43.609542763464354" lon="6.735475497048604"><ele>209.0</ele><time>2026-04-12T09:52:53Z</time></trkpt><trkpt lat="43.60950956433672" lon="6.7356254385615815"><ele>208.39999999999998</ele><time>2026-04-12T09:52:54Z</time></trkpt><trkpt lat="43.60947984377385" lon="6.735774502801389"><ele>207.8</ele><time>2026-04-12T09:52:55Z</time></trkpt><trkpt lat="43.60944696312969" lon="6.7359213851808954"><ele>207.2</ele><time>2026-04-12T09:52:56Z</time></trkpt><trkpt lat="43.609414329889994" lon="6.736067361893892"><ele>206.60000000000002</ele><time>2026-04-12T09:52:57Z</time></trkpt><trkpt lat="43.60938509057663" lon="6.736216876365389"><ele>206.0</ele><time>2026-04-12T09:52:58Z</time></trkpt><trkpt lat="43.60934947897247" lon="6.736359285142729"><ele>205.4</ele><time>2026-04-12T09:52:59Z</time></trkpt><trkpt lat="43.60931168539366" lon="6.73649996170034"><ele>204.8</ele><time>2026-04-12T09:53:00Z</time></trkpt><trkpt lat="43.609275215582336" lon="6.7366419989853235"><ele>204.20000000000002</ele><time>2026-04-12T09:53:01Z</time></trkpt><trkpt lat="43.6092386635377" lon="6.736780462654005"><ele>203.60000000000002</ele><time>2026-04-12T09:53:02Z</time></trkpt><trkpt lat="43.60920261697693" lon="6.736920549012348"><ele>203.0</ele><time>2026-04-12T09:53:03Z</time></trkpt><trkpt lat="43.609169582906965" lon="6.737059140038074"><ele>203.0</ele><time>2026-04-12T09:53:04Z</time></trkpt><trkpt lat="43.60913698262306" lon="6.737197096297639"><ele>203.0</ele><time>2026-04-12T09:53:05Z</time></trkpt><trkpt lat="43.60910357270512" lon="6.73733388762968"><ele>203.0</ele><time>2026-04-12T09:53:06Z</time></trkpt><trkpt lat="43.6090727597202" lon="6.737469294812005"><ele>203.0</ele><time>2026-04-12T09:53:07Z</time></trkpt><trkpt lat="43.6090426409972" lon="6.7376027405625445"><ele>203.0</ele><time>2026-04-12T09:53:08Z</time></trkpt><trkpt lat="43.60901006780843" lon="6.737737579541882"><ele>202.8</ele><time>2026-04-12T09:53:09Z</time></trkpt><trkpt lat="43.60897794200835" lon="6.737870630653396"><ele>202.60000000000002</ele><time>2026-04-12T09:53:10Z</time></trkpt><trkpt lat="43.608947328912066" lon="6.738005795802864"><ele>202.39999999999998</ele><time>2026-04-12T09:53:11Z</time></trkpt><trkpt lat="43.60891735909795" lon="6.738139961668131"><ele>202.2</ele><time>2026-04-12T09:53:12Z</time></trkpt><trkpt lat="43.608886840476224" lon="6.738273576756282"><ele>202.0</ele><time>2026-04-12T09:53:13Z</time></trkpt><trkpt lat="43.60885703322441" lon="6.738406158016173"><ele>202.0</ele><time>2026-04-12T09:53:14Z</time></trkpt><trkpt lat="43.6088252645968" lon="6.738540090307927"><ele>202.0</ele><time>2026-04-12T09:53:15Z</time></trkpt><trkpt lat="43.60879430997004" lon="6.738672994687163"><ele>202.0</ele><time>2026-04-12T09:53:16Z</time></trkpt><trkpt lat="43.608764034236614" lon="6.738806356046145"><ele>202.0</ele><time>2026-04-12T09:53:17Z</time></trkpt><trkpt lat="43.608730860601945" lon="6.738938505359503"><ele>202.0</ele><time>2026-04-12T09:53:18Z</time></trkpt><trkpt lat="43.608700917920395" lon="6.739072452847061"><ele>201.8</ele><time>2026-04-12T09:53:19Z</time></trkpt><trkpt lat="43.60867058096183" lon="6.73920454078663"><ele>201.6</ele><time>2026-04-12T09:53:20Z</time></trkpt><trkpt lat="43.60863941692895" lon="6.739338301875318"><ele>201.4</ele><time>2026-04-12T09:53:21Z</time></trkpt><trkpt lat="43.6086087866951" lon="6.739469554482882"><ele>201.20000000000002</ele><time>2026-04-12T09:53:22Z</time></trkpt><trkpt lat="43.608578612396094" lon="6.739603427926393"><ele>201.0</ele><time>2026-04-12T09:53:23Z</time></trkpt><trkpt lat="43.60854775137094" lon="6.73973601330333"><ele>200.4</ele><time>2026-04-12T09:53:24Z</time></trkpt><trkpt lat="43.60851923433594" lon="6.73986972863916"><ele>199.8</ele><time>2026-04-12T09:53:25Z</time></trkpt><trkpt lat="43.60848789496605" lon="6.7400018451656765"><ele>199.20000000000002</ele><time>2026-04-12T09:53:26Z</time></trkpt><trkpt lat="43.60845727564774" lon="6.740137011251361"><ele>198.60000000000002</ele><time>2026-04-12T09:53:27Z</time></trkpt><trkpt lat="43.608425857618265" lon="6.740270343565445"><ele>198.0</ele><time>2026-04-12T09:53:28Z</time></trkpt><trkpt lat="43.608395253090606" lon="6.7404036843338115"><ele>198.0</ele><time>2026-04-12T09:53:29Z</time></trkpt><trkpt lat="43.608363792142406" lon="6.740536014421184"><ele>198.0</ele><time>2026-04-12T09:53:30Z</time></trkpt><trkpt lat="43.608331535799365" lon="6.740666915232814"><ele>198.0</ele><time>2026-04-12T09:53:31Z</time></trkpt><trkpt lat="43.608295907490074" lon="6.740796374529891"><ele>198.0</ele><time>2026-04-12T09:53:32Z</time></trkpt><trkpt lat="43.6082621083891" lon="6.740924903892165"><ele>198.0</ele><time>2026-04-12T09:53:33Z</time></trkpt><trkpt lat="43.60822968918642" lon="6.7410553117857575"><ele>197.8</ele><time>2026-04-12T09:53:34Z</time></trkpt><trkpt lat="43.608194581432784" lon="6.741184067606021"><ele>197.60000000000002</ele><time>2026-04-12T09:53:35Z</time></trkpt><trkpt lat="43.60815865002935" lon="6.7413070478721355"><ele>197.39999999999998</ele><time>2026-04-12T09:53:36Z</time></trkpt><trkpt lat="43.60812791315245" lon="6.74142460971221"><ele>197.2</ele><time>2026-04-12T09:53:37Z</time></trkpt><trkpt lat="43.60810383186533" lon="6.741535535083452"><ele>197.0</ele><time>2026-04-12T09:53:38Z</time></trkpt><trkpt lat="43.60808006953591" lon="6.741641410827237"><ele>197.00000000000003</ele><time>2026-04-12T09:53:39Z</time></trkpt><trkpt lat="43.60805505967086" lon="6.741736550771825"><ele>197.0</ele><time>2026-04-12T09:53:40Z</time></trkpt><trkpt lat="43.608038017988" lon="6.741833254307927"><ele>197.0</ele><time>2026-04-12T09:53:41Z</time></trkpt><trkpt lat="43.60802512441321" lon="6.7419188086448205"><ele>197.0</ele><time>2026-04-12T09:53:42Z</time></trkpt><trkpt lat="43.608007951548466" lon="6.742051403643845"><ele>197.00000000000003</ele><time>2026-04-12T09:53:44Z</time></trkpt><trkpt lat="43.60799088218548" lon="6.742180954209112"><ele>197.0</ele><time>2026-04-12T09:53:46Z</time></trkpt><trkpt lat="43.60795330531242" lon="6.742324028488201"><ele>196.50000000000003</ele><time>2026-04-12T09:53:48Z</time></trkpt><trkpt lat="43.607872612496934" lon="6.742447171221487"><ele>196.0</ele><time>2026-04-12T09:53:50Z</time></trkpt><trkpt lat="43.607830067715625" lon="6.742517811258362"><ele>195.5</ele><time>2026-04-12T09:53:51Z</time></trkpt><trkpt lat="43.60781250477508" lon="6.742603148791769"><ele>195.0</ele><time>2026-04-12T09:53:52Z</time></trkpt><trkpt lat="43.60782261985998" lon="6.742696362968829"><ele>194.50000000000003</ele><time>2026-04-12T09:53:53Z</time></trkpt><trkpt lat="43.60785004114268" lon="6.742787071785652"><ele>194.0</ele><time>2026-04-12T09:53:54Z</time></trkpt><trkpt lat="43.60788746774615" lon="6.742872089939678"><ele>193.83333333333334</ele><time>2026-04-12T09:53:55Z</time></trkpt><trkpt lat="43.60791687934058" lon="6.742963670293623"><ele>193.66666666666669</ele><time>2026-04-12T09:53:56Z</time></trkpt><trkpt lat="43.60792422913085" lon="6.743066336105179"><ele>193.5</ele><time>2026-04-12T09:53:57Z</time></trkpt><trkpt lat="43.6079120702068" lon="6.743171162291077"><ele>193.33333333333331</ele><time>2026-04-12T09:53:58Z</time></trkpt><trkpt lat="43.607891925923965" lon="6.743272366302409"><ele>193.16666666666666</ele><time>2026-04-12T09:53:59Z</time></trkpt><trkpt lat="43.60787845800013" lon="6.743375110618738"><ele>193.0</ele><time>2026-04-12T09:54:00Z</time></trkpt><trkpt lat="43.60787155760903" lon="6.743480692026266"><ele>193.16666666666666</ele><time>2026-04-12T09:54:01Z</time></trkpt><trkpt lat="43.60786478862341" lon="6.743585727703299"><ele>193.33333333333331</ele><time>2026-04-12T09:54:02Z</time></trkpt><trkpt lat="43.60785540821461" lon="6.743691033785182"><ele>193.5</ele><time>2026-04-12T09:54:03Z</time></trkpt><trkpt lat="43.60784270225436" lon="6.743796976334381"><ele>193.66666666666669</ele><time>2026-04-12T09:54:04Z</time></trkpt><trkpt lat="43.60783162630352" lon="6.743904579575266"><ele>193.83333333333334</ele><time>2026-04-12T09:54:05Z</time></trkpt><trkpt lat="43.60781792112189" lon="6.744011773566249"><ele>194.0</ele><time>2026-04-12T09:54:06Z</time></trkpt><trkpt lat="43.607806645660744" lon="6.744118430683137"><ele>194.00000000000003</ele><time>2026-04-12T09:54:07Z</time></trkpt><trkpt lat="43.607796518352515" lon="6.744227328339832"><ele>194.0</ele><time>2026-04-12T09:54:08Z</time></trkpt><trkpt lat="43.607786861128176" lon="6.74433644718906"><ele>194.0</ele><time>2026-04-12T09:54:09Z</time></trkpt><trkpt lat="43.607778007528665" lon="6.744444750135932"><ele>194.0</ele><time>2026-04-12T09:54:10Z</time></trkpt><trkpt lat="43.60777103849071" lon="6.744555424178935"><ele>194.00000000000003</ele><time>2026-04-12T09:54:11Z</time></trkpt><trkpt lat="43.60776554559347" lon="6.744664481790951"><ele>194.0</ele><time>2026-04-12T09:54:12Z</time></trkpt><trkpt lat="43.60776147242365" lon="6.744775296474193"><ele>193.50000000000003</ele><time>2026-04-12T09:54:13Z</time></trkpt><trkpt lat="43.607757063076484" lon="6.744887329231059"><ele>193.0</ele><time>2026-04-12T09:54:14Z</time></trkpt><trkpt lat="43.607752477042496" lon="6.7449991182819575"><ele>192.5</ele><time>2026-04-12T09:54:15Z</time></trkpt><trkpt lat="43.60774774567551" lon="6.7451117820140745"><ele>192.0</ele><time>2026-04-12T09:54:16Z</time></trkpt><trkpt lat="43.60774022693412" lon="6.745224552175461"><ele>191.5</ele><time>2026-04-12T09:54:17Z</time></trkpt><trkpt lat="43.60773168202405" lon="6.745336365706585"><ele>191.0</ele><time>2026-04-12T09:54:18Z</time></trkpt><trkpt lat="43.60772182988929" lon="6.7454482530431505"><ele>190.83333333333331</ele><time>2026-04-12T09:54:19Z</time></trkpt><trkpt lat="43.60771379848203" lon="6.745560411961238"><ele>190.66666666666666</ele><time>2026-04-12T09:54:20Z</time></trkpt><trkpt lat="43.6077045008411" lon="6.7456725156458575"><ele>190.5</ele><time>2026-04-12T09:54:21Z</time></trkpt><trkpt lat="43.607693390688304" lon="6.74578309949426"><ele>190.33333333333334</ele><time>2026-04-12T09:54:22Z</time></trkpt><trkpt lat="43.60768358358479" lon="6.745896553994022"><ele>190.16666666666669</ele><time>2026-04-12T09:54:23Z</time></trkpt><trkpt lat="43.60766821473152" lon="6.746007502706288"><ele>190.0</ele><time>2026-04-12T09:54:24Z</time></trkpt><trkpt lat="43.60765267906202" lon="6.746120508839983"><ele>190.33333333333334</ele><time>2026-04-12T09:54:25Z</time></trkpt><trkpt lat="43.60763465737616" lon="6.746232412506396"><ele>190.66666666666669</ele><time>2026-04-12T09:54:26Z</time></trkpt><trkpt lat="43.607614341214365" lon="6.7463439919551735"><ele>191.0</ele><time>2026-04-12T09:54:27Z</time></trkpt><trkpt lat="43.60759221121903" lon="6.74645459373478"><ele>191.33333333333334</ele><time>2026-04-12T09:54:28Z</time></trkpt><trkpt lat="43.60756745188189" lon="6.746565035778306"><ele>191.66666666666666</ele><time>2026-04-12T09:54:29Z</time></trkpt><trkpt lat="43.60753970227631" lon="6.7466756969715975"><ele>192.0</ele><time>2026-04-12T09:54:30Z</time></trkpt><trkpt lat="43.60751008916262" lon="6.746786689679015"><ele>192.0</ele><time>2026-04-12T09:54:31Z</time></trkpt><trkpt lat="43.6074804229322" lon="6.746899191976779"><ele>192.0</ele><time>2026-04-12T09:54:32Z</time></trkpt><trkpt lat="43.60745022714393" lon="6.7470103351774"><ele>192.0</ele><time>2026-04-12T09:54:33Z</time></trkpt><trkpt lat="43.607420783831394" lon="6.747122634825539"><ele>192.0</ele><time>2026-04-12T09:54:34Z</time></trkpt><trkpt lat="43.607391483013494" lon="6.747235735772001"><ele>192.0</ele><time>2026-04-12T09:54:35Z</time></trkpt><trkpt lat="43.607363115677515" lon="6.747348824196789"><ele>192.0</ele><time>2026-04-12T09:54:36Z</time></trkpt><trkpt lat="43.60733180749683" lon="6.747460622118721"><ele>192.0</ele><time>2026-04-12T09:54:37Z</time></trkpt><trkpt lat="43.60730084026616" lon="6.747571623840707"><ele>192.0</ele><time>2026-04-12T09:54:38Z</time></trkpt><trkpt lat="43.60727093022612" lon="6.747682139635106"><ele>192.0</ele><time>2026-04-12T09:54:39Z</time></trkpt><trkpt lat="43.60724298154626" lon="6.747792127553582"><ele>192.0</ele><time>2026-04-12T09:54:40Z</time></trkpt><trkpt lat="43.607214225158216" lon="6.7478996938086775"><ele>192.0</ele><time>2026-04-12T09:54:41Z</time></trkpt><trkpt lat="43.607186548863076" lon="6.748005152076309"><ele>192.0</ele><time>2026-04-12T09:54:42Z</time></trkpt><trkpt lat="43.60715911969525" lon="6.748109770969314"><ele>192.0</ele><time>2026-04-12T09:54:43Z</time></trkpt><trkpt lat="43.60713150989365" lon="6.748212732993591"><ele>192.0</ele><time>2026-04-12T09:54:44Z</time></trkpt><trkpt lat="43.60710691843369" lon="6.748316457260491"><ele>192.0</ele><time>2026-04-12T09:54:45Z</time></trkpt><trkpt lat="43.60707865637266" lon="6.74842124160172"><ele>192.0</ele><time>2026-04-12T09:54:46Z</time></trkpt><trkpt lat="43.60704872852912" lon="6.7485257172940285"><ele>192.0</ele><time>2026-04-12T09:54:47Z</time></trkpt><trkpt lat="43.60702166043499" lon="6.748633515567937"><ele>192.0</ele><time>2026-04-12T09:54:48Z</time></trkpt><trkpt lat="43.606991174881415" lon="6.748741498960743"><ele>191.5</ele><time>2026-04-12T09:54:49Z</time></trkpt><trkpt lat="43.606960249664006" lon="6.748851496696245"><ele>191.0</ele><time>2026-04-12T09:54:50Z</time></trkpt><trkpt lat="43.60692867908554" lon="6.748963321183102"><ele>190.5</ele><time>2026-04-12T09:54:51Z</time></trkpt><trkpt lat="43.60689603418173" lon="6.749075811982151"><ele>190.0</ele><time>2026-04-12T09:54:52Z</time></trkpt><trkpt lat="43.606863136672864" lon="6.749187397412635"><ele>189.5</ele><time>2026-04-12T09:54:53Z</time></trkpt><trkpt lat="43.60682992208633" lon="6.749299131386194"><ele>189.0</ele><time>2026-04-12T09:54:54Z</time></trkpt><trkpt lat="43.60679618579483" lon="6.749409698860398"><ele>189.0</ele><time>2026-04-12T09:54:55Z</time></trkpt><trkpt lat="43.606763494877235" lon="6.749519218542714"><ele>189.0</ele><time>2026-04-12T09:54:56Z</time></trkpt><trkpt lat="43.60673022436699" lon="6.749628126480751"><ele>189.0</ele><time>2026-04-12T09:54:57Z</time></trkpt><trkpt lat="43.60669668224896" lon="6.7497380276875925"><ele>189.0</ele><time>2026-04-12T09:54:58Z</time></trkpt><trkpt lat="43.606664865113075" lon="6.74984932531378"><ele>189.0</ele><time>2026-04-12T09:54:59Z</time></trkpt><trkpt lat="43.60663528775884" lon="6.749963939632074"><ele>189.0</ele><time>2026-04-12T09:55:00Z</time></trkpt><trkpt lat="43.606607332772285" lon="6.750079150401013"><ele>189.0</ele><time>2026-04-12T09:55:01Z</time></trkpt><trkpt lat="43.6065819664832" lon="6.750194897432524"><ele>189.0</ele><time>2026-04-12T09:55:02Z</time></trkpt><trkpt lat="43.60655918216675" lon="6.750313222876939"><ele>189.0</ele><time>2026-04-12T09:55:03Z</time></trkpt><trkpt lat="43.606535719702585" lon="6.75043117015567"><ele>189.0</ele><time>2026-04-12T09:55:04Z</time></trkpt><trkpt lat="43.606514603213206" lon="6.750549593169057"><ele>189.0</ele><time>2026-04-12T09:55:05Z</time></trkpt><trkpt lat="43.606493970878496" lon="6.750668706135981"><ele>189.0</ele><time>2026-04-12T09:55:06Z</time></trkpt><trkpt lat="43.60647204111311" lon="6.7507858377607075"><ele>189.0</ele><time>2026-04-12T09:55:07Z</time></trkpt><trkpt lat="43.60644951894622" lon="6.750903375021242"><ele>189.0</ele><time>2026-04-12T09:55:08Z</time></trkpt><trkpt lat="43.60642629629942" lon="6.751021345614085"><ele>189.0</ele><time>2026-04-12T09:55:09Z</time></trkpt><trkpt lat="43.60640560426603" lon="6.75113992107439"><ele>189.0</ele><time>2026-04-12T09:55:10Z</time></trkpt><trkpt lat="43.60638436358309" lon="6.751256810890819"><ele>189.0</ele><time>2026-04-12T09:55:11Z</time></trkpt><trkpt lat="43.606364179260375" lon="6.751375219859441"><ele>189.0</ele><time>2026-04-12T09:55:12Z</time></trkpt><trkpt lat="43.60634172940279" lon="6.75149394565356"><ele>188.66666666666666</ele><time>2026-04-12T09:55:13Z</time></trkpt><trkpt lat="43.60631977352615" lon="6.751613035135704"><ele>188.33333333333334</ele><time>2026-04-12T09:55:14Z</time></trkpt><trkpt lat="43.606297189281435" lon="6.751731638156831"><ele>188.0</ele><time>2026-04-12T09:55:15Z</time></trkpt><trkpt lat="43.60627553717418" lon="6.751848503888331"><ele>187.66666666666669</ele><time>2026-04-12T09:55:16Z</time></trkpt><trkpt lat="43.6062513614561" lon="6.751965658707405"><ele>187.33333333333334</ele><time>2026-04-12T09:55:17Z</time></trkpt><trkpt lat="43.60622742444267" lon="6.752081586668104"><ele>187.0</ele><time>2026-04-12T09:55:18Z</time></trkpt><trkpt lat="43.60620426535083" lon="6.752199788375464"><ele>187.0</ele><time>2026-04-12T09:55:19Z</time></trkpt><trkpt lat="43.60617849857017" lon="6.75231679878007"><ele>187.0</ele><time>2026-04-12T09:55:20Z</time></trkpt><trkpt lat="43.60615355447599" lon="6.752434578569649"><ele>187.0</ele><time>2026-04-12T09:55:21Z</time></trkpt><trkpt lat="43.60612847145095" lon="6.752552420129927"><ele>187.0</ele><time>2026-04-12T09:55:22Z</time></trkpt><trkpt lat="43.60610393510205" lon="6.75266946932368"><ele>187.0</ele><time>2026-04-12T09:55:23Z</time></trkpt><trkpt lat="43.60607975854778" lon="6.75278644856299"><ele>187.0</ele><time>2026-04-12T09:55:24Z</time></trkpt><trkpt lat="43.606056095963915" lon="6.752903673709182"><ele>186.66666666666669</ele><time>2026-04-12T09:55:25Z</time></trkpt><trkpt lat="43.60603769636426" lon="6.753021886495835"><ele>186.33333333333334</ele><time>2026-04-12T09:55:26Z</time></trkpt><trkpt lat="43.60602070959508" lon="6.753139510609265"><ele>186.0</ele><time>2026-04-12T09:55:27Z</time></trkpt><trkpt lat="43.60600575439306" lon="6.753256859089852"><ele>185.66666666666666</ele><time>2026-04-12T09:55:28Z</time></trkpt><trkpt lat="43.605990794345914" lon="6.753376588852317"><ele>185.33333333333331</ele><time>2026-04-12T09:55:29Z</time></trkpt><trkpt lat="43.60597850701236" lon="6.753496174662442"><ele>185.0</ele><time>2026-04-12T09:55:30Z</time></trkpt><trkpt lat="43.60596674301848" lon="6.753614744268297"><ele>184.83333333333331</ele><time>2026-04-12T09:55:31Z</time></trkpt><trkpt lat="43.605957831621204" lon="6.75373376480804"><ele>184.66666666666666</ele><time>2026-04-12T09:55:32Z</time></trkpt><trkpt lat="43.60594637437001" lon="6.753854329891906"><ele>184.5</ele><time>2026-04-12T09:55:33Z</time></trkpt><trkpt lat="43.60593071849474" lon="6.7539738038396795"><ele>184.33333333333334</ele><time>2026-04-12T09:55:34Z</time></trkpt><trkpt lat="43.60591174298122" lon="6.754088978865094"><ele>184.16666666666669</ele><time>2026-04-12T09:55:35Z</time></trkpt><trkpt lat="43.605892635960565" lon="6.7542022003931725"><ele>184.0</ele><time>2026-04-12T09:55:36Z</time></trkpt><trkpt lat="43.60587684296793" lon="6.754312742098904"><ele>184.0</ele><time>2026-04-12T09:55:37Z</time></trkpt><trkpt lat="43.605859592054856" lon="6.754418769018291"><ele>184.0</ele><time>2026-04-12T09:55:38Z</time></trkpt><trkpt lat="43.60584112909355" lon="6.75451976998316"><ele>184.0</ele><time>2026-04-12T09:55:39Z</time></trkpt><trkpt lat="43.60581900366107" lon="6.754620408764643"><ele>184.0</ele><time>2026-04-12T09:55:40Z</time></trkpt><trkpt lat="43.60579459786252" lon="6.754720942807855"><ele>184.0</ele><time>2026-04-12T09:55:41Z</time></trkpt><trkpt lat="43.60576717061132" lon="6.754819895734329"><ele>184.0</ele><time>2026-04-12T09:55:42Z</time></trkpt><trkpt lat="43.60573545021644" lon="6.754912603141961"><ele>184.0</ele><time>2026-04-12T09:55:43Z</time></trkpt><trkpt lat="43.605693229396" lon="6.755000709116931"><ele>184.0</ele><time>2026-04-12T09:55:44Z</time></trkpt><trkpt lat="43.60564146506316" lon="6.755081698442636"><ele>184.0</ele><time>2026-04-12T09:55:45Z</time></trkpt><trkpt lat="43.605605520050354" lon="6.755179139847162"><ele>184.0</ele><time>2026-04-12T09:55:46Z</time></trkpt><trkpt lat="43.605593494805845" lon="6.755297183099193"><ele>184.0</ele><time>2026-04-12T09:55:47Z</time></trkpt><trkpt lat="43.60561540578348" lon="6.755413369808014"><ele>184.0</ele><time>2026-04-12T09:55:48Z</time></trkpt><trkpt lat="43.60566402990565" lon="6.755514595478588"><ele>184.0</ele><time>2026-04-12T09:55:49Z</time></trkpt><trkpt lat="43.60570391456909" lon="6.75561700877579"><ele>184.0</ele><time>2026-04-12T09:55:50Z</time></trkpt><trkpt lat="43.60571381292833" lon="6.755737778020015"><ele>184.0</ele><time>2026-04-12T09:55:51Z</time></trkpt><trkpt lat="43.60570428865399" lon="6.7558637134220145"><ele>184.0</ele><time>2026-04-12T09:55:52Z</time></trkpt><trkpt lat="43.605702045739044" lon="6.755990729181043"><ele>184.0</ele><time>2026-04-12T09:55:53Z</time></trkpt><trkpt lat="43.60570515775049" lon="6.75612018506502"><ele>184.0</ele><time>2026-04-12T09:55:54Z</time></trkpt><trkpt lat="43.605707458689835" lon="6.756248728098566"><ele>184.0</ele><time>2026-04-12T09:55:55Z</time></trkpt><trkpt lat="43.60570211285615" lon="6.756373922691021"><ele>184.0</ele><time>2026-04-12T09:55:56Z</time></trkpt><trkpt lat="43.60569620003593" lon="6.7564971583212605"><ele>184.0</ele><time>2026-04-12T09:55:57Z</time></trkpt><trkpt lat="43.60568650983495" lon="6.756621331028787"><ele>184.0</ele><time>2026-04-12T09:55:58Z</time></trkpt><trkpt lat="43.60567213374559" lon="6.756746195441919"><ele>183.79999999999998</ele><time>2026-04-12T09:55:59Z</time></trkpt><trkpt lat="43.60565678812812" lon="6.756872351469254"><ele>183.6</ele><time>2026-04-12T09:56:00Z</time></trkpt><trkpt lat="43.60564017171544" lon="6.756998534306158"><ele>183.4</ele><time>2026-04-12T09:56:01Z</time></trkpt><trkpt lat="43.60561816145431" lon="6.757122501102102"><ele>183.2</ele><time>2026-04-12T09:56:02Z</time></trkpt><trkpt lat="43.605595842874735" lon="6.757245405462707"><ele>183.0</ele><time>2026-04-12T09:56:03Z</time></trkpt><trkpt lat="43.60557034665704" lon="6.757365353624799"><ele>183.0</ele><time>2026-04-12T09:56:04Z</time></trkpt><trkpt lat="43.605546409911376" lon="6.757488516918452"><ele>183.0</ele><time>2026-04-12T09:56:05Z</time></trkpt><trkpt lat="43.60552582735291" lon="6.757610379078543"><ele>183.0</ele><time>2026-04-12T09:56:06Z</time></trkpt><trkpt lat="43.60550757585083" lon="6.757733091341042"><ele>183.0</ele><time>2026-04-12T09:56:07Z</time></trkpt><trkpt lat="43.60549544773395" lon="6.757856778227167"><ele>183.0</ele><time>2026-04-12T09:56:08Z</time></trkpt><trkpt lat="43.605487566008314" lon="6.757980997894673"><ele>182.8</ele><time>2026-04-12T09:56:09Z</time></trkpt><trkpt lat="43.60548402799225" lon="6.758105569234661"><ele>182.60000000000002</ele><time>2026-04-12T09:56:10Z</time></trkpt><trkpt lat="43.60548156176512" lon="6.75823209845932"><ele>182.39999999999998</ele><time>2026-04-12T09:56:11Z</time></trkpt><trkpt lat="43.60548079251858" lon="6.7583570824964365"><ele>182.2</ele><time>2026-04-12T09:56:12Z</time></trkpt><trkpt lat="43.60548223735054" lon="6.758481226962522"><ele>182.0</ele><time>2026-04-12T09:56:13Z</time></trkpt><trkpt lat="43.60548417336359" lon="6.758604862166638"><ele>182.0</ele><time>2026-04-12T09:56:14Z</time></trkpt><trkpt lat="43.60548657465603" lon="6.75872721362245"><ele>182.0</ele><time>2026-04-12T09:56:15Z</time></trkpt><trkpt lat="43.60548811294178" lon="6.758848681265698"><ele>182.0</ele><time>2026-04-12T09:56:16Z</time></trkpt><trkpt lat="43.605490556700914" lon="6.75897020787495"><ele>182.0</ele><time>2026-04-12T09:56:17Z</time></trkpt><trkpt lat="43.60549353503168" lon="6.75908422541231"><ele>182.0</ele><time>2026-04-12T09:56:18Z</time></trkpt><trkpt lat="43.605497594845346" lon="6.759204941842207"><ele>182.0</ele><time>2026-04-12T09:56:19Z</time></trkpt><trkpt lat="43.60550153660202" lon="6.759320717973688"><ele>182.0</ele><time>2026-04-12T09:56:20Z</time></trkpt><trkpt lat="43.60550774053386" lon="6.7594355934796955"><ele>182.0</ele><time>2026-04-12T09:56:21Z</time></trkpt><trkpt lat="43.60551543152218" lon="6.759548789903942"><ele>182.0</ele><time>2026-04-12T09:56:22Z</time></trkpt><trkpt lat="43.60552541203842" lon="6.759659431105213"><ele>182.0</ele><time>2026-04-12T09:56:23Z</time></trkpt><trkpt lat="43.60553445963804" lon="6.759770709210981"><ele>182.0</ele><time>2026-04-12T09:56:24Z</time></trkpt><trkpt lat="43.60554466463702" lon="6.759880796384136"><ele>182.0</ele><time>2026-04-12T09:56:25Z</time></trkpt><trkpt lat="43.605552331179034" lon="6.759991409086398"><ele>182.0</ele><time>2026-04-12T09:56:26Z</time></trkpt><trkpt lat="43.605559391174694" lon="6.760101426216491"><ele>182.0</ele><time>2026-04-12T09:56:27Z</time></trkpt><trkpt lat="43.605569290377844" lon="6.760212095945365"><ele>182.0</ele><time>2026-04-12T09:56:28Z</time></trkpt><trkpt lat="43.605579710664564" lon="6.760323315994143"><ele>182.0</ele><time>2026-04-12T09:56:29Z</time></trkpt><trkpt lat="43.605589411157595" lon="6.760435637132922"><ele>182.0</ele><time>2026-04-12T09:56:30Z</time></trkpt><trkpt lat="43.605598590454804" lon="6.760549687601119"><ele>182.0</ele><time>2026-04-12T09:56:31Z</time></trkpt><trkpt lat="43.60560752641018" lon="6.760661152991592"><ele>181.83333333333331</ele><time>2026-04-12T09:56:32Z</time></trkpt><trkpt lat="43.60561745501965" lon="6.7607734551451895"><ele>181.66666666666666</ele><time>2026-04-12T09:56:33Z</time></trkpt><trkpt lat="43.60562582303132" lon="6.760886112006613"><ele>181.5</ele><time>2026-04-12T09:56:34Z</time></trkpt><trkpt lat="43.605636368332426" lon="6.760996853311131"><ele>181.33333333333334</ele><time>2026-04-12T09:56:35Z</time></trkpt><trkpt lat="43.60564866757" lon="6.76110595679036"><ele>181.16666666666669</ele><time>2026-04-12T09:56:36Z</time></trkpt><trkpt lat="43.605661186775905" lon="6.761212339330701"><ele>181.0</ele><time>2026-04-12T09:56:37Z</time></trkpt><trkpt lat="43.60567278843373" lon="6.761317179587327"><ele>181.0</ele><time>2026-04-12T09:56:38Z</time></trkpt><trkpt lat="43.605684791869564" lon="6.761422901232083"><ele>181.0</ele><time>2026-04-12T09:56:39Z</time></trkpt><trkpt lat="43.60569615969598" lon="6.76152663774576"><ele>181.0</ele><time>2026-04-12T09:56:40Z</time></trkpt><trkpt lat="43.60570666472544" lon="6.761628852082325"><ele>181.0</ele><time>2026-04-12T09:56:41Z</time></trkpt><trkpt lat="43.60571488221892" lon="6.761727465381099"><ele>181.0</ele><time>2026-04-12T09:56:42Z</time></trkpt><trkpt lat="43.60571731653869" lon="6.761827528488602"><ele>181.0</ele><time>2026-04-12T09:56:43Z</time></trkpt><trkpt lat="43.60571366335655" lon="6.761927829078225"><ele>181.0</ele><time>2026-04-12T09:56:44Z</time></trkpt><trkpt lat="43.60570613212132" lon="6.76202932753035"><ele>181.0</ele><time>2026-04-12T09:56:45Z</time></trkpt><trkpt lat="43.60569546310443" lon="6.7621324336821065"><ele>181.0</ele><time>2026-04-12T09:56:46Z</time></trkpt><trkpt lat="43.605694373924486" lon="6.762238919474912"><ele>181.0</ele><time>2026-04-12T09:56:47Z</time></trkpt><trkpt lat="43.60570305933214" lon="6.762348326538989"><ele>181.0</ele><time>2026-04-12T09:56:48Z</time></trkpt><trkpt lat="43.60571074207618" lon="6.762453714988363"><ele>181.0</ele><time>2026-04-12T09:56:49Z</time></trkpt><trkpt lat="43.605707941121196" lon="6.762555845756141"><ele>181.0</ele><time>2026-04-12T09:56:50Z</time></trkpt><trkpt lat="43.60569913316908" lon="6.762653984493443"><ele>181.0</ele><time>2026-04-12T09:56:51Z</time></trkpt><trkpt lat="43.605699549536624" lon="6.762752421544881"><ele>181.0</ele><time>2026-04-12T09:56:52Z</time></trkpt><trkpt lat="43.60569869764933" lon="6.762851565195809"><ele>181.0</ele><time>2026-04-12T09:56:53Z</time></trkpt><trkpt lat="43.6056987339436" lon="6.762952353653657"><ele>181.0</ele><time>2026-04-12T09:56:54Z</time></trkpt><trkpt lat="43.60570162544309" lon="6.763057833996039"><ele>181.0</ele><time>2026-04-12T09:56:55Z</time></trkpt><trkpt lat="43.60570403922543" lon="6.763163873378344"><ele>181.0</ele><time>2026-04-12T09:56:56Z</time></trkpt><trkpt lat="43.605704336883306" lon="6.763269857276163"><ele>181.0</ele><time>2026-04-12T09:56:57Z</time></trkpt><trkpt lat="43.60569944535271" lon="6.763372516327744"><ele>181.0</ele><time>2026-04-12T09:56:58Z</time></trkpt><trkpt lat="43.60569732905169" lon="6.763474855122"><ele>181.0</ele><time>2026-04-12T09:56:59Z</time></trkpt><trkpt lat="43.60569798624794" lon="6.763578659179672"><ele>181.0</ele><time>2026-04-12T09:57:00Z</time></trkpt><trkpt lat="43.60569880960427" lon="6.763681688069873"><ele>181.0</ele><time>2026-04-12T09:57:01Z</time></trkpt><trkpt lat="43.605699419706774" lon="6.763786189828408"><ele>181.0</ele><time>2026-04-12T09:57:02Z</time></trkpt><trkpt lat="43.60570093976111" lon="6.763891590668728"><ele>181.0</ele><time>2026-04-12T09:57:03Z</time></trkpt><trkpt lat="43.60570303972146" lon="6.763998089839648"><ele>181.0</ele><time>2026-04-12T09:57:04Z</time></trkpt><trkpt lat="43.6057094735667" lon="6.764104448700365"><ele>181.0</ele><time>2026-04-12T09:57:05Z</time></trkpt><trkpt lat="43.605716053189816" lon="6.764210505087123"><ele>181.0</ele><time>2026-04-12T09:57:06Z</time></trkpt><trkpt lat="43.605722824582685" lon="6.764315268607611"><ele>181.0</ele><time>2026-04-12T09:57:07Z</time></trkpt><trkpt lat="43.60572976524479" lon="6.764419989584659"><ele>181.0</ele><time>2026-04-12T09:57:08Z</time></trkpt><trkpt lat="43.60573770596123" lon="6.764523611665903"><ele>181.0</ele><time>2026-04-12T09:57:09Z</time></trkpt><trkpt lat="43.605745704135096" lon="6.764628223449507"><ele>181.0</ele><time>2026-04-12T09:57:10Z</time></trkpt><trkpt lat="43.60575347021087" lon="6.764732346307483"><ele>181.0</ele><time>2026-04-12T09:57:11Z</time></trkpt><trkpt lat="43.605756468755054" lon="6.764835367785771"><ele>181.0</ele><time>2026-04-12T09:57:12Z</time></trkpt><trkpt lat="43.60576028933642" lon="6.764940074636991"><ele>181.0</ele><time>2026-04-12T09:57:13Z</time></trkpt><trkpt lat="43.60576379307535" lon="6.765045057580478"><ele>181.0</ele><time>2026-04-12T09:57:14Z</time></trkpt><trkpt lat="43.605764245403286" lon="6.765149145567845"><ele>181.0</ele><time>2026-04-12T09:57:15Z</time></trkpt><trkpt lat="43.60576468492881" lon="6.765253907967261"><ele>181.0</ele><time>2026-04-12T09:57:16Z</time></trkpt><trkpt lat="43.6057644611077" lon="6.765359060619533"><ele>181.0</ele><time>2026-04-12T09:57:17Z</time></trkpt><trkpt lat="43.60576463955708" lon="6.765463479957967"><ele>181.0</ele><time>2026-04-12T09:57:18Z</time></trkpt><trkpt lat="43.60576444436757" lon="6.7655684582507565"><ele>181.0</ele><time>2026-04-12T09:57:19Z</time></trkpt><trkpt lat="43.605765120498525" lon="6.765672993494035"><ele>181.0</ele><time>2026-04-12T09:57:20Z</time></trkpt><trkpt lat="43.605767328217475" lon="6.765779746499446"><ele>181.0</ele><time>2026-04-12T09:57:21Z</time></trkpt><trkpt lat="43.60577021775541" lon="6.765889582676643"><ele>181.0</ele><time>2026-04-12T09:57:22Z</time></trkpt><trkpt lat="43.60577171912744" lon="6.765999654723986"><ele>181.0</ele><time>2026-04-12T09:57:23Z</time></trkpt><trkpt lat="43.60577173989582" lon="6.766111450821072"><ele>181.0</ele><time>2026-04-12T09:57:24Z</time></trkpt><trkpt lat="43.60577183339524" lon="6.766223734676827"><ele>181.0</ele><time>2026-04-12T09:57:25Z</time></trkpt><trkpt lat="43.605770726871796" lon="6.76633775178722"><ele>181.0</ele><time>2026-04-12T09:57:26Z</time></trkpt><trkpt lat="43.60577003799808" lon="6.76645177543754"><ele>181.0</ele><time>2026-04-12T09:57:27Z</time></trkpt><trkpt lat="43.60576693134347" lon="6.766565341761376"><ele>180.66666666666669</ele><time>2026-04-12T09:57:28Z</time></trkpt><trkpt lat="43.605762548890965" lon="6.766678860570747"><ele>180.33333333333334</ele><time>2026-04-12T09:57:29Z</time></trkpt><trkpt lat="43.6057550600512" lon="6.76679181472186"><ele>180.0</ele><time>2026-04-12T09:57:30Z</time></trkpt><trkpt lat="43.60574541487121" lon="6.766903571130768"><ele>179.66666666666666</ele><time>2026-04-12T09:57:31Z</time></trkpt><trkpt lat="43.60573368995973" lon="6.767016267242086"><ele>179.33333333333331</ele><time>2026-04-12T09:57:32Z</time></trkpt><trkpt lat="43.60572364653247" lon="6.76712783819021"><ele>179.0</ele><time>2026-04-12T09:57:33Z</time></trkpt><trkpt lat="43.60570993853671" lon="6.767239738016466"><ele>179.0</ele><time>2026-04-12T09:57:34Z</time></trkpt><trkpt lat="43.60569728321951" lon="6.767350503325608"><ele>179.0</ele><time>2026-04-12T09:57:35Z</time></trkpt><trkpt lat="43.60568093260152" lon="6.767459592084352"><ele>179.0</ele><time>2026-04-12T09:57:36Z</time></trkpt><trkpt lat="43.60566009637497" lon="6.767568386686404"><ele>179.0</ele><time>2026-04-12T09:57:37Z</time></trkpt><trkpt lat="43.605637357889066" lon="6.7676758585194134"><ele>179.0</ele><time>2026-04-12T09:57:38Z</time></trkpt><trkpt lat="43.60561480168865" lon="6.767781457198283"><ele>179.0</ele><time>2026-04-12T09:57:39Z</time></trkpt><trkpt lat="43.605589351764095" lon="6.767885894988808"><ele>179.33333333333331</ele><time>2026-04-12T09:57:40Z</time></trkpt><trkpt lat="43.6055604866737" lon="6.767989504358884"><ele>179.66666666666666</ele><time>2026-04-12T09:57:41Z</time></trkpt><trkpt lat="43.60553072647633" lon="6.7680927986964585"><ele>180.0</ele><time>2026-04-12T09:57:42Z</time></trkpt><trkpt lat="43.60549917273218" lon="6.768195625354557"><ele>180.33333333333334</ele><time>2026-04-12T09:57:43Z</time></trkpt><trkpt lat="43.605466456280986" lon="6.768296844481928"><ele>180.66666666666669</ele><time>2026-04-12T09:57:44Z</time></trkpt><trkpt lat="43.60543422427195" lon="6.768398392066388"><ele>181.0</ele><time>2026-04-12T09:57:45Z</time></trkpt><trkpt lat="43.60540160999887" lon="6.768501025021364"><ele>181.0</ele><time>2026-04-12T09:57:46Z</time></trkpt><trkpt lat="43.60536954617376" lon="6.768602700177021"><ele>181.0</ele><time>2026-04-12T09:57:47Z</time></trkpt><trkpt lat="43.60533848599024" lon="6.768707623759397"><ele>181.0</ele><time>2026-04-12T09:57:48Z</time></trkpt><trkpt lat="43.6053055703079" lon="6.768809738094362"><ele>181.0</ele><time>2026-04-12T09:57:49Z</time></trkpt><trkpt lat="43.60527304778903" lon="6.768912039122749"><ele>181.0</ele><time>2026-04-12T09:57:50Z</time></trkpt><trkpt lat="43.605243671807145" lon="6.769014361977725"><ele>181.0</ele><time>2026-04-12T09:57:51Z</time></trkpt><trkpt lat="43.60521357189624" lon="6.769117668980292"><ele>180.33333333333334</ele><time>2026-04-12T09:57:52Z</time></trkpt><trkpt lat="43.605181470671084" lon="6.769217019116271"><ele>179.66666666666669</ele><time>2026-04-12T09:57:53Z</time></trkpt><trkpt lat="43.605150434245154" lon="6.769317080705619"><ele>179.0</ele><time>2026-04-12T09:57:54Z</time></trkpt><trkpt lat="43.60512084534058" lon="6.769418282103024"><ele>178.33333333333334</ele><time>2026-04-12T09:57:55Z</time></trkpt><trkpt lat="43.60508711849428" lon="6.7695140699222724"><ele>177.66666666666666</ele><time>2026-04-12T09:57:56Z</time></trkpt><trkpt lat="43.60504960591033" lon="6.769608192568819"><ele>177.0</ele><time>2026-04-12T09:57:57Z</time></trkpt><trkpt lat="43.60500527424902" lon="6.769693257935098"><ele>177.0</ele><time>2026-04-12T09:57:58Z</time></trkpt><trkpt lat="43.60496413101076" lon="6.76978205264247"><ele>177.0</ele><time>2026-04-12T09:57:59Z</time></trkpt><trkpt lat="43.60495079736189" lon="6.76988643416563"><ele>177.0</ele><time>2026-04-12T09:58:00Z</time></trkpt><trkpt lat="43.604968959285394" lon="6.769995442916657"><ele>177.0</ele><time>2026-04-12T09:58:01Z</time></trkpt><trkpt lat="43.60499002269062" lon="6.770098448480107"><ele>177.0</ele><time>2026-04-12T09:58:02Z</time></trkpt><trkpt lat="43.604981445710834" lon="6.770203022680537"><ele>177.0</ele><time>2026-04-12T09:58:03Z</time></trkpt><trkpt lat="43.604940701009326" lon="6.770297688692252"><ele>177.33333333333334</ele><time>2026-04-12T09:58:04Z</time></trkpt><trkpt lat="43.604893138550196" lon="6.77038966077381"><ele>177.66666666666666</ele><time>2026-04-12T09:58:05Z</time></trkpt><trkpt lat="43.604847129945156" lon="6.770478263953313"><ele>178.0</ele><time>2026-04-12T09:58:06Z</time></trkpt><trkpt lat="43.60479883964753" lon="6.77056531109161"><ele>178.33333333333331</ele><time>2026-04-12T09:58:07Z</time></trkpt><trkpt lat="43.60475465604006" lon="6.770655890243238"><ele>178.66666666666666</ele><time>2026-04-12T09:58:08Z</time></trkpt><trkpt lat="43.60470897513175" lon="6.770744340052065"><ele>179.0</ele><time>2026-04-12T09:58:09Z</time></trkpt><trkpt lat="43.60466577970642" lon="6.770833819314553"><ele>179.0</ele><time>2026-04-12T09:58:10Z</time></trkpt><trkpt lat="43.60462538874026" lon="6.7709242506741605"><ele>179.0</ele><time>2026-04-12T09:58:11Z</time></trkpt><trkpt lat="43.60458786170597" lon="6.771019270543542"><ele>179.0</ele><time>2026-04-12T09:58:12Z</time></trkpt><trkpt lat="43.60455213383758" lon="6.771114118644686"><ele>179.0</ele><time>2026-04-12T09:58:13Z</time></trkpt><trkpt lat="43.604516373465465" lon="6.771209202476182"><ele>179.0</ele><time>2026-04-12T09:58:14Z</time></trkpt><trkpt lat="43.60448170256816" lon="6.771304484791444"><ele>179.0</ele><time>2026-04-12T09:58:15Z</time></trkpt><trkpt lat="43.60444930319815" lon="6.771398887104439"><ele>179.00000000000003</ele><time>2026-04-12T09:58:16Z</time></trkpt><trkpt lat="43.60441771970736" lon="6.771492801455259"><ele>179.0</ele><time>2026-04-12T09:58:17Z</time></trkpt><trkpt lat="43.604383721510345" lon="6.77158454492183"><ele>179.0</ele><time>2026-04-12T09:58:18Z</time></trkpt><trkpt lat="43.60435091250787" lon="6.7716753889753"><ele>179.0</ele><time>2026-04-12T09:58:19Z</time></trkpt><trkpt lat="43.60432047212989" lon="6.771765107331502"><ele>179.0</ele><time>2026-04-12T09:58:20Z</time></trkpt><trkpt lat="43.60428809609283" lon="6.771853242236404"><ele>179.00000000000003</ele><time>2026-04-12T09:58:21Z</time></trkpt><trkpt lat="43.60425708906374" lon="6.771941582972874"><ele>179.0</ele><time>2026-04-12T09:58:22Z</time></trkpt><trkpt lat="43.60422541138684" lon="6.772030755537592"><ele>179.2857142857143</ele><time>2026-04-12T09:58:23Z</time></trkpt><trkpt lat="43.60419519377917" lon="6.772116584640011"><ele>179.57142857142858</ele><time>2026-04-12T09:58:24Z</time></trkpt><trkpt lat="43.60416600203828" lon="6.772204399195492"><ele>179.85714285714286</ele><time>2026-04-12T09:58:25Z</time></trkpt><trkpt lat="43.60413670089533" lon="6.7722903414112"><ele>180.14285714285717</ele><time>2026-04-12T09:58:26Z</time></trkpt><trkpt lat="43.60410574016096" lon="6.772374311631421"><ele>180.42857142857142</ele><time>2026-04-12T09:58:27Z</time></trkpt><trkpt lat="43.604073229750604" lon="6.772458375866202"><ele>180.71428571428572</ele><time>2026-04-12T09:58:28Z</time></trkpt><trkpt lat="43.60404237683284" lon="6.772542777745729"><ele>181.0</ele><time>2026-04-12T09:58:29Z</time></trkpt><trkpt lat="43.604011941173674" lon="6.772628054586574"><ele>181.14285714285714</ele><time>2026-04-12T09:58:30Z</time></trkpt><trkpt lat="43.603983701689906" lon="6.7727133946392"><ele>181.28571428571428</ele><time>2026-04-12T09:58:31Z</time></trkpt><trkpt lat="43.603953902316185" lon="6.772797893496737"><ele>181.42857142857144</ele><time>2026-04-12T09:58:32Z</time></trkpt><trkpt lat="43.60392328323436" lon="6.772880693615337"><ele>181.57142857142856</ele><time>2026-04-12T09:58:33Z</time></trkpt><trkpt lat="43.6038934265446" lon="6.772964167448045"><ele>181.71428571428572</ele><time>2026-04-12T09:58:34Z</time></trkpt><trkpt lat="43.603864777895495" lon="6.773047560383347"><ele>181.85714285714286</ele><time>2026-04-12T09:58:35Z</time></trkpt><trkpt lat="43.60383412092842" lon="6.773130064356429"><ele>182.0</ele><time>2026-04-12T09:58:36Z</time></trkpt><trkpt lat="43.6038038702468" lon="6.7732116338601065"><ele>182.0</ele><time>2026-04-12T09:58:37Z</time></trkpt><trkpt lat="43.603774461525056" lon="6.773295304376463"><ele>182.0</ele><time>2026-04-12T09:58:38Z</time></trkpt><trkpt lat="43.603747469263034" lon="6.773379319051615"><ele>182.0</ele><time>2026-04-12T09:58:39Z</time></trkpt><trkpt lat="43.60371761676102" lon="6.773463560514163"><ele>182.0</ele><time>2026-04-12T09:58:40Z</time></trkpt><trkpt lat="43.603687498382335" lon="6.77354532125598"><ele>182.0</ele><time>2026-04-12T09:58:41Z</time></trkpt><trkpt lat="43.603657624451856" lon="6.77362842867078"><ele>182.0</ele><time>2026-04-12T09:58:42Z</time></trkpt><trkpt lat="43.60362921334312" lon="6.7737120814496246"><ele>182.0</ele><time>2026-04-12T09:58:43Z</time></trkpt><trkpt lat="43.60360081388647" lon="6.773795302665728"><ele>182.14285714285714</ele><time>2026-04-12T09:58:44Z</time></trkpt><trkpt lat="43.60357109725192" lon="6.773876718663631"><ele>182.28571428571428</ele><time>2026-04-12T09:58:45Z</time></trkpt><trkpt lat="43.60354315660191" lon="6.773958496258297"><ele>182.42857142857144</ele><time>2026-04-12T09:58:46Z</time></trkpt><trkpt lat="43.60351574369012" lon="6.774038041742768"><ele>182.57142857142856</ele><time>2026-04-12T09:58:47Z</time></trkpt><trkpt lat="43.60348786827286" lon="6.774116256675589"><ele>182.71428571428572</ele><time>2026-04-12T09:58:48Z</time></trkpt><trkpt lat="43.603460233993225" lon="6.77419467275148"><ele>182.85714285714286</ele><time>2026-04-12T09:58:49Z</time></trkpt><trkpt lat="43.603404866551344" lon="6.77435231417884"><ele>183.0</ele><time>2026-04-12T09:58:51Z</time></trkpt><trkpt lat="43.603378231767415" lon="6.77443140059734"><ele>183.14285714285714</ele><time>2026-04-12T09:58:52Z</time></trkpt><trkpt lat="43.603349987909006" lon="6.77451274953304"><ele>183.28571428571428</ele><time>2026-04-12T09:58:53Z</time></trkpt><trkpt lat="43.603320122456864" lon="6.774591906230134"><ele>183.42857142857144</ele><time>2026-04-12T09:58:54Z</time></trkpt><trkpt lat="43.60329019007054" lon="6.774670221265977"><ele>183.57142857142856</ele><time>2026-04-12T09:58:55Z</time></trkpt><trkpt lat="43.603261899126316" lon="6.774750083341535"><ele>183.7142857142857</ele><time>2026-04-12T09:58:56Z</time></trkpt><trkpt lat="43.60323384788584" lon="6.774829498373966"><ele>183.85714285714286</ele><time>2026-04-12T09:58:57Z</time></trkpt><trkpt lat="43.603206408580455" lon="6.7749111750717805"><ele>184.0</ele><time>2026-04-12T09:58:58Z</time></trkpt><trkpt lat="43.60317847053284" lon="6.7749910050243685"><ele>184.0</ele><time>2026-04-12T09:58:59Z</time></trkpt><trkpt lat="43.60314887049963" lon="6.775070771908116"><ele>184.0</ele><time>2026-04-12T09:59:00Z</time></trkpt><trkpt lat="43.60311964370957" lon="6.77514953412792"><ele>184.0</ele><time>2026-04-12T09:59:01Z</time></trkpt><trkpt lat="43.603092224334425" lon="6.775230352451999"><ele>184.0</ele><time>2026-04-12T09:59:02Z</time></trkpt><trkpt lat="43.60306444050295" lon="6.775313180883521"><ele>184.0</ele><time>2026-04-12T09:59:03Z</time></trkpt><trkpt lat="43.60303470812473" lon="6.775396498095254"><ele>184.0</ele><time>2026-04-12T09:59:04Z</time></trkpt><trkpt lat="43.60300462148765" lon="6.775478446391629"><ele>184.0</ele><time>2026-04-12T09:59:05Z</time></trkpt><trkpt lat="43.60297504095898" lon="6.775560513581094"><ele>183.85714285714286</ele><time>2026-04-12T09:59:06Z</time></trkpt><trkpt lat="43.60294545309119" lon="6.775644859420301"><ele>183.7142857142857</ele><time>2026-04-12T09:59:07Z</time></trkpt><trkpt lat="43.60291508473512" lon="6.775730046422518"><ele>183.57142857142856</ele><time>2026-04-12T09:59:08Z</time></trkpt><trkpt lat="43.6028866770677" lon="6.77581596558321"><ele>183.42857142857144</ele><time>2026-04-12T09:59:09Z</time></trkpt><trkpt lat="43.602856480182744" lon="6.775900903817366"><ele>183.28571428571428</ele><time>2026-04-12T09:59:10Z</time></trkpt><trkpt lat="43.60282635593568" lon="6.775987030978129"><ele>183.14285714285714</ele><time>2026-04-12T09:59:11Z</time></trkpt><trkpt lat="43.602795632654065" lon="6.7760711689146325"><ele>183.0</ele><time>2026-04-12T09:59:12Z</time></trkpt><trkpt lat="43.60276625583169" lon="6.776157510712768"><ele>183.0</ele><time>2026-04-12T09:59:13Z</time></trkpt><trkpt lat="43.60273747405134" lon="6.776244177081206"><ele>183.0</ele><time>2026-04-12T09:59:14Z</time></trkpt><trkpt lat="43.60270575171836" lon="6.77632965841899"><ele>183.0</ele><time>2026-04-12T09:59:15Z</time></trkpt><trkpt lat="43.602674997691665" lon="6.776416363798504"><ele>183.0</ele><time>2026-04-12T09:59:16Z</time></trkpt><trkpt lat="43.60264536460651" lon="6.776504134494138"><ele>183.0</ele><time>2026-04-12T09:59:17Z</time></trkpt><trkpt lat="43.6026156001543" lon="6.776593697936987"><ele>183.0</ele><time>2026-04-12T09:59:18Z</time></trkpt><trkpt lat="43.602584159600404" lon="6.776682395081232"><ele>183.0</ele><time>2026-04-12T09:59:19Z</time></trkpt><trkpt lat="43.60255285374678" lon="6.776772895937718"><ele>183.0</ele><time>2026-04-12T09:59:20Z</time></trkpt><trkpt lat="43.60252005469892" lon="6.776865413963653"><ele>183.0</ele><time>2026-04-12T09:59:21Z</time></trkpt><trkpt lat="43.6024870855645" lon="6.776959978679983"><ele>183.0</ele><time>2026-04-12T09:59:22Z</time></trkpt><trkpt lat="43.60245223916632" lon="6.777055941552874"><ele>183.0</ele><time>2026-04-12T09:59:23Z</time></trkpt><trkpt lat="43.602418954087604" lon="6.7771512190706655"><ele>183.0</ele><time>2026-04-12T09:59:24Z</time></trkpt><trkpt lat="43.60238284523086" lon="6.777243346386774"><ele>183.0</ele><time>2026-04-12T09:59:25Z</time></trkpt><trkpt lat="43.6023477822407" lon="6.777335356315321"><ele>183.0</ele><time>2026-04-12T09:59:26Z</time></trkpt><trkpt lat="43.60231649474184" lon="6.7774291742066675"><ele>183.0</ele><time>2026-04-12T09:59:27Z</time></trkpt><trkpt lat="43.602280813761844" lon="6.777517488909079"><ele>183.0</ele><time>2026-04-12T09:59:28Z</time></trkpt><trkpt lat="43.60224743004544" lon="6.777606958561038"><ele>183.0</ele><time>2026-04-12T09:59:29Z</time></trkpt><trkpt lat="43.60221625026367" lon="6.777698544822997"><ele>183.0</ele><time>2026-04-12T09:59:30Z</time></trkpt><trkpt lat="43.60218478409511" lon="6.777790563704653"><ele>183.0</ele><time>2026-04-12T09:59:31Z</time></trkpt><trkpt lat="43.60215386136627" lon="6.77787972302577"><ele>183.0</ele><time>2026-04-12T09:59:32Z</time></trkpt><trkpt lat="43.6021249260339" lon="6.777964518887636"><ele>182.8</ele><time>2026-04-12T09:59:33Z</time></trkpt><trkpt lat="43.602097291322586" lon="6.778044897592609"><ele>182.60000000000002</ele><time>2026-04-12T09:59:34Z</time></trkpt><trkpt lat="43.60203787442016" lon="6.7781647088798485"><ele>182.39999999999998</ele><time>2026-04-12T09:59:36Z</time></trkpt><trkpt lat="43.60195458500105" lon="6.778251167662048"><ele>182.2</ele><time>2026-04-12T09:59:38Z</time></trkpt><trkpt lat="43.601845359944264" lon="6.778334447659337"><ele>182.0</ele><time>2026-04-12T09:59:40Z</time></trkpt><trkpt lat="43.60180419539052" lon="6.778402408602083"><ele>182.0</ele><time>2026-04-12T09:59:41Z</time></trkpt><trkpt lat="43.60178155010777" lon="6.778490039565107"><ele>182.0</ele><time>2026-04-12T09:59:42Z</time></trkpt><trkpt lat="43.601781945727616" lon="6.778583302140691"><ele>182.0</ele><time>2026-04-12T09:59:43Z</time></trkpt><trkpt lat="43.60179769450143" lon="6.778673065092361"><ele>182.0</ele><time>2026-04-12T09:59:44Z</time></trkpt><trkpt lat="43.601795473585405" lon="6.778842102190634"><ele>182.0</ele><time>2026-04-12T09:59:46Z</time></trkpt><trkpt lat="43.60177102988196" lon="6.778925750438069"><ele>182.0</ele><time>2026-04-12T09:59:47Z</time></trkpt><trkpt lat="43.601739776743145" lon="6.779007309686365"><ele>182.6</ele><time>2026-04-12T09:59:48Z</time></trkpt><trkpt lat="43.6017118907072" lon="6.7790898834252395"><ele>183.2</ele><time>2026-04-12T09:59:49Z</time></trkpt><trkpt lat="43.60168506475201" lon="6.779170795306389"><ele>183.8</ele><time>2026-04-12T09:59:50Z</time></trkpt><trkpt lat="43.6016324635181" lon="6.7793260174631556"><ele>184.4</ele><time>2026-04-12T09:59:52Z</time></trkpt><trkpt lat="43.601572559871286" lon="6.779474166315366"><ele>185.0</ele><time>2026-04-12T09:59:54Z</time></trkpt><trkpt lat="43.60151232543859" lon="6.7796201649912495"><ele>185.75</ele><time>2026-04-12T09:59:56Z</time></trkpt><trkpt lat="43.60145935120981" lon="6.779764118340606"><ele>186.5</ele><time>2026-04-12T09:59:58Z</time></trkpt><trkpt lat="43.601407702836845" lon="6.779905912466901"><ele>187.25</ele><time>2026-04-12T10:00:00Z</time></trkpt><trkpt lat="43.60135532017246" lon="6.780046874810213"><ele>188.0</ele><time>2026-04-12T10:00:02Z</time></trkpt><trkpt lat="43.60130217171831" lon="6.780189115883015"><ele>188.25</ele><time>2026-04-12T10:00:04Z</time></trkpt><trkpt lat="43.601249434512134" lon="6.78033125415481"><ele>188.5</ele><time>2026-04-12T10:00:06Z</time></trkpt><trkpt lat="43.601195965024814" lon="6.780472122340727"><ele>188.75</ele><time>2026-04-12T10:00:08Z</time></trkpt><trkpt lat="43.60114228153442" lon="6.7806115207832995"><ele>189.0</ele><time>2026-04-12T10:00:10Z</time></trkpt><trkpt lat="43.601090256295016" lon="6.780752199693579"><ele>188.5</ele><time>2026-04-12T10:00:12Z</time></trkpt><trkpt lat="43.601037053793846" lon="6.780892275031342"><ele>188.0</ele><time>2026-04-12T10:00:14Z</time></trkpt><trkpt lat="43.60098399291172" lon="6.781031858733126"><ele>187.5</ele><time>2026-04-12T10:00:16Z</time></trkpt><trkpt lat="43.600932623797185" lon="6.7811708199027"><ele>187.0</ele><time>2026-04-12T10:00:18Z</time></trkpt><trkpt lat="43.60088277618096" lon="6.781308292762959"><ele>187.8</ele><time>2026-04-12T10:00:20Z</time></trkpt><trkpt lat="43.600830616612775" lon="6.7814423365215095"><ele>188.6</ele><time>2026-04-12T10:00:22Z</time></trkpt><trkpt lat="43.60077833149454" lon="6.781575880162433"><ele>189.4</ele><time>2026-04-12T10:00:24Z</time></trkpt><trkpt lat="43.60073042636225" lon="6.781709861811561"><ele>190.20000000000002</ele><time>2026-04-12T10:00:26Z</time></trkpt><trkpt lat="43.60067825902148" lon="6.7818409147242456"><ele>191.0</ele><time>2026-04-12T10:00:28Z</time></trkpt><trkpt lat="43.600629957863475" lon="6.781974153293337"><ele>191.20000000000002</ele><time>2026-04-12T10:00:30Z</time></trkpt><trkpt lat="43.60058229730748" lon="6.7821035620630274"><ele>191.4</ele><time>2026-04-12T10:00:32Z</time></trkpt><trkpt lat="43.600530414895786" lon="6.782231911402131"><ele>191.6</ele><time>2026-04-12T10:00:34Z</time></trkpt><trkpt lat="43.60048313073983" lon="6.782356927585911"><ele>191.8</ele><time>2026-04-12T10:00:36Z</time></trkpt><trkpt lat="43.60043762884455" lon="6.782479495994576"><ele>192.0</ele><time>2026-04-12T10:00:38Z</time></trkpt><trkpt lat="43.60040617330022" lon="6.782570700713801"><ele>192.2</ele><time>2026-04-12T10:00:41Z</time></trkpt><trkpt lat="43.600346128291555" lon="6.782724859316846"><ele>192.39999999999998</ele><time>2026-04-12T10:00:42Z</time></trkpt><trkpt lat="43.60030341954885" lon="6.782845309364867"><ele>192.60000000000002</ele><time>2026-04-12T10:00:44Z</time></trkpt><trkpt lat="43.60026216039701" lon="6.78296355562756"><ele>192.8</ele><time>2026-04-12T10:00:46Z</time></trkpt><trkpt lat="43.600220240423305" lon="6.783078231394423"><ele>193.0</ele><time>2026-04-12T10:00:48Z</time></trkpt><trkpt lat="43.60017961518081" lon="6.7831909311316405"><ele>192.99999999999997</ele><time>2026-04-12T10:00:50Z</time></trkpt><trkpt lat="43.60013876274477" lon="6.78330299931171"><ele>193.0</ele><time>2026-04-12T10:00:52Z</time></trkpt><trkpt lat="43.60009806454728" lon="6.783414515631881"><ele>193.0</ele><time>2026-04-12T10:00:54Z</time></trkpt><trkpt lat="43.6000576721426" lon="6.783524560393148"><ele>193.0</ele><time>2026-04-12T10:00:56Z</time></trkpt><trkpt lat="43.600018043572895" lon="6.78363375501777"><ele>192.99999999999997</ele><time>2026-04-12T10:00:58Z</time></trkpt><trkpt lat="43.599977752219836" lon="6.783738530112394"><ele>193.0</ele><time>2026-04-12T10:01:00Z</time></trkpt><trkpt lat="43.599935640333264" lon="6.783838578974031"><ele>193.49999999999997</ele><time>2026-04-12T10:01:02Z</time></trkpt><trkpt lat="43.59989564739099" lon="6.783945349257229"><ele>194.0</ele><time>2026-04-12T10:01:04Z</time></trkpt><trkpt lat="43.59985530623448" lon="6.784050231905504"><ele>194.5</ele><time>2026-04-12T10:01:06Z</time></trkpt><trkpt lat="43.599814865052544" lon="6.784149922871928"><ele>195.0</ele><time>2026-04-12T10:01:08Z</time></trkpt><trkpt lat="43.599773098244796" lon="6.78424895928077"><ele>195.49999999999997</ele><time>2026-04-12T10:01:10Z</time></trkpt><trkpt lat="43.59973736627343" lon="6.784339762236469"><ele>196.0</ele><time>2026-04-12T10:01:12Z</time></trkpt><trkpt lat="43.59970403276333" lon="6.784424205558097"><ele>196.14285714285714</ele><time>2026-04-12T10:01:14Z</time></trkpt><trkpt lat="43.59967131598547" lon="6.7845146931812685"><ele>196.28571428571428</ele><time>2026-04-12T10:01:16Z</time></trkpt><trkpt lat="43.59963983631588" lon="6.7846037543173"><ele>196.42857142857144</ele><time>2026-04-12T10:01:18Z</time></trkpt><trkpt lat="43.59960887389904" lon="6.784691200434633"><ele>196.57142857142856</ele><time>2026-04-12T10:01:20Z</time></trkpt><trkpt lat="43.599576125518034" lon="6.784770385862232"><ele>196.71428571428572</ele><time>2026-04-12T10:01:22Z</time></trkpt><trkpt lat="43.59954034561974" lon="6.784852695649184"><ele>196.85714285714286</ele><time>2026-04-12T10:01:24Z</time></trkpt><trkpt lat="43.599508226940294" lon="6.784937758009789"><ele>197.0</ele><time>2026-04-12T10:01:26Z</time></trkpt><trkpt lat="43.59947599580009" lon="6.785020093208622"><ele>196.66666666666669</ele><time>2026-04-12T10:01:28Z</time></trkpt><trkpt lat="43.59941940542718" lon="6.785151241567971"><ele>196.33333333333334</ele><time>2026-04-12T10:01:31Z</time></trkpt><trkpt lat="43.59938471300557" lon="6.785226800669304"><ele>196.0</ele><time>2026-04-12T10:01:33Z</time></trkpt><trkpt lat="43.599352589639714" lon="6.785305822208"><ele>195.66666666666669</ele><time>2026-04-12T10:01:35Z</time></trkpt><trkpt lat="43.59931689959754" lon="6.78537949480945"><ele>195.33333333333334</ele><time>2026-04-12T10:01:37Z</time></trkpt><trkpt lat="43.59926649241792" lon="6.785491628896863"><ele>195.0</ele><time>2026-04-12T10:01:40Z</time></trkpt><trkpt lat="43.599225373449926" lon="6.785565013378908"><ele>195.83333333333334</ele><time>2026-04-12T10:01:42Z</time></trkpt><trkpt lat="43.599164070996515" lon="6.785616195954117"><ele>196.66666666666669</ele><time>2026-04-12T10:01:44Z</time></trkpt><trkpt lat="43.59909069116214" lon="6.785627860310629"><ele>197.5</ele><time>2026-04-12T10:01:46Z</time></trkpt><trkpt lat="43.59901788011205" lon="6.7856638993693785"><ele>198.33333333333334</ele><time>2026-04-12T10:01:48Z</time></trkpt><trkpt lat="43.5989580260832" lon="6.785726211923628"><ele>199.16666666666669</ele><time>2026-04-12T10:01:50Z</time></trkpt><trkpt lat="43.59888722900812" lon="6.785820957874073"><ele>200.0</ele><time>2026-04-12T10:01:53Z</time></trkpt><trkpt lat="43.59883418073637" lon="6.7858918617561494"><ele>200.00000000000003</ele><time>2026-04-12T10:01:55Z</time></trkpt><trkpt lat="43.59877205892034" lon="6.7859416598824"><ele>200.0</ele><time>2026-04-12T10:01:57Z</time></trkpt><trkpt lat="43.59869678633251" lon="6.785957952328207"><ele>200.0</ele><time>2026-04-12T10:01:59Z</time></trkpt><trkpt lat="43.598616676103454" lon="6.785959633800845"><ele>200.0</ele><time>2026-04-12T10:02:01Z</time></trkpt><trkpt lat="43.598527302511656" lon="6.785953654516907"><ele>200.00000000000003</ele><time>2026-04-12T10:02:03Z</time></trkpt><trkpt lat="43.59843554722376" lon="6.785943625661479"><ele>200.0</ele><time>2026-04-12T10:02:05Z</time></trkpt><trkpt lat="43.59833739245177" lon="6.7859526981107265"><ele>200.0</ele><time>2026-04-12T10:02:07Z</time></trkpt><trkpt lat="43.5982360596459" lon="6.785966964793976"><ele>200.0</ele><time>2026-04-12T10:02:09Z</time></trkpt><trkpt lat="43.59813548967284" lon="6.786002477182581"><ele>200.0</ele><time>2026-04-12T10:02:11Z</time></trkpt><trkpt lat="43.59802552682192" lon="6.786039530702279"><ele>200.0</ele><time>2026-04-12T10:02:13Z</time></trkpt><trkpt lat="43.59791074186433" lon="6.78609857527231"><ele>200.0</ele><time>2026-04-12T10:02:15Z</time></trkpt><trkpt lat="43.5978026689766" lon="6.786161374574078"><ele>201.4</ele><time>2026-04-12T10:02:17Z</time></trkpt><trkpt lat="43.59770045767389" lon="6.786230068736142"><ele>202.8</ele><time>2026-04-12T10:02:19Z</time></trkpt><trkpt lat="43.59760922458037" lon="6.786310123300694"><ele>204.2</ele><time>2026-04-12T10:02:21Z</time></trkpt><trkpt lat="43.59752643993711" lon="6.786385462386367"><ele>205.6</ele><time>2026-04-12T10:02:23Z</time></trkpt><trkpt lat="43.59745274617004" lon="6.786464746880783"><ele>207.0</ele><time>2026-04-12T10:02:25Z</time></trkpt><trkpt lat="43.59737817081079" lon="6.786546043462972"><ele>207.0</ele><time>2026-04-12T10:02:27Z</time></trkpt><trkpt lat="43.59730397319727" lon="6.786620490922696"><ele>207.0</ele><time>2026-04-12T10:02:29Z</time></trkpt><trkpt lat="43.59723307313461" lon="6.78669921935154"><ele>207.0</ele><time>2026-04-12T10:02:31Z</time></trkpt><trkpt lat="43.59716382568882" lon="6.786779148863747"><ele>207.0</ele><time>2026-04-12T10:02:33Z</time></trkpt><trkpt lat="43.59709324788984" lon="6.7868585263958865"><ele>207.0</ele><time>2026-04-12T10:02:35Z</time></trkpt><trkpt lat="43.59702228742977" lon="6.7869409744466855"><ele>207.16666666666666</ele><time>2026-04-12T10:02:37Z</time></trkpt><trkpt lat="43.596951976910724" lon="6.78702185229872"><ele>207.33333333333331</ele><time>2026-04-12T10:02:39Z</time></trkpt><trkpt lat="43.59688261522528" lon="6.787104389511476"><ele>207.5</ele><time>2026-04-12T10:02:41Z</time></trkpt><trkpt lat="43.59681213861197" lon="6.787191015928777"><ele>207.66666666666666</ele><time>2026-04-12T10:02:43Z</time></trkpt><trkpt lat="43.59675640618722" lon="6.787254663811859"><ele>207.83333333333331</ele><time>2026-04-12T10:02:45Z</time></trkpt><trkpt lat="43.59669226374146" lon="6.7873392751470245"><ele>208.0</ele><time>2026-04-12T10:02:47Z</time></trkpt><trkpt lat="43.596558815630644" lon="6.787489287830142"><ele>208.0</ele><time>2026-04-12T10:02:50Z</time></trkpt><trkpt lat="43.596487375539255" lon="6.787572797728443"><ele>208.0</ele><time>2026-04-12T10:02:52Z</time></trkpt><trkpt lat="43.59641723104933" lon="6.787653341060124"><ele>208.0</ele><time>2026-04-12T10:02:54Z</time></trkpt><trkpt lat="43.59634576378902" lon="6.787733279028098"><ele>208.0</ele><time>2026-04-12T10:02:56Z</time></trkpt><trkpt lat="43.59627075070603" lon="6.787812103575406"><ele>208.0</ele><time>2026-04-12T10:02:58Z</time></trkpt><trkpt lat="43.59619032871773" lon="6.78788208186732"><ele>208.60000000000002</ele><time>2026-04-12T10:03:00Z</time></trkpt><trkpt lat="43.59610950927901" lon="6.787948445574626"><ele>209.20000000000002</ele><time>2026-04-12T10:03:02Z</time></trkpt><trkpt lat="43.59602500542106" lon="6.788011115474347"><ele>209.8</ele><time>2026-04-12T10:03:04Z</time></trkpt><trkpt lat="43.59594193785047" lon="6.788081569395389"><ele>210.4</ele><time>2026-04-12T10:03:06Z</time></trkpt><trkpt lat="43.595869560245696" lon="6.788164747200567"><ele>211.0</ele><time>2026-04-12T10:03:08Z</time></trkpt><trkpt lat="43.595819630014326" lon="6.788282565725609"><ele>211.0</ele><time>2026-04-12T10:03:10Z</time></trkpt><trkpt lat="43.59579407444975" lon="6.7884170101815124"><ele>211.0</ele><time>2026-04-12T10:03:12Z</time></trkpt><trkpt lat="43.595776369367634" lon="6.788561224059133"><ele>211.0</ele><time>2026-04-12T10:03:14Z</time></trkpt><trkpt lat="43.595730742248875" lon="6.7887096308253225"><ele>211.0</ele><time>2026-04-12T10:03:16Z</time></trkpt><trkpt lat="43.59567600451799" lon="6.788763797145775"><ele>211.0</ele><time>2026-04-12T10:03:17Z</time></trkpt><trkpt lat="43.59560725772042" lon="6.788791994632491"><ele>211.16666666666666</ele><time>2026-04-12T10:03:18Z</time></trkpt><trkpt lat="43.59553530313515" lon="6.788807395314106"><ele>211.33333333333331</ele><time>2026-04-12T10:03:19Z</time></trkpt><trkpt lat="43.595461644662464" lon="6.788826460363223"><ele>211.5</ele><time>2026-04-12T10:03:20Z</time></trkpt><trkpt lat="43.59538487935199" lon="6.788842415694652"><ele>211.66666666666669</ele><time>2026-04-12T10:03:21Z</time></trkpt><trkpt lat="43.59530377163229" lon="6.788859936644297"><ele>211.83333333333334</ele><time>2026-04-12T10:03:22Z</time></trkpt><trkpt lat="43.5952220944418" lon="6.788884101141542"><ele>212.0</ele><time>2026-04-12T10:03:23Z</time></trkpt><trkpt lat="43.595135527942524" lon="6.788912016267471"><ele>210.2</ele><time>2026-04-12T10:03:24Z</time></trkpt><trkpt lat="43.59504922531428" lon="6.788943279691681"><ele>208.39999999999998</ele><time>2026-04-12T10:03:25Z</time></trkpt><trkpt lat="43.59496079583164" lon="6.7889769602104675"><ele>206.60000000000002</ele><time>2026-04-12T10:03:26Z</time></trkpt><trkpt lat="43.594858362191964" lon="6.789011935956527"><ele>204.8</ele><time>2026-04-12T10:03:27Z</time></trkpt><trkpt lat="43.59476309132578" lon="6.789047846445346"><ele>203.0</ele><time>2026-04-12T10:03:28Z</time></trkpt><trkpt lat="43.59466720907017" lon="6.789077337628244"><ele>203.0</ele><time>2026-04-12T10:03:29Z</time></trkpt><trkpt lat="43.594572892228996" lon="6.789117263472424"><ele>203.0</ele><time>2026-04-12T10:03:30Z</time></trkpt><trkpt lat="43.59447518112622" lon="6.789156021345425"><ele>203.0</ele><time>2026-04-12T10:03:31Z</time></trkpt><trkpt lat="43.594378439422776" lon="6.789200509502891"><ele>203.0</ele><time>2026-04-12T10:03:32Z</time></trkpt><trkpt lat="43.5942782012608" lon="6.789247947874048"><ele>203.0</ele><time>2026-04-12T10:03:33Z</time></trkpt><trkpt lat="43.59418172404292" lon="6.7893076000949195"><ele>200.8</ele><time>2026-04-12T10:03:34Z</time></trkpt><trkpt lat="43.59408821087023" lon="6.789371792115227"><ele>198.60000000000002</ele><time>2026-04-12T10:03:35Z</time></trkpt><trkpt lat="43.59398928157751" lon="6.789433533969766"><ele>196.39999999999998</ele><time>2026-04-12T10:03:36Z</time></trkpt><trkpt lat="43.59388797910754" lon="6.789485977726034"><ele>194.2</ele><time>2026-04-12T10:03:37Z</time></trkpt><trkpt lat="43.59377529516392" lon="6.789523062556428"><ele>192.0</ele><time>2026-04-12T10:03:38Z</time></trkpt><trkpt lat="43.59365934920286" lon="6.789536393068744"><ele>191.25</ele><time>2026-04-12T10:03:39Z</time></trkpt><trkpt lat="43.59354123836513" lon="6.789533233428825"><ele>190.5</ele><time>2026-04-12T10:03:40Z</time></trkpt><trkpt lat="43.59342158486876" lon="6.7895343981474525"><ele>189.75</ele><time>2026-04-12T10:03:41Z</time></trkpt><trkpt lat="43.59329934249374" lon="6.789534856390173"><ele>189.0</ele><time>2026-04-12T10:03:42Z</time></trkpt><trkpt lat="43.59317461469981" lon="6.789535234607191"><ele>189.0</ele><time>2026-04-12T10:03:43Z</time></trkpt><trkpt lat="43.59304971974443" lon="6.789537365723045"><ele>189.0</ele><time>2026-04-12T10:03:44Z</time></trkpt><trkpt lat="43.59292249691434" lon="6.789545203916983"><ele>189.0</ele><time>2026-04-12T10:03:45Z</time></trkpt><trkpt lat="43.592798684916055" lon="6.789543179516261"><ele>189.0</ele><time>2026-04-12T10:03:46Z</time></trkpt><trkpt lat="43.592675963409064" lon="6.789524843964772"><ele>189.5</ele><time>2026-04-12T10:03:47Z</time></trkpt><trkpt lat="43.59255602348891" lon="6.78947742667867"><ele>190.0</ele><time>2026-04-12T10:03:48Z</time></trkpt><trkpt lat="43.592440934635796" lon="6.7894023091177"><ele>190.5</ele><time>2026-04-12T10:03:49Z</time></trkpt><trkpt lat="43.59232940827914" lon="6.789315903851085"><ele>191.0</ele><time>2026-04-12T10:03:50Z</time></trkpt><trkpt lat="43.59221889118753" lon="6.789233837517238"><ele>191.0</ele><time>2026-04-12T10:03:51Z</time></trkpt><trkpt lat="43.592100940400705" lon="6.789167966370538"><ele>191.0</ele><time>2026-04-12T10:03:52Z</time></trkpt><trkpt lat="43.59197488547173" lon="6.789133787238565"><ele>191.0</ele><time>2026-04-12T10:03:53Z</time></trkpt><trkpt lat="43.59184420570365" lon="6.789122438398632"><ele>191.0</ele><time>2026-04-12T10:03:54Z</time></trkpt><trkpt lat="43.59171449043375" lon="6.789114207121605"><ele>190.0</ele><time>2026-04-12T10:03:55Z</time></trkpt><trkpt lat="43.59158382593939" lon="6.78911911596893"><ele>189.0</ele><time>2026-04-12T10:03:56Z</time></trkpt><trkpt lat="43.591454043089506" lon="6.7891455879956135"><ele>188.0</ele><time>2026-04-12T10:03:57Z</time></trkpt><trkpt lat="43.59132684160888" lon="6.7891936129902835"><ele>187.0</ele><time>2026-04-12T10:03:58Z</time></trkpt><trkpt lat="43.591203251533166" lon="6.789260551920434"><ele>186.5</ele><time>2026-04-12T10:03:59Z</time></trkpt><trkpt lat="43.59107903964913" lon="6.789332391636256"><ele>186.0</ele><time>2026-04-12T10:04:00Z</time></trkpt><trkpt lat="43.59095087180838" lon="6.789395758887862"><ele>185.5</ele><time>2026-04-12T10:04:01Z</time></trkpt><trkpt lat="43.59081593198616" lon="6.789438361674448"><ele>185.0</ele><time>2026-04-12T10:04:02Z</time></trkpt><trkpt lat="43.59067646555367" lon="6.789460690212272"><ele>184.0</ele><time>2026-04-12T10:04:03Z</time></trkpt><trkpt lat="43.59053629678166" lon="6.789469472099104"><ele>183.0</ele><time>2026-04-12T10:04:04Z</time></trkpt><trkpt lat="43.590393881626476" lon="6.789466897995851"><ele>182.0</ele><time>2026-04-12T10:04:05Z</time></trkpt><trkpt lat="43.59025301246307" lon="6.789455697502427"><ele>181.0</ele><time>2026-04-12T10:04:06Z</time></trkpt><trkpt lat="43.590110607662176" lon="6.789455158969283"><ele>180.0</ele><time>2026-04-12T10:04:07Z</time></trkpt><trkpt lat="43.589970605661996" lon="6.7894757786739675"><ele>179.0</ele><time>2026-04-12T10:04:08Z</time></trkpt><trkpt lat="43.58983108189235" lon="6.789514623735193"><ele>178.0</ele><time>2026-04-12T10:04:09Z</time></trkpt><trkpt lat="43.5896936397281" lon="6.789575703894768"><ele>177.0</ele><time>2026-04-12T10:04:10Z</time></trkpt><trkpt lat="43.589562391451445" lon="6.78965258299378"><ele>174.75</ele><time>2026-04-12T10:04:11Z</time></trkpt><trkpt lat="43.589437860723656" lon="6.7897417063087895"><ele>172.5</ele><time>2026-04-12T10:04:12Z</time></trkpt><trkpt lat="43.589317590796085" lon="6.789837726316977"><ele>170.25</ele><time>2026-04-12T10:04:13Z</time></trkpt><trkpt lat="43.58920334048336" lon="6.789935608557586"><ele>168.0</ele><time>2026-04-12T10:04:14Z</time></trkpt><trkpt lat="43.58909677938726" lon="6.790035803935612"><ele>168.0</ele><time>2026-04-12T10:04:15Z</time></trkpt><trkpt lat="43.588998004347985" lon="6.790134533494181"><ele>168.0</ele><time>2026-04-12T10:04:16Z</time></trkpt><trkpt lat="43.5889064099052" lon="6.790228302395381"><ele>168.0</ele><time>2026-04-12T10:04:17Z</time></trkpt><trkpt lat="43.58881952101619" lon="6.7903133749535955"><ele>168.0</ele><time>2026-04-12T10:04:18Z</time></trkpt><trkpt lat="43.58873489934542" lon="6.790387135326055"><ele>168.0</ele><time>2026-04-12T10:04:19Z</time></trkpt><trkpt lat="43.58865191617164" lon="6.790443514766947"><ele>168.66666666666666</ele><time>2026-04-12T10:04:20Z</time></trkpt><trkpt lat="43.58856970126908" lon="6.790485574080867"><ele>169.33333333333334</ele><time>2026-04-12T10:04:21Z</time></trkpt><trkpt lat="43.588493316925785" lon="6.790507426448722"><ele>170.0</ele><time>2026-04-12T10:04:22Z</time></trkpt><trkpt lat="43.58841599028624" lon="6.790519684706237"><ele>170.66666666666669</ele><time>2026-04-12T10:04:23Z</time></trkpt><trkpt lat="43.58834205507423" lon="6.79053093142765"><ele>171.33333333333334</ele><time>2026-04-12T10:04:24Z</time></trkpt><trkpt lat="43.588269838350065" lon="6.790543709471843"><ele>172.0</ele><time>2026-04-12T10:04:25Z</time></trkpt><trkpt lat="43.58820018523139" lon="6.790558992139841"><ele>172.0</ele><time>2026-04-12T10:04:26Z</time></trkpt><trkpt lat="43.5881383792364" lon="6.790586274883965"><ele>172.0</ele><time>2026-04-12T10:04:27Z</time></trkpt><trkpt lat="43.58802871055855" lon="6.790626033678517"><ele>172.0</ele><time>2026-04-12T10:04:29Z</time></trkpt><trkpt lat="43.587990527173" lon="6.790728689763631"><ele>172.0</ele><time>2026-04-12T10:04:30Z</time></trkpt><trkpt lat="43.58791778468447" lon="6.790841513489021"><ele>172.0</ele><time>2026-04-12T10:04:32Z</time></trkpt><trkpt lat="43.58787263204934" lon="6.7909783917898965"><ele>173.39999999999998</ele><time>2026-04-12T10:04:34Z</time></trkpt><trkpt lat="43.58785347953069" lon="6.79112023603649"><ele>174.79999999999998</ele><time>2026-04-12T10:04:36Z</time></trkpt><trkpt lat="43.5878514067479" lon="6.791255430862453"><ele>176.2</ele><time>2026-04-12T10:04:38Z</time></trkpt><trkpt lat="43.58786605788825" lon="6.791388894014332"><ele>177.6</ele><time>2026-04-12T10:04:40Z</time></trkpt><trkpt lat="43.58788536504035" lon="6.791516610324656"><ele>179.0</ele><time>2026-04-12T10:04:42Z</time></trkpt><trkpt lat="43.587911200514505" lon="6.791641695083291"><ele>179.0</ele><time>2026-04-12T10:04:44Z</time></trkpt><trkpt lat="43.5879250033956" lon="6.791766864135818"><ele>179.0</ele><time>2026-04-12T10:04:46Z</time></trkpt><trkpt lat="43.58792294861016" lon="6.791888809718172"><ele>179.0</ele><time>2026-04-12T10:04:48Z</time></trkpt><trkpt lat="43.58790276951174" lon="6.792005735999966"><ele>179.0</ele><time>2026-04-12T10:04:50Z</time></trkpt><trkpt lat="43.587869143149696" lon="6.7921151271664995"><ele>179.0</ele><time>2026-04-12T10:04:52Z</time></trkpt><trkpt lat="43.58782192438205" lon="6.792209674200984"><ele>179.0</ele><time>2026-04-12T10:04:54Z</time></trkpt><trkpt lat="43.58776007631911" lon="6.792284212962931"><ele>179.2857142857143</ele><time>2026-04-12T10:04:56Z</time></trkpt><trkpt lat="43.587691807293595" lon="6.79233699461769"><ele>179.57142857142858</ele><time>2026-04-12T10:04:58Z</time></trkpt><trkpt lat="43.58761967641605" lon="6.792369623634727"><ele>179.85714285714286</ele><time>2026-04-12T10:05:00Z</time></trkpt><trkpt lat="43.587547837467355" lon="6.792389250390833"><ele>180.14285714285717</ele><time>2026-04-12T10:05:02Z</time></trkpt><trkpt lat="43.58747457665094" lon="6.792383287690138"><ele>180.42857142857142</ele><time>2026-04-12T10:05:04Z</time></trkpt><trkpt lat="43.587401446914505" lon="6.792368923197302"><ele>180.71428571428572</ele><time>2026-04-12T10:05:06Z</time></trkpt><trkpt lat="43.58732818298336" lon="6.792358560194371"><ele>181.0</ele><time>2026-04-12T10:05:08Z</time></trkpt><trkpt lat="43.58725796028444" lon="6.792336796936131"><ele>181.0</ele><time>2026-04-12T10:05:10Z</time></trkpt><trkpt lat="43.587182284306195" lon="6.792322214499632"><ele>181.0</ele><time>2026-04-12T10:05:13Z</time></trkpt><trkpt lat="43.587055403696084" lon="6.792311967421586"><ele>181.0</ele><time>2026-04-12T10:05:16Z</time></trkpt><trkpt lat="43.58698044866769" lon="6.792325772367398"><ele>181.0</ele><time>2026-04-12T10:05:19Z</time></trkpt><trkpt lat="43.58690490162644" lon="6.792355573839021"><ele>181.0</ele><time>2026-04-12T10:05:21Z</time></trkpt><trkpt lat="43.58684584990077" lon="6.792389228186574"><ele>181.0</ele><time>2026-04-12T10:05:23Z</time></trkpt><trkpt lat="43.58678369855507" lon="6.792432920396482"><ele>181.33333333333334</ele><time>2026-04-12T10:05:24Z</time></trkpt><trkpt lat="43.58673519540968" lon="6.792494020799507"><ele>181.66666666666669</ele><time>2026-04-12T10:05:26Z</time></trkpt><trkpt lat="43.58667781338101" lon="6.792596317738723"><ele>182.0</ele><time>2026-04-12T10:05:29Z</time></trkpt><trkpt lat="43.586639918744105" lon="6.792674102198262"><ele>182.33333333333334</ele><time>2026-04-12T10:05:30Z</time></trkpt><trkpt lat="43.58660858897924" lon="6.792770712181873"><ele>182.66666666666666</ele><time>2026-04-12T10:05:32Z</time></trkpt><trkpt lat="43.58658734788253" lon="6.792885408527709"><ele>183.0</ele><time>2026-04-12T10:05:34Z</time></trkpt><trkpt lat="43.58657334828105" lon="6.793006291305812"><ele>183.0</ele><time>2026-04-12T10:05:36Z</time></trkpt><trkpt lat="43.58657344707653" lon="6.793132716342145"><ele>183.0</ele><time>2026-04-12T10:05:38Z</time></trkpt><trkpt lat="43.586586659901485" lon="6.79325734007282"><ele>183.0</ele><time>2026-04-12T10:05:40Z</time></trkpt><trkpt lat="43.58659946104069" lon="6.793381997918551"><ele>183.0</ele><time>2026-04-12T10:05:42Z</time></trkpt><trkpt lat="43.586611878167695" lon="6.793504933304568"><ele>183.0</ele><time>2026-04-12T10:05:44Z</time></trkpt><trkpt lat="43.58661542532537" lon="6.79362898501846"><ele>184.33333333333334</ele><time>2026-04-12T10:05:46Z</time></trkpt><trkpt lat="43.58661356195302" lon="6.793749743940558"><ele>185.66666666666666</ele><time>2026-04-12T10:05:48Z</time></trkpt><trkpt lat="43.58659701272878" lon="6.793870161676485"><ele>187.0</ele><time>2026-04-12T10:05:50Z</time></trkpt><trkpt lat="43.58656978835281" lon="6.793982807101789"><ele>188.33333333333331</ele><time>2026-04-12T10:05:52Z</time></trkpt><trkpt lat="43.586524248813234" lon="6.7940920186527425"><ele>189.66666666666666</ele><time>2026-04-12T10:05:54Z</time></trkpt><trkpt lat="43.58645805684661" lon="6.794182687022225"><ele>191.0</ele><time>2026-04-12T10:05:56Z</time></trkpt><trkpt lat="43.58638546279978" lon="6.79426367019775"><ele>191.0</ele><time>2026-04-12T10:05:58Z</time></trkpt><trkpt lat="43.586298605978854" lon="6.794331478751838"><ele>191.0</ele><time>2026-04-12T10:06:00Z</time></trkpt><trkpt lat="43.58620210921752" lon="6.794386297405078"><ele>191.0</ele><time>2026-04-12T10:06:02Z</time></trkpt><trkpt lat="43.58609355271507" lon="6.79444080635785"><ele>191.0</ele><time>2026-04-12T10:06:04Z</time></trkpt><trkpt lat="43.58598875226385" lon="6.7945136292816875"><ele>191.0</ele><time>2026-04-12T10:06:06Z</time></trkpt><trkpt lat="43.58588744058303" lon="6.794603616014789"><ele>190.33333333333331</ele><time>2026-04-12T10:06:08Z</time></trkpt><trkpt lat="43.58580077176658" lon="6.794720222395452"><ele>189.66666666666666</ele><time>2026-04-12T10:06:10Z</time></trkpt><trkpt lat="43.5857544610165" lon="6.794783673535585"><ele>189.0</ele><time>2026-04-12T10:06:11Z</time></trkpt><trkpt lat="43.58571019010434" lon="6.794849999471321"><ele>188.33333333333334</ele><time>2026-04-12T10:06:12Z</time></trkpt><trkpt lat="43.58566418070178" lon="6.794922073248844"><ele>187.66666666666669</ele><time>2026-04-12T10:06:13Z</time></trkpt><trkpt lat="43.585621491282325" lon="6.795006310548861"><ele>187.0</ele><time>2026-04-12T10:06:14Z</time></trkpt><trkpt lat="43.58557874713708" lon="6.795095717325679"><ele>188.5</ele><time>2026-04-12T10:06:15Z</time></trkpt><trkpt lat="43.58553401209213" lon="6.795187589287245"><ele>190.0</ele><time>2026-04-12T10:06:16Z</time></trkpt><trkpt lat="43.58548885383591" lon="6.795281363009415"><ele>191.5</ele><time>2026-04-12T10:06:17Z</time></trkpt><trkpt lat="43.585446128831215" lon="6.795378962742821"><ele>193.0</ele><time>2026-04-12T10:06:18Z</time></trkpt><trkpt lat="43.58540112829537" lon="6.795478345795262"><ele>194.49999999999997</ele><time>2026-04-12T10:06:19Z</time></trkpt><trkpt lat="43.58535619557225" lon="6.795576661508451"><ele>196.0</ele><time>2026-04-12T10:06:20Z</time></trkpt><trkpt lat="43.585310535187034" lon="6.795678133915286"><ele>191.83333333333331</ele><time>2026-04-12T10:06:21Z</time></trkpt><trkpt lat="43.5852648542735" lon="6.795779558369379"><ele>187.66666666666666</ele><time>2026-04-12T10:06:22Z</time></trkpt><trkpt lat="43.585217638100644" lon="6.795878947936021"><ele>183.5</ele><time>2026-04-12T10:06:23Z</time></trkpt><trkpt lat="43.585171410640584" lon="6.795980260221376"><ele>179.33333333333331</ele><time>2026-04-12T10:06:24Z</time></trkpt><trkpt lat="43.58512581738664" lon="6.796083125359259"><ele>175.16666666666666</ele><time>2026-04-12T10:06:25Z</time></trkpt><trkpt lat="43.585079561510646" lon="6.7961877065687"><ele>171.0</ele><time>2026-04-12T10:06:26Z</time></trkpt><trkpt lat="43.58503333690325" lon="6.796293754867379"><ele>171.0</ele><time>2026-04-12T10:06:27Z</time></trkpt><trkpt lat="43.58499002397204" lon="6.796402896928508"><ele>171.0</ele><time>2026-04-12T10:06:28Z</time></trkpt><trkpt lat="43.58495380214243" lon="6.796518941166583"><ele>171.0</ele><time>2026-04-12T10:06:29Z</time></trkpt><trkpt lat="43.584926843269216" lon="6.796641411846493"><ele>171.0</ele><time>2026-04-12T10:06:30Z</time></trkpt><trkpt lat="43.584906470278966" lon="6.796768472211085"><ele>171.0</ele><time>2026-04-12T10:06:31Z</time></trkpt><trkpt lat="43.58489772722961" lon="6.796900404467332"><ele>170.60000000000002</ele><time>2026-04-12T10:06:32Z</time></trkpt><trkpt lat="43.58489456819093" lon="6.797034915684511"><ele>170.2</ele><time>2026-04-12T10:06:33Z</time></trkpt><trkpt lat="43.584896781944366" lon="6.7971718878523015"><ele>169.8</ele><time>2026-04-12T10:06:34Z</time></trkpt><trkpt lat="43.58490237399752" lon="6.797309649094792"><ele>169.39999999999998</ele><time>2026-04-12T10:06:35Z</time></trkpt><trkpt lat="43.58491141896715" lon="6.79744795348691"><ele>169.0</ele><time>2026-04-12T10:06:36Z</time></trkpt><trkpt lat="43.58492517795424" lon="6.7975867086439825"><ele>168.39999999999998</ele><time>2026-04-12T10:06:37Z</time></trkpt><trkpt lat="43.584944916369444" lon="6.7977278442407405"><ele>167.8</ele><time>2026-04-12T10:06:38Z</time></trkpt><trkpt lat="43.58496966928368" lon="6.797871195279338"><ele>167.2</ele><time>2026-04-12T10:06:39Z</time></trkpt><trkpt lat="43.58499460879227" lon="6.7980151372850335"><ele>166.60000000000002</ele><time>2026-04-12T10:06:40Z</time></trkpt><trkpt lat="43.58502157128212" lon="6.798158880428397"><ele>166.0</ele><time>2026-04-12T10:06:41Z</time></trkpt><trkpt lat="43.58505008982717" lon="6.798303770945928"><ele>166.0</ele><time>2026-04-12T10:06:42Z</time></trkpt><trkpt lat="43.585077107042885" lon="6.798449332458319"><ele>166.0</ele><time>2026-04-12T10:06:43Z</time></trkpt><trkpt lat="43.585091606363356" lon="6.7985997913855005"><ele>166.0</ele><time>2026-04-12T10:06:44Z</time></trkpt><trkpt lat="43.585082158905266" lon="6.798756744306446"><ele>166.0</ele><time>2026-04-12T10:06:45Z</time></trkpt><trkpt lat="43.58504606122604" lon="6.798907547141508"><ele>166.0</ele><time>2026-04-12T10:06:46Z</time></trkpt><trkpt lat="43.584986575391156" lon="6.799046409510149"><ele>165.75</ele><time>2026-04-12T10:06:47Z</time></trkpt><trkpt lat="43.58491369570299" lon="6.799170602755952"><ele>165.5</ele><time>2026-04-12T10:06:48Z</time></trkpt><trkpt lat="43.58484259780158" lon="6.799291149354859"><ele>165.25</ele><time>2026-04-12T10:06:49Z</time></trkpt><trkpt lat="43.58477588169939" lon="6.799415963404695"><ele>165.0</ele><time>2026-04-12T10:06:50Z</time></trkpt><trkpt lat="43.58470800917219" lon="6.799550732342195"><ele>165.5</ele><time>2026-04-12T10:06:51Z</time></trkpt><trkpt lat="43.58463866593057" lon="6.799671603878094"><ele>166.0</ele><time>2026-04-12T10:06:52Z</time></trkpt><trkpt lat="43.58457306720709" lon="6.799799890495509"><ele>166.5</ele><time>2026-04-12T10:06:53Z</time></trkpt><trkpt lat="43.58450635185874" lon="6.799926951146558"><ele>167.0</ele><time>2026-04-12T10:06:54Z</time></trkpt><trkpt lat="43.58443971971559" lon="6.8000547245083"><ele>163.79999999999998</ele><time>2026-04-12T10:06:55Z</time></trkpt><trkpt lat="43.58437484547981" lon="6.800181515569272"><ele>160.6</ele><time>2026-04-12T10:06:56Z</time></trkpt><trkpt lat="43.584311112183244" lon="6.800305448621072"><ele>157.39999999999998</ele><time>2026-04-12T10:06:57Z</time></trkpt><trkpt lat="43.58424935810742" lon="6.800426602491848"><ele>154.2</ele><time>2026-04-12T10:06:58Z</time></trkpt><trkpt lat="43.58418715552592" lon="6.800544993629684"><ele>151.0</ele><time>2026-04-12T10:06:59Z</time></trkpt><trkpt lat="43.58412644279841" lon="6.800657567508737"><ele>151.0</ele><time>2026-04-12T10:07:00Z</time></trkpt><trkpt lat="43.58406765107148" lon="6.800767777491449"><ele>151.0</ele><time>2026-04-12T10:07:01Z</time></trkpt><trkpt lat="43.58401127650248" lon="6.800873914972136"><ele>151.0</ele><time>2026-04-12T10:07:02Z</time></trkpt><trkpt lat="43.58395397537006" lon="6.800978111078661"><ele>151.0</ele><time>2026-04-12T10:07:03Z</time></trkpt><trkpt lat="43.583898363850004" lon="6.801084490184487"><ele>151.0</ele><time>2026-04-12T10:07:04Z</time></trkpt><trkpt lat="43.58384521371654" lon="6.8011869692477465"><ele>150.16666666666669</ele><time>2026-04-12T10:07:05Z</time></trkpt><trkpt lat="43.583791506702546" lon="6.801290306557342"><ele>149.33333333333334</ele><time>2026-04-12T10:07:06Z</time></trkpt><trkpt lat="43.583737871947555" lon="6.801389027514259"><ele>148.5</ele><time>2026-04-12T10:07:07Z</time></trkpt><trkpt lat="43.583686901950244" lon="6.801488679519501"><ele>147.66666666666666</ele><time>2026-04-12T10:07:08Z</time></trkpt><trkpt lat="43.583635061904545" lon="6.801583928036226"><ele>146.83333333333331</ele><time>2026-04-12T10:07:09Z</time></trkpt><trkpt lat="43.58358328151655" lon="6.801677492135188"><ele>146.0</ele><time>2026-04-12T10:07:10Z</time></trkpt><trkpt lat="43.583532029348326" lon="6.80177006179847"><ele>145.83333333333331</ele><time>2026-04-12T10:07:11Z</time></trkpt><trkpt lat="43.58348306144969" lon="6.801864455316546"><ele>145.66666666666666</ele><time>2026-04-12T10:07:12Z</time></trkpt><trkpt lat="43.58343441270987" lon="6.801956757352947"><ele>145.5</ele><time>2026-04-12T10:07:13Z</time></trkpt><trkpt lat="43.583385596779195" lon="6.802047495479616"><ele>145.33333333333334</ele><time>2026-04-12T10:07:14Z</time></trkpt><trkpt lat="43.583338522466875" lon="6.802136515528705"><ele>145.16666666666669</ele><time>2026-04-12T10:07:15Z</time></trkpt><trkpt lat="43.583292075442316" lon="6.8022260940110275"><ele>145.0</ele><time>2026-04-12T10:07:16Z</time></trkpt><trkpt lat="43.58324688994869" lon="6.802315781812147"><ele>145.0</ele><time>2026-04-12T10:07:17Z</time></trkpt><trkpt lat="43.583199849361286" lon="6.802404564656095"><ele>145.0</ele><time>2026-04-12T10:07:18Z</time></trkpt><trkpt lat="43.583152939365974" lon="6.802492789109016"><ele>145.0</ele><time>2026-04-12T10:07:19Z</time></trkpt><trkpt lat="43.58310581661224" lon="6.802578745534014"><ele>145.0</ele><time>2026-04-12T10:07:20Z</time></trkpt><trkpt lat="43.583060558077875" lon="6.802667553348115"><ele>145.0</ele><time>2026-04-12T10:07:21Z</time></trkpt><trkpt lat="43.58301507174381" lon="6.802754904866074"><ele>145.0</ele><time>2026-04-12T10:07:22Z</time></trkpt><trkpt lat="43.582968939229836" lon="6.802839364925716"><ele>145.0</ele><time>2026-04-12T10:07:23Z</time></trkpt><trkpt lat="43.58292401996065" lon="6.802925730652156"><ele>145.0</ele><time>2026-04-12T10:07:24Z</time></trkpt><trkpt lat="43.582878372603616" lon="6.803010173660173"><ele>145.0</ele><time>2026-04-12T10:07:25Z</time></trkpt><trkpt lat="43.582834357121065" lon="6.803094794485912"><ele>145.0</ele><time>2026-04-12T10:07:26Z</time></trkpt><trkpt lat="43.582789589833695" lon="6.803177993554608"><ele>145.0</ele><time>2026-04-12T10:07:27Z</time></trkpt><trkpt lat="43.58274594918287" lon="6.803260846682584"><ele>145.0</ele><time>2026-04-12T10:07:28Z</time></trkpt><trkpt lat="43.58270241650988" lon="6.803343856807111"><ele>145.0</ele><time>2026-04-12T10:07:29Z</time></trkpt><trkpt lat="43.58265913367298" lon="6.803424085481993"><ele>145.0</ele><time>2026-04-12T10:07:30Z</time></trkpt><trkpt lat="43.582616020827075" lon="6.803505937485791"><ele>145.0</ele><time>2026-04-12T10:07:31Z</time></trkpt><trkpt lat="43.582572375295996" lon="6.803584889926883"><ele>145.0</ele><time>2026-04-12T10:07:32Z</time></trkpt><trkpt lat="43.58252957388858" lon="6.803665979371968"><ele>145.0</ele><time>2026-04-12T10:07:33Z</time></trkpt><trkpt lat="43.582488179327854" lon="6.803749347835933"><ele>145.0</ele><time>2026-04-12T10:07:34Z</time></trkpt><trkpt lat="43.58244540230724" lon="6.803830367008715"><ele>145.0</ele><time>2026-04-12T10:07:35Z</time></trkpt><trkpt lat="43.5824027125863" lon="6.80391070880537"><ele>145.14285714285714</ele><time>2026-04-12T10:07:36Z</time></trkpt><trkpt lat="43.582358559240085" lon="6.803989802338692"><ele>145.2857142857143</ele><time>2026-04-12T10:07:37Z</time></trkpt><trkpt lat="43.58231534513164" lon="6.8040716627263"><ele>145.42857142857144</ele><time>2026-04-12T10:07:38Z</time></trkpt><trkpt lat="43.58227249050952" lon="6.80415167410444"><ele>145.57142857142858</ele><time>2026-04-12T10:07:39Z</time></trkpt><trkpt lat="43.58223005772629" lon="6.804232262602081"><ele>145.71428571428572</ele><time>2026-04-12T10:07:40Z</time></trkpt><trkpt lat="43.58218973166918" lon="6.804312759886171"><ele>145.85714285714286</ele><time>2026-04-12T10:07:41Z</time></trkpt><trkpt lat="43.58214983702263" lon="6.804388329357932"><ele>146.0</ele><time>2026-04-12T10:07:42Z</time></trkpt><trkpt lat="43.58211074386895" lon="6.804462196070356"><ele>146.85714285714286</ele><time>2026-04-12T10:07:43Z</time></trkpt><trkpt lat="43.582072849021664" lon="6.80453357655104"><ele>147.71428571428572</ele><time>2026-04-12T10:07:44Z</time></trkpt><trkpt lat="43.58201083004317" lon="6.804638637659869"><ele>148.57142857142856</ele><time>2026-04-12T10:07:46Z</time></trkpt><trkpt lat="43.5819471550831" lon="6.804669660833987"><ele>149.42857142857144</ele><time>2026-04-12T10:07:49Z</time></trkpt><trkpt lat="43.581885924428015" lon="6.804726427908892"><ele>150.2857142857143</ele><time>2026-04-12T10:07:53Z</time></trkpt><trkpt lat="43.581836519779316" lon="6.804781952758911"><ele>151.14285714285714</ele><time>2026-04-12T10:08:02Z</time></trkpt><trkpt lat="43.581777741458865" lon="6.804830150197384"><ele>152.0</ele><time>2026-04-12T10:08:15Z</time></trkpt><trkpt lat="43.58172245332659" lon="6.804878402689469"><ele>152.0</ele><time>2026-04-12T10:08:22Z</time></trkpt><trkpt lat="43.58178698166924" lon="6.804882502118217"><ele>152.0</ele><time>2026-04-12T10:10:48Z</time></trkpt><trkpt lat="43.581825867672066" lon="6.804812592393447"><ele>152.0</ele><time>2026-04-12T10:10:57Z</time></trkpt><trkpt lat="43.58187787400213" lon="6.804759590998147"><ele>152.0</ele><time>2026-04-12T10:11:04Z</time></trkpt><trkpt lat="43.58190159147266" lon="6.8048402611170875"><ele>152.0</ele><time>2026-04-12T10:11:28Z</time></trkpt><trkpt lat="43.581855451436006" lon="6.804938248225779"><ele>152.0</ele><time>2026-04-12T10:11:32Z</time></trkpt><trkpt lat="43.5818151315196" lon="6.805007553000964"><ele>152.0</ele><time>2026-04-12T10:11:35Z</time></trkpt><trkpt lat="43.58176822021543" lon="6.805093535826368"><ele>152.83333333333331</ele><time>2026-04-12T10:11:38Z</time></trkpt><trkpt lat="43.581724445970245" lon="6.805195617216332"><ele>153.66666666666666</ele><time>2026-04-12T10:11:41Z</time></trkpt><trkpt lat="43.58168780600099" lon="6.805312859231026"><ele>154.5</ele><time>2026-04-12T10:11:44Z</time></trkpt><trkpt lat="43.58167301249867" lon="6.8054061066786184"><ele>155.33333333333334</ele><time>2026-04-12T10:11:46Z</time></trkpt><trkpt lat="43.581659800735856" lon="6.805510644677567"><ele>156.16666666666669</ele><time>2026-04-12T10:11:48Z</time></trkpt><trkpt lat="43.581659092457144" lon="6.805624028472563"><ele>157.0</ele><time>2026-04-12T10:11:50Z</time></trkpt><trkpt lat="43.58166626658852" lon="6.805745782484949"><ele>157.0</ele><time>2026-04-12T10:11:52Z</time></trkpt><trkpt lat="43.581686230836105" lon="6.80587079971481"><ele>157.0</ele><time>2026-04-12T10:11:54Z</time></trkpt><trkpt lat="43.58171977927521" lon="6.805986810453897"><ele>157.0</ele><time>2026-04-12T10:11:56Z</time></trkpt><trkpt lat="43.58175989872571" lon="6.806098659110604"><ele>157.0</ele><time>2026-04-12T10:11:58Z</time></trkpt><trkpt lat="43.58180845356936" lon="6.8062071675004585"><ele>157.0</ele><time>2026-04-12T10:12:00Z</time></trkpt><trkpt lat="43.58186739242914" lon="6.806323693153116"><ele>157.75</ele><time>2026-04-12T10:12:02Z</time></trkpt><trkpt lat="43.58193225824509" lon="6.806447063031041"><ele>158.5</ele><time>2026-04-12T10:12:04Z</time></trkpt><trkpt lat="43.58198760685005" lon="6.806581293814639"><ele>159.25</ele><time>2026-04-12T10:12:06Z</time></trkpt><trkpt lat="43.58203224841514" lon="6.806725831010938"><ele>160.0</ele><time>2026-04-12T10:12:08Z</time></trkpt><trkpt lat="43.58206506705548" lon="6.806876023781928"><ele>160.0</ele><time>2026-04-12T10:12:10Z</time></trkpt><trkpt lat="43.582080192242245" lon="6.807026612039018"><ele>160.0</ele><time>2026-04-12T10:12:12Z</time></trkpt><trkpt lat="43.58208113199491" lon="6.80717338621527"><ele>160.0</ele><time>2026-04-12T10:12:14Z</time></trkpt><trkpt lat="43.582069781943986" lon="6.8073162793612"><ele>160.0</ele><time>2026-04-12T10:12:16Z</time></trkpt><trkpt lat="43.58205175185212" lon="6.807454440737282"><ele>160.0</ele><time>2026-04-12T10:12:18Z</time></trkpt><trkpt lat="43.58203142995872" lon="6.807591237022407"><ele>159.0</ele><time>2026-04-12T10:12:20Z</time></trkpt><trkpt lat="43.58201436243651" lon="6.807729020703189"><ele>158.0</ele><time>2026-04-12T10:12:22Z</time></trkpt><trkpt lat="43.58199725071569" lon="6.807865940441914"><ele>157.0</ele><time>2026-04-12T10:12:24Z</time></trkpt><trkpt lat="43.581979224323845" lon="6.808003819008089"><ele>156.0</ele><time>2026-04-12T10:12:26Z</time></trkpt><trkpt lat="43.58196276181893" lon="6.808146750190321"><ele>155.0</ele><time>2026-04-12T10:12:28Z</time></trkpt><trkpt lat="43.58195094782941" lon="6.808292901734635"><ele>155.0</ele><time>2026-04-12T10:12:30Z</time></trkpt><trkpt lat="43.58193902569586" lon="6.80844085370321"><ele>155.0</ele><time>2026-04-12T10:12:32Z</time></trkpt><trkpt lat="43.581933225420826" lon="6.808593976472117"><ele>155.0</ele><time>2026-04-12T10:12:34Z</time></trkpt><trkpt lat="43.58193595575105" lon="6.808755535716846"><ele>155.0</ele><time>2026-04-12T10:12:36Z</time></trkpt><trkpt lat="43.58194619082126" lon="6.808924048008491"><ele>154.85714285714286</ele><time>2026-04-12T10:12:38Z</time></trkpt><trkpt lat="43.58197111866562" lon="6.80909177837386"><ele>154.71428571428572</ele><time>2026-04-12T10:12:40Z</time></trkpt><trkpt lat="43.581989930703116" lon="6.809174764144563"><ele>154.57142857142856</ele><time>2026-04-12T10:12:41Z</time></trkpt><trkpt lat="43.58201093652436" lon="6.809257431570852"><ele>154.42857142857144</ele><time>2026-04-12T10:12:42Z</time></trkpt><trkpt lat="43.58203449809094" lon="6.809340197130287"><ele>154.28571428571428</ele><time>2026-04-12T10:12:43Z</time></trkpt><trkpt lat="43.58205761840014" lon="6.809424464097552"><ele>154.14285714285714</ele><time>2026-04-12T10:12:44Z</time></trkpt><trkpt lat="43.58207994646057" lon="6.809511994978785"><ele>154.0</ele><time>2026-04-12T10:12:45Z</time></trkpt><trkpt lat="43.582103344612065" lon="6.809599559092702"><ele>154.85714285714286</ele><time>2026-04-12T10:12:46Z</time></trkpt><trkpt lat="43.58212867816213" lon="6.809689474027439"><ele>155.71428571428572</ele><time>2026-04-12T10:12:47Z</time></trkpt><trkpt lat="43.582153658436106" lon="6.809778500098231"><ele>156.57142857142856</ele><time>2026-04-12T10:12:48Z</time></trkpt><trkpt lat="43.58217836644865" lon="6.809868941557608"><ele>157.42857142857144</ele><time>2026-04-12T10:12:49Z</time></trkpt><trkpt lat="43.582203060008126" lon="6.8099610979015885"><ele>158.28571428571428</ele><time>2026-04-12T10:12:50Z</time></trkpt><trkpt lat="43.58222936974518" lon="6.810052496066758"><ele>159.14285714285714</ele><time>2026-04-12T10:12:51Z</time></trkpt><trkpt lat="43.582253107011155" lon="6.810145370917466"><ele>160.0</ele><time>2026-04-12T10:12:52Z</time></trkpt><trkpt lat="43.58227887742151" lon="6.810239381020205"><ele>160.0</ele><time>2026-04-12T10:12:53Z</time></trkpt><trkpt lat="43.58230401604828" lon="6.810331905058426"><ele>160.0</ele><time>2026-04-12T10:12:54Z</time></trkpt><trkpt lat="43.58232822039238" lon="6.810425082014333"><ele>160.0</ele><time>2026-04-12T10:12:55Z</time></trkpt><trkpt lat="43.58235106353192" lon="6.810519621612186"><ele>160.0</ele><time>2026-04-12T10:12:56Z</time></trkpt><trkpt lat="43.58237094473293" lon="6.8106152179959984"><ele>160.0</ele><time>2026-04-12T10:12:57Z</time></trkpt><trkpt lat="43.58238028900654" lon="6.8107148882246245"><ele>160.0</ele><time>2026-04-12T10:12:58Z</time></trkpt><trkpt lat="43.582381919237974" lon="6.810818895450273"><ele>160.0</ele><time>2026-04-12T10:12:59Z</time></trkpt><trkpt lat="43.5823797691502" lon="6.810921864047609"><ele>159.85714285714286</ele><time>2026-04-12T10:13:00Z</time></trkpt><trkpt lat="43.58237586608381" lon="6.811022655882607"><ele>159.71428571428572</ele><time>2026-04-12T10:13:01Z</time></trkpt><trkpt lat="43.5823629032338" lon="6.811121264249494"><ele>159.57142857142856</ele><time>2026-04-12T10:13:02Z</time></trkpt><trkpt lat="43.58233934148958" lon="6.811215925521553"><ele>159.42857142857144</ele><time>2026-04-12T10:13:03Z</time></trkpt><trkpt lat="43.582314531573935" lon="6.811305798233917"><ele>159.2857142857143</ele><time>2026-04-12T10:13:04Z</time></trkpt><trkpt lat="43.582305722590995" lon="6.811394951225774"><ele>159.14285714285714</ele><time>2026-04-12T10:13:05Z</time></trkpt><trkpt lat="43.58233235926763" lon="6.811475233248547"><ele>159.0</ele><time>2026-04-12T10:13:06Z</time></trkpt><trkpt lat="43.582383060785986" lon="6.81153866416654"><ele>159.0</ele><time>2026-04-12T10:13:07Z</time></trkpt><trkpt lat="43.58243977337209" lon="6.811589044798697"><ele>159.0</ele><time>2026-04-12T10:13:08Z</time></trkpt><trkpt lat="43.58248776796588" lon="6.8116493564540335"><ele>159.0</ele><time>2026-04-12T10:13:09Z</time></trkpt><trkpt lat="43.58252687865339" lon="6.811718166464365"><ele>159.0</ele><time>2026-04-12T10:13:10Z</time></trkpt><trkpt lat="43.58261180233319" lon="6.811841021967612"><ele>159.0</ele><time>2026-04-12T10:13:12Z</time></trkpt><trkpt lat="43.58271272842736" lon="6.811922663169369"><ele>159.0</ele><time>2026-04-12T10:13:14Z</time></trkpt><trkpt lat="43.58281713204515" lon="6.811974019021641"><ele>159.83333333333334</ele><time>2026-04-12T10:13:16Z</time></trkpt><trkpt lat="43.582914356668795" lon="6.81200113231699"><ele>160.66666666666666</ele><time>2026-04-12T10:13:18Z</time></trkpt><trkpt lat="43.58300367895564" lon="6.812015815344909"><ele>161.5</ele><time>2026-04-12T10:13:20Z</time></trkpt><trkpt lat="43.58308756297197" lon="6.812018433159876"><ele>162.33333333333331</ele><time>2026-04-12T10:13:22Z</time></trkpt><trkpt lat="43.583165837375844" lon="6.812035613500885"><ele>163.16666666666666</ele><time>2026-04-12T10:13:24Z</time></trkpt><trkpt lat="43.5832381680585" lon="6.812069671839331"><ele>164.0</ele><time>2026-04-12T10:13:26Z</time></trkpt><trkpt lat="43.583298545223535" lon="6.812112291456725"><ele>164.0</ele><time>2026-04-12T10:13:28Z</time></trkpt><trkpt lat="43.58336579892569" lon="6.812180018040873"><ele>164.0</ele><time>2026-04-12T10:13:31Z</time></trkpt><trkpt lat="43.58343740736469" lon="6.8122368877097115"><ele>164.0</ele><time>2026-04-12T10:13:34Z</time></trkpt><trkpt lat="43.58349974498152" lon="6.812305938790722"><ele>164.0</ele><time>2026-04-12T10:13:37Z</time></trkpt><trkpt lat="43.58355795446795" lon="6.8123802086964504"><ele>164.0</ele><time>2026-04-12T10:13:40Z</time></trkpt><trkpt lat="43.583607885116514" lon="6.812464095451471"><ele>164.0</ele><time>2026-04-12T10:13:43Z</time></trkpt><trkpt lat="43.58365928058787" lon="6.812544717265505"><ele>164.5</ele><time>2026-04-12T10:13:46Z</time></trkpt><trkpt lat="43.58370437418204" lon="6.81263246490975"><ele>165.0</ele><time>2026-04-12T10:13:49Z</time></trkpt><trkpt lat="43.58374523574753" lon="6.8127234551260685"><ele>165.5</ele><time>2026-04-12T10:13:52Z</time></trkpt><trkpt lat="43.5837708910543" lon="6.812825014341472"><ele>166.0</ele><time>2026-04-12T10:13:55Z</time></trkpt><trkpt lat="43.58377961677156" lon="6.812928255386398"><ele>166.5</ele><time>2026-04-12T10:13:58Z</time></trkpt><trkpt lat="43.583775663484744" lon="6.813041418475038"><ele>167.0</ele><time>2026-04-12T10:14:01Z</time></trkpt><trkpt lat="43.58376380847483" lon="6.8131501766421945"><ele>167.0</ele><time>2026-04-12T10:14:04Z</time></trkpt><trkpt lat="43.583719287992025" lon="6.81323956004922"><ele>167.0</ele><time>2026-04-12T10:14:07Z</time></trkpt><trkpt lat="43.58367276955768" lon="6.813326680649982"><ele>167.0</ele><time>2026-04-12T10:14:10Z</time></trkpt><trkpt lat="43.58361737657929" lon="6.813412793475651"><ele>167.0</ele><time>2026-04-12T10:14:14Z</time></trkpt><trkpt lat="43.58356619477178" lon="6.813493060946075"><ele>167.0</ele><time>2026-04-12T10:14:16Z</time></trkpt><trkpt lat="43.58351544797797" lon="6.8135705991274325"><ele>167.0</ele><time>2026-04-12T10:14:19Z</time></trkpt><trkpt lat="43.58346403231391" lon="6.813652227605041"><ele>167.83333333333331</ele><time>2026-04-12T10:14:22Z</time></trkpt><trkpt lat="43.58341722174777" lon="6.813740199213409"><ele>168.66666666666666</ele><time>2026-04-12T10:14:25Z</time></trkpt><trkpt lat="43.58337090441816" lon="6.813829525915794"><ele>169.5</ele><time>2026-04-12T10:14:28Z</time></trkpt><trkpt lat="43.58333742062221" lon="6.813935358834818"><ele>170.33333333333334</ele><time>2026-04-12T10:14:31Z</time></trkpt><trkpt lat="43.58330358571269" lon="6.814044421499219"><ele>171.16666666666669</ele><time>2026-04-12T10:14:34Z</time></trkpt><trkpt lat="43.58328740727051" lon="6.814165495870896"><ele>172.0</ele><time>2026-04-12T10:14:37Z</time></trkpt><trkpt lat="43.58330042890857" lon="6.814296665227256"><ele>173.33333333333334</ele><time>2026-04-12T10:14:40Z</time></trkpt><trkpt lat="43.58332620313433" lon="6.814382209847867"><ele>174.66666666666669</ele><time>2026-04-12T10:14:42Z</time></trkpt><trkpt lat="43.58335770959689" lon="6.814474203730399"><ele>176.0</ele><time>2026-04-12T10:14:44Z</time></trkpt><trkpt lat="43.58337830748768" lon="6.814576589768956"><ele>177.33333333333334</ele><time>2026-04-12T10:14:46Z</time></trkpt><trkpt lat="43.58339882925774" lon="6.814674303458705"><ele>178.66666666666666</ele><time>2026-04-12T10:14:48Z</time></trkpt><trkpt lat="43.583425818895684" lon="6.81477496566737"><ele>180.0</ele><time>2026-04-12T10:14:50Z</time></trkpt><trkpt lat="43.583473537347665" lon="6.814866869519824"><ele>180.0</ele><time>2026-04-12T10:14:52Z</time></trkpt><trkpt lat="43.583532472412145" lon="6.814938037321551"><ele>180.0</ele><time>2026-04-12T10:14:54Z</time></trkpt><trkpt lat="43.58358243777731" lon="6.815019193450629"><ele>180.0</ele><time>2026-04-12T10:14:56Z</time></trkpt><trkpt lat="43.583633322042864" lon="6.815107856123254"><ele>180.0</ele><time>2026-04-12T10:14:58Z</time></trkpt><trkpt lat="43.58368443137881" lon="6.815199714316605"><ele>180.0</ele><time>2026-04-12T10:15:00Z</time></trkpt><trkpt lat="43.583723472737944" lon="6.815297475431142"><ele>180.0</ele><time>2026-04-12T10:15:02Z</time></trkpt><trkpt lat="43.583757119909535" lon="6.815398381914597"><ele>179.83333333333334</ele><time>2026-04-12T10:15:04Z</time></trkpt><trkpt lat="43.583806496541015" lon="6.815495390539285"><ele>179.66666666666666</ele><time>2026-04-12T10:15:06Z</time></trkpt><trkpt lat="43.58387700148011" lon="6.815567442357219"><ele>179.5</ele><time>2026-04-12T10:15:08Z</time></trkpt><trkpt lat="43.58395351911828" lon="6.815615143609066"><ele>179.33333333333331</ele><time>2026-04-12T10:15:10Z</time></trkpt><trkpt lat="43.584031038679306" lon="6.815657996801083"><ele>179.16666666666666</ele><time>2026-04-12T10:15:12Z</time></trkpt><trkpt lat="43.58409748340102" lon="6.815730407682952"><ele>179.0</ele><time>2026-04-12T10:15:14Z</time></trkpt><trkpt lat="43.58415151224137" lon="6.815815223796694"><ele>179.0</ele><time>2026-04-12T10:15:16Z</time></trkpt><trkpt lat="43.584194983207674" lon="6.8159031830077295"><ele>179.0</ele><time>2026-04-12T10:15:18Z</time></trkpt><trkpt lat="43.58425127460043" lon="6.815980991198708"><ele>179.0</ele><time>2026-04-12T10:15:20Z</time></trkpt><trkpt lat="43.58432588525364" lon="6.81603544948037"><ele>179.0</ele><time>2026-04-12T10:15:22Z</time></trkpt><trkpt lat="43.58441436489798" lon="6.816029583571411"><ele>179.0</ele><time>2026-04-12T10:15:24Z</time></trkpt><trkpt lat="43.584495403247104" lon="6.815997072235485"><ele>179.0</ele><time>2026-04-12T10:15:26Z</time></trkpt><trkpt lat="43.58457405193308" lon="6.815973605235529"><ele>178.83333333333331</ele><time>2026-04-12T10:15:28Z</time></trkpt><trkpt lat="43.58465183185593" lon="6.815934645594476"><ele>178.66666666666666</ele><time>2026-04-12T10:15:30Z</time></trkpt><trkpt lat="43.58472955573106" lon="6.81590100341765"><ele>178.5</ele><time>2026-04-12T10:15:32Z</time></trkpt><trkpt lat="43.58480379595143" lon="6.815861766286603"><ele>178.33333333333334</ele><time>2026-04-12T10:15:34Z</time></trkpt><trkpt lat="43.58487884602708" lon="6.815829733098659"><ele>178.16666666666669</ele><time>2026-04-12T10:15:36Z</time></trkpt><trkpt lat="43.58495805566874" lon="6.81581775971342"><ele>178.0</ele><time>2026-04-12T10:15:38Z</time></trkpt><trkpt lat="43.58503642972341" lon="6.815838302013078"><ele>177.99999999999997</ele><time>2026-04-12T10:15:40Z</time></trkpt><trkpt lat="43.585104756249244" lon="6.815896532539317"><ele>178.0</ele><time>2026-04-12T10:15:42Z</time></trkpt><trkpt lat="43.585161179376605" lon="6.815959381612095"><ele>178.0</ele><time>2026-04-12T10:15:44Z</time></trkpt><trkpt lat="43.58521404795079" lon="6.816029039870374"><ele>178.0</ele><time>2026-04-12T10:15:46Z</time></trkpt><trkpt lat="43.585274153122356" lon="6.816087877167677"><ele>178.0</ele><time>2026-04-12T10:15:48Z</time></trkpt><trkpt lat="43.58533613597997" lon="6.816137317301528"><ele>177.99999999999997</ele><time>2026-04-12T10:15:50Z</time></trkpt><trkpt lat="43.585404127790554" lon="6.816178251579143"><ele>178.0</ele><time>2026-04-12T10:15:52Z</time></trkpt><trkpt lat="43.58546881572865" lon="6.816226962430615"><ele>179.7142857142857</ele><time>2026-04-12T10:15:54Z</time></trkpt><trkpt lat="43.585533643956495" lon="6.816276207357255"><ele>181.42857142857142</ele><time>2026-04-12T10:15:56Z</time></trkpt><trkpt lat="43.58559910704464" lon="6.816326357820387"><ele>183.14285714285714</ele><time>2026-04-12T10:15:58Z</time></trkpt><trkpt lat="43.585666583357536" lon="6.816373082784704"><ele>184.85714285714283</ele><time>2026-04-12T10:16:00Z</time></trkpt><trkpt lat="43.5857285135901" lon="6.8164296354359255"><ele>186.57142857142858</ele><time>2026-04-12T10:16:02Z</time></trkpt><trkpt lat="43.58579043767677" lon="6.816484344632422"><ele>188.28571428571428</ele><time>2026-04-12T10:16:04Z</time></trkpt><trkpt lat="43.58585214600074" lon="6.81654396565757"><ele>190.0</ele><time>2026-04-12T10:16:06Z</time></trkpt><trkpt lat="43.58590402210203" lon="6.81661572287607"><ele>190.0</ele><time>2026-04-12T10:16:08Z</time></trkpt><trkpt lat="43.58594441842891" lon="6.816703380149281"><ele>190.0</ele><time>2026-04-12T10:16:10Z</time></trkpt><trkpt lat="43.5859780434218" lon="6.816792137800938"><ele>190.0</ele><time>2026-04-12T10:16:12Z</time></trkpt><trkpt lat="43.586006933694506" lon="6.816883527906983"><ele>190.0</ele><time>2026-04-12T10:16:14Z</time></trkpt><trkpt lat="43.58603666352599" lon="6.816974568657673"><ele>190.0</ele><time>2026-04-12T10:16:16Z</time></trkpt><trkpt lat="43.5860639199642" lon="6.81707206595021"><ele>190.0</ele><time>2026-04-12T10:16:18Z</time></trkpt><trkpt lat="43.58610159194358" lon="6.817159134330386"><ele>190.0</ele><time>2026-04-12T10:16:20Z</time></trkpt><trkpt lat="43.58614713581311" lon="6.817236450451846"><ele>189.28571428571428</ele><time>2026-04-12T10:16:22Z</time></trkpt><trkpt lat="43.5862003867066" lon="6.817306506451208"><ele>188.57142857142858</ele><time>2026-04-12T10:16:24Z</time></trkpt><trkpt lat="43.5862565471322" lon="6.817368696326956"><ele>187.85714285714283</ele><time>2026-04-12T10:16:26Z</time></trkpt><trkpt lat="43.58631625067992" lon="6.817429962411913"><ele>187.14285714285714</ele><time>2026-04-12T10:16:28Z</time></trkpt><trkpt lat="43.58637885067953" lon="6.81748833016714"><ele>186.42857142857142</ele><time>2026-04-12T10:16:30Z</time></trkpt><trkpt lat="43.58644294749768" lon="6.8175409310718145"><ele>185.7142857142857</ele><time>2026-04-12T10:16:32Z</time></trkpt><trkpt lat="43.5865039987134" lon="6.817595193327193"><ele>185.0</ele><time>2026-04-12T10:16:34Z</time></trkpt><trkpt lat="43.58656469520342" lon="6.8176453062519595"><ele>184.85714285714283</ele><time>2026-04-12T10:16:36Z</time></trkpt><trkpt lat="43.586627107188406" lon="6.817694341448531"><ele>184.71428571428572</ele><time>2026-04-12T10:16:38Z</time></trkpt><trkpt lat="43.586691025554686" lon="6.817737553101198"><ele>184.57142857142856</ele><time>2026-04-12T10:16:40Z</time></trkpt><trkpt lat="43.586749241507306" lon="6.817792816257916"><ele>184.42857142857142</ele><time>2026-04-12T10:16:42Z</time></trkpt><trkpt lat="43.586815813186455" lon="6.817828631550085"><ele>184.28571428571428</ele><time>2026-04-12T10:16:44Z</time></trkpt><trkpt lat="43.58688280476709" lon="6.817864280700094"><ele>184.14285714285714</ele><time>2026-04-12T10:16:46Z</time></trkpt><trkpt lat="43.586950435339766" lon="6.8179014036975545"><ele>184.0</ele><time>2026-04-12T10:16:48Z</time></trkpt><trkpt lat="43.587015530012465" lon="6.81793807355609"><ele>184.0</ele><time>2026-04-12T10:16:50Z</time></trkpt><trkpt lat="43.587079142521674" lon="6.817980753103375"><ele>184.0</ele><time>2026-04-12T10:16:52Z</time></trkpt><trkpt lat="43.58714425944324" lon="6.818023085507514"><ele>184.0</ele><time>2026-04-12T10:16:54Z</time></trkpt><trkpt lat="43.587201172870174" lon="6.81808111125853"><ele>184.0</ele><time>2026-04-12T10:16:56Z</time></trkpt><trkpt lat="43.58724702475047" lon="6.8181543476684014"><ele>184.0</ele><time>2026-04-12T10:16:58Z</time></trkpt><trkpt lat="43.58726021842837" lon="6.8182461972551005"><ele>184.0</ele><time>2026-04-12T10:17:01Z</time></trkpt><trkpt lat="43.58723776573164" lon="6.8183412309897165"><ele>184.0</ele><time>2026-04-12T10:17:03Z</time></trkpt><trkpt lat="43.58717716861149" lon="6.818455378920076"><ele>183.71428571428572</ele><time>2026-04-12T10:17:05Z</time></trkpt><trkpt lat="43.587116365092456" lon="6.818510564588484"><ele>183.42857142857142</ele><time>2026-04-12T10:17:07Z</time></trkpt><trkpt lat="43.587048933381936" lon="6.818557598738084"><ele>183.14285714285714</ele><time>2026-04-12T10:17:09Z</time></trkpt><trkpt lat="43.58697633970204" lon="6.818582067014568"><ele>182.85714285714286</ele><time>2026-04-12T10:17:11Z</time></trkpt><trkpt lat="43.586904689487255" lon="6.818610607058979"><ele>182.57142857142856</ele><time>2026-04-12T10:17:13Z</time></trkpt><trkpt lat="43.586832637125326" lon="6.818641387536056"><ele>182.28571428571428</ele><time>2026-04-12T10:17:15Z</time></trkpt><trkpt lat="43.58675848254784" lon="6.818657527940697"><ele>182.0</ele><time>2026-04-12T10:17:17Z</time></trkpt><trkpt lat="43.586685663103076" lon="6.818681585551964"><ele>183.71428571428572</ele><time>2026-04-12T10:17:19Z</time></trkpt><trkpt lat="43.586616104229485" lon="6.81871509325654"><ele>185.42857142857144</ele><time>2026-04-12T10:17:21Z</time></trkpt><trkpt lat="43.586553995103905" lon="6.818765614915792"><ele>187.14285714285714</ele><time>2026-04-12T10:17:23Z</time></trkpt><trkpt lat="43.586514254886104" lon="6.818853791297694"><ele>188.85714285714286</ele><time>2026-04-12T10:17:25Z</time></trkpt><trkpt lat="43.58650373388648" lon="6.818957793012481"><ele>190.57142857142858</ele><time>2026-04-12T10:17:27Z</time></trkpt><trkpt lat="43.586515392357235" lon="6.81905352520602"><ele>192.28571428571428</ele><time>2026-04-12T10:17:29Z</time></trkpt><trkpt lat="43.5865265454149" lon="6.819152747032596"><ele>194.0</ele><time>2026-04-12T10:17:31Z</time></trkpt><trkpt lat="43.586522942806646" lon="6.819257125994806"><ele>193.85714285714286</ele><time>2026-04-12T10:17:33Z</time></trkpt><trkpt lat="43.586489987745594" lon="6.819351250370599"><ele>193.71428571428572</ele><time>2026-04-12T10:17:35Z</time></trkpt><trkpt lat="43.58644363156428" lon="6.819428181730913"><ele>193.57142857142858</ele><time>2026-04-12T10:17:37Z</time></trkpt><trkpt lat="43.58639794157214" lon="6.819507724001714"><ele>193.42857142857144</ele><time>2026-04-12T10:17:39Z</time></trkpt><trkpt lat="43.58635119246833" lon="6.819587710073192"><ele>193.28571428571428</ele><time>2026-04-12T10:17:41Z</time></trkpt><trkpt lat="43.58630890318744" lon="6.819669475289866"><ele>193.14285714285717</ele><time>2026-04-12T10:17:43Z</time></trkpt><trkpt lat="43.586273568182946" lon="6.819760228199259"><ele>193.0</ele><time>2026-04-12T10:17:45Z</time></trkpt><trkpt lat="43.58625020876016" lon="6.819860274512914"><ele>192.99999999999997</ele><time>2026-04-12T10:17:47Z</time></trkpt><trkpt lat="43.58624681327049" lon="6.819967353256018"><ele>193.0</ele><time>2026-04-12T10:17:49Z</time></trkpt><trkpt lat="43.58624143739584" lon="6.820074390601124"><ele>193.0</ele><time>2026-04-12T10:17:51Z</time></trkpt><trkpt lat="43.58621697398535" lon="6.82018188410667"><ele>193.0</ele><time>2026-04-12T10:17:53Z</time></trkpt><trkpt lat="43.58617666931502" lon="6.820273727588817"><ele>192.99999999999997</ele><time>2026-04-12T10:17:55Z</time></trkpt><trkpt lat="43.586135615286736" lon="6.820356694154172"><ele>193.0</ele><time>2026-04-12T10:17:57Z</time></trkpt><trkpt lat="43.58609511295687" lon="6.820443204139639"><ele>194.00000000000003</ele><time>2026-04-12T10:17:59Z</time></trkpt><trkpt lat="43.58605494657592" lon="6.820527313753207"><ele>195.0</ele><time>2026-04-12T10:18:01Z</time></trkpt><trkpt lat="43.5860090628159" lon="6.820606478601847"><ele>196.0</ele><time>2026-04-12T10:18:03Z</time></trkpt><trkpt lat="43.58596539351508" lon="6.820689572412634"><ele>197.0</ele><time>2026-04-12T10:18:05Z</time></trkpt><trkpt lat="43.58591618953438" lon="6.820765385592541"><ele>198.0</ele><time>2026-04-12T10:18:07Z</time></trkpt><trkpt lat="43.585862818752496" lon="6.820830194135106"><ele>199.00000000000003</ele><time>2026-04-12T10:18:09Z</time></trkpt><trkpt lat="43.58580080430105" lon="6.820889578978721"><ele>200.0</ele><time>2026-04-12T10:18:11Z</time></trkpt><trkpt lat="43.58572515280506" lon="6.820899820568323"><ele>200.00000000000003</ele><time>2026-04-12T10:18:13Z</time></trkpt><trkpt lat="43.585653491286116" lon="6.820886652536755"><ele>200.0</ele><time>2026-04-12T10:18:15Z</time></trkpt><trkpt lat="43.585584280301084" lon="6.820873710152996"><ele>200.0</ele><time>2026-04-12T10:18:17Z</time></trkpt><trkpt lat="43.585513590681465" lon="6.820877554756613"><ele>200.0</ele><time>2026-04-12T10:18:19Z</time></trkpt><trkpt lat="43.58544495267687" lon="6.820901519585502"><ele>200.0</ele><time>2026-04-12T10:18:21Z</time></trkpt><trkpt lat="43.58538067765218" lon="6.820932438099724"><ele>200.00000000000003</ele><time>2026-04-12T10:18:23Z</time></trkpt><trkpt lat="43.58532338701184" lon="6.820982064234856"><ele>200.0</ele><time>2026-04-12T10:18:25Z</time></trkpt><trkpt lat="43.5852649356603" lon="6.8210615555454295"><ele>203.00000000000003</ele><time>2026-04-12T10:18:28Z</time></trkpt><trkpt lat="43.58521568269534" lon="6.821166856952375"><ele>206.0</ele><time>2026-04-12T10:18:30Z</time></trkpt><trkpt lat="43.585214161268176" lon="6.821264418443025"><ele>209.0</ele><time>2026-04-12T10:18:32Z</time></trkpt><trkpt lat="43.58524974218452" lon="6.821375957696337"><ele>212.0</ele><time>2026-04-12T10:18:35Z</time></trkpt><trkpt lat="43.58528127324036" lon="6.821458956613093"><ele>215.00000000000003</ele><time>2026-04-12T10:18:37Z</time></trkpt><trkpt lat="43.58531851195669" lon="6.8215576638005375"><ele>218.0</ele><time>2026-04-12T10:18:39Z</time></trkpt><trkpt lat="43.58534513472035" lon="6.821668752443384"><ele>217.0</ele><time>2026-04-12T10:18:41Z</time></trkpt><trkpt lat="43.58535317592944" lon="6.821760482409943"><ele>216.0</ele><time>2026-04-12T10:18:43Z</time></trkpt><trkpt lat="43.585354012833115" lon="6.8218555040328095"><ele>215.0</ele><time>2026-04-12T10:18:45Z</time></trkpt><trkpt lat="43.58534156950379" lon="6.821948902417055"><ele>214.0</ele><time>2026-04-12T10:18:47Z</time></trkpt><trkpt lat="43.58531494570423" lon="6.822034697538701"><ele>213.0</ele><time>2026-04-12T10:18:49Z</time></trkpt><trkpt lat="43.58528444652512" lon="6.822118787951904"><ele>212.0</ele><time>2026-04-12T10:18:51Z</time></trkpt><trkpt lat="43.58525545648487" lon="6.822208316292926"><ele>211.0</ele><time>2026-04-12T10:18:53Z</time></trkpt><trkpt lat="43.58521843029785" lon="6.822291318372581"><ele>211.0</ele><time>2026-04-12T10:18:55Z</time></trkpt><trkpt lat="43.58516998555326" lon="6.822358364758047"><ele>211.0</ele><time>2026-04-12T10:18:57Z</time></trkpt><trkpt lat="43.58511342423698" lon="6.82241048085955"><ele>211.0</ele><time>2026-04-12T10:18:59Z</time></trkpt><trkpt lat="43.585054081660836" lon="6.822456054084967"><ele>211.0</ele><time>2026-04-12T10:19:01Z</time></trkpt><trkpt lat="43.584996606531696" lon="6.822507031569273"><ele>211.0</ele><time>2026-04-12T10:19:03Z</time></trkpt><trkpt lat="43.584937313091814" lon="6.822551877332337"><ele>211.0</ele><time>2026-04-12T10:19:05Z</time></trkpt><trkpt lat="43.584882388339416" lon="6.8226016246931085"><ele>211.0</ele><time>2026-04-12T10:19:07Z</time></trkpt><trkpt lat="43.584833678537244" lon="6.822661852468458"><ele>210.28571428571428</ele><time>2026-04-12T10:19:09Z</time></trkpt><trkpt lat="43.58479442336938" lon="6.822735193761179"><ele>209.57142857142858</ele><time>2026-04-12T10:19:11Z</time></trkpt><trkpt lat="43.584786453598426" lon="6.822821601532919"><ele>208.85714285714283</ele><time>2026-04-12T10:19:14Z</time></trkpt><trkpt lat="43.5847911597518" lon="6.822915710871097"><ele>208.14285714285714</ele><time>2026-04-12T10:19:16Z</time></trkpt><trkpt lat="43.584808650834894" lon="6.823013068596406"><ele>207.42857142857142</ele><time>2026-04-12T10:19:18Z</time></trkpt><trkpt lat="43.58481450263252" lon="6.823105215577201"><ele>206.7142857142857</ele><time>2026-04-12T10:19:20Z</time></trkpt><trkpt lat="43.58481483405234" lon="6.823194412940093"><ele>206.0</ele><time>2026-04-12T10:19:22Z</time></trkpt><trkpt lat="43.584802770820566" lon="6.823307493178804"><ele>206.00000000000003</ele><time>2026-04-12T10:19:25Z</time></trkpt><trkpt lat="43.584773333663364" lon="6.823439242779991"><ele>206.0</ele><time>2026-04-12T10:19:28Z</time></trkpt><trkpt lat="43.58474001834495" lon="6.8235430053605315"><ele>206.0</ele><time>2026-04-12T10:19:30Z</time></trkpt><trkpt lat="43.58470640597968" lon="6.8236229873614995"><ele>206.0</ele><time>2026-04-12T10:19:32Z</time></trkpt><trkpt lat="43.58466463286502" lon="6.823700515005462"><ele>206.00000000000003</ele><time>2026-04-12T10:19:34Z</time></trkpt><trkpt lat="43.58462234015021" lon="6.823779211266444"><ele>206.0</ele><time>2026-04-12T10:19:36Z</time></trkpt><trkpt lat="43.5845660790023" lon="6.823838322098653"><ele>206.0</ele><time>2026-04-12T10:19:38Z</time></trkpt><trkpt lat="43.58448964821073" lon="6.823817519457531"><ele>206.0</ele><time>2026-04-12T10:19:40Z</time></trkpt><trkpt lat="43.58442709950067" lon="6.823762520489338"><ele>206.0</ele><time>2026-04-12T10:19:43Z</time></trkpt><trkpt lat="43.58431734561322" lon="6.823645168554341"><ele>206.0</ele><time>2026-04-12T10:19:46Z</time></trkpt><trkpt lat="43.58425650075981" lon="6.823567541199209"><ele>206.0</ele><time>2026-04-12T10:19:48Z</time></trkpt><trkpt lat="43.58417910341166" lon="6.823505498859387"><ele>208.8</ele><time>2026-04-12T10:19:50Z</time></trkpt><trkpt lat="43.584098510935235" lon="6.823449495449172"><ele>211.60000000000002</ele><time>2026-04-12T10:19:52Z</time></trkpt><trkpt lat="43.58401096722757" lon="6.823390850160808"><ele>214.4</ele><time>2026-04-12T10:19:54Z</time></trkpt><trkpt lat="43.58391805034373" lon="6.823350655403843"><ele>217.2</ele><time>2026-04-12T10:19:56Z</time></trkpt><trkpt lat="43.58381222888334" lon="6.823337480739895"><ele>220.0</ele><time>2026-04-12T10:19:58Z</time></trkpt><trkpt lat="43.58370087989231" lon="6.823348001227254"><ele>220.4</ele><time>2026-04-12T10:20:00Z</time></trkpt><trkpt lat="43.583578045951626" lon="6.8233521965174395"><ele>220.8</ele><time>2026-04-12T10:20:02Z</time></trkpt><trkpt lat="43.58344978069727" lon="6.823380314143025"><ele>221.2</ele><time>2026-04-12T10:20:04Z</time></trkpt><trkpt lat="43.58338222521036" lon="6.823388052015011"><ele>221.6</ele><time>2026-04-12T10:20:05Z</time></trkpt><trkpt lat="43.58331254236684" lon="6.823389549958617"><ele>222.0</ele><time>2026-04-12T10:20:06Z</time></trkpt><trkpt lat="43.58324290339634" lon="6.8233899783988345"><ele>222.0</ele><time>2026-04-12T10:20:07Z</time></trkpt><trkpt lat="43.583173212785084" lon="6.823402612319245"><ele>222.0</ele><time>2026-04-12T10:20:08Z</time></trkpt><trkpt lat="43.58310638238991" lon="6.82343565385384"><ele>222.0</ele><time>2026-04-12T10:20:09Z</time></trkpt><trkpt lat="43.583036487851736" lon="6.823472549596781"><ele>222.0</ele><time>2026-04-12T10:20:10Z</time></trkpt><trkpt lat="43.58296346890057" lon="6.823498927066958"><ele>222.0</ele><time>2026-04-12T10:20:11Z</time></trkpt><trkpt lat="43.58288631194024" lon="6.823509916012528"><ele>222.0</ele><time>2026-04-12T10:20:12Z</time></trkpt><trkpt lat="43.582810016141195" lon="6.823518906546575"><ele>222.0</ele><time>2026-04-12T10:20:13Z</time></trkpt><trkpt lat="43.58273566862883" lon="6.823546429379992"><ele>218.33333333333334</ele><time>2026-04-12T10:20:14Z</time></trkpt><trkpt lat="43.582668022398146" lon="6.8235979243412475"><ele>214.66666666666669</ele><time>2026-04-12T10:20:15Z</time></trkpt><trkpt lat="43.58260405805702" lon="6.823655649763483"><ele>211.0</ele><time>2026-04-12T10:20:16Z</time></trkpt><trkpt lat="43.58254222977451" lon="6.823717868791236"><ele>207.33333333333334</ele><time>2026-04-12T10:20:17Z</time></trkpt><trkpt lat="43.58247741802247" lon="6.823773469095156"><ele>203.66666666666669</ele><time>2026-04-12T10:20:18Z</time></trkpt><trkpt lat="43.5824108366481" lon="6.823823695612382"><ele>200.0</ele><time>2026-04-12T10:20:19Z</time></trkpt><trkpt lat="43.5823424289063" lon="6.8238689361415386"><ele>200.00000000000003</ele><time>2026-04-12T10:20:20Z</time></trkpt><trkpt lat="43.582272521475595" lon="6.8239112128633055"><ele>200.0</ele><time>2026-04-12T10:20:21Z</time></trkpt><trkpt lat="43.582202466908946" lon="6.823953772663698"><ele>200.0</ele><time>2026-04-12T10:20:22Z</time></trkpt><trkpt lat="43.58213086978723" lon="6.823993594541027"><ele>200.0</ele><time>2026-04-12T10:20:23Z</time></trkpt><trkpt lat="43.58205806815634" lon="6.824032110515696"><ele>200.00000000000003</ele><time>2026-04-12T10:20:24Z</time></trkpt><trkpt lat="43.58198281447662" lon="6.824071597205537"><ele>200.0</ele><time>2026-04-12T10:20:25Z</time></trkpt><trkpt lat="43.58190546233924" lon="6.824106096729061"><ele>200.50000000000003</ele><time>2026-04-12T10:20:26Z</time></trkpt><trkpt lat="43.581824110704105" lon="6.824127856575866"><ele>201.0</ele><time>2026-04-12T10:20:27Z</time></trkpt><trkpt lat="43.58173979523782" lon="6.824125795265807"><ele>201.5</ele><time>2026-04-12T10:20:28Z</time></trkpt><trkpt lat="43.581661002667154" lon="6.824086334159052"><ele>202.0</ele><time>2026-04-12T10:20:29Z</time></trkpt><trkpt lat="43.581601712129185" lon="6.82399116411633"><ele>202.50000000000003</ele><time>2026-04-12T10:20:30Z</time></trkpt><trkpt lat="43.58157721382057" lon="6.823865328992445"><ele>203.0</ele><time>2026-04-12T10:20:31Z</time></trkpt><trkpt lat="43.581566119600126" lon="6.823745167080319"><ele>203.00000000000003</ele><time>2026-04-12T10:20:32Z</time></trkpt><trkpt lat="43.581549463564805" lon="6.823633681454497"><ele>203.0</ele><time>2026-04-12T10:20:33Z</time></trkpt><trkpt lat="43.5815349070562" lon="6.823518836845258"><ele>203.0</ele><time>2026-04-12T10:20:34Z</time></trkpt><trkpt lat="43.581525699850324" lon="6.823398686893662"><ele>203.0</ele><time>2026-04-12T10:20:35Z</time></trkpt><trkpt lat="43.58152570440585" lon="6.8232768390726894"><ele>203.00000000000003</ele><time>2026-04-12T10:20:36Z</time></trkpt><trkpt lat="43.58154394218492" lon="6.823161429410909"><ele>203.0</ele><time>2026-04-12T10:20:37Z</time></trkpt><trkpt lat="43.58158210672045" lon="6.823050384629479"><ele>204.16666666666669</ele><time>2026-04-12T10:20:38Z</time></trkpt><trkpt lat="43.58163245397558" lon="6.822952409304331"><ele>205.33333333333334</ele><time>2026-04-12T10:20:39Z</time></trkpt><trkpt lat="43.58169246298314" lon="6.82286631768982"><ele>206.5</ele><time>2026-04-12T10:20:40Z</time></trkpt><trkpt lat="43.58173332903463" lon="6.82276525900271"><ele>207.66666666666669</ele><time>2026-04-12T10:20:41Z</time></trkpt><trkpt lat="43.58172939698255" lon="6.822642502221397"><ele>208.83333333333334</ele><time>2026-04-12T10:20:42Z</time></trkpt><trkpt lat="43.58168091802844" lon="6.8225382830610535"><ele>210.0</ele><time>2026-04-12T10:20:43Z</time></trkpt><trkpt lat="43.58159759012381" lon="6.822482975167282"><ele>210.66666666666666</ele><time>2026-04-12T10:20:44Z</time></trkpt><trkpt lat="43.58150669566873" lon="6.822479090735859"><ele>211.33333333333331</ele><time>2026-04-12T10:20:45Z</time></trkpt><trkpt lat="43.581420864358286" lon="6.822502196473698"><ele>212.0</ele><time>2026-04-12T10:20:46Z</time></trkpt><trkpt lat="43.58133769788775" lon="6.822520146563355"><ele>212.66666666666666</ele><time>2026-04-12T10:20:47Z</time></trkpt><trkpt lat="43.5812545858867" lon="6.822532363514621"><ele>213.33333333333331</ele><time>2026-04-12T10:20:48Z</time></trkpt><trkpt lat="43.581170692126115" lon="6.8225439316358045"><ele>214.0</ele><time>2026-04-12T10:20:49Z</time></trkpt><trkpt lat="43.581086037569015" lon="6.822553360109698"><ele>212.66666666666666</ele><time>2026-04-12T10:20:50Z</time></trkpt><trkpt lat="43.58099762771662" lon="6.8225504608197625"><ele>211.33333333333331</ele><time>2026-04-12T10:20:51Z</time></trkpt><trkpt lat="43.58091094519706" lon="6.822524130266963"><ele>210.0</ele><time>2026-04-12T10:20:52Z</time></trkpt><trkpt lat="43.580826431346736" lon="6.822488399716461"><ele>208.66666666666669</ele><time>2026-04-12T10:20:53Z</time></trkpt><trkpt lat="43.58074130758086" lon="6.8224551269555045"><ele>207.33333333333334</ele><time>2026-04-12T10:20:54Z</time></trkpt><trkpt lat="43.580654883036864" lon="6.82241828824987"><ele>206.0</ele><time>2026-04-12T10:20:55Z</time></trkpt><trkpt lat="43.58057218373005" lon="6.822369048180898"><ele>206.0</ele><time>2026-04-12T10:20:56Z</time></trkpt><trkpt lat="43.58049326560425" lon="6.822303931207807"><ele>206.0</ele><time>2026-04-12T10:20:57Z</time></trkpt><trkpt lat="43.58041775213476" lon="6.822232055639653"><ele>206.0</ele><time>2026-04-12T10:20:58Z</time></trkpt><trkpt lat="43.5803452793448" lon="6.82215416732889"><ele>206.0</ele><time>2026-04-12T10:20:59Z</time></trkpt><trkpt lat="43.58026639635211" lon="6.8220908369071465"><ele>206.0</ele><time>2026-04-12T10:21:00Z</time></trkpt><trkpt lat="43.580180983519675" lon="6.822042454349034"><ele>204.8</ele><time>2026-04-12T10:21:01Z</time></trkpt><trkpt lat="43.580095136006584" lon="6.821998247280285"><ele>203.60000000000002</ele><time>2026-04-12T10:21:02Z</time></trkpt><trkpt lat="43.58000822274461" lon="6.82195198077221"><ele>202.4</ele><time>2026-04-12T10:21:03Z</time></trkpt><trkpt lat="43.579920622976296" lon="6.821912794385473"><ele>201.2</ele><time>2026-04-12T10:21:04Z</time></trkpt><trkpt lat="43.57983141857258" lon="6.821880605082613"><ele>200.0</ele><time>2026-04-12T10:21:05Z</time></trkpt><trkpt lat="43.57974342499106" lon="6.821847090738155"><ele>201.83333333333334</ele><time>2026-04-12T10:21:06Z</time></trkpt><trkpt lat="43.57965923776275" lon="6.82180490077998"><ele>203.66666666666669</ele><time>2026-04-12T10:21:07Z</time></trkpt><trkpt lat="43.57957665639528" lon="6.821758457840173"><ele>205.5</ele><time>2026-04-12T10:21:08Z</time></trkpt><trkpt lat="43.57949309372612" lon="6.821713636062368"><ele>207.33333333333331</ele><time>2026-04-12T10:21:09Z</time></trkpt><trkpt lat="43.57941209258528" lon="6.821670496122522"><ele>209.16666666666666</ele><time>2026-04-12T10:21:10Z</time></trkpt><trkpt lat="43.57933483151642" lon="6.821640373828086"><ele>211.0</ele><time>2026-04-12T10:21:11Z</time></trkpt><trkpt lat="43.579258517457376" lon="6.821646314135521"><ele>210.99999999999997</ele><time>2026-04-12T10:21:12Z</time></trkpt><trkpt lat="43.57919063942834" lon="6.821702427237501"><ele>211.0</ele><time>2026-04-12T10:21:13Z</time></trkpt><trkpt lat="43.579143726862036" lon="6.821793455792553"><ele>211.0</ele><time>2026-04-12T10:21:14Z</time></trkpt><trkpt lat="43.57911551512045" lon="6.8218974419008385"><ele>211.0</ele><time>2026-04-12T10:21:15Z</time></trkpt><trkpt lat="43.57909297435076" lon="6.821995530076851"><ele>210.99999999999997</ele><time>2026-04-12T10:21:16Z</time></trkpt><trkpt lat="43.57907198448134" lon="6.822091409597694"><ele>211.0</ele><time>2026-04-12T10:21:17Z</time></trkpt><trkpt lat="43.579053045811506" lon="6.822189003585935"><ele>211.0</ele><time>2026-04-12T10:21:18Z</time></trkpt><trkpt lat="43.57904419362323" lon="6.8222892433743025"><ele>211.0</ele><time>2026-04-12T10:21:19Z</time></trkpt><trkpt lat="43.579048885566394" lon="6.822389654816871"><ele>211.0</ele><time>2026-04-12T10:21:20Z</time></trkpt><trkpt lat="43.57906391463106" lon="6.822486529313265"><ele>211.0</ele><time>2026-04-12T10:21:21Z</time></trkpt><trkpt lat="43.57908931558162" lon="6.822576609260483"><ele>211.0</ele><time>2026-04-12T10:21:22Z</time></trkpt><trkpt lat="43.5791262330092" lon="6.822653858987861"><ele>211.0</ele><time>2026-04-12T10:21:23Z</time></trkpt><trkpt lat="43.579176962682844" lon="6.822713278948613"><ele>211.0</ele><time>2026-04-12T10:21:24Z</time></trkpt><trkpt lat="43.579236801330005" lon="6.822746987411652"><ele>211.0</ele><time>2026-04-12T10:21:25Z</time></trkpt><trkpt lat="43.579349879399835" lon="6.822802043268363"><ele>211.0</ele><time>2026-04-12T10:21:27Z</time></trkpt><trkpt lat="43.57945243403356" lon="6.822857976485482"><ele>211.0</ele><time>2026-04-12T10:21:29Z</time></trkpt><trkpt lat="43.57955765838053" lon="6.8228898459810585"><ele>211.0</ele><time>2026-04-12T10:21:31Z</time></trkpt><trkpt lat="43.57966148604416" lon="6.822901786198045"><ele>211.0</ele><time>2026-04-12T10:21:33Z</time></trkpt><trkpt lat="43.57975954918669" lon="6.822915128964407"><ele>209.83333333333331</ele><time>2026-04-12T10:21:35Z</time></trkpt><trkpt lat="43.57984694703437" lon="6.822953255461131"><ele>208.66666666666666</ele><time>2026-04-12T10:21:37Z</time></trkpt><trkpt lat="43.57992663351047" lon="6.822994576851527"><ele>207.5</ele><time>2026-04-12T10:21:39Z</time></trkpt><trkpt lat="43.57999379877467" lon="6.823058977198837"><ele>206.33333333333331</ele><time>2026-04-12T10:21:41Z</time></trkpt><trkpt lat="43.58000186870942" lon="6.8231672997417325"><ele>205.16666666666666</ele><time>2026-04-12T10:21:43Z</time></trkpt><trkpt lat="43.57996590503011" lon="6.823253031136239"><ele>204.0</ele><time>2026-04-12T10:21:45Z</time></trkpt><trkpt lat="43.57992024203984" lon="6.823327008782158"><ele>204.0</ele><time>2026-04-12T10:21:47Z</time></trkpt><trkpt lat="43.579873339463894" lon="6.823400394829778"><ele>204.0</ele><time>2026-04-12T10:21:49Z</time></trkpt><trkpt lat="43.579833650834445" lon="6.82347305615774"><ele>204.0</ele><time>2026-04-12T10:21:51Z</time></trkpt><trkpt lat="43.57979795922734" lon="6.823545765461545"><ele>204.0</ele><time>2026-04-12T10:21:53Z</time></trkpt><trkpt lat="43.579761525933684" lon="6.823619295811476"><ele>204.0</ele><time>2026-04-12T10:21:55Z</time></trkpt><trkpt lat="43.579711415260526" lon="6.823726325450353"><ele>204.0</ele><time>2026-04-12T10:21:58Z</time></trkpt><trkpt lat="43.57966817411755" lon="6.823833476077362"><ele>204.0</ele><time>2026-04-12T10:22:01Z</time></trkpt><trkpt lat="43.57966694211429" lon="6.823956243604227"><ele>205.5</ele><time>2026-04-12T10:22:04Z</time></trkpt><trkpt lat="43.57970062173554" lon="6.824067385809278"><ele>207.0</ele><time>2026-04-12T10:22:07Z</time></trkpt><trkpt lat="43.579752988029256" lon="6.824159973593131"><ele>208.5</ele><time>2026-04-12T10:22:10Z</time></trkpt><trkpt lat="43.57979239085897" lon="6.824256530668911"><ele>210.0</ele><time>2026-04-12T10:22:13Z</time></trkpt><trkpt lat="43.579833438775694" lon="6.824343761204681"><ele>211.5</ele><time>2026-04-12T10:22:16Z</time></trkpt><trkpt lat="43.57989602513269" lon="6.824406287922556"><ele>213.0</ele><time>2026-04-12T10:22:19Z</time></trkpt><trkpt lat="43.57997003829715" lon="6.824420926979949"><ele>213.0</ele><time>2026-04-12T10:22:22Z</time></trkpt><trkpt lat="43.58004528600315" lon="6.824390930852889"><ele>213.0</ele><time>2026-04-12T10:22:25Z</time></trkpt><trkpt lat="43.580111143490285" lon="6.824342355331394"><ele>213.0</ele><time>2026-04-12T10:22:28Z</time></trkpt><trkpt lat="43.5801753675026" lon="6.824282952966727"><ele>213.0</ele><time>2026-04-12T10:22:31Z</time></trkpt><trkpt lat="43.58024691234522" lon="6.824240712908789"><ele>213.0</ele><time>2026-04-12T10:22:34Z</time></trkpt><trkpt lat="43.58032184228224" lon="6.82425137302764"><ele>213.0</ele><time>2026-04-12T10:22:37Z</time></trkpt><trkpt lat="43.58038316433271" lon="6.824313823370307"><ele>214.0</ele><time>2026-04-12T10:22:40Z</time></trkpt><trkpt lat="43.58043227315049" lon="6.82439576299845"><ele>215.0</ele><time>2026-04-12T10:22:43Z</time></trkpt><trkpt lat="43.58048176700251" lon="6.824483242874302"><ele>216.0</ele><time>2026-04-12T10:22:46Z</time></trkpt><trkpt lat="43.58052653152643" lon="6.8245700061288215"><ele>217.0</ele><time>2026-04-12T10:22:49Z</time></trkpt><trkpt lat="43.58056313071517" lon="6.824664811816111"><ele>218.0</ele><time>2026-04-12T10:22:52Z</time></trkpt><trkpt lat="43.580594353946786" lon="6.824755357159698"><ele>219.0</ele><time>2026-04-12T10:22:55Z</time></trkpt><trkpt lat="43.580617008393524" lon="6.824855741032535"><ele>219.0</ele><time>2026-04-12T10:22:58Z</time></trkpt><trkpt lat="43.58063484015009" lon="6.824946447587092"><ele>219.0</ele><time>2026-04-12T10:23:01Z</time></trkpt><trkpt lat="43.58066259726656" lon="6.825044468093912"><ele>219.0</ele><time>2026-04-12T10:23:04Z</time></trkpt><trkpt lat="43.5806953022305" lon="6.825135731030228"><ele>219.0</ele><time>2026-04-12T10:23:07Z</time></trkpt><trkpt lat="43.580733907460754" lon="6.82521836151835"><ele>219.0</ele><time>2026-04-12T10:23:10Z</time></trkpt><trkpt lat="43.58078689323413" lon="6.825284076925939"><ele>219.0</ele><time>2026-04-12T10:23:13Z</time></trkpt><trkpt lat="43.58084191457303" lon="6.825347235861574"><ele>219.0</ele><time>2026-04-12T10:23:16Z</time></trkpt><trkpt lat="43.580902491323705" lon="6.825407592439587"><ele>218.33333333333334</ele><time>2026-04-12T10:23:19Z</time></trkpt><trkpt lat="43.58096221480907" lon="6.82546206112693"><ele>217.66666666666669</ele><time>2026-04-12T10:23:22Z</time></trkpt><trkpt lat="43.581024713773466" lon="6.825520660054971"><ele>217.0</ele><time>2026-04-12T10:23:25Z</time></trkpt><trkpt lat="43.58108481149966" lon="6.825585202170047"><ele>216.33333333333334</ele><time>2026-04-12T10:23:28Z</time></trkpt><trkpt lat="43.58114807054809" lon="6.82564526532339"><ele>215.66666666666669</ele><time>2026-04-12T10:23:31Z</time></trkpt><trkpt lat="43.581212221025126" lon="6.8257033563309495"><ele>215.0</ele><time>2026-04-12T10:23:34Z</time></trkpt><trkpt lat="43.58126924824584" lon="6.8257702875171224"><ele>215.00000000000003</ele><time>2026-04-12T10:23:37Z</time></trkpt><trkpt lat="43.58131503735851" lon="6.825854680468561"><ele>215.0</ele><time>2026-04-12T10:23:40Z</time></trkpt><trkpt lat="43.58134134972865" lon="6.825954239766718"><ele>215.0</ele><time>2026-04-12T10:23:43Z</time></trkpt><trkpt lat="43.581344651283686" lon="6.826057432075406"><ele>215.0</ele><time>2026-04-12T10:23:46Z</time></trkpt><trkpt lat="43.581322905175604" lon="6.826156247596004"><ele>215.00000000000003</ele><time>2026-04-12T10:23:49Z</time></trkpt><trkpt lat="43.581289603332756" lon="6.826247255873774"><ele>215.0</ele><time>2026-04-12T10:23:52Z</time></trkpt><trkpt lat="43.58125367206962" lon="6.826338635206638"><ele>215.50000000000003</ele><time>2026-04-12T10:23:55Z</time></trkpt><trkpt lat="43.58123292347516" lon="6.826435988115601"><ele>216.0</ele><time>2026-04-12T10:23:58Z</time></trkpt><trkpt lat="43.581243852594355" lon="6.826543903913315"><ele>216.5</ele><time>2026-04-12T10:24:01Z</time></trkpt><trkpt lat="43.58128971567995" lon="6.826633680122171"><ele>217.0</ele><time>2026-04-12T10:24:04Z</time></trkpt><trkpt lat="43.581328533330975" lon="6.826730005228868"><ele>217.50000000000003</ele><time>2026-04-12T10:24:07Z</time></trkpt><trkpt lat="43.58134461577091" lon="6.826832052979381"><ele>218.0</ele><time>2026-04-12T10:24:10Z</time></trkpt><trkpt lat="43.581338760793784" lon="6.826939415482373"><ele>218.66666666666669</ele><time>2026-04-12T10:24:13Z</time></trkpt><trkpt lat="43.581330148518525" lon="6.827049604312196"><ele>219.33333333333334</ele><time>2026-04-12T10:24:16Z</time></trkpt><trkpt lat="43.581310024417995" lon="6.8271579012189125"><ele>220.0</ele><time>2026-04-12T10:24:19Z</time></trkpt><trkpt lat="43.58127241579279" lon="6.827254433069622"><ele>220.66666666666669</ele><time>2026-04-12T10:24:22Z</time></trkpt><trkpt lat="43.5812373523087" lon="6.827347458175373"><ele>221.33333333333334</ele><time>2026-04-12T10:24:25Z</time></trkpt><trkpt lat="43.581211520404615" lon="6.8274533882349155"><ele>222.0</ele><time>2026-04-12T10:24:28Z</time></trkpt><trkpt lat="43.5812110602038" lon="6.827561502707054"><ele>224.5</ele><time>2026-04-12T10:24:31Z</time></trkpt><trkpt lat="43.581230987859406" lon="6.827663139941896"><ele>227.0</ele><time>2026-04-12T10:24:34Z</time></trkpt><trkpt lat="43.58125098193964" lon="6.827768872142747"><ele>229.5</ele><time>2026-04-12T10:24:37Z</time></trkpt><trkpt lat="43.58126962399781" lon="6.827871785958625"><ele>232.0</ele><time>2026-04-12T10:24:40Z</time></trkpt><trkpt lat="43.58128542277672" lon="6.827975474758179"><ele>234.5</ele><time>2026-04-12T10:24:43Z</time></trkpt><trkpt lat="43.58129293449802" lon="6.82808086121475"><ele>237.0</ele><time>2026-04-12T10:24:46Z</time></trkpt><trkpt lat="43.58131544357789" lon="6.828182727080624"><ele>237.0</ele><time>2026-04-12T10:24:49Z</time></trkpt><trkpt lat="43.58133445733138" lon="6.828284076331118"><ele>237.0</ele><time>2026-04-12T10:24:52Z</time></trkpt><trkpt lat="43.581360714534014" lon="6.828384983688735"><ele>237.0</ele><time>2026-04-12T10:24:55Z</time></trkpt><trkpt lat="43.58139975228578" lon="6.828478763283207"><ele>237.0</ele><time>2026-04-12T10:24:58Z</time></trkpt><trkpt lat="43.58143225793699" lon="6.828574065045991"><ele>237.0</ele><time>2026-04-12T10:25:01Z</time></trkpt><trkpt lat="43.58147368006006" lon="6.828664791191692"><ele>237.0</ele><time>2026-04-12T10:25:04Z</time></trkpt><trkpt lat="43.581532026789205" lon="6.828736531381754"><ele>240.83333333333334</ele><time>2026-04-12T10:25:07Z</time></trkpt><trkpt lat="43.58159585858986" lon="6.828793422944269"><ele>244.66666666666669</ele><time>2026-04-12T10:25:10Z</time></trkpt><trkpt lat="43.581665126394014" lon="6.828832519038248"><ele>248.5</ele><time>2026-04-12T10:25:13Z</time></trkpt><trkpt lat="43.58173813818619" lon="6.828854821812222"><ele>252.33333333333334</ele><time>2026-04-12T10:25:16Z</time></trkpt><trkpt lat="43.58181371260884" lon="6.828879010178267"><ele>256.1666666666667</ele><time>2026-04-12T10:25:19Z</time></trkpt><trkpt lat="43.5818912108685" lon="6.82889868183177"><ele>260.0</ele><time>2026-04-12T10:25:22Z</time></trkpt><trkpt lat="43.581966334527735" lon="6.828916013805396"><ele>258.0</ele><time>2026-04-12T10:25:25Z</time></trkpt><trkpt lat="43.582043440348535" lon="6.828927114521201"><ele>256.0</ele><time>2026-04-12T10:25:28Z</time></trkpt><trkpt lat="43.58212009073215" lon="6.828953833520792"><ele>254.0</ele><time>2026-04-12T10:25:31Z</time></trkpt><trkpt lat="43.58219734270307" lon="6.828961791996122"><ele>252.0</ele><time>2026-04-12T10:25:34Z</time></trkpt><trkpt lat="43.58227393897374" lon="6.828984695965213"><ele>250.00000000000003</ele><time>2026-04-12T10:25:37Z</time></trkpt><trkpt lat="43.58234938145554" lon="6.829007408265338"><ele>248.0</ele><time>2026-04-12T10:25:40Z</time></trkpt><trkpt lat="43.58242344487605" lon="6.8290447352090435"><ele>248.00000000000003</ele><time>2026-04-12T10:25:43Z</time></trkpt><trkpt lat="43.582493677319704" lon="6.829088859186137"><ele>248.0</ele><time>2026-04-12T10:25:46Z</time></trkpt><trkpt lat="43.582565026845586" lon="6.829131622955825"><ele>248.0</ele><time>2026-04-12T10:25:49Z</time></trkpt><trkpt lat="43.58263090654236" lon="6.8291842034545684"><ele>248.0</ele><time>2026-04-12T10:25:52Z</time></trkpt><trkpt lat="43.582699721627" lon="6.829231597816474"><ele>248.00000000000003</ele><time>2026-04-12T10:25:55Z</time></trkpt><trkpt lat="43.58276379840059" lon="6.82928711826275"><ele>248.0</ele><time>2026-04-12T10:25:58Z</time></trkpt><trkpt lat="43.58281459432077" lon="6.829365379297035"><ele>247.00000000000003</ele><time>2026-04-12T10:26:01Z</time></trkpt><trkpt lat="43.582852516217514" lon="6.829450116705115"><ele>246.0</ele><time>2026-04-12T10:26:04Z</time></trkpt><trkpt lat="43.582881525820966" lon="6.829545617575967"><ele>245.0</ele><time>2026-04-12T10:26:07Z</time></trkpt><trkpt lat="43.58289295200131" lon="6.8296461457955955"><ele>244.0</ele><time>2026-04-12T10:26:10Z</time></trkpt><trkpt lat="43.58290478309479" lon="6.829755057322826"><ele>243.00000000000003</ele><time>2026-04-12T10:26:13Z</time></trkpt><trkpt lat="43.58291685216553" lon="6.829863421137577"><ele>242.0</ele><time>2026-04-12T10:26:16Z</time></trkpt><trkpt lat="43.58292670583744" lon="6.829969566522344"><ele>242.0</ele><time>2026-04-12T10:26:19Z</time></trkpt><trkpt lat="43.58293919711602" lon="6.830070411962847"><ele>241.99999999999997</ele><time>2026-04-12T10:26:22Z</time></trkpt><trkpt lat="43.582946773559875" lon="6.830173848837959"><ele>242.0</ele><time>2026-04-12T10:26:25Z</time></trkpt><trkpt lat="43.58295623684603" lon="6.830275523645194"><ele>242.0</ele><time>2026-04-12T10:26:28Z</time></trkpt><trkpt lat="43.58294601964291" lon="6.830372983012543"><ele>241.99999999999997</ele><time>2026-04-12T10:26:31Z</time></trkpt><trkpt lat="43.58293143468318" lon="6.830476052534405"><ele>242.0</ele><time>2026-04-12T10:26:34Z</time></trkpt><trkpt lat="43.58290310543832" lon="6.830573153317929"><ele>242.0</ele><time>2026-04-12T10:26:37Z</time></trkpt><trkpt lat="43.58287887760678" lon="6.83066783639105"><ele>245.14285714285714</ele><time>2026-04-12T10:26:40Z</time></trkpt><trkpt lat="43.582836595179025" lon="6.83075214242332"><ele>248.28571428571428</ele><time>2026-04-12T10:26:43Z</time></trkpt><trkpt lat="43.582788913684325" lon="6.830832219990758"><ele>251.42857142857142</ele><time>2026-04-12T10:26:46Z</time></trkpt><trkpt lat="43.58273159740121" lon="6.830905665562213"><ele>254.57142857142856</ele><time>2026-04-12T10:26:50Z</time></trkpt><trkpt lat="43.58267475035913" lon="6.8309652387177175"><ele>257.7142857142857</ele><time>2026-04-12T10:26:52Z</time></trkpt><trkpt lat="43.58261575393158" lon="6.831013835375444"><ele>260.85714285714283</ele><time>2026-04-12T10:26:55Z</time></trkpt><trkpt lat="43.582549614263584" lon="6.831054278517273"><ele>264.0</ele><time>2026-04-12T10:26:58Z</time></trkpt><trkpt lat="43.58248036002906" lon="6.831103113421117"><ele>264.0</ele><time>2026-04-12T10:27:01Z</time></trkpt><trkpt lat="43.5824164282555" lon="6.831160828911689"><ele>264.0</ele><time>2026-04-12T10:27:04Z</time></trkpt><trkpt lat="43.58235092197708" lon="6.831211951977034"><ele>264.0</ele><time>2026-04-12T10:27:07Z</time></trkpt><trkpt lat="43.58228636581221" lon="6.831261536271947"><ele>264.0</ele><time>2026-04-12T10:27:10Z</time></trkpt><trkpt lat="43.582230512623404" lon="6.831330612404035"><ele>264.0</ele><time>2026-04-12T10:27:13Z</time></trkpt><trkpt lat="43.5821993078529" lon="6.831414574579138"><ele>264.0</ele><time>2026-04-12T10:27:16Z</time></trkpt><trkpt lat="43.582195446272834" lon="6.831506870154514"><ele>264.0</ele><time>2026-04-12T10:27:19Z</time></trkpt><trkpt lat="43.58221698796593" lon="6.831615878114333"><ele>264.0</ele><time>2026-04-12T10:27:22Z</time></trkpt><trkpt lat="43.58223880339936" lon="6.831717833501128"><ele>264.0</ele><time>2026-04-12T10:27:25Z</time></trkpt><trkpt lat="43.582257987562606" lon="6.8318150875261585"><ele>264.0</ele><time>2026-04-12T10:27:28Z</time></trkpt><trkpt lat="43.58228046403132" lon="6.831918773413886"><ele>264.0</ele><time>2026-04-12T10:27:31Z</time></trkpt><trkpt lat="43.58230319828307" lon="6.8320197883667895"><ele>264.0</ele><time>2026-04-12T10:27:34Z</time></trkpt><trkpt lat="43.5823211852338" lon="6.8321236273050365"><ele>264.0</ele><time>2026-04-12T10:27:37Z</time></trkpt><trkpt lat="43.58233529797465" lon="6.832230484053732"><ele>265.1666666666667</ele><time>2026-04-12T10:27:40Z</time></trkpt><trkpt lat="43.58234131389363" lon="6.8323403484404235"><ele>266.3333333333333</ele><time>2026-04-12T10:27:43Z</time></trkpt><trkpt lat="43.582341356565685" lon="6.832450756984788"><ele>267.5</ele><time>2026-04-12T10:27:46Z</time></trkpt><trkpt lat="43.58234697544191" lon="6.83255664058655"><ele>268.66666666666663</ele><time>2026-04-12T10:27:49Z</time></trkpt><trkpt lat="43.58237456823131" lon="6.832654300456453"><ele>269.8333333333333</ele><time>2026-04-12T10:27:52Z</time></trkpt><trkpt lat="43.582426676183395" lon="6.832734386540345"><ele>271.0</ele><time>2026-04-12T10:27:55Z</time></trkpt><trkpt lat="43.58249943745485" lon="6.832777024000306"><ele>271.16666666666663</ele><time>2026-04-12T10:27:58Z</time></trkpt><trkpt lat="43.58257644590569" lon="6.832779930861558"><ele>271.3333333333333</ele><time>2026-04-12T10:28:01Z</time></trkpt><trkpt lat="43.58265337629055" lon="6.832779121928857"><ele>271.5</ele><time>2026-04-12T10:28:04Z</time></trkpt><trkpt lat="43.582735040965765" lon="6.832782486162471"><ele>271.6666666666667</ele><time>2026-04-12T10:28:07Z</time></trkpt><trkpt lat="43.58281061256722" lon="6.83280533147895"><ele>271.83333333333337</ele><time>2026-04-12T10:28:10Z</time></trkpt><trkpt lat="43.58287693392758" lon="6.832867552394316"><ele>272.0</ele><time>2026-04-12T10:28:13Z</time></trkpt><trkpt lat="43.582930721126985" lon="6.832943489686602"><ele>272.0</ele><time>2026-04-12T10:28:16Z</time></trkpt><trkpt lat="43.58297652400352" lon="6.833032284500202"><ele>272.0</ele><time>2026-04-12T10:28:20Z</time></trkpt><trkpt lat="43.58302307033273" lon="6.833121537975318"><ele>272.0</ele><time>2026-04-12T10:28:22Z</time></trkpt><trkpt lat="43.583067008759734" lon="6.833205290210481"><ele>272.0</ele><time>2026-04-12T10:28:25Z</time></trkpt><trkpt lat="43.58310074732904" lon="6.833307608461496"><ele>272.0</ele><time>2026-04-12T10:28:28Z</time></trkpt><trkpt lat="43.58312887762055" lon="6.833411850949056"><ele>272.0</ele><time>2026-04-12T10:28:31Z</time></trkpt><trkpt lat="43.5831540282937" lon="6.833516320665956"><ele>273.33333333333337</ele><time>2026-04-12T10:28:34Z</time></trkpt><trkpt lat="43.583164925119846" lon="6.8336233269344895"><ele>274.6666666666667</ele><time>2026-04-12T10:28:37Z</time></trkpt><trkpt lat="43.583171532246936" lon="6.833733359438655"><ele>276.0</ele><time>2026-04-12T10:28:40Z</time></trkpt><trkpt lat="43.58317589055354" lon="6.833846201124017"><ele>277.3333333333333</ele><time>2026-04-12T10:28:43Z</time></trkpt><trkpt lat="43.58318891958425" lon="6.833954212861525"><ele>278.66666666666663</ele><time>2026-04-12T10:28:46Z</time></trkpt><trkpt lat="43.5832055564738" lon="6.834065291808559"><ele>280.0</ele><time>2026-04-12T10:28:49Z</time></trkpt><trkpt lat="43.58322130674226" lon="6.8341731500414635"><ele>280.0</ele><time>2026-04-12T10:28:52Z</time></trkpt><trkpt lat="43.58323716433417" lon="6.834285688213424"><ele>280.0</ele><time>2026-04-12T10:28:55Z</time></trkpt><trkpt lat="43.58325132376769" lon="6.8343952582914245"><ele>280.0</ele><time>2026-04-12T10:28:58Z</time></trkpt><trkpt lat="43.583268928454096" lon="6.834502894051514"><ele>280.0</ele><time>2026-04-12T10:29:01Z</time></trkpt><trkpt lat="43.58328825424638" lon="6.834610154381649"><ele>280.0</ele><time>2026-04-12T10:29:04Z</time></trkpt><trkpt lat="43.58330676878362" lon="6.8347207839733"><ele>280.0</ele><time>2026-04-12T10:29:07Z</time></trkpt><trkpt lat="43.58332574663254" lon="6.834825518325709"><ele>280.8333333333333</ele><time>2026-04-12T10:29:10Z</time></trkpt><trkpt lat="43.58335180638578" lon="6.8349286295941605"><ele>281.66666666666663</ele><time>2026-04-12T10:29:13Z</time></trkpt><trkpt lat="43.58337712533652" lon="6.835030734929822"><ele>282.5</ele><time>2026-04-12T10:29:16Z</time></trkpt><trkpt lat="43.5834169069734" lon="6.8351255980327625"><ele>283.3333333333333</ele><time>2026-04-12T10:29:19Z</time></trkpt><trkpt lat="43.58346720884542" lon="6.83520923598858"><ele>284.1666666666667</ele><time>2026-04-12T10:29:22Z</time></trkpt><trkpt lat="43.583516027113426" lon="6.835294877470688"><ele>285.0</ele><time>2026-04-12T10:29:25Z</time></trkpt><trkpt lat="43.58357116248976" lon="6.835373306267229"><ele>285.1666666666667</ele><time>2026-04-12T10:29:28Z</time></trkpt><trkpt lat="43.58362085711226" lon="6.835454750952912"><ele>285.3333333333333</ele><time>2026-04-12T10:29:31Z</time></trkpt><trkpt lat="43.58366242771656" lon="6.8355461131318584"><ele>285.5</ele><time>2026-04-12T10:29:34Z</time></trkpt><trkpt lat="43.58370611995506" lon="6.835632448797494"><ele>285.66666666666663</ele><time>2026-04-12T10:29:37Z</time></trkpt><trkpt lat="43.58375287785255" lon="6.835721207727129"><ele>285.8333333333333</ele><time>2026-04-12T10:29:40Z</time></trkpt><trkpt lat="43.58379115088845" lon="6.835818217128094"><ele>286.0</ele><time>2026-04-12T10:29:43Z</time></trkpt><trkpt lat="43.583838146407686" lon="6.835907454837354"><ele>286.8333333333333</ele><time>2026-04-12T10:29:46Z</time></trkpt><trkpt lat="43.58388365321696" lon="6.835993679793689"><ele>287.66666666666663</ele><time>2026-04-12T10:29:49Z</time></trkpt><trkpt lat="43.58393370379057" lon="6.836072861138807"><ele>288.5</ele><time>2026-04-12T10:29:52Z</time></trkpt><trkpt lat="43.5839850589592" lon="6.83615013633348"><ele>289.3333333333333</ele><time>2026-04-12T10:29:55Z</time></trkpt><trkpt lat="43.584043655782345" lon="6.836210466879376"><ele>290.1666666666667</ele><time>2026-04-12T10:29:58Z</time></trkpt><trkpt lat="43.584104475721546" lon="6.836273903566471"><ele>291.0</ele><time>2026-04-12T10:30:01Z</time></trkpt><trkpt lat="43.58416002195667" lon="6.836343669885757"><ele>291.0</ele><time>2026-04-12T10:30:04Z</time></trkpt><trkpt lat="43.58421603545731" lon="6.83640956944086"><ele>291.0</ele><time>2026-04-12T10:30:07Z</time></trkpt><trkpt lat="43.58426710867211" lon="6.836487152886949"><ele>291.0</ele><time>2026-04-12T10:30:10Z</time></trkpt><trkpt lat="43.584321433980605" lon="6.836553009240666"><ele>291.0</ele><time>2026-04-12T10:30:13Z</time></trkpt><trkpt lat="43.58437592764125" lon="6.836624826981569"><ele>291.0</ele><time>2026-04-12T10:30:16Z</time></trkpt><trkpt lat="43.584434632040185" lon="6.836686453550657"><ele>291.0</ele><time>2026-04-12T10:30:19Z</time></trkpt><trkpt lat="43.58450221900485" lon="6.836732004650208"><ele>291.0</ele><time>2026-04-12T10:30:22Z</time></trkpt><trkpt lat="43.58457486011177" lon="6.836768628670657"><ele>292.0</ele><time>2026-04-12T10:30:25Z</time></trkpt><trkpt lat="43.584658235421614" lon="6.836785914586686"><ele>293.0</ele><time>2026-04-12T10:30:28Z</time></trkpt><trkpt lat="43.58474816866279" lon="6.836782531169892"><ele>294.0</ele><time>2026-04-12T10:30:31Z</time></trkpt><trkpt lat="43.58481461287692" lon="6.836775234183593"><ele>295.0</ele><time>2026-04-12T10:30:33Z</time></trkpt><trkpt lat="43.584882096400115" lon="6.836768234039886"><ele>296.0</ele><time>2026-04-12T10:30:35Z</time></trkpt><trkpt lat="43.58495080375075" lon="6.836768423893947"><ele>297.0</ele><time>2026-04-12T10:30:37Z</time></trkpt><trkpt lat="43.58501812607952" lon="6.836769386884733"><ele>298.0</ele><time>2026-04-12T10:30:39Z</time></trkpt><trkpt lat="43.58508471791653" lon="6.836772558893537"><ele>298.0</ele><time>2026-04-12T10:30:41Z</time></trkpt><trkpt lat="43.58515015750447" lon="6.83678526249068"><ele>298.0</ele><time>2026-04-12T10:30:43Z</time></trkpt><trkpt lat="43.585212197525436" lon="6.836803626060438"><ele>298.0</ele><time>2026-04-12T10:30:46Z</time></trkpt><trkpt lat="43.58530978278965" lon="6.836849901380113"><ele>298.0</ele><time>2026-04-12T10:30:48Z</time></trkpt><trkpt lat="43.58538444921074" lon="6.836920976008739"><ele>298.0</ele><time>2026-04-12T10:30:51Z</time></trkpt><trkpt lat="43.5854343585256" lon="6.836982332341173"><ele>298.0</ele><time>2026-04-12T10:30:54Z</time></trkpt><trkpt lat="43.58547658231611" lon="6.837050472976934"><ele>298.8333333333333</ele><time>2026-04-12T10:30:56Z</time></trkpt><trkpt lat="43.585524987308034" lon="6.8371374782381436"><ele>299.66666666666663</ele><time>2026-04-12T10:30:58Z</time></trkpt><trkpt lat="43.585563542083435" lon="6.837222404617427"><ele>300.5</ele><time>2026-04-12T10:31:00Z</time></trkpt><trkpt lat="43.585609407773454" lon="6.837325454046514"><ele>301.3333333333333</ele><time>2026-04-12T10:31:04Z</time></trkpt><trkpt lat="43.58565354902854" lon="6.837420036337429"><ele>302.1666666666667</ele><time>2026-04-12T10:31:07Z</time></trkpt><trkpt lat="43.58570686511052" lon="6.83754053828174"><ele>303.0</ele><time>2026-04-12T10:31:10Z</time></trkpt><trkpt lat="43.58575177404649" lon="6.837631366108371"><ele>303.1666666666667</ele><time>2026-04-12T10:31:13Z</time></trkpt><trkpt lat="43.58579307931818" lon="6.837727266564872"><ele>303.3333333333333</ele><time>2026-04-12T10:31:16Z</time></trkpt><trkpt lat="43.58583787365771" lon="6.837822952782226"><ele>303.5</ele><time>2026-04-12T10:31:19Z</time></trkpt><trkpt lat="43.585880592489964" lon="6.837918772359487"><ele>303.66666666666663</ele><time>2026-04-12T10:31:22Z</time></trkpt><trkpt lat="43.58592549725017" lon="6.838009080935866"><ele>303.8333333333333</ele><time>2026-04-12T10:31:25Z</time></trkpt><trkpt lat="43.58596995038948" lon="6.838102750247399"><ele>304.0</ele><time>2026-04-12T10:31:28Z</time></trkpt><trkpt lat="43.58601175532593" lon="6.838197886360929"><ele>304.0</ele><time>2026-04-12T10:31:31Z</time></trkpt><trkpt lat="43.58605405019569" lon="6.838289690574451"><ele>304.0</ele><time>2026-04-12T10:31:34Z</time></trkpt><trkpt lat="43.58609687483775" lon="6.83838134252604"><ele>304.0</ele><time>2026-04-12T10:31:37Z</time></trkpt><trkpt lat="43.58614943253538" lon="6.838466985509748"><ele>304.0</ele><time>2026-04-12T10:31:40Z</time></trkpt><trkpt lat="43.586211730641864" lon="6.838552231863334"><ele>304.0</ele><time>2026-04-12T10:31:44Z</time></trkpt><trkpt lat="43.58626219606359" lon="6.838608452359798"><ele>304.0</ele><time>2026-04-12T10:31:47Z</time></trkpt><trkpt lat="43.58632070238847" lon="6.8386576912536885"><ele>304.66666666666663</ele><time>2026-04-12T10:31:49Z</time></trkpt><trkpt lat="43.58639295682727" lon="6.838703904797954"><ele>305.3333333333333</ele><time>2026-04-12T10:31:52Z</time></trkpt><trkpt lat="43.586466857026736" lon="6.838747836915026"><ele>306.0</ele><time>2026-04-12T10:31:55Z</time></trkpt><trkpt lat="43.58654310459375" lon="6.838781023590939"><ele>306.6666666666667</ele><time>2026-04-12T10:31:58Z</time></trkpt><trkpt lat="43.5866143745238" lon="6.8388231051483315"><ele>307.33333333333337</ele><time>2026-04-12T10:32:01Z</time></trkpt><trkpt lat="43.58668603777679" lon="6.838863825522889"><ele>308.0</ele><time>2026-04-12T10:32:04Z</time></trkpt><trkpt lat="43.58675776933285" lon="6.838893342742265"><ele>308.0</ele><time>2026-04-12T10:32:07Z</time></trkpt><trkpt lat="43.586829434674705" lon="6.838930212006494"><ele>308.0</ele><time>2026-04-12T10:32:10Z</time></trkpt><trkpt lat="43.58690016090777" lon="6.8389618801631356"><ele>308.0</ele><time>2026-04-12T10:32:13Z</time></trkpt><trkpt lat="43.58697160839283" lon="6.838990631489444"><ele>308.0</ele><time>2026-04-12T10:32:16Z</time></trkpt><trkpt lat="43.58704175211337" lon="6.839021120821773"><ele>308.0</ele><time>2026-04-12T10:32:19Z</time></trkpt><trkpt lat="43.58711327198391" lon="6.83904778769155"><ele>308.0</ele><time>2026-04-12T10:32:22Z</time></trkpt><trkpt lat="43.58718383519147" lon="6.839085038407629"><ele>308.0</ele><time>2026-04-12T10:32:25Z</time></trkpt><trkpt lat="43.58725746733875" lon="6.83911358686512"><ele>309.42857142857144</ele><time>2026-04-12T10:32:28Z</time></trkpt><trkpt lat="43.587329175307" lon="6.839127316883595"><ele>310.8571428571429</ele><time>2026-04-12T10:32:31Z</time></trkpt><trkpt lat="43.5874015405286" lon="6.8391490817239395"><ele>312.2857142857143</ele><time>2026-04-12T10:32:34Z</time></trkpt><trkpt lat="43.58747461766236" lon="6.839158603987457"><ele>313.7142857142857</ele><time>2026-04-12T10:32:37Z</time></trkpt><trkpt lat="43.58754816485993" lon="6.8391777961665134"><ele>315.14285714285717</ele><time>2026-04-12T10:32:40Z</time></trkpt><trkpt lat="43.58762315288048" lon="6.83919262003114"><ele>316.57142857142856</ele><time>2026-04-12T10:32:43Z</time></trkpt><trkpt lat="43.5876970599664" lon="6.839211272213579"><ele>318.0</ele><time>2026-04-12T10:32:46Z</time></trkpt><trkpt lat="43.58777241152062" lon="6.839226345326724"><ele>318.8333333333333</ele><time>2026-04-12T10:32:49Z</time></trkpt><trkpt lat="43.587844126099725" lon="6.839249169004079"><ele>319.6666666666667</ele><time>2026-04-12T10:32:52Z</time></trkpt><trkpt lat="43.58792883125435" lon="6.839277839719625"><ele>320.5</ele><time>2026-04-12T10:32:56Z</time></trkpt><trkpt lat="43.588015466277795" lon="6.839300296992297"><ele>321.33333333333337</ele><time>2026-04-12T10:32:59Z</time></trkpt><trkpt lat="43.588084661340055" lon="6.8393210604492385"><ele>322.1666666666667</ele><time>2026-04-12T10:33:02Z</time></trkpt><trkpt lat="43.58815761144884" lon="6.839339654520209"><ele>323.0</ele><time>2026-04-12T10:33:05Z</time></trkpt><trkpt lat="43.58823554142753" lon="6.839349308527809"><ele>323.00000000000006</ele><time>2026-04-12T10:33:08Z</time></trkpt><trkpt lat="43.58830633020367" lon="6.839361997009734"><ele>323.0</ele><time>2026-04-12T10:33:12Z</time></trkpt><trkpt lat="43.5883679504075" lon="6.839384480548852"><ele>323.0</ele><time>2026-04-12T10:33:14Z</time></trkpt><trkpt lat="43.58843687024159" lon="6.839418856876218"><ele>323.0</ele><time>2026-04-12T10:33:17Z</time></trkpt><trkpt lat="43.58849318001882" lon="6.839487541877007"><ele>323.0</ele><time>2026-04-12T10:33:20Z</time></trkpt><trkpt lat="43.58854498937068" lon="6.839574205804227"><ele>323.00000000000006</ele><time>2026-04-12T10:33:23Z</time></trkpt><trkpt lat="43.58859219744589" lon="6.8396636657238945"><ele>323.0</ele><time>2026-04-12T10:33:26Z</time></trkpt><trkpt lat="43.58861691420669" lon="6.839772127448923"><ele>323.0</ele><time>2026-04-12T10:33:29Z</time></trkpt><trkpt lat="43.58863372261115" lon="6.839885171712044"><ele>323.0</ele><time>2026-04-12T10:33:32Z</time></trkpt><trkpt lat="43.58861624179178" lon="6.8400183301937805"><ele>323.0</ele><time>2026-04-12T10:33:36Z</time></trkpt><trkpt lat="43.58859626156234" lon="6.840101449239714"><ele>323.0</ele><time>2026-04-12T10:33:38Z</time></trkpt><trkpt lat="43.588563032387114" lon="6.840217235624894"><ele>323.0</ele><time>2026-04-12T10:33:42Z</time></trkpt><trkpt lat="43.588544070995134" lon="6.840325383826054"><ele>323.0</ele><time>2026-04-12T10:33:45Z</time></trkpt><trkpt lat="43.588525984765255" lon="6.840438721302802"><ele>323.0</ele><time>2026-04-12T10:33:47Z</time></trkpt><trkpt lat="43.58850769543906" lon="6.840541276738133"><ele>323.0</ele><time>2026-04-12T10:33:49Z</time></trkpt><trkpt lat="43.58849550702493" lon="6.840656422045875"><ele>323.0</ele><time>2026-04-12T10:33:51Z</time></trkpt><trkpt lat="43.58848354501807" lon="6.84078022046677"><ele>323.0</ele><time>2026-04-12T10:33:53Z</time></trkpt><trkpt lat="43.58847360959786" lon="6.840900698387597"><ele>323.0</ele><time>2026-04-12T10:33:55Z</time></trkpt><trkpt lat="43.58846388329097" lon="6.841019850305865"><ele>323.0</ele><time>2026-04-12T10:33:57Z</time></trkpt><trkpt lat="43.588461855501926" lon="6.841154541740931"><ele>323.79999999999995</ele><time>2026-04-12T10:33:59Z</time></trkpt><trkpt lat="43.58847040527449" lon="6.841296064621233"><ele>324.6</ele><time>2026-04-12T10:34:01Z</time></trkpt><trkpt lat="43.58847821894277" lon="6.841446693354399"><ele>325.4</ele><time>2026-04-12T10:34:03Z</time></trkpt><trkpt lat="43.588468320059775" lon="6.8416006526434785"><ele>326.20000000000005</ele><time>2026-04-12T10:34:05Z</time></trkpt><trkpt lat="43.58843545048231" lon="6.8417387062666695"><ele>327.0</ele><time>2026-04-12T10:34:07Z</time></trkpt><trkpt lat="43.588404106417364" lon="6.841863265586968"><ele>327.0</ele><time>2026-04-12T10:34:09Z</time></trkpt><trkpt lat="43.588383568354445" lon="6.84198524218598"><ele>327.0</ele><time>2026-04-12T10:34:11Z</time></trkpt><trkpt lat="43.58836851544128" lon="6.842104416484946"><ele>327.0</ele><time>2026-04-12T10:34:13Z</time></trkpt><trkpt lat="43.58835286099419" lon="6.842227650365235"><ele>327.0</ele><time>2026-04-12T10:34:15Z</time></trkpt><trkpt lat="43.58832286140619" lon="6.842362654534643"><ele>327.0</ele><time>2026-04-12T10:34:17Z</time></trkpt><trkpt lat="43.588261656285276" lon="6.842510276600897"><ele>327.0</ele><time>2026-04-12T10:34:19Z</time></trkpt><trkpt lat="43.588225486257265" lon="6.842590634602528"><ele>327.0</ele><time>2026-04-12T10:34:20Z</time></trkpt><trkpt lat="43.588186501419685" lon="6.84267524106043"><ele>327.0</ele><time>2026-04-12T10:34:21Z</time></trkpt><trkpt lat="43.58815488008112" lon="6.842768532033212"><ele>327.0</ele><time>2026-04-12T10:34:22Z</time></trkpt><trkpt lat="43.58813105920949" lon="6.84287033048769"><ele>327.0</ele><time>2026-04-12T10:34:23Z</time></trkpt><trkpt lat="43.588116809017315" lon="6.8429785165213834"><ele>327.0</ele><time>2026-04-12T10:34:24Z</time></trkpt><trkpt lat="43.58811161320895" lon="6.8430927320912875"><ele>326.6</ele><time>2026-04-12T10:34:25Z</time></trkpt><trkpt lat="43.5881078014355" lon="6.843210752164597"><ele>326.20000000000005</ele><time>2026-04-12T10:34:26Z</time></trkpt><trkpt lat="43.5881097254989" lon="6.843332338677094"><ele>325.8</ele><time>2026-04-12T10:34:27Z</time></trkpt><trkpt lat="43.58814838930109" lon="6.843451704368797"><ele>325.4</ele><time>2026-04-12T10:34:28Z</time></trkpt><trkpt lat="43.58823683666606" lon="6.843537594981059"><ele>325.0</ele><time>2026-04-12T10:34:29Z</time></trkpt><trkpt lat="43.58834758164175" lon="6.843568014207851"><ele>327.0</ele><time>2026-04-12T10:34:30Z</time></trkpt><trkpt lat="43.588451678013975" lon="6.843589392955333"><ele>329.0</ele><time>2026-04-12T10:34:31Z</time></trkpt><trkpt lat="43.588545397148486" lon="6.843643194396374"><ele>331.0</ele><time>2026-04-12T10:34:32Z</time></trkpt><trkpt lat="43.58863032917566" lon="6.84373770337374"><ele>333.0</ele><time>2026-04-12T10:34:33Z</time></trkpt><trkpt lat="43.588706013698534" lon="6.843846445833331"><ele>335.0</ele><time>2026-04-12T10:34:34Z</time></trkpt><trkpt lat="43.58877849384682" lon="6.843972376079224"><ele>333.5</ele><time>2026-04-12T10:34:35Z</time></trkpt><trkpt lat="43.58885465062521" lon="6.844096640543953"><ele>332.0</ele><time>2026-04-12T10:34:36Z</time></trkpt><trkpt lat="43.58894027728515" lon="6.844205620824814"><ele>330.5</ele><time>2026-04-12T10:34:37Z</time></trkpt><trkpt lat="43.589039252200386" lon="6.844302221890109"><ele>329.0</ele><time>2026-04-12T10:34:38Z</time></trkpt><trkpt lat="43.589141645560076" lon="6.844386874654069"><ele>329.0</ele><time>2026-04-12T10:34:39Z</time></trkpt><trkpt lat="43.589254734596636" lon="6.84446564561897"><ele>329.0</ele><time>2026-04-12T10:34:40Z</time></trkpt><trkpt lat="43.58936298558967" lon="6.8445529262658695"><ele>329.0</ele><time>2026-04-12T10:34:41Z</time></trkpt><trkpt lat="43.589474153416965" lon="6.8446425983580665"><ele>329.0</ele><time>2026-04-12T10:34:42Z</time></trkpt><trkpt lat="43.58958845208544" lon="6.844732527856782"><ele>324.25</ele><time>2026-04-12T10:34:43Z</time></trkpt><trkpt lat="43.589708305289655" lon="6.8448091675692275"><ele>319.5</ele><time>2026-04-12T10:34:44Z</time></trkpt><trkpt lat="43.5898325145803" lon="6.844867813658364"><ele>314.75</ele><time>2026-04-12T10:34:45Z</time></trkpt><trkpt lat="43.58996282357202" lon="6.844912079894655"><ele>310.0</ele><time>2026-04-12T10:34:46Z</time></trkpt><trkpt lat="43.59009654998313" lon="6.844951127147667"><ele>310.0</ele><time>2026-04-12T10:34:47Z</time></trkpt><trkpt lat="43.590231124438" lon="6.844983900627507"><ele>310.0</ele><time>2026-04-12T10:34:48Z</time></trkpt><trkpt lat="43.59036492119439" lon="6.845024547606974"><ele>310.0</ele><time>2026-04-12T10:34:49Z</time></trkpt><trkpt lat="43.59049890102728" lon="6.845071668949007"><ele>310.0</ele><time>2026-04-12T10:34:50Z</time></trkpt><trkpt lat="43.59062856305276" lon="6.845121819031127"><ele>312.75</ele><time>2026-04-12T10:34:51Z</time></trkpt><trkpt lat="43.590753226988795" lon="6.845170387034055"><ele>315.5</ele><time>2026-04-12T10:34:52Z</time></trkpt><trkpt lat="43.590882040465914" lon="6.845198202164888"><ele>318.25</ele><time>2026-04-12T10:34:53Z</time></trkpt><trkpt lat="43.59101220246382" lon="6.84521759530719"><ele>321.0</ele><time>2026-04-12T10:34:54Z</time></trkpt><trkpt lat="43.59113204775138" lon="6.845234111777777"><ele>316.2</ele><time>2026-04-12T10:34:55Z</time></trkpt><trkpt lat="43.59124231951443" lon="6.845250470075659"><ele>311.40000000000003</ele><time>2026-04-12T10:34:56Z</time></trkpt><trkpt lat="43.59134898661526" lon="6.845276368510282"><ele>306.6</ele><time>2026-04-12T10:34:57Z</time></trkpt><trkpt lat="43.59144150620554" lon="6.845324445852397"><ele>301.8</ele><time>2026-04-12T10:34:58Z</time></trkpt><trkpt lat="43.59153156318262" lon="6.845404035264895"><ele>297.0</ele><time>2026-04-12T10:34:59Z</time></trkpt><trkpt lat="43.5916141268967" lon="6.845504245704077"><ele>297.0</ele><time>2026-04-12T10:35:00Z</time></trkpt><trkpt lat="43.59168958154792" lon="6.8456199501981425"><ele>297.0</ele><time>2026-04-12T10:35:01Z</time></trkpt><trkpt lat="43.59176907383672" lon="6.845737423547465"><ele>297.0</ele><time>2026-04-12T10:35:02Z</time></trkpt><trkpt lat="43.591852590034364" lon="6.845854237779752"><ele>297.0</ele><time>2026-04-12T10:35:03Z</time></trkpt><trkpt lat="43.59193751655052" lon="6.845972629783853"><ele>294.25</ele><time>2026-04-12T10:35:04Z</time></trkpt><trkpt lat="43.592025775619966" lon="6.846091424657868"><ele>291.5</ele><time>2026-04-12T10:35:05Z</time></trkpt><trkpt lat="43.59212513313512" lon="6.846196137887415"><ele>288.75</ele><time>2026-04-12T10:35:06Z</time></trkpt><trkpt lat="43.59223207135377" lon="6.846292844706318"><ele>286.0</ele><time>2026-04-12T10:35:07Z</time></trkpt><trkpt lat="43.59234214272836" lon="6.846388906614238"><ele>286.0</ele><time>2026-04-12T10:35:08Z</time></trkpt><trkpt lat="43.59244756626385" lon="6.846490832409082"><ele>286.0</ele><time>2026-04-12T10:35:09Z</time></trkpt><trkpt lat="43.592534546061465" lon="6.846600679841998"><ele>286.0</ele><time>2026-04-12T10:35:10Z</time></trkpt><trkpt lat="43.59261238078345" lon="6.846718090652001"><ele>286.0</ele><time>2026-04-12T10:35:11Z</time></trkpt><trkpt lat="43.59268096670968" lon="6.846854355185023"><ele>288.75</ele><time>2026-04-12T10:35:12Z</time></trkpt><trkpt lat="43.59273338712951" lon="6.847006767994951"><ele>291.5</ele><time>2026-04-12T10:35:13Z</time></trkpt><trkpt lat="43.592786162486725" lon="6.847159048245863"><ele>294.25</ele><time>2026-04-12T10:35:14Z</time></trkpt><trkpt lat="43.592853368981764" lon="6.847303582896629"><ele>297.0</ele><time>2026-04-12T10:35:15Z</time></trkpt><trkpt lat="43.592930979510584" lon="6.847440106877793"><ele>290.0</ele><time>2026-04-12T10:35:16Z</time></trkpt><trkpt lat="43.59301529990111" lon="6.847573906317226"><ele>283.0</ele><time>2026-04-12T10:35:17Z</time></trkpt><trkpt lat="43.593076311536386" lon="6.847737259993296"><ele>276.0</ele><time>2026-04-12T10:35:18Z</time></trkpt><trkpt lat="43.59315626814139" lon="6.847881598630211"><ele>269.0</ele><time>2026-04-12T10:35:19Z</time></trkpt><trkpt lat="43.59323018402478" lon="6.848033250995335"><ele>269.0</ele><time>2026-04-12T10:35:20Z</time></trkpt><trkpt lat="43.593296068355926" lon="6.848184647243674"><ele>269.0</ele><time>2026-04-12T10:35:21Z</time></trkpt><trkpt lat="43.59334900125034" lon="6.8483202564196946"><ele>269.0</ele><time>2026-04-12T10:35:22Z</time></trkpt><trkpt lat="43.59338854231299" lon="6.848437162902914"><ele>269.0</ele><time>2026-04-12T10:35:23Z</time></trkpt><trkpt lat="43.593409084245096" lon="6.848536250473272"><ele>269.0</ele><time>2026-04-12T10:35:24Z</time></trkpt><trkpt lat="43.593415415704804" lon="6.848630570758296"><ele>266.1666666666667</ele><time>2026-04-12T10:35:25Z</time></trkpt><trkpt lat="43.593367691331444" lon="6.848715566466931"><ele>263.33333333333337</ele><time>2026-04-12T10:35:26Z</time></trkpt><trkpt lat="43.59329113908121" lon="6.8487590224987365"><ele>260.5</ele><time>2026-04-12T10:35:27Z</time></trkpt><trkpt lat="43.59320530659027" lon="6.848760295713596"><ele>257.6666666666667</ele><time>2026-04-12T10:35:28Z</time></trkpt><trkpt lat="43.59312099991371" lon="6.848760641924893"><ele>254.83333333333334</ele><time>2026-04-12T10:35:29Z</time></trkpt><trkpt lat="43.593033576066816" lon="6.848773564809731"><ele>252.0</ele><time>2026-04-12T10:35:30Z</time></trkpt><trkpt lat="43.59294241069422" lon="6.84878524549276"><ele>252.0</ele><time>2026-04-12T10:35:31Z</time></trkpt><trkpt lat="43.59284531057561" lon="6.848794164572215"><ele>252.0</ele><time>2026-04-12T10:35:32Z</time></trkpt><trkpt lat="43.59274388847734" lon="6.8488085361197575"><ele>252.0</ele><time>2026-04-12T10:35:33Z</time></trkpt><trkpt lat="43.59264023008739" lon="6.84882388357199"><ele>252.0</ele><time>2026-04-12T10:35:34Z</time></trkpt><trkpt lat="43.592533426089034" lon="6.848841907473056"><ele>252.0</ele><time>2026-04-12T10:35:35Z</time></trkpt><trkpt lat="43.592425083407704" lon="6.84887726427218"><ele>252.5</ele><time>2026-04-12T10:35:36Z</time></trkpt><trkpt lat="43.59231647780492" lon="6.848924880860879"><ele>253.0</ele><time>2026-04-12T10:35:37Z</time></trkpt><trkpt lat="43.59220725907526" lon="6.848979008197188"><ele>253.5</ele><time>2026-04-12T10:35:38Z</time></trkpt><trkpt lat="43.592097600362564" lon="6.84903968631422"><ele>254.0</ele><time>2026-04-12T10:35:39Z</time></trkpt><trkpt lat="43.59199000065231" lon="6.849115176706999"><ele>257.75</ele><time>2026-04-12T10:35:40Z</time></trkpt><trkpt lat="43.59188877327411" lon="6.849210336928234"><ele>261.5</ele><time>2026-04-12T10:35:41Z</time></trkpt><trkpt lat="43.591787422267515" lon="6.8493010470325695"><ele>265.25</ele><time>2026-04-12T10:35:42Z</time></trkpt><trkpt lat="43.591712791626506" lon="6.849421613833999"><ele>269.0</ele><time>2026-04-12T10:35:43Z</time></trkpt><trkpt lat="43.59162067933622" lon="6.849493828927027"><ele>261.59999999999997</ele><time>2026-04-12T10:35:44Z</time></trkpt><trkpt lat="43.59153725082568" lon="6.849541024218829"><ele>254.2</ele><time>2026-04-12T10:35:45Z</time></trkpt><trkpt lat="43.59144365712391" lon="6.8495732480780305"><ele>246.79999999999998</ele><time>2026-04-12T10:35:46Z</time></trkpt><trkpt lat="43.59133944052479" lon="6.849563979501791"><ele>239.39999999999998</ele><time>2026-04-12T10:35:47Z</time></trkpt><trkpt lat="43.59123633420237" lon="6.849545100614612"><ele>232.0</ele><time>2026-04-12T10:35:48Z</time></trkpt><trkpt lat="43.591130873932215" lon="6.849532894903814"><ele>229.25</ele><time>2026-04-12T10:35:49Z</time></trkpt><trkpt lat="43.591022711959155" lon="6.849518472479517"><ele>226.5</ele><time>2026-04-12T10:35:50Z</time></trkpt><trkpt lat="43.59091059862384" lon="6.84950572520284"><ele>223.75</ele><time>2026-04-12T10:35:51Z</time></trkpt><trkpt lat="43.59079651826303" lon="6.849481308842465"><ele>221.0</ele><time>2026-04-12T10:35:52Z</time></trkpt><trkpt lat="43.59068329034369" lon="6.8494289444231224"><ele>221.0</ele><time>2026-04-12T10:35:53Z</time></trkpt><trkpt lat="43.590575997197554" lon="6.8493503425970665"><ele>221.0</ele><time>2026-04-12T10:35:54Z</time></trkpt><trkpt lat="43.5904719564771" lon="6.8492713946517165"><ele>221.0</ele><time>2026-04-12T10:35:55Z</time></trkpt><trkpt lat="43.59035938613701" lon="6.849234231596764"><ele>221.0</ele><time>2026-04-12T10:35:56Z</time></trkpt><trkpt lat="43.59024327821704" lon="6.849226101356291"><ele>220.0</ele><time>2026-04-12T10:35:57Z</time></trkpt><trkpt lat="43.59013920427963" lon="6.849187068067549"><ele>219.0</ele><time>2026-04-12T10:35:58Z</time></trkpt><trkpt lat="43.59003121607093" lon="6.84917597027152"><ele>218.0</ele><time>2026-04-12T10:35:59Z</time></trkpt><trkpt lat="43.58991714085688" lon="6.8492420921411705"><ele>217.0</ele><time>2026-04-12T10:36:00Z</time></trkpt><trkpt lat="43.589808144858466" lon="6.849299335498095"><ele>217.0</ele><time>2026-04-12T10:36:01Z</time></trkpt><trkpt lat="43.589709235031975" lon="6.849340399933484"><ele>217.0</ele><time>2026-04-12T10:36:02Z</time></trkpt><trkpt lat="43.589620440929615" lon="6.849366208637758"><ele>217.0</ele><time>2026-04-12T10:36:03Z</time></trkpt><trkpt lat="43.589539962832035" lon="6.849387961183473"><ele>217.0</ele><time>2026-04-12T10:36:04Z</time></trkpt><trkpt lat="43.589478140281436" lon="6.849483482388459"><ele>217.0</ele><time>2026-04-12T10:36:05Z</time></trkpt><trkpt lat="43.589451816363045" lon="6.849610095011271"><ele>217.0</ele><time>2026-04-12T10:36:06Z</time></trkpt><trkpt lat="43.58947168107255" lon="6.8497504143714965"><ele>217.0</ele><time>2026-04-12T10:36:07Z</time></trkpt><trkpt lat="43.589529089392244" lon="6.849865937080469"><ele>217.0</ele><time>2026-04-12T10:36:08Z</time></trkpt><trkpt lat="43.589572669521274" lon="6.849974414479294"><ele>217.0</ele><time>2026-04-12T10:36:09Z</time></trkpt><trkpt lat="43.58958895713388" lon="6.850090384937523"><ele>217.0</ele><time>2026-04-12T10:36:10Z</time></trkpt><trkpt lat="43.58960025242859" lon="6.850210714171213"><ele>220.8</ele><time>2026-04-12T10:36:11Z</time></trkpt><trkpt lat="43.58954984117948" lon="6.850322583478177"><ele>224.6</ele><time>2026-04-12T10:36:12Z</time></trkpt><trkpt lat="43.589509193578095" lon="6.85043937411784"><ele>228.40000000000003</ele><time>2026-04-12T10:36:13Z</time></trkpt><trkpt lat="43.589467947200525" lon="6.850561949511258"><ele>232.20000000000002</ele><time>2026-04-12T10:36:14Z</time></trkpt><trkpt lat="43.589424241153274" lon="6.85069037387375"><ele>236.0</ele><time>2026-04-12T10:36:15Z</time></trkpt><trkpt lat="43.58937795073093" lon="6.850821384420911"><ele>236.0</ele><time>2026-04-12T10:36:16Z</time></trkpt><trkpt lat="43.58933271310188" lon="6.850941778342669"><ele>236.00000000000003</ele><time>2026-04-12T10:36:17Z</time></trkpt><trkpt lat="43.58928381970808" lon="6.851065037164737"><ele>236.00000000000003</ele><time>2026-04-12T10:36:18Z</time></trkpt><trkpt lat="43.58922584679741" lon="6.851186236570303"><ele>236.0</ele><time>2026-04-12T10:36:19Z</time></trkpt><trkpt lat="43.589136099293704" lon="6.851278171024874"><ele>236.0</ele><time>2026-04-12T10:36:20Z</time></trkpt><trkpt lat="43.58903093414905" lon="6.851318813451651"><ele>230.60000000000002</ele><time>2026-04-12T10:36:21Z</time></trkpt><trkpt lat="43.58895104930276" lon="6.8514103013179595"><ele>225.20000000000002</ele><time>2026-04-12T10:36:22Z</time></trkpt><trkpt lat="43.58890226162746" lon="6.851559575416216"><ele>219.8</ele><time>2026-04-12T10:36:23Z</time></trkpt><trkpt lat="43.58885928024254" lon="6.851692143883644"><ele>214.39999999999998</ele><time>2026-04-12T10:36:24Z</time></trkpt><trkpt lat="43.588808925551916" lon="6.851827895567891"><ele>209.0</ele><time>2026-04-12T10:36:25Z</time></trkpt><trkpt lat="43.58875708849698" lon="6.851959896341529"><ele>210.6</ele><time>2026-04-12T10:36:26Z</time></trkpt><trkpt lat="43.58870284747516" lon="6.852091656411713"><ele>212.2</ele><time>2026-04-12T10:36:27Z</time></trkpt><trkpt lat="43.588638991359645" lon="6.852219772297896"><ele>213.79999999999998</ele><time>2026-04-12T10:36:28Z</time></trkpt><trkpt lat="43.58856349027147" lon="6.852333607350356"><ele>215.39999999999998</ele><time>2026-04-12T10:36:29Z</time></trkpt><trkpt lat="43.588499427905376" lon="6.852446050072253"><ele>217.0</ele><time>2026-04-12T10:36:30Z</time></trkpt><trkpt lat="43.58843894467941" lon="6.852528692884075"><ele>217.0</ele><time>2026-04-12T10:36:31Z</time></trkpt><trkpt lat="43.588378305970366" lon="6.85260379876774"><ele>217.0</ele><time>2026-04-12T10:36:32Z</time></trkpt><trkpt lat="43.58830151168589" lon="6.852649441573335"><ele>217.0</ele><time>2026-04-12T10:36:33Z</time></trkpt><trkpt lat="43.58822127868549" lon="6.852673668499428"><ele>217.0</ele><time>2026-04-12T10:36:34Z</time></trkpt><trkpt lat="43.588130532389705" lon="6.8527357040670385"><ele>217.0</ele><time>2026-04-12T10:36:36Z</time></trkpt><trkpt lat="43.587943318198015" lon="6.852544943861335"><ele>217.0</ele><time>2026-04-12T10:36:37Z</time></trkpt><trkpt lat="43.58784880016681" lon="6.85258737207469"><ele>217.0</ele><time>2026-04-12T10:36:38Z</time></trkpt><trkpt lat="43.58776813620119" lon="6.852676425445157"><ele>217.0</ele><time>2026-04-12T10:36:39Z</time></trkpt><trkpt lat="43.5876954422592" lon="6.8527769074194085"><ele>217.0</ele><time>2026-04-12T10:36:40Z</time></trkpt><trkpt lat="43.58762336316166" lon="6.852874817521561"><ele>217.0</ele><time>2026-04-12T10:36:41Z</time></trkpt><trkpt lat="43.58755928353006" lon="6.852952862890842"><ele>212.0</ele><time>2026-04-12T10:36:42Z</time></trkpt><trkpt lat="43.58748660704269" lon="6.853006627989571"><ele>207.0</ele><time>2026-04-12T10:36:43Z</time></trkpt><trkpt lat="43.58740202473894" lon="6.853033865261216"><ele>202.0</ele><time>2026-04-12T10:36:44Z</time></trkpt><trkpt lat="43.58730545221803" lon="6.853031005630482"><ele>197.0</ele><time>2026-04-12T10:36:45Z</time></trkpt><trkpt lat="43.587209423076935" lon="6.852989057427668"><ele>192.0</ele><time>2026-04-12T10:36:46Z</time></trkpt><trkpt lat="43.587113928827236" lon="6.852952664474344"><ele>192.0</ele><time>2026-04-12T10:36:47Z</time></trkpt><trkpt lat="43.58701930935032" lon="6.852978317478784"><ele>192.0</ele><time>2026-04-12T10:36:48Z</time></trkpt><trkpt lat="43.58693564811109" lon="6.853054835181095"><ele>192.0</ele><time>2026-04-12T10:36:49Z</time></trkpt><trkpt lat="43.58686253532576" lon="6.85315012003537"><ele>192.0</ele><time>2026-04-12T10:36:50Z</time></trkpt><trkpt lat="43.58681412207719" lon="6.853255397280595"><ele>192.0</ele><time>2026-04-12T10:36:51Z</time></trkpt><trkpt lat="43.58679938030975" lon="6.853399311146293"><ele>193.0</ele><time>2026-04-12T10:36:52Z</time></trkpt><trkpt lat="43.58678782038901" lon="6.853542076932809"><ele>194.0</ele><time>2026-04-12T10:36:53Z</time></trkpt><trkpt lat="43.58676266684058" lon="6.8536847930955656"><ele>195.0</ele><time>2026-04-12T10:36:54Z</time></trkpt><trkpt lat="43.586725668397705" lon="6.8538266344968575"><ele>196.0</ele><time>2026-04-12T10:36:55Z</time></trkpt><trkpt lat="43.58667286038274" lon="6.853964631045181"><ele>197.0</ele><time>2026-04-12T10:36:56Z</time></trkpt><trkpt lat="43.5865962562019" lon="6.854088374569307"><ele>197.0</ele><time>2026-04-12T10:36:57Z</time></trkpt><trkpt lat="43.586531030306354" lon="6.854222093784636"><ele>197.0</ele><time>2026-04-12T10:36:58Z</time></trkpt><trkpt lat="43.58649224140976" lon="6.85437615743868"><ele>197.0</ele><time>2026-04-12T10:36:59Z</time></trkpt><trkpt lat="43.586470313328824" lon="6.854540817444063"><ele>197.0</ele><time>2026-04-12T10:37:00Z</time></trkpt><trkpt lat="43.58645897728422" lon="6.854710121070371"><ele>192.75</ele><time>2026-04-12T10:37:01Z</time></trkpt><trkpt lat="43.586436731568575" lon="6.85487888086305"><ele>188.5</ele><time>2026-04-12T10:37:02Z</time></trkpt><trkpt lat="43.58640480762079" lon="6.855035447747807"><ele>184.25</ele><time>2026-04-12T10:37:03Z</time></trkpt><trkpt lat="43.58636712364326" lon="6.855179017759614"><ele>180.0</ele><time>2026-04-12T10:37:04Z</time></trkpt><trkpt lat="43.5863495866948" lon="6.855318024909666"><ele>179.6</ele><time>2026-04-12T10:37:05Z</time></trkpt><trkpt lat="43.58635691765453" lon="6.8554614673521295"><ele>179.2</ele><time>2026-04-12T10:37:06Z</time></trkpt><trkpt lat="43.58638554975823" lon="6.855611335667576"><ele>178.8</ele><time>2026-04-12T10:37:07Z</time></trkpt><trkpt lat="43.58642452527893" lon="6.855762024981087"><ele>178.4</ele><time>2026-04-12T10:37:08Z</time></trkpt><trkpt lat="43.58647282453518" lon="6.855908189712789"><ele>178.0</ele><time>2026-04-12T10:37:09Z</time></trkpt><trkpt lat="43.58654154513804" lon="6.8560452605250735"><ele>179.0</ele><time>2026-04-12T10:37:10Z</time></trkpt><trkpt lat="43.58663449161566" lon="6.856158758182993"><ele>180.0</ele><time>2026-04-12T10:37:11Z</time></trkpt><trkpt lat="43.586732478586946" lon="6.856256474230548"><ele>181.0</ele><time>2026-04-12T10:37:12Z</time></trkpt><trkpt lat="43.58681443391993" lon="6.856349846432073"><ele>182.0</ele><time>2026-04-12T10:37:13Z</time></trkpt><trkpt lat="43.5868943793482" lon="6.856429886160673"><ele>182.0</ele><time>2026-04-12T10:37:14Z</time></trkpt><trkpt lat="43.58696771315006" lon="6.856495598368954"><ele>182.0</ele><time>2026-04-12T10:37:15Z</time></trkpt><trkpt lat="43.58703226890134" lon="6.856560342201527"><ele>182.0</ele><time>2026-04-12T10:37:16Z</time></trkpt><trkpt lat="43.58708007096907" lon="6.856637154776119"><ele>182.0</ele><time>2026-04-12T10:37:17Z</time></trkpt><trkpt lat="43.58710404192075" lon="6.856729929799565"><ele>182.0</ele><time>2026-04-12T10:37:18Z</time></trkpt><trkpt lat="43.587083490306874" lon="6.85683191394474"><ele>182.0</ele><time>2026-04-12T10:37:19Z</time></trkpt><trkpt lat="43.58701114783857" lon="6.856900541235014"><ele>178.0</ele><time>2026-04-12T10:37:20Z</time></trkpt><trkpt lat="43.58692551419931" lon="6.856917641646952"><ele>174.0</ele><time>2026-04-12T10:37:21Z</time></trkpt><trkpt lat="43.58684820410003" lon="6.856959150813366"><ele>170.0</ele><time>2026-04-12T10:37:22Z</time></trkpt><trkpt lat="43.58677078541983" lon="6.857025621806273"><ele>166.0</ele><time>2026-04-12T10:37:23Z</time></trkpt><trkpt lat="43.58669361635568" lon="6.857098498174772"><ele>162.0</ele><time>2026-04-12T10:37:24Z</time></trkpt><trkpt lat="43.58661217458293" lon="6.857177711428662"><ele>162.0</ele><time>2026-04-12T10:37:25Z</time></trkpt><trkpt lat="43.5865362936475" lon="6.8572718655446545"><ele>162.0</ele><time>2026-04-12T10:37:26Z</time></trkpt><trkpt lat="43.58646344327592" lon="6.857377004446951"><ele>162.0</ele><time>2026-04-12T10:37:27Z</time></trkpt><trkpt lat="43.58639103025323" lon="6.857487689324243"><ele>162.0</ele><time>2026-04-12T10:37:28Z</time></trkpt><trkpt lat="43.58632839563097" lon="6.857602683130073"><ele>162.0</ele><time>2026-04-12T10:37:29Z</time></trkpt><trkpt lat="43.586278933890036" lon="6.857721062102108"><ele>162.0</ele><time>2026-04-12T10:37:30Z</time></trkpt><trkpt lat="43.58623281301169" lon="6.857836026549065"><ele>162.0</ele><time>2026-04-12T10:37:31Z</time></trkpt><trkpt lat="43.586169852988725" lon="6.857931436471675"><ele>162.0</ele><time>2026-04-12T10:37:32Z</time></trkpt><trkpt lat="43.58608377592801" lon="6.857997099115868"><ele>162.0</ele><time>2026-04-12T10:37:33Z</time></trkpt><trkpt lat="43.5859802298708" lon="6.85802196805344"><ele>162.0</ele><time>2026-04-12T10:37:34Z</time></trkpt><trkpt lat="43.585882207645405" lon="6.85806040098328"><ele>162.0</ele><time>2026-04-12T10:37:35Z</time></trkpt><trkpt lat="43.58580757261338" lon="6.8581608947666455"><ele>162.0</ele><time>2026-04-12T10:37:36Z</time></trkpt><trkpt lat="43.58573838081069" lon="6.858273648406246"><ele>162.0</ele><time>2026-04-12T10:37:37Z</time></trkpt><trkpt lat="43.58567773027352" lon="6.858397084443372"><ele>162.0</ele><time>2026-04-12T10:37:38Z</time></trkpt><trkpt lat="43.58562277948764" lon="6.8585313397686285"><ele>162.0</ele><time>2026-04-12T10:37:39Z</time></trkpt><trkpt lat="43.58556885447618" lon="6.85866631658571"><ele>161.83333333333334</ele><time>2026-04-12T10:37:40Z</time></trkpt><trkpt lat="43.58551657542513" lon="6.858793820094834"><ele>161.66666666666666</ele><time>2026-04-12T10:37:41Z</time></trkpt><trkpt lat="43.58546975999956" lon="6.85891127688079"><ele>161.5</ele><time>2026-04-12T10:37:42Z</time></trkpt><trkpt lat="43.585432927690206" lon="6.859018518695244"><ele>161.33333333333331</ele><time>2026-04-12T10:37:43Z</time></trkpt><trkpt lat="43.58540550799652" lon="6.859111895336541"><ele>161.16666666666666</ele><time>2026-04-12T10:37:44Z</time></trkpt><trkpt lat="43.58539107949886" lon="6.859203579433263"><ele>161.0</ele><time>2026-04-12T10:37:45Z</time></trkpt><trkpt lat="43.58541374126389" lon="6.859297882483804"><ele>161.0</ele><time>2026-04-12T10:37:46Z</time></trkpt><trkpt lat="43.585458963980436" lon="6.859371591166279"><ele>161.0</ele><time>2026-04-12T10:37:47Z</time></trkpt><trkpt lat="43.585515592535046" lon="6.859433689752089"><ele>161.0</ele><time>2026-04-12T10:37:48Z</time></trkpt><trkpt lat="43.58557691277147" lon="6.859493005853224"><ele>161.0</ele><time>2026-04-12T10:37:49Z</time></trkpt><trkpt lat="43.58564121711351" lon="6.859563996961103"><ele>161.0</ele><time>2026-04-12T10:37:50Z</time></trkpt><trkpt lat="43.5857078340465" lon="6.859639888838508"><ele>161.0</ele><time>2026-04-12T10:37:51Z</time></trkpt><trkpt lat="43.58577905817968" lon="6.85971199140938"><ele>161.0</ele><time>2026-04-12T10:37:52Z</time></trkpt><trkpt lat="43.58584887908475" lon="6.859772758754339"><ele>161.0</ele><time>2026-04-12T10:37:53Z</time></trkpt><trkpt lat="43.585928116599554" lon="6.859803771023024"><ele>161.0</ele><time>2026-04-12T10:37:54Z</time></trkpt><trkpt lat="43.586010657713466" lon="6.85977469227907"><ele>161.0</ele><time>2026-04-12T10:37:55Z</time></trkpt><trkpt lat="43.58607383865749" lon="6.859708193964146"><ele>161.0</ele><time>2026-04-12T10:37:56Z</time></trkpt><trkpt lat="43.58611386884672" lon="6.859623757223491"><ele>161.0</ele><time>2026-04-12T10:37:57Z</time></trkpt><trkpt lat="43.58613960997736" lon="6.8595427583671365"><ele>163.0</ele><time>2026-04-12T10:37:58Z</time></trkpt><trkpt lat="43.58620583939265" lon="6.859432320549183"><ele>165.0</ele><time>2026-04-12T10:38:00Z</time></trkpt><trkpt lat="43.58626245231911" lon="6.859340270862958"><ele>167.0</ele><time>2026-04-12T10:38:02Z</time></trkpt><trkpt lat="43.58631003559722" lon="6.859250662906736"><ele>169.0</ele><time>2026-04-12T10:38:04Z</time></trkpt><trkpt lat="43.586361049933984" lon="6.859170046186668"><ele>171.0</ele><time>2026-04-12T10:38:06Z</time></trkpt><trkpt lat="43.58640944165708" lon="6.859088903246853"><ele>173.0</ele><time>2026-04-12T10:38:08Z</time></trkpt><trkpt lat="43.586463821546445" lon="6.859018882615999"><ele>173.0</ele><time>2026-04-12T10:38:10Z</time></trkpt><trkpt lat="43.586515538066934" lon="6.85895147605198"><ele>173.0</ele><time>2026-04-12T10:38:12Z</time></trkpt><trkpt lat="43.58656596223135" lon="6.858891012577124"><ele>173.0</ele><time>2026-04-12T10:38:14Z</time></trkpt><trkpt lat="43.58664029458982" lon="6.858813966354956"><ele>173.0</ele><time>2026-04-12T10:38:17Z</time></trkpt><trkpt lat="43.58670288769425" lon="6.858722932111245"><ele>173.0</ele><time>2026-04-12T10:38:21Z</time></trkpt><trkpt lat="43.586774116758676" lon="6.858593512170042"><ele>173.0</ele><time>2026-04-12T10:38:24Z</time></trkpt><trkpt lat="43.586804246336044" lon="6.8585135725780075"><ele>173.5</ele><time>2026-04-12T10:38:26Z</time></trkpt><trkpt lat="43.586855197095566" lon="6.858414604221807"><ele>174.0</ele><time>2026-04-12T10:38:29Z</time></trkpt><trkpt lat="43.58689882545974" lon="6.858341421483303"><ele>174.5</ele><time>2026-04-12T10:38:32Z</time></trkpt><trkpt lat="43.58697310050705" lon="6.858260374786465"><ele>175.0</ele><time>2026-04-12T10:38:35Z</time></trkpt><trkpt lat="43.5870407170571" lon="6.858229882509458"><ele>175.5</ele><time>2026-04-12T10:38:37Z</time></trkpt><trkpt lat="43.58711692609026" lon="6.858218789681458"><ele>176.0</ele><time>2026-04-12T10:38:40Z</time></trkpt><trkpt lat="43.58719581931441" lon="6.858221013773558"><ele>176.0</ele><time>2026-04-12T10:38:43Z</time></trkpt><trkpt lat="43.587271605972006" lon="6.8582184719243395"><ele>176.0</ele><time>2026-04-12T10:38:46Z</time></trkpt><trkpt lat="43.587346864322434" lon="6.85821735007147"><ele>176.0</ele><time>2026-04-12T10:38:49Z</time></trkpt><trkpt lat="43.58742148768916" lon="6.85821468537094"><ele>176.0</ele><time>2026-04-12T10:38:52Z</time></trkpt><trkpt lat="43.587493893634125" lon="6.858198928821009"><ele>176.0</ele><time>2026-04-12T10:38:55Z</time></trkpt><trkpt lat="43.58756841581896" lon="6.858161925475139"><ele>176.0</ele><time>2026-04-12T10:38:58Z</time></trkpt><trkpt lat="43.58764125028923" lon="6.8581283711177665"><ele>176.0</ele><time>2026-04-12T10:39:01Z</time></trkpt><trkpt lat="43.58771219322182" lon="6.8580861500965735"><ele>176.0</ele><time>2026-04-12T10:39:04Z</time></trkpt><trkpt lat="43.58778138361623" lon="6.858045388964183"><ele>176.0</ele><time>2026-04-12T10:39:07Z</time></trkpt><trkpt lat="43.587852000432264" lon="6.85800961900869"><ele>176.0</ele><time>2026-04-12T10:39:10Z</time></trkpt><trkpt lat="43.58791563703651" lon="6.857962023361551"><ele>176.0</ele><time>2026-04-12T10:39:13Z</time></trkpt><trkpt lat="43.587957658127166" lon="6.8578801553430635"><ele>176.0</ele><time>2026-04-12T10:39:16Z</time></trkpt><trkpt lat="43.58797646333441" lon="6.857776042800138"><ele>177.14285714285714</ele><time>2026-04-12T10:39:19Z</time></trkpt><trkpt lat="43.587984205898756" lon="6.85767290542335"><ele>178.28571428571428</ele><time>2026-04-12T10:39:22Z</time></trkpt><trkpt lat="43.58799936869895" lon="6.857574978722417"><ele>179.42857142857144</ele><time>2026-04-12T10:39:25Z</time></trkpt><trkpt lat="43.58801535466098" lon="6.85747615469534"><ele>180.57142857142856</ele><time>2026-04-12T10:39:28Z</time></trkpt><trkpt lat="43.588048730352675" lon="6.857385440551823"><ele>181.7142857142857</ele><time>2026-04-12T10:39:31Z</time></trkpt><trkpt lat="43.58810155173059" lon="6.857321838504141"><ele>182.85714285714286</ele><time>2026-04-12T10:39:34Z</time></trkpt><trkpt lat="43.58816110098658" lon="6.857272995165877"><ele>184.0</ele><time>2026-04-12T10:39:37Z</time></trkpt><trkpt lat="43.58822332853988" lon="6.857233525934094"><ele>184.0</ele><time>2026-04-12T10:39:40Z</time></trkpt><trkpt lat="43.58829033487699" lon="6.857220600454547"><ele>184.0</ele><time>2026-04-12T10:39:43Z</time></trkpt><trkpt lat="43.588354909339564" lon="6.857198730950412"><ele>184.0</ele><time>2026-04-12T10:39:47Z</time></trkpt><trkpt lat="43.58842375765426" lon="6.857137491281709"><ele>184.0</ele><time>2026-04-12T10:39:50Z</time></trkpt><trkpt lat="43.588457585957975" lon="6.857055431650832"><ele>184.0</ele><time>2026-04-12T10:39:53Z</time></trkpt><trkpt lat="43.58846390613446" lon="6.856961191310568"><ele>184.0</ele><time>2026-04-12T10:39:56Z</time></trkpt><trkpt lat="43.58845184040393" lon="6.856867611868542"><ele>184.0</ele><time>2026-04-12T10:39:59Z</time></trkpt><trkpt lat="43.58843101221253" lon="6.856776265522041"><ele>181.71428571428572</ele><time>2026-04-12T10:40:02Z</time></trkpt><trkpt lat="43.58841120763785" lon="6.856686616596111"><ele>179.42857142857142</ele><time>2026-04-12T10:40:05Z</time></trkpt><trkpt lat="43.5884099756138" lon="6.856582713016694"><ele>177.14285714285714</ele><time>2026-04-12T10:40:09Z</time></trkpt><trkpt lat="43.588436114801326" lon="6.8564784997422885"><ele>174.85714285714286</ele><time>2026-04-12T10:40:12Z</time></trkpt><trkpt lat="43.58847766261894" lon="6.856376367545141"><ele>172.57142857142856</ele><time>2026-04-12T10:40:16Z</time></trkpt><trkpt lat="43.58851923889132" lon="6.856305702642056"><ele>170.28571428571428</ele><time>2026-04-12T10:40:19Z</time></trkpt><trkpt lat="43.588553562939396" lon="6.8562316276270066"><ele>168.0</ele><time>2026-04-12T10:40:22Z</time></trkpt><trkpt lat="43.58860009143876" lon="6.8561708158902865"><ele>168.0</ele><time>2026-04-12T10:40:25Z</time></trkpt><trkpt lat="43.5886647419804" lon="6.8561505620158565"><ele>168.0</ele><time>2026-04-12T10:40:28Z</time></trkpt><trkpt lat="43.588730309985166" lon="6.856145670098152"><ele>168.0</ele><time>2026-04-12T10:40:31Z</time></trkpt><trkpt lat="43.58879645642743" lon="6.856133306968186"><ele>168.0</ele><time>2026-04-12T10:40:34Z</time></trkpt><trkpt lat="43.58886381886558" lon="6.856134665216633"><ele>168.0</ele><time>2026-04-12T10:40:37Z</time></trkpt><trkpt lat="43.588932544507685" lon="6.856130679925791"><ele>168.0</ele><time>2026-04-12T10:40:40Z</time></trkpt><trkpt lat="43.58900196658407" lon="6.856122592750156"><ele>168.0</ele><time>2026-04-12T10:40:43Z</time></trkpt><trkpt lat="43.589070226023985" lon="6.856125863755154"><ele>172.85714285714286</ele><time>2026-04-12T10:40:46Z</time></trkpt><trkpt lat="43.58914011902565" lon="6.856136271819692"><ele>177.71428571428572</ele><time>2026-04-12T10:40:49Z</time></trkpt><trkpt lat="43.589206894572456" lon="6.856143349438625"><ele>182.57142857142856</ele><time>2026-04-12T10:40:52Z</time></trkpt><trkpt lat="43.58927796212196" lon="6.85614194383993"><ele>187.42857142857144</ele><time>2026-04-12T10:40:55Z</time></trkpt><trkpt lat="43.58934383357348" lon="6.85614160124396"><ele>192.28571428571428</ele><time>2026-04-12T10:40:57Z</time></trkpt><trkpt lat="43.58943086676517" lon="6.856129983327042"><ele>197.14285714285714</ele><time>2026-04-12T10:41:00Z</time></trkpt><trkpt lat="43.589511215430754" lon="6.856124124696682"><ele>202.0</ele><time>2026-04-12T10:41:03Z</time></trkpt><trkpt lat="43.58958950755623" lon="6.856119833783392"><ele>202.83333333333331</ele><time>2026-04-12T10:41:06Z</time></trkpt><trkpt lat="43.58966908203906" lon="6.85612656730406"><ele>203.66666666666666</ele><time>2026-04-12T10:41:09Z</time></trkpt><trkpt lat="43.589744139989456" lon="6.856141739849515"><ele>204.5</ele><time>2026-04-12T10:41:12Z</time></trkpt><trkpt lat="43.589819896976856" lon="6.856159906817291"><ele>205.33333333333331</ele><time>2026-04-12T10:41:15Z</time></trkpt><trkpt lat="43.58989440629621" lon="6.856178607139762"><ele>206.16666666666666</ele><time>2026-04-12T10:41:18Z</time></trkpt><trkpt lat="43.58996683287916" lon="6.856217574183112"><ele>207.0</ele><time>2026-04-12T10:41:21Z</time></trkpt><trkpt lat="43.59004596543217" lon="6.856274167252367"><ele>207.0</ele><time>2026-04-12T10:41:25Z</time></trkpt><trkpt lat="43.59012076456947" lon="6.856328831995958"><ele>207.0</ele><time>2026-04-12T10:41:28Z</time></trkpt><trkpt lat="43.59018925981514" lon="6.856365212948384"><ele>207.0</ele><time>2026-04-12T10:41:31Z</time></trkpt><trkpt lat="43.59026341772278" lon="6.856389402223376"><ele>207.0</ele><time>2026-04-12T10:41:34Z</time></trkpt><trkpt lat="43.59033913337068" lon="6.85637696855677"><ele>207.0</ele><time>2026-04-12T10:41:37Z</time></trkpt><trkpt lat="43.59040061179155" lon="6.856326861769846"><ele>207.0</ele><time>2026-04-12T10:41:40Z</time></trkpt><trkpt lat="43.59044479063467" lon="6.856244653895021"><ele>207.66666666666666</ele><time>2026-04-12T10:41:43Z</time></trkpt><trkpt lat="43.59048229230725" lon="6.856149499579583"><ele>208.33333333333331</ele><time>2026-04-12T10:41:47Z</time></trkpt><trkpt lat="43.59051928507226" lon="6.856037090453133"><ele>209.0</ele><time>2026-04-12T10:41:50Z</time></trkpt><trkpt lat="43.590547401260466" lon="6.855938652373942"><ele>209.66666666666666</ele><time>2026-04-12T10:41:54Z</time></trkpt><trkpt lat="43.590586776044105" lon="6.855812013817131"><ele>210.33333333333331</ele><time>2026-04-12T10:41:57Z</time></trkpt><trkpt lat="43.59061345032909" lon="6.855719940645021"><ele>211.0</ele><time>2026-04-12T10:42:00Z</time></trkpt><trkpt lat="43.590641588125116" lon="6.855621236343323"><ele>210.99999999999997</ele><time>2026-04-12T10:42:03Z</time></trkpt><trkpt lat="43.59067456335588" lon="6.855526211972252"><ele>211.0</ele><time>2026-04-12T10:42:06Z</time></trkpt><trkpt lat="43.5907048134496" lon="6.855430156172261"><ele>211.0</ele><time>2026-04-12T10:42:09Z</time></trkpt><trkpt lat="43.5907437459034" lon="6.8553404259398585"><ele>211.0</ele><time>2026-04-12T10:42:12Z</time></trkpt><trkpt lat="43.590793343822696" lon="6.855259920645357"><ele>210.99999999999997</ele><time>2026-04-12T10:42:15Z</time></trkpt><trkpt lat="43.59084575928408" lon="6.855185908777639"><ele>211.0</ele><time>2026-04-12T10:42:18Z</time></trkpt><trkpt lat="43.59090092558914" lon="6.855113645068184"><ele>211.57142857142858</ele><time>2026-04-12T10:42:21Z</time></trkpt><trkpt lat="43.590952022766935" lon="6.855036271743563"><ele>212.14285714285717</ele><time>2026-04-12T10:42:24Z</time></trkpt><trkpt lat="43.590993302804755" lon="6.854950252314058"><ele>212.71428571428572</ele><time>2026-04-12T10:42:27Z</time></trkpt><trkpt lat="43.591030302991875" lon="6.854862006406857"><ele>213.28571428571428</ele><time>2026-04-12T10:42:30Z</time></trkpt><trkpt lat="43.59107151028441" lon="6.854773904870296"><ele>213.85714285714286</ele><time>2026-04-12T10:42:33Z</time></trkpt><trkpt lat="43.5911211087343" lon="6.854696784975689"><ele>214.42857142857142</ele><time>2026-04-12T10:42:36Z</time></trkpt><trkpt lat="43.59117155157908" lon="6.854621490263698"><ele>215.0</ele><time>2026-04-12T10:42:39Z</time></trkpt><trkpt lat="43.59123377302264" lon="6.85455771155233"><ele>215.00000000000003</ele><time>2026-04-12T10:42:42Z</time></trkpt><trkpt lat="43.59130645855881" lon="6.854516961862041"><ele>215.0</ele><time>2026-04-12T10:42:45Z</time></trkpt><trkpt lat="43.59137591016305" lon="6.85447660299702"><ele>215.0</ele><time>2026-04-12T10:42:48Z</time></trkpt><trkpt lat="43.59145138434323" lon="6.85446901331516"><ele>215.0</ele><time>2026-04-12T10:42:51Z</time></trkpt><trkpt lat="43.59152667370406" lon="6.854462073500398"><ele>215.00000000000003</ele><time>2026-04-12T10:42:54Z</time></trkpt><trkpt lat="43.5916026871543" lon="6.854486601903059"><ele>215.0</ele><time>2026-04-12T10:42:57Z</time></trkpt><trkpt lat="43.591670898717624" lon="6.854531433739743"><ele>215.00000000000003</ele><time>2026-04-12T10:43:00Z</time></trkpt><trkpt lat="43.59172775511007" lon="6.8546021241898725"><ele>215.0</ele><time>2026-04-12T10:43:03Z</time></trkpt><trkpt lat="43.59177217637857" lon="6.854684974023231"><ele>215.0</ele><time>2026-04-12T10:43:06Z</time></trkpt><trkpt lat="43.59180229731067" lon="6.854784987243638"><ele>215.0</ele><time>2026-04-12T10:43:09Z</time></trkpt><trkpt lat="43.59183887095265" lon="6.8548762973928055"><ele>215.00000000000003</ele><time>2026-04-12T10:43:12Z</time></trkpt><trkpt lat="43.59187918855118" lon="6.854978251630122"><ele>215.0</ele><time>2026-04-12T10:43:16Z</time></trkpt><trkpt lat="43.591937674242494" lon="6.855081924477151"><ele>216.57142857142856</ele><time>2026-04-12T10:43:19Z</time></trkpt><trkpt lat="43.591992952441345" lon="6.855147532421971"><ele>218.14285714285717</ele><time>2026-04-12T10:43:22Z</time></trkpt><trkpt lat="43.59204616532642" lon="6.8552204132776575"><ele>219.71428571428572</ele><time>2026-04-12T10:43:25Z</time></trkpt><trkpt lat="43.592107965164196" lon="6.855283151004408"><ele>221.28571428571428</ele><time>2026-04-12T10:43:28Z</time></trkpt><trkpt lat="43.59217339764774" lon="6.855347491916496"><ele>222.85714285714283</ele><time>2026-04-12T10:43:32Z</time></trkpt><trkpt lat="43.592230765005866" lon="6.855402424905526"><ele>224.42857142857144</ele><time>2026-04-12T10:43:34Z</time></trkpt><trkpt lat="43.59229305823792" lon="6.855446031579557"><ele>226.0</ele><time>2026-04-12T10:43:37Z</time></trkpt><trkpt lat="43.59235946887604" lon="6.855487940883789"><ele>226.0</ele><time>2026-04-12T10:43:40Z</time></trkpt><trkpt lat="43.59242523797538" lon="6.855530850553472"><ele>226.0</ele><time>2026-04-12T10:43:43Z</time></trkpt><trkpt lat="43.592490641981634" lon="6.8555827354865375"><ele>226.0</ele><time>2026-04-12T10:43:46Z</time></trkpt><trkpt lat="43.59254679548885" lon="6.855653208635689"><ele>226.0</ele><time>2026-04-12T10:43:49Z</time></trkpt><trkpt lat="43.59259254981864" lon="6.855730507243907"><ele>226.0</ele><time>2026-04-12T10:43:52Z</time></trkpt><trkpt lat="43.59262841032248" lon="6.855818161558233"><ele>226.0</ele><time>2026-04-12T10:43:55Z</time></trkpt><trkpt lat="43.59267712323283" lon="6.855892273011173"><ele>226.0</ele><time>2026-04-12T10:43:58Z</time></trkpt><trkpt lat="43.59273332969948" lon="6.85594566881181"><ele>228.49999999999997</ele><time>2026-04-12T10:44:01Z</time></trkpt><trkpt lat="43.59279297067626" lon="6.85597617846375"><ele>231.0</ele><time>2026-04-12T10:44:04Z</time></trkpt><trkpt lat="43.592872712526464" lon="6.856006954861842"><ele>233.5</ele><time>2026-04-12T10:44:08Z</time></trkpt><trkpt lat="43.592944650034006" lon="6.856018474014199"><ele>236.0</ele><time>2026-04-12T10:44:12Z</time></trkpt><trkpt lat="43.593015836818786" lon="6.856043842539624"><ele>238.49999999999997</ele><time>2026-04-12T10:44:15Z</time></trkpt><trkpt lat="43.59309206425605" lon="6.856088231925008"><ele>241.0</ele><time>2026-04-12T10:44:19Z</time></trkpt><trkpt lat="43.59315515108641" lon="6.8561608245393355"><ele>241.0</ele><time>2026-04-12T10:44:23Z</time></trkpt><trkpt lat="43.59319633561059" lon="6.8562303202883035"><ele>241.00000000000003</ele><time>2026-04-12T10:44:27Z</time></trkpt><trkpt lat="43.59324769651722" lon="6.856309423823777"><ele>241.0</ele><time>2026-04-12T10:44:31Z</time></trkpt><trkpt lat="43.5933095986665" lon="6.856378259893654"><ele>241.0</ele><time>2026-04-12T10:44:35Z</time></trkpt><trkpt lat="43.59337766045907" lon="6.856412334098144"><ele>241.00000000000003</ele><time>2026-04-12T10:44:38Z</time></trkpt><trkpt lat="43.593444063520515" lon="6.856418703729089"><ele>241.0</ele><time>2026-04-12T10:44:41Z</time></trkpt><trkpt lat="43.59352599927369" lon="6.856432512657808"><ele>241.0</ele><time>2026-04-12T10:44:45Z</time></trkpt><trkpt lat="43.59358834131241" lon="6.856448982390753"><ele>241.0</ele><time>2026-04-12T10:44:48Z</time></trkpt><trkpt lat="43.59364998663383" lon="6.856475304539106"><ele>241.00000000000003</ele><time>2026-04-12T10:44:51Z</time></trkpt><trkpt lat="43.593709645746394" lon="6.856508433579292"><ele>241.0</ele><time>2026-04-12T10:44:54Z</time></trkpt><trkpt lat="43.59376604856097" lon="6.8565510723720955"><ele>241.0</ele><time>2026-04-12T10:44:57Z</time></trkpt><trkpt lat="43.59381992399185" lon="6.856596698058959"><ele>241.00000000000003</ele><time>2026-04-12T10:45:00Z</time></trkpt><trkpt lat="43.593867200182785" lon="6.85665804171769"><ele>241.0</ele><time>2026-04-12T10:45:03Z</time></trkpt><trkpt lat="43.593904273970445" lon="6.856730470970912"><ele>241.0</ele><time>2026-04-12T10:45:06Z</time></trkpt><trkpt lat="43.593942919846995" lon="6.856806234900756"><ele>241.57142857142858</ele><time>2026-04-12T10:45:09Z</time></trkpt><trkpt lat="43.593977722632914" lon="6.856883865075856"><ele>242.14285714285717</ele><time>2026-04-12T10:45:12Z</time></trkpt><trkpt lat="43.59401165858518" lon="6.856958692984728"><ele>242.71428571428572</ele><time>2026-04-12T10:45:15Z</time></trkpt><trkpt lat="43.59404115023806" lon="6.8570621905243465"><ele>243.28571428571428</ele><time>2026-04-12T10:45:19Z</time></trkpt><trkpt lat="43.594063799516455" lon="6.857173084053001"><ele>243.85714285714286</ele><time>2026-04-12T10:45:23Z</time></trkpt><trkpt lat="43.59410221107038" lon="6.857261716808816"><ele>244.42857142857144</ele><time>2026-04-12T10:45:27Z</time></trkpt><trkpt lat="43.594149044521586" lon="6.857351766658356"><ele>245.0</ele><time>2026-04-12T10:45:30Z</time></trkpt><trkpt lat="43.594201370072696" lon="6.857442816337687"><ele>245.0</ele><time>2026-04-12T10:45:34Z</time></trkpt><trkpt lat="43.59422650154992" lon="6.85752606279194"><ele>245.0</ele><time>2026-04-12T10:45:37Z</time></trkpt><trkpt lat="43.594253917494804" lon="6.857607331923569"><ele>245.0</ele><time>2026-04-12T10:45:40Z</time></trkpt><trkpt lat="43.594282768473725" lon="6.85771637119448"><ele>245.0</ele><time>2026-04-12T10:45:44Z</time></trkpt><trkpt lat="43.59431212552269" lon="6.857799954615175"><ele>245.0</ele><time>2026-04-12T10:45:47Z</time></trkpt><trkpt lat="43.594362148559966" lon="6.857858087275705"><ele>245.0</ele><time>2026-04-12T10:45:50Z</time></trkpt><trkpt lat="43.594425208625076" lon="6.8578794469485"><ele>245.0</ele><time>2026-04-12T10:45:53Z</time></trkpt><trkpt lat="43.594508751001726" lon="6.857887765201762"><ele>248.28571428571428</ele><time>2026-04-12T10:45:57Z</time></trkpt><trkpt lat="43.594572954871374" lon="6.857882809095158"><ele>251.57142857142856</ele><time>2026-04-12T10:46:00Z</time></trkpt><trkpt lat="43.59465728528572" lon="6.85788052138344"><ele>254.85714285714286</ele><time>2026-04-12T10:46:04Z</time></trkpt><trkpt lat="43.5947211346098" lon="6.857890997264984"><ele>258.1428571428571</ele><time>2026-04-12T10:46:07Z</time></trkpt><trkpt lat="43.59478465092851" lon="6.857887307006472"><ele>261.42857142857144</ele><time>2026-04-12T10:46:10Z</time></trkpt><trkpt lat="43.59484887972991" lon="6.8578573147513415"><ele>264.7142857142857</ele><time>2026-04-12T10:46:14Z</time></trkpt><trkpt lat="43.59490784171306" lon="6.857816992810402"><ele>268.0</ele><time>2026-04-12T10:46:16Z</time></trkpt><trkpt lat="43.5949720312366" lon="6.857750968959705"><ele>268.0</ele><time>2026-04-12T10:46:20Z</time></trkpt><trkpt lat="43.59503785541264" lon="6.857681868739229"><ele>268.0</ele><time>2026-04-12T10:46:24Z</time></trkpt><trkpt lat="43.595108059101015" lon="6.857617868211853"><ele>268.0</ele><time>2026-04-12T10:46:28Z</time></trkpt><trkpt lat="43.59518218675298" lon="6.857575031549402"><ele>268.0</ele><time>2026-04-12T10:46:32Z</time></trkpt><trkpt lat="43.595256154211384" lon="6.857525250245246"><ele>268.0</ele><time>2026-04-12T10:46:36Z</time></trkpt><trkpt lat="43.595328866887264" lon="6.857472926408341"><ele>268.0</ele><time>2026-04-12T10:46:40Z</time></trkpt><trkpt lat="43.59539784423653" lon="6.857410168800508"><ele>266.3333333333333</ele><time>2026-04-12T10:46:44Z</time></trkpt><trkpt lat="43.59547178349239" lon="6.857364964915888"><ele>264.66666666666663</ele><time>2026-04-12T10:46:48Z</time></trkpt><trkpt lat="43.59555244866818" lon="6.857332732245366"><ele>263.0</ele><time>2026-04-12T10:46:52Z</time></trkpt><trkpt lat="43.59561790591354" lon="6.857336347913077"><ele>261.3333333333333</ele><time>2026-04-12T10:46:55Z</time></trkpt><trkpt lat="43.59569748816628" lon="6.857355485339295"><ele>259.6666666666667</ele><time>2026-04-12T10:46:59Z</time></trkpt><trkpt lat="43.59576973060221" lon="6.857385814730164"><ele>258.0</ele><time>2026-04-12T10:47:03Z</time></trkpt><trkpt lat="43.59585339636574" lon="6.857375995299805"><ele>257.99999999999994</ele><time>2026-04-12T10:47:07Z</time></trkpt><trkpt lat="43.59591703532657" lon="6.857338142407347"><ele>258.0</ele><time>2026-04-12T10:47:11Z</time></trkpt><trkpt lat="43.59598089236126" lon="6.857288443202017"><ele>258.0</ele><time>2026-04-12T10:47:14Z</time></trkpt><trkpt lat="43.596041217412626" lon="6.857249137663548"><ele>258.0</ele><time>2026-04-12T10:47:17Z</time></trkpt><trkpt lat="43.596101438165235" lon="6.857212665066325"><ele>258.0</ele><time>2026-04-12T10:47:20Z</time></trkpt><trkpt lat="43.59616161091124" lon="6.8571748257984115"><ele>257.99999999999994</ele><time>2026-04-12T10:47:23Z</time></trkpt><trkpt lat="43.59622476286767" lon="6.857152116831005"><ele>258.0</ele><time>2026-04-12T10:47:26Z</time></trkpt><trkpt lat="43.59628533142465" lon="6.857121343192614"><ele>260.85714285714283</ele><time>2026-04-12T10:47:29Z</time></trkpt><trkpt lat="43.59635024941229" lon="6.857088292905178"><ele>263.7142857142857</ele><time>2026-04-12T10:47:32Z</time></trkpt><trkpt lat="43.596409204513215" lon="6.8570510096873765"><ele>266.57142857142856</ele><time>2026-04-12T10:47:35Z</time></trkpt><trkpt lat="43.596467993847696" lon="6.85701099454876"><ele>269.42857142857144</ele><time>2026-04-12T10:47:38Z</time></trkpt><trkpt lat="43.59652476232897" lon="6.856969567688631"><ele>272.2857142857143</ele><time>2026-04-12T10:47:41Z</time></trkpt><trkpt lat="43.59658324777759" lon="6.856933739909998"><ele>275.1428571428571</ele><time>2026-04-12T10:47:44Z</time></trkpt><trkpt lat="43.59665804532021" lon="6.856884191637526"><ele>278.0</ele><time>2026-04-12T10:47:48Z</time></trkpt><trkpt lat="43.59671416570216" lon="6.856841419429636"><ele>278.0</ele><time>2026-04-12T10:47:51Z</time></trkpt><trkpt lat="43.59677661268295" lon="6.8568127774039285"><ele>278.0</ele><time>2026-04-12T10:47:54Z</time></trkpt><trkpt lat="43.59683456913592" lon="6.856776581638151"><ele>278.0</ele><time>2026-04-12T10:47:57Z</time></trkpt><trkpt lat="43.596902915625265" lon="6.856730195361613"><ele>278.0</ele><time>2026-04-12T10:48:01Z</time></trkpt><trkpt lat="43.5969621436917" lon="6.856691810969777"><ele>278.0</ele><time>2026-04-12T10:48:04Z</time></trkpt><trkpt lat="43.59703861489657" lon="6.856658804421912"><ele>278.0</ele><time>2026-04-12T10:48:08Z</time></trkpt><trkpt lat="43.597117121116426" lon="6.856647679443667"><ele>278.0</ele><time>2026-04-12T10:48:12Z</time></trkpt><trkpt lat="43.597186824578735" lon="6.856660944876173"><ele>275.85714285714283</ele><time>2026-04-12T10:48:16Z</time></trkpt><trkpt lat="43.59725882286713" lon="6.856674006268224"><ele>273.7142857142857</ele><time>2026-04-12T10:48:20Z</time></trkpt><trkpt lat="43.597334261386116" lon="6.856694269038808"><ele>271.57142857142856</ele><time>2026-04-12T10:48:23Z</time></trkpt><trkpt lat="43.597400016953294" lon="6.856711752816188"><ele>269.42857142857144</ele><time>2026-04-12T10:48:26Z</time></trkpt><trkpt lat="43.597462976332416" lon="6.856725609228462"><ele>267.2857142857143</ele><time>2026-04-12T10:48:29Z</time></trkpt><trkpt lat="43.59752523440975" lon="6.856747872061208"><ele>265.1428571428571</ele><time>2026-04-12T10:48:32Z</time></trkpt><trkpt lat="43.597588796697245" lon="6.856755925999804"><ele>263.0</ele><time>2026-04-12T10:48:35Z</time></trkpt><trkpt lat="43.597650473499094" lon="6.856775114289765"><ele>266.0</ele><time>2026-04-12T10:48:38Z</time></trkpt><trkpt lat="43.59773307647712" lon="6.856790602263772"><ele>269.0</ele><time>2026-04-12T10:48:42Z</time></trkpt><trkpt lat="43.59779673946808" lon="6.856803362724763"><ele>272.0</ele><time>2026-04-12T10:48:45Z</time></trkpt><trkpt lat="43.597860289961424" lon="6.856823712055811"><ele>275.0</ele><time>2026-04-12T10:48:48Z</time></trkpt><trkpt lat="43.59792541359129" lon="6.856837265546455"><ele>278.0</ele><time>2026-04-12T10:48:51Z</time></trkpt><trkpt lat="43.5980003981855" lon="6.856842209607473"><ele>281.0</ele><time>2026-04-12T10:48:54Z</time></trkpt><trkpt lat="43.59809346576654" lon="6.856852221977233"><ele>284.0</ele><time>2026-04-12T10:48:57Z</time></trkpt><trkpt lat="43.59817428830193" lon="6.8568374356065185"><ele>284.0</ele><time>2026-04-12T10:49:00Z</time></trkpt><trkpt lat="43.59824991184317" lon="6.856787305119901"><ele>284.0</ele><time>2026-04-12T10:49:03Z</time></trkpt><trkpt lat="43.59832363173323" lon="6.856724396750078"><ele>284.0</ele><time>2026-04-12T10:49:06Z</time></trkpt><trkpt lat="43.59838758250222" lon="6.856652421290975"><ele>284.0</ele><time>2026-04-12T10:49:09Z</time></trkpt><trkpt lat="43.59845163093574" lon="6.8565905352232654"><ele>284.0</ele><time>2026-04-12T10:49:12Z</time></trkpt><trkpt lat="43.59850969362644" lon="6.856521831590232"><ele>284.0</ele><time>2026-04-12T10:49:15Z</time></trkpt><trkpt lat="43.598570066756544" lon="6.856469194265428"><ele>284.0</ele><time>2026-04-12T10:49:18Z</time></trkpt><trkpt lat="43.598636791927134" lon="6.856460844361507"><ele>284.0</ele><time>2026-04-12T10:49:21Z</time></trkpt><trkpt lat="43.598694960795484" lon="6.856504544934979"><ele>284.0</ele><time>2026-04-12T10:49:24Z</time></trkpt><trkpt lat="43.59869715893002" lon="6.856599808123274"><ele>284.0</ele><time>2026-04-12T10:49:27Z</time></trkpt><trkpt lat="43.59864810986817" lon="6.856666135378974"><ele>284.0</ele><time>2026-04-12T10:49:30Z</time></trkpt><trkpt lat="43.59858734830538" lon="6.856701820419446"><ele>284.0</ele><time>2026-04-12T10:49:34Z</time></trkpt><trkpt lat="43.59851790674351" lon="6.856760901305358"><ele>284.0</ele><time>2026-04-12T10:49:37Z</time></trkpt><trkpt lat="43.59846845445036" lon="6.856825274106144"><ele>284.0</ele><time>2026-04-12T10:49:40Z</time></trkpt><trkpt lat="43.59842565558567" lon="6.856892344522158"><ele>284.0</ele><time>2026-04-12T10:49:43Z</time></trkpt><trkpt lat="43.5983754008436" lon="6.856951146110523"><ele>284.0</ele><time>2026-04-12T10:49:46Z</time></trkpt><trkpt lat="43.59833078138136" lon="6.857014124674202"><ele>284.0</ele><time>2026-04-12T10:49:49Z</time></trkpt><trkpt lat="43.59826024949932" lon="6.857074674031979"><ele>284.0</ele><time>2026-04-12T10:49:53Z</time></trkpt><trkpt lat="43.59818760188956" lon="6.857132000853504"><ele>284.0</ele><time>2026-04-12T10:49:57Z</time></trkpt><trkpt lat="43.598120016946744" lon="6.85714847737869"><ele>284.0</ele><time>2026-04-12T10:50:00Z</time></trkpt><trkpt lat="43.59805630693518" lon="6.857169389053919"><ele>284.0</ele><time>2026-04-12T10:50:03Z</time></trkpt><trkpt lat="43.59799551295979" lon="6.857199507235805"><ele>284.0</ele><time>2026-04-12T10:50:06Z</time></trkpt><trkpt lat="43.597926192560344" lon="6.857193431997878"><ele>284.0</ele><time>2026-04-12T10:50:09Z</time></trkpt><trkpt lat="43.59785235014247" lon="6.857186278268739"><ele>284.0</ele><time>2026-04-12T10:50:13Z</time></trkpt><trkpt lat="43.59776992464917" lon="6.857177608377552"><ele>284.0</ele><time>2026-04-12T10:50:17Z</time></trkpt><trkpt lat="43.597689492059246" lon="6.857170889617937"><ele>284.0</ele><time>2026-04-12T10:50:20Z</time></trkpt><trkpt lat="43.59762322984722" lon="6.857166353583723"><ele>284.0</ele><time>2026-04-12T10:50:23Z</time></trkpt><trkpt lat="43.597558853599" lon="6.85717520131733"><ele>284.57142857142856</ele><time>2026-04-12T10:50:26Z</time></trkpt><trkpt lat="43.59749349309762" lon="6.857192912225539"><ele>285.1428571428571</ele><time>2026-04-12T10:50:29Z</time></trkpt><trkpt lat="43.59743115414009" lon="6.8572209084070535"><ele>285.7142857142857</ele><time>2026-04-12T10:50:32Z</time></trkpt><trkpt lat="43.59737601649956" lon="6.857265409728874"><ele>286.2857142857143</ele><time>2026-04-12T10:50:35Z</time></trkpt><trkpt lat="43.59732209838348" lon="6.857314431662833"><ele>286.8571428571429</ele><time>2026-04-12T10:50:38Z</time></trkpt><trkpt lat="43.597269638411746" lon="6.857371077676023"><ele>287.42857142857144</ele><time>2026-04-12T10:50:41Z</time></trkpt><trkpt lat="43.59722146442488" lon="6.857435089985119"><ele>288.0</ele><time>2026-04-12T10:50:44Z</time></trkpt><trkpt lat="43.597171138588564" lon="6.857491709937216"><ele>288.00000000000006</ele><time>2026-04-12T10:50:47Z</time></trkpt><trkpt lat="43.597110787443064" lon="6.857526370999332"><ele>288.0</ele><time>2026-04-12T10:50:50Z</time></trkpt><trkpt lat="43.59703036569829" lon="6.857559409230305"><ele>288.0</ele><time>2026-04-12T10:50:54Z</time></trkpt><trkpt lat="43.59696772525659" lon="6.857580674462521"><ele>288.0</ele><time>2026-04-12T10:50:57Z</time></trkpt><trkpt lat="43.59690607551277" lon="6.85761039239494"><ele>288.0</ele><time>2026-04-12T10:51:00Z</time></trkpt><trkpt lat="43.59684257054707" lon="6.857637408108939"><ele>288.00000000000006</ele><time>2026-04-12T10:51:03Z</time></trkpt><trkpt lat="43.596784940353714" lon="6.857684399636352"><ele>288.0</ele><time>2026-04-12T10:51:06Z</time></trkpt><trkpt lat="43.59673211347635" lon="6.857739757101904"><ele>289.5714285714286</ele><time>2026-04-12T10:51:09Z</time></trkpt><trkpt lat="43.596688890962234" lon="6.857808015696317"><ele>291.14285714285717</ele><time>2026-04-12T10:51:12Z</time></trkpt><trkpt lat="43.596645333243586" lon="6.857874549510917"><ele>292.7142857142857</ele><time>2026-04-12T10:51:15Z</time></trkpt><trkpt lat="43.59659834889848" lon="6.857939094229414"><ele>294.28571428571433</ele><time>2026-04-12T10:51:18Z</time></trkpt><trkpt lat="43.596545874538" lon="6.857995466953954"><ele>295.8571428571429</ele><time>2026-04-12T10:51:21Z</time></trkpt><trkpt lat="43.59648490792096" lon="6.858030064810822"><ele>297.42857142857144</ele><time>2026-04-12T10:51:24Z</time></trkpt><trkpt lat="43.59642380416321" lon="6.858062913331427"><ele>299.0</ele><time>2026-04-12T10:51:27Z</time></trkpt><trkpt lat="43.596358310803495" lon="6.858082144147242"><ele>299.0</ele><time>2026-04-12T10:51:30Z</time></trkpt><trkpt lat="43.5962928677063" lon="6.858120439830621"><ele>299.0</ele><time>2026-04-12T10:51:33Z</time></trkpt><trkpt lat="43.59623742829175" lon="6.8581828828195475"><ele>299.0</ele><time>2026-04-12T10:51:36Z</time></trkpt><trkpt lat="43.596181242488065" lon="6.858236740215321"><ele>299.0</ele><time>2026-04-12T10:51:39Z</time></trkpt><trkpt lat="43.596120308327215" lon="6.858275786989708"><ele>299.0</ele><time>2026-04-12T10:51:42Z</time></trkpt><trkpt lat="43.59605631991477" lon="6.858310148128011"><ele>299.0</ele><time>2026-04-12T10:51:45Z</time></trkpt><trkpt lat="43.5959932842172" lon="6.858340460320075"><ele>299.0</ele><time>2026-04-12T10:51:48Z</time></trkpt><trkpt lat="43.59592571475404" lon="6.858374745658544"><ele>298.42857142857144</ele><time>2026-04-12T10:51:51Z</time></trkpt><trkpt lat="43.595864325097544" lon="6.858422177972117"><ele>297.8571428571429</ele><time>2026-04-12T10:51:54Z</time></trkpt><trkpt lat="43.59581300580308" lon="6.858489273193743"><ele>297.28571428571433</ele><time>2026-04-12T10:51:57Z</time></trkpt><trkpt lat="43.59577068208637" lon="6.858567276860946"><ele>296.7142857142857</ele><time>2026-04-12T10:52:00Z</time></trkpt><trkpt lat="43.59573385242817" lon="6.858688164342864"><ele>296.14285714285717</ele><time>2026-04-12T10:52:04Z</time></trkpt><trkpt lat="43.59571386454016" lon="6.858774664954136"><ele>295.5714285714286</ele><time>2026-04-12T10:52:07Z</time></trkpt><trkpt lat="43.59568638304812" lon="6.858867248167291"><ele>295.0</ele><time>2026-04-12T10:52:10Z</time></trkpt><trkpt lat="43.595640361791574" lon="6.858965553914247"><ele>295.0</ele><time>2026-04-12T10:52:14Z</time></trkpt><trkpt lat="43.59558675600413" lon="6.859045661449058"><ele>295.0</ele><time>2026-04-12T10:52:17Z</time></trkpt><trkpt lat="43.595523095461864" lon="6.859117047051046"><ele>295.0</ele><time>2026-04-12T10:52:20Z</time></trkpt><trkpt lat="43.59545582963461" lon="6.859189815487867"><ele>295.0</ele><time>2026-04-12T10:52:23Z</time></trkpt><trkpt lat="43.59540330449069" lon="6.859245945092929"><ele>295.0</ele><time>2026-04-12T10:52:26Z</time></trkpt><trkpt lat="43.595330615214685" lon="6.859307669073199"><ele>295.0</ele><time>2026-04-12T10:52:29Z</time></trkpt><trkpt lat="43.595266452923745" lon="6.859357653915931"><ele>293.3333333333333</ele><time>2026-04-12T10:52:31Z</time></trkpt><trkpt lat="43.59519189246479" lon="6.859412652832819"><ele>291.66666666666663</ele><time>2026-04-12T10:52:34Z</time></trkpt><trkpt lat="43.595113712582396" lon="6.859457702854641"><ele>290.0</ele><time>2026-04-12T10:52:37Z</time></trkpt><trkpt lat="43.59503894379402" lon="6.859505212291809"><ele>288.3333333333333</ele><time>2026-04-12T10:52:40Z</time></trkpt><trkpt lat="43.59496338539885" lon="6.859553529216553"><ele>286.6666666666667</ele><time>2026-04-12T10:52:43Z</time></trkpt><trkpt lat="43.59489372111147" lon="6.859607803933192"><ele>285.0</ele><time>2026-04-12T10:52:46Z</time></trkpt><trkpt lat="43.5948181879684" lon="6.859655588826372"><ele>285.0</ele><time>2026-04-12T10:52:49Z</time></trkpt><trkpt lat="43.59474507813958" lon="6.859697824332783"><ele>285.0</ele><time>2026-04-12T10:52:52Z</time></trkpt><trkpt lat="43.594676833631084" lon="6.859759095832642"><ele>285.0</ele><time>2026-04-12T10:52:55Z</time></trkpt><trkpt lat="43.5946078739002" lon="6.859820017440571"><ele>285.0</ele><time>2026-04-12T10:52:58Z</time></trkpt><trkpt lat="43.594540515415844" lon="6.859879896834168"><ele>285.0</ele><time>2026-04-12T10:53:01Z</time></trkpt><trkpt lat="43.594450536826805" lon="6.85996159406779"><ele>285.0</ele><time>2026-04-12T10:53:05Z</time></trkpt><trkpt lat="43.594390882108506" lon="6.8600253708890655"><ele>285.6666666666667</ele><time>2026-04-12T10:53:08Z</time></trkpt><trkpt lat="43.594332032356625" lon="6.860104637855624"><ele>286.3333333333333</ele><time>2026-04-12T10:53:11Z</time></trkpt><trkpt lat="43.59427398131513" lon="6.860202199907281"><ele>287.0</ele><time>2026-04-12T10:53:15Z</time></trkpt><trkpt lat="43.594214451937994" lon="6.860326578666942"><ele>287.66666666666663</ele><time>2026-04-12T10:53:18Z</time></trkpt><trkpt lat="43.5941639988134" lon="6.860406705769624"><ele>288.3333333333333</ele><time>2026-04-12T10:53:20Z</time></trkpt><trkpt lat="43.594109520867924" lon="6.860464847522764"><ele>289.0</ele><time>2026-04-12T10:53:22Z</time></trkpt><trkpt lat="43.59405174771973" lon="6.860504195870085"><ele>289.0</ele><time>2026-04-12T10:53:24Z</time></trkpt><trkpt lat="43.59399238508492" lon="6.860539715558059"><ele>289.0</ele><time>2026-04-12T10:53:26Z</time></trkpt><trkpt lat="43.593933635608664" lon="6.860583021820889"><ele>289.0</ele><time>2026-04-12T10:53:28Z</time></trkpt><trkpt lat="43.59387899507205" lon="6.860644297584585"><ele>289.0</ele><time>2026-04-12T10:53:30Z</time></trkpt><trkpt lat="43.593826654451846" lon="6.860697353082874"><ele>289.0</ele><time>2026-04-12T10:53:32Z</time></trkpt><trkpt lat="43.5937783657581" lon="6.860758303059612"><ele>289.0</ele><time>2026-04-12T10:53:34Z</time></trkpt><trkpt lat="43.59373810357272" lon="6.860829520106751"><ele>289.0</ele><time>2026-04-12T10:53:36Z</time></trkpt><trkpt lat="43.59370335339898" lon="6.860910149252666"><ele>290.8571428571429</ele><time>2026-04-12T10:53:38Z</time></trkpt><trkpt lat="43.59367233718219" lon="6.860989199588201"><ele>292.7142857142857</ele><time>2026-04-12T10:53:40Z</time></trkpt><trkpt lat="43.59364073684554" lon="6.86106559296853"><ele>294.57142857142856</ele><time>2026-04-12T10:53:42Z</time></trkpt><trkpt lat="43.59360604103894" lon="6.861139785345967"><ele>296.42857142857144</ele><time>2026-04-12T10:53:44Z</time></trkpt><trkpt lat="43.59356195584749" lon="6.86120551345239"><ele>298.2857142857143</ele><time>2026-04-12T10:53:46Z</time></trkpt><trkpt lat="43.59349807930066" lon="6.861302116920457"><ele>300.14285714285717</ele><time>2026-04-12T10:53:49Z</time></trkpt><trkpt lat="43.59345090199444" lon="6.861365111554316"><ele>302.0</ele><time>2026-04-12T10:53:51Z</time></trkpt><trkpt lat="43.593391343136865" lon="6.861464029161973"><ele>302.00000000000006</ele><time>2026-04-12T10:53:54Z</time></trkpt><trkpt lat="43.59334418686192" lon="6.861523643461316"><ele>302.0</ele><time>2026-04-12T10:53:56Z</time></trkpt><trkpt lat="43.59329387296417" lon="6.861583225833036"><ele>302.0</ele><time>2026-04-12T10:53:58Z</time></trkpt><trkpt lat="43.59324474223774" lon="6.861640515953865"><ele>302.0</ele><time>2026-04-12T10:54:00Z</time></trkpt><trkpt lat="43.59316306192425" lon="6.861703652876242"><ele>302.0</ele><time>2026-04-12T10:54:03Z</time></trkpt><trkpt lat="43.59310315460408" lon="6.861733864316562"><ele>302.00000000000006</ele><time>2026-04-12T10:54:05Z</time></trkpt><trkpt lat="43.593020269733934" lon="6.861779768609409"><ele>302.0</ele><time>2026-04-12T10:54:08Z</time></trkpt><trkpt lat="43.592939045975996" lon="6.861838706125448"><ele>303.42857142857144</ele><time>2026-04-12T10:54:11Z</time></trkpt><trkpt lat="43.59288079740677" lon="6.861880974270127"><ele>304.8571428571429</ele><time>2026-04-12T10:54:13Z</time></trkpt><trkpt lat="43.592818358274165" lon="6.861965418280579"><ele>306.28571428571433</ele><time>2026-04-12T10:54:16Z</time></trkpt><trkpt lat="43.592769497161086" lon="6.862025863206543"><ele>307.7142857142857</ele><time>2026-04-12T10:54:18Z</time></trkpt><trkpt lat="43.59272711879445" lon="6.862090780535468"><ele>309.1428571428571</ele><time>2026-04-12T10:54:20Z</time></trkpt><trkpt lat="43.592686163345476" lon="6.862157228066638"><ele>310.5714285714286</ele><time>2026-04-12T10:54:22Z</time></trkpt><trkpt lat="43.5926379228254" lon="6.86227360705374"><ele>312.0</ele><time>2026-04-12T10:54:25Z</time></trkpt><trkpt lat="43.592603155425934" lon="6.862363493776282"><ele>312.0</ele><time>2026-04-12T10:54:28Z</time></trkpt><trkpt lat="43.592549527892245" lon="6.862469105513765"><ele>312.0</ele><time>2026-04-12T10:54:31Z</time></trkpt><trkpt lat="43.592463218078144" lon="6.862589717777148"><ele>312.0</ele><time>2026-04-12T10:54:34Z</time></trkpt><trkpt lat="43.592397738698274" lon="6.862663955812889"><ele>312.0</ele><time>2026-04-12T10:54:36Z</time></trkpt><trkpt lat="43.592343350035335" lon="6.862729999546568"><ele>312.0</ele><time>2026-04-12T10:54:38Z</time></trkpt><trkpt lat="43.59229909285886" lon="6.862795761779098"><ele>312.0</ele><time>2026-04-12T10:54:40Z</time></trkpt><trkpt lat="43.59226241212454" lon="6.862870277062654"><ele>311.5</ele><time>2026-04-12T10:54:42Z</time></trkpt><trkpt lat="43.59222597881579" lon="6.86298890103477"><ele>311.0</ele><time>2026-04-12T10:54:45Z</time></trkpt><trkpt lat="43.592203041772926" lon="6.8631079120859155"><ele>310.5</ele><time>2026-04-12T10:54:48Z</time></trkpt><trkpt lat="43.59219215106947" lon="6.863212885201033"><ele>310.0</ele><time>2026-04-12T10:54:51Z</time></trkpt><trkpt lat="43.59217504444348" lon="6.863308893144414"><ele>309.5</ele><time>2026-04-12T10:54:54Z</time></trkpt><trkpt lat="43.59216671055623" lon="6.863410079465172"><ele>309.0</ele><time>2026-04-12T10:54:57Z</time></trkpt><trkpt lat="43.59215804537205" lon="6.863511695362767"><ele>309.00000000000006</ele><time>2026-04-12T10:55:00Z</time></trkpt><trkpt lat="43.59215686565256" lon="6.863612766265088"><ele>309.0</ele><time>2026-04-12T10:55:03Z</time></trkpt><trkpt lat="43.59216590812254" lon="6.863716024852999"><ele>309.0</ele><time>2026-04-12T10:55:06Z</time></trkpt><trkpt lat="43.59218035901375" lon="6.863832078721852"><ele>309.0</ele><time>2026-04-12T10:55:10Z</time></trkpt><trkpt lat="43.59219340485658" lon="6.863928177641028"><ele>309.0</ele><time>2026-04-12T10:55:13Z</time></trkpt><trkpt lat="43.592204739112866" lon="6.864022609196068"><ele>309.00000000000006</ele><time>2026-04-12T10:55:16Z</time></trkpt><trkpt lat="43.59221855902901" lon="6.864116756827567"><ele>309.0</ele><time>2026-04-12T10:55:19Z</time></trkpt><trkpt lat="43.59223039554901" lon="6.864212107934006"><ele>310.42857142857144</ele><time>2026-04-12T10:55:22Z</time></trkpt><trkpt lat="43.592244262189915" lon="6.8643130098737775"><ele>311.8571428571429</ele><time>2026-04-12T10:55:24Z</time></trkpt><trkpt lat="43.59225226452064" lon="6.864400391362181"><ele>313.28571428571433</ele><time>2026-04-12T10:55:27Z</time></trkpt><trkpt lat="43.59226035700439" lon="6.864493432431029"><ele>314.7142857142857</ele><time>2026-04-12T10:55:30Z</time></trkpt><trkpt lat="43.59227596393737" lon="6.864582313914837"><ele>316.1428571428571</ele><time>2026-04-12T10:55:33Z</time></trkpt><trkpt lat="43.59229018313252" lon="6.864671430355316"><ele>317.5714285714286</ele><time>2026-04-12T10:55:36Z</time></trkpt><trkpt lat="43.59230456458727" lon="6.864761387572508"><ele>319.0</ele><time>2026-04-12T10:55:39Z</time></trkpt><trkpt lat="43.59231346447765" lon="6.864849408580112"><ele>319.0</ele><time>2026-04-12T10:55:42Z</time></trkpt><trkpt lat="43.59232842945889" lon="6.864936045007516"><ele>319.0</ele><time>2026-04-12T10:55:45Z</time></trkpt><trkpt lat="43.5923329077146" lon="6.865027284008918"><ele>319.0</ele><time>2026-04-12T10:55:48Z</time></trkpt><trkpt lat="43.59234719996952" lon="6.865117885485583"><ele>319.0</ele><time>2026-04-12T10:55:51Z</time></trkpt><trkpt lat="43.592363370999756" lon="6.865206163156797"><ele>319.0</ele><time>2026-04-12T10:55:54Z</time></trkpt><trkpt lat="43.59239094098352" lon="6.865288883203341"><ele>319.0</ele><time>2026-04-12T10:55:57Z</time></trkpt><trkpt lat="43.59242489403782" lon="6.865369210706458"><ele>319.0</ele><time>2026-04-12T10:56:00Z</time></trkpt><trkpt lat="43.59245995991479" lon="6.865443996612228"><ele>320.8571428571429</ele><time>2026-04-12T10:56:03Z</time></trkpt><trkpt lat="43.59250497329537" lon="6.865508585131861"><ele>322.71428571428567</ele><time>2026-04-12T10:56:06Z</time></trkpt><trkpt lat="43.59254847472411" lon="6.865580224933571"><ele>324.57142857142856</ele><time>2026-04-12T10:56:09Z</time></trkpt><trkpt lat="43.592591056929365" lon="6.865649529802104"><ele>326.42857142857144</ele><time>2026-04-12T10:56:12Z</time></trkpt><trkpt lat="43.59263502856472" lon="6.865735007898523"><ele>328.28571428571433</ele><time>2026-04-12T10:56:16Z</time></trkpt><trkpt lat="43.59266390052161" lon="6.865813827772303"><ele>330.1428571428571</ele><time>2026-04-12T10:56:19Z</time></trkpt><trkpt lat="43.59269622058073" lon="6.865892421924713"><ele>332.0</ele><time>2026-04-12T10:56:22Z</time></trkpt><trkpt lat="43.592736084228505" lon="6.865996025835234"><ele>333.1666666666667</ele><time>2026-04-12T10:56:26Z</time></trkpt><trkpt lat="43.59278102220441" lon="6.8660666796859395"><ele>334.33333333333337</ele><time>2026-04-12T10:56:28Z</time></trkpt><trkpt lat="43.59285666815528" lon="6.866124989810195"><ele>335.5</ele><time>2026-04-12T10:56:32Z</time></trkpt><trkpt lat="43.592941704400616" lon="6.8661455948220205"><ele>336.6666666666667</ele><time>2026-04-12T10:56:36Z</time></trkpt><trkpt lat="43.59302837152874" lon="6.866147481902328"><ele>337.8333333333333</ele><time>2026-04-12T10:56:40Z</time></trkpt><trkpt lat="43.593099122133715" lon="6.86616547832353"><ele>339.0</ele><time>2026-04-12T10:56:42Z</time></trkpt><trkpt lat="43.59318210348541" lon="6.866227712713691"><ele>339.0</ele><time>2026-04-12T10:56:46Z</time></trkpt><trkpt lat="43.593240485259585" lon="6.866285466329471"><ele>339.0</ele><time>2026-04-12T10:56:49Z</time></trkpt><trkpt lat="43.59329884887922" lon="6.866346531715125"><ele>339.0</ele><time>2026-04-12T10:56:51Z</time></trkpt><trkpt lat="43.59335949326522" lon="6.866410937760808"><ele>339.0</ele><time>2026-04-12T10:56:54Z</time></trkpt><trkpt lat="43.59342685273222" lon="6.86647249363065"><ele>339.0</ele><time>2026-04-12T10:56:57Z</time></trkpt><trkpt lat="43.59349480090689" lon="6.866521843909501"><ele>339.0</ele><time>2026-04-12T10:57:00Z</time></trkpt><trkpt lat="43.5935686231726" lon="6.866563420693822"><ele>339.0</ele><time>2026-04-12T10:57:03Z</time></trkpt><trkpt lat="43.59364285962559" lon="6.866604624170403"><ele>339.0</ele><time>2026-04-12T10:57:06Z</time></trkpt><trkpt lat="43.59371880267337" lon="6.866647481823057"><ele>339.0</ele><time>2026-04-12T10:57:09Z</time></trkpt><trkpt lat="43.59379018113246" lon="6.866694078630737"><ele>339.0</ele><time>2026-04-12T10:57:12Z</time></trkpt><trkpt lat="43.59385556149155" lon="6.866757540977453"><ele>339.0</ele><time>2026-04-12T10:57:15Z</time></trkpt><trkpt lat="43.593927521876175" lon="6.866867121754658"><ele>339.0</ele><time>2026-04-12T10:57:19Z</time></trkpt><trkpt lat="43.59393924494631" lon="6.866976441679888"><ele>341.0</ele><time>2026-04-12T10:57:22Z</time></trkpt><trkpt lat="43.593914314953324" lon="6.867091420944666"><ele>343.0</ele><time>2026-04-12T10:57:26Z</time></trkpt><trkpt lat="43.593880422071955" lon="6.867165140224841"><ele>345.0</ele><time>2026-04-12T10:57:28Z</time></trkpt><trkpt lat="43.59382049984108" lon="6.867247346204462"><ele>347.0</ele><time>2026-04-12T10:57:31Z</time></trkpt><trkpt lat="43.593762764724495" lon="6.8673088219115055"><ele>349.0</ele><time>2026-04-12T10:57:34Z</time></trkpt><trkpt lat="43.59370604476208" lon="6.867377320035759"><ele>351.0</ele><time>2026-04-12T10:57:37Z</time></trkpt><trkpt lat="43.593649410650016" lon="6.86743511624267"><ele>351.00000000000006</ele><time>2026-04-12T10:57:40Z</time></trkpt><trkpt lat="43.593607558526536" lon="6.867511252114749"><ele>351.0</ele><time>2026-04-12T10:57:43Z</time></trkpt><trkpt lat="43.59356888296881" lon="6.867602021203155"><ele>351.0</ele><time>2026-04-12T10:57:46Z</time></trkpt><trkpt lat="43.59354115257756" lon="6.8676949845940705"><ele>351.0</ele><time>2026-04-12T10:57:49Z</time></trkpt><trkpt lat="43.593517951938956" lon="6.86778710727729"><ele>351.0</ele><time>2026-04-12T10:57:52Z</time></trkpt><trkpt lat="43.59350592011836" lon="6.867882888173259"><ele>351.00000000000006</ele><time>2026-04-12T10:57:55Z</time></trkpt><trkpt lat="43.59349596748755" lon="6.8679730797580305"><ele>351.0</ele><time>2026-04-12T10:57:58Z</time></trkpt><trkpt lat="43.59349403299044" lon="6.868065576358746"><ele>351.7142857142857</ele><time>2026-04-12T10:58:01Z</time></trkpt><trkpt lat="43.59349101664448" lon="6.868160375485114"><ele>352.42857142857144</ele><time>2026-04-12T10:58:04Z</time></trkpt><trkpt lat="43.593494712720506" lon="6.868252950265919"><ele>353.1428571428571</ele><time>2026-04-12T10:58:07Z</time></trkpt><trkpt lat="43.59350017897707" lon="6.868348797808018"><ele>353.8571428571429</ele><time>2026-04-12T10:58:10Z</time></trkpt><trkpt lat="43.59350526456449" lon="6.868443612462799"><ele>354.57142857142856</ele><time>2026-04-12T10:58:13Z</time></trkpt><trkpt lat="43.593498772375874" lon="6.868534642977049"><ele>355.2857142857143</ele><time>2026-04-12T10:58:16Z</time></trkpt><trkpt lat="43.59347783145281" lon="6.868619519937688"><ele>356.0</ele><time>2026-04-12T10:58:19Z</time></trkpt><trkpt lat="43.59344685706351" lon="6.8687150947131155"><ele>356.71428571428567</ele><time>2026-04-12T10:58:23Z</time></trkpt><trkpt lat="43.59340928138693" lon="6.86879368425412"><ele>357.42857142857144</ele><time>2026-04-12T10:58:27Z</time></trkpt><trkpt lat="43.59340098161794" lon="6.86890056745959"><ele>358.1428571428571</ele><time>2026-04-12T10:58:31Z</time></trkpt><trkpt lat="43.59344729588293" lon="6.868990443665463"><ele>358.85714285714283</ele><time>2026-04-12T10:58:35Z</time></trkpt><trkpt lat="43.5934890624076" lon="6.869059370224214"><ele>359.57142857142856</ele><time>2026-04-12T10:58:38Z</time></trkpt><trkpt lat="43.59354041713666" lon="6.869124062238145"><ele>360.2857142857143</ele><time>2026-04-12T10:58:41Z</time></trkpt><trkpt lat="43.59358890607691" lon="6.86918923954451"><ele>361.0</ele><time>2026-04-12T10:58:44Z</time></trkpt><trkpt lat="43.59363880898443" lon="6.869254063734345"><ele>356.0</ele><time>2026-04-12T10:58:47Z</time></trkpt><trkpt lat="43.5936770134565" lon="6.869329090872979"><ele>351.0</ele><time>2026-04-12T10:58:50Z</time></trkpt><trkpt lat="43.59371539816448" lon="6.869405948377882"><ele>346.0</ele><time>2026-04-12T10:58:53Z</time></trkpt><trkpt lat="43.59373179801472" lon="6.869498827494471"><ele>341.0</ele><time>2026-04-12T10:58:56Z</time></trkpt><trkpt lat="43.59375460589283" lon="6.869590130993498"><ele>336.0</ele><time>2026-04-12T10:58:59Z</time></trkpt><trkpt lat="43.59377264547946" lon="6.869677582025419"><ele>331.0</ele><time>2026-04-12T10:59:02Z</time></trkpt><trkpt lat="43.5937946949768" lon="6.8697683561729255"><ele>326.0</ele><time>2026-04-12T10:59:05Z</time></trkpt><trkpt lat="43.59379773618801" lon="6.869863746350603"><ele>326.0</ele><time>2026-04-12T10:59:08Z</time></trkpt><trkpt lat="43.59377934233238" lon="6.869953625038042"><ele>326.0</ele><time>2026-04-12T10:59:11Z</time></trkpt><trkpt lat="43.59374512552359" lon="6.870034744483358"><ele>326.0</ele><time>2026-04-12T10:59:14Z</time></trkpt><trkpt lat="43.5936991769356" lon="6.870100987484986"><ele>326.0</ele><time>2026-04-12T10:59:17Z</time></trkpt><trkpt lat="43.59363919330736" lon="6.870147834323924"><ele>326.0</ele><time>2026-04-12T10:59:20Z</time></trkpt><trkpt lat="43.59357862783307" lon="6.8701870989022185"><ele>326.0</ele><time>2026-04-12T10:59:23Z</time></trkpt><trkpt lat="43.59351831658151" lon="6.8702256219957105"><ele>326.0</ele><time>2026-04-12T10:59:26Z</time></trkpt><trkpt lat="43.59345932259385" lon="6.870263634220026"><ele>329.14285714285717</ele><time>2026-04-12T10:59:29Z</time></trkpt><trkpt lat="43.593396240175665" lon="6.870292191357624"><ele>332.2857142857143</ele><time>2026-04-12T10:59:32Z</time></trkpt><trkpt lat="43.593334846421946" lon="6.870325686361396"><ele>335.42857142857144</ele><time>2026-04-12T10:59:35Z</time></trkpt><trkpt lat="43.59327272471702" lon="6.870358429497483"><ele>338.57142857142856</ele><time>2026-04-12T10:59:38Z</time></trkpt><trkpt lat="43.593215496626534" lon="6.870405149445037"><ele>341.7142857142857</ele><time>2026-04-12T10:59:41Z</time></trkpt><trkpt lat="43.59315964464804" lon="6.870453648374301"><ele>344.85714285714283</ele><time>2026-04-12T10:59:44Z</time></trkpt><trkpt lat="43.593102736884255" lon="6.870501218008773"><ele>348.0</ele><time>2026-04-12T10:59:47Z</time></trkpt><trkpt lat="43.59306196422922" lon="6.870578229705495"><ele>348.0</ele><time>2026-04-12T10:59:50Z</time></trkpt><trkpt lat="43.59302845675628" lon="6.870655381048979"><ele>348.0</ele><time>2026-04-12T10:59:53Z</time></trkpt><trkpt lat="43.59301066110329" lon="6.870741773740376"><ele>348.0</ele><time>2026-04-12T10:59:56Z</time></trkpt><trkpt lat="43.59299747145295" lon="6.87083419605467"><ele>348.0</ele><time>2026-04-12T10:59:59Z</time></trkpt><trkpt lat="43.592980726825246" lon="6.870921017522568"><ele>348.0</ele><time>2026-04-12T11:00:02Z</time></trkpt><trkpt lat="43.59298265563708" lon="6.871014498935254"><ele>348.0</ele><time>2026-04-12T11:00:05Z</time></trkpt><trkpt lat="43.59297455915858" lon="6.871109877645359"><ele>348.0</ele><time>2026-04-12T11:00:08Z</time></trkpt><trkpt lat="43.59296514695133" lon="6.871211408127005"><ele>346.85714285714283</ele><time>2026-04-12T11:00:11Z</time></trkpt><trkpt lat="43.59296487225783" lon="6.871316855836709"><ele>345.7142857142857</ele><time>2026-04-12T11:00:14Z</time></trkpt><trkpt lat="43.59296461444433" lon="6.871419472968303"><ele>344.57142857142856</ele><time>2026-04-12T11:00:17Z</time></trkpt><trkpt lat="43.59295975481017" lon="6.871520536618454"><ele>343.42857142857144</ele><time>2026-04-12T11:00:20Z</time></trkpt><trkpt lat="43.59295622170976" lon="6.8716199521363786"><ele>342.2857142857143</ele><time>2026-04-12T11:00:23Z</time></trkpt><trkpt lat="43.592946665481236" lon="6.871718784809581"><ele>341.14285714285717</ele><time>2026-04-12T11:00:26Z</time></trkpt><trkpt lat="43.592928460792514" lon="6.871824946583922"><ele>340.0</ele><time>2026-04-12T11:00:29Z</time></trkpt><trkpt lat="43.59289567159988" lon="6.871935151941003"><ele>338.5</ele><time>2026-04-12T11:00:32Z</time></trkpt><trkpt lat="43.592845140831066" lon="6.872025897567895"><ele>337.0</ele><time>2026-04-12T11:00:35Z</time></trkpt><trkpt lat="43.59279173798355" lon="6.872114906878865"><ele>335.5</ele><time>2026-04-12T11:00:38Z</time></trkpt><trkpt lat="43.592723798753745" lon="6.872184380489105"><ele>334.0</ele><time>2026-04-12T11:00:41Z</time></trkpt><trkpt lat="43.592654037052014" lon="6.872251719154305"><ele>332.5</ele><time>2026-04-12T11:00:44Z</time></trkpt><trkpt lat="43.592583624245336" lon="6.872312956878877"><ele>331.0</ele><time>2026-04-12T11:00:47Z</time></trkpt><trkpt lat="43.59250788105779" lon="6.872363982976656"><ele>335.5</ele><time>2026-04-12T11:00:50Z</time></trkpt><trkpt lat="43.592431268644404" lon="6.872407657121971"><ele>340.0</ele><time>2026-04-12T11:00:53Z</time></trkpt><trkpt lat="43.592352886442264" lon="6.87244473565854"><ele>344.5</ele><time>2026-04-12T11:00:56Z</time></trkpt><trkpt lat="43.59227235611111" lon="6.8724632036589375"><ele>349.0</ele><time>2026-04-12T11:00:59Z</time></trkpt><trkpt lat="43.5921934056021" lon="6.872484820939752"><ele>353.5</ele><time>2026-04-12T11:01:02Z</time></trkpt><trkpt lat="43.59211484243027" lon="6.872496793240927"><ele>358.0</ele><time>2026-04-12T11:01:05Z</time></trkpt><trkpt lat="43.59203594691425" lon="6.872517185388591"><ele>358.5</ele><time>2026-04-12T11:01:08Z</time></trkpt><trkpt lat="43.59196136034684" lon="6.872537949176963"><ele>359.0</ele><time>2026-04-12T11:01:11Z</time></trkpt><trkpt lat="43.59189430933369" lon="6.872589732016104"><ele>359.5</ele><time>2026-04-12T11:01:14Z</time></trkpt><trkpt lat="43.59181956749826" lon="6.872625674497393"><ele>360.0</ele><time>2026-04-12T11:01:17Z</time></trkpt><trkpt lat="43.59175703354803" lon="6.872698466999185"><ele>360.5</ele><time>2026-04-12T11:01:20Z</time></trkpt><trkpt lat="43.591701867832356" lon="6.872779426268579"><ele>361.0</ele><time>2026-04-12T11:01:23Z</time></trkpt><trkpt lat="43.59164559097643" lon="6.872854351196776"><ele>361.0</ele><time>2026-04-12T11:01:26Z</time></trkpt><trkpt lat="43.591592879686395" lon="6.872937190829294"><ele>361.0</ele><time>2026-04-12T11:01:29Z</time></trkpt><trkpt lat="43.59154109083652" lon="6.8730228864585285"><ele>361.0</ele><time>2026-04-12T11:01:32Z</time></trkpt><trkpt lat="43.591507071589255" lon="6.873122274193799"><ele>361.0</ele><time>2026-04-12T11:01:35Z</time></trkpt><trkpt lat="43.591471969327756" lon="6.873220731148564"><ele>361.0</ele><time>2026-04-12T11:01:38Z</time></trkpt><trkpt lat="43.591442489207054" lon="6.873327100052226"><ele>361.0</ele><time>2026-04-12T11:01:41Z</time></trkpt><trkpt lat="43.59141013067153" lon="6.873430847486328"><ele>360.14285714285717</ele><time>2026-04-12T11:01:44Z</time></trkpt><trkpt lat="43.591379401436036" lon="6.873540221687609"><ele>359.2857142857143</ele><time>2026-04-12T11:01:47Z</time></trkpt><trkpt lat="43.59133710090027" lon="6.873642056583134"><ele>358.42857142857144</ele><time>2026-04-12T11:01:50Z</time></trkpt><trkpt lat="43.59131123791991" lon="6.873724573032215"><ele>357.57142857142856</ele><time>2026-04-12T11:01:52Z</time></trkpt><trkpt lat="43.59128651608595" lon="6.8738132269677665"><ele>356.7142857142857</ele><time>2026-04-12T11:01:54Z</time></trkpt><trkpt lat="43.59126616524881" lon="6.873900745352312"><ele>355.85714285714283</ele><time>2026-04-12T11:01:56Z</time></trkpt><trkpt lat="43.59125216282107" lon="6.873986543204105"><ele>355.0</ele><time>2026-04-12T11:01:58Z</time></trkpt><trkpt lat="43.591243329521106" lon="6.874113174688145"><ele>355.0</ele><time>2026-04-12T11:02:01Z</time></trkpt><trkpt lat="43.59123318895456" lon="6.874243663233135"><ele>355.0</ele><time>2026-04-12T11:02:04Z</time></trkpt><trkpt lat="43.59121529722676" lon="6.874371865969368"><ele>355.0</ele><time>2026-04-12T11:02:07Z</time></trkpt><trkpt lat="43.59121113546227" lon="6.874460221041562"><ele>355.0</ele><time>2026-04-12T11:02:09Z</time></trkpt><trkpt lat="43.59120348844819" lon="6.874549269789174"><ele>355.0</ele><time>2026-04-12T11:02:11Z</time></trkpt><trkpt lat="43.59119000590011" lon="6.874675092210931"><ele>355.0</ele><time>2026-04-12T11:02:14Z</time></trkpt><trkpt lat="43.59115609061614" lon="6.874789316137456"><ele>356.57142857142856</ele><time>2026-04-12T11:02:17Z</time></trkpt><trkpt lat="43.5911183308859" lon="6.8748903538740445"><ele>358.14285714285717</ele><time>2026-04-12T11:02:20Z</time></trkpt><trkpt lat="43.59107909780409" lon="6.874976761058258"><ele>359.7142857142857</ele><time>2026-04-12T11:02:23Z</time></trkpt><trkpt lat="43.591030712995796" lon="6.875036693032002"><ele>361.2857142857143</ele><time>2026-04-12T11:02:26Z</time></trkpt><trkpt lat="43.590990747615216" lon="6.87510547274022"><ele>362.8571428571429</ele><time>2026-04-12T11:02:29Z</time></trkpt><trkpt lat="43.590928122111336" lon="6.875181635967896"><ele>364.42857142857144</ele><time>2026-04-12T11:02:33Z</time></trkpt><trkpt lat="43.59087520145685" lon="6.875230519433479"><ele>366.0</ele><time>2026-04-12T11:02:36Z</time></trkpt><trkpt lat="43.59082590222848" lon="6.875285252146284"><ele>366.0</ele><time>2026-04-12T11:02:39Z</time></trkpt><trkpt lat="43.59076433593901" lon="6.875328938053417"><ele>366.0</ele><time>2026-04-12T11:02:42Z</time></trkpt><trkpt lat="43.59070472451281" lon="6.875381909090193"><ele>366.0</ele><time>2026-04-12T11:02:45Z</time></trkpt><trkpt lat="43.59064440004505" lon="6.875443115855489"><ele>366.0</ele><time>2026-04-12T11:02:48Z</time></trkpt><trkpt lat="43.5905790490331" lon="6.875515458599676"><ele>366.0</ele><time>2026-04-12T11:02:51Z</time></trkpt><trkpt lat="43.59050945497783" lon="6.87559563302745"><ele>366.0</ele><time>2026-04-12T11:02:54Z</time></trkpt><trkpt lat="43.590440183661855" lon="6.875675593380215"><ele>366.0</ele><time>2026-04-12T11:02:57Z</time></trkpt><trkpt lat="43.59037866308659" lon="6.875754170996983"><ele>366.0</ele><time>2026-04-12T11:03:00Z</time></trkpt><trkpt lat="43.59032676450131" lon="6.8758202080922874"><ele>366.0</ele><time>2026-04-12T11:03:02Z</time></trkpt><trkpt lat="43.59027522854262" lon="6.875887295445428"><ele>366.0</ele><time>2026-04-12T11:03:04Z</time></trkpt><trkpt lat="43.59022028020019" lon="6.875949749058863"><ele>366.0</ele><time>2026-04-12T11:03:06Z</time></trkpt><trkpt lat="43.59017506461714" lon="6.876016295301194"><ele>366.0</ele><time>2026-04-12T11:03:08Z</time></trkpt><trkpt lat="43.5901346477244" lon="6.876087034179231"><ele>366.0</ele><time>2026-04-12T11:03:10Z</time></trkpt><trkpt lat="43.59008721720233" lon="6.876159361902806"><ele>367.0</ele><time>2026-04-12T11:03:12Z</time></trkpt><trkpt lat="43.59002514161037" lon="6.876212939563156"><ele>368.0</ele><time>2026-04-12T11:03:14Z</time></trkpt><trkpt lat="43.58997320114491" lon="6.8762817442929665"><ele>369.0</ele><time>2026-04-12T11:03:16Z</time></trkpt><trkpt lat="43.58991448497646" lon="6.876352560654811"><ele>370.0</ele><time>2026-04-12T11:03:18Z</time></trkpt><trkpt lat="43.58984908190981" lon="6.876428080856361"><ele>371.0</ele><time>2026-04-12T11:03:20Z</time></trkpt><trkpt lat="43.58977295955649" lon="6.876509361132692"><ele>372.0</ele><time>2026-04-12T11:03:22Z</time></trkpt><trkpt lat="43.58969758302668" lon="6.876598084962814"><ele>372.0</ele><time>2026-04-12T11:03:24Z</time></trkpt><trkpt lat="43.58962303954171" lon="6.876690455293196"><ele>372.0</ele><time>2026-04-12T11:03:26Z</time></trkpt><trkpt lat="43.58956271224028" lon="6.876801310475656"><ele>372.0</ele><time>2026-04-12T11:03:28Z</time></trkpt><trkpt lat="43.58952181218158" lon="6.876949194877473"><ele>372.0</ele><time>2026-04-12T11:03:30Z</time></trkpt><trkpt lat="43.58948496150007" lon="6.877117556730288"><ele>372.0</ele><time>2026-04-12T11:03:32Z</time></trkpt><trkpt lat="43.58947425750286" lon="6.877211696721906"><ele>373.0</ele><time>2026-04-12T11:03:33Z</time></trkpt><trkpt lat="43.589461248260925" lon="6.8773124711527185"><ele>374.0</ele><time>2026-04-12T11:03:34Z</time></trkpt><trkpt lat="43.58943428268424" lon="6.87741295494446"><ele>375.0</ele><time>2026-04-12T11:03:35Z</time></trkpt><trkpt lat="43.589393156391324" lon="6.877510962338546"><ele>376.0</ele><time>2026-04-12T11:03:36Z</time></trkpt><trkpt lat="43.58934891057908" lon="6.8776090992880565"><ele>377.0</ele><time>2026-04-12T11:03:37Z</time></trkpt><trkpt lat="43.58929336876724" lon="6.877698228629854"><ele>378.0</ele><time>2026-04-12T11:03:38Z</time></trkpt><trkpt lat="43.58922467988433" lon="6.877773768113836"><ele>374.59999999999997</ele><time>2026-04-12T11:03:39Z</time></trkpt><trkpt lat="43.58914847339935" lon="6.877838907831305"><ele>371.2</ele><time>2026-04-12T11:03:40Z</time></trkpt><trkpt lat="43.589072283176904" lon="6.8779075984276306"><ele>367.8</ele><time>2026-04-12T11:03:41Z</time></trkpt><trkpt lat="43.58900016696375" lon="6.877989058738723"><ele>364.4</ele><time>2026-04-12T11:03:42Z</time></trkpt><trkpt lat="43.58892809152924" lon="6.878077616725807"><ele>361.0</ele><time>2026-04-12T11:03:43Z</time></trkpt><trkpt lat="43.58885262896666" lon="6.878166840198292"><ele>361.0</ele><time>2026-04-12T11:03:44Z</time></trkpt><trkpt lat="43.5887817153362" lon="6.878269530601254"><ele>361.0</ele><time>2026-04-12T11:03:45Z</time></trkpt><trkpt lat="43.58873680771586" lon="6.878393308148033"><ele>361.0</ele><time>2026-04-12T11:03:46Z</time></trkpt><trkpt lat="43.588689398408505" lon="6.878521860463553"><ele>361.0</ele><time>2026-04-12T11:03:47Z</time></trkpt><trkpt lat="43.58869464992393" lon="6.87867106112139"><ele>361.0</ele><time>2026-04-12T11:03:48Z</time></trkpt><trkpt lat="43.58880274327793" lon="6.878808083726117"><ele>360.0</ele><time>2026-04-12T11:03:49Z</time></trkpt><trkpt lat="43.58886779961912" lon="6.878920699494934"><ele>359.0</ele><time>2026-04-12T11:03:50Z</time></trkpt><trkpt lat="43.58893253061821" lon="6.879037461715459"><ele>358.0</ele><time>2026-04-12T11:03:51Z</time></trkpt><trkpt lat="43.58898902437204" lon="6.87915948763212"><ele>357.0</ele><time>2026-04-12T11:03:52Z</time></trkpt><trkpt lat="43.58902806146807" lon="6.879282704988048"><ele>356.0</ele><time>2026-04-12T11:03:53Z</time></trkpt><trkpt lat="43.5890686831705" lon="6.879403669092354"><ele>353.6</ele><time>2026-04-12T11:03:54Z</time></trkpt><trkpt lat="43.589066772296825" lon="6.8795296888358815"><ele>351.20000000000005</ele><time>2026-04-12T11:03:55Z</time></trkpt><trkpt lat="43.58903234534274" lon="6.879646958146267"><ele>348.79999999999995</ele><time>2026-04-12T11:03:56Z</time></trkpt><trkpt lat="43.58897500217068" lon="6.879753718462974"><ele>346.4</ele><time>2026-04-12T11:03:57Z</time></trkpt><trkpt lat="43.58889610889968" lon="6.879841992239718"><ele>344.0</ele><time>2026-04-12T11:03:58Z</time></trkpt><trkpt lat="43.58879924222188" lon="6.879900959688224"><ele>344.0</ele><time>2026-04-12T11:03:59Z</time></trkpt><trkpt lat="43.588722118210015" lon="6.879996013801463"><ele>344.0</ele><time>2026-04-12T11:04:00Z</time></trkpt><trkpt lat="43.5886616462669" lon="6.880122174255751"><ele>344.0</ele><time>2026-04-12T11:04:01Z</time></trkpt><trkpt lat="43.588585914681865" lon="6.880225772830066"><ele>344.0</ele><time>2026-04-12T11:04:02Z</time></trkpt><trkpt lat="43.588485621128626" lon="6.880280121023428"><ele>344.0</ele><time>2026-04-12T11:04:03Z</time></trkpt><trkpt lat="43.58838062279098" lon="6.8803258418087045"><ele>341.75</ele><time>2026-04-12T11:04:04Z</time></trkpt><trkpt lat="43.588275507726635" lon="6.880392113476468"><ele>339.5</ele><time>2026-04-12T11:04:05Z</time></trkpt><trkpt lat="43.58816941001346" lon="6.880457758102745"><ele>337.25</ele><time>2026-04-12T11:04:06Z</time></trkpt><trkpt lat="43.58806303332456" lon="6.880536842980323"><ele>335.0</ele><time>2026-04-12T11:04:07Z</time></trkpt><trkpt lat="43.58795332722135" lon="6.880618397901692"><ele>341.5</ele><time>2026-04-12T11:04:08Z</time></trkpt><trkpt lat="43.587840697159564" lon="6.880702002198513"><ele>348.0</ele><time>2026-04-12T11:04:09Z</time></trkpt><trkpt lat="43.587728028148504" lon="6.880783382462659"><ele>354.5</ele><time>2026-04-12T11:04:10Z</time></trkpt><trkpt lat="43.58761925930373" lon="6.880858089116623"><ele>361.0</ele><time>2026-04-12T11:04:11Z</time></trkpt><trkpt lat="43.587523175680715" lon="6.880920794719516"><ele>357.20000000000005</ele><time>2026-04-12T11:04:12Z</time></trkpt><trkpt lat="43.58743390780394" lon="6.880983362579777"><ele>353.40000000000003</ele><time>2026-04-12T11:04:13Z</time></trkpt><trkpt lat="43.587348841108216" lon="6.88103286834441"><ele>349.6</ele><time>2026-04-12T11:04:14Z</time></trkpt><trkpt lat="43.58728765984316" lon="6.881135894701731"><ele>345.8</ele><time>2026-04-12T11:04:15Z</time></trkpt><trkpt lat="43.587259360102735" lon="6.8812791268474"><ele>342.0</ele><time>2026-04-12T11:04:16Z</time></trkpt><trkpt lat="43.58727850615517" lon="6.88142909499654"><ele>342.0</ele><time>2026-04-12T11:04:17Z</time></trkpt><trkpt lat="43.58732367447884" lon="6.88155969875828"><ele>342.0</ele><time>2026-04-12T11:04:18Z</time></trkpt><trkpt lat="43.58735871021273" lon="6.8816948508860225"><ele>342.0</ele><time>2026-04-12T11:04:19Z</time></trkpt><trkpt lat="43.587396376037354" lon="6.881834926628861"><ele>342.0</ele><time>2026-04-12T11:04:20Z</time></trkpt><trkpt lat="43.587444417945264" lon="6.881973507563195"><ele>342.0</ele><time>2026-04-12T11:04:21Z</time></trkpt><trkpt lat="43.587481131532684" lon="6.882118389140461"><ele>343.40000000000003</ele><time>2026-04-12T11:04:22Z</time></trkpt><trkpt lat="43.587537769203905" lon="6.882238513588235"><ele>344.8</ele><time>2026-04-12T11:04:23Z</time></trkpt><trkpt lat="43.58761638794019" lon="6.882345794257392"><ele>346.2</ele><time>2026-04-12T11:04:24Z</time></trkpt><trkpt lat="43.587703062239896" lon="6.882432575465115"><ele>347.6</ele><time>2026-04-12T11:04:25Z</time></trkpt><trkpt lat="43.587788361845945" lon="6.882497139592578"><ele>349.0</ele><time>2026-04-12T11:04:26Z</time></trkpt><trkpt lat="43.587855980430476" lon="6.882576774235066"><ele>341.8</ele><time>2026-04-12T11:04:27Z</time></trkpt><trkpt lat="43.58792960376326" lon="6.882661947446043"><ele>334.59999999999997</ele><time>2026-04-12T11:04:28Z</time></trkpt><trkpt lat="43.587995282470395" lon="6.882760132847533"><ele>327.4</ele><time>2026-04-12T11:04:29Z</time></trkpt><trkpt lat="43.588029089774594" lon="6.882888213405384"><ele>320.2</ele><time>2026-04-12T11:04:30Z</time></trkpt><trkpt lat="43.58805352509004" lon="6.883008436321234"><ele>313.0</ele><time>2026-04-12T11:04:31Z</time></trkpt><trkpt lat="43.588080070684384" lon="6.883121809902266"><ele>313.0</ele><time>2026-04-12T11:04:32Z</time></trkpt><trkpt lat="43.58806512219056" lon="6.883233111957426"><ele>313.0</ele><time>2026-04-12T11:04:33Z</time></trkpt><trkpt lat="43.58802861689946" lon="6.8833432285186635"><ele>313.0</ele><time>2026-04-12T11:04:34Z</time></trkpt><trkpt lat="43.58796466345731" lon="6.883435058184715"><ele>313.0</ele><time>2026-04-12T11:04:35Z</time></trkpt><trkpt lat="43.58789598492283" lon="6.883519943013223"><ele>313.0</ele><time>2026-04-12T11:04:36Z</time></trkpt><trkpt lat="43.58784178302408" lon="6.8836228484354525"><ele>313.0</ele><time>2026-04-12T11:04:37Z</time></trkpt><trkpt lat="43.58780015132419" lon="6.8837423465667325"><ele>310.6</ele><time>2026-04-12T11:04:38Z</time></trkpt><trkpt lat="43.58774907219022" lon="6.883860149716406"><ele>308.20000000000005</ele><time>2026-04-12T11:04:39Z</time></trkpt><trkpt lat="43.58770765526429" lon="6.883986142626657"><ele>305.8</ele><time>2026-04-12T11:04:40Z</time></trkpt><trkpt lat="43.58766080796878" lon="6.884106396849995"><ele>303.40000000000003</ele><time>2026-04-12T11:04:41Z</time></trkpt><trkpt lat="43.58760637634377" lon="6.884221770336591"><ele>301.0</ele><time>2026-04-12T11:04:42Z</time></trkpt><trkpt lat="43.587551289109456" lon="6.884337654229144"><ele>301.0</ele><time>2026-04-12T11:04:43Z</time></trkpt><trkpt lat="43.58746522585761" lon="6.884419190290316"><ele>301.0</ele><time>2026-04-12T11:04:44Z</time></trkpt><trkpt lat="43.587373342725506" lon="6.884485804963151"><ele>301.0</ele><time>2026-04-12T11:04:45Z</time></trkpt><trkpt lat="43.587269050066006" lon="6.884524573059402"><ele>301.0</ele><time>2026-04-12T11:04:46Z</time></trkpt><trkpt lat="43.58718111765468" lon="6.884606430247422"><ele>301.0</ele><time>2026-04-12T11:04:47Z</time></trkpt><trkpt lat="43.58710172627891" lon="6.8847009478727434"><ele>301.0</ele><time>2026-04-12T11:04:48Z</time></trkpt><trkpt lat="43.58702151528849" lon="6.884773520323693"><ele>301.0</ele><time>2026-04-12T11:04:49Z</time></trkpt><trkpt lat="43.58692497144199" lon="6.884800083686242"><ele>301.0</ele><time>2026-04-12T11:04:50Z</time></trkpt><trkpt lat="43.586822973168125" lon="6.884811334381629"><ele>301.0</ele><time>2026-04-12T11:04:51Z</time></trkpt><trkpt lat="43.58672220277193" lon="6.884795853067156"><ele>301.0</ele><time>2026-04-12T11:04:52Z</time></trkpt><trkpt lat="43.58662620740039" lon="6.8848243848318"><ele>298.0</ele><time>2026-04-12T11:04:53Z</time></trkpt><trkpt lat="43.586541838885886" lon="6.884908465657031"><ele>295.0</ele><time>2026-04-12T11:04:54Z</time></trkpt><trkpt lat="43.58646735765954" lon="6.885009095003509"><ele>292.0</ele><time>2026-04-12T11:04:55Z</time></trkpt><trkpt lat="43.586387940916275" lon="6.885099417630659"><ele>289.0</ele><time>2026-04-12T11:04:56Z</time></trkpt><trkpt lat="43.58630557804138" lon="6.885186846397769"><ele>286.0</ele><time>2026-04-12T11:04:57Z</time></trkpt><trkpt lat="43.586228442799985" lon="6.88529082272443"><ele>286.0</ele><time>2026-04-12T11:04:58Z</time></trkpt><trkpt lat="43.58619941764912" lon="6.885436703540004"><ele>286.0</ele><time>2026-04-12T11:04:59Z</time></trkpt><trkpt lat="43.58615279819811" lon="6.885555010236042"><ele>286.0</ele><time>2026-04-12T11:05:00Z</time></trkpt><trkpt lat="43.58610879393795" lon="6.8856595789591415"><ele>286.0</ele><time>2026-04-12T11:05:01Z</time></trkpt><trkpt lat="43.5860426833345" lon="6.885752783292839"><ele>286.0</ele><time>2026-04-12T11:05:02Z</time></trkpt><trkpt lat="43.58595091660183" lon="6.885814715212366"><ele>284.40000000000003</ele><time>2026-04-12T11:05:03Z</time></trkpt><trkpt lat="43.585847640576176" lon="6.885837349516279"><ele>282.8</ele><time>2026-04-12T11:05:04Z</time></trkpt><trkpt lat="43.58576642723085" lon="6.885911254581022"><ele>281.20000000000005</ele><time>2026-04-12T11:05:05Z</time></trkpt><trkpt lat="43.58568187378657" lon="6.885980099602309"><ele>279.6</ele><time>2026-04-12T11:05:06Z</time></trkpt><trkpt lat="43.58559415221346" lon="6.88604824178095"><ele>278.0</ele><time>2026-04-12T11:05:07Z</time></trkpt><trkpt lat="43.585497646363905" lon="6.886095076358215"><ele>278.0</ele><time>2026-04-12T11:05:08Z</time></trkpt><trkpt lat="43.58539762208379" lon="6.886135579942309"><ele>278.0</ele><time>2026-04-12T11:05:09Z</time></trkpt><trkpt lat="43.58529407164718" lon="6.886171946082234"><ele>278.0</ele><time>2026-04-12T11:05:10Z</time></trkpt><trkpt lat="43.58518918889265" lon="6.8862064552556115"><ele>278.0</ele><time>2026-04-12T11:05:11Z</time></trkpt><trkpt lat="43.585080985684655" lon="6.886241585100019"><ele>278.0</ele><time>2026-04-12T11:05:12Z</time></trkpt><trkpt lat="43.58497134867032" lon="6.886270460824289"><ele>281.33333333333337</ele><time>2026-04-12T11:05:13Z</time></trkpt><trkpt lat="43.58487248873027" lon="6.8862933006445095"><ele>284.6666666666667</ele><time>2026-04-12T11:05:14Z</time></trkpt><trkpt lat="43.58478906450038" lon="6.886310246851985"><ele>288.0</ele><time>2026-04-12T11:05:15Z</time></trkpt><trkpt lat="43.58471969679059" lon="6.886355221437125"><ele>291.3333333333333</ele><time>2026-04-12T11:05:16Z</time></trkpt><trkpt lat="43.58464404079175" lon="6.88642134436291"><ele>294.66666666666663</ele><time>2026-04-12T11:05:17Z</time></trkpt><trkpt lat="43.584614702644984" lon="6.886546655103474"><ele>298.0</ele><time>2026-04-12T11:05:18Z</time></trkpt><trkpt lat="43.58460972798697" lon="6.886669803389823"><ele>297.0</ele><time>2026-04-12T11:05:19Z</time></trkpt><trkpt lat="43.58464435133763" lon="6.886804344619193"><ele>296.0</ele><time>2026-04-12T11:05:20Z</time></trkpt><trkpt lat="43.58470826289921" lon="6.886913203086671"><ele>295.0</ele><time>2026-04-12T11:05:21Z</time></trkpt><trkpt lat="43.58476702807052" lon="6.887004023311309"><ele>294.0</ele><time>2026-04-12T11:05:22Z</time></trkpt><trkpt lat="43.584852321061284" lon="6.887059098751575"><ele>293.0</ele><time>2026-04-12T11:05:23Z</time></trkpt><trkpt lat="43.584900673982666" lon="6.887144072444261"><ele>292.99999999999994</ele><time>2026-04-12T11:05:24Z</time></trkpt><trkpt lat="43.58493290448379" lon="6.887236601048762"><ele>293.0</ele><time>2026-04-12T11:05:25Z</time></trkpt><trkpt lat="43.58495125198475" lon="6.887335236795524"><ele>293.0</ele><time>2026-04-12T11:05:26Z</time></trkpt><trkpt lat="43.584957798946405" lon="6.887433592396825"><ele>293.0</ele><time>2026-04-12T11:05:27Z</time></trkpt><trkpt lat="43.584954507299116" lon="6.887534552351277"><ele>293.0</ele><time>2026-04-12T11:05:28Z</time></trkpt><trkpt lat="43.58493698511461" lon="6.887630630776511"><ele>292.99999999999994</ele><time>2026-04-12T11:05:29Z</time></trkpt><trkpt lat="43.584905008795864" lon="6.887720278385013"><ele>293.0</ele><time>2026-04-12T11:05:30Z</time></trkpt><trkpt lat="43.5848669310942" lon="6.8878133339159735"><ele>292.83333333333337</ele><time>2026-04-12T11:05:31Z</time></trkpt><trkpt lat="43.58483383380138" lon="6.887905822529383"><ele>292.6666666666667</ele><time>2026-04-12T11:05:32Z</time></trkpt><trkpt lat="43.584805863452715" lon="6.888007223055348"><ele>292.5</ele><time>2026-04-12T11:05:33Z</time></trkpt><trkpt lat="43.58478968505942" lon="6.888114641992315"><ele>292.3333333333333</ele><time>2026-04-12T11:05:34Z</time></trkpt><trkpt lat="43.58477603943711" lon="6.88821534015173"><ele>292.16666666666663</ele><time>2026-04-12T11:05:35Z</time></trkpt><trkpt lat="43.58475561950939" lon="6.88831083723213"><ele>292.0</ele><time>2026-04-12T11:05:36Z</time></trkpt><trkpt lat="43.584730111943664" lon="6.888408477407142"><ele>293.16666666666663</ele><time>2026-04-12T11:05:37Z</time></trkpt><trkpt lat="43.584711062690104" lon="6.888506076852211"><ele>294.3333333333333</ele><time>2026-04-12T11:05:38Z</time></trkpt><trkpt lat="43.58470350849751" lon="6.888614391035595"><ele>295.5</ele><time>2026-04-12T11:05:39Z</time></trkpt><trkpt lat="43.58470038678034" lon="6.88872064605014"><ele>296.6666666666667</ele><time>2026-04-12T11:05:40Z</time></trkpt><trkpt lat="43.58470844510946" lon="6.888828764494249"><ele>297.83333333333337</ele><time>2026-04-12T11:05:41Z</time></trkpt><trkpt lat="43.584728052516894" lon="6.888931962816376"><ele>299.0</ele><time>2026-04-12T11:05:42Z</time></trkpt><trkpt lat="43.58477839731807" lon="6.8890178487102265"><ele>299.0</ele><time>2026-04-12T11:05:43Z</time></trkpt><trkpt lat="43.58481401381842" lon="6.889111248712911"><ele>299.0</ele><time>2026-04-12T11:05:44Z</time></trkpt><trkpt lat="43.58489803648477" lon="6.889149042914758"><ele>299.0</ele><time>2026-04-12T11:05:45Z</time></trkpt><trkpt lat="43.584963652025024" lon="6.889197414942853"><ele>299.0</ele><time>2026-04-12T11:05:46Z</time></trkpt><trkpt lat="43.585019132955566" lon="6.889261388794054"><ele>299.0</ele><time>2026-04-12T11:05:47Z</time></trkpt><trkpt lat="43.58503598367208" lon="6.889366075542572"><ele>299.0</ele><time>2026-04-12T11:05:48Z</time></trkpt><trkpt lat="43.58503336608787" lon="6.889464282664492"><ele>300.0</ele><time>2026-04-12T11:05:49Z</time></trkpt><trkpt lat="43.58502267375332" lon="6.889561247605033"><ele>301.0</ele><time>2026-04-12T11:05:50Z</time></trkpt><trkpt lat="43.58501439124201" lon="6.8896575670288005"><ele>302.0</ele><time>2026-04-12T11:05:51Z</time></trkpt><trkpt lat="43.58497925513036" lon="6.889745215606907"><ele>303.0</ele><time>2026-04-12T11:05:52Z</time></trkpt><trkpt lat="43.58494832229078" lon="6.8898364976255975"><ele>304.0</ele><time>2026-04-12T11:05:53Z</time></trkpt><trkpt lat="43.58490721221467" lon="6.889924359249792"><ele>305.0</ele><time>2026-04-12T11:05:54Z</time></trkpt><trkpt lat="43.58491304685947" lon="6.89003287533866"><ele>306.0</ele><time>2026-04-12T11:05:55Z</time></trkpt><trkpt lat="43.58490079913372" lon="6.890136934323566"><ele>307.5</ele><time>2026-04-12T11:05:56Z</time></trkpt><trkpt lat="43.58491269521212" lon="6.890243562241488"><ele>309.0</ele><time>2026-04-12T11:05:57Z</time></trkpt><trkpt lat="43.58494060133404" lon="6.890351593097332"><ele>310.5</ele><time>2026-04-12T11:05:58Z</time></trkpt><trkpt lat="43.584988476479715" lon="6.890450629795817"><ele>312.0</ele><time>2026-04-12T11:05:59Z</time></trkpt><trkpt lat="43.58507481063316" lon="6.890504937732063"><ele>313.5</ele><time>2026-04-12T11:06:00Z</time></trkpt><trkpt lat="43.5851424536778" lon="6.890569287241354"><ele>315.0</ele><time>2026-04-12T11:06:01Z</time></trkpt><trkpt lat="43.58516895035033" lon="6.890684326691227"><ele>315.0</ele><time>2026-04-12T11:06:02Z</time></trkpt><trkpt lat="43.58522064904978" lon="6.890774156295962"><ele>315.0</ele><time>2026-04-12T11:06:03Z</time></trkpt><trkpt lat="43.58528202639901" lon="6.890862610712518"><ele>315.0</ele><time>2026-04-12T11:06:04Z</time></trkpt><trkpt lat="43.585353237951544" lon="6.890934892904771"><ele>315.0</ele><time>2026-04-12T11:06:05Z</time></trkpt><trkpt lat="43.58541901738177" lon="6.8910019760300205"><ele>315.0</ele><time>2026-04-12T11:06:06Z</time></trkpt><trkpt lat="43.58547817860444" lon="6.891075339500332"><ele>315.0</ele><time>2026-04-12T11:06:07Z</time></trkpt><trkpt lat="43.58553392404409" lon="6.891158627350324"><ele>310.1666666666667</ele><time>2026-04-12T11:06:08Z</time></trkpt><trkpt lat="43.58558872931909" lon="6.8912444858395725"><ele>305.3333333333333</ele><time>2026-04-12T11:06:09Z</time></trkpt><trkpt lat="43.585638665162456" lon="6.891338397464054"><ele>300.5</ele><time>2026-04-12T11:06:10Z</time></trkpt><trkpt lat="43.58566993916368" lon="6.891444162792089"><ele>295.66666666666663</ele><time>2026-04-12T11:06:11Z</time></trkpt><trkpt lat="43.58567742715378" lon="6.89155940790089"><ele>290.8333333333333</ele><time>2026-04-12T11:06:12Z</time></trkpt><trkpt lat="43.585651948390954" lon="6.89168069191797"><ele>286.0</ele><time>2026-04-12T11:06:13Z</time></trkpt><trkpt lat="43.58565533273569" lon="6.8918017782778085"><ele>286.0</ele><time>2026-04-12T11:06:14Z</time></trkpt><trkpt lat="43.585692585936826" lon="6.891930573877938"><ele>286.0</ele><time>2026-04-12T11:06:15Z</time></trkpt><trkpt lat="43.58574639551824" lon="6.892044718414597"><ele>286.0</ele><time>2026-04-12T11:06:16Z</time></trkpt><trkpt lat="43.58580205012787" lon="6.892139246120917"><ele>286.0</ele><time>2026-04-12T11:06:17Z</time></trkpt><trkpt lat="43.58584595689139" lon="6.8922417760018355"><ele>286.0</ele><time>2026-04-12T11:06:18Z</time></trkpt><trkpt lat="43.585878286206125" lon="6.892350090405599"><ele>286.0</ele><time>2026-04-12T11:06:19Z</time></trkpt><trkpt lat="43.58588898819458" lon="6.892461996735896"><ele>286.0</ele><time>2026-04-12T11:06:20Z</time></trkpt><trkpt lat="43.58589758283233" lon="6.892559562132109"><ele>286.0</ele><time>2026-04-12T11:06:21Z</time></trkpt><trkpt lat="43.5858585925598" lon="6.892644135937137"><ele>286.0</ele><time>2026-04-12T11:06:22Z</time></trkpt><trkpt lat="43.585791288551356" lon="6.892697213731246"><ele>286.0</ele><time>2026-04-12T11:06:23Z</time></trkpt><trkpt lat="43.58570628655552" lon="6.892699461068056"><ele>286.0</ele><time>2026-04-12T11:06:24Z</time></trkpt><trkpt lat="43.58563508890301" lon="6.892737704973337"><ele>284.0</ele><time>2026-04-12T11:06:25Z</time></trkpt><trkpt lat="43.58557823998895" lon="6.892823295981956"><ele>282.0</ele><time>2026-04-12T11:06:26Z</time></trkpt><trkpt lat="43.58551687363798" lon="6.892889293580754"><ele>280.0</ele><time>2026-04-12T11:06:27Z</time></trkpt><trkpt lat="43.585452453629" lon="6.89295057895341"><ele>278.0</ele><time>2026-04-12T11:06:28Z</time></trkpt><trkpt lat="43.585373880427895" lon="6.89298973851219"><ele>276.0</ele><time>2026-04-12T11:06:29Z</time></trkpt><trkpt lat="43.5852949551738" lon="6.8930115626673265"><ele>274.0</ele><time>2026-04-12T11:06:30Z</time></trkpt><trkpt lat="43.58521649769302" lon="6.893034773294258"><ele>279.4</ele><time>2026-04-12T11:06:31Z</time></trkpt><trkpt lat="43.58514179802505" lon="6.893075392106006"><ele>284.79999999999995</ele><time>2026-04-12T11:06:32Z</time></trkpt><trkpt lat="43.58507117589413" lon="6.8931448367091095"><ele>290.20000000000005</ele><time>2026-04-12T11:06:33Z</time></trkpt><trkpt lat="43.585042423173824" lon="6.893285155604341"><ele>295.6</ele><time>2026-04-12T11:06:34Z</time></trkpt><trkpt lat="43.58506109294956" lon="6.893433610803552"><ele>301.0</ele><time>2026-04-12T11:06:35Z</time></trkpt><trkpt lat="43.585113093981874" lon="6.89355812845601"><ele>302.2</ele><time>2026-04-12T11:06:36Z</time></trkpt><trkpt lat="43.58519747841811" lon="6.893645957315772"><ele>303.40000000000003</ele><time>2026-04-12T11:06:37Z</time></trkpt><trkpt lat="43.58532089515408" lon="6.893630757369528"><ele>304.6</ele><time>2026-04-12T11:06:38Z</time></trkpt><trkpt lat="43.585396553121996" lon="6.893693844303714"><ele>305.8</ele><time>2026-04-12T11:06:39Z</time></trkpt><trkpt lat="43.585476385368224" lon="6.893738740880726"><ele>307.0</ele><time>2026-04-12T11:06:40Z</time></trkpt><trkpt lat="43.58555482307272" lon="6.893786477497106"><ele>302.3333333333333</ele><time>2026-04-12T11:06:41Z</time></trkpt><trkpt lat="43.585632045820304" lon="6.893837489262164"><ele>297.66666666666663</ele><time>2026-04-12T11:06:42Z</time></trkpt><trkpt lat="43.5857042656459" lon="6.893901940342341"><ele>293.0</ele><time>2026-04-12T11:06:43Z</time></trkpt><trkpt lat="43.585766402934574" lon="6.89398504775877"><ele>288.3333333333333</ele><time>2026-04-12T11:06:44Z</time></trkpt><trkpt lat="43.58582309511144" lon="6.894074585149073"><ele>283.6666666666667</ele><time>2026-04-12T11:06:45Z</time></trkpt><trkpt lat="43.58587015412147" lon="6.894174730959911"><ele>279.0</ele><time>2026-04-12T11:06:46Z</time></trkpt><trkpt lat="43.58589326315575" lon="6.894285592499775"><ele>279.0</ele><time>2026-04-12T11:06:47Z</time></trkpt><trkpt lat="43.58590848145752" lon="6.8944058147226555"><ele>279.0</ele><time>2026-04-12T11:06:48Z</time></trkpt><trkpt lat="43.58589512195083" lon="6.894517257633889"><ele>279.0</ele><time>2026-04-12T11:06:49Z</time></trkpt><trkpt lat="43.58586836873579" lon="6.894624554644223"><ele>279.0</ele><time>2026-04-12T11:06:50Z</time></trkpt><trkpt lat="43.58579330697829" lon="6.894694129918832"><ele>279.0</ele><time>2026-04-12T11:06:51Z</time></trkpt><trkpt lat="43.5857414570332" lon="6.89478459715924"><ele>279.0</ele><time>2026-04-12T11:06:52Z</time></trkpt><trkpt lat="43.585732338384545" lon="6.8949081349905645"><ele>279.0</ele><time>2026-04-12T11:06:53Z</time></trkpt><trkpt lat="43.585716858511134" lon="6.89501950573245"><ele>279.0</ele><time>2026-04-12T11:06:54Z</time></trkpt><trkpt lat="43.58569619540684" lon="6.895129276959569"><ele>279.0</ele><time>2026-04-12T11:06:55Z</time></trkpt><trkpt lat="43.585660085589005" lon="6.895228313659357"><ele>279.0</ele><time>2026-04-12T11:06:56Z</time></trkpt><trkpt lat="43.58561068162804" lon="6.895317000667414"><ele>279.0</ele><time>2026-04-12T11:06:57Z</time></trkpt><trkpt lat="43.58554645159717" lon="6.89538933422338"><ele>279.0</ele><time>2026-04-12T11:06:58Z</time></trkpt><trkpt lat="43.5854764689648" lon="6.895449961197102"><ele>276.2</ele><time>2026-04-12T11:06:59Z</time></trkpt><trkpt lat="43.58541033247911" lon="6.895512785341514"><ele>273.4</ele><time>2026-04-12T11:07:00Z</time></trkpt><trkpt lat="43.58533868661485" lon="6.895567946605506"><ele>270.6</ele><time>2026-04-12T11:07:01Z</time></trkpt><trkpt lat="43.58528275241677" lon="6.895665350269835"><ele>267.8</ele><time>2026-04-12T11:07:02Z</time></trkpt><trkpt lat="43.585265114371566" lon="6.8958056029850185"><ele>265.0</ele><time>2026-04-12T11:07:03Z</time></trkpt><trkpt lat="43.58534792515715" lon="6.895936142973147"><ele>264.3333333333333</ele><time>2026-04-12T11:07:04Z</time></trkpt><trkpt lat="43.58541385505656" lon="6.896028257505662"><ele>263.66666666666663</ele><time>2026-04-12T11:07:05Z</time></trkpt><trkpt lat="43.58544657203589" lon="6.896138332010821"><ele>263.0</ele><time>2026-04-12T11:07:06Z</time></trkpt><trkpt lat="43.58546977109672" lon="6.896244708795541"><ele>262.3333333333333</ele><time>2026-04-12T11:07:07Z</time></trkpt><trkpt lat="43.5854596728097" lon="6.896353718555738"><ele>261.6666666666667</ele><time>2026-04-12T11:07:08Z</time></trkpt><trkpt lat="43.58542790633792" lon="6.896455395206991"><ele>261.0</ele><time>2026-04-12T11:07:09Z</time></trkpt><trkpt lat="43.5853729685775" lon="6.89653989081671"><ele>264.6666666666667</ele><time>2026-04-12T11:07:10Z</time></trkpt><trkpt lat="43.585319652788435" lon="6.896636846238958"><ele>268.3333333333333</ele><time>2026-04-12T11:07:11Z</time></trkpt><trkpt lat="43.58527450793704" lon="6.896734243482239"><ele>272.0</ele><time>2026-04-12T11:07:12Z</time></trkpt><trkpt lat="43.58527844254427" lon="6.896877509510895"><ele>275.66666666666663</ele><time>2026-04-12T11:07:13Z</time></trkpt><trkpt lat="43.58529546457685" lon="6.897001878420887"><ele>279.3333333333333</ele><time>2026-04-12T11:07:14Z</time></trkpt><trkpt lat="43.58528743042579" lon="6.897113802068862"><ele>283.0</ele><time>2026-04-12T11:07:15Z</time></trkpt><trkpt lat="43.58526468363753" lon="6.897225386953854"><ele>283.0</ele><time>2026-04-12T11:07:16Z</time></trkpt><trkpt lat="43.585185020000694" lon="6.897305950971879"><ele>283.0</ele><time>2026-04-12T11:07:17Z</time></trkpt><trkpt lat="43.58514841624456" lon="6.897420772637947"><ele>283.0</ele><time>2026-04-12T11:07:18Z</time></trkpt><trkpt lat="43.58518014556492" lon="6.897565045763579"><ele>283.0</ele><time>2026-04-12T11:07:19Z</time></trkpt><trkpt lat="43.58518308153724" lon="6.897689504408796"><ele>283.0</ele><time>2026-04-12T11:07:20Z</time></trkpt><trkpt lat="43.58515656902463" lon="6.897806049713587"><ele>281.6</ele><time>2026-04-12T11:07:21Z</time></trkpt><trkpt lat="43.585112215165466" lon="6.8979152473592835"><ele>280.20000000000005</ele><time>2026-04-12T11:07:22Z</time></trkpt><trkpt lat="43.585068649109346" lon="6.89802170003748"><ele>278.8</ele><time>2026-04-12T11:07:23Z</time></trkpt><trkpt lat="43.58504389221747" lon="6.898135514206274"><ele>277.40000000000003</ele><time>2026-04-12T11:07:24Z</time></trkpt><trkpt lat="43.585028149662335" lon="6.898253569734442"><ele>276.0</ele><time>2026-04-12T11:07:25Z</time></trkpt><trkpt lat="43.58508219175877" lon="6.898375833256544"><ele>277.8333333333333</ele><time>2026-04-12T11:07:26Z</time></trkpt><trkpt lat="43.58517154668339" lon="6.8984391961225295"><ele>279.6666666666667</ele><time>2026-04-12T11:07:27Z</time></trkpt><trkpt lat="43.5852460794965" lon="6.8984892486815275"><ele>281.5</ele><time>2026-04-12T11:07:28Z</time></trkpt><trkpt lat="43.585318263496454" lon="6.898532823028529"><ele>283.33333333333337</ele><time>2026-04-12T11:07:29Z</time></trkpt><trkpt lat="43.585399477245744" lon="6.898523358618497"><ele>285.1666666666667</ele><time>2026-04-12T11:07:30Z</time></trkpt><trkpt lat="43.58546438671319" lon="6.898480033950354"><ele>287.0</ele><time>2026-04-12T11:07:31Z</time></trkpt><trkpt lat="43.58552500777425" lon="6.8984495474033265"><ele>287.2</ele><time>2026-04-12T11:07:32Z</time></trkpt><trkpt lat="43.585608870340515" lon="6.898336434018407"><ele>287.4</ele><time>2026-04-12T11:07:34Z</time></trkpt><trkpt lat="43.5856620895772" lon="6.898213109355171"><ele>287.6</ele><time>2026-04-12T11:07:36Z</time></trkpt><trkpt lat="43.58572520469481" lon="6.898117628491523"><ele>287.8</ele><time>2026-04-12T11:07:38Z</time></trkpt><trkpt lat="43.58580117616485" lon="6.898051457880475"><ele>288.0</ele><time>2026-04-12T11:07:40Z</time></trkpt><trkpt lat="43.58587984980575" lon="6.8980143703667185"><ele>288.00000000000006</ele><time>2026-04-12T11:07:42Z</time></trkpt><trkpt lat="43.5859525976542" lon="6.897979083747585"><ele>288.0</ele><time>2026-04-12T11:07:44Z</time></trkpt><trkpt lat="43.58600304759132" lon="6.897911861323237"><ele>288.0</ele><time>2026-04-12T11:07:46Z</time></trkpt><trkpt lat="43.586028846976" lon="6.897820611263796"><ele>288.0</ele><time>2026-04-12T11:07:48Z</time></trkpt><trkpt lat="43.58603860511887" lon="6.897725858347663"><ele>288.0</ele><time>2026-04-12T11:07:50Z</time></trkpt><trkpt lat="43.586057068487705" lon="6.897637314811907"><ele>288.00000000000006</ele><time>2026-04-12T11:07:52Z</time></trkpt><trkpt lat="43.586087547499986" lon="6.89755755657385"><ele>288.0</ele><time>2026-04-12T11:07:54Z</time></trkpt><trkpt lat="43.58613071300636" lon="6.897492121542263"><ele>289.00000000000006</ele><time>2026-04-12T11:07:56Z</time></trkpt><trkpt lat="43.58617752139153" lon="6.8974265138127056"><ele>290.0</ele><time>2026-04-12T11:07:58Z</time></trkpt><trkpt lat="43.586227656985066" lon="6.897369317536677"><ele>291.0</ele><time>2026-04-12T11:08:00Z</time></trkpt><trkpt lat="43.58628505734607" lon="6.897323604412747"><ele>292.0</ele><time>2026-04-12T11:08:02Z</time></trkpt><trkpt lat="43.58633789588267" lon="6.897272622291797"><ele>293.0</ele><time>2026-04-12T11:08:04Z</time></trkpt><trkpt lat="43.58639440327073" lon="6.897225842415253"><ele>294.00000000000006</ele><time>2026-04-12T11:08:06Z</time></trkpt><trkpt lat="43.58645203902778" lon="6.897176623973641"><ele>295.0</ele><time>2026-04-12T11:08:08Z</time></trkpt><trkpt lat="43.58650976294608" lon="6.897131841553176"><ele>295.00000000000006</ele><time>2026-04-12T11:08:10Z</time></trkpt><trkpt lat="43.58656499344208" lon="6.897081884785491"><ele>295.0</ele><time>2026-04-12T11:08:12Z</time></trkpt><trkpt lat="43.58661458964184" lon="6.897026475344768"><ele>295.0</ele><time>2026-04-12T11:08:14Z</time></trkpt><trkpt lat="43.586664174937496" lon="6.8969683592648385"><ele>295.0</ele><time>2026-04-12T11:08:16Z</time></trkpt><trkpt lat="43.58670900731491" lon="6.896905218672322"><ele>295.0</ele><time>2026-04-12T11:08:18Z</time></trkpt><trkpt lat="43.58675069137403" lon="6.896834415664967"><ele>295.00000000000006</ele><time>2026-04-12T11:08:20Z</time></trkpt><trkpt lat="43.58678920955785" lon="6.89676056695914"><ele>295.0</ele><time>2026-04-12T11:08:22Z</time></trkpt><trkpt lat="43.586830941457556" lon="6.896690220018006"><ele>294.14285714285717</ele><time>2026-04-12T11:08:24Z</time></trkpt><trkpt lat="43.58687333670754" lon="6.896623503698329"><ele>293.2857142857143</ele><time>2026-04-12T11:08:26Z</time></trkpt><trkpt lat="43.58692061613239" lon="6.896562572027231"><ele>292.42857142857144</ele><time>2026-04-12T11:08:28Z</time></trkpt><trkpt lat="43.58696905015386" lon="6.8965045554789395"><ele>291.57142857142856</ele><time>2026-04-12T11:08:30Z</time></trkpt><trkpt lat="43.58702111539052" lon="6.8964522306862115"><ele>290.7142857142857</ele><time>2026-04-12T11:08:32Z</time></trkpt><trkpt lat="43.58707502208474" lon="6.896405663040177"><ele>289.8571428571429</ele><time>2026-04-12T11:08:34Z</time></trkpt><trkpt lat="43.587135857349715" lon="6.8963717134503515"><ele>289.0</ele><time>2026-04-12T11:08:36Z</time></trkpt><trkpt lat="43.5871993613147" lon="6.8963460618430235"><ele>289.0</ele><time>2026-04-12T11:08:38Z</time></trkpt><trkpt lat="43.587266789490755" lon="6.896347556700396"><ele>289.0</ele><time>2026-04-12T11:08:40Z</time></trkpt><trkpt lat="43.58733105746976" lon="6.8963783643780765"><ele>289.0</ele><time>2026-04-12T11:08:42Z</time></trkpt><trkpt lat="43.58738418514836" lon="6.896433128567344"><ele>289.0</ele><time>2026-04-12T11:08:44Z</time></trkpt><trkpt lat="43.58743061044908" lon="6.8964969798456055"><ele>289.0</ele><time>2026-04-12T11:08:46Z</time></trkpt><trkpt lat="43.587472302591266" lon="6.896566668067775"><ele>289.0</ele><time>2026-04-12T11:08:48Z</time></trkpt><trkpt lat="43.587517189712194" lon="6.8966289037910435"><ele>289.0</ele><time>2026-04-12T11:08:50Z</time></trkpt><trkpt lat="43.587575043287515" lon="6.896671336834183"><ele>289.0</ele><time>2026-04-12T11:08:52Z</time></trkpt><trkpt lat="43.58764182678492" lon="6.896688918686477"><ele>289.0</ele><time>2026-04-12T11:08:54Z</time></trkpt><trkpt lat="43.58770731250562" lon="6.896671744800144"><ele>289.0</ele><time>2026-04-12T11:08:56Z</time></trkpt><trkpt lat="43.58780160236604" lon="6.896662043848034"><ele>289.0</ele><time>2026-04-12T11:08:59Z</time></trkpt><trkpt lat="43.58786559035478" lon="6.896655327850193"><ele>289.0</ele><time>2026-04-12T11:09:01Z</time></trkpt><trkpt lat="43.58792964639751" lon="6.896646993631734"><ele>289.0</ele><time>2026-04-12T11:09:03Z</time></trkpt><trkpt lat="43.58799168141191" lon="6.896629214274123"><ele>289.0</ele><time>2026-04-12T11:09:05Z</time></trkpt><trkpt lat="43.588054493228164" lon="6.896615929732917"><ele>289.0</ele><time>2026-04-12T11:09:07Z</time></trkpt><trkpt lat="43.58811805397269" lon="6.896596628881442"><ele>289.0</ele><time>2026-04-12T11:09:09Z</time></trkpt><trkpt lat="43.58817717207034" lon="6.896563585190204"><ele>289.0</ele><time>2026-04-12T11:09:11Z</time></trkpt><trkpt lat="43.58824288236089" lon="6.896541057693778"><ele>289.0</ele><time>2026-04-12T11:09:13Z</time></trkpt><trkpt lat="43.588307613979595" lon="6.896534858820522"><ele>289.0</ele><time>2026-04-12T11:09:15Z</time></trkpt><trkpt lat="43.588373475459704" lon="6.8965687149559995"><ele>289.0</ele><time>2026-04-12T11:09:17Z</time></trkpt><trkpt lat="43.58843174417745" lon="6.896615562619094"><ele>289.0</ele><time>2026-04-12T11:09:19Z</time></trkpt><trkpt lat="43.588489069511326" lon="6.896664734652977"><ele>289.0</ele><time>2026-04-12T11:09:21Z</time></trkpt><trkpt lat="43.588543759161354" lon="6.896717889807565"><ele>289.0</ele><time>2026-04-12T11:09:23Z</time></trkpt><trkpt lat="43.588592389642464" lon="6.896780638051933"><ele>289.0</ele><time>2026-04-12T11:09:25Z</time></trkpt><trkpt lat="43.58864081427763" lon="6.896842344149388"><ele>289.0</ele><time>2026-04-12T11:09:27Z</time></trkpt><trkpt lat="43.58866937892226" lon="6.896922485195249"><ele>289.0</ele><time>2026-04-12T11:09:29Z</time></trkpt><trkpt lat="43.588667329274806" lon="6.897020247223158"><ele>289.0</ele><time>2026-04-12T11:09:31Z</time></trkpt><trkpt lat="43.58866177276191" lon="6.897129781732912"><ele>289.0</ele><time>2026-04-12T11:09:33Z</time></trkpt><trkpt lat="43.58863005883916" lon="6.897249105677527"><ele>290.2</ele><time>2026-04-12T11:09:35Z</time></trkpt><trkpt lat="43.58856928348566" lon="6.897364342535816"><ele>291.4</ele><time>2026-04-12T11:09:37Z</time></trkpt><trkpt lat="43.58850403616958" lon="6.897487350477755"><ele>292.6</ele><time>2026-04-12T11:09:39Z</time></trkpt><trkpt lat="43.58844422002616" lon="6.8976403003017905"><ele>293.8</ele><time>2026-04-12T11:09:41Z</time></trkpt><trkpt lat="43.58841487010354" lon="6.897724794519461"><ele>295.0</ele><time>2026-04-12T11:09:42Z</time></trkpt><trkpt lat="43.5883863072861" lon="6.897814016989909"><ele>292.66666666666663</ele><time>2026-04-12T11:09:43Z</time></trkpt><trkpt lat="43.58835429343404" lon="6.897906463767251"><ele>290.3333333333333</ele><time>2026-04-12T11:09:44Z</time></trkpt><trkpt lat="43.588316806625244" lon="6.897999916518985"><ele>288.0</ele><time>2026-04-12T11:09:45Z</time></trkpt><trkpt lat="43.588269065772934" lon="6.898087720578963"><ele>285.6666666666667</ele><time>2026-04-12T11:09:46Z</time></trkpt><trkpt lat="43.588214189064296" lon="6.898171196088383"><ele>283.33333333333337</ele><time>2026-04-12T11:09:47Z</time></trkpt><trkpt lat="43.58815078923533" lon="6.898250530224377"><ele>281.0</ele><time>2026-04-12T11:09:48Z</time></trkpt><trkpt lat="43.58809350463571" lon="6.898340773176464"><ele>277.8</ele><time>2026-04-12T11:09:49Z</time></trkpt><trkpt lat="43.58806025688772" lon="6.898452709442057"><ele>274.6</ele><time>2026-04-12T11:09:50Z</time></trkpt><trkpt lat="43.58804335915099" lon="6.898577579770766"><ele>271.4</ele><time>2026-04-12T11:09:51Z</time></trkpt><trkpt lat="43.58803628379743" lon="6.89870783716312"><ele>268.2</ele><time>2026-04-12T11:09:52Z</time></trkpt><trkpt lat="43.58800301113244" lon="6.898834466505623"><ele>265.0</ele><time>2026-04-12T11:09:53Z</time></trkpt><trkpt lat="43.58797668350961" lon="6.898964819762186"><ele>265.0</ele><time>2026-04-12T11:09:54Z</time></trkpt><trkpt lat="43.5879490993075" lon="6.899100067527312"><ele>265.0</ele><time>2026-04-12T11:09:55Z</time></trkpt><trkpt lat="43.58793293900084" lon="6.899244892129612"><ele>265.0</ele><time>2026-04-12T11:09:56Z</time></trkpt><trkpt lat="43.5879415770138" lon="6.899388980586926"><ele>265.0</ele><time>2026-04-12T11:09:57Z</time></trkpt><trkpt lat="43.587909180571195" lon="6.899521989573909"><ele>265.0</ele><time>2026-04-12T11:09:58Z</time></trkpt><trkpt lat="43.587852069593076" lon="6.899647949347591"><ele>269.8333333333333</ele><time>2026-04-12T11:09:59Z</time></trkpt><trkpt lat="43.58779619095187" lon="6.89976237716475"><ele>274.66666666666663</ele><time>2026-04-12T11:10:00Z</time></trkpt><trkpt lat="43.58774472709218" lon="6.899835143261923"><ele>279.5</ele><time>2026-04-12T11:10:01Z</time></trkpt><trkpt lat="43.58773326726007" lon="6.8999363866592915"><ele>284.3333333333333</ele><time>2026-04-12T11:10:02Z</time></trkpt><trkpt lat="43.58774325993701" lon="6.900049150262157"><ele>289.1666666666667</ele><time>2026-04-12T11:10:03Z</time></trkpt><trkpt lat="43.587769154621625" lon="6.900160068956452"><ele>294.0</ele><time>2026-04-12T11:10:04Z</time></trkpt><trkpt lat="43.5877984071873" lon="6.90027496086215"><ele>294.0</ele><time>2026-04-12T11:10:05Z</time></trkpt><trkpt lat="43.587835787422165" lon="6.900388123583306"><ele>294.0</ele><time>2026-04-12T11:10:06Z</time></trkpt><trkpt lat="43.58785680516927" lon="6.900515637504456"><ele>294.0</ele><time>2026-04-12T11:10:07Z</time></trkpt><trkpt lat="43.58789759489128" lon="6.900631312529862"><ele>294.0</ele><time>2026-04-12T11:10:08Z</time></trkpt><trkpt lat="43.587937297843474" lon="6.9007494244001055"><ele>294.0</ele><time>2026-04-12T11:10:09Z</time></trkpt><trkpt lat="43.58797038109324" lon="6.900854902643032"><ele>288.8333333333333</ele><time>2026-04-12T11:10:10Z</time></trkpt><trkpt lat="43.58799785704189" lon="6.900948896221797"><ele>283.6666666666667</ele><time>2026-04-12T11:10:11Z</time></trkpt><trkpt lat="43.58801839715866" lon="6.901047276688848"><ele>278.5</ele><time>2026-04-12T11:10:12Z</time></trkpt><trkpt lat="43.58801802200088" lon="6.901155607616027"><ele>273.33333333333337</ele><time>2026-04-12T11:10:13Z</time></trkpt><trkpt lat="43.587986752176384" lon="6.901266667878737"><ele>268.1666666666667</ele><time>2026-04-12T11:10:14Z</time></trkpt><trkpt lat="43.587977101890544" lon="6.901392585455582"><ele>263.0</ele><time>2026-04-12T11:10:15Z</time></trkpt><trkpt lat="43.58800437890291" lon="6.901525167497511"><ele>263.0</ele><time>2026-04-12T11:10:16Z</time></trkpt><trkpt lat="43.58804120943017" lon="6.901649681026351"><ele>263.0</ele><time>2026-04-12T11:10:17Z</time></trkpt><trkpt lat="43.588094316379696" lon="6.901764460914039"><ele>263.0</ele><time>2026-04-12T11:10:18Z</time></trkpt><trkpt lat="43.58819374078391" lon="6.901829921164275"><ele>263.0</ele><time>2026-04-12T11:10:19Z</time></trkpt><trkpt lat="43.58828749040432" lon="6.901891419541656"><ele>263.0</ele><time>2026-04-12T11:10:20Z</time></trkpt><trkpt lat="43.58836957251525" lon="6.901981031072489"><ele>263.6</ele><time>2026-04-12T11:10:21Z</time></trkpt><trkpt lat="43.588459737402246" lon="6.90205264224954"><ele>264.20000000000005</ele><time>2026-04-12T11:10:22Z</time></trkpt><trkpt lat="43.58855198470109" lon="6.902105292815104"><ele>264.8</ele><time>2026-04-12T11:10:23Z</time></trkpt><trkpt lat="43.58863200119003" lon="6.902174642583279"><ele>265.40000000000003</ele><time>2026-04-12T11:10:24Z</time></trkpt><trkpt lat="43.588702779581894" lon="6.902236703355066"><ele>266.0</ele><time>2026-04-12T11:10:25Z</time></trkpt><trkpt lat="43.588768429178685" lon="6.902296698509472"><ele>266.0</ele><time>2026-04-12T11:10:26Z</time></trkpt><trkpt lat="43.588828141853725" lon="6.9023496081268805"><ele>266.0</ele><time>2026-04-12T11:10:27Z</time></trkpt><trkpt lat="43.588894741208044" lon="6.902373888856633"><ele>266.0</ele><time>2026-04-12T11:10:28Z</time></trkpt><trkpt lat="43.58896087411445" lon="6.902350405002316"><ele>266.0</ele><time>2026-04-12T11:10:29Z</time></trkpt><trkpt lat="43.58902111201243" lon="6.902274441100977"><ele>266.0</ele><time>2026-04-12T11:10:30Z</time></trkpt><trkpt lat="43.58905585043122" lon="6.902166973250534"><ele>266.0</ele><time>2026-04-12T11:10:31Z</time></trkpt><trkpt lat="43.589080479491685" lon="6.902057746710819"><ele>266.0</ele><time>2026-04-12T11:10:32Z</time></trkpt><trkpt lat="43.58911434228719" lon="6.901955612372537"><ele>266.0</ele><time>2026-04-12T11:10:33Z</time></trkpt><trkpt lat="43.589161423235055" lon="6.901865974101008"><ele>266.0</ele><time>2026-04-12T11:10:34Z</time></trkpt><trkpt lat="43.589221009116315" lon="6.9017930656426785"><ele>266.0</ele><time>2026-04-12T11:10:35Z</time></trkpt><trkpt lat="43.58929158939448" lon="6.901747763869098"><ele>266.0</ele><time>2026-04-12T11:10:36Z</time></trkpt><trkpt lat="43.58937654073573" lon="6.901735453145973"><ele>266.0</ele><time>2026-04-12T11:10:37Z</time></trkpt><trkpt lat="43.589459866133836" lon="6.901796280414543"><ele>263.40000000000003</ele><time>2026-04-12T11:10:38Z</time></trkpt><trkpt lat="43.58953210694868" lon="6.901863673661242"><ele>260.8</ele><time>2026-04-12T11:10:39Z</time></trkpt><trkpt lat="43.58961065673347" lon="6.901929488645245"><ele>258.20000000000005</ele><time>2026-04-12T11:10:40Z</time></trkpt><trkpt lat="43.5896969852254" lon="6.901979022253565"><ele>255.60000000000002</ele><time>2026-04-12T11:10:41Z</time></trkpt><trkpt lat="43.589779364726624" lon="6.902039767401614"><ele>253.0</ele><time>2026-04-12T11:10:42Z</time></trkpt><trkpt lat="43.58985647783684" lon="6.90211730233893"><ele>253.0</ele><time>2026-04-12T11:10:43Z</time></trkpt><trkpt lat="43.5899374190625" lon="6.902189636130868"><ele>253.0</ele><time>2026-04-12T11:10:44Z</time></trkpt><trkpt lat="43.59001555771175" lon="6.902275611031596"><ele>253.0</ele><time>2026-04-12T11:10:45Z</time></trkpt><trkpt lat="43.5901004333745" lon="6.902357851258235"><ele>253.0</ele><time>2026-04-12T11:10:46Z</time></trkpt><trkpt lat="43.59015930381807" lon="6.902450810601173"><ele>253.0</ele><time>2026-04-12T11:10:47Z</time></trkpt><trkpt lat="43.59019065653797" lon="6.90254757033304"><ele>252.33333333333331</ele><time>2026-04-12T11:10:48Z</time></trkpt><trkpt lat="43.590224940596464" lon="6.902642682795959"><ele>251.66666666666666</ele><time>2026-04-12T11:10:49Z</time></trkpt><trkpt lat="43.590249649332556" lon="6.902749699381979"><ele>251.0</ele><time>2026-04-12T11:10:50Z</time></trkpt><trkpt lat="43.5902428366509" lon="6.902852948380814"><ele>250.33333333333331</ele><time>2026-04-12T11:10:51Z</time></trkpt><trkpt lat="43.59025536230057" lon="6.90295468987171"><ele>249.66666666666666</ele><time>2026-04-12T11:10:52Z</time></trkpt><trkpt lat="43.59032805833188" lon="6.90303412956018"><ele>249.0</ele><time>2026-04-12T11:10:53Z</time></trkpt><trkpt lat="43.590434673345406" lon="6.903016209063946"><ele>249.0</ele><time>2026-04-12T11:10:54Z</time></trkpt><trkpt lat="43.59051880292627" lon="6.903005418020244"><ele>249.0</ele><time>2026-04-12T11:10:55Z</time></trkpt><trkpt lat="43.590606526414554" lon="6.903023774849061"><ele>249.0</ele><time>2026-04-12T11:10:56Z</time></trkpt><trkpt lat="43.590693831701934" lon="6.90301950728853"><ele>249.0</ele><time>2026-04-12T11:10:57Z</time></trkpt><trkpt lat="43.590783036208514" lon="6.903017350356994"><ele>249.0</ele><time>2026-04-12T11:10:58Z</time></trkpt><trkpt lat="43.59086875878168" lon="6.903056749455778"><ele>249.0</ele><time>2026-04-12T11:10:59Z</time></trkpt><trkpt lat="43.59096056658007" lon="6.903113800380331"><ele>249.0</ele><time>2026-04-12T11:11:00Z</time></trkpt><trkpt lat="43.59105844574849" lon="6.903132462535257"><ele>249.0</ele><time>2026-04-12T11:11:01Z</time></trkpt><trkpt lat="43.59115266116719" lon="6.903138188000521"><ele>249.0</ele><time>2026-04-12T11:11:02Z</time></trkpt><trkpt lat="43.59123528627647" lon="6.903147039160497"><ele>249.0</ele><time>2026-04-12T11:11:03Z</time></trkpt><trkpt lat="43.59131501969462" lon="6.9031705809890695"><ele>249.0</ele><time>2026-04-12T11:11:04Z</time></trkpt><trkpt lat="43.59140138012022" lon="6.903200154727019"><ele>249.0</ele><time>2026-04-12T11:11:05Z</time></trkpt><trkpt lat="43.59146436101011" lon="6.903288987635441"><ele>248.16666666666666</ele><time>2026-04-12T11:11:06Z</time></trkpt><trkpt lat="43.59151638565071" lon="6.903382723534658"><ele>247.33333333333331</ele><time>2026-04-12T11:11:07Z</time></trkpt><trkpt lat="43.591553082841344" lon="6.903487214750274"><ele>246.5</ele><time>2026-04-12T11:11:08Z</time></trkpt><trkpt lat="43.591612695292206" lon="6.903575202275708"><ele>245.66666666666666</ele><time>2026-04-12T11:11:09Z</time></trkpt><trkpt lat="43.59168260092524" lon="6.903648049319947"><ele>244.83333333333331</ele><time>2026-04-12T11:11:10Z</time></trkpt><trkpt lat="43.59177759910275" lon="6.903683732143676"><ele>244.0</ele><time>2026-04-12T11:11:11Z</time></trkpt><trkpt lat="43.59186531860831" lon="6.903738217618198"><ele>244.0</ele><time>2026-04-12T11:11:12Z</time></trkpt><trkpt lat="43.59195077076644" lon="6.903793614417355"><ele>243.99999999999997</ele><time>2026-04-12T11:11:13Z</time></trkpt><trkpt lat="43.592032877861634" lon="6.903865471545037"><ele>243.99999999999997</ele><time>2026-04-12T11:11:14Z</time></trkpt><trkpt lat="43.592106496440366" lon="6.903958741889504"><ele>244.0</ele><time>2026-04-12T11:11:15Z</time></trkpt><trkpt lat="43.592181714295236" lon="6.904057722159703"><ele>244.0</ele><time>2026-04-12T11:11:16Z</time></trkpt><trkpt lat="43.592267513475406" lon="6.904144828540618"><ele>241.0</ele><time>2026-04-12T11:11:17Z</time></trkpt><trkpt lat="43.59234429545976" lon="6.904246197801089"><ele>237.99999999999997</ele><time>2026-04-12T11:11:18Z</time></trkpt><trkpt lat="43.59240978607083" lon="6.904366587994753"><ele>234.99999999999997</ele><time>2026-04-12T11:11:19Z</time></trkpt><trkpt lat="43.592487924496524" lon="6.904471783216974"><ele>232.0</ele><time>2026-04-12T11:11:20Z</time></trkpt><trkpt lat="43.59256773894775" lon="6.904577946504526"><ele>229.0</ele><time>2026-04-12T11:11:21Z</time></trkpt><trkpt lat="43.592639972250986" lon="6.904674025829695"><ele>228.99999999999997</ele><time>2026-04-12T11:11:22Z</time></trkpt><trkpt lat="43.59271054455337" lon="6.904767402857973"><ele>229.0</ele><time>2026-04-12T11:11:23Z</time></trkpt><trkpt lat="43.59277982434741" lon="6.904855879365923"><ele>229.0</ele><time>2026-04-12T11:11:24Z</time></trkpt><trkpt lat="43.59283655653938" lon="6.904929429164419"><ele>229.0</ele><time>2026-04-12T11:11:25Z</time></trkpt><trkpt lat="43.59289811140167" lon="6.9049868732780615"><ele>228.99999999999997</ele><time>2026-04-12T11:11:26Z</time></trkpt><trkpt lat="43.59293502768988" lon="6.905073525736166"><ele>229.0</ele><time>2026-04-12T11:11:27Z</time></trkpt><trkpt lat="43.59294576331166" lon="6.905170921659818"><ele>227.57142857142856</ele><time>2026-04-12T11:11:28Z</time></trkpt><trkpt lat="43.59293620644341" lon="6.905264245235468"><ele>226.14285714285717</ele><time>2026-04-12T11:11:29Z</time></trkpt><trkpt lat="43.5929061540536" lon="6.905349986777348"><ele>224.71428571428572</ele><time>2026-04-12T11:11:30Z</time></trkpt><trkpt lat="43.59285149646646" lon="6.905417851107547"><ele>223.28571428571428</ele><time>2026-04-12T11:11:31Z</time></trkpt><trkpt lat="43.59278296257875" lon="6.905460817648753"><ele>221.85714285714283</ele><time>2026-04-12T11:11:32Z</time></trkpt><trkpt lat="43.59271126468416" lon="6.905493151333565"><ele>220.42857142857144</ele><time>2026-04-12T11:11:33Z</time></trkpt><trkpt lat="43.59263761184598" lon="6.905528861173138"><ele>219.0</ele><time>2026-04-12T11:11:34Z</time></trkpt><trkpt lat="43.5925610842008" lon="6.905564014864219"><ele>219.0</ele><time>2026-04-12T11:11:35Z</time></trkpt><trkpt lat="43.59248251551945" lon="6.905604315292969"><ele>219.0</ele><time>2026-04-12T11:11:36Z</time></trkpt><trkpt lat="43.59240308554342" lon="6.905648284960743"><ele>219.0</ele><time>2026-04-12T11:11:37Z</time></trkpt><trkpt lat="43.592322107044915" lon="6.90569235882609"><ele>219.0</ele><time>2026-04-12T11:11:38Z</time></trkpt><trkpt lat="43.59223779183605" lon="6.905734224149406"><ele>219.0</ele><time>2026-04-12T11:11:39Z</time></trkpt><trkpt lat="43.592153984630734" lon="6.9057776318544"><ele>219.0</ele><time>2026-04-12T11:11:40Z</time></trkpt><trkpt lat="43.59207042865153" lon="6.905829786933083"><ele>220.2</ele><time>2026-04-12T11:11:41Z</time></trkpt><trkpt lat="43.591985132474484" lon="6.905879552578866"><ele>221.39999999999998</ele><time>2026-04-12T11:11:42Z</time></trkpt><trkpt lat="43.59190009025257" lon="6.905930032344656"><ele>222.6</ele><time>2026-04-12T11:11:43Z</time></trkpt><trkpt lat="43.591814528109865" lon="6.905980542307023"><ele>223.8</ele><time>2026-04-12T11:11:44Z</time></trkpt><trkpt lat="43.591729796128206" lon="6.906033922074959"><ele>225.0</ele><time>2026-04-12T11:11:45Z</time></trkpt><trkpt lat="43.59164253530781" lon="6.906085835380128"><ele>219.4</ele><time>2026-04-12T11:11:46Z</time></trkpt><trkpt lat="43.59154560566294" lon="6.9061102437020025"><ele>213.8</ele><time>2026-04-12T11:11:47Z</time></trkpt><trkpt lat="43.59144316132174" lon="6.906101205116664"><ele>208.2</ele><time>2026-04-12T11:11:48Z</time></trkpt><trkpt lat="43.591346017442895" lon="6.906095405359063"><ele>202.6</ele><time>2026-04-12T11:11:49Z</time></trkpt><trkpt lat="43.591255990664784" lon="6.9061263904738555"><ele>197.0</ele><time>2026-04-12T11:11:50Z</time></trkpt><trkpt lat="43.59117440432516" lon="6.906181431189515"><ele>197.33333333333334</ele><time>2026-04-12T11:11:51Z</time></trkpt><trkpt lat="43.591099289056814" lon="6.906242033322822"><ele>197.66666666666669</ele><time>2026-04-12T11:11:52Z</time></trkpt><trkpt lat="43.59100942506333" lon="6.906266342603315"><ele>198.0</ele><time>2026-04-12T11:11:53Z</time></trkpt><trkpt lat="43.59091645334695" lon="6.906235627562377"><ele>198.33333333333331</ele><time>2026-04-12T11:11:54Z</time></trkpt><trkpt lat="43.59083403782167" lon="6.906196542588106"><ele>198.66666666666666</ele><time>2026-04-12T11:11:55Z</time></trkpt><trkpt lat="43.59075145044337" lon="6.906186389079023"><ele>199.0</ele><time>2026-04-12T11:11:56Z</time></trkpt><trkpt lat="43.59066711032522" lon="6.906233031844118"><ele>198.99999999999997</ele><time>2026-04-12T11:11:57Z</time></trkpt><trkpt lat="43.59059906482787" lon="6.906335448056488"><ele>199.0</ele><time>2026-04-12T11:11:58Z</time></trkpt><trkpt lat="43.590550500482415" lon="6.9064545867245135"><ele>199.0</ele><time>2026-04-12T11:11:59Z</time></trkpt><trkpt lat="43.59049648874001" lon="6.906544158629213"><ele>199.0</ele><time>2026-04-12T11:12:00Z</time></trkpt><trkpt lat="43.59043096152069" lon="6.906593275263502"><ele>198.99999999999997</ele><time>2026-04-12T11:12:01Z</time></trkpt><trkpt lat="43.590352716287896" lon="6.906604905751182"><ele>199.0</ele><time>2026-04-12T11:12:02Z</time></trkpt><trkpt lat="43.59026654063871" lon="6.90657313531087"><ele>198.0</ele><time>2026-04-12T11:12:03Z</time></trkpt><trkpt lat="43.59018301381638" lon="6.906525056214242"><ele>197.0</ele><time>2026-04-12T11:12:04Z</time></trkpt><trkpt lat="43.59010048376601" lon="6.90648405458717"><ele>196.0</ele><time>2026-04-12T11:12:05Z</time></trkpt><trkpt lat="43.5900270614229" lon="6.906427151920816"><ele>195.0</ele><time>2026-04-12T11:12:06Z</time></trkpt><trkpt lat="43.589973669337965" lon="6.906321203345889"><ele>194.0</ele><time>2026-04-12T11:12:07Z</time></trkpt><trkpt lat="43.589937985800184" lon="6.906193107327725"><ele>194.00000000000003</ele><time>2026-04-12T11:12:08Z</time></trkpt><trkpt lat="43.58990200510515" lon="6.906068176532036"><ele>194.0</ele><time>2026-04-12T11:12:09Z</time></trkpt><trkpt lat="43.58986511639575" lon="6.90594601773156"><ele>194.0</ele><time>2026-04-12T11:12:10Z</time></trkpt><trkpt lat="43.58984073651427" lon="6.905828053888358"><ele>194.0</ele><time>2026-04-12T11:12:11Z</time></trkpt><trkpt lat="43.58981540575694" lon="6.905721133772582"><ele>194.00000000000003</ele><time>2026-04-12T11:12:12Z</time></trkpt><trkpt lat="43.589771030734966" lon="6.905636222161866"><ele>194.0</ele><time>2026-04-12T11:12:13Z</time></trkpt><trkpt lat="43.58970142377016" lon="6.905580367331843"><ele>195.2</ele><time>2026-04-12T11:12:14Z</time></trkpt><trkpt lat="43.58961469733835" lon="6.905567893681734"><ele>196.39999999999998</ele><time>2026-04-12T11:12:15Z</time></trkpt><trkpt lat="43.58952868704739" lon="6.905602973229384"><ele>197.6</ele><time>2026-04-12T11:12:16Z</time></trkpt><trkpt lat="43.58945181220421" lon="6.905666857968579"><ele>198.8</ele><time>2026-04-12T11:12:17Z</time></trkpt><trkpt lat="43.58938907563937" lon="6.905761449965486"><ele>200.0</ele><time>2026-04-12T11:12:18Z</time></trkpt><trkpt lat="43.5893444050931" lon="6.905875087929659"><ele>200.00000000000003</ele><time>2026-04-12T11:12:19Z</time></trkpt><trkpt lat="43.58929716157509" lon="6.905984336417134"><ele>200.0</ele><time>2026-04-12T11:12:20Z</time></trkpt><trkpt lat="43.58923608528467" lon="6.906066240066096"><ele>200.0</ele><time>2026-04-12T11:12:21Z</time></trkpt><trkpt lat="43.589153123660275" lon="6.906101887162331"><ele>200.0</ele><time>2026-04-12T11:12:22Z</time></trkpt><trkpt lat="43.5890668998068" lon="6.906047596038676"><ele>200.00000000000003</ele><time>2026-04-12T11:12:23Z</time></trkpt><trkpt lat="43.58898856264734" lon="6.9059897370052195"><ele>200.0</ele><time>2026-04-12T11:12:24Z</time></trkpt><trkpt lat="43.58892544748289" lon="6.90590195599049"><ele>200.00000000000003</ele><time>2026-04-12T11:12:25Z</time></trkpt><trkpt lat="43.58885106600005" lon="6.905853257550985"><ele>200.0</ele><time>2026-04-12T11:12:26Z</time></trkpt><trkpt lat="43.58877049368107" lon="6.905856609544644"><ele>200.0</ele><time>2026-04-12T11:12:27Z</time></trkpt><trkpt lat="43.588697194597316" lon="6.905897954946426"><ele>200.0</ele><time>2026-04-12T11:12:28Z</time></trkpt><trkpt lat="43.588642918846325" lon="6.905980648454735"><ele>200.00000000000003</ele><time>2026-04-12T11:12:29Z</time></trkpt><trkpt lat="43.58860392707134" lon="6.906082958399664"><ele>200.0</ele><time>2026-04-12T11:12:30Z</time></trkpt><trkpt lat="43.58864648194072" lon="6.906221093008973"><ele>200.66666666666669</ele><time>2026-04-12T11:12:31Z</time></trkpt><trkpt lat="43.588666614139754" lon="6.906336154459635"><ele>201.33333333333334</ele><time>2026-04-12T11:12:32Z</time></trkpt><trkpt lat="43.58867260753001" lon="6.906454185712914"><ele>202.0</ele><time>2026-04-12T11:12:33Z</time></trkpt><trkpt lat="43.588689591032725" lon="6.906572433385662"><ele>202.66666666666669</ele><time>2026-04-12T11:12:34Z</time></trkpt><trkpt lat="43.58872103161733" lon="6.906691251547312"><ele>203.33333333333334</ele><time>2026-04-12T11:12:35Z</time></trkpt><trkpt lat="43.588754424100834" lon="6.906810225152503"><ele>204.0</ele><time>2026-04-12T11:12:36Z</time></trkpt><trkpt lat="43.588781402300604" lon="6.906934367276469"><ele>199.39999999999998</ele><time>2026-04-12T11:12:37Z</time></trkpt><trkpt lat="43.58879716673131" lon="6.907066622865467"><ele>194.8</ele><time>2026-04-12T11:12:38Z</time></trkpt><trkpt lat="43.58878542761392" lon="6.907206486296976"><ele>190.2</ele><time>2026-04-12T11:12:39Z</time></trkpt><trkpt lat="43.58881127305782" lon="6.9073406684938305"><ele>185.60000000000002</ele><time>2026-04-12T11:12:40Z</time></trkpt><trkpt lat="43.58884724525667" lon="6.907471261712756"><ele>181.0</ele><time>2026-04-12T11:12:41Z</time></trkpt><trkpt lat="43.58890103994777" lon="6.907594653674058"><ele>181.0</ele><time>2026-04-12T11:12:42Z</time></trkpt><trkpt lat="43.588953505443" lon="6.907719011618231"><ele>181.0</ele><time>2026-04-12T11:12:43Z</time></trkpt><trkpt lat="43.58899270005142" lon="6.907852944085428"><ele>181.0</ele><time>2026-04-12T11:12:44Z</time></trkpt><trkpt lat="43.58903361872302" lon="6.907987510408889"><ele>181.0</ele><time>2026-04-12T11:12:45Z</time></trkpt><trkpt lat="43.589078283809314" lon="6.90810816724741"><ele>181.0</ele><time>2026-04-12T11:12:46Z</time></trkpt><trkpt lat="43.58912697449273" lon="6.908214837619777"><ele>181.0</ele><time>2026-04-12T11:12:47Z</time></trkpt><trkpt lat="43.58919558257711" lon="6.908297041491957"><ele>181.0</ele><time>2026-04-12T11:12:48Z</time></trkpt><trkpt lat="43.58927861467454" lon="6.908346806050305"><ele>181.0</ele><time>2026-04-12T11:12:49Z</time></trkpt><trkpt lat="43.589357090216254" lon="6.908407515382947"><ele>181.0</ele><time>2026-04-12T11:12:50Z</time></trkpt><trkpt lat="43.589418435468694" lon="6.908511234199764"><ele>181.0</ele><time>2026-04-12T11:12:51Z</time></trkpt><trkpt lat="43.5894454806651" lon="6.9086404085681705"><ele>180.8</ele><time>2026-04-12T11:12:52Z</time></trkpt><trkpt lat="43.58947631915859" lon="6.9087667988503405"><ele>180.60000000000002</ele><time>2026-04-12T11:12:53Z</time></trkpt><trkpt lat="43.589513726626016" lon="6.908879547947193"><ele>180.4</ele><time>2026-04-12T11:12:54Z</time></trkpt><trkpt lat="43.589519587359355" lon="6.908994785816733"><ele>180.2</ele><time>2026-04-12T11:12:55Z</time></trkpt><trkpt lat="43.58949434771603" lon="6.909111430484589"><ele>180.0</ele><time>2026-04-12T11:12:56Z</time></trkpt><trkpt lat="43.589444372493595" lon="6.909219895811632"><ele>176.8</ele><time>2026-04-12T11:12:57Z</time></trkpt><trkpt lat="43.589392193396314" lon="6.90932356507063"><ele>173.6</ele><time>2026-04-12T11:12:58Z</time></trkpt><trkpt lat="43.58935772797598" lon="6.90944483050983"><ele>170.39999999999998</ele><time>2026-04-12T11:12:59Z</time></trkpt><trkpt lat="43.58933568727773" lon="6.909574990448283"><ele>167.2</ele><time>2026-04-12T11:13:00Z</time></trkpt><trkpt lat="43.589307409859806" lon="6.90970175172766"><ele>164.0</ele><time>2026-04-12T11:13:01Z</time></trkpt><trkpt lat="43.589279419376155" lon="6.909832121652292"><ele>164.0</ele><time>2026-04-12T11:13:02Z</time></trkpt><trkpt lat="43.58925276080949" lon="6.909963229185016"><ele>164.0</ele><time>2026-04-12T11:13:03Z</time></trkpt><trkpt lat="43.58920954881163" lon="6.910070682962679"><ele>164.0</ele><time>2026-04-12T11:13:04Z</time></trkpt><trkpt lat="43.589189943524964" lon="6.910171467150776"><ele>164.0</ele><time>2026-04-12T11:13:05Z</time></trkpt><trkpt lat="43.589128085536785" lon="6.910235537790227"><ele>164.0</ele><time>2026-04-12T11:13:06Z</time></trkpt><trkpt lat="43.58905497771871" lon="6.910260957125317"><ele>164.0</ele><time>2026-04-12T11:13:07Z</time></trkpt><trkpt lat="43.58898162513164" lon="6.910244684062451"><ele>164.83333333333331</ele><time>2026-04-12T11:13:08Z</time></trkpt><trkpt lat="43.5889129897025" lon="6.910186194077454"><ele>165.66666666666666</ele><time>2026-04-12T11:13:09Z</time></trkpt><trkpt lat="43.58884308226891" lon="6.9101347968180455"><ele>166.5</ele><time>2026-04-12T11:13:10Z</time></trkpt><trkpt lat="43.588761366825274" lon="6.910107999657862"><ele>167.33333333333334</ele><time>2026-04-12T11:13:11Z</time></trkpt><trkpt lat="43.588676077530806" lon="6.910098056838232"><ele>168.16666666666669</ele><time>2026-04-12T11:13:12Z</time></trkpt><trkpt lat="43.58858894446425" lon="6.910093832233299"><ele>169.0</ele><time>2026-04-12T11:13:13Z</time></trkpt><trkpt lat="43.58850023103747" lon="6.910064844830883"><ele>169.0</ele><time>2026-04-12T11:13:14Z</time></trkpt><trkpt lat="43.58841354755119" lon="6.910005738619183"><ele>169.0</ele><time>2026-04-12T11:13:15Z</time></trkpt><trkpt lat="43.588325124016244" lon="6.909957404876167"><ele>169.0</ele><time>2026-04-12T11:13:16Z</time></trkpt><trkpt lat="43.58822871228457" lon="6.909944224836246"><ele>169.0</ele><time>2026-04-12T11:13:17Z</time></trkpt><trkpt lat="43.5881342373446" lon="6.909960755963761"><ele>169.0</ele><time>2026-04-12T11:13:18Z</time></trkpt><trkpt lat="43.58805330779159" lon="6.91001252137597"><ele>164.0</ele><time>2026-04-12T11:13:19Z</time></trkpt><trkpt lat="43.587994960433385" lon="6.910104463553265"><ele>159.0</ele><time>2026-04-12T11:13:20Z</time></trkpt><trkpt lat="43.58794824919993" lon="6.910212371245819"><ele>154.0</ele><time>2026-04-12T11:13:21Z</time></trkpt><trkpt lat="43.58789512729536" lon="6.910337979796944"><ele>149.0</ele><time>2026-04-12T11:13:22Z</time></trkpt><trkpt lat="43.58798291066415" lon="6.9105032399270545"><ele>144.0</ele><time>2026-04-12T11:13:23Z</time></trkpt><trkpt lat="43.58799380065447" lon="6.910636292637008"><ele>144.0</ele><time>2026-04-12T11:13:24Z</time></trkpt><trkpt lat="43.58799928944343" lon="6.910773805788105"><ele>144.0</ele><time>2026-04-12T11:13:25Z</time></trkpt><trkpt lat="43.588005429061454" lon="6.910914697597032"><ele>144.0</ele><time>2026-04-12T11:13:26Z</time></trkpt><trkpt lat="43.58801202145451" lon="6.911059166609561"><ele>144.0</ele><time>2026-04-12T11:13:27Z</time></trkpt><trkpt lat="43.58800174395957" lon="6.911206947908767"><ele>144.0</ele><time>2026-04-12T11:13:28Z</time></trkpt><trkpt lat="43.58802348470057" lon="6.911355816592075"><ele>141.5</ele><time>2026-04-12T11:13:29Z</time></trkpt><trkpt lat="43.58801264074698" lon="6.911510755416901"><ele>139.0</ele><time>2026-04-12T11:13:30Z</time></trkpt><trkpt lat="43.588017914532685" lon="6.91166870343815"><ele>136.5</ele><time>2026-04-12T11:13:31Z</time></trkpt><trkpt lat="43.588027191481864" lon="6.9118267125211"><ele>134.0</ele><time>2026-04-12T11:13:32Z</time></trkpt><trkpt lat="43.588044672851375" lon="6.911989569325457"><ele>133.75</ele><time>2026-04-12T11:13:33Z</time></trkpt><trkpt lat="43.58807321162129" lon="6.912150965116256"><ele>133.5</ele><time>2026-04-12T11:13:34Z</time></trkpt><trkpt lat="43.58812467429244" lon="6.912300742918543"><ele>133.25</ele><time>2026-04-12T11:13:35Z</time></trkpt><trkpt lat="43.588155924820335" lon="6.912461652537018"><ele>133.0</ele><time>2026-04-12T11:13:36Z</time></trkpt><trkpt lat="43.588188127821546" lon="6.912613649586854"><ele>133.0</ele><time>2026-04-12T11:13:37Z</time></trkpt><trkpt lat="43.58821337351411" lon="6.91276113752409"><ele>133.0</ele><time>2026-04-12T11:13:38Z</time></trkpt><trkpt lat="43.58821706232404" lon="6.91289954567925"><ele>133.0</ele><time>2026-04-12T11:13:39Z</time></trkpt><trkpt lat="43.58823616217467" lon="6.91301866525906"><ele>133.0</ele><time>2026-04-12T11:13:40Z</time></trkpt><trkpt lat="43.58823894934865" lon="6.913147682677344"><ele>133.0</ele><time>2026-04-12T11:13:41Z</time></trkpt><trkpt lat="43.58822905508111" lon="6.913284766906114"><ele>132.0</ele><time>2026-04-12T11:13:42Z</time></trkpt><trkpt lat="43.588181768102366" lon="6.91341663881655"><ele>131.0</ele><time>2026-04-12T11:13:43Z</time></trkpt><trkpt lat="43.58816409047143" lon="6.913562124009835"><ele>130.0</ele><time>2026-04-12T11:13:44Z</time></trkpt><trkpt lat="43.58816193529066" lon="6.913716467531718"><ele>129.0</ele><time>2026-04-12T11:13:45Z</time></trkpt><trkpt lat="43.58816058849601" lon="6.9138687375577295"><ele>128.0</ele><time>2026-04-12T11:13:46Z</time></trkpt><trkpt lat="43.58815921299765" lon="6.914024252688301"><ele>128.0</ele><time>2026-04-12T11:13:47Z</time></trkpt><trkpt lat="43.58815780168924" lon="6.914183816802268"><ele>128.0</ele><time>2026-04-12T11:13:48Z</time></trkpt><trkpt lat="43.5881626458642" lon="6.914345126960788"><ele>128.0</ele><time>2026-04-12T11:13:49Z</time></trkpt><trkpt lat="43.58811677177857" lon="6.914490658673831"><ele>128.0</ele><time>2026-04-12T11:13:50Z</time></trkpt><trkpt lat="43.58808280894147" lon="6.914619679812163"><ele>128.0</ele><time>2026-04-12T11:13:51Z</time></trkpt><trkpt lat="43.588052776855555" lon="6.914733259309664"><ele>126.66666666666666</ele><time>2026-04-12T11:13:52Z</time></trkpt><trkpt lat="43.588028397405715" lon="6.914842159473038"><ele>125.33333333333333</ele><time>2026-04-12T11:13:53Z</time></trkpt><trkpt lat="43.58796017415737" lon="6.914913862605073"><ele>124.0</ele><time>2026-04-12T11:13:54Z</time></trkpt><trkpt lat="43.587868244011176" lon="6.91495074248489"><ele>122.66666666666666</ele><time>2026-04-12T11:13:55Z</time></trkpt><trkpt lat="43.587779711529414" lon="6.9149579430207435"><ele>121.33333333333333</ele><time>2026-04-12T11:13:56Z</time></trkpt><trkpt lat="43.58769768314173" lon="6.91497828526698"><ele>120.0</ele><time>2026-04-12T11:13:57Z</time></trkpt><trkpt lat="43.58762495864054" lon="6.915025510206419"><ele>117.66666666666667</ele><time>2026-04-12T11:13:58Z</time></trkpt><trkpt lat="43.58757207870515" lon="6.915114674176377"><ele>115.33333333333334</ele><time>2026-04-12T11:13:59Z</time></trkpt><trkpt lat="43.58754087247277" lon="6.9152304770313835"><ele>113.0</ele><time>2026-04-12T11:14:00Z</time></trkpt><trkpt lat="43.587567553012285" lon="6.91534007418546"><ele>110.66666666666667</ele><time>2026-04-12T11:14:01Z</time></trkpt><trkpt lat="43.58761790728163" lon="6.915426793658929"><ele>108.33333333333334</ele><time>2026-04-12T11:14:02Z</time></trkpt><trkpt lat="43.58769588454269" lon="6.915478084029105"><ele>106.0</ele><time>2026-04-12T11:14:03Z</time></trkpt><trkpt lat="43.58778440048555" lon="6.915487747626482"><ele>106.33333333333334</ele><time>2026-04-12T11:14:04Z</time></trkpt><trkpt lat="43.58787421400353" lon="6.915479776724411"><ele>106.66666666666667</ele><time>2026-04-12T11:14:05Z</time></trkpt><trkpt lat="43.58796743297917" lon="6.915480285272186"><ele>107.0</ele><time>2026-04-12T11:14:06Z</time></trkpt><trkpt lat="43.588057179029825" lon="6.915482140808348"><ele>107.33333333333334</ele><time>2026-04-12T11:14:07Z</time></trkpt><trkpt lat="43.5881437518225" lon="6.9154676328207305"><ele>107.66666666666667</ele><time>2026-04-12T11:14:08Z</time></trkpt><trkpt lat="43.58822845703718" lon="6.915431912796777"><ele>108.0</ele><time>2026-04-12T11:14:09Z</time></trkpt><trkpt lat="43.58830308450384" lon="6.915365141835185"><ele>108.0</ele><time>2026-04-12T11:14:10Z</time></trkpt><trkpt lat="43.58835673593248" lon="6.91526086959863"><ele>108.0</ele><time>2026-04-12T11:14:11Z</time></trkpt><trkpt lat="43.588375603313416" lon="6.915130749825491"><ele>108.0</ele><time>2026-04-12T11:14:12Z</time></trkpt><trkpt lat="43.588361790868404" lon="6.914998231659294"><ele>108.0</ele><time>2026-04-12T11:14:13Z</time></trkpt><trkpt lat="43.58834635889127" lon="6.914892157168112"><ele>108.0</ele><time>2026-04-12T11:14:14Z</time></trkpt><trkpt lat="43.58835902336212" lon="6.914799084588218"><ele>108.0</ele><time>2026-04-12T11:14:15Z</time></trkpt><trkpt lat="43.588404869384" lon="6.914727640734382"><ele>108.0</ele><time>2026-04-12T11:14:16Z</time></trkpt><trkpt lat="43.58846497290942" lon="6.914690245648104"><ele>108.0</ele><time>2026-04-12T11:14:17Z</time></trkpt><trkpt lat="43.58852749788017" lon="6.914708416017217"><ele>108.0</ele><time>2026-04-12T11:14:18Z</time></trkpt><trkpt lat="43.58856872726528" lon="6.914812890677013"><ele>108.0</ele><time>2026-04-12T11:14:19Z</time></trkpt><trkpt lat="43.58857835501479" lon="6.914923290402731"><ele>108.0</ele><time>2026-04-12T11:14:20Z</time></trkpt><trkpt lat="43.58857762101995" lon="6.915030612444838"><ele>108.0</ele><time>2026-04-12T11:14:21Z</time></trkpt><trkpt lat="43.58860823623816" lon="6.915135860667552"><ele>108.0</ele><time>2026-04-12T11:14:22Z</time></trkpt><trkpt lat="43.588660442894614" lon="6.915229635170255"><ele>108.00000000000001</ele><time>2026-04-12T11:14:23Z</time></trkpt><trkpt lat="43.58873926157119" lon="6.915300903764122"><ele>108.00000000000001</ele><time>2026-04-12T11:14:24Z</time></trkpt><trkpt lat="43.58882441196165" lon="6.915359774207135"><ele>108.0</ele><time>2026-04-12T11:14:25Z</time></trkpt><trkpt lat="43.58890454792289" lon="6.915428788447043"><ele>108.0</ele><time>2026-04-12T11:14:26Z</time></trkpt><trkpt lat="43.5889795881042" lon="6.91551500325604"><ele>105.80000000000001</ele><time>2026-04-12T11:14:27Z</time></trkpt><trkpt lat="43.58903841743999" lon="6.9156285959076165"><ele>103.60000000000001</ele><time>2026-04-12T11:14:28Z</time></trkpt><trkpt lat="43.58910337635827" lon="6.91572202605082"><ele>101.4</ele><time>2026-04-12T11:14:29Z</time></trkpt><trkpt lat="43.58915533124981" lon="6.915804044497626"><ele>99.19999999999999</ele><time>2026-04-12T11:14:30Z</time></trkpt><trkpt lat="43.58919032778589" lon="6.915881839720168"><ele>97.0</ele><time>2026-04-12T11:14:31Z</time></trkpt><trkpt lat="43.589180481461774" lon="6.916032458168097"><ele>97.00000000000001</ele><time>2026-04-12T11:14:33Z</time></trkpt><trkpt lat="43.5891140941661" lon="6.916066799949066"><ele>97.0</ele><time>2026-04-12T11:14:34Z</time></trkpt><trkpt lat="43.58903564595989" lon="6.91606083688499"><ele>97.0</ele><time>2026-04-12T11:14:35Z</time></trkpt><trkpt lat="43.58895932917653" lon="6.916024451443531"><ele>97.0</ele><time>2026-04-12T11:14:36Z</time></trkpt><trkpt lat="43.5888875521393" lon="6.915971675871754"><ele>97.00000000000001</ele><time>2026-04-12T11:14:37Z</time></trkpt><trkpt lat="43.588815051040555" lon="6.915920708975827"><ele>97.0</ele><time>2026-04-12T11:14:38Z</time></trkpt><trkpt lat="43.58874455173742" lon="6.915864655430364"><ele>95.19999999999999</ele><time>2026-04-12T11:14:39Z</time></trkpt><trkpt lat="43.58867079378219" lon="6.915798633605269"><ele>93.4</ele><time>2026-04-12T11:14:40Z</time></trkpt><trkpt lat="43.58859125357292" lon="6.915755706521385"><ele>91.6</ele><time>2026-04-12T11:14:41Z</time></trkpt><trkpt lat="43.588502040169224" lon="6.915761528844298"><ele>89.80000000000001</ele><time>2026-04-12T11:14:42Z</time></trkpt><trkpt lat="43.58841766170687" lon="6.915822741328206"><ele>88.0</ele><time>2026-04-12T11:14:43Z</time></trkpt><trkpt lat="43.588355508670006" lon="6.915929430329733"><ele>88.0</ele><time>2026-04-12T11:14:44Z</time></trkpt><trkpt lat="43.58830368957925" lon="6.91604347269674"><ele>88.0</ele><time>2026-04-12T11:14:45Z</time></trkpt><trkpt lat="43.58825761101773" lon="6.91615970321852"><ele>88.0</ele><time>2026-04-12T11:14:46Z</time></trkpt><trkpt lat="43.58822342457617" lon="6.916285711762208"><ele>88.0</ele><time>2026-04-12T11:14:47Z</time></trkpt><trkpt lat="43.588194795213475" lon="6.916417211239654"><ele>88.0</ele><time>2026-04-12T11:14:48Z</time></trkpt><trkpt lat="43.58816785589357" lon="6.916533109358403"><ele>88.0</ele><time>2026-04-12T11:14:49Z</time></trkpt><trkpt lat="43.58812842017617" lon="6.916617975519835"><ele>88.0</ele><time>2026-04-12T11:14:50Z</time></trkpt><trkpt lat="43.588065263808566" lon="6.916661219589693"><ele>88.0</ele><time>2026-04-12T11:14:51Z</time></trkpt><trkpt lat="43.58798524295327" lon="6.916654516638818"><ele>88.0</ele><time>2026-04-12T11:14:52Z</time></trkpt><trkpt lat="43.58790999744147" lon="6.916604295066519"><ele>88.0</ele><time>2026-04-12T11:14:53Z</time></trkpt><trkpt lat="43.587841712955964" lon="6.916555243178558"><ele>88.0</ele><time>2026-04-12T11:14:54Z</time></trkpt><trkpt lat="43.587774595261784" lon="6.916539658734629"><ele>87.16666666666666</ele><time>2026-04-12T11:14:55Z</time></trkpt><trkpt lat="43.58771489125991" lon="6.91658524857965"><ele>86.33333333333333</ele><time>2026-04-12T11:14:56Z</time></trkpt><trkpt lat="43.58768120396655" lon="6.91668388059504"><ele>85.5</ele><time>2026-04-12T11:14:57Z</time></trkpt><trkpt lat="43.58766727408058" lon="6.916791709150064"><ele>84.66666666666667</ele><time>2026-04-12T11:14:58Z</time></trkpt><trkpt lat="43.587714050701805" lon="6.916896965381444"><ele>83.83333333333334</ele><time>2026-04-12T11:14:59Z</time></trkpt><trkpt lat="43.58780376883264" lon="6.916933615378193"><ele>83.0</ele><time>2026-04-12T11:15:00Z</time></trkpt><trkpt lat="43.587884265131045" lon="6.916941995430166"><ele>79.83333333333334</ele><time>2026-04-12T11:15:01Z</time></trkpt><trkpt lat="43.58796603489878" lon="6.916935751092789"><ele>76.66666666666667</ele><time>2026-04-12T11:15:02Z</time></trkpt><trkpt lat="43.588045308145894" lon="6.916967066059719"><ele>73.5</ele><time>2026-04-12T11:15:03Z</time></trkpt><trkpt lat="43.58812016690136" lon="6.916963642710009"><ele>70.33333333333333</ele><time>2026-04-12T11:15:04Z</time></trkpt><trkpt lat="43.58819026824956" lon="6.916965604017338"><ele>67.16666666666666</ele><time>2026-04-12T11:15:05Z</time></trkpt><trkpt lat="43.58825945056518" lon="6.916930943486004"><ele>64.0</ele><time>2026-04-12T11:15:06Z</time></trkpt><trkpt lat="43.588317875354996" lon="6.916847617583516"><ele>68.80000000000001</ele><time>2026-04-12T11:15:07Z</time></trkpt><trkpt lat="43.58835129664114" lon="6.916727378314059"><ele>73.60000000000001</ele><time>2026-04-12T11:15:08Z</time></trkpt><trkpt lat="43.58837085446271" lon="6.916601419369339"><ele>78.4</ele><time>2026-04-12T11:15:09Z</time></trkpt><trkpt lat="43.588400842887815" lon="6.916484903102423"><ele>83.2</ele><time>2026-04-12T11:15:10Z</time></trkpt><trkpt lat="43.58843798407475" lon="6.9163939422669545"><ele>88.0</ele><time>2026-04-12T11:15:11Z</time></trkpt><trkpt lat="43.58854374957359" lon="6.916310826027771"><ele>88.0</ele><time>2026-04-12T11:15:13Z</time></trkpt><trkpt lat="43.58861308665541" lon="6.916383927164401"><ele>88.0</ele><time>2026-04-12T11:15:14Z</time></trkpt><trkpt lat="43.58866190637826" lon="6.916473422623351"><ele>88.0</ele><time>2026-04-12T11:15:15Z</time></trkpt><trkpt lat="43.58871752239694" lon="6.916554695225946"><ele>88.0</ele><time>2026-04-12T11:15:16Z</time></trkpt><trkpt lat="43.58877252988543" lon="6.9166453363115945"><ele>88.0</ele><time>2026-04-12T11:15:17Z</time></trkpt><trkpt lat="43.58883517971474" lon="6.916732287877274"><ele>88.0</ele><time>2026-04-12T11:15:18Z</time></trkpt><trkpt lat="43.58889484485646" lon="6.916822275223588"><ele>84.66666666666666</ele><time>2026-04-12T11:15:19Z</time></trkpt><trkpt lat="43.588965415187275" lon="6.916894687410921"><ele>81.33333333333333</ele><time>2026-04-12T11:15:20Z</time></trkpt><trkpt lat="43.58906379804039" lon="6.916883946217421"><ele>78.0</ele><time>2026-04-12T11:15:21Z</time></trkpt><trkpt lat="43.58913676421951" lon="6.916943012924077"><ele>74.66666666666667</ele><time>2026-04-12T11:15:22Z</time></trkpt><trkpt lat="43.589187570052786" lon="6.917035548455379"><ele>71.33333333333334</ele><time>2026-04-12T11:15:23Z</time></trkpt><trkpt lat="43.58921254099988" lon="6.917153415292018"><ele>68.0</ele><time>2026-04-12T11:15:24Z</time></trkpt><trkpt lat="43.589251121580645" lon="6.917271474002591"><ele>68.0</ele><time>2026-04-12T11:15:25Z</time></trkpt><trkpt lat="43.58926763264736" lon="6.917386144868854"><ele>68.0</ele><time>2026-04-12T11:15:26Z</time></trkpt><trkpt lat="43.58928662231931" lon="6.917478895027988"><ele>68.0</ele><time>2026-04-12T11:15:27Z</time></trkpt><trkpt lat="43.589307485368224" lon="6.917563599284319"><ele>68.0</ele><time>2026-04-12T11:15:28Z</time></trkpt><trkpt lat="43.589348313383255" lon="6.917640218675874"><ele>68.0</ele><time>2026-04-12T11:15:29Z</time></trkpt><trkpt lat="43.589411720987194" lon="6.917703693403641"><ele>68.0</ele><time>2026-04-12T11:15:30Z</time></trkpt><trkpt lat="43.58950667306074" lon="6.917697464229909"><ele>65.83333333333334</ele><time>2026-04-12T11:15:31Z</time></trkpt><trkpt lat="43.589589999250734" lon="6.9176063631482245"><ele>63.66666666666667</ele><time>2026-04-12T11:15:32Z</time></trkpt><trkpt lat="43.589655394005185" lon="6.917561837879962"><ele>61.5</ele><time>2026-04-12T11:15:33Z</time></trkpt><trkpt lat="43.58971619230918" lon="6.917584994048845"><ele>59.33333333333333</ele><time>2026-04-12T11:15:34Z</time></trkpt><trkpt lat="43.58975365977128" lon="6.917678385016918"><ele>57.166666666666664</ele><time>2026-04-12T11:15:35Z</time></trkpt><trkpt lat="43.58974211110613" lon="6.917793790969886"><ele>55.0</ele><time>2026-04-12T11:15:36Z</time></trkpt><trkpt lat="43.58968476663616" lon="6.917888781894494"><ele>53.99999999999999</ele><time>2026-04-12T11:15:37Z</time></trkpt><trkpt lat="43.58960963865955" lon="6.9179538048414395"><ele>53.0</ele><time>2026-04-12T11:15:38Z</time></trkpt><trkpt lat="43.58953662036702" lon="6.918013395371275"><ele>52.0</ele><time>2026-04-12T11:15:39Z</time></trkpt><trkpt lat="43.589473538457234" lon="6.9180810251813165"><ele>51.0</ele><time>2026-04-12T11:15:40Z</time></trkpt><trkpt lat="43.58940544958597" lon="6.9181239886952275"><ele>49.99999999999999</ele><time>2026-04-12T11:15:41Z</time></trkpt><trkpt lat="43.58932449979075" lon="6.91812400457288"><ele>49.0</ele><time>2026-04-12T11:15:42Z</time></trkpt><trkpt lat="43.58925321984616" lon="6.918072224922097"><ele>48.99999999999999</ele><time>2026-04-12T11:15:43Z</time></trkpt><trkpt lat="43.58919916593004" lon="6.91797419652337"><ele>49.0</ele><time>2026-04-12T11:15:44Z</time></trkpt><trkpt lat="43.589156752162" lon="6.917860756316248"><ele>49.0</ele><time>2026-04-12T11:15:45Z</time></trkpt><trkpt lat="43.58912268057533" lon="6.9177408477349385"><ele>49.0</ele><time>2026-04-12T11:15:46Z</time></trkpt><trkpt lat="43.58910774680623" lon="6.917616841856804"><ele>48.99999999999999</ele><time>2026-04-12T11:15:47Z</time></trkpt><trkpt lat="43.58909608258523" lon="6.917508278044129"><ele>49.0</ele><time>2026-04-12T11:15:48Z</time></trkpt><trkpt lat="43.58905322387846" lon="6.917424296381348"><ele>52.0</ele><time>2026-04-12T11:15:49Z</time></trkpt><trkpt lat="43.58897049338814" lon="6.917377396348769"><ele>55.0</ele><time>2026-04-12T11:15:50Z</time></trkpt><trkpt lat="43.588870060553525" lon="6.917380442598158"><ele>58.00000000000001</ele><time>2026-04-12T11:15:51Z</time></trkpt><trkpt lat="43.588773599863345" lon="6.917408618561943"><ele>61.0</ele><time>2026-04-12T11:15:52Z</time></trkpt><trkpt lat="43.58868360998054" lon="6.91744755678395"><ele>64.0</ele><time>2026-04-12T11:15:53Z</time></trkpt><trkpt lat="43.58861655868723" lon="6.917529189254123"><ele>59.6</ele><time>2026-04-12T11:15:54Z</time></trkpt><trkpt lat="43.58858268581273" lon="6.917660125886086"><ele>55.2</ele><time>2026-04-12T11:15:55Z</time></trkpt><trkpt lat="43.58856248705194" lon="6.917795239486844"><ele>50.800000000000004</ele><time>2026-04-12T11:15:56Z</time></trkpt><trkpt lat="43.58851003124889" lon="6.917910129677927"><ele>46.400000000000006</ele><time>2026-04-12T11:15:57Z</time></trkpt><trkpt lat="43.58846876647405" lon="6.918012466364636"><ele>42.0</ele><time>2026-04-12T11:15:58Z</time></trkpt><trkpt lat="43.588428515849564" lon="6.9180996250942535"><ele>42.0</ele><time>2026-04-12T11:15:59Z</time></trkpt><trkpt lat="43.58838363250856" lon="6.918182222167312"><ele>42.0</ele><time>2026-04-12T11:16:00Z</time></trkpt><trkpt lat="43.588298069187395" lon="6.918211571711203"><ele>42.0</ele><time>2026-04-12T11:16:01Z</time></trkpt><trkpt lat="43.58819903019804" lon="6.918188066314673"><ele>42.0</ele><time>2026-04-12T11:16:02Z</time></trkpt><trkpt lat="43.588106349621576" lon="6.918122186195774"><ele>42.0</ele><time>2026-04-12T11:16:03Z</time></trkpt><trkpt lat="43.58801864839284" lon="6.918054067198594"><ele>42.0</ele><time>2026-04-12T11:16:04Z</time></trkpt><trkpt lat="43.5879318827438" lon="6.917990061425361"><ele>42.0</ele><time>2026-04-12T11:16:05Z</time></trkpt><trkpt lat="43.58784233136885" lon="6.917939888859957"><ele>42.0</ele><time>2026-04-12T11:16:06Z</time></trkpt><trkpt lat="43.587758157893134" lon="6.917904908111989"><ele>42.0</ele><time>2026-04-12T11:16:07Z</time></trkpt><trkpt lat="43.5876860905285" lon="6.917864314144884"><ele>42.0</ele><time>2026-04-12T11:16:08Z</time></trkpt><trkpt lat="43.58761858344443" lon="6.917821653792721"><ele>42.0</ele><time>2026-04-12T11:16:09Z</time></trkpt><trkpt lat="43.58754332364813" lon="6.917810907056474"><ele>44.666666666666664</ele><time>2026-04-12T11:16:10Z</time></trkpt><trkpt lat="43.58747275985753" lon="6.917846451889944"><ele>47.33333333333333</ele><time>2026-04-12T11:16:11Z</time></trkpt><trkpt lat="43.58742718525502" lon="6.917945272601484"><ele>50.0</ele><time>2026-04-12T11:16:12Z</time></trkpt><trkpt lat="43.5874295397863" lon="6.918074705679181"><ele>52.666666666666664</ele><time>2026-04-12T11:16:13Z</time></trkpt><trkpt lat="43.58747312366635" lon="6.918191110140795"><ele>55.33333333333333</ele><time>2026-04-12T11:16:14Z</time></trkpt><trkpt lat="43.587510364283276" lon="6.918299843428126"><ele>58.0</ele><time>2026-04-12T11:16:15Z</time></trkpt><trkpt lat="43.587561173101136" lon="6.918393862077193"><ele>58.49999999999999</ele><time>2026-04-12T11:16:16Z</time></trkpt><trkpt lat="43.587628431481676" lon="6.9184645900835795"><ele>59.0</ele><time>2026-04-12T11:16:17Z</time></trkpt><trkpt lat="43.587686545488054" lon="6.918545200036587"><ele>59.5</ele><time>2026-04-12T11:16:18Z</time></trkpt><trkpt lat="43.58774884678145" lon="6.918620570336658"><ele>60.0</ele><time>2026-04-12T11:16:19Z</time></trkpt><trkpt lat="43.58781203520696" lon="6.918695298272571"><ele>60.49999999999999</ele><time>2026-04-12T11:16:20Z</time></trkpt><trkpt lat="43.587879121135884" lon="6.918771182983532"><ele>61.0</ele><time>2026-04-12T11:16:21Z</time></trkpt><trkpt lat="43.58794919625412" lon="6.918850033899277"><ele>55.4</ele><time>2026-04-12T11:16:22Z</time></trkpt><trkpt lat="43.58801344647259" lon="6.918931292841575"><ele>49.8</ele><time>2026-04-12T11:16:23Z</time></trkpt><trkpt lat="43.58805931820661" lon="6.91903832178179"><ele>44.199999999999996</ele><time>2026-04-12T11:16:24Z</time></trkpt><trkpt lat="43.58806595685742" lon="6.919180750068967"><ele>38.599999999999994</ele><time>2026-04-12T11:16:25Z</time></trkpt><trkpt lat="43.58812207154942" lon="6.919291832271537"><ele>33.0</ele><time>2026-04-12T11:16:26Z</time></trkpt><trkpt lat="43.58816734537088" lon="6.9194015637709745"><ele>33.0</ele><time>2026-04-12T11:16:27Z</time></trkpt><trkpt lat="43.588227960160346" lon="6.9194811587319025"><ele>33.0</ele><time>2026-04-12T11:16:28Z</time></trkpt><trkpt lat="43.588279796016224" lon="6.919545873663573"><ele>33.0</ele><time>2026-04-12T11:16:29Z</time></trkpt><trkpt lat="43.58831833428448" lon="6.91961473525423"><ele>33.0</ele><time>2026-04-12T11:16:30Z</time></trkpt><trkpt lat="43.58835349560034" lon="6.919690023275737"><ele>33.0</ele><time>2026-04-12T11:16:31Z</time></trkpt><trkpt lat="43.58835232597001" lon="6.9197943042223775"><ele>33.0</ele><time>2026-04-12T11:16:32Z</time></trkpt><trkpt lat="43.588305966389804" lon="6.91988388518325"><ele>33.0</ele><time>2026-04-12T11:16:33Z</time></trkpt><trkpt lat="43.58828430691034" lon="6.9199829228489325"><ele>31.5</ele><time>2026-04-12T11:16:34Z</time></trkpt><trkpt lat="43.58824598351233" lon="6.9200804345348015"><ele>30.0</ele><time>2026-04-12T11:16:35Z</time></trkpt><trkpt lat="43.58821381985475" lon="6.920180503745349"><ele>28.5</ele><time>2026-04-12T11:16:36Z</time></trkpt><trkpt lat="43.588182925617566" lon="6.920286512181033"><ele>27.0</ele><time>2026-04-12T11:16:37Z</time></trkpt><trkpt lat="43.58814456143193" lon="6.92039074696399"><ele>25.5</ele><time>2026-04-12T11:16:38Z</time></trkpt><trkpt lat="43.58816388817186" lon="6.920507345115347"><ele>24.0</ele><time>2026-04-12T11:16:39Z</time></trkpt><trkpt lat="43.58814794534481" lon="6.920607180573705"><ele>24.0</ele><time>2026-04-12T11:16:40Z</time></trkpt><trkpt lat="43.58812126976195" lon="6.920696150940657"><ele>24.0</ele><time>2026-04-12T11:16:41Z</time></trkpt><trkpt lat="43.58807421608434" lon="6.920768631573637"><ele>24.0</ele><time>2026-04-12T11:16:42Z</time></trkpt><trkpt lat="43.58799118387134" lon="6.920790666238903"><ele>24.0</ele><time>2026-04-12T11:16:43Z</time></trkpt><trkpt lat="43.58790842732936" lon="6.920757831746136"><ele>24.0</ele><time>2026-04-12T11:16:44Z</time></trkpt><trkpt lat="43.587834916597465" lon="6.920707255856426"><ele>24.0</ele><time>2026-04-12T11:16:45Z</time></trkpt><trkpt lat="43.58776800309479" lon="6.920683866802135"><ele>25.5</ele><time>2026-04-12T11:16:46Z</time></trkpt><trkpt lat="43.587704849173306" lon="6.920723734234923"><ele>27.0</ele><time>2026-04-12T11:16:47Z</time></trkpt><trkpt lat="43.587656863449254" lon="6.920817728378991"><ele>28.5</ele><time>2026-04-12T11:16:48Z</time></trkpt><trkpt lat="43.58763748653996" lon="6.920932524781939"><ele>30.0</ele><time>2026-04-12T11:16:49Z</time></trkpt><trkpt lat="43.587647502314994" lon="6.92105115968018"><ele>31.5</ele><time>2026-04-12T11:16:50Z</time></trkpt><trkpt lat="43.58766800942607" lon="6.921165360250005"><ele>33.0</ele><time>2026-04-12T11:16:51Z</time></trkpt><trkpt lat="43.58766633446909" lon="6.921285148901009"><ele>33.0</ele><time>2026-04-12T11:16:52Z</time></trkpt><trkpt lat="43.587676296222476" lon="6.921406469210462"><ele>33.0</ele><time>2026-04-12T11:16:53Z</time></trkpt><trkpt lat="43.5876880880639" lon="6.921529763233032"><ele>33.0</ele><time>2026-04-12T11:16:54Z</time></trkpt><trkpt lat="43.58769862915961" lon="6.921651122573154"><ele>33.0</ele><time>2026-04-12T11:16:55Z</time></trkpt><trkpt lat="43.58770372719545" lon="6.921764527783433"><ele>33.0</ele><time>2026-04-12T11:16:56Z</time></trkpt><trkpt lat="43.58771280301741" lon="6.921877265009507"><ele>33.0</ele><time>2026-04-12T11:16:57Z</time></trkpt><trkpt lat="43.58767755228504" lon="6.921982580721069"><ele>33.0</ele><time>2026-04-12T11:16:58Z</time></trkpt><trkpt lat="43.58764360728133" lon="6.922087735809047"><ele>33.0</ele><time>2026-04-12T11:16:59Z</time></trkpt><trkpt lat="43.5876451660314" lon="6.922204755009683"><ele>33.0</ele><time>2026-04-12T11:17:00Z</time></trkpt><trkpt lat="43.587682083013384" lon="6.922311821771064"><ele>33.0</ele><time>2026-04-12T11:17:01Z</time></trkpt><trkpt lat="43.587724229055" lon="6.922407624519771"><ele>33.0</ele><time>2026-04-12T11:17:02Z</time></trkpt><trkpt lat="43.58775939431736" lon="6.922508321770037"><ele>33.0</ele><time>2026-04-12T11:17:03Z</time></trkpt><trkpt lat="43.587789003273286" lon="6.92261753567386"><ele>33.666666666666664</ele><time>2026-04-12T11:17:04Z</time></trkpt><trkpt lat="43.5878184607102" lon="6.922727703994814"><ele>34.333333333333336</ele><time>2026-04-12T11:17:05Z</time></trkpt><trkpt lat="43.58782952461705" lon="6.922843390303617"><ele>35.0</ele><time>2026-04-12T11:17:06Z</time></trkpt><trkpt lat="43.587851667393075" lon="6.922955400570492"><ele>35.66666666666667</ele><time>2026-04-12T11:17:07Z</time></trkpt><trkpt lat="43.587870789840395" lon="6.923065163519545"><ele>36.333333333333336</ele><time>2026-04-12T11:17:08Z</time></trkpt><trkpt lat="43.58788612558294" lon="6.9231733637134045"><ele>37.0</ele><time>2026-04-12T11:17:09Z</time></trkpt><trkpt lat="43.58789486513087" lon="6.923278810351713"><ele>33.333333333333336</ele><time>2026-04-12T11:17:10Z</time></trkpt><trkpt lat="43.58790760634853" lon="6.923388574683629"><ele>29.666666666666668</ele><time>2026-04-12T11:17:11Z</time></trkpt><trkpt lat="43.58787886016434" lon="6.923494732945143"><ele>26.0</ele><time>2026-04-12T11:17:12Z</time></trkpt><trkpt lat="43.587871324681444" lon="6.923607938549134"><ele>22.333333333333336</ele><time>2026-04-12T11:17:13Z</time></trkpt><trkpt lat="43.58787015269859" lon="6.92371726057913"><ele>18.666666666666668</ele><time>2026-04-12T11:17:14Z</time></trkpt><trkpt lat="43.58788638030245" lon="6.9238210533217"><ele>15.0</ele><time>2026-04-12T11:17:15Z</time></trkpt><trkpt lat="43.58788401627083" lon="6.923931272213334"><ele>15.0</ele><time>2026-04-12T11:17:16Z</time></trkpt><trkpt lat="43.58786538100875" lon="6.924028952098508"><ele>15.0</ele><time>2026-04-12T11:17:17Z</time></trkpt><trkpt lat="43.587862743138956" lon="6.924128643351419"><ele>15.0</ele><time>2026-04-12T11:17:18Z</time></trkpt><trkpt lat="43.58786031376027" lon="6.924226460444852"><ele>15.0</ele><time>2026-04-12T11:17:19Z</time></trkpt><trkpt lat="43.587858037103736" lon="6.924320996771293"><ele>15.0</ele><time>2026-04-12T11:17:20Z</time></trkpt><trkpt lat="43.58785669835371" lon="6.9244145683990626"><ele>15.0</ele><time>2026-04-12T11:17:21Z</time></trkpt><trkpt lat="43.587852825411396" lon="6.924507298391394"><ele>15.0</ele><time>2026-04-12T11:17:22Z</time></trkpt><trkpt lat="43.58783245376726" lon="6.92459268851434"><ele>14.714285714285715</ele><time>2026-04-12T11:17:23Z</time></trkpt><trkpt lat="43.587801488469054" lon="6.924679110014342"><ele>14.428571428571427</ele><time>2026-04-12T11:17:24Z</time></trkpt><trkpt lat="43.58776449666243" lon="6.924763003483303"><ele>14.142857142857142</ele><time>2026-04-12T11:17:25Z</time></trkpt><trkpt lat="43.58772616730512" lon="6.924845204308838"><ele>13.857142857142858</ele><time>2026-04-12T11:17:26Z</time></trkpt><trkpt lat="43.587688661248386" lon="6.924926681679757"><ele>13.571428571428573</ele><time>2026-04-12T11:17:27Z</time></trkpt><trkpt lat="43.587650163250714" lon="6.925005095601412"><ele>13.285714285714285</ele><time>2026-04-12T11:17:28Z</time></trkpt><trkpt lat="43.587603512929945" lon="6.925073569892892"><ele>13.0</ele><time>2026-04-12T11:17:29Z</time></trkpt><trkpt lat="43.587545679362684" lon="6.925128899238032"><ele>13.0</ele><time>2026-04-12T11:17:30Z</time></trkpt><trkpt lat="43.58746708773763" lon="6.925132354978446"><ele>13.0</ele><time>2026-04-12T11:17:31Z</time></trkpt><trkpt lat="43.587393355398" lon="6.9251167516671535"><ele>13.0</ele><time>2026-04-12T11:17:32Z</time></trkpt><trkpt lat="43.58732411720629" lon="6.92510331781011"><ele>13.0</ele><time>2026-04-12T11:17:33Z</time></trkpt><trkpt lat="43.587257613677714" lon="6.925100321177734"><ele>13.0</ele><time>2026-04-12T11:17:34Z</time></trkpt><trkpt lat="43.58719166958735" lon="6.925113159149757"><ele>13.0</ele><time>2026-04-12T11:17:35Z</time></trkpt><trkpt lat="43.587128296434614" lon="6.92514165328996"><ele>13.0</ele><time>2026-04-12T11:17:36Z</time></trkpt><trkpt lat="43.58706719676051" lon="6.925177276285338"><ele>12.999999999999998</ele><time>2026-04-12T11:17:37Z</time></trkpt><trkpt lat="43.58700996569537" lon="6.925220590624255"><ele>13.0</ele><time>2026-04-12T11:17:38Z</time></trkpt><trkpt lat="43.5869307745316" lon="6.925329211678035"><ele>13.0</ele><time>2026-04-12T11:17:40Z</time></trkpt><trkpt lat="43.58688055602548" lon="6.925397765723184"><ele>13.0</ele><time>2026-04-12T11:17:47Z</time></trkpt><trkpt lat="43.586964163763874" lon="6.92551378477722"><ele>12.999999999999998</ele><time>2026-04-12T11:17:48Z</time></trkpt><trkpt lat="43.58701805492627" lon="6.925581198366753"><ele>13.0</ele><time>2026-04-12T11:17:50Z</time></trkpt><trkpt lat="43.58708514849584" lon="6.925645969103426"><ele>13.0</ele><time>2026-04-12T11:17:52Z</time></trkpt><trkpt lat="43.58715786674151" lon="6.925713385181579"><ele>13.0</ele><time>2026-04-12T11:17:54Z</time></trkpt><trkpt lat="43.58723808220647" lon="6.925790657110636"><ele>13.0</ele><time>2026-04-12T11:17:56Z</time></trkpt><trkpt lat="43.587322453237576" lon="6.925866330143913"><ele>13.0</ele><time>2026-04-12T11:17:58Z</time></trkpt><trkpt lat="43.58740867246347" lon="6.9259488936019595"><ele>13.0</ele><time>2026-04-12T11:18:00Z</time></trkpt><trkpt lat="43.58749786484972" lon="6.92603252817872"><ele>13.0</ele><time>2026-04-12T11:18:02Z</time></trkpt><trkpt lat="43.58758824384014" lon="6.926116208396608"><ele>13.0</ele><time>2026-04-12T11:18:04Z</time></trkpt><trkpt lat="43.5876790076826" lon="6.926208268054574"><ele>13.0</ele><time>2026-04-12T11:18:06Z</time></trkpt><trkpt lat="43.587764632478496" lon="6.9262922970529095"><ele>13.0</ele><time>2026-04-12T11:18:08Z</time></trkpt><trkpt lat="43.58785635647239" lon="6.9263669346725925"><ele>13.0</ele><time>2026-04-12T11:18:10Z</time></trkpt><trkpt lat="43.58794791207984" lon="6.926445652060367"><ele>12.8</ele><time>2026-04-12T11:18:12Z</time></trkpt><trkpt lat="43.588034970163754" lon="6.92653634152931"><ele>12.600000000000001</ele><time>2026-04-12T11:18:14Z</time></trkpt><trkpt lat="43.58812261955403" lon="6.926621712979633"><ele>12.399999999999999</ele><time>2026-04-12T11:18:16Z</time></trkpt><trkpt lat="43.58820930733725" lon="6.926710754804993"><ele>12.2</ele><time>2026-04-12T11:18:18Z</time></trkpt><trkpt lat="43.5883012534485" lon="6.926793438390457"><ele>12.0</ele><time>2026-04-12T11:18:20Z</time></trkpt><trkpt lat="43.58838922466286" lon="6.926879021748866"><ele>12.0</ele><time>2026-04-12T11:18:22Z</time></trkpt><trkpt lat="43.58847532075212" lon="6.92695935048818"><ele>12.0</ele><time>2026-04-12T11:18:24Z</time></trkpt><trkpt lat="43.5885592597033" lon="6.927040879246874"><ele>12.0</ele><time>2026-04-12T11:18:26Z</time></trkpt><trkpt lat="43.58863973042219" lon="6.9271243279832095"><ele>12.0</ele><time>2026-04-12T11:18:28Z</time></trkpt><trkpt lat="43.58871785310472" lon="6.927197748283738"><ele>12.0</ele><time>2026-04-12T11:18:30Z</time></trkpt><trkpt lat="43.588791605035716" lon="6.927271520481772"><ele>12.2</ele><time>2026-04-12T11:18:32Z</time></trkpt><trkpt lat="43.58886072498952" lon="6.927349265704"><ele>12.399999999999999</ele><time>2026-04-12T11:18:34Z</time></trkpt><trkpt lat="43.58893137241698" lon="6.927427445897804"><ele>12.600000000000001</ele><time>2026-04-12T11:18:36Z</time></trkpt><trkpt lat="43.58899723451368" lon="6.927518251719597"><ele>12.8</ele><time>2026-04-12T11:18:38Z</time></trkpt><trkpt lat="43.589064245768306" lon="6.927602792306257"><ele>13.0</ele><time>2026-04-12T11:18:40Z</time></trkpt><trkpt lat="43.589132251592396" lon="6.927688492459247"><ele>13.0</ele><time>2026-04-12T11:18:42Z</time></trkpt><trkpt lat="43.58920346358849" lon="6.927779442408087"><ele>13.0</ele><time>2026-04-12T11:18:44Z</time></trkpt><trkpt lat="43.589274901806306" lon="6.927870197762345"><ele>13.0</ele><time>2026-04-12T11:18:46Z</time></trkpt><trkpt lat="43.58935140965513" lon="6.927963603705329"><ele>13.0</ele><time>2026-04-12T11:18:48Z</time></trkpt><trkpt lat="43.58942834613607" lon="6.928061717887709"><ele>13.0</ele><time>2026-04-12T11:18:50Z</time></trkpt><trkpt lat="43.589506839205924" lon="6.928160442846901"><ele>13.166666666666666</ele><time>2026-04-12T11:18:52Z</time></trkpt><trkpt lat="43.58958907744452" lon="6.928266208844815"><ele>13.333333333333332</ele><time>2026-04-12T11:18:54Z</time></trkpt><trkpt lat="43.58968249369605" lon="6.928381115603989"><ele>13.5</ele><time>2026-04-12T11:18:56Z</time></trkpt><trkpt lat="43.58973190870756" lon="6.928442852094494"><ele>13.666666666666668</ele><time>2026-04-12T11:18:57Z</time></trkpt><trkpt lat="43.589782780042036" lon="6.928505512564567"><ele>13.833333333333334</ele><time>2026-04-12T11:18:58Z</time></trkpt><trkpt lat="43.58983622534807" lon="6.928570313224367"><ele>14.0</ele><time>2026-04-12T11:18:59Z</time></trkpt><trkpt lat="43.58989478320883" lon="6.928628322404434"><ele>14.000000000000002</ele><time>2026-04-12T11:19:00Z</time></trkpt><trkpt lat="43.58995995594499" lon="6.928675710506035"><ele>14.0</ele><time>2026-04-12T11:19:01Z</time></trkpt><trkpt lat="43.590027995653976" lon="6.928718740180132"><ele>14.0</ele><time>2026-04-12T11:19:02Z</time></trkpt><trkpt lat="43.590098342098386" lon="6.928752621053879"><ele>14.0</ele><time>2026-04-12T11:19:03Z</time></trkpt><trkpt lat="43.59017104920251" lon="6.928778626438889"><ele>14.000000000000002</ele><time>2026-04-12T11:19:04Z</time></trkpt><trkpt lat="43.59024461781096" lon="6.928804015067626"><ele>14.0</ele><time>2026-04-12T11:19:05Z</time></trkpt><trkpt lat="43.59031910856057" lon="6.928828795414196"><ele>14.142857142857142</ele><time>2026-04-12T11:19:06Z</time></trkpt><trkpt lat="43.59039129275809" lon="6.92885299333869"><ele>14.285714285714285</ele><time>2026-04-12T11:19:07Z</time></trkpt><trkpt lat="43.5904608119543" lon="6.9288789796323105"><ele>14.428571428571429</ele><time>2026-04-12T11:19:08Z</time></trkpt><trkpt lat="43.590526321325214" lon="6.9289116718657775"><ele>14.571428571428571</ele><time>2026-04-12T11:19:09Z</time></trkpt><trkpt lat="43.59059018582179" lon="6.928943808211697"><ele>14.714285714285714</ele><time>2026-04-12T11:19:10Z</time></trkpt><trkpt lat="43.5906541945372" lon="6.928972113578506"><ele>14.857142857142858</ele><time>2026-04-12T11:19:11Z</time></trkpt><trkpt lat="43.590714278190255" lon="6.9289981854376235"><ele>15.0</ele><time>2026-04-12T11:19:12Z</time></trkpt><trkpt lat="43.59081887603266" lon="6.9290396165168575"><ele>15.0</ele><time>2026-04-12T11:19:14Z</time></trkpt><trkpt lat="43.590898816696445" lon="6.929089084482077"><ele>15.0</ele><time>2026-04-12T11:19:16Z</time></trkpt><trkpt lat="43.590918735680724" lon="6.929178861488552"><ele>15.0</ele><time>2026-04-12T11:19:19Z</time></trkpt><trkpt lat="43.59089453173957" lon="6.929279424779208"><ele>15.0</ele><time>2026-04-12T11:19:22Z</time></trkpt><trkpt lat="43.590849039510374" lon="6.929400444728193"><ele>15.0</ele><time>2026-04-12T11:19:24Z</time></trkpt><trkpt lat="43.5907798154256" lon="6.929523019920009"><ele>15.0</ele><time>2026-04-12T11:19:26Z</time></trkpt><trkpt lat="43.59070526879051" lon="6.929650929979772"><ele>14.833333333333334</ele><time>2026-04-12T11:19:28Z</time></trkpt><trkpt lat="43.59063499687445" lon="6.929791744662215"><ele>14.666666666666668</ele><time>2026-04-12T11:19:30Z</time></trkpt><trkpt lat="43.59059590806674" lon="6.929863634118292"><ele>14.5</ele><time>2026-04-12T11:19:31Z</time></trkpt><trkpt lat="43.59055091990775" lon="6.929929844245205"><ele>14.333333333333334</ele><time>2026-04-12T11:19:32Z</time></trkpt><trkpt lat="43.59050775557639" lon="6.9300018584280325"><ele>14.166666666666668</ele><time>2026-04-12T11:19:33Z</time></trkpt><trkpt lat="43.59046622312023" lon="6.930076505220207"><ele>14.0</ele><time>2026-04-12T11:19:34Z</time></trkpt><trkpt lat="43.59045823439948" lon="6.930189013094389"><ele>14.0</ele><time>2026-04-12T11:19:35Z</time></trkpt><trkpt lat="43.59041423802389" lon="6.930262413269649"><ele>14.0</ele><time>2026-04-12T11:19:36Z</time></trkpt><trkpt lat="43.59036854386955" lon="6.930336707055355"><ele>14.0</ele><time>2026-04-12T11:19:37Z</time></trkpt><trkpt lat="43.59031793156191" lon="6.930410218309635"><ele>14.0</ele><time>2026-04-12T11:19:38Z</time></trkpt><trkpt lat="43.59026830176895" lon="6.930479134529926"><ele>14.0</ele><time>2026-04-12T11:19:39Z</time></trkpt><trkpt lat="43.59021894041785" lon="6.930547677299253"><ele>14.0</ele><time>2026-04-12T11:19:40Z</time></trkpt><trkpt lat="43.59016965236259" lon="6.930615677213086"><ele>14.0</ele><time>2026-04-12T11:19:41Z</time></trkpt><trkpt lat="43.59011902240791" lon="6.930682960966737"><ele>13.857142857142858</ele><time>2026-04-12T11:19:42Z</time></trkpt><trkpt lat="43.59006739797958" lon="6.930750106095837"><ele>13.714285714285715</ele><time>2026-04-12T11:19:43Z</time></trkpt><trkpt lat="43.590015861383165" lon="6.930816428742637"><ele>13.571428571428571</ele><time>2026-04-12T11:19:44Z</time></trkpt><trkpt lat="43.58996506885141" lon="6.930881794151578"><ele>13.428571428571429</ele><time>2026-04-12T11:19:45Z</time></trkpt><trkpt lat="43.58991458304131" lon="6.930946764626082"><ele>13.285714285714286</ele><time>2026-04-12T11:19:46Z</time></trkpt><trkpt lat="43.589864017594095" lon="6.931011837872911"><ele>13.142857142857142</ele><time>2026-04-12T11:19:47Z</time></trkpt><trkpt lat="43.589814437629116" lon="6.931075642527296"><ele>13.0</ele><time>2026-04-12T11:19:48Z</time></trkpt><trkpt lat="43.58976463286981" lon="6.931139736333562"><ele>13.0</ele><time>2026-04-12T11:19:49Z</time></trkpt><trkpt lat="43.58971536567628" lon="6.931203138853664"><ele>13.0</ele><time>2026-04-12T11:19:50Z</time></trkpt><trkpt lat="43.58966581907865" lon="6.931266900816791"><ele>13.0</ele><time>2026-04-12T11:19:51Z</time></trkpt><trkpt lat="43.58961673719738" lon="6.931329699473047"><ele>13.0</ele><time>2026-04-12T11:19:52Z</time></trkpt><trkpt lat="43.58956775178385" lon="6.931392321471932"><ele>13.0</ele><time>2026-04-12T11:19:53Z</time></trkpt><trkpt lat="43.58951869223211" lon="6.931455037711242"><ele>13.0</ele><time>2026-04-12T11:19:54Z</time></trkpt><trkpt lat="43.589469148161506" lon="6.9315183740985615"><ele>13.0</ele><time>2026-04-12T11:19:55Z</time></trkpt><trkpt lat="43.58942024539265" lon="6.931580890134404"><ele>13.0</ele><time>2026-04-12T11:19:56Z</time></trkpt><trkpt lat="43.5893711156841" lon="6.931643693252714"><ele>13.0</ele><time>2026-04-12T11:19:57Z</time></trkpt><trkpt lat="43.58932166846614" lon="6.931706905536707"><ele>13.0</ele><time>2026-04-12T11:19:58Z</time></trkpt><trkpt lat="43.589273016673374" lon="6.931769100965743"><ele>13.0</ele><time>2026-04-12T11:19:59Z</time></trkpt><trkpt lat="43.58922408643337" lon="6.931831666938671"><ele>13.0</ele><time>2026-04-12T11:20:00Z</time></trkpt><trkpt lat="43.58917459213257" lon="6.93189557397121"><ele>13.0</ele><time>2026-04-12T11:20:01Z</time></trkpt><trkpt lat="43.58912473651296" lon="6.931959947557483"><ele>13.0</ele><time>2026-04-12T11:20:02Z</time></trkpt><trkpt lat="43.5890750045568" lon="6.932024161462076"><ele>13.285714285714285</ele><time>2026-04-12T11:20:03Z</time></trkpt><trkpt lat="43.58902564376078" lon="6.93208789612004"><ele>13.571428571428573</ele><time>2026-04-12T11:20:04Z</time></trkpt><trkpt lat="43.588976002500225" lon="6.9321519929110575"><ele>13.857142857142858</ele><time>2026-04-12T11:20:05Z</time></trkpt><trkpt lat="43.58892595411194" lon="6.93221661538665"><ele>14.142857142857142</ele><time>2026-04-12T11:20:06Z</time></trkpt><trkpt lat="43.58887698991473" lon="6.932279837958483"><ele>14.428571428571427</ele><time>2026-04-12T11:20:07Z</time></trkpt><trkpt lat="43.58882753369903" lon="6.932343238173769"><ele>14.714285714285715</ele><time>2026-04-12T11:20:08Z</time></trkpt><trkpt lat="43.588778304940696" lon="6.932405812077326"><ele>15.0</ele><time>2026-04-12T11:20:09Z</time></trkpt><trkpt lat="43.58872903337008" lon="6.932468440400559"><ele>15.0</ele><time>2026-04-12T11:20:10Z</time></trkpt><trkpt lat="43.588680738131316" lon="6.932529827716697"><ele>15.0</ele><time>2026-04-12T11:20:11Z</time></trkpt><trkpt lat="43.588632041003564" lon="6.932592745348423"><ele>15.0</ele><time>2026-04-12T11:20:12Z</time></trkpt><trkpt lat="43.58858426506078" lon="6.9326548417833855"><ele>15.0</ele><time>2026-04-12T11:20:13Z</time></trkpt><trkpt lat="43.588536342362445" lon="6.932717128955364"><ele>15.0</ele><time>2026-04-12T11:20:14Z</time></trkpt><trkpt lat="43.58848881318091" lon="6.932778904670572"><ele>15.0</ele><time>2026-04-12T11:20:15Z</time></trkpt><trkpt lat="43.58843917174664" lon="6.932843425762125"><ele>15.0</ele><time>2026-04-12T11:20:16Z</time></trkpt><trkpt lat="43.58839257461266" lon="6.932906539818189"><ele>14.714285714285715</ele><time>2026-04-12T11:20:17Z</time></trkpt><trkpt lat="43.58834675146541" lon="6.932970515385299"><ele>14.428571428571427</ele><time>2026-04-12T11:20:18Z</time></trkpt><trkpt lat="43.588301410667825" lon="6.933036424566741"><ele>14.142857142857142</ele><time>2026-04-12T11:20:19Z</time></trkpt><trkpt lat="43.58825620200319" lon="6.93310337369915"><ele>13.857142857142858</ele><time>2026-04-12T11:20:20Z</time></trkpt><trkpt lat="43.58821123597808" lon="6.93316996834944"><ele>13.571428571428573</ele><time>2026-04-12T11:20:21Z</time></trkpt><trkpt lat="43.58816750859397" lon="6.933239668573719"><ele>13.285714285714285</ele><time>2026-04-12T11:20:22Z</time></trkpt><trkpt lat="43.588125756063036" lon="6.933309514125824"><ele>13.0</ele><time>2026-04-12T11:20:23Z</time></trkpt><trkpt lat="43.588084644657656" lon="6.93337992262791"><ele>13.0</ele><time>2026-04-12T11:20:24Z</time></trkpt><trkpt lat="43.588044767147814" lon="6.933450476898482"><ele>13.0</ele><time>2026-04-12T11:20:25Z</time></trkpt><trkpt lat="43.58800461535836" lon="6.933521573410268"><ele>13.0</ele><time>2026-04-12T11:20:26Z</time></trkpt><trkpt lat="43.58796625941179" lon="6.933593424857819"><ele>13.0</ele><time>2026-04-12T11:20:27Z</time></trkpt><trkpt lat="43.58792893436125" lon="6.933666353646548"><ele>13.0</ele><time>2026-04-12T11:20:28Z</time></trkpt><trkpt lat="43.58789196064725" lon="6.933742065090488"><ele>13.0</ele><time>2026-04-12T11:20:29Z</time></trkpt><trkpt lat="43.587856664749765" lon="6.933816433665751"><ele>13.0</ele><time>2026-04-12T11:20:30Z</time></trkpt><trkpt lat="43.587820938595996" lon="6.933892098688953"><ele>12.999999999999998</ele><time>2026-04-12T11:20:31Z</time></trkpt><trkpt lat="43.58778565065145" lon="6.933966835610367"><ele>13.0</ele><time>2026-04-12T11:20:32Z</time></trkpt><trkpt lat="43.58774997067924" lon="6.934042402811911"><ele>13.0</ele><time>2026-04-12T11:20:33Z</time></trkpt><trkpt lat="43.58771391264847" lon="6.934118770715032"><ele>13.0</ele><time>2026-04-12T11:20:34Z</time></trkpt><trkpt lat="43.587678253376545" lon="6.934194294083858"><ele>12.999999999999998</ele><time>2026-04-12T11:20:35Z</time></trkpt><trkpt lat="43.587611842673454" lon="6.934335098116971"><ele>13.0</ele><time>2026-04-12T11:20:37Z</time></trkpt><trkpt lat="43.58755165341973" lon="6.934462839584314"><ele>12.8</ele><time>2026-04-12T11:20:39Z</time></trkpt><trkpt lat="43.58751189002935" lon="6.9346092521170375"><ele>12.600000000000001</ele><time>2026-04-12T11:20:41Z</time></trkpt><trkpt lat="43.587464172121194" lon="6.934672029562075"><ele>12.399999999999999</ele><time>2026-04-12T11:20:46Z</time></trkpt><trkpt lat="43.587389551386494" lon="6.934739069672075"><ele>12.2</ele><time>2026-04-12T11:20:48Z</time></trkpt><trkpt lat="43.58728951045369" lon="6.934790307260003"><ele>12.0</ele><time>2026-04-12T11:20:50Z</time></trkpt><trkpt lat="43.58718335449659" lon="6.934849761277472"><ele>12.0</ele><time>2026-04-12T11:20:52Z</time></trkpt><trkpt lat="43.58710461705691" lon="6.934815826595493"><ele>12.0</ele><time>2026-04-12T11:20:53Z</time></trkpt><trkpt lat="43.587031410736486" lon="6.934789304083864"><ele>12.0</ele><time>2026-04-12T11:20:54Z</time></trkpt><trkpt lat="43.58695466680936" lon="6.934748270617668"><ele>12.0</ele><time>2026-04-12T11:20:55Z</time></trkpt><trkpt lat="43.58687555314591" lon="6.934703781028027"><ele>12.0</ele><time>2026-04-12T11:20:56Z</time></trkpt><trkpt lat="43.586797647608904" lon="6.934663134084201"><ele>12.0</ele><time>2026-04-12T11:20:57Z</time></trkpt><trkpt lat="43.586719776533975" lon="6.934613315055151"><ele>12.0</ele><time>2026-04-12T11:20:58Z</time></trkpt><trkpt lat="43.58664178231955" lon="6.934555324056421"><ele>12.0</ele><time>2026-04-12T11:20:59Z</time></trkpt><trkpt lat="43.58656391330671" lon="6.934498634415999"><ele>12.0</ele><time>2026-04-12T11:21:00Z</time></trkpt><trkpt lat="43.58648182240544" lon="6.9344479175680656"><ele>12.0</ele><time>2026-04-12T11:21:01Z</time></trkpt><trkpt lat="43.586399418373894" lon="6.934400515550078"><ele>12.0</ele><time>2026-04-12T11:21:02Z</time></trkpt><trkpt lat="43.58631601848146" lon="6.934352657351308"><ele>12.0</ele><time>2026-04-12T11:21:03Z</time></trkpt><trkpt lat="43.58623473174159" lon="6.934304383756571"><ele>11.833333333333334</ele><time>2026-04-12T11:21:04Z</time></trkpt><trkpt lat="43.586153902475544" lon="6.934254834448654"><ele>11.666666666666666</ele><time>2026-04-12T11:21:05Z</time></trkpt><trkpt lat="43.58607361745537" lon="6.934206048553128"><ele>11.5</ele><time>2026-04-12T11:21:06Z</time></trkpt><trkpt lat="43.585993050883175" lon="6.934158016776645"><ele>11.333333333333332</ele><time>2026-04-12T11:21:07Z</time></trkpt><trkpt lat="43.58591480280799" lon="6.934108954131742"><ele>11.166666666666666</ele><time>2026-04-12T11:21:08Z</time></trkpt><trkpt lat="43.58583730261253" lon="6.93406164843411"><ele>11.0</ele><time>2026-04-12T11:21:09Z</time></trkpt><trkpt lat="43.58576144601414" lon="6.934016842519248"><ele>11.0</ele><time>2026-04-12T11:21:10Z</time></trkpt><trkpt lat="43.5856876568767" lon="6.933973196605101"><ele>11.0</ele><time>2026-04-12T11:21:11Z</time></trkpt><trkpt lat="43.58561446927928" lon="6.933927951432836"><ele>11.0</ele><time>2026-04-12T11:21:12Z</time></trkpt><trkpt lat="43.58554243265995" lon="6.933883787046922"><ele>11.0</ele><time>2026-04-12T11:21:13Z</time></trkpt><trkpt lat="43.58547193493879" lon="6.933838850620458"><ele>11.0</ele><time>2026-04-12T11:21:14Z</time></trkpt><trkpt lat="43.58540214990126" lon="6.933795886727324"><ele>11.0</ele><time>2026-04-12T11:21:15Z</time></trkpt><trkpt lat="43.58533308155911" lon="6.933756349560839"><ele>11.0</ele><time>2026-04-12T11:21:16Z</time></trkpt><trkpt lat="43.58526270616419" lon="6.9337201369641965"><ele>11.0</ele><time>2026-04-12T11:21:17Z</time></trkpt><trkpt lat="43.58519306696213" lon="6.933679423368849"><ele>11.0</ele><time>2026-04-12T11:21:18Z</time></trkpt><trkpt lat="43.58512491788237" lon="6.933638015784338"><ele>11.0</ele><time>2026-04-12T11:21:19Z</time></trkpt><trkpt lat="43.58505680347789" lon="6.93359816934623"><ele>11.0</ele><time>2026-04-12T11:21:20Z</time></trkpt><trkpt lat="43.58498760012045" lon="6.933560153360921"><ele>11.0</ele><time>2026-04-12T11:21:21Z</time></trkpt><trkpt lat="43.58491936252703" lon="6.933524616423213"><ele>11.0</ele><time>2026-04-12T11:21:22Z</time></trkpt><trkpt lat="43.58485119815243" lon="6.93348740832303"><ele>11.0</ele><time>2026-04-12T11:21:23Z</time></trkpt><trkpt lat="43.58478360264751" lon="6.9334508562064245"><ele>11.0</ele><time>2026-04-12T11:21:24Z</time></trkpt><trkpt lat="43.584716289833516" lon="6.933416056743103"><ele>11.0</ele><time>2026-04-12T11:21:25Z</time></trkpt><trkpt lat="43.58464858876219" lon="6.933386674139835"><ele>11.0</ele><time>2026-04-12T11:21:26Z</time></trkpt><trkpt lat="43.584582148289584" lon="6.93335785507721"><ele>11.0</ele><time>2026-04-12T11:21:27Z</time></trkpt><trkpt lat="43.584514594649676" lon="6.933329299473098"><ele>11.0</ele><time>2026-04-12T11:21:28Z</time></trkpt><trkpt lat="43.58444651058699" lon="6.933304281106085"><ele>11.0</ele><time>2026-04-12T11:21:29Z</time></trkpt><trkpt lat="43.584377376697965" lon="6.933280395695044"><ele>10.714285714285715</ele><time>2026-04-12T11:21:30Z</time></trkpt><trkpt lat="43.5843074602185" lon="6.933256653248247"><ele>10.428571428571429</ele><time>2026-04-12T11:21:31Z</time></trkpt><trkpt lat="43.584236116304076" lon="6.9332324455183265"><ele>10.142857142857142</ele><time>2026-04-12T11:21:32Z</time></trkpt><trkpt lat="43.58416490911689" lon="6.933209549152041"><ele>9.857142857142858</ele><time>2026-04-12T11:21:33Z</time></trkpt><trkpt lat="43.58409412039056" lon="6.933185579288605"><ele>9.571428571428571</ele><time>2026-04-12T11:21:34Z</time></trkpt><trkpt lat="43.58402492189755" lon="6.933163091801375"><ele>9.285714285714286</ele><time>2026-04-12T11:21:35Z</time></trkpt><trkpt lat="43.58395636452871" lon="6.933145685694965"><ele>9.0</ele><time>2026-04-12T11:21:36Z</time></trkpt><trkpt lat="43.58388766468536" lon="6.9331324826968865"><ele>9.000000000000002</ele><time>2026-04-12T11:21:37Z</time></trkpt><trkpt lat="43.583821590668926" lon="6.9331144066277846"><ele>9.0</ele><time>2026-04-12T11:21:38Z</time></trkpt><trkpt lat="43.58375441526555" lon="6.933102505515066"><ele>9.0</ele><time>2026-04-12T11:21:39Z</time></trkpt><trkpt lat="43.58368623295664" lon="6.9330965961554885"><ele>9.0</ele><time>2026-04-12T11:21:40Z</time></trkpt><trkpt lat="43.58361535709812" lon="6.9330854965430255"><ele>9.0</ele><time>2026-04-12T11:21:41Z</time></trkpt><trkpt lat="43.58354564225339" lon="6.93307020535518"><ele>9.000000000000002</ele><time>2026-04-12T11:21:42Z</time></trkpt><trkpt lat="43.583475468858666" lon="6.933056932895842"><ele>9.0</ele><time>2026-04-12T11:21:43Z</time></trkpt><trkpt lat="43.58340631665867" lon="6.9330482241539055"><ele>9.142857142857144</ele><time>2026-04-12T11:21:44Z</time></trkpt><trkpt lat="43.58333736532579" lon="6.933041068424706"><ele>9.285714285714286</ele><time>2026-04-12T11:21:45Z</time></trkpt><trkpt lat="43.583268883858985" lon="6.933035992695941"><ele>9.428571428571429</ele><time>2026-04-12T11:21:46Z</time></trkpt><trkpt lat="43.58320098751645" lon="6.933032650409215"><ele>9.571428571428573</ele><time>2026-04-12T11:21:47Z</time></trkpt><trkpt lat="43.58313201013064" lon="6.933029391668084"><ele>9.714285714285715</ele><time>2026-04-12T11:21:48Z</time></trkpt><trkpt lat="43.58306367610244" lon="6.933025332261157"><ele>9.857142857142858</ele><time>2026-04-12T11:21:49Z</time></trkpt><trkpt lat="43.582995239150485" lon="6.933024033999036"><ele>10.0</ele><time>2026-04-12T11:21:50Z</time></trkpt><trkpt lat="43.58292775676604" lon="6.933026932894365"><ele>10.0</ele><time>2026-04-12T11:21:51Z</time></trkpt><trkpt lat="43.58285911770305" lon="6.933030935637647"><ele>10.0</ele><time>2026-04-12T11:21:52Z</time></trkpt><trkpt lat="43.582791826799834" lon="6.933032635515293"><ele>10.0</ele><time>2026-04-12T11:21:53Z</time></trkpt><trkpt lat="43.58272470221687" lon="6.9330328543931135"><ele>10.0</ele><time>2026-04-12T11:21:54Z</time></trkpt><trkpt lat="43.582659677943546" lon="6.933035699268919"><ele>10.0</ele><time>2026-04-12T11:21:55Z</time></trkpt><trkpt lat="43.58259516402457" lon="6.933042733543152"><ele>10.0</ele><time>2026-04-12T11:21:56Z</time></trkpt><trkpt lat="43.5825307918193" lon="6.933047368263361"><ele>10.0</ele><time>2026-04-12T11:21:57Z</time></trkpt><trkpt lat="43.58246689091869" lon="6.933052409845991"><ele>10.285714285714285</ele><time>2026-04-12T11:21:58Z</time></trkpt><trkpt lat="43.58240207156386" lon="6.933063474266606"><ele>10.571428571428571</ele><time>2026-04-12T11:21:59Z</time></trkpt><trkpt lat="43.58233614403741" lon="6.93307679366609"><ele>10.857142857142858</ele><time>2026-04-12T11:22:00Z</time></trkpt><trkpt lat="43.58226847052922" lon="6.933089449268554"><ele>11.142857142857142</ele><time>2026-04-12T11:22:01Z</time></trkpt><trkpt lat="43.582200197330195" lon="6.933100665127957"><ele>11.428571428571429</ele><time>2026-04-12T11:22:02Z</time></trkpt><trkpt lat="43.5821313630873" lon="6.933113083229468"><ele>11.714285714285714</ele><time>2026-04-12T11:22:03Z</time></trkpt><trkpt lat="43.58206363410918" lon="6.933124314902833"><ele>12.0</ele><time>2026-04-12T11:22:04Z</time></trkpt><trkpt lat="43.58199774165807" lon="6.9331398315975505"><ele>11.999999999999998</ele><time>2026-04-12T11:22:05Z</time></trkpt><trkpt lat="43.58193082858281" lon="6.933156902759848"><ele>12.0</ele><time>2026-04-12T11:22:06Z</time></trkpt><trkpt lat="43.58186355496823" lon="6.9331768194753005"><ele>12.0</ele><time>2026-04-12T11:22:07Z</time></trkpt><trkpt lat="43.58179627150628" lon="6.933197673007968"><ele>12.0</ele><time>2026-04-12T11:22:08Z</time></trkpt><trkpt lat="43.58172880949385" lon="6.933218364988985"><ele>12.0</ele><time>2026-04-12T11:22:09Z</time></trkpt><trkpt lat="43.58166191785967" lon="6.933237184942804"><ele>11.999999999999998</ele><time>2026-04-12T11:22:10Z</time></trkpt><trkpt lat="43.58159602843973" lon="6.933257095192603"><ele>12.0</ele><time>2026-04-12T11:22:11Z</time></trkpt><trkpt lat="43.581530253919674" lon="6.933285018625798"><ele>11.999999999999998</ele><time>2026-04-12T11:22:12Z</time></trkpt><trkpt lat="43.581463426291975" lon="6.933312593469431"><ele>12.0</ele><time>2026-04-12T11:22:13Z</time></trkpt><trkpt lat="43.58139456133171" lon="6.933336569661596"><ele>12.0</ele><time>2026-04-12T11:22:14Z</time></trkpt><trkpt lat="43.58132662306167" lon="6.9333627103060635"><ele>12.0</ele><time>2026-04-12T11:22:15Z</time></trkpt><trkpt lat="43.58126034101506" lon="6.933393175906266"><ele>12.0</ele><time>2026-04-12T11:22:16Z</time></trkpt><trkpt lat="43.581195420431975" lon="6.933423562559142"><ele>11.999999999999998</ele><time>2026-04-12T11:22:17Z</time></trkpt><trkpt lat="43.58113007646813" lon="6.93345562860859"><ele>12.0</ele><time>2026-04-12T11:22:18Z</time></trkpt><trkpt lat="43.58106522667521" lon="6.9334883005793335"><ele>11.857142857142856</ele><time>2026-04-12T11:22:19Z</time></trkpt><trkpt lat="43.58100069299816" lon="6.9335222294877035"><ele>11.714285714285714</ele><time>2026-04-12T11:22:20Z</time></trkpt><trkpt lat="43.58093585767918" lon="6.933553054406816"><ele>11.571428571428571</ele><time>2026-04-12T11:22:21Z</time></trkpt><trkpt lat="43.58087077826992" lon="6.933585091561304"><ele>11.428571428571427</ele><time>2026-04-12T11:22:22Z</time></trkpt><trkpt lat="43.580806901506804" lon="6.933620529931485"><ele>11.285714285714285</ele><time>2026-04-12T11:22:23Z</time></trkpt><trkpt lat="43.580744930156825" lon="6.933658156922817"><ele>11.142857142857142</ele><time>2026-04-12T11:22:24Z</time></trkpt><trkpt lat="43.58068292266871" lon="6.9336943082294"><ele>11.0</ele><time>2026-04-12T11:22:25Z</time></trkpt><trkpt lat="43.580621027988855" lon="6.933734190422869"><ele>11.0</ele><time>2026-04-12T11:22:26Z</time></trkpt><trkpt lat="43.58055856811019" lon="6.933776609285031"><ele>11.0</ele><time>2026-04-12T11:22:27Z</time></trkpt><trkpt lat="43.58049513601964" lon="6.933820745694319"><ele>11.0</ele><time>2026-04-12T11:22:28Z</time></trkpt><trkpt lat="43.58043118612668" lon="6.933864107588671"><ele>11.0</ele><time>2026-04-12T11:22:29Z</time></trkpt><trkpt lat="43.58036782975491" lon="6.933909794736816"><ele>11.0</ele><time>2026-04-12T11:22:30Z</time></trkpt><trkpt lat="43.580305225088004" lon="6.933954230714526"><ele>11.0</ele><time>2026-04-12T11:22:31Z</time></trkpt><trkpt lat="43.58024368354142" lon="6.934001383307973"><ele>11.0</ele><time>2026-04-12T11:22:32Z</time></trkpt><trkpt lat="43.5801836475615" lon="6.93405110452974"><ele>10.857142857142858</ele><time>2026-04-12T11:22:33Z</time></trkpt><trkpt lat="43.5801245050192" lon="6.934100383470173"><ele>10.714285714285714</ele><time>2026-04-12T11:22:34Z</time></trkpt><trkpt lat="43.5800657957222" lon="6.934151643680675"><ele>10.571428571428571</ele><time>2026-04-12T11:22:35Z</time></trkpt><trkpt lat="43.580007841731295" lon="6.93420425217893"><ele>10.428571428571429</ele><time>2026-04-12T11:22:36Z</time></trkpt><trkpt lat="43.57994919014079" lon="6.934255230769759"><ele>10.285714285714286</ele><time>2026-04-12T11:22:37Z</time></trkpt><trkpt lat="43.57989100363028" lon="6.934305574748325"><ele>10.142857142857142</ele><time>2026-04-12T11:22:38Z</time></trkpt><trkpt lat="43.579834779898206" lon="6.934354970130618"><ele>10.0</ele><time>2026-04-12T11:22:39Z</time></trkpt><trkpt lat="43.57977949927287" lon="6.9344067565978404"><ele>10.0</ele><time>2026-04-12T11:22:40Z</time></trkpt><trkpt lat="43.57972452794546" lon="6.934461535819502"><ele>10.0</ele><time>2026-04-12T11:22:41Z</time></trkpt><trkpt lat="43.57966864493821" lon="6.93451513804941"><ele>10.0</ele><time>2026-04-12T11:22:42Z</time></trkpt><trkpt lat="43.5796146211312" lon="6.93456965391746"><ele>10.0</ele><time>2026-04-12T11:22:43Z</time></trkpt><trkpt lat="43.57956313884085" lon="6.934626728989446"><ele>10.0</ele><time>2026-04-12T11:22:44Z</time></trkpt><trkpt lat="43.57951149944822" lon="6.934684892263041"><ele>10.0</ele><time>2026-04-12T11:22:45Z</time></trkpt><trkpt lat="43.57945892130301" lon="6.934740502075681"><ele>10.0</ele><time>2026-04-12T11:22:46Z</time></trkpt><trkpt lat="43.57940751357355" lon="6.934797521071806"><ele>10.0</ele><time>2026-04-12T11:22:47Z</time></trkpt><trkpt lat="43.57935773966774" lon="6.93485837905924"><ele>10.0</ele><time>2026-04-12T11:22:48Z</time></trkpt><trkpt lat="43.5793074616024" lon="6.934921144097045"><ele>10.0</ele><time>2026-04-12T11:22:49Z</time></trkpt><trkpt lat="43.579256717585146" lon="6.9349834030618975"><ele>10.0</ele><time>2026-04-12T11:22:50Z</time></trkpt><trkpt lat="43.579206328062654" lon="6.935046731385729"><ele>10.0</ele><time>2026-04-12T11:22:51Z</time></trkpt><trkpt lat="43.57915645938585" lon="6.935107606099199"><ele>10.0</ele><time>2026-04-12T11:22:52Z</time></trkpt><trkpt lat="43.57910739159169" lon="6.935170758328766"><ele>10.0</ele><time>2026-04-12T11:22:53Z</time></trkpt><trkpt lat="43.57905942696825" lon="6.935235843264765"><ele>10.0</ele><time>2026-04-12T11:22:54Z</time></trkpt><trkpt lat="43.579010647562036" lon="6.935299690518819"><ele>10.0</ele><time>2026-04-12T11:22:55Z</time></trkpt><trkpt lat="43.578962940761194" lon="6.935365945575648"><ele>10.0</ele><time>2026-04-12T11:22:56Z</time></trkpt><trkpt lat="43.57891665307684" lon="6.935435886994207"><ele>10.0</ele><time>2026-04-12T11:22:57Z</time></trkpt><trkpt lat="43.57886973287835" lon="6.935507496332047"><ele>10.0</ele><time>2026-04-12T11:22:58Z</time></trkpt><trkpt lat="43.57882200167235" lon="6.935578713817865"><ele>10.0</ele><time>2026-04-12T11:22:59Z</time></trkpt><trkpt lat="43.57877436499223" lon="6.935650357126149"><ele>10.0</ele><time>2026-04-12T11:23:00Z</time></trkpt><trkpt lat="43.578728406727684" lon="6.935723956502972"><ele>10.0</ele><time>2026-04-12T11:23:01Z</time></trkpt><trkpt lat="43.57868444410194" lon="6.935799627765095"><ele>10.0</ele><time>2026-04-12T11:23:02Z</time></trkpt><trkpt lat="43.57863945128468" lon="6.935875412211156"><ele>10.0</ele><time>2026-04-12T11:23:03Z</time></trkpt><trkpt lat="43.57859347297109" lon="6.935952452916416"><ele>10.0</ele><time>2026-04-12T11:23:04Z</time></trkpt><trkpt lat="43.578549841342166" lon="6.936032969179602"><ele>10.0</ele><time>2026-04-12T11:23:05Z</time></trkpt><trkpt lat="43.57850770518084" lon="6.936111674136754"><ele>10.0</ele><time>2026-04-12T11:23:06Z</time></trkpt><trkpt lat="43.578465345620565" lon="6.936190267778463"><ele>10.0</ele><time>2026-04-12T11:23:07Z</time></trkpt><trkpt lat="43.57842488734398" lon="6.936269033283504"><ele>9.714285714285714</ele><time>2026-04-12T11:23:08Z</time></trkpt><trkpt lat="43.57838575401904" lon="6.936349059329235"><ele>9.428571428571429</ele><time>2026-04-12T11:23:09Z</time></trkpt><trkpt lat="43.57834704063375" lon="6.936431113588782"><ele>9.142857142857142</ele><time>2026-04-12T11:23:10Z</time></trkpt><trkpt lat="43.57830731765654" lon="6.936510589795336"><ele>8.857142857142858</ele><time>2026-04-12T11:23:11Z</time></trkpt><trkpt lat="43.578269723198495" lon="6.936590578014579"><ele>8.571428571428571</ele><time>2026-04-12T11:23:12Z</time></trkpt><trkpt lat="43.57823309618969" lon="6.9366736047954"><ele>8.285714285714285</ele><time>2026-04-12T11:23:13Z</time></trkpt><trkpt lat="43.578198187471585" lon="6.9367561682022405"><ele>8.0</ele><time>2026-04-12T11:23:14Z</time></trkpt><trkpt lat="43.57816281594068" lon="6.936837665099722"><ele>8.0</ele><time>2026-04-12T11:23:15Z</time></trkpt><trkpt lat="43.57812796999714" lon="6.936920570602554"><ele>7.999999999999999</ele><time>2026-04-12T11:23:16Z</time></trkpt><trkpt lat="43.5780946047883" lon="6.937005139467625"><ele>8.0</ele><time>2026-04-12T11:23:17Z</time></trkpt><trkpt lat="43.57806235887818" lon="6.937091445072929"><ele>8.0</ele><time>2026-04-12T11:23:18Z</time></trkpt><trkpt lat="43.57802964694253" lon="6.937179044037809"><ele>7.999999999999999</ele><time>2026-04-12T11:23:19Z</time></trkpt><trkpt lat="43.577997498413694" lon="6.937267728073023"><ele>8.0</ele><time>2026-04-12T11:23:20Z</time></trkpt><trkpt lat="43.57796710412501" lon="6.937357721241121"><ele>8.0</ele><time>2026-04-12T11:23:21Z</time></trkpt><trkpt lat="43.577937561929886" lon="6.937447300981516"><ele>8.0</ele><time>2026-04-12T11:23:22Z</time></trkpt><trkpt lat="43.57790915397451" lon="6.937535997707223"><ele>7.999999999999999</ele><time>2026-04-12T11:23:23Z</time></trkpt><trkpt lat="43.57787912178597" lon="6.937621988942901"><ele>8.0</ele><time>2026-04-12T11:23:24Z</time></trkpt><trkpt lat="43.5778501202067" lon="6.937707993897683"><ele>8.0</ele><time>2026-04-12T11:23:25Z</time></trkpt><trkpt lat="43.577826700341404" lon="6.937798558976016"><ele>7.999999999999999</ele><time>2026-04-12T11:23:26Z</time></trkpt><trkpt lat="43.57780172150419" lon="6.937888861959634"><ele>8.0</ele><time>2026-04-12T11:23:27Z</time></trkpt><trkpt lat="43.57777458156131" lon="6.937975627609743"><ele>8.0</ele><time>2026-04-12T11:23:28Z</time></trkpt><trkpt lat="43.577750147771454" lon="6.938060466813644"><ele>8.142857142857142</ele><time>2026-04-12T11:23:29Z</time></trkpt><trkpt lat="43.57772861095875" lon="6.9381451416883735"><ele>8.285714285714285</ele><time>2026-04-12T11:23:30Z</time></trkpt><trkpt lat="43.57770795026097" lon="6.938229475847313"><ele>8.428571428571429</ele><time>2026-04-12T11:23:31Z</time></trkpt><trkpt lat="43.5776871422286" lon="6.938313116524133"><ele>8.571428571428571</ele><time>2026-04-12T11:23:32Z</time></trkpt><trkpt lat="43.57766769665225" lon="6.938401164812784"><ele>8.714285714285715</ele><time>2026-04-12T11:23:33Z</time></trkpt><trkpt lat="43.577649002059054" lon="6.938490693501191"><ele>8.857142857142858</ele><time>2026-04-12T11:23:34Z</time></trkpt><trkpt lat="43.577629217750236" lon="6.938579743564936"><ele>9.0</ele><time>2026-04-12T11:23:35Z</time></trkpt><trkpt lat="43.57760866024084" lon="6.938670479050404"><ele>9.000000000000002</ele><time>2026-04-12T11:23:36Z</time></trkpt><trkpt lat="43.57758931609795" lon="6.938764732929023"><ele>9.0</ele><time>2026-04-12T11:23:37Z</time></trkpt><trkpt lat="43.57756914448134" lon="6.938856198002868"><ele>9.0</ele><time>2026-04-12T11:23:38Z</time></trkpt><trkpt lat="43.57754808985333" lon="6.938943435627249"><ele>9.0</ele><time>2026-04-12T11:23:39Z</time></trkpt><trkpt lat="43.577526320709914" lon="6.939029466512449"><ele>9.0</ele><time>2026-04-12T11:23:40Z</time></trkpt><trkpt lat="43.57750529583314" lon="6.939114662809274"><ele>9.000000000000002</ele><time>2026-04-12T11:23:41Z</time></trkpt><trkpt lat="43.57748548049719" lon="6.939198348845783"><ele>9.0</ele><time>2026-04-12T11:23:42Z</time></trkpt><trkpt lat="43.57746545829494" lon="6.939281470441254"><ele>9.0</ele><time>2026-04-12T11:23:43Z</time></trkpt><trkpt lat="43.577418870592815" lon="6.9394414639252435"><ele>9.0</ele><time>2026-04-12T11:23:45Z</time></trkpt><trkpt lat="43.5773918449742" lon="6.939521717827716"><ele>9.0</ele><time>2026-04-12T11:23:46Z</time></trkpt><trkpt lat="43.5773638551819" lon="6.939600466342716"><ele>9.0</ele><time>2026-04-12T11:23:47Z</time></trkpt><trkpt lat="43.57733208250084" lon="6.939679048021823"><ele>9.0</ele><time>2026-04-12T11:23:48Z</time></trkpt><trkpt lat="43.57729771989781" lon="6.939759440650582"><ele>9.0</ele><time>2026-04-12T11:23:49Z</time></trkpt><trkpt lat="43.577256395570274" lon="6.939832062183623"><ele>9.000000000000002</ele><time>2026-04-12T11:23:50Z</time></trkpt><trkpt lat="43.577206902246644" lon="6.9398962316466735"><ele>9.0</ele><time>2026-04-12T11:23:51Z</time></trkpt><trkpt lat="43.577152847142436" lon="6.939951738285689"><ele>9.0</ele><time>2026-04-12T11:23:52Z</time></trkpt><trkpt lat="43.57709312448031" lon="6.939992653937127"><ele>9.0</ele><time>2026-04-12T11:23:53Z</time></trkpt><trkpt lat="43.57703055839545" lon="6.940021146576433"><ele>9.0</ele><time>2026-04-12T11:23:54Z</time></trkpt><trkpt lat="43.5769717952844" lon="6.9400538054655625"><ele>9.000000000000002</ele><time>2026-04-12T11:23:55Z</time></trkpt><trkpt lat="43.57692404774705" lon="6.940113796656923"><ele>9.0</ele><time>2026-04-12T11:23:56Z</time></trkpt><trkpt lat="43.57689152161682" lon="6.940196351742248"><ele>9.000000000000002</ele><time>2026-04-12T11:23:57Z</time></trkpt><trkpt lat="43.576875246514646" lon="6.940288609782665"><ele>9.0</ele><time>2026-04-12T11:23:58Z</time></trkpt><trkpt lat="43.57687476744497" lon="6.94038515523257"><ele>9.0</ele><time>2026-04-12T11:23:59Z</time></trkpt><trkpt lat="43.57688110862929" lon="6.940481036311993"><ele>9.0</ele><time>2026-04-12T11:24:00Z</time></trkpt><trkpt lat="43.576877672287225" lon="6.940576119412473"><ele>9.0</ele><time>2026-04-12T11:24:01Z</time></trkpt><trkpt lat="43.57685425236905" lon="6.940668362409618"><ele>9.000000000000002</ele><time>2026-04-12T11:24:02Z</time></trkpt><trkpt lat="43.57681299096119" lon="6.940749192946101"><ele>9.0</ele><time>2026-04-12T11:24:03Z</time></trkpt><trkpt lat="43.57676643040621" lon="6.940821086839954"><ele>9.000000000000002</ele><time>2026-04-12T11:24:04Z</time></trkpt><trkpt lat="43.576720742490195" lon="6.940892513383123"><ele>9.0</ele><time>2026-04-12T11:24:05Z</time></trkpt><trkpt lat="43.57667288366704" lon="6.94096042555457"><ele>9.0</ele><time>2026-04-12T11:24:06Z</time></trkpt><trkpt lat="43.5766220429761" lon="6.941026200409829"><ele>9.0</ele><time>2026-04-12T11:24:07Z</time></trkpt><trkpt lat="43.57657015669367" lon="6.941090760359164"><ele>9.0</ele><time>2026-04-12T11:24:08Z</time></trkpt><trkpt lat="43.57651721198187" lon="6.941153427774252"><ele>9.000000000000002</ele><time>2026-04-12T11:24:09Z</time></trkpt><trkpt lat="43.57646113500345" lon="6.941213236801817"><ele>9.0</ele><time>2026-04-12T11:24:10Z</time></trkpt><trkpt lat="43.5764032968912" lon="6.941270368234936"><ele>9.000000000000002</ele><time>2026-04-12T11:24:11Z</time></trkpt><trkpt lat="43.576343703556425" lon="6.941323556651364"><ele>9.0</ele><time>2026-04-12T11:24:12Z</time></trkpt><trkpt lat="43.57628242985697" lon="6.9413720957323015"><ele>9.0</ele><time>2026-04-12T11:24:13Z</time></trkpt><trkpt lat="43.57622135924894" lon="6.941421847021945"><ele>9.0</ele><time>2026-04-12T11:24:14Z</time></trkpt><trkpt lat="43.57616031060122" lon="6.941472334389481"><ele>9.0</ele><time>2026-04-12T11:24:15Z</time></trkpt><trkpt lat="43.57609821756994" lon="6.9415220739309"><ele>9.000000000000002</ele><time>2026-04-12T11:24:16Z</time></trkpt><trkpt lat="43.576036733656025" lon="6.941572237109096"><ele>9.0</ele><time>2026-04-12T11:24:17Z</time></trkpt><trkpt lat="43.57597555094015" lon="6.941624082181133"><ele>9.000000000000002</ele><time>2026-04-12T11:24:18Z</time></trkpt><trkpt lat="43.57591402459494" lon="6.941675332577749"><ele>9.0</ele><time>2026-04-12T11:24:19Z</time></trkpt><trkpt lat="43.575851440552064" lon="6.9417246380235955"><ele>9.0</ele><time>2026-04-12T11:24:20Z</time></trkpt><trkpt lat="43.575788178165496" lon="6.941773280006593"><ele>9.0</ele><time>2026-04-12T11:24:21Z</time></trkpt><trkpt lat="43.575723297961254" lon="6.9418230379140695"><ele>9.0</ele><time>2026-04-12T11:24:22Z</time></trkpt><trkpt lat="43.57565946104348" lon="6.941873257103989"><ele>9.000000000000002</ele><time>2026-04-12T11:24:23Z</time></trkpt><trkpt lat="43.57559627171204" lon="6.9419243452235575"><ele>9.0</ele><time>2026-04-12T11:24:24Z</time></trkpt><trkpt lat="43.57553530180926" lon="6.941974740224432"><ele>9.000000000000002</ele><time>2026-04-12T11:24:25Z</time></trkpt><trkpt lat="43.57547621462244" lon="6.942025260508179"><ele>9.0</ele><time>2026-04-12T11:24:26Z</time></trkpt><trkpt lat="43.57541703419857" lon="6.942073557353615"><ele>9.0</ele><time>2026-04-12T11:24:27Z</time></trkpt><trkpt lat="43.575357704173975" lon="6.94212146775893"><ele>9.0</ele><time>2026-04-12T11:24:28Z</time></trkpt><trkpt lat="43.57529801140134" lon="6.942170454028718"><ele>9.0</ele><time>2026-04-12T11:24:29Z</time></trkpt><trkpt lat="43.575238505922634" lon="6.9422214677443215"><ele>9.000000000000002</ele><time>2026-04-12T11:24:30Z</time></trkpt><trkpt lat="43.57517722168189" lon="6.9422707231301075"><ele>9.0</ele><time>2026-04-12T11:24:31Z</time></trkpt><trkpt lat="43.57511529497533" lon="6.942322307190212"><ele>9.000000000000002</ele><time>2026-04-12T11:24:32Z</time></trkpt><trkpt lat="43.57505126181421" lon="6.942377096677674"><ele>9.0</ele><time>2026-04-12T11:24:33Z</time></trkpt><trkpt lat="43.574985868007246" lon="6.942430013145967"><ele>9.0</ele><time>2026-04-12T11:24:34Z</time></trkpt><trkpt lat="43.57492181779821" lon="6.942482618932297"><ele>9.0</ele><time>2026-04-12T11:24:35Z</time></trkpt><trkpt lat="43.57485963082956" lon="6.942537147328545"><ele>9.0</ele><time>2026-04-12T11:24:36Z</time></trkpt><trkpt lat="43.574797873138614" lon="6.942589164535746"><ele>9.000000000000002</ele><time>2026-04-12T11:24:37Z</time></trkpt><trkpt lat="43.574737206258035" lon="6.942640324413013"><ele>9.0</ele><time>2026-04-12T11:24:38Z</time></trkpt><trkpt lat="43.574675476111324" lon="6.9426918103408095"><ele>8.857142857142858</ele><time>2026-04-12T11:24:39Z</time></trkpt><trkpt lat="43.57461290293348" lon="6.942742553010148"><ele>8.714285714285715</ele><time>2026-04-12T11:24:40Z</time></trkpt><trkpt lat="43.57454928026982" lon="6.942793820182956"><ele>8.571428571428571</ele><time>2026-04-12T11:24:41Z</time></trkpt><trkpt lat="43.57448585284492" lon="6.942846107187093"><ele>8.428571428571429</ele><time>2026-04-12T11:24:42Z</time></trkpt><trkpt lat="43.57442167802768" lon="6.942900934058661"><ele>8.285714285714285</ele><time>2026-04-12T11:24:43Z</time></trkpt><trkpt lat="43.574355763130114" lon="6.942954020069046"><ele>8.142857142857142</ele><time>2026-04-12T11:24:44Z</time></trkpt><trkpt lat="43.57428977893509" lon="6.943008542791493"><ele>8.0</ele><time>2026-04-12T11:24:45Z</time></trkpt><trkpt lat="43.57422558544374" lon="6.943064354722151"><ele>8.0</ele><time>2026-04-12T11:24:46Z</time></trkpt><trkpt lat="43.574161459526024" lon="6.943118617329736"><ele>7.999999999999999</ele><time>2026-04-12T11:24:47Z</time></trkpt><trkpt lat="43.574096664712705" lon="6.943170114220873"><ele>8.0</ele><time>2026-04-12T11:24:48Z</time></trkpt><trkpt lat="43.574032921314384" lon="6.943221621100135"><ele>8.0</ele><time>2026-04-12T11:24:49Z</time></trkpt><trkpt lat="43.57397111794669" lon="6.94327703971972"><ele>7.999999999999999</ele><time>2026-04-12T11:24:50Z</time></trkpt><trkpt lat="43.573908530711435" lon="6.943331376827164"><ele>8.0</ele><time>2026-04-12T11:24:51Z</time></trkpt><trkpt lat="43.57384473111124" lon="6.943382350264057"><ele>8.0</ele><time>2026-04-12T11:24:52Z</time></trkpt><trkpt lat="43.57378153517294" lon="6.943433436685158"><ele>8.0</ele><time>2026-04-12T11:24:53Z</time></trkpt><trkpt lat="43.57371910909236" lon="6.943485442021187"><ele>7.999999999999999</ele><time>2026-04-12T11:24:54Z</time></trkpt><trkpt lat="43.57365608336951" lon="6.943536925663099"><ele>8.0</ele><time>2026-04-12T11:24:55Z</time></trkpt><trkpt lat="43.573594008743335" lon="6.943591070288124"><ele>8.0</ele><time>2026-04-12T11:24:56Z</time></trkpt><trkpt lat="43.573530644229045" lon="6.943642984339566"><ele>7.999999999999999</ele><time>2026-04-12T11:24:57Z</time></trkpt><trkpt lat="43.57346709359586" lon="6.943693694353763"><ele>8.0</ele><time>2026-04-12T11:24:58Z</time></trkpt><trkpt lat="43.573403774647836" lon="6.943746289487625"><ele>8.0</ele><time>2026-04-12T11:24:59Z</time></trkpt><trkpt lat="43.57333983092469" lon="6.943800338820499"><ele>8.285714285714285</ele><time>2026-04-12T11:25:00Z</time></trkpt><trkpt lat="43.57327517644476" lon="6.943854514888404"><ele>8.571428571428571</ele><time>2026-04-12T11:25:01Z</time></trkpt><trkpt lat="43.573211441129956" lon="6.943906534741058"><ele>8.857142857142858</ele><time>2026-04-12T11:25:02Z</time></trkpt><trkpt lat="43.5731477832912" lon="6.943958510891996"><ele>9.142857142857142</ele><time>2026-04-12T11:25:03Z</time></trkpt><trkpt lat="43.5730852186086" lon="6.944011988878534"><ele>9.428571428571429</ele><time>2026-04-12T11:25:04Z</time></trkpt><trkpt lat="43.57302213646992" lon="6.944064235944961"><ele>9.714285714285714</ele><time>2026-04-12T11:25:05Z</time></trkpt><trkpt lat="43.572957749577206" lon="6.944114849710751"><ele>10.0</ele><time>2026-04-12T11:25:06Z</time></trkpt><trkpt lat="43.57289357987421" lon="6.944164128579043"><ele>9.714285714285714</ele><time>2026-04-12T11:25:07Z</time></trkpt><trkpt lat="43.5728292336107" lon="6.9442130076033175"><ele>9.428571428571429</ele><time>2026-04-12T11:25:08Z</time></trkpt><trkpt lat="43.57276447919283" lon="6.94426198015539"><ele>9.142857142857142</ele><time>2026-04-12T11:25:09Z</time></trkpt><trkpt lat="43.57269934822425" lon="6.9443103050397665"><ele>8.857142857142858</ele><time>2026-04-12T11:25:10Z</time></trkpt><trkpt lat="43.572635756861956" lon="6.9443586745776775"><ele>8.571428571428571</ele><time>2026-04-12T11:25:11Z</time></trkpt><trkpt lat="43.57257333267476" lon="6.944407961287973"><ele>8.285714285714285</ele><time>2026-04-12T11:25:12Z</time></trkpt><trkpt lat="43.57251063849296" lon="6.944452204573777"><ele>8.0</ele><time>2026-04-12T11:25:13Z</time></trkpt><trkpt lat="43.57244721517761" lon="6.944492990552013"><ele>8.0</ele><time>2026-04-12T11:25:14Z</time></trkpt><trkpt lat="43.57238231365061" lon="6.944535734599414"><ele>7.999999999999999</ele><time>2026-04-12T11:25:15Z</time></trkpt><trkpt lat="43.572319280709124" lon="6.944578255923094"><ele>8.0</ele><time>2026-04-12T11:25:16Z</time></trkpt><trkpt lat="43.57225569464858" lon="6.944624973983011"><ele>8.0</ele><time>2026-04-12T11:25:17Z</time></trkpt><trkpt lat="43.57219167727633" lon="6.944669025610422"><ele>7.999999999999999</ele><time>2026-04-12T11:25:18Z</time></trkpt><trkpt lat="43.57212707184524" lon="6.944711006824024"><ele>8.0</ele><time>2026-04-12T11:25:19Z</time></trkpt><trkpt lat="43.572063268339676" lon="6.9447523172599945"><ele>8.0</ele><time>2026-04-12T11:25:20Z</time></trkpt><trkpt lat="43.572001089866106" lon="6.9447921215432755"><ele>8.200000000000001</ele><time>2026-04-12T11:25:21Z</time></trkpt><trkpt lat="43.571941548475124" lon="6.94482908734413"><ele>8.4</ele><time>2026-04-12T11:25:22Z</time></trkpt><trkpt lat="43.5718819483806" lon="6.944864562703023"><ele>8.600000000000001</ele><time>2026-04-12T11:25:23Z</time></trkpt><trkpt lat="43.57177050254414" lon="6.944933575688469"><ele>8.8</ele><time>2026-04-12T11:25:25Z</time></trkpt><trkpt lat="43.57166138025209" lon="6.944996326375241"><ele>9.0</ele><time>2026-04-12T11:25:27Z</time></trkpt><trkpt lat="43.57153391062262" lon="6.945015473031319"><ele>9.000000000000002</ele><time>2026-04-12T11:25:29Z</time></trkpt><trkpt lat="43.57146632098112" lon="6.944993627113369"><ele>9.0</ele><time>2026-04-12T11:25:30Z</time></trkpt><trkpt lat="43.57139835915783" lon="6.94499273759365"><ele>9.0</ele><time>2026-04-12T11:25:31Z</time></trkpt><trkpt lat="43.57133316710391" lon="6.9450315372407365"><ele>9.0</ele><time>2026-04-12T11:25:32Z</time></trkpt><trkpt lat="43.57128086753253" lon="6.945108870666362"><ele>9.0</ele><time>2026-04-12T11:25:33Z</time></trkpt><trkpt lat="43.57123872776457" lon="6.945198919912329"><ele>9.000000000000002</ele><time>2026-04-12T11:25:34Z</time></trkpt><trkpt lat="43.57120250016378" lon="6.945291190934739"><ele>9.0</ele><time>2026-04-12T11:25:35Z</time></trkpt><trkpt lat="43.571158278279135" lon="6.945377204684301"><ele>9.166666666666666</ele><time>2026-04-12T11:25:36Z</time></trkpt><trkpt lat="43.57109289479963" lon="6.945443649614033"><ele>9.333333333333334</ele><time>2026-04-12T11:25:37Z</time></trkpt><trkpt lat="43.57101386180132" lon="6.945491668790418"><ele>9.5</ele><time>2026-04-12T11:25:38Z</time></trkpt><trkpt lat="43.57093653556541" lon="6.9455406857608555"><ele>9.666666666666668</ele><time>2026-04-12T11:25:39Z</time></trkpt><trkpt lat="43.57086346989089" lon="6.945593240434909"><ele>9.833333333333334</ele><time>2026-04-12T11:25:40Z</time></trkpt><trkpt lat="43.570789839279634" lon="6.9456433966758855"><ele>10.0</ele><time>2026-04-12T11:25:41Z</time></trkpt><trkpt lat="43.57071833966555" lon="6.94569863316987"><ele>10.0</ele><time>2026-04-12T11:25:42Z</time></trkpt><trkpt lat="43.57064878061069" lon="6.945757099635147"><ele>10.0</ele><time>2026-04-12T11:25:43Z</time></trkpt><trkpt lat="43.57057925026344" lon="6.945813693899818"><ele>10.0</ele><time>2026-04-12T11:25:44Z</time></trkpt><trkpt lat="43.5705114152378" lon="6.945868239949206"><ele>10.0</ele><time>2026-04-12T11:25:45Z</time></trkpt><trkpt lat="43.570444717574595" lon="6.9459223329450985"><ele>10.0</ele><time>2026-04-12T11:25:46Z</time></trkpt><trkpt lat="43.57037855755319" lon="6.945977552512943"><ele>10.0</ele><time>2026-04-12T11:25:47Z</time></trkpt><trkpt lat="43.570312239160266" lon="6.946029282246864"><ele>9.666666666666668</ele><time>2026-04-12T11:25:48Z</time></trkpt><trkpt lat="43.570246738101595" lon="6.946081514432027"><ele>9.333333333333334</ele><time>2026-04-12T11:25:49Z</time></trkpt><trkpt lat="43.5701839259314" lon="6.946136949700479"><ele>9.0</ele><time>2026-04-12T11:25:50Z</time></trkpt><trkpt lat="43.57012176458926" lon="6.946193668661762"><ele>8.666666666666666</ele><time>2026-04-12T11:25:51Z</time></trkpt><trkpt lat="43.57005895947825" lon="6.9462512120318936"><ele>8.333333333333332</ele><time>2026-04-12T11:25:52Z</time></trkpt><trkpt lat="43.569994863030495" lon="6.946307744893462"><ele>8.0</ele><time>2026-04-12T11:25:53Z</time></trkpt><trkpt lat="43.569930639223635" lon="6.946365855131908"><ele>7.999999999999999</ele><time>2026-04-12T11:25:54Z</time></trkpt><trkpt lat="43.56986867438972" lon="6.94642823010599"><ele>8.0</ele><time>2026-04-12T11:25:55Z</time></trkpt><trkpt lat="43.569804557329" lon="6.946489122864348"><ele>8.0</ele><time>2026-04-12T11:25:56Z</time></trkpt><trkpt lat="43.56973995844606" lon="6.946548043968857"><ele>8.0</ele><time>2026-04-12T11:25:57Z</time></trkpt><trkpt lat="43.5696760165575" lon="6.946607407379796"><ele>7.999999999999999</ele><time>2026-04-12T11:25:58Z</time></trkpt><trkpt lat="43.56961382113388" lon="6.9466688630304425"><ele>8.0</ele><time>2026-04-12T11:25:59Z</time></trkpt><trkpt lat="43.5695523406767" lon="6.946730386191022"><ele>7.666666666666666</ele><time>2026-04-12T11:26:00Z</time></trkpt><trkpt lat="43.56949043764276" lon="6.946791915916515"><ele>7.333333333333333</ele><time>2026-04-12T11:26:01Z</time></trkpt><trkpt lat="43.56942911892846" lon="6.946851622536228"><ele>7.0</ele><time>2026-04-12T11:26:02Z</time></trkpt><trkpt lat="43.56936973044922" lon="6.946912493203512"><ele>6.666666666666666</ele><time>2026-04-12T11:26:03Z</time></trkpt><trkpt lat="43.56931082051107" lon="6.946974581590374"><ele>6.333333333333333</ele><time>2026-04-12T11:26:04Z</time></trkpt><trkpt lat="43.56925208777181" lon="6.947034884340076"><ele>6.0</ele><time>2026-04-12T11:26:05Z</time></trkpt><trkpt lat="43.56919105745493" lon="6.947100460505499"><ele>6.0</ele><time>2026-04-12T11:26:06Z</time></trkpt><trkpt lat="43.56912940602845" lon="6.947164684351169"><ele>6.0</ele><time>2026-04-12T11:26:07Z</time></trkpt><trkpt lat="43.56906666098033" lon="6.947227041177238"><ele>6.0</ele><time>2026-04-12T11:26:08Z</time></trkpt><trkpt lat="43.56900472562723" lon="6.947288385402934"><ele>6.0</ele><time>2026-04-12T11:26:09Z</time></trkpt><trkpt lat="43.568942377867096" lon="6.947352482565889"><ele>6.0</ele><time>2026-04-12T11:26:10Z</time></trkpt><trkpt lat="43.56887994728711" lon="6.947416402266645"><ele>6.0</ele><time>2026-04-12T11:26:11Z</time></trkpt><trkpt lat="43.56881654609867" lon="6.94747860636689"><ele>6.0</ele><time>2026-04-12T11:26:12Z</time></trkpt><trkpt lat="43.568752050573146" lon="6.947539547574571"><ele>6.0</ele><time>2026-04-12T11:26:13Z</time></trkpt><trkpt lat="43.56868797380745" lon="6.947596494614851"><ele>6.0</ele><time>2026-04-12T11:26:14Z</time></trkpt><trkpt lat="43.56862376926954" lon="6.94765282581388"><ele>6.0</ele><time>2026-04-12T11:26:15Z</time></trkpt><trkpt lat="43.56856020539121" lon="6.9477076423014585"><ele>6.0</ele><time>2026-04-12T11:26:16Z</time></trkpt><trkpt lat="43.568495876480846" lon="6.947762614189894"><ele>6.0</ele><time>2026-04-12T11:26:17Z</time></trkpt><trkpt lat="43.56842990895584" lon="6.947816763329245"><ele>6.166666666666667</ele><time>2026-04-12T11:26:18Z</time></trkpt><trkpt lat="43.56836344143762" lon="6.947869459011473"><ele>6.333333333333334</ele><time>2026-04-12T11:26:19Z</time></trkpt><trkpt lat="43.56829489180582" lon="6.947920544708097"><ele>6.5</ele><time>2026-04-12T11:26:20Z</time></trkpt><trkpt lat="43.56822729245338" lon="6.947967987223994"><ele>6.666666666666667</ele><time>2026-04-12T11:26:21Z</time></trkpt><trkpt lat="43.56815894832184" lon="6.948011996025324"><ele>6.833333333333334</ele><time>2026-04-12T11:26:22Z</time></trkpt><trkpt lat="43.56809192426372" lon="6.948054854905048"><ele>7.0</ele><time>2026-04-12T11:26:23Z</time></trkpt><trkpt lat="43.568027432978425" lon="6.948098164536823"><ele>7.0</ele><time>2026-04-12T11:26:24Z</time></trkpt><trkpt lat="43.56796402507115" lon="6.948139100432846"><ele>7.0</ele><time>2026-04-12T11:26:25Z</time></trkpt><trkpt lat="43.56789910029108" lon="6.948177881790311"><ele>7.0</ele><time>2026-04-12T11:26:26Z</time></trkpt><trkpt lat="43.56783124921572" lon="6.948218080467907"><ele>7.0</ele><time>2026-04-12T11:26:27Z</time></trkpt><trkpt lat="43.56776501667516" lon="6.948256729142194"><ele>7.0</ele><time>2026-04-12T11:26:28Z</time></trkpt><trkpt lat="43.567699981490215" lon="6.948294152545013"><ele>7.0</ele><time>2026-04-12T11:26:29Z</time></trkpt><trkpt lat="43.56763390603873" lon="6.948329310160493"><ele>7.0</ele><time>2026-04-12T11:26:30Z</time></trkpt><trkpt lat="43.5675703946162" lon="6.948361732657252"><ele>7.333333333333334</ele><time>2026-04-12T11:26:31Z</time></trkpt><trkpt lat="43.56751081796069" lon="6.9483947553815515"><ele>7.666666666666667</ele><time>2026-04-12T11:26:32Z</time></trkpt><trkpt lat="43.56745160950442" lon="6.948424829352821"><ele>8.0</ele><time>2026-04-12T11:26:33Z</time></trkpt><trkpt lat="43.567331209447104" lon="6.948451029514525"><ele>8.333333333333334</ele><time>2026-04-12T11:26:35Z</time></trkpt><trkpt lat="43.567203609479115" lon="6.9484431064869545"><ele>8.666666666666666</ele><time>2026-04-12T11:26:37Z</time></trkpt><trkpt lat="43.567134837388906" lon="6.948437255690625"><ele>9.0</ele><time>2026-04-12T11:26:38Z</time></trkpt><trkpt lat="43.56708178336127" lon="6.948361248727164"><ele>9.000000000000002</ele><time>2026-04-12T11:26:39Z</time></trkpt><trkpt lat="43.56702904239988" lon="6.948292181776074"><ele>9.0</ele><time>2026-04-12T11:26:40Z</time></trkpt><trkpt lat="43.5669725054709" lon="6.948232240770402"><ele>9.0</ele><time>2026-04-12T11:26:41Z</time></trkpt><trkpt lat="43.566907411345234" lon="6.948193373900708"><ele>9.0</ele><time>2026-04-12T11:26:42Z</time></trkpt><trkpt lat="43.566835995126226" lon="6.948177262583301"><ele>9.0</ele><time>2026-04-12T11:26:43Z</time></trkpt><trkpt lat="43.566762937574104" lon="6.948186203239974"><ele>9.000000000000002</ele><time>2026-04-12T11:26:44Z</time></trkpt><trkpt lat="43.56669330407002" lon="6.9482207267076435"><ele>9.0</ele><time>2026-04-12T11:26:45Z</time></trkpt><trkpt lat="43.566634227359835" lon="6.948282605038978"><ele>8.857142857142858</ele><time>2026-04-12T11:26:46Z</time></trkpt><trkpt lat="43.56658633827069" lon="6.948358705921448"><ele>8.714285714285715</ele><time>2026-04-12T11:26:47Z</time></trkpt><trkpt lat="43.56654775259585" lon="6.948442216257905"><ele>8.571428571428571</ele><time>2026-04-12T11:26:48Z</time></trkpt><trkpt lat="43.56651808718253" lon="6.948530282825366"><ele>8.428571428571429</ele><time>2026-04-12T11:26:49Z</time></trkpt><trkpt lat="43.566486428566144" lon="6.948612207024705"><ele>8.285714285714285</ele><time>2026-04-12T11:26:50Z</time></trkpt><trkpt lat="43.56644289112154" lon="6.9486842742178645"><ele>8.142857142857142</ele><time>2026-04-12T11:26:51Z</time></trkpt><trkpt lat="43.56638620654569" lon="6.948739778623949"><ele>8.0</ele><time>2026-04-12T11:26:52Z</time></trkpt><trkpt lat="43.56631961149556" lon="6.948778898271222"><ele>8.333333333333332</ele><time>2026-04-12T11:26:53Z</time></trkpt><trkpt lat="43.566248866634105" lon="6.948797301932943"><ele>8.666666666666666</ele><time>2026-04-12T11:26:54Z</time></trkpt><trkpt lat="43.56617893078385" lon="6.948810774947099"><ele>9.0</ele><time>2026-04-12T11:26:55Z</time></trkpt><trkpt lat="43.56611296093684" lon="6.948831419562722"><ele>9.333333333333334</ele><time>2026-04-12T11:26:56Z</time></trkpt><trkpt lat="43.566049444717876" lon="6.9488525836818"><ele>9.666666666666668</ele><time>2026-04-12T11:26:57Z</time></trkpt><trkpt lat="43.56598727943243" lon="6.9488748567900585"><ele>10.0</ele><time>2026-04-12T11:26:58Z</time></trkpt><trkpt lat="43.565866131140666" lon="6.948919859902884"><ele>10.0</ele><time>2026-04-12T11:27:00Z</time></trkpt><trkpt lat="43.56574741347498" lon="6.948963696226865"><ele>10.0</ele><time>2026-04-12T11:27:02Z</time></trkpt><trkpt lat="43.565625645301374" lon="6.949010197334016"><ele>10.0</ele><time>2026-04-12T11:27:04Z</time></trkpt><trkpt lat="43.565563054352616" lon="6.94903386163554"><ele>10.0</ele><time>2026-04-12T11:27:05Z</time></trkpt><trkpt lat="43.56549859595279" lon="6.949056961633058"><ele>10.0</ele><time>2026-04-12T11:27:06Z</time></trkpt><trkpt lat="43.56543418998299" lon="6.949083468397928"><ele>10.0</ele><time>2026-04-12T11:27:07Z</time></trkpt><trkpt lat="43.565367534548606" lon="6.949112550745694"><ele>9.714285714285714</ele><time>2026-04-12T11:27:08Z</time></trkpt><trkpt lat="43.56530025553009" lon="6.9491449018101195"><ele>9.428571428571429</ele><time>2026-04-12T11:27:09Z</time></trkpt><trkpt lat="43.565232324482835" lon="6.949178509784236"><ele>9.142857142857142</ele><time>2026-04-12T11:27:10Z</time></trkpt><trkpt lat="43.565162315366976" lon="6.949205081012101"><ele>8.857142857142858</ele><time>2026-04-12T11:27:11Z</time></trkpt><trkpt lat="43.565088105612844" lon="6.949220564256946"><ele>8.571428571428571</ele><time>2026-04-12T11:27:12Z</time></trkpt><trkpt lat="43.56501357246545" lon="6.9492422845012864"><ele>8.285714285714285</ele><time>2026-04-12T11:27:13Z</time></trkpt><trkpt lat="43.56493967745842" lon="6.949271135060057"><ele>8.0</ele><time>2026-04-12T11:27:14Z</time></trkpt><trkpt lat="43.56486578437899" lon="6.94929766643479"><ele>7.666666666666666</ele><time>2026-04-12T11:27:15Z</time></trkpt><trkpt lat="43.56479324298181" lon="6.949319147839821"><ele>7.333333333333333</ele><time>2026-04-12T11:27:16Z</time></trkpt><trkpt lat="43.564721006052764" lon="6.9493458186509605"><ele>7.0</ele><time>2026-04-12T11:27:17Z</time></trkpt><trkpt lat="43.56464695043663" lon="6.949382368651575"><ele>6.666666666666666</ele><time>2026-04-12T11:27:18Z</time></trkpt><trkpt lat="43.564569052972715" lon="6.949418548110125"><ele>6.333333333333333</ele><time>2026-04-12T11:27:19Z</time></trkpt><trkpt lat="43.56448782918727" lon="6.949446988974662"><ele>6.0</ele><time>2026-04-12T11:27:20Z</time></trkpt><trkpt lat="43.56440614164101" lon="6.949467472200071"><ele>5.833333333333333</ele><time>2026-04-12T11:27:21Z</time></trkpt><trkpt lat="43.56432515026624" lon="6.949488210426577"><ele>5.666666666666667</ele><time>2026-04-12T11:27:22Z</time></trkpt><trkpt lat="43.56424519409854" lon="6.949516960756625"><ele>5.5</ele><time>2026-04-12T11:27:23Z</time></trkpt><trkpt lat="43.56416534002682" lon="6.9495494223600005"><ele>5.333333333333334</ele><time>2026-04-12T11:27:24Z</time></trkpt><trkpt lat="43.56408646853218" lon="6.949579035705421"><ele>5.166666666666667</ele><time>2026-04-12T11:27:25Z</time></trkpt><trkpt lat="43.56400577411425" lon="6.949605905936072"><ele>5.0</ele><time>2026-04-12T11:27:26Z</time></trkpt><trkpt lat="43.563927076819866" lon="6.949635886191261"><ele>5.0</ele><time>2026-04-12T11:27:27Z</time></trkpt><trkpt lat="43.56384778605826" lon="6.949667482456337"><ele>5.0</ele><time>2026-04-12T11:27:28Z</time></trkpt><trkpt lat="43.56376907631801" lon="6.949697642814963"><ele>5.0</ele><time>2026-04-12T11:27:29Z</time></trkpt><trkpt lat="43.563689175136325" lon="6.949725457899937"><ele>5.0</ele><time>2026-04-12T11:27:30Z</time></trkpt><trkpt lat="43.5636097418277" lon="6.949755901870118"><ele>5.0</ele><time>2026-04-12T11:27:31Z</time></trkpt><trkpt lat="43.56352904438084" lon="6.949785074894751"><ele>5.0</ele><time>2026-04-12T11:27:32Z</time></trkpt><trkpt lat="43.563448030185626" lon="6.9498151669589925"><ele>5.333333333333334</ele><time>2026-04-12T11:27:33Z</time></trkpt><trkpt lat="43.563367078600194" lon="6.9498426831850075"><ele>5.666666666666667</ele><time>2026-04-12T11:27:34Z</time></trkpt><trkpt lat="43.56328619064995" lon="6.949872017632903"><ele>6.0</ele><time>2026-04-12T11:27:35Z</time></trkpt><trkpt lat="43.563205394062095" lon="6.9499031612024105"><ele>6.333333333333334</ele><time>2026-04-12T11:27:36Z</time></trkpt><trkpt lat="43.56312451761183" lon="6.949933202049561"><ele>6.666666666666667</ele><time>2026-04-12T11:27:37Z</time></trkpt><trkpt lat="43.56304292764278" lon="6.949963527365322"><ele>7.0</ele><time>2026-04-12T11:27:38Z</time></trkpt><trkpt lat="43.562962225046576" lon="6.9499929648320204"><ele>7.000000000000001</ele><time>2026-04-12T11:27:39Z</time></trkpt><trkpt lat="43.562881803256055" lon="6.950022199354221"><ele>7.0</ele><time>2026-04-12T11:27:40Z</time></trkpt><trkpt lat="43.56280254597422" lon="6.950052224566195"><ele>7.0</ele><time>2026-04-12T11:27:41Z</time></trkpt><trkpt lat="43.56272325721524" lon="6.9500809690025545"><ele>7.0</ele><time>2026-04-12T11:27:42Z</time></trkpt><trkpt lat="43.56264259429646" lon="6.9501103910475726"><ele>7.000000000000001</ele><time>2026-04-12T11:27:43Z</time></trkpt><trkpt lat="43.56256403987908" lon="6.9501410442786"><ele>7.0</ele><time>2026-04-12T11:27:44Z</time></trkpt><trkpt lat="43.56248793800462" lon="6.9501697713396196"><ele>6.666666666666667</ele><time>2026-04-12T11:27:45Z</time></trkpt><trkpt lat="43.56241127080657" lon="6.950193934391924"><ele>6.333333333333334</ele><time>2026-04-12T11:27:46Z</time></trkpt><trkpt lat="43.56233426852085" lon="6.950221079408245"><ele>6.0</ele><time>2026-04-12T11:27:47Z</time></trkpt><trkpt lat="43.56225624476678" lon="6.950248885262162"><ele>5.666666666666667</ele><time>2026-04-12T11:27:48Z</time></trkpt><trkpt lat="43.56217793408103" lon="6.9502779797216085"><ele>5.333333333333334</ele><time>2026-04-12T11:27:49Z</time></trkpt><trkpt lat="43.56210023925471" lon="6.950306830314212"><ele>5.0</ele><time>2026-04-12T11:27:50Z</time></trkpt><trkpt lat="43.56202230115238" lon="6.950337590612063"><ele>4.833333333333334</ele><time>2026-04-12T11:27:51Z</time></trkpt><trkpt lat="43.56194382431235" lon="6.950367046110292"><ele>4.666666666666667</ele><time>2026-04-12T11:27:52Z</time></trkpt><trkpt lat="43.56186429290835" lon="6.950397879404194"><ele>4.5</ele><time>2026-04-12T11:27:53Z</time></trkpt><trkpt lat="43.56178620700031" lon="6.950425378042588"><ele>4.333333333333333</ele><time>2026-04-12T11:27:54Z</time></trkpt><trkpt lat="43.56171053482334" lon="6.950452768113496"><ele>4.166666666666666</ele><time>2026-04-12T11:27:55Z</time></trkpt><trkpt lat="43.5616362510863" lon="6.9504787570513376"><ele>4.0</ele><time>2026-04-12T11:27:56Z</time></trkpt><trkpt lat="43.561563809720646" lon="6.950503715365296"><ele>4.0</ele><time>2026-04-12T11:27:57Z</time></trkpt><trkpt lat="43.56149473350803" lon="6.950528210353321"><ele>3.9999999999999996</ele><time>2026-04-12T11:27:58Z</time></trkpt><trkpt lat="43.56142924069769" lon="6.950555009482169"><ele>4.0</ele><time>2026-04-12T11:27:59Z</time></trkpt><trkpt lat="43.561365444315236" lon="6.950577237298733"><ele>4.0</ele><time>2026-04-12T11:28:00Z</time></trkpt><trkpt lat="43.561298538849705" lon="6.950595479502561"><ele>3.9999999999999996</ele><time>2026-04-12T11:28:01Z</time></trkpt><trkpt lat="43.56123174727194" lon="6.950612805835076"><ele>4.0</ele><time>2026-04-12T11:28:02Z</time></trkpt><trkpt lat="43.561155362089586" lon="6.950618293061801"><ele>4.0</ele><time>2026-04-12T11:28:03Z</time></trkpt><trkpt lat="43.561075902247815" lon="6.950592503064067"><ele>3.9999999999999996</ele><time>2026-04-12T11:28:04Z</time></trkpt><trkpt lat="43.561001638598995" lon="6.950536299106418"><ele>4.0</ele><time>2026-04-12T11:28:05Z</time></trkpt><trkpt lat="43.56092901973118" lon="6.950488182029014"><ele>4.0</ele><time>2026-04-12T11:28:06Z</time></trkpt><trkpt lat="43.56084870777764" lon="6.950476869220208"><ele>4.0</ele><time>2026-04-12T11:28:07Z</time></trkpt><trkpt lat="43.56076682958458" lon="6.950501809744612"><ele>3.9999999999999996</ele><time>2026-04-12T11:28:08Z</time></trkpt><trkpt lat="43.560691555155394" lon="6.950560913963896"><ele>4.0</ele><time>2026-04-12T11:28:09Z</time></trkpt><trkpt lat="43.56062858679856" lon="6.950642623728314"><ele>3.9999999999999996</ele><time>2026-04-12T11:28:10Z</time></trkpt><trkpt lat="43.560570975494166" lon="6.950725139895884"><ele>4.0</ele><time>2026-04-12T11:28:11Z</time></trkpt><trkpt lat="43.560509071823844" lon="6.9507986968354265"><ele>4.0</ele><time>2026-04-12T11:28:12Z</time></trkpt><trkpt lat="43.56043826021779" lon="6.950859563522455"><ele>4.0</ele><time>2026-04-12T11:28:13Z</time></trkpt><trkpt lat="43.56037490091993" lon="6.950929408719555"><ele>3.9999999999999996</ele><time>2026-04-12T11:28:14Z</time></trkpt><trkpt lat="43.56028327250178" lon="6.950942546631892"><ele>4.0</ele><time>2026-04-12T11:28:15Z</time></trkpt><trkpt lat="43.56020184792986" lon="6.950965435147847"><ele>4.5</ele><time>2026-04-12T11:28:16Z</time></trkpt><trkpt lat="43.56012291471725" lon="6.950990151606845"><ele>5.0</ele><time>2026-04-12T11:28:17Z</time></trkpt><trkpt lat="43.56004433335127" lon="6.951016645564475"><ele>5.5</ele><time>2026-04-12T11:28:18Z</time></trkpt><trkpt lat="43.559965044236655" lon="6.95104322782441"><ele>6.0</ele><time>2026-04-12T11:28:19Z</time></trkpt><trkpt lat="43.55988544016705" lon="6.95106865562473"><ele>6.500000000000001</ele><time>2026-04-12T11:28:20Z</time></trkpt><trkpt lat="43.559806175590325" lon="6.951095199015326"><ele>7.0</ele><time>2026-04-12T11:28:21Z</time></trkpt><trkpt lat="43.55972789896984" lon="6.951122619679729"><ele>7.000000000000001</ele><time>2026-04-12T11:28:22Z</time></trkpt><trkpt lat="43.559650494419124" lon="6.951149393460166"><ele>7.0</ele><time>2026-04-12T11:28:23Z</time></trkpt><trkpt lat="43.559572729323776" lon="6.951176630973134"><ele>7.0</ele><time>2026-04-12T11:28:24Z</time></trkpt><trkpt lat="43.559494059366294" lon="6.951201967470128"><ele>7.0</ele><time>2026-04-12T11:28:25Z</time></trkpt><trkpt lat="43.559414494082645" lon="6.95122853204458"><ele>7.000000000000001</ele><time>2026-04-12T11:28:26Z</time></trkpt><trkpt lat="43.55933701580567" lon="6.951257733166165"><ele>7.0</ele><time>2026-04-12T11:28:27Z</time></trkpt><trkpt lat="43.55926047046471" lon="6.951287305585224"><ele>7.000000000000001</ele><time>2026-04-12T11:28:28Z</time></trkpt><trkpt lat="43.559182909462486" lon="6.951314860910111"><ele>7.0</ele><time>2026-04-12T11:28:29Z</time></trkpt><trkpt lat="43.55910451061419" lon="6.951342852021574"><ele>7.0</ele><time>2026-04-12T11:28:30Z</time></trkpt><trkpt lat="43.55902511460886" lon="6.9513740226288645"><ele>7.0</ele><time>2026-04-12T11:28:31Z</time></trkpt><trkpt lat="43.55894420646586" lon="6.951407205671982"><ele>7.000000000000001</ele><time>2026-04-12T11:28:32Z</time></trkpt><trkpt lat="43.55886167742304" lon="6.951436904620515"><ele>7.0</ele><time>2026-04-12T11:28:33Z</time></trkpt><trkpt lat="43.558779448340374" lon="6.951462781982269"><ele>6.666666666666667</ele><time>2026-04-12T11:28:34Z</time></trkpt><trkpt lat="43.55869683339733" lon="6.951488994799901"><ele>6.333333333333334</ele><time>2026-04-12T11:28:35Z</time></trkpt><trkpt lat="43.55861446623914" lon="6.951511532626541"><ele>6.0</ele><time>2026-04-12T11:28:36Z</time></trkpt><trkpt lat="43.558534828570146" lon="6.951546360224096"><ele>5.666666666666667</ele><time>2026-04-12T11:28:37Z</time></trkpt><trkpt lat="43.55845155441755" lon="6.9515785381219555"><ele>5.333333333333334</ele><time>2026-04-12T11:28:38Z</time></trkpt><trkpt lat="43.558364861472555" lon="6.951608790965689"><ele>5.0</ele><time>2026-04-12T11:28:39Z</time></trkpt><trkpt lat="43.558274525821155" lon="6.951641604997907"><ele>5.0</ele><time>2026-04-12T11:28:40Z</time></trkpt><trkpt lat="43.55818291792964" lon="6.951675193649287"><ele>5.0</ele><time>2026-04-12T11:28:41Z</time></trkpt><trkpt lat="43.55808956090234" lon="6.95170847252071"><ele>5.0</ele><time>2026-04-12T11:28:42Z</time></trkpt><trkpt lat="43.55799600007544" lon="6.9517447153861935"><ele>5.0</ele><time>2026-04-12T11:28:43Z</time></trkpt><trkpt lat="43.55789993017658" lon="6.951777968144736"><ele>5.0</ele><time>2026-04-12T11:28:44Z</time></trkpt><trkpt lat="43.55780566131607" lon="6.951808518274116"><ele>5.0</ele><time>2026-04-12T11:28:45Z</time></trkpt><trkpt lat="43.55771172917884" lon="6.951833505743494"><ele>5.0</ele><time>2026-04-12T11:28:46Z</time></trkpt><trkpt lat="43.55761790233068" lon="6.951881147955288"><ele>5.0</ele><time>2026-04-12T11:28:47Z</time></trkpt><trkpt lat="43.55754902851562" lon="6.951923995345114"><ele>5.0</ele><time>2026-04-12T11:28:48Z</time></trkpt><trkpt lat="43.55747756051516" lon="6.951981199833075"><ele>5.0</ele><time>2026-04-12T11:28:49Z</time></trkpt><trkpt lat="43.557423036417845" lon="6.95205841270172"><ele>5.0</ele><time>2026-04-12T11:28:50Z</time></trkpt><trkpt lat="43.55737434331833" lon="6.95214783887943"><ele>5.0</ele><time>2026-04-12T11:28:51Z</time></trkpt><trkpt lat="43.5573353542102" lon="6.952247951421592"><ele>5.0</ele><time>2026-04-12T11:28:52Z</time></trkpt><trkpt lat="43.55730718973772" lon="6.952346110628477"><ele>5.0</ele><time>2026-04-12T11:28:53Z</time></trkpt><trkpt lat="43.557286033315194" lon="6.952443951480623"><ele>5.0</ele><time>2026-04-12T11:28:54Z</time></trkpt><trkpt lat="43.557274531851796" lon="6.95254302409358"><ele>5.0</ele><time>2026-04-12T11:28:55Z</time></trkpt><trkpt lat="43.557266357972885" lon="6.952637888220508"><ele>5.0</ele><time>2026-04-12T11:28:56Z</time></trkpt><trkpt lat="43.557254739230984" lon="6.952727186966675"><ele>5.0</ele><time>2026-04-12T11:28:57Z</time></trkpt><trkpt lat="43.55721074902958" lon="6.9528830972076765"><ele>5.0</ele><time>2026-04-12T11:28:59Z</time></trkpt><trkpt lat="43.55711403628411" lon="6.95295389144543"><ele>5.0</ele><time>2026-04-12T11:29:01Z</time></trkpt><trkpt lat="43.55701133294522" lon="6.952924153057145"><ele>5.0</ele><time>2026-04-12T11:29:03Z</time></trkpt><trkpt lat="43.55696350039708" lon="6.952863957973068"><ele>5.0</ele><time>2026-04-12T11:29:04Z</time></trkpt><trkpt lat="43.55684783862809" lon="6.952786693505277"><ele>5.0</ele><time>2026-04-12T11:29:06Z</time></trkpt><trkpt lat="43.55678047462801" lon="6.952764995044934"><ele>5.0</ele><time>2026-04-12T11:29:07Z</time></trkpt><trkpt lat="43.5567110164468" lon="6.952763573925016"><ele>5.0</ele><time>2026-04-12T11:29:08Z</time></trkpt><trkpt lat="43.556640327432355" lon="6.952789168919815"><ele>5.0</ele><time>2026-04-12T11:29:09Z</time></trkpt><trkpt lat="43.556576910724836" lon="6.952843130396666"><ele>5.0</ele><time>2026-04-12T11:29:10Z</time></trkpt><trkpt lat="43.55652615487793" lon="6.952920568550261"><ele>5.0</ele><time>2026-04-12T11:29:11Z</time></trkpt><trkpt lat="43.556492224572274" lon="6.953010702794677"><ele>5.0</ele><time>2026-04-12T11:29:12Z</time></trkpt><trkpt lat="43.55647085835751" lon="6.953097498901962"><ele>5.0</ele><time>2026-04-12T11:29:13Z</time></trkpt><trkpt lat="43.556453649647224" lon="6.953182543335833"><ele>5.0</ele><time>2026-04-12T11:29:14Z</time></trkpt><trkpt lat="43.55642307255456" lon="6.953261281607931"><ele>5.0</ele><time>2026-04-12T11:29:15Z</time></trkpt><trkpt lat="43.556373838947486" lon="6.953324765547689"><ele>5.0</ele><time>2026-04-12T11:29:16Z</time></trkpt><trkpt lat="43.556319646872346" lon="6.953384848979238"><ele>5.0</ele><time>2026-04-12T11:29:17Z</time></trkpt><trkpt lat="43.556277720701374" lon="6.953465900297683"><ele>5.0</ele><time>2026-04-12T11:29:18Z</time></trkpt><trkpt lat="43.55620566482132" lon="6.953498025676362"><ele>5.0</ele><time>2026-04-12T11:29:19Z</time></trkpt><trkpt lat="43.556146624888875" lon="6.953552691021929"><ele>5.0</ele><time>2026-04-12T11:29:20Z</time></trkpt><trkpt lat="43.55609036371913" lon="6.953610220588662"><ele>5.428571428571429</ele><time>2026-04-12T11:29:21Z</time></trkpt><trkpt lat="43.55603388892476" lon="6.953668113769282"><ele>5.857142857142858</ele><time>2026-04-12T11:29:22Z</time></trkpt><trkpt lat="43.55597649397014" lon="6.953723099620749"><ele>6.285714285714286</ele><time>2026-04-12T11:29:23Z</time></trkpt><trkpt lat="43.555916011967795" lon="6.953771324608794"><ele>6.7142857142857135</ele><time>2026-04-12T11:29:24Z</time></trkpt><trkpt lat="43.55585497452785" lon="6.953815344850368"><ele>7.142857142857142</ele><time>2026-04-12T11:29:25Z</time></trkpt><trkpt lat="43.555795744775686" lon="6.9538648046380045"><ele>7.571428571428571</ele><time>2026-04-12T11:29:26Z</time></trkpt><trkpt lat="43.55573359613921" lon="6.953909279485981"><ele>8.0</ele><time>2026-04-12T11:29:27Z</time></trkpt><trkpt lat="43.55567060001019" lon="6.953949135366149"><ele>8.0</ele><time>2026-04-12T11:29:28Z</time></trkpt><trkpt lat="43.555607726144906" lon="6.953987006482574"><ele>7.999999999999999</ele><time>2026-04-12T11:29:29Z</time></trkpt><trkpt lat="43.555545252268224" lon="6.95402034437734"><ele>8.0</ele><time>2026-04-12T11:29:30Z</time></trkpt><trkpt lat="43.555482253769384" lon="6.954048599571201"><ele>8.0</ele><time>2026-04-12T11:29:31Z</time></trkpt><trkpt lat="43.55541879240083" lon="6.954077172154717"><ele>7.999999999999999</ele><time>2026-04-12T11:29:32Z</time></trkpt><trkpt lat="43.555353443767004" lon="6.954102310073318"><ele>8.0</ele><time>2026-04-12T11:29:33Z</time></trkpt><trkpt lat="43.55528936388144" lon="6.9541244834352955"><ele>8.0</ele><time>2026-04-12T11:29:34Z</time></trkpt><trkpt lat="43.55522814207168" lon="6.954145409822047"><ele>7.800000000000001</ele><time>2026-04-12T11:29:35Z</time></trkpt><trkpt lat="43.5551085530468" lon="6.9541917372538435"><ele>7.6000000000000005</ele><time>2026-04-12T11:29:37Z</time></trkpt><trkpt lat="43.55498506033005" lon="6.954236611842811"><ele>7.3999999999999995</ele><time>2026-04-12T11:29:39Z</time></trkpt><trkpt lat="43.55491906939697" lon="6.954257658754666"><ele>7.199999999999999</ele><time>2026-04-12T11:29:40Z</time></trkpt><trkpt lat="43.55485105564171" lon="6.954270228287456"><ele>7.0</ele><time>2026-04-12T11:29:41Z</time></trkpt><trkpt lat="43.55478166860668" lon="6.954279571980951"><ele>7.000000000000001</ele><time>2026-04-12T11:29:42Z</time></trkpt><trkpt lat="43.55471466719024" lon="6.954295378774965"><ele>7.0</ele><time>2026-04-12T11:29:43Z</time></trkpt><trkpt lat="43.554592884288994" lon="6.954342231236939"><ele>7.0</ele><time>2026-04-12T11:29:45Z</time></trkpt><trkpt lat="43.554528997264526" lon="6.954360329112561"><ele>7.0</ele><time>2026-04-12T11:29:46Z</time></trkpt><trkpt lat="43.55446506685602" lon="6.954382502416056"><ele>7.000000000000001</ele><time>2026-04-12T11:29:47Z</time></trkpt><trkpt lat="43.5544026880855" lon="6.954410891653134"><ele>7.0</ele><time>2026-04-12T11:29:48Z</time></trkpt><trkpt lat="43.55434292960806" lon="6.954444663166871"><ele>6.857142857142857</ele><time>2026-04-12T11:29:49Z</time></trkpt><trkpt lat="43.55428474039696" lon="6.954480856753737"><ele>6.714285714285714</ele><time>2026-04-12T11:29:50Z</time></trkpt><trkpt lat="43.55422391073144" lon="6.954509344531929"><ele>6.571428571428571</ele><time>2026-04-12T11:29:51Z</time></trkpt><trkpt lat="43.554160062719404" lon="6.954529826880593"><ele>6.428571428571429</ele><time>2026-04-12T11:29:52Z</time></trkpt><trkpt lat="43.554095599292886" lon="6.95454858293323"><ele>6.285714285714286</ele><time>2026-04-12T11:29:53Z</time></trkpt><trkpt lat="43.5540321037144" lon="6.954565868616564"><ele>6.142857142857142</ele><time>2026-04-12T11:29:54Z</time></trkpt><trkpt lat="43.55396877416616" lon="6.954582411937387"><ele>6.0</ele><time>2026-04-12T11:29:55Z</time></trkpt><trkpt lat="43.55390505213238" lon="6.954602833363729"><ele>5.999999999999999</ele><time>2026-04-12T11:29:56Z</time></trkpt><trkpt lat="43.55384310547107" lon="6.954636060223172"><ele>6.0</ele><time>2026-04-12T11:29:57Z</time></trkpt><trkpt lat="43.55378123966555" lon="6.954665269249495"><ele>6.0</ele><time>2026-04-12T11:29:58Z</time></trkpt><trkpt lat="43.553717079095925" lon="6.954687895404309"><ele>6.0</ele><time>2026-04-12T11:29:59Z</time></trkpt><trkpt lat="43.553652602387054" lon="6.954710933671049"><ele>6.0</ele><time>2026-04-12T11:30:00Z</time></trkpt><trkpt lat="43.553585753639766" lon="6.954731800452461"><ele>5.999999999999999</ele><time>2026-04-12T11:30:01Z</time></trkpt><trkpt lat="43.553518033894264" lon="6.95475621002367"><ele>6.0</ele><time>2026-04-12T11:30:02Z</time></trkpt><trkpt lat="43.55345000614661" lon="6.954785303719055"><ele>5.857142857142857</ele><time>2026-04-12T11:30:03Z</time></trkpt><trkpt lat="43.55338322409496" lon="6.954812794649421"><ele>5.714285714285714</ele><time>2026-04-12T11:30:04Z</time></trkpt><trkpt lat="43.55331509699241" lon="6.954834660250028"><ele>5.571428571428571</ele><time>2026-04-12T11:30:05Z</time></trkpt><trkpt lat="43.55324545188015" lon="6.954857402873693"><ele>5.428571428571429</ele><time>2026-04-12T11:30:06Z</time></trkpt><trkpt lat="43.55317709784982" lon="6.954890684952678"><ele>5.285714285714286</ele><time>2026-04-12T11:30:07Z</time></trkpt><trkpt lat="43.55311056902564" lon="6.9549299747329485"><ele>5.142857142857142</ele><time>2026-04-12T11:30:08Z</time></trkpt><trkpt lat="43.55304504843357" lon="6.954970861466514"><ele>5.0</ele><time>2026-04-12T11:30:09Z</time></trkpt><trkpt lat="43.55297888149685" lon="6.955006640159334"><ele>5.0</ele><time>2026-04-12T11:30:10Z</time></trkpt><trkpt lat="43.55291042891985" lon="6.955035950994682"><ele>5.0</ele><time>2026-04-12T11:30:11Z</time></trkpt><trkpt lat="43.55284049814538" lon="6.9550608542417915"><ele>5.0</ele><time>2026-04-12T11:30:12Z</time></trkpt><trkpt lat="43.552770771931364" lon="6.955087078055292"><ele>5.0</ele><time>2026-04-12T11:30:13Z</time></trkpt><trkpt lat="43.55270067085792" lon="6.955111623826036"><ele>5.0</ele><time>2026-04-12T11:30:14Z</time></trkpt><trkpt lat="43.55262995007194" lon="6.955137863632615"><ele>5.0</ele><time>2026-04-12T11:30:15Z</time></trkpt><trkpt lat="43.55256012884942" lon="6.955168846402907"><ele>5.0</ele><time>2026-04-12T11:30:16Z</time></trkpt><trkpt lat="43.552488730047656" lon="6.955194125888918"><ele>5.0</ele><time>2026-04-12T11:30:17Z</time></trkpt><trkpt lat="43.55241916984441" lon="6.95521870896313"><ele>5.0</ele><time>2026-04-12T11:30:18Z</time></trkpt><trkpt lat="43.552351594022895" lon="6.955248780135869"><ele>5.0</ele><time>2026-04-12T11:30:19Z</time></trkpt><trkpt lat="43.5522853046363" lon="6.955279990320797"><ele>5.0</ele><time>2026-04-12T11:30:20Z</time></trkpt><trkpt lat="43.55222118186599" lon="6.955307690717324"><ele>5.0</ele><time>2026-04-12T11:30:21Z</time></trkpt><trkpt lat="43.55216105273939" lon="6.955335845093327"><ele>5.0</ele><time>2026-04-12T11:30:22Z</time></trkpt><trkpt lat="43.552100310300496" lon="6.955366708347923"><ele>5.0</ele><time>2026-04-12T11:30:23Z</time></trkpt><trkpt lat="43.5520373007478" lon="6.955397869224315"><ele>5.0</ele><time>2026-04-12T11:30:24Z</time></trkpt><trkpt lat="43.551971197699736" lon="6.9554246713118895"><ele>5.0</ele><time>2026-04-12T11:30:25Z</time></trkpt><trkpt lat="43.551904735124324" lon="6.955453059359014"><ele>5.0</ele><time>2026-04-12T11:30:26Z</time></trkpt><trkpt lat="43.55183922843142" lon="6.955485241475918"><ele>5.0</ele><time>2026-04-12T11:30:27Z</time></trkpt><trkpt lat="43.55177201794137" lon="6.955518643801661"><ele>5.0</ele><time>2026-04-12T11:30:28Z</time></trkpt><trkpt lat="43.55170452990817" lon="6.9555524938601465"><ele>5.0</ele><time>2026-04-12T11:30:29Z</time></trkpt><trkpt lat="43.551638362960226" lon="6.955592609141596"><ele>5.0</ele><time>2026-04-12T11:30:30Z</time></trkpt><trkpt lat="43.55157552227856" lon="6.955640583576535"><ele>5.0</ele><time>2026-04-12T11:30:31Z</time></trkpt><trkpt lat="43.551516783083045" lon="6.955692111328504"><ele>5.0</ele><time>2026-04-12T11:30:32Z</time></trkpt><trkpt lat="43.551457568223526" lon="6.955743410375075"><ele>5.0</ele><time>2026-04-12T11:30:33Z</time></trkpt><trkpt lat="43.55139816364673" lon="6.955797441243464"><ele>5.0</ele><time>2026-04-12T11:30:34Z</time></trkpt><trkpt lat="43.5513406203473" lon="6.955854910746111"><ele>5.0</ele><time>2026-04-12T11:30:35Z</time></trkpt><trkpt lat="43.551286080391826" lon="6.955915117065398"><ele>5.0</ele><time>2026-04-12T11:30:36Z</time></trkpt><trkpt lat="43.55123263461636" lon="6.9559756671077"><ele>5.0</ele><time>2026-04-12T11:30:37Z</time></trkpt><trkpt lat="43.551180427653705" lon="6.956034869428166"><ele>5.142857142857142</ele><time>2026-04-12T11:30:38Z</time></trkpt><trkpt lat="43.55113075366003" lon="6.956096682328921"><ele>5.285714285714286</ele><time>2026-04-12T11:30:39Z</time></trkpt><trkpt lat="43.55107903840527" lon="6.95615675090169"><ele>5.428571428571429</ele><time>2026-04-12T11:30:40Z</time></trkpt><trkpt lat="43.551027161742965" lon="6.956217748219362"><ele>5.571428571428571</ele><time>2026-04-12T11:30:41Z</time></trkpt><trkpt lat="43.55097807665947" lon="6.956284065427109"><ele>5.714285714285714</ele><time>2026-04-12T11:30:42Z</time></trkpt><trkpt lat="43.55093177998989" lon="6.956354107382376"><ele>5.857142857142857</ele><time>2026-04-12T11:30:43Z</time></trkpt><trkpt lat="43.550886516668534" lon="6.9564248026995354"><ele>6.0</ele><time>2026-04-12T11:30:44Z</time></trkpt><trkpt lat="43.550841769477266" lon="6.956495442712743"><ele>6.0</ele><time>2026-04-12T11:30:45Z</time></trkpt><trkpt lat="43.55079833764731" lon="6.95656834552853"><ele>6.0</ele><time>2026-04-12T11:30:46Z</time></trkpt><trkpt lat="43.550757348059285" lon="6.956643788118615"><ele>6.0</ele><time>2026-04-12T11:30:47Z</time></trkpt><trkpt lat="43.55071379126845" lon="6.956713417234472"><ele>6.0</ele><time>2026-04-12T11:30:48Z</time></trkpt><trkpt lat="43.550671123574" lon="6.956781236835174"><ele>6.0</ele><time>2026-04-12T11:30:49Z</time></trkpt><trkpt lat="43.55058816834916" lon="6.956903072999263"><ele>6.0</ele><time>2026-04-12T11:30:51Z</time></trkpt><trkpt lat="43.550516533151075" lon="6.95701469281316"><ele>6.0</ele><time>2026-04-12T11:30:53Z</time></trkpt><trkpt lat="43.55041259317699" lon="6.957097777049372"><ele>6.0</ele><time>2026-04-12T11:30:55Z</time></trkpt><trkpt lat="43.55035138023313" lon="6.957130890171589"><ele>6.0</ele><time>2026-04-12T11:30:56Z</time></trkpt><trkpt lat="43.55030182248111" lon="6.9571872866734585"><ele>6.0</ele><time>2026-04-12T11:30:57Z</time></trkpt><trkpt lat="43.550268785095405" lon="6.957270543731425"><ele>6.0</ele><time>2026-04-12T11:30:58Z</time></trkpt><trkpt lat="43.55025981841865" lon="6.9573674279276245"><ele>6.0</ele><time>2026-04-12T11:30:59Z</time></trkpt><trkpt lat="43.55027471210315" lon="6.957466422324847"><ele>5.7142857142857135</ele><time>2026-04-12T11:31:00Z</time></trkpt><trkpt lat="43.55029056847192" lon="6.957559642019112"><ele>5.428571428571429</ele><time>2026-04-12T11:31:01Z</time></trkpt><trkpt lat="43.55028863342385" lon="6.957654881667937"><ele>5.142857142857142</ele><time>2026-04-12T11:31:02Z</time></trkpt><trkpt lat="43.55027145623639" lon="6.9577519404082135"><ele>4.857142857142857</ele><time>2026-04-12T11:31:03Z</time></trkpt><trkpt lat="43.55026032569114" lon="6.957852275457268"><ele>4.571428571428571</ele><time>2026-04-12T11:31:04Z</time></trkpt><trkpt lat="43.55025718947747" lon="6.957953500077591"><ele>4.285714285714286</ele><time>2026-04-12T11:31:05Z</time></trkpt><trkpt lat="43.55025301484655" lon="6.958050983431847"><ele>4.0</ele><time>2026-04-12T11:31:06Z</time></trkpt><trkpt lat="43.55024732392435" lon="6.958146254077595"><ele>3.9999999999999996</ele><time>2026-04-12T11:31:07Z</time></trkpt><trkpt lat="43.550243716897654" lon="6.958239744903259"><ele>4.0</ele><time>2026-04-12T11:31:08Z</time></trkpt><trkpt lat="43.550238412670765" lon="6.958403370866066"><ele>4.0</ele><time>2026-04-12T11:31:10Z</time></trkpt><trkpt lat="43.55023007786623" lon="6.9585367299752905"><ele>4.0</ele><time>2026-04-12T11:31:12Z</time></trkpt><trkpt lat="43.550222403390606" lon="6.958645413196865"><ele>3.9999999999999996</ele><time>2026-04-12T11:31:15Z</time></trkpt><trkpt lat="43.55021775967716" lon="6.958732658577962"><ele>4.0</ele><time>2026-04-12T11:31:19Z</time></trkpt><trkpt lat="43.55021353410254" lon="6.9588265389633275"><ele>3.9999999999999996</ele><time>2026-04-12T11:31:35Z</time></trkpt><trkpt lat="43.550210953266735" lon="6.958933700995101"><ele>4.0</ele><time>2026-04-12T11:31:38Z</time></trkpt><trkpt lat="43.55020176155894" lon="6.959029393630246"><ele>4.0</ele><time>2026-04-12T11:31:40Z</time></trkpt><trkpt lat="43.55018911688355" lon="6.959144157431548"><ele>4.0</ele><time>2026-04-12T11:31:42Z</time></trkpt><trkpt lat="43.55019541062928" lon="6.959273821568994"><ele>3.9999999999999996</ele><time>2026-04-12T11:31:44Z</time></trkpt><trkpt lat="43.5501852431473" lon="6.959361272846702"><ele>4.0</ele><time>2026-04-12T11:31:45Z</time></trkpt><trkpt lat="43.550177882596664" lon="6.959530283103006"><ele>4.0</ele><time>2026-04-12T11:31:47Z</time></trkpt><trkpt lat="43.550170917779546" lon="6.959699609818666"><ele>4.0</ele><time>2026-04-12T11:31:49Z</time></trkpt><trkpt lat="43.550167354002745" lon="6.959787464105082"><ele>4.0</ele><time>2026-04-12T11:31:50Z</time></trkpt><trkpt lat="43.55016822534279" lon="6.959876197632484"><ele>4.0</ele><time>2026-04-12T11:31:51Z</time></trkpt><trkpt lat="43.550161670565664" lon="6.960046316856577"><ele>4.0</ele><time>2026-04-12T11:31:53Z</time></trkpt><trkpt lat="43.55015342944079" lon="6.960216777301902"><ele>4.0</ele><time>2026-04-12T11:31:55Z</time></trkpt><trkpt lat="43.55014876759293" lon="6.960383800393258"><ele>4.0</ele><time>2026-04-12T11:31:57Z</time></trkpt><trkpt lat="43.55014115210822" lon="6.960554264697772"><ele>4.0</ele><time>2026-04-12T11:31:59Z</time></trkpt><trkpt lat="43.55013276546706" lon="6.960727885403405"><ele>4.0</ele><time>2026-04-12T11:32:01Z</time></trkpt><trkpt lat="43.55011767538787" lon="6.960897781055261"><ele>3.5</ele><time>2026-04-12T11:32:03Z</time></trkpt><trkpt lat="43.550096443430064" lon="6.961059567722558"><ele>3.0</ele><time>2026-04-12T11:32:05Z</time></trkpt><trkpt lat="43.550064858220296" lon="6.9612210508368415"><ele>2.5</ele><time>2026-04-12T11:32:07Z</time></trkpt><trkpt lat="43.550032793037175" lon="6.9613839450837265"><ele>2.0</ele><time>2026-04-12T11:32:09Z</time></trkpt><trkpt lat="43.55000846808774" lon="6.961541678640468"><ele>2.0</ele><time>2026-04-12T11:32:11Z</time></trkpt><trkpt lat="43.54999293697538" lon="6.9616958990805085"><ele>2.0</ele><time>2026-04-12T11:32:13Z</time></trkpt><trkpt lat="43.55001307490615" lon="6.961843232028928"><ele>2.0</ele><time>2026-04-12T11:32:15Z</time></trkpt><trkpt lat="43.54995952700761" lon="6.961961795291716"><ele>2.0</ele><time>2026-04-12T11:32:17Z</time></trkpt><trkpt lat="43.549899103857065" lon="6.962072949193575"><ele>2.0</ele><time>2026-04-12T11:32:19Z</time></trkpt><trkpt lat="43.54978189908556" lon="6.962108110385192"><ele>2.142857142857143</ele><time>2026-04-12T11:32:21Z</time></trkpt><trkpt lat="43.549712561660954" lon="6.962140014989007"><ele>2.2857142857142856</ele><time>2026-04-12T11:32:22Z</time></trkpt><trkpt lat="43.54964863398034" lon="6.962131172958352"><ele>2.4285714285714284</ele><time>2026-04-12T11:32:23Z</time></trkpt><trkpt lat="43.54958514662557" lon="6.962107529899143"><ele>2.571428571428571</ele><time>2026-04-12T11:32:24Z</time></trkpt><trkpt lat="43.549520293579995" lon="6.962117948555324"><ele>2.7142857142857144</ele><time>2026-04-12T11:32:25Z</time></trkpt><trkpt lat="43.549455968045486" lon="6.96212339007409"><ele>2.8571428571428568</ele><time>2026-04-12T11:32:26Z</time></trkpt><trkpt lat="43.54939140790082" lon="6.9621265113405775"><ele>3.0</ele><time>2026-04-12T11:32:27Z</time></trkpt><trkpt lat="43.54932841833481" lon="6.9621417409314"><ele>3.0</ele><time>2026-04-12T11:32:28Z</time></trkpt><trkpt lat="43.54928087114727" lon="6.962204289777595"><ele>3.0</ele><time>2026-04-12T11:32:29Z</time></trkpt><trkpt lat="43.549211539453744" lon="6.962186613251249"><ele>3.0</ele><time>2026-04-12T11:32:30Z</time></trkpt><trkpt lat="43.54909042149911" lon="6.962202272819019"><ele>3.0</ele><time>2026-04-12T11:32:32Z</time></trkpt><trkpt lat="43.54896808252517" lon="6.962221744681052"><ele>3.0</ele><time>2026-04-12T11:32:34Z</time></trkpt><trkpt lat="43.548842946912266" lon="6.962241566472751"><ele>3.0</ele><time>2026-04-12T11:32:36Z</time></trkpt><trkpt lat="43.548777764850236" lon="6.962244221017915"><ele>3.0</ele><time>2026-04-12T11:32:37Z</time></trkpt><trkpt lat="43.5487126336268" lon="6.9622501731356685"><ele>3.0</ele><time>2026-04-12T11:32:38Z</time></trkpt><trkpt lat="43.548647518730284" lon="6.962256446679336"><ele>3.0</ele><time>2026-04-12T11:32:39Z</time></trkpt><trkpt lat="43.54858280482606" lon="6.962262293799564"><ele>3.0</ele><time>2026-04-12T11:32:40Z</time></trkpt><trkpt lat="43.54851958718907" lon="6.962267653976862"><ele>3.0</ele><time>2026-04-12T11:32:41Z</time></trkpt><trkpt lat="43.54839360315064" lon="6.962275726626868"><ele>3.1666666666666665</ele><time>2026-04-12T11:32:43Z</time></trkpt><trkpt lat="43.548329142551594" lon="6.96227609368555"><ele>3.333333333333333</ele><time>2026-04-12T11:32:44Z</time></trkpt><trkpt lat="43.548202717103685" lon="6.962281969739932"><ele>3.5</ele><time>2026-04-12T11:32:46Z</time></trkpt><trkpt lat="43.54807613942276" lon="6.962295478277907"><ele>3.6666666666666665</ele><time>2026-04-12T11:32:48Z</time></trkpt><trkpt lat="43.54801070738914" lon="6.962295981026156"><ele>3.833333333333333</ele><time>2026-04-12T11:32:49Z</time></trkpt><trkpt lat="43.54794555184549" lon="6.962299278976366"><ele>4.0</ele><time>2026-04-12T11:32:50Z</time></trkpt><trkpt lat="43.54788132401209" lon="6.96230742344691"><ele>4.142857142857142</ele><time>2026-04-12T11:32:51Z</time></trkpt><trkpt lat="43.54781568490841" lon="6.962313780743462"><ele>4.285714285714286</ele><time>2026-04-12T11:32:52Z</time></trkpt><trkpt lat="43.547749407366624" lon="6.962318091845525"><ele>4.428571428571429</ele><time>2026-04-12T11:32:53Z</time></trkpt><trkpt lat="43.547682085451115" lon="6.962319905046297"><ele>4.571428571428571</ele><time>2026-04-12T11:32:54Z</time></trkpt><trkpt lat="43.54761523993168" lon="6.962323643925723"><ele>4.714285714285714</ele><time>2026-04-12T11:32:55Z</time></trkpt><trkpt lat="43.54754941238621" lon="6.962326973616961"><ele>4.857142857142857</ele><time>2026-04-12T11:32:56Z</time></trkpt><trkpt lat="43.54748206523108" lon="6.962328650488367"><ele>5.0</ele><time>2026-04-12T11:32:57Z</time></trkpt><trkpt lat="43.54741552632451" lon="6.962330461177494"><ele>5.0</ele><time>2026-04-12T11:32:58Z</time></trkpt><trkpt lat="43.54734893643511" lon="6.962333272396623"><ele>5.0</ele><time>2026-04-12T11:32:59Z</time></trkpt><trkpt lat="43.54728267866982" lon="6.962338107446334"><ele>5.0</ele><time>2026-04-12T11:33:00Z</time></trkpt><trkpt lat="43.54721812684638" lon="6.962343587705259"><ele>5.0</ele><time>2026-04-12T11:33:01Z</time></trkpt><trkpt lat="43.54715333608481" lon="6.962349468707617"><ele>5.0</ele><time>2026-04-12T11:33:02Z</time></trkpt><trkpt lat="43.54708864019663" lon="6.962356585684414"><ele>5.0</ele><time>2026-04-12T11:33:03Z</time></trkpt><trkpt lat="43.54702272851131" lon="6.962362816541968"><ele>5.0</ele><time>2026-04-12T11:33:04Z</time></trkpt><trkpt lat="43.54695755895714" lon="6.962366706975758"><ele>5.285714285714286</ele><time>2026-04-12T11:33:05Z</time></trkpt><trkpt lat="43.546891265633306" lon="6.962369919013311"><ele>5.571428571428571</ele><time>2026-04-12T11:33:06Z</time></trkpt><trkpt lat="43.54682211823606" lon="6.962371636140694"><ele>5.857142857142858</ele><time>2026-04-12T11:33:07Z</time></trkpt><trkpt lat="43.546751980204625" lon="6.962371402844535"><ele>6.142857142857142</ele><time>2026-04-12T11:33:08Z</time></trkpt><trkpt lat="43.54668201399808" lon="6.962370274229314"><ele>6.428571428571429</ele><time>2026-04-12T11:33:09Z</time></trkpt><trkpt lat="43.54661216244931" lon="6.962369847118459"><ele>6.714285714285714</ele><time>2026-04-12T11:33:10Z</time></trkpt><trkpt lat="43.54654181826377" lon="6.962372186112705"><ele>7.0</ele><time>2026-04-12T11:33:11Z</time></trkpt><trkpt lat="43.54647097868816" lon="6.9623634425828795"><ele>7.0</ele><time>2026-04-12T11:33:12Z</time></trkpt><trkpt lat="43.54640164369315" lon="6.96233162250942"><ele>7.0</ele><time>2026-04-12T11:33:13Z</time></trkpt><trkpt lat="43.546334036103126" lon="6.9622942945191415"><ele>7.0</ele><time>2026-04-12T11:33:14Z</time></trkpt><trkpt lat="43.54626692959201" lon="6.962263912999371"><ele>7.0</ele><time>2026-04-12T11:33:15Z</time></trkpt><trkpt lat="43.5462013537713" lon="6.962231254730285"><ele>7.0</ele><time>2026-04-12T11:33:16Z</time></trkpt><trkpt lat="43.54613599076998" lon="6.9622045101119765"><ele>7.0</ele><time>2026-04-12T11:33:17Z</time></trkpt><trkpt lat="43.54607129934904" lon="6.962178902018432"><ele>7.0</ele><time>2026-04-12T11:33:18Z</time></trkpt><trkpt lat="43.54600460258512" lon="6.962153266015271"><ele>6.428571428571429</ele><time>2026-04-12T11:33:19Z</time></trkpt><trkpt lat="43.54593773544734" lon="6.962126769970948"><ele>5.857142857142857</ele><time>2026-04-12T11:33:20Z</time></trkpt><trkpt lat="43.54587169807088" lon="6.962093923291843"><ele>5.285714285714286</ele><time>2026-04-12T11:33:21Z</time></trkpt><trkpt lat="43.545804606030515" lon="6.9620586461366045"><ele>4.714285714285714</ele><time>2026-04-12T11:33:22Z</time></trkpt><trkpt lat="43.5457360650122" lon="6.962022154942266"><ele>4.142857142857142</ele><time>2026-04-12T11:33:23Z</time></trkpt><trkpt lat="43.54566849192191" lon="6.961982329303697"><ele>3.571428571428571</ele><time>2026-04-12T11:33:24Z</time></trkpt><trkpt lat="43.54560117587586" lon="6.96194041290357"><ele>3.0</ele><time>2026-04-12T11:33:25Z</time></trkpt><trkpt lat="43.54553452786265" lon="6.961896092672878"><ele>2.9999999999999996</ele><time>2026-04-12T11:33:26Z</time></trkpt><trkpt lat="43.5454686482994" lon="6.96184895357134"><ele>3.0</ele><time>2026-04-12T11:33:27Z</time></trkpt><trkpt lat="43.54540337056742" lon="6.961800521355648"><ele>3.0</ele><time>2026-04-12T11:33:28Z</time></trkpt><trkpt lat="43.545340297350016" lon="6.961751124702987"><ele>3.0</ele><time>2026-04-12T11:33:29Z</time></trkpt><trkpt lat="43.54527958612681" lon="6.9616967179571"><ele>3.0</ele><time>2026-04-12T11:33:30Z</time></trkpt><trkpt lat="43.5452182385041" lon="6.96163789155734"><ele>2.9999999999999996</ele><time>2026-04-12T11:33:31Z</time></trkpt><trkpt lat="43.54515699941929" lon="6.961577581657279"><ele>3.0</ele><time>2026-04-12T11:33:32Z</time></trkpt><trkpt lat="43.54509644819412" lon="6.961518011973464"><ele>2.9999999999999996</ele><time>2026-04-12T11:33:33Z</time></trkpt><trkpt lat="43.545040860270866" lon="6.961452598232986"><ele>3.0</ele><time>2026-04-12T11:33:34Z</time></trkpt><trkpt lat="43.54498276151761" lon="6.961392673506697"><ele>3.0</ele><time>2026-04-12T11:33:35Z</time></trkpt><trkpt lat="43.54492501614776" lon="6.961328644228522"><ele>3.0</ele><time>2026-04-12T11:33:36Z</time></trkpt><trkpt lat="43.54486727296744" lon="6.961263636381898"><ele>3.0</ele><time>2026-04-12T11:33:37Z</time></trkpt><trkpt lat="43.54480817061297" lon="6.961203954732692"><ele>2.9999999999999996</ele><time>2026-04-12T11:33:38Z</time></trkpt><trkpt lat="43.544748875149" lon="6.961141441972632"><ele>3.0</ele><time>2026-04-12T11:33:39Z</time></trkpt><trkpt lat="43.544689931794274" lon="6.961080940960162"><ele>2.9999999999999996</ele><time>2026-04-12T11:33:40Z</time></trkpt><trkpt lat="43.54463207529352" lon="6.96101977694824"><ele>3.0</ele><time>2026-04-12T11:33:41Z</time></trkpt><trkpt lat="43.544576064400324" lon="6.960957502172397"><ele>3.0</ele><time>2026-04-12T11:33:42Z</time></trkpt><trkpt lat="43.54451961689705" lon="6.960895299592309"><ele>3.0</ele><time>2026-04-12T11:33:43Z</time></trkpt><trkpt lat="43.54446307782709" lon="6.960833917780771"><ele>3.0</ele><time>2026-04-12T11:33:44Z</time></trkpt><trkpt lat="43.54440670666864" lon="6.960771222204916"><ele>2.9999999999999996</ele><time>2026-04-12T11:33:45Z</time></trkpt><trkpt lat="43.54435056759265" lon="6.960708198753139"><ele>3.0</ele><time>2026-04-12T11:33:46Z</time></trkpt><trkpt lat="43.54429597525488" lon="6.9606411577447185"><ele>3.2857142857142856</ele><time>2026-04-12T11:33:47Z</time></trkpt><trkpt lat="43.54423933064433" lon="6.960578303927816"><ele>3.571428571428571</ele><time>2026-04-12T11:33:48Z</time></trkpt><trkpt lat="43.544183026370895" lon="6.960514101992822"><ele>3.8571428571428568</ele><time>2026-04-12T11:33:49Z</time></trkpt><trkpt lat="43.544124198810046" lon="6.960453272390219"><ele>4.142857142857142</ele><time>2026-04-12T11:33:50Z</time></trkpt><trkpt lat="43.54406425127896" lon="6.9603934149732085"><ele>4.428571428571429</ele><time>2026-04-12T11:33:51Z</time></trkpt><trkpt lat="43.543988916371" lon="6.960363473052122"><ele>4.714285714285714</ele><time>2026-04-12T11:33:52Z</time></trkpt><trkpt lat="43.54393135959505" lon="6.960302310575372"><ele>5.0</ele><time>2026-04-12T11:33:53Z</time></trkpt><trkpt lat="43.543876721004544" lon="6.960236960549902"><ele>5.0</ele><time>2026-04-12T11:33:54Z</time></trkpt><trkpt lat="43.543824606979946" lon="6.960176187593927"><ele>5.0</ele><time>2026-04-12T11:33:55Z</time></trkpt><trkpt lat="43.54377052983902" lon="6.960117939914054"><ele>5.0</ele><time>2026-04-12T11:33:56Z</time></trkpt><trkpt lat="43.543716806421095" lon="6.960060073310624"><ele>5.0</ele><time>2026-04-12T11:33:57Z</time></trkpt><trkpt lat="43.543664888352204" lon="6.9600041503681735"><ele>5.0</ele><time>2026-04-12T11:33:58Z</time></trkpt><trkpt lat="43.54362148895318" lon="6.959932912540531"><ele>5.0</ele><time>2026-04-12T11:33:59Z</time></trkpt><trkpt lat="43.54356648502121" lon="6.959884464554063"><ele>5.0</ele><time>2026-04-12T11:34:00Z</time></trkpt><trkpt lat="43.54350144343031" lon="6.959871797497513"><ele>5.0</ele><time>2026-04-12T11:34:01Z</time></trkpt><trkpt lat="43.54338098915289" lon="6.959789479235495"><ele>5.0</ele><time>2026-04-12T11:34:03Z</time></trkpt><trkpt lat="43.54331817997292" lon="6.959751267728241"><ele>5.0</ele><time>2026-04-12T11:34:04Z</time></trkpt><trkpt lat="43.543251397430176" lon="6.9597246386491864"><ele>5.0</ele><time>2026-04-12T11:34:05Z</time></trkpt><trkpt lat="43.54317998180344" lon="6.959734478110967"><ele>5.0</ele><time>2026-04-12T11:34:06Z</time></trkpt><trkpt lat="43.54310938470179" lon="6.95976748188979"><ele>5.0</ele><time>2026-04-12T11:34:07Z</time></trkpt><trkpt lat="43.54303814400415" lon="6.959794503543311"><ele>5.0</ele><time>2026-04-12T11:34:08Z</time></trkpt><trkpt lat="43.54296501710372" lon="6.959819089022011"><ele>5.0</ele><time>2026-04-12T11:34:09Z</time></trkpt><trkpt lat="43.542894153019375" lon="6.959856639453387"><ele>5.0</ele><time>2026-04-12T11:34:10Z</time></trkpt><trkpt lat="43.54282692953333" lon="6.95991336974511"><ele>5.0</ele><time>2026-04-12T11:34:11Z</time></trkpt><trkpt lat="43.542762670166354" lon="6.959973549218016"><ele>5.0</ele><time>2026-04-12T11:34:12Z</time></trkpt><trkpt lat="43.54269777370088" lon="6.960038907314152"><ele>5.0</ele><time>2026-04-12T11:34:13Z</time></trkpt><trkpt lat="43.542630436589185" lon="6.960106020599863"><ele>5.333333333333334</ele><time>2026-04-12T11:34:14Z</time></trkpt><trkpt lat="43.542558167738584" lon="6.960172461051263"><ele>5.666666666666667</ele><time>2026-04-12T11:34:15Z</time></trkpt><trkpt lat="43.54248452909748" lon="6.960243099254124"><ele>6.0</ele><time>2026-04-12T11:34:16Z</time></trkpt><trkpt lat="43.54241159819572" lon="6.96031409335441"><ele>6.333333333333334</ele><time>2026-04-12T11:34:17Z</time></trkpt><trkpt lat="43.54233876855736" lon="6.960385733845265"><ele>6.666666666666667</ele><time>2026-04-12T11:34:18Z</time></trkpt><trkpt lat="43.5422649373108" lon="6.960460357221915"><ele>7.0</ele><time>2026-04-12T11:34:19Z</time></trkpt><trkpt lat="43.54219778856461" lon="6.96053102322858"><ele>7.000000000000001</ele><time>2026-04-12T11:34:20Z</time></trkpt><trkpt lat="43.54213934913741" lon="6.960613271839612"><ele>7.0</ele><time>2026-04-12T11:34:21Z</time></trkpt><trkpt lat="43.5420661013407" lon="6.960667445319016"><ele>7.0</ele><time>2026-04-12T11:34:22Z</time></trkpt><trkpt lat="43.542002771728555" lon="6.9607121491652055"><ele>7.0</ele><time>2026-04-12T11:34:23Z</time></trkpt><trkpt lat="43.541943594487826" lon="6.960755880872711"><ele>7.000000000000001</ele><time>2026-04-12T11:34:24Z</time></trkpt><trkpt lat="43.54183606484472" lon="6.960829578896966"><ele>7.0</ele><time>2026-04-12T11:34:26Z</time></trkpt><trkpt lat="43.541737159878615" lon="6.960898010750579"><ele>6.8</ele><time>2026-04-12T11:34:28Z</time></trkpt><trkpt lat="43.54164525082002" lon="6.960966919902243"><ele>6.6</ele><time>2026-04-12T11:34:30Z</time></trkpt><trkpt lat="43.5415577880184" lon="6.9610213751503425"><ele>6.3999999999999995</ele><time>2026-04-12T11:34:32Z</time></trkpt><trkpt lat="43.541511265993975" lon="6.961142122903897"><ele>6.199999999999999</ele><time>2026-04-12T11:34:34Z</time></trkpt><trkpt lat="43.5415265544252" lon="6.961265697030298"><ele>6.0</ele><time>2026-04-12T11:34:36Z</time></trkpt><trkpt lat="43.54158913896902" lon="6.961359466881049"><ele>6.0</ele><time>2026-04-12T11:34:38Z</time></trkpt><trkpt lat="43.54166676942322" lon="6.961444314359753"><ele>6.0</ele><time>2026-04-12T11:34:40Z</time></trkpt><trkpt lat="43.54174029313546" lon="6.9615467141731955"><ele>6.0</ele><time>2026-04-12T11:34:42Z</time></trkpt><trkpt lat="43.541827421719276" lon="6.961652082135311"><ele>6.0</ele><time>2026-04-12T11:34:44Z</time></trkpt><trkpt lat="43.54190894039298" lon="6.961766589832525"><ele>6.0</ele><time>2026-04-12T11:34:46Z</time></trkpt><trkpt lat="43.541977595271796" lon="6.961910384139777"><ele>5.2</ele><time>2026-04-12T11:34:48Z</time></trkpt><trkpt lat="43.54201503008745" lon="6.961986656311564"><ele>4.3999999999999995</ele><time>2026-04-12T11:34:49Z</time></trkpt><trkpt lat="43.542083383679724" lon="6.962127026020936"><ele>3.6</ele><time>2026-04-12T11:34:51Z</time></trkpt><trkpt lat="43.54214465678968" lon="6.962259043119007"><ele>2.8</ele><time>2026-04-12T11:34:53Z</time></trkpt><trkpt lat="43.54221700928518" lon="6.962390743858592"><ele>2.0</ele><time>2026-04-12T11:34:55Z</time></trkpt><trkpt lat="43.54228027355996" lon="6.962528142912247"><ele>3.75</ele><time>2026-04-12T11:34:57Z</time></trkpt><trkpt lat="43.5423395366883" lon="6.962659313528603"><ele>5.5</ele><time>2026-04-12T11:34:59Z</time></trkpt><trkpt lat="43.54239512693752" lon="6.962790548460891"><ele>7.25</ele><time>2026-04-12T11:35:01Z</time></trkpt><trkpt lat="43.54245986883952" lon="6.962921100911493"><ele>9.0</ele><time>2026-04-12T11:35:03Z</time></trkpt><trkpt lat="43.5425254696328" lon="6.963051680599367"><ele>9.0</ele><time>2026-04-12T11:35:05Z</time></trkpt><trkpt lat="43.54258975313294" lon="6.963187843184731"><ele>9.0</ele><time>2026-04-12T11:35:07Z</time></trkpt><trkpt lat="43.542654372727974" lon="6.9633198564367715"><ele>9.0</ele><time>2026-04-12T11:35:09Z</time></trkpt><trkpt lat="43.54272110767971" lon="6.963456739172663"><ele>9.0</ele><time>2026-04-12T11:35:11Z</time></trkpt><trkpt lat="43.54277948594521" lon="6.963596251557926"><ele>9.0</ele><time>2026-04-12T11:35:13Z</time></trkpt><trkpt lat="43.542831460453115" lon="6.963731637706022"><ele>9.0</ele><time>2026-04-12T11:35:15Z</time></trkpt><trkpt lat="43.54289985625671" lon="6.963865144968532"><ele>9.0</ele><time>2026-04-12T11:35:17Z</time></trkpt><trkpt lat="43.542955860126185" lon="6.9640152158682715"><ele>9.0</ele><time>2026-04-12T11:35:19Z</time></trkpt><trkpt lat="43.543002332439514" lon="6.96407568789203"><ele>9.0</ele><time>2026-04-12T11:35:20Z</time></trkpt><trkpt lat="43.543061815713166" lon="6.964216378323037"><ele>9.0</ele><time>2026-04-12T11:35:22Z</time></trkpt><trkpt lat="43.543121659762996" lon="6.96435164340161"><ele>9.0</ele><time>2026-04-12T11:35:24Z</time></trkpt><trkpt lat="43.54317183525804" lon="6.9645032476172375"><ele>9.0</ele><time>2026-04-12T11:35:26Z</time></trkpt><trkpt lat="43.54324238498336" lon="6.964634607886607"><ele>9.0</ele><time>2026-04-12T11:35:28Z</time></trkpt><trkpt lat="43.54329966791735" lon="6.964779454107093"><ele>9.0</ele><time>2026-04-12T11:35:30Z</time></trkpt><trkpt lat="43.543361750950716" lon="6.964915094780887"><ele>9.0</ele><time>2026-04-12T11:35:32Z</time></trkpt><trkpt lat="43.54340419202535" lon="6.965068444667256"><ele>9.0</ele><time>2026-04-12T11:35:34Z</time></trkpt><trkpt lat="43.5434607136078" lon="6.965209641588086"><ele>9.0</ele><time>2026-04-12T11:35:36Z</time></trkpt><trkpt lat="43.54351712605763" lon="6.965350505593487"><ele>8.0</ele><time>2026-04-12T11:35:38Z</time></trkpt><trkpt lat="43.54358100828585" lon="6.9654806996198415"><ele>7.0</ele><time>2026-04-12T11:35:40Z</time></trkpt><trkpt lat="43.54363005674235" lon="6.9656167645619975"><ele>6.0</ele><time>2026-04-12T11:35:42Z</time></trkpt><trkpt lat="43.54368813607108" lon="6.9657430731840435"><ele>5.0</ele><time>2026-04-12T11:35:44Z</time></trkpt><trkpt lat="43.54373899207754" lon="6.965882718631957"><ele>4.0</ele><time>2026-04-12T11:35:46Z</time></trkpt><trkpt lat="43.54378881047047" lon="6.966018697978664"><ele>4.0</ele><time>2026-04-12T11:35:48Z</time></trkpt><trkpt lat="43.54383831010035" lon="6.96616030103441"><ele>4.0</ele><time>2026-04-12T11:35:50Z</time></trkpt><trkpt lat="43.54388393015164" lon="6.966304867298505"><ele>4.0</ele><time>2026-04-12T11:35:52Z</time></trkpt><trkpt lat="43.54392639134183" lon="6.966447613949367"><ele>4.0</ele><time>2026-04-12T11:35:54Z</time></trkpt><trkpt lat="43.54394787108118" lon="6.966569733566691"><ele>4.0</ele><time>2026-04-12T11:35:56Z</time></trkpt><trkpt lat="43.54397991948057" lon="6.966670570552952"><ele>3.8571428571428568</ele><time>2026-04-12T11:35:58Z</time></trkpt><trkpt lat="43.54401296835066" lon="6.966772002671611"><ele>3.714285714285714</ele><time>2026-04-12T11:36:00Z</time></trkpt><trkpt lat="43.544034314486495" lon="6.966878805593053"><ele>3.571428571428571</ele><time>2026-04-12T11:36:02Z</time></trkpt><trkpt lat="43.544028068133485" lon="6.966977143855458"><ele>3.4285714285714284</ele><time>2026-04-12T11:36:05Z</time></trkpt><trkpt lat="43.54406941521296" lon="6.967066593627084"><ele>3.2857142857142856</ele><time>2026-04-12T11:36:34Z</time></trkpt><trkpt lat="43.54409519762793" lon="6.967153661424792"><ele>3.1428571428571423</ele><time>2026-04-12T11:36:38Z</time></trkpt><trkpt lat="43.544134148635045" lon="6.9672302774197865"><ele>3.0</ele><time>2026-04-12T11:36:43Z</time></trkpt><trkpt lat="43.54417597024078" lon="6.967299743422716"><ele>3.0</ele><time>2026-04-12T11:36:48Z</time></trkpt><trkpt lat="43.54419805672082" lon="6.967385769143313"><ele>3.0</ele><time>2026-04-12T11:37:09Z</time></trkpt><trkpt lat="43.54415467263665" lon="6.967502351383138"><ele>3.0</ele><time>2026-04-12T11:38:03Z</time></trkpt><trkpt lat="43.54408856730503" lon="6.9675394002890405"><ele>3.0</ele><time>2026-04-12T11:38:58Z</time></trkpt><trkpt lat="43.54404309603938" lon="6.96760004739248"><ele>3.0</ele><time>2026-04-12T11:39:10Z</time></trkpt><trkpt lat="43.54397651302161" lon="6.967682631860458"><ele>3.0</ele><time>2026-04-12T11:39:48Z</time></trkpt><trkpt lat="43.54391025601027" lon="6.967704738796222"><ele>1.0</ele><time>2026-04-12T11:40:06Z</time></trkpt><trkpt lat="43.54385100041517" lon="6.967751808660043"><ele>1.0</ele><time>2026-04-12T11:40:16Z</time></trkpt><trkpt lat="43.54385100041517" lon="6.967751808660043"><ele>1.0</ele><time>2026-04-12T11:40:16Z</time></trkpt><trkpt lat="43.54385100041517" lon="6.967751808660043"><ele>1.0</ele><time>2026-04-12T11:40:16Z</time></trkpt></trkseg></trk></gpx>